<?xml version="1.0" encoding="UTF-8" standalone="no" ?>
<gpx xmlns="http://www.topografix.com/GPX/1/1" xmlns:xsi="http://www.w3.org/2001/XMLSchema-instance" xsi:schemaLocation="http://www.topografix.com/GPX/1/1 http://www.topografix.com/GPX/1/1/gpx.xsd" version="1.1" creator="VisuGPX - https://www.visugpx.com">
  <metadata>
    <name>Pyrénées, dans le Vicdessos (Auzat)</name>
    <desc><![CDATA[Belle virée dans le Vicdessos avec de beaux passages sur les aqueducs.]]></desc>
  </metadata>
  <trk>
    <name><![CDATA[Pyrénées, autour de Vicdessos ]]></name>
    <trkseg>
      <trkpt lat="42.74322" lon="1.46375">
        <ele>849</ele>
        <time>2020-08-05T09:06:14Z</time>
      </trkpt>
      <trkpt lat="42.74321" lon="1.46374">
        <ele>849</ele>
        <time>2020-08-05T09:06:17Z</time>
      </trkpt>
      <trkpt lat="42.74321" lon="1.46373">
        <ele>849.4</ele>
        <time>2020-08-05T09:06:18Z</time>
      </trkpt>
      <trkpt lat="42.74314" lon="1.46362">
        <ele>849.6</ele>
        <time>2020-08-05T09:06:22Z</time>
      </trkpt>
      <trkpt lat="42.74307" lon="1.46352">
        <ele>850</ele>
        <time>2020-08-05T09:06:26Z</time>
      </trkpt>
      <trkpt lat="42.74306" lon="1.4635">
        <ele>850.2</ele>
        <time>2020-08-05T09:06:27Z</time>
      </trkpt>
      <trkpt lat="42.743" lon="1.4634">
        <ele>851.2</ele>
        <time>2020-08-05T09:06:31Z</time>
      </trkpt>
      <trkpt lat="42.74298" lon="1.46337">
        <ele>851.4</ele>
        <time>2020-08-05T09:06:32Z</time>
      </trkpt>
      <trkpt lat="42.74293" lon="1.46326">
        <ele>852.2</ele>
        <time>2020-08-05T09:06:36Z</time>
      </trkpt>
      <trkpt lat="42.7429" lon="1.46322">
        <ele>852.6</ele>
        <time>2020-08-05T09:06:38Z</time>
      </trkpt>
      <trkpt lat="42.74285" lon="1.46312">
        <ele>853.4</ele>
        <time>2020-08-05T09:06:42Z</time>
      </trkpt>
      <trkpt lat="42.74279" lon="1.46303">
        <ele>854.6</ele>
        <time>2020-08-05T09:06:46Z</time>
      </trkpt>
      <trkpt lat="42.74276" lon="1.46297">
        <ele>855.6</ele>
        <time>2020-08-05T09:06:49Z</time>
      </trkpt>
      <trkpt lat="42.7427" lon="1.46288">
        <ele>856</ele>
        <time>2020-08-05T09:06:53Z</time>
      </trkpt>
      <trkpt lat="42.74264" lon="1.46281">
        <ele>856.6</ele>
        <time>2020-08-05T09:06:56Z</time>
      </trkpt>
      <trkpt lat="42.74256" lon="1.46272">
        <ele>857.8</ele>
        <time>2020-08-05T09:07:01Z</time>
      </trkpt>
      <trkpt lat="42.74246" lon="1.46264">
        <ele>858.8</ele>
        <time>2020-08-05T09:07:06Z</time>
      </trkpt>
      <trkpt lat="42.74243" lon="1.46262">
        <ele>859.6</ele>
        <time>2020-08-05T09:07:08Z</time>
      </trkpt>
      <trkpt lat="42.74241" lon="1.46261">
        <ele>859.8</ele>
        <time>2020-08-05T09:07:09Z</time>
      </trkpt>
      <trkpt lat="42.74229" lon="1.46254">
        <ele>861</ele>
        <time>2020-08-05T09:07:15Z</time>
      </trkpt>
      <trkpt lat="42.74227" lon="1.46253">
        <ele>861.2</ele>
        <time>2020-08-05T09:07:16Z</time>
      </trkpt>
      <trkpt lat="42.74221" lon="1.4625">
        <ele>862</ele>
        <time>2020-08-05T09:07:19Z</time>
      </trkpt>
      <trkpt lat="42.74214" lon="1.46247">
        <ele>862.8</ele>
        <time>2020-08-05T09:07:23Z</time>
      </trkpt>
      <trkpt lat="42.7421" lon="1.46245">
        <ele>863.2</ele>
        <time>2020-08-05T09:07:25Z</time>
      </trkpt>
      <trkpt lat="42.74202" lon="1.46241">
        <ele>864.2</ele>
        <time>2020-08-05T09:07:29Z</time>
      </trkpt>
      <trkpt lat="42.74199" lon="1.46239">
        <ele>864.6</ele>
        <time>2020-08-05T09:07:31Z</time>
      </trkpt>
      <trkpt lat="42.74195" lon="1.46237">
        <ele>865.4</ele>
        <time>2020-08-05T09:07:33Z</time>
      </trkpt>
      <trkpt lat="42.7418" lon="1.46232">
        <ele>866.6</ele>
        <time>2020-08-05T09:07:40Z</time>
      </trkpt>
      <trkpt lat="42.7417" lon="1.4623">
        <ele>867.6</ele>
        <time>2020-08-05T09:07:45Z</time>
      </trkpt>
      <trkpt lat="42.74164" lon="1.46228">
        <ele>868.4</ele>
        <time>2020-08-05T09:07:48Z</time>
      </trkpt>
      <trkpt lat="42.74161" lon="1.46226">
        <ele>868.8</ele>
        <time>2020-08-05T09:07:50Z</time>
      </trkpt>
      <trkpt lat="42.74155" lon="1.46218">
        <ele>870</ele>
        <time>2020-08-05T09:07:55Z</time>
      </trkpt>
      <trkpt lat="42.74149" lon="1.46211">
        <ele>871</ele>
        <time>2020-08-05T09:07:59Z</time>
      </trkpt>
      <trkpt lat="42.74144" lon="1.46208">
        <ele>871.6</ele>
        <time>2020-08-05T09:08:02Z</time>
      </trkpt>
      <trkpt lat="42.7414" lon="1.46206">
        <ele>872</ele>
        <time>2020-08-05T09:08:04Z</time>
      </trkpt>
      <trkpt lat="42.7413" lon="1.46203">
        <ele>873.2</ele>
        <time>2020-08-05T09:08:09Z</time>
      </trkpt>
      <trkpt lat="42.74126" lon="1.46202">
        <ele>873.8</ele>
        <time>2020-08-05T09:08:11Z</time>
      </trkpt>
      <trkpt lat="42.7412" lon="1.46202">
        <ele>874.4</ele>
        <time>2020-08-05T09:08:14Z</time>
      </trkpt>
      <trkpt lat="42.74112" lon="1.46203">
        <ele>875.2</ele>
        <time>2020-08-05T09:08:18Z</time>
      </trkpt>
      <trkpt lat="42.74108" lon="1.46203">
        <ele>875.8</ele>
        <time>2020-08-05T09:08:20Z</time>
      </trkpt>
      <trkpt lat="42.74098" lon="1.46201">
        <ele>876.8</ele>
        <time>2020-08-05T09:08:25Z</time>
      </trkpt>
      <trkpt lat="42.74096" lon="1.46202">
        <ele>877</ele>
        <time>2020-08-05T09:08:26Z</time>
      </trkpt>
      <trkpt lat="42.74086" lon="1.46199">
        <ele>878</ele>
        <time>2020-08-05T09:08:31Z</time>
      </trkpt>
      <trkpt lat="42.74082" lon="1.46198">
        <ele>878.6</ele>
        <time>2020-08-05T09:08:33Z</time>
      </trkpt>
      <trkpt lat="42.74078" lon="1.46196">
        <ele>879</ele>
        <time>2020-08-05T09:08:35Z</time>
      </trkpt>
      <trkpt lat="42.74069" lon="1.46194">
        <ele>880.2</ele>
        <time>2020-08-05T09:08:40Z</time>
      </trkpt>
      <trkpt lat="42.74066" lon="1.46192">
        <ele>880.6</ele>
        <time>2020-08-05T09:08:42Z</time>
      </trkpt>
      <trkpt lat="42.74063" lon="1.4619">
        <ele>881.2</ele>
        <time>2020-08-05T09:08:44Z</time>
      </trkpt>
      <trkpt lat="42.74054" lon="1.46186">
        <ele>882.2</ele>
        <time>2020-08-05T09:08:49Z</time>
      </trkpt>
      <trkpt lat="42.74052" lon="1.46185">
        <ele>882.4</ele>
        <time>2020-08-05T09:08:50Z</time>
      </trkpt>
      <trkpt lat="42.74041" lon="1.46179">
        <ele>883.6</ele>
        <time>2020-08-05T09:08:56Z</time>
      </trkpt>
      <trkpt lat="42.7404" lon="1.46178">
        <ele>883.8</ele>
        <time>2020-08-05T09:08:57Z</time>
      </trkpt>
      <trkpt lat="42.74032" lon="1.46173">
        <ele>884.6</ele>
        <time>2020-08-05T09:09:01Z</time>
      </trkpt>
      <trkpt lat="42.74027" lon="1.4617">
        <ele>885.2</ele>
        <time>2020-08-05T09:09:04Z</time>
      </trkpt>
      <trkpt lat="42.74023" lon="1.46168">
        <ele>885.6</ele>
        <time>2020-08-05T09:09:06Z</time>
      </trkpt>
      <trkpt lat="42.74016" lon="1.46164">
        <ele>886.8</ele>
        <time>2020-08-05T09:09:10Z</time>
      </trkpt>
      <trkpt lat="42.7401" lon="1.4616">
        <ele>887.4</ele>
        <time>2020-08-05T09:09:13Z</time>
      </trkpt>
      <trkpt lat="42.74007" lon="1.46158">
        <ele>888</ele>
        <time>2020-08-05T09:09:15Z</time>
      </trkpt>
      <trkpt lat="42.73997" lon="1.46151">
        <ele>889</ele>
        <time>2020-08-05T09:09:20Z</time>
      </trkpt>
      <trkpt lat="42.73994" lon="1.46148">
        <ele>889.6</ele>
        <time>2020-08-05T09:09:22Z</time>
      </trkpt>
      <trkpt lat="42.73988" lon="1.46144">
        <ele>890</ele>
        <time>2020-08-05T09:09:25Z</time>
      </trkpt>
      <trkpt lat="42.73979" lon="1.46138">
        <ele>891.2</ele>
        <time>2020-08-05T09:09:30Z</time>
      </trkpt>
      <trkpt lat="42.73977" lon="1.46137">
        <ele>891.4</ele>
        <time>2020-08-05T09:09:31Z</time>
      </trkpt>
      <trkpt lat="42.73972" lon="1.46134">
        <ele>892.2</ele>
        <time>2020-08-05T09:09:34Z</time>
      </trkpt>
      <trkpt lat="42.73965" lon="1.46129">
        <ele>893.2</ele>
        <time>2020-08-05T09:09:38Z</time>
      </trkpt>
      <trkpt lat="42.73964" lon="1.46128">
        <ele>893.4</ele>
        <time>2020-08-05T09:09:39Z</time>
      </trkpt>
      <trkpt lat="42.73954" lon="1.46122">
        <ele>894.4</ele>
        <time>2020-08-05T09:09:44Z</time>
      </trkpt>
      <trkpt lat="42.7395" lon="1.46121">
        <ele>895</ele>
        <time>2020-08-05T09:09:46Z</time>
      </trkpt>
      <trkpt lat="42.73945" lon="1.46118">
        <ele>895.6</ele>
        <time>2020-08-05T09:09:49Z</time>
      </trkpt>
      <trkpt lat="42.73935" lon="1.46113">
        <ele>896.8</ele>
        <time>2020-08-05T09:09:54Z</time>
      </trkpt>
      <trkpt lat="42.73933" lon="1.46113">
        <ele>897</ele>
        <time>2020-08-05T09:09:55Z</time>
      </trkpt>
      <trkpt lat="42.73928" lon="1.4611">
        <ele>897.8</ele>
        <time>2020-08-05T09:09:58Z</time>
      </trkpt>
      <trkpt lat="42.73918" lon="1.46107">
        <ele>898.8</ele>
        <time>2020-08-05T09:10:03Z</time>
      </trkpt>
      <trkpt lat="42.73909" lon="1.46101">
        <ele>900</ele>
        <time>2020-08-05T09:10:08Z</time>
      </trkpt>
      <trkpt lat="42.73901" lon="1.46098">
        <ele>901</ele>
        <time>2020-08-05T09:10:12Z</time>
      </trkpt>
      <trkpt lat="42.73888" lon="1.46093">
        <ele>902.2</ele>
        <time>2020-08-05T09:10:18Z</time>
      </trkpt>
      <trkpt lat="42.73884" lon="1.46092">
        <ele>902.8</ele>
        <time>2020-08-05T09:10:20Z</time>
      </trkpt>
      <trkpt lat="42.7388" lon="1.4609">
        <ele>903.2</ele>
        <time>2020-08-05T09:10:22Z</time>
      </trkpt>
      <trkpt lat="42.73865" lon="1.46089">
        <ele>904.4</ele>
        <time>2020-08-05T09:10:29Z</time>
      </trkpt>
      <trkpt lat="42.73855" lon="1.46088">
        <ele>904.8</ele>
        <time>2020-08-05T09:10:33Z</time>
      </trkpt>
      <trkpt lat="42.73847" lon="1.46089">
        <ele>905</ele>
        <time>2020-08-05T09:10:36Z</time>
      </trkpt>
      <trkpt lat="42.73839" lon="1.4609">
        <ele>905.4</ele>
        <time>2020-08-05T09:10:39Z</time>
      </trkpt>
      <trkpt lat="42.73824" lon="1.4609">
        <ele>906</ele>
        <time>2020-08-05T09:10:44Z</time>
      </trkpt>
      <trkpt lat="42.73806" lon="1.46088">
        <ele>906.4</ele>
        <time>2020-08-05T09:10:50Z</time>
      </trkpt>
      <trkpt lat="42.738" lon="1.46087">
        <ele>906.6</ele>
        <time>2020-08-05T09:10:52Z</time>
      </trkpt>
      <trkpt lat="42.73775" lon="1.46087">
        <ele>907.4</ele>
        <time>2020-08-05T09:11:01Z</time>
      </trkpt>
      <trkpt lat="42.73769" lon="1.46087">
        <ele>907.6</ele>
        <time>2020-08-05T09:11:03Z</time>
      </trkpt>
      <trkpt lat="42.7375" lon="1.46091">
        <ele>908.4</ele>
        <time>2020-08-05T09:11:10Z</time>
      </trkpt>
      <trkpt lat="42.73748" lon="1.46092">
        <ele>908.4</ele>
        <time>2020-08-05T09:11:11Z</time>
      </trkpt>
      <trkpt lat="42.73727" lon="1.4609">
        <ele>909</ele>
        <time>2020-08-05T09:11:18Z</time>
      </trkpt>
      <trkpt lat="42.73714" lon="1.46087">
        <ele>909.6</ele>
        <time>2020-08-05T09:11:23Z</time>
      </trkpt>
      <trkpt lat="42.73706" lon="1.46087">
        <ele>909.8</ele>
        <time>2020-08-05T09:11:26Z</time>
      </trkpt>
      <trkpt lat="42.73692" lon="1.46085">
        <ele>910.6</ele>
        <time>2020-08-05T09:11:31Z</time>
      </trkpt>
      <trkpt lat="42.73686" lon="1.46084">
        <ele>911</ele>
        <time>2020-08-05T09:11:33Z</time>
      </trkpt>
      <trkpt lat="42.73665" lon="1.46083">
        <ele>911.6</ele>
        <time>2020-08-05T09:11:40Z</time>
      </trkpt>
      <trkpt lat="42.73637" lon="1.4608">
        <ele>912.4</ele>
        <time>2020-08-05T09:11:49Z</time>
      </trkpt>
      <trkpt lat="42.73627" lon="1.46076">
        <ele>912.6</ele>
        <time>2020-08-05T09:11:52Z</time>
      </trkpt>
      <trkpt lat="42.73616" lon="1.46072">
        <ele>913.2</ele>
        <time>2020-08-05T09:11:56Z</time>
      </trkpt>
      <trkpt lat="42.73598" lon="1.46064">
        <ele>913.6</ele>
        <time>2020-08-05T09:12:03Z</time>
      </trkpt>
      <trkpt lat="42.73583" lon="1.46049">
        <ele>913.6</ele>
        <time>2020-08-05T09:12:09Z</time>
      </trkpt>
      <trkpt lat="42.7358" lon="1.46046">
        <ele>913.8</ele>
        <time>2020-08-05T09:12:10Z</time>
      </trkpt>
      <trkpt lat="42.73567" lon="1.46022">
        <ele>913.8</ele>
        <time>2020-08-05T09:12:16Z</time>
      </trkpt>
      <trkpt lat="42.73551" lon="1.45987">
        <ele>912.8</ele>
        <time>2020-08-05T09:12:23Z</time>
      </trkpt>
      <trkpt lat="42.73549" lon="1.45981">
        <ele>912.6</ele>
        <time>2020-08-05T09:12:24Z</time>
      </trkpt>
      <trkpt lat="42.73537" lon="1.45957">
        <ele>912</ele>
        <time>2020-08-05T09:12:28Z</time>
      </trkpt>
      <trkpt lat="42.7353" lon="1.45944">
        <ele>911.6</ele>
        <time>2020-08-05T09:12:30Z</time>
      </trkpt>
      <trkpt lat="42.73527" lon="1.45938">
        <ele>911.6</ele>
        <time>2020-08-05T09:12:31Z</time>
      </trkpt>
      <trkpt lat="42.73506" lon="1.45899">
        <ele>911</ele>
        <time>2020-08-05T09:12:38Z</time>
      </trkpt>
      <trkpt lat="42.73487" lon="1.45865">
        <ele>912</ele>
        <time>2020-08-05T09:12:45Z</time>
      </trkpt>
      <trkpt lat="42.73476" lon="1.45855">
        <ele>912.8</ele>
        <time>2020-08-05T09:12:49Z</time>
      </trkpt>
      <trkpt lat="42.73472" lon="1.45854">
        <ele>913.2</ele>
        <time>2020-08-05T09:12:50Z</time>
      </trkpt>
      <trkpt lat="42.73463" lon="1.45855">
        <ele>914</ele>
        <time>2020-08-05T09:12:53Z</time>
      </trkpt>
      <trkpt lat="42.73458" lon="1.45859">
        <ele>914.4</ele>
        <time>2020-08-05T09:12:55Z</time>
      </trkpt>
      <trkpt lat="42.7345" lon="1.45865">
        <ele>915.2</ele>
        <time>2020-08-05T09:12:58Z</time>
      </trkpt>
      <trkpt lat="42.73444" lon="1.45872">
        <ele>915.8</ele>
        <time>2020-08-05T09:13:01Z</time>
      </trkpt>
      <trkpt lat="42.7344" lon="1.45876">
        <ele>916.2</ele>
        <time>2020-08-05T09:13:03Z</time>
      </trkpt>
      <trkpt lat="42.7343" lon="1.45883">
        <ele>917.4</ele>
        <time>2020-08-05T09:13:07Z</time>
      </trkpt>
      <trkpt lat="42.73427" lon="1.45885">
        <ele>917.6</ele>
        <time>2020-08-05T09:13:08Z</time>
      </trkpt>
      <trkpt lat="42.73415" lon="1.45889">
        <ele>918.4</ele>
        <time>2020-08-05T09:13:12Z</time>
      </trkpt>
      <trkpt lat="42.73412" lon="1.45889">
        <ele>918.4</ele>
        <time>2020-08-05T09:13:13Z</time>
      </trkpt>
      <trkpt lat="42.73395" lon="1.45887">
        <ele>917.8</ele>
        <time>2020-08-05T09:13:17Z</time>
      </trkpt>
      <trkpt lat="42.73391" lon="1.45886">
        <ele>917.6</ele>
        <time>2020-08-05T09:13:18Z</time>
      </trkpt>
      <trkpt lat="42.73375" lon="1.45873">
        <ele>917.4</ele>
        <time>2020-08-05T09:13:22Z</time>
      </trkpt>
      <trkpt lat="42.73372" lon="1.45869">
        <ele>917.2</ele>
        <time>2020-08-05T09:13:23Z</time>
      </trkpt>
      <trkpt lat="42.73368" lon="1.45865">
        <ele>917.2</ele>
        <time>2020-08-05T09:13:24Z</time>
      </trkpt>
      <trkpt lat="42.73348" lon="1.45838">
        <ele>918.2</ele>
        <time>2020-08-05T09:13:31Z</time>
      </trkpt>
      <trkpt lat="42.73345" lon="1.45835">
        <ele>918.4</ele>
        <time>2020-08-05T09:13:32Z</time>
      </trkpt>
      <trkpt lat="42.73336" lon="1.45821">
        <ele>919.6</ele>
        <time>2020-08-05T09:13:36Z</time>
      </trkpt>
      <trkpt lat="42.73334" lon="1.45818">
        <ele>920</ele>
        <time>2020-08-05T09:13:37Z</time>
      </trkpt>
      <trkpt lat="42.7333" lon="1.45812">
        <ele>920.6</ele>
        <time>2020-08-05T09:13:39Z</time>
      </trkpt>
      <trkpt lat="42.7332" lon="1.45801">
        <ele>921.6</ele>
        <time>2020-08-05T09:13:43Z</time>
      </trkpt>
      <trkpt lat="42.73314" lon="1.45797">
        <ele>921.8</ele>
        <time>2020-08-05T09:13:45Z</time>
      </trkpt>
      <trkpt lat="42.733" lon="1.45791">
        <ele>922.2</ele>
        <time>2020-08-05T09:13:49Z</time>
      </trkpt>
      <trkpt lat="42.73282" lon="1.45791">
        <ele>923</ele>
        <time>2020-08-05T09:13:54Z</time>
      </trkpt>
      <trkpt lat="42.73275" lon="1.4579">
        <ele>923.4</ele>
        <time>2020-08-05T09:13:56Z</time>
      </trkpt>
      <trkpt lat="42.73262" lon="1.45797">
        <ele>924.2</ele>
        <time>2020-08-05T09:14:00Z</time>
      </trkpt>
      <trkpt lat="42.73252" lon="1.45801">
        <ele>924.8</ele>
        <time>2020-08-05T09:14:03Z</time>
      </trkpt>
      <trkpt lat="42.73246" lon="1.45804">
        <ele>925.4</ele>
        <time>2020-08-05T09:14:05Z</time>
      </trkpt>
      <trkpt lat="42.73234" lon="1.45805">
        <ele>926.4</ele>
        <time>2020-08-05T09:14:09Z</time>
      </trkpt>
      <trkpt lat="42.73215" lon="1.45809">
        <ele>927.2</ele>
        <time>2020-08-05T09:14:15Z</time>
      </trkpt>
      <trkpt lat="42.73201" lon="1.45808">
        <ele>927.4</ele>
        <time>2020-08-05T09:14:19Z</time>
      </trkpt>
      <trkpt lat="42.73187" lon="1.45805">
        <ele>927.8</ele>
        <time>2020-08-05T09:14:23Z</time>
      </trkpt>
      <trkpt lat="42.73174" lon="1.45801">
        <ele>928.6</ele>
        <time>2020-08-05T09:14:27Z</time>
      </trkpt>
      <trkpt lat="42.73168" lon="1.45799">
        <ele>929</ele>
        <time>2020-08-05T09:14:29Z</time>
      </trkpt>
      <trkpt lat="42.73139" lon="1.45796">
        <ele>928.8</ele>
        <time>2020-08-05T09:14:37Z</time>
      </trkpt>
      <trkpt lat="42.7312" lon="1.45792">
        <ele>927.4</ele>
        <time>2020-08-05T09:14:42Z</time>
      </trkpt>
      <trkpt lat="42.73116" lon="1.45786">
        <ele>927</ele>
        <time>2020-08-05T09:14:44Z</time>
      </trkpt>
      <trkpt lat="42.73115" lon="1.4578">
        <ele>926.4</ele>
        <time>2020-08-05T09:14:45Z</time>
      </trkpt>
      <trkpt lat="42.73116" lon="1.45768">
        <ele>926</ele>
        <time>2020-08-05T09:14:48Z</time>
      </trkpt>
      <trkpt lat="42.73116" lon="1.45766">
        <ele>926</ele>
        <time>2020-08-05T09:14:50Z</time>
      </trkpt>
      <trkpt lat="42.73116" lon="1.45765">
        <ele>926</ele>
        <time>2020-08-05T09:14:53Z</time>
      </trkpt>
      <trkpt lat="42.73114" lon="1.45762">
        <ele>926</ele>
        <time>2020-08-05T09:15:02Z</time>
      </trkpt>
      <trkpt lat="42.73114" lon="1.4576">
        <ele>926</ele>
        <time>2020-08-05T09:15:04Z</time>
      </trkpt>
      <trkpt lat="42.73116" lon="1.45752">
        <ele>926</ele>
        <time>2020-08-05T09:15:07Z</time>
      </trkpt>
      <trkpt lat="42.73124" lon="1.45742">
        <ele>926.4</ele>
        <time>2020-08-05T09:15:12Z</time>
      </trkpt>
      <trkpt lat="42.73136" lon="1.45742">
        <ele>927.2</ele>
        <time>2020-08-05T09:15:16Z</time>
      </trkpt>
      <trkpt lat="42.73141" lon="1.4574">
        <ele>927.6</ele>
        <time>2020-08-05T09:15:18Z</time>
      </trkpt>
      <trkpt lat="42.73148" lon="1.45735">
        <ele>928.6</ele>
        <time>2020-08-05T09:15:21Z</time>
      </trkpt>
      <trkpt lat="42.73149" lon="1.45734">
        <ele>928.8</ele>
        <time>2020-08-05T09:15:22Z</time>
      </trkpt>
      <trkpt lat="42.73151" lon="1.45727">
        <ele>929.6</ele>
        <time>2020-08-05T09:15:25Z</time>
      </trkpt>
      <trkpt lat="42.73151" lon="1.45724">
        <ele>929.8</ele>
        <time>2020-08-05T09:15:26Z</time>
      </trkpt>
      <trkpt lat="42.73146" lon="1.45718">
        <ele>930.6</ele>
        <time>2020-08-05T09:15:29Z</time>
      </trkpt>
      <trkpt lat="42.73145" lon="1.45717">
        <ele>930.8</ele>
        <time>2020-08-05T09:15:30Z</time>
      </trkpt>
      <trkpt lat="42.73144" lon="1.45716">
        <ele>931</ele>
        <time>2020-08-05T09:15:31Z</time>
      </trkpt>
      <trkpt lat="42.73139" lon="1.4571">
        <ele>931.8</ele>
        <time>2020-08-05T09:15:35Z</time>
      </trkpt>
      <trkpt lat="42.73135" lon="1.45706">
        <ele>932.2</ele>
        <time>2020-08-05T09:15:37Z</time>
      </trkpt>
      <trkpt lat="42.7313" lon="1.45702">
        <ele>932.8</ele>
        <time>2020-08-05T09:15:40Z</time>
      </trkpt>
      <trkpt lat="42.73124" lon="1.45696">
        <ele>933.4</ele>
        <time>2020-08-05T09:15:44Z</time>
      </trkpt>
      <trkpt lat="42.73119" lon="1.45691">
        <ele>934</ele>
        <time>2020-08-05T09:15:47Z</time>
      </trkpt>
      <trkpt lat="42.73112" lon="1.45688">
        <ele>935</ele>
        <time>2020-08-05T09:15:51Z</time>
      </trkpt>
      <trkpt lat="42.7311" lon="1.45687">
        <ele>935.2</ele>
        <time>2020-08-05T09:15:52Z</time>
      </trkpt>
      <trkpt lat="42.73104" lon="1.45681">
        <ele>936.2</ele>
        <time>2020-08-05T09:15:56Z</time>
      </trkpt>
      <trkpt lat="42.73103" lon="1.4568">
        <ele>936.6</ele>
        <time>2020-08-05T09:15:57Z</time>
      </trkpt>
      <trkpt lat="42.73098" lon="1.45674">
        <ele>937.6</ele>
        <time>2020-08-05T09:16:01Z</time>
      </trkpt>
      <trkpt lat="42.73097" lon="1.45672">
        <ele>937.8</ele>
        <time>2020-08-05T09:16:02Z</time>
      </trkpt>
      <trkpt lat="42.73092" lon="1.45666">
        <ele>938.8</ele>
        <time>2020-08-05T09:16:06Z</time>
      </trkpt>
      <trkpt lat="42.73087" lon="1.45662">
        <ele>939.4</ele>
        <time>2020-08-05T09:16:09Z</time>
      </trkpt>
      <trkpt lat="42.73086" lon="1.45658">
        <ele>939.8</ele>
        <time>2020-08-05T09:16:11Z</time>
      </trkpt>
      <trkpt lat="42.73083" lon="1.4565">
        <ele>940.6</ele>
        <time>2020-08-05T09:16:15Z</time>
      </trkpt>
      <trkpt lat="42.73081" lon="1.45646">
        <ele>941</ele>
        <time>2020-08-05T09:16:17Z</time>
      </trkpt>
      <trkpt lat="42.73077" lon="1.45639">
        <ele>942</ele>
        <time>2020-08-05T09:16:21Z</time>
      </trkpt>
      <trkpt lat="42.73077" lon="1.45637">
        <ele>942.2</ele>
        <time>2020-08-05T09:16:22Z</time>
      </trkpt>
      <trkpt lat="42.73075" lon="1.4563">
        <ele>943.2</ele>
        <time>2020-08-05T09:16:26Z</time>
      </trkpt>
      <trkpt lat="42.73073" lon="1.45627">
        <ele>943.4</ele>
        <time>2020-08-05T09:16:28Z</time>
      </trkpt>
      <trkpt lat="42.73072" lon="1.45625">
        <ele>943.6</ele>
        <time>2020-08-05T09:16:29Z</time>
      </trkpt>
      <trkpt lat="42.73068" lon="1.45618">
        <ele>944.4</ele>
        <time>2020-08-05T09:16:33Z</time>
      </trkpt>
      <trkpt lat="42.73064" lon="1.45607">
        <ele>945.4</ele>
        <time>2020-08-05T09:16:39Z</time>
      </trkpt>
      <trkpt lat="42.73063" lon="1.45602">
        <ele>945.8</ele>
        <time>2020-08-05T09:16:41Z</time>
      </trkpt>
      <trkpt lat="42.73058" lon="1.45595">
        <ele>946.6</ele>
        <time>2020-08-05T09:16:45Z</time>
      </trkpt>
      <trkpt lat="42.73057" lon="1.45589">
        <ele>947.2</ele>
        <time>2020-08-05T09:16:48Z</time>
      </trkpt>
      <trkpt lat="42.73057" lon="1.45587">
        <ele>947.4</ele>
        <time>2020-08-05T09:16:49Z</time>
      </trkpt>
      <trkpt lat="42.73059" lon="1.45583">
        <ele>947.8</ele>
        <time>2020-08-05T09:16:51Z</time>
      </trkpt>
      <trkpt lat="42.7306" lon="1.45582">
        <ele>948</ele>
        <time>2020-08-05T09:16:52Z</time>
      </trkpt>
      <trkpt lat="42.73067" lon="1.45586">
        <ele>948.6</ele>
        <time>2020-08-05T09:16:57Z</time>
      </trkpt>
      <trkpt lat="42.73069" lon="1.4559">
        <ele>949</ele>
        <time>2020-08-05T09:16:59Z</time>
      </trkpt>
      <trkpt lat="42.7307" lon="1.45592">
        <ele>949</ele>
        <time>2020-08-05T09:17:00Z</time>
      </trkpt>
      <trkpt lat="42.73072" lon="1.45602">
        <ele>950</ele>
        <time>2020-08-05T09:17:05Z</time>
      </trkpt>
      <trkpt lat="42.73079" lon="1.45613">
        <ele>951</ele>
        <time>2020-08-05T09:17:11Z</time>
      </trkpt>
      <trkpt lat="42.73082" lon="1.45617">
        <ele>951.4</ele>
        <time>2020-08-05T09:17:13Z</time>
      </trkpt>
      <trkpt lat="42.73088" lon="1.45625">
        <ele>952.2</ele>
        <time>2020-08-05T09:17:17Z</time>
      </trkpt>
      <trkpt lat="42.73092" lon="1.45631">
        <ele>952.4</ele>
        <time>2020-08-05T09:17:20Z</time>
      </trkpt>
      <trkpt lat="42.731" lon="1.45637">
        <ele>953.2</ele>
        <time>2020-08-05T09:17:25Z</time>
      </trkpt>
      <trkpt lat="42.73101" lon="1.45638">
        <ele>953.4</ele>
        <time>2020-08-05T09:17:26Z</time>
      </trkpt>
      <trkpt lat="42.73111" lon="1.45644">
        <ele>954</ele>
        <time>2020-08-05T09:17:32Z</time>
      </trkpt>
      <trkpt lat="42.73113" lon="1.45645">
        <ele>954.4</ele>
        <time>2020-08-05T09:17:33Z</time>
      </trkpt>
      <trkpt lat="42.73122" lon="1.45649">
        <ele>955.4</ele>
        <time>2020-08-05T09:17:38Z</time>
      </trkpt>
      <trkpt lat="42.73131" lon="1.45651">
        <ele>956.6</ele>
        <time>2020-08-05T09:17:43Z</time>
      </trkpt>
      <trkpt lat="42.73133" lon="1.45651">
        <ele>956.8</ele>
        <time>2020-08-05T09:17:44Z</time>
      </trkpt>
      <trkpt lat="42.7314" lon="1.45654">
        <ele>957.6</ele>
        <time>2020-08-05T09:17:48Z</time>
      </trkpt>
      <trkpt lat="42.73144" lon="1.45657">
        <ele>958.6</ele>
        <time>2020-08-05T09:17:52Z</time>
      </trkpt>
      <trkpt lat="42.73145" lon="1.45658">
        <ele>958.8</ele>
        <time>2020-08-05T09:17:53Z</time>
      </trkpt>
      <trkpt lat="42.7315" lon="1.45662">
        <ele>960</ele>
        <time>2020-08-05T09:17:57Z</time>
      </trkpt>
      <trkpt lat="42.73153" lon="1.45664">
        <ele>960.4</ele>
        <time>2020-08-05T09:17:59Z</time>
      </trkpt>
      <trkpt lat="42.73156" lon="1.45667">
        <ele>961</ele>
        <time>2020-08-05T09:18:02Z</time>
      </trkpt>
      <trkpt lat="42.73163" lon="1.45674">
        <ele>962.2</ele>
        <time>2020-08-05T09:18:07Z</time>
      </trkpt>
      <trkpt lat="42.73169" lon="1.45677">
        <ele>963.2</ele>
        <time>2020-08-05T09:18:11Z</time>
      </trkpt>
      <trkpt lat="42.73174" lon="1.45678">
        <ele>964</ele>
        <time>2020-08-05T09:18:14Z</time>
      </trkpt>
      <trkpt lat="42.73179" lon="1.45676">
        <ele>964.4</ele>
        <time>2020-08-05T09:18:17Z</time>
      </trkpt>
      <trkpt lat="42.73185" lon="1.45674">
        <ele>965.2</ele>
        <time>2020-08-05T09:18:21Z</time>
      </trkpt>
      <trkpt lat="42.73187" lon="1.45673">
        <ele>965.4</ele>
        <time>2020-08-05T09:18:22Z</time>
      </trkpt>
      <trkpt lat="42.73195" lon="1.45671">
        <ele>966</ele>
        <time>2020-08-05T09:18:27Z</time>
      </trkpt>
      <trkpt lat="42.73201" lon="1.4567">
        <ele>966.6</ele>
        <time>2020-08-05T09:18:30Z</time>
      </trkpt>
      <trkpt lat="42.73207" lon="1.45669">
        <ele>967</ele>
        <time>2020-08-05T09:18:33Z</time>
      </trkpt>
      <trkpt lat="42.73214" lon="1.45667">
        <ele>967.8</ele>
        <time>2020-08-05T09:18:37Z</time>
      </trkpt>
      <trkpt lat="42.7322" lon="1.45665">
        <ele>968.4</ele>
        <time>2020-08-05T09:18:40Z</time>
      </trkpt>
      <trkpt lat="42.73224" lon="1.45664">
        <ele>968.8</ele>
        <time>2020-08-05T09:18:42Z</time>
      </trkpt>
      <trkpt lat="42.73233" lon="1.45662">
        <ele>969.6</ele>
        <time>2020-08-05T09:18:46Z</time>
      </trkpt>
      <trkpt lat="42.73237" lon="1.45661">
        <ele>970</ele>
        <time>2020-08-05T09:18:48Z</time>
      </trkpt>
      <trkpt lat="42.73246" lon="1.45656">
        <ele>971</ele>
        <time>2020-08-05T09:18:53Z</time>
      </trkpt>
      <trkpt lat="42.73248" lon="1.45654">
        <ele>971.2</ele>
        <time>2020-08-05T09:18:54Z</time>
      </trkpt>
      <trkpt lat="42.73259" lon="1.45647">
        <ele>971.6</ele>
        <time>2020-08-05T09:18:59Z</time>
      </trkpt>
      <trkpt lat="42.73272" lon="1.45638">
        <ele>972</ele>
        <time>2020-08-05T09:19:06Z</time>
      </trkpt>
      <trkpt lat="42.73274" lon="1.45636">
        <ele>972.2</ele>
        <time>2020-08-05T09:19:07Z</time>
      </trkpt>
      <trkpt lat="42.73283" lon="1.45632">
        <ele>973.2</ele>
        <time>2020-08-05T09:19:11Z</time>
      </trkpt>
      <trkpt lat="42.73288" lon="1.45632">
        <ele>973.6</ele>
        <time>2020-08-05T09:19:13Z</time>
      </trkpt>
      <trkpt lat="42.73294" lon="1.45632">
        <ele>974.2</ele>
        <time>2020-08-05T09:19:16Z</time>
      </trkpt>
      <trkpt lat="42.733" lon="1.45632">
        <ele>974.8</ele>
        <time>2020-08-05T09:19:19Z</time>
      </trkpt>
      <trkpt lat="42.73304" lon="1.45633">
        <ele>975.2</ele>
        <time>2020-08-05T09:19:21Z</time>
      </trkpt>
      <trkpt lat="42.73307" lon="1.45635">
        <ele>975.4</ele>
        <time>2020-08-05T09:19:22Z</time>
      </trkpt>
      <trkpt lat="42.73312" lon="1.45639">
        <ele>975.6</ele>
        <time>2020-08-05T09:19:24Z</time>
      </trkpt>
      <trkpt lat="42.73317" lon="1.45645">
        <ele>975.8</ele>
        <time>2020-08-05T09:19:27Z</time>
      </trkpt>
      <trkpt lat="42.73321" lon="1.45649">
        <ele>976</ele>
        <time>2020-08-05T09:19:29Z</time>
      </trkpt>
      <trkpt lat="42.73333" lon="1.45658">
        <ele>976.4</ele>
        <time>2020-08-05T09:19:34Z</time>
      </trkpt>
      <trkpt lat="42.73337" lon="1.4566">
        <ele>976.8</ele>
        <time>2020-08-05T09:19:36Z</time>
      </trkpt>
      <trkpt lat="42.7334" lon="1.45662">
        <ele>977</ele>
        <time>2020-08-05T09:19:37Z</time>
      </trkpt>
      <trkpt lat="42.73351" lon="1.45666">
        <ele>977.6</ele>
        <time>2020-08-05T09:19:42Z</time>
      </trkpt>
      <trkpt lat="42.73358" lon="1.45668">
        <ele>978.2</ele>
        <time>2020-08-05T09:19:45Z</time>
      </trkpt>
      <trkpt lat="42.73366" lon="1.4567">
        <ele>978.8</ele>
        <time>2020-08-05T09:19:49Z</time>
      </trkpt>
      <trkpt lat="42.73372" lon="1.45669">
        <ele>979.4</ele>
        <time>2020-08-05T09:19:52Z</time>
      </trkpt>
      <trkpt lat="42.73375" lon="1.45669">
        <ele>979.8</ele>
        <time>2020-08-05T09:19:54Z</time>
      </trkpt>
      <trkpt lat="42.73384" lon="1.45663">
        <ele>980.8</ele>
        <time>2020-08-05T09:19:58Z</time>
      </trkpt>
      <trkpt lat="42.73385" lon="1.45661">
        <ele>981</ele>
        <time>2020-08-05T09:19:59Z</time>
      </trkpt>
      <trkpt lat="42.73392" lon="1.45646">
        <ele>981.8</ele>
        <time>2020-08-05T09:20:04Z</time>
      </trkpt>
      <trkpt lat="42.73393" lon="1.45642">
        <ele>982</ele>
        <time>2020-08-05T09:20:05Z</time>
      </trkpt>
      <trkpt lat="42.73399" lon="1.45627">
        <ele>983.2</ele>
        <time>2020-08-05T09:20:11Z</time>
      </trkpt>
      <trkpt lat="42.73403" lon="1.45612">
        <ele>983.8</ele>
        <time>2020-08-05T09:20:16Z</time>
      </trkpt>
      <trkpt lat="42.73408" lon="1.45597">
        <ele>984.4</ele>
        <time>2020-08-05T09:20:21Z</time>
      </trkpt>
      <trkpt lat="42.73413" lon="1.45583">
        <ele>985.4</ele>
        <time>2020-08-05T09:20:26Z</time>
      </trkpt>
      <trkpt lat="42.73415" lon="1.45578">
        <ele>985.8</ele>
        <time>2020-08-05T09:20:28Z</time>
      </trkpt>
      <trkpt lat="42.73419" lon="1.45567">
        <ele>986.6</ele>
        <time>2020-08-05T09:20:32Z</time>
      </trkpt>
      <trkpt lat="42.73422" lon="1.4556">
        <ele>987.2</ele>
        <time>2020-08-05T09:20:35Z</time>
      </trkpt>
      <trkpt lat="42.73424" lon="1.45555">
        <ele>987.8</ele>
        <time>2020-08-05T09:20:37Z</time>
      </trkpt>
      <trkpt lat="42.73426" lon="1.45539">
        <ele>988.6</ele>
        <time>2020-08-05T09:20:42Z</time>
      </trkpt>
      <trkpt lat="42.73428" lon="1.45533">
        <ele>988.8</ele>
        <time>2020-08-05T09:20:44Z</time>
      </trkpt>
      <trkpt lat="42.73432" lon="1.45519">
        <ele>989.8</ele>
        <time>2020-08-05T09:20:49Z</time>
      </trkpt>
      <trkpt lat="42.73442" lon="1.45515">
        <ele>990.4</ele>
        <time>2020-08-05T09:20:54Z</time>
      </trkpt>
      <trkpt lat="42.73446" lon="1.45518">
        <ele>991</ele>
        <time>2020-08-05T09:20:56Z</time>
      </trkpt>
      <trkpt lat="42.73454" lon="1.4552">
        <ele>991.6</ele>
        <time>2020-08-05T09:21:00Z</time>
      </trkpt>
      <trkpt lat="42.73458" lon="1.4552">
        <ele>992.2</ele>
        <time>2020-08-05T09:21:02Z</time>
      </trkpt>
      <trkpt lat="42.73465" lon="1.45516">
        <ele>992.8</ele>
        <time>2020-08-05T09:21:05Z</time>
      </trkpt>
      <trkpt lat="42.73472" lon="1.45512">
        <ele>993.2</ele>
        <time>2020-08-05T09:21:08Z</time>
      </trkpt>
      <trkpt lat="42.73486" lon="1.45502">
        <ele>994</ele>
        <time>2020-08-05T09:21:14Z</time>
      </trkpt>
      <trkpt lat="42.73488" lon="1.45501">
        <ele>994.2</ele>
        <time>2020-08-05T09:21:15Z</time>
      </trkpt>
      <trkpt lat="42.73503" lon="1.45495">
        <ele>995.2</ele>
        <time>2020-08-05T09:21:22Z</time>
      </trkpt>
      <trkpt lat="42.73505" lon="1.45494">
        <ele>995.4</ele>
        <time>2020-08-05T09:21:23Z</time>
      </trkpt>
      <trkpt lat="42.73515" lon="1.45491">
        <ele>996.4</ele>
        <time>2020-08-05T09:21:28Z</time>
      </trkpt>
      <trkpt lat="42.73517" lon="1.45491">
        <ele>996.8</ele>
        <time>2020-08-05T09:21:29Z</time>
      </trkpt>
      <trkpt lat="42.73525" lon="1.45487">
        <ele>997.8</ele>
        <time>2020-08-05T09:21:33Z</time>
      </trkpt>
      <trkpt lat="42.73527" lon="1.45486">
        <ele>997.8</ele>
        <time>2020-08-05T09:21:34Z</time>
      </trkpt>
      <trkpt lat="42.73539" lon="1.45479">
        <ele>998.8</ele>
        <time>2020-08-05T09:21:40Z</time>
      </trkpt>
      <trkpt lat="42.73544" lon="1.45478">
        <ele>999</ele>
        <time>2020-08-05T09:21:42Z</time>
      </trkpt>
      <trkpt lat="42.73553" lon="1.45477">
        <ele>999.8</ele>
        <time>2020-08-05T09:21:47Z</time>
      </trkpt>
      <trkpt lat="42.73559" lon="1.45477">
        <ele>1001</ele>
        <time>2020-08-05T09:21:51Z</time>
      </trkpt>
      <trkpt lat="42.73561" lon="1.45478">
        <ele>1001.4</ele>
        <time>2020-08-05T09:21:52Z</time>
      </trkpt>
      <trkpt lat="42.73562" lon="1.45478">
        <ele>1001.6</ele>
        <time>2020-08-05T09:21:53Z</time>
      </trkpt>
      <trkpt lat="42.73569" lon="1.45481">
        <ele>1002.2</ele>
        <time>2020-08-05T09:21:56Z</time>
      </trkpt>
      <trkpt lat="42.73576" lon="1.45483">
        <ele>1002.8</ele>
        <time>2020-08-05T09:22:00Z</time>
      </trkpt>
      <trkpt lat="42.73581" lon="1.45481">
        <ele>1003.2</ele>
        <time>2020-08-05T09:22:03Z</time>
      </trkpt>
      <trkpt lat="42.73589" lon="1.45482">
        <ele>1003.8</ele>
        <time>2020-08-05T09:22:07Z</time>
      </trkpt>
      <trkpt lat="42.73594" lon="1.45485">
        <ele>1004.2</ele>
        <time>2020-08-05T09:22:10Z</time>
      </trkpt>
      <trkpt lat="42.73596" lon="1.45485">
        <ele>1004.4</ele>
        <time>2020-08-05T09:22:11Z</time>
      </trkpt>
      <trkpt lat="42.736" lon="1.45485">
        <ele>1004.8</ele>
        <time>2020-08-05T09:22:13Z</time>
      </trkpt>
      <trkpt lat="42.7361" lon="1.45485">
        <ele>1005.4</ele>
        <time>2020-08-05T09:22:18Z</time>
      </trkpt>
      <trkpt lat="42.73612" lon="1.45484">
        <ele>1005.6</ele>
        <time>2020-08-05T09:22:19Z</time>
      </trkpt>
      <trkpt lat="42.73622" lon="1.45484">
        <ele>1006.6</ele>
        <time>2020-08-05T09:22:24Z</time>
      </trkpt>
      <trkpt lat="42.73627" lon="1.45482">
        <ele>1007.2</ele>
        <time>2020-08-05T09:22:27Z</time>
      </trkpt>
      <trkpt lat="42.73633" lon="1.45481">
        <ele>1007.8</ele>
        <time>2020-08-05T09:22:30Z</time>
      </trkpt>
      <trkpt lat="42.73641" lon="1.45475">
        <ele>1009</ele>
        <time>2020-08-05T09:22:35Z</time>
      </trkpt>
      <trkpt lat="42.73643" lon="1.45473">
        <ele>1009.2</ele>
        <time>2020-08-05T09:22:36Z</time>
      </trkpt>
      <trkpt lat="42.7365" lon="1.45465">
        <ele>1010</ele>
        <time>2020-08-05T09:22:41Z</time>
      </trkpt>
      <trkpt lat="42.73654" lon="1.4546">
        <ele>1010.6</ele>
        <time>2020-08-05T09:22:44Z</time>
      </trkpt>
      <trkpt lat="42.73655" lon="1.45459">
        <ele>1011.2</ele>
        <time>2020-08-05T09:22:45Z</time>
      </trkpt>
      <trkpt lat="42.7366" lon="1.45459">
        <ele>1011.6</ele>
        <time>2020-08-05T09:22:48Z</time>
      </trkpt>
      <trkpt lat="42.73663" lon="1.45462">
        <ele>1011.8</ele>
        <time>2020-08-05T09:22:50Z</time>
      </trkpt>
      <trkpt lat="42.73668" lon="1.45468">
        <ele>1012.2</ele>
        <time>2020-08-05T09:22:53Z</time>
      </trkpt>
      <trkpt lat="42.73674" lon="1.45474">
        <ele>1012.4</ele>
        <time>2020-08-05T09:22:57Z</time>
      </trkpt>
      <trkpt lat="42.73689" lon="1.45485">
        <ele>1013.4</ele>
        <time>2020-08-05T09:23:05Z</time>
      </trkpt>
      <trkpt lat="42.737" lon="1.45488">
        <ele>1014.4</ele>
        <time>2020-08-05T09:23:11Z</time>
      </trkpt>
      <trkpt lat="42.73715" lon="1.45481">
        <ele>1015.6</ele>
        <time>2020-08-05T09:23:19Z</time>
      </trkpt>
      <trkpt lat="42.73726" lon="1.45472">
        <ele>1016.6</ele>
        <time>2020-08-05T09:23:25Z</time>
      </trkpt>
      <trkpt lat="42.73728" lon="1.45469">
        <ele>1017</ele>
        <time>2020-08-05T09:23:27Z</time>
      </trkpt>
      <trkpt lat="42.73736" lon="1.45465">
        <ele>1017.6</ele>
        <time>2020-08-05T09:23:31Z</time>
      </trkpt>
      <trkpt lat="42.73742" lon="1.45465">
        <ele>1018.2</ele>
        <time>2020-08-05T09:23:34Z</time>
      </trkpt>
      <trkpt lat="42.73748" lon="1.4547">
        <ele>1018.8</ele>
        <time>2020-08-05T09:23:38Z</time>
      </trkpt>
      <trkpt lat="42.73751" lon="1.45474">
        <ele>1019.4</ele>
        <time>2020-08-05T09:23:40Z</time>
      </trkpt>
      <trkpt lat="42.73754" lon="1.45484">
        <ele>1020</ele>
        <time>2020-08-05T09:23:44Z</time>
      </trkpt>
      <trkpt lat="42.73758" lon="1.45489">
        <ele>1020.6</ele>
        <time>2020-08-05T09:23:47Z</time>
      </trkpt>
      <trkpt lat="42.73761" lon="1.45492">
        <ele>1021.2</ele>
        <time>2020-08-05T09:23:49Z</time>
      </trkpt>
      <trkpt lat="42.73765" lon="1.45494">
        <ele>1021.6</ele>
        <time>2020-08-05T09:23:52Z</time>
      </trkpt>
      <trkpt lat="42.73767" lon="1.45495">
        <ele>1021.8</ele>
        <time>2020-08-05T09:23:53Z</time>
      </trkpt>
      <trkpt lat="42.73772" lon="1.45496">
        <ele>1022.2</ele>
        <time>2020-08-05T09:23:56Z</time>
      </trkpt>
      <trkpt lat="42.73778" lon="1.45497">
        <ele>1022.8</ele>
        <time>2020-08-05T09:23:59Z</time>
      </trkpt>
      <trkpt lat="42.73782" lon="1.45497">
        <ele>1023</ele>
        <time>2020-08-05T09:24:01Z</time>
      </trkpt>
      <trkpt lat="42.73784" lon="1.45497">
        <ele>1023.2</ele>
        <time>2020-08-05T09:24:02Z</time>
      </trkpt>
      <trkpt lat="42.7379" lon="1.45498">
        <ele>1023.8</ele>
        <time>2020-08-05T09:24:05Z</time>
      </trkpt>
      <trkpt lat="42.73793" lon="1.45498">
        <ele>1024.2</ele>
        <time>2020-08-05T09:24:07Z</time>
      </trkpt>
      <trkpt lat="42.73795" lon="1.45498">
        <ele>1024.4</ele>
        <time>2020-08-05T09:24:08Z</time>
      </trkpt>
      <trkpt lat="42.73802" lon="1.45498">
        <ele>1024.8</ele>
        <time>2020-08-05T09:24:11Z</time>
      </trkpt>
      <trkpt lat="42.73806" lon="1.45498">
        <ele>1025.2</ele>
        <time>2020-08-05T09:24:13Z</time>
      </trkpt>
      <trkpt lat="42.73809" lon="1.45498">
        <ele>1025.4</ele>
        <time>2020-08-05T09:24:14Z</time>
      </trkpt>
      <trkpt lat="42.73821" lon="1.45496">
        <ele>1026.6</ele>
        <time>2020-08-05T09:24:20Z</time>
      </trkpt>
      <trkpt lat="42.73823" lon="1.45497">
        <ele>1027</ele>
        <time>2020-08-05T09:24:21Z</time>
      </trkpt>
      <trkpt lat="42.73832" lon="1.45502">
        <ele>1027.4</ele>
        <time>2020-08-05T09:24:25Z</time>
      </trkpt>
      <trkpt lat="42.73834" lon="1.45503">
        <ele>1027.6</ele>
        <time>2020-08-05T09:24:26Z</time>
      </trkpt>
      <trkpt lat="42.73838" lon="1.45507">
        <ele>1027.8</ele>
        <time>2020-08-05T09:24:28Z</time>
      </trkpt>
      <trkpt lat="42.73845" lon="1.45514">
        <ele>1028.2</ele>
        <time>2020-08-05T09:24:32Z</time>
      </trkpt>
      <trkpt lat="42.73854" lon="1.45519">
        <ele>1028.6</ele>
        <time>2020-08-05T09:24:36Z</time>
      </trkpt>
      <trkpt lat="42.73858" lon="1.4552">
        <ele>1028.8</ele>
        <time>2020-08-05T09:24:38Z</time>
      </trkpt>
      <trkpt lat="42.73868" lon="1.45525">
        <ele>1029.6</ele>
        <time>2020-08-05T09:24:43Z</time>
      </trkpt>
      <trkpt lat="42.73874" lon="1.45527">
        <ele>1030.4</ele>
        <time>2020-08-05T09:24:46Z</time>
      </trkpt>
      <trkpt lat="42.73878" lon="1.45528">
        <ele>1030.8</ele>
        <time>2020-08-05T09:24:48Z</time>
      </trkpt>
      <trkpt lat="42.73891" lon="1.45534">
        <ele>1032</ele>
        <time>2020-08-05T09:24:55Z</time>
      </trkpt>
      <trkpt lat="42.73901" lon="1.45541">
        <ele>1033</ele>
        <time>2020-08-05T09:25:00Z</time>
      </trkpt>
      <trkpt lat="42.73904" lon="1.45542">
        <ele>1033.2</ele>
        <time>2020-08-05T09:25:02Z</time>
      </trkpt>
      <trkpt lat="42.73911" lon="1.45546">
        <ele>1034.2</ele>
        <time>2020-08-05T09:25:06Z</time>
      </trkpt>
      <trkpt lat="42.73914" lon="1.45548">
        <ele>1034.4</ele>
        <time>2020-08-05T09:25:08Z</time>
      </trkpt>
      <trkpt lat="42.73919" lon="1.45551">
        <ele>1035.4</ele>
        <time>2020-08-05T09:25:11Z</time>
      </trkpt>
      <trkpt lat="42.7393" lon="1.45558">
        <ele>1036.4</ele>
        <time>2020-08-05T09:25:17Z</time>
      </trkpt>
      <trkpt lat="42.73938" lon="1.45564">
        <ele>1037</ele>
        <time>2020-08-05T09:25:21Z</time>
      </trkpt>
      <trkpt lat="42.73944" lon="1.45567">
        <ele>1037.4</ele>
        <time>2020-08-05T09:25:24Z</time>
      </trkpt>
      <trkpt lat="42.73946" lon="1.45568">
        <ele>1037.6</ele>
        <time>2020-08-05T09:25:25Z</time>
      </trkpt>
      <trkpt lat="42.73955" lon="1.4557">
        <ele>1038.4</ele>
        <time>2020-08-05T09:25:30Z</time>
      </trkpt>
      <trkpt lat="42.73957" lon="1.45569">
        <ele>1038.6</ele>
        <time>2020-08-05T09:25:31Z</time>
      </trkpt>
      <trkpt lat="42.73964" lon="1.45567">
        <ele>1039.6</ele>
        <time>2020-08-05T09:25:35Z</time>
      </trkpt>
      <trkpt lat="42.73968" lon="1.45565">
        <ele>1040.2</ele>
        <time>2020-08-05T09:25:37Z</time>
      </trkpt>
      <trkpt lat="42.73972" lon="1.45561">
        <ele>1040.8</ele>
        <time>2020-08-05T09:25:40Z</time>
      </trkpt>
      <trkpt lat="42.73982" lon="1.45555">
        <ele>1042</ele>
        <time>2020-08-05T09:25:45Z</time>
      </trkpt>
      <trkpt lat="42.73983" lon="1.45553">
        <ele>1042.2</ele>
        <time>2020-08-05T09:25:46Z</time>
      </trkpt>
      <trkpt lat="42.73989" lon="1.45548">
        <ele>1043</ele>
        <time>2020-08-05T09:25:50Z</time>
      </trkpt>
      <trkpt lat="42.73995" lon="1.45546">
        <ele>1043.4</ele>
        <time>2020-08-05T09:25:53Z</time>
      </trkpt>
      <trkpt lat="42.73999" lon="1.45544">
        <ele>1044.2</ele>
        <time>2020-08-05T09:25:56Z</time>
      </trkpt>
      <trkpt lat="42.74001" lon="1.45544">
        <ele>1044.6</ele>
        <time>2020-08-05T09:25:57Z</time>
      </trkpt>
      <trkpt lat="42.74003" lon="1.45545">
        <ele>1044.6</ele>
        <time>2020-08-05T09:25:58Z</time>
      </trkpt>
      <trkpt lat="42.74007" lon="1.4555">
        <ele>1045.2</ele>
        <time>2020-08-05T09:26:01Z</time>
      </trkpt>
      <trkpt lat="42.74009" lon="1.45555">
        <ele>1045.6</ele>
        <time>2020-08-05T09:26:03Z</time>
      </trkpt>
      <trkpt lat="42.7401" lon="1.45558">
        <ele>1045.6</ele>
        <time>2020-08-05T09:26:04Z</time>
      </trkpt>
      <trkpt lat="42.7401" lon="1.45578">
        <ele>1046.2</ele>
        <time>2020-08-05T09:26:11Z</time>
      </trkpt>
      <trkpt lat="42.74011" lon="1.45581">
        <ele>1046.4</ele>
        <time>2020-08-05T09:26:12Z</time>
      </trkpt>
      <trkpt lat="42.74011" lon="1.45592">
        <ele>1047.2</ele>
        <time>2020-08-05T09:26:17Z</time>
      </trkpt>
      <trkpt lat="42.74012" lon="1.45594">
        <ele>1047.4</ele>
        <time>2020-08-05T09:26:18Z</time>
      </trkpt>
      <trkpt lat="42.74012" lon="1.45596">
        <ele>1047.4</ele>
        <time>2020-08-05T09:26:19Z</time>
      </trkpt>
      <trkpt lat="42.74016" lon="1.45608">
        <ele>1048.4</ele>
        <time>2020-08-05T09:26:24Z</time>
      </trkpt>
      <trkpt lat="42.74018" lon="1.4561">
        <ele>1048.8</ele>
        <time>2020-08-05T09:26:25Z</time>
      </trkpt>
      <trkpt lat="42.74022" lon="1.45613">
        <ele>1049.6</ele>
        <time>2020-08-05T09:26:28Z</time>
      </trkpt>
      <trkpt lat="42.74027" lon="1.45613">
        <ele>1050.4</ele>
        <time>2020-08-05T09:26:31Z</time>
      </trkpt>
      <trkpt lat="42.74028" lon="1.45613">
        <ele>1050.6</ele>
        <time>2020-08-05T09:26:32Z</time>
      </trkpt>
      <trkpt lat="42.7403" lon="1.45611">
        <ele>1051</ele>
        <time>2020-08-05T09:26:36Z</time>
      </trkpt>
      <trkpt lat="42.74032" lon="1.45611">
        <ele>1051.2</ele>
        <time>2020-08-05T09:26:37Z</time>
      </trkpt>
      <trkpt lat="42.74036" lon="1.45612">
        <ele>1051.6</ele>
        <time>2020-08-05T09:26:40Z</time>
      </trkpt>
      <trkpt lat="42.74046" lon="1.45611">
        <ele>1052.6</ele>
        <time>2020-08-05T09:26:45Z</time>
      </trkpt>
      <trkpt lat="42.74048" lon="1.45612">
        <ele>1053.2</ele>
        <time>2020-08-05T09:26:46Z</time>
      </trkpt>
      <trkpt lat="42.7405" lon="1.45613">
        <ele>1053.4</ele>
        <time>2020-08-05T09:26:47Z</time>
      </trkpt>
      <trkpt lat="42.74054" lon="1.45619">
        <ele>1054</ele>
        <time>2020-08-05T09:26:50Z</time>
      </trkpt>
      <trkpt lat="42.74055" lon="1.45621">
        <ele>1054.2</ele>
        <time>2020-08-05T09:26:51Z</time>
      </trkpt>
      <trkpt lat="42.74062" lon="1.4563">
        <ele>1055.4</ele>
        <time>2020-08-05T09:26:56Z</time>
      </trkpt>
      <trkpt lat="42.74063" lon="1.45633">
        <ele>1055.6</ele>
        <time>2020-08-05T09:26:57Z</time>
      </trkpt>
      <trkpt lat="42.74066" lon="1.45641">
        <ele>1056.4</ele>
        <time>2020-08-05T09:27:00Z</time>
      </trkpt>
      <trkpt lat="42.74067" lon="1.45643">
        <ele>1056.6</ele>
        <time>2020-08-05T09:27:01Z</time>
      </trkpt>
      <trkpt lat="42.74074" lon="1.45656">
        <ele>1057.4</ele>
        <time>2020-08-05T09:27:07Z</time>
      </trkpt>
      <trkpt lat="42.74076" lon="1.45658">
        <ele>1057.6</ele>
        <time>2020-08-05T09:27:08Z</time>
      </trkpt>
      <trkpt lat="42.74079" lon="1.45664">
        <ele>1058.8</ele>
        <time>2020-08-05T09:27:11Z</time>
      </trkpt>
      <trkpt lat="42.74084" lon="1.45668">
        <ele>1059.4</ele>
        <time>2020-08-05T09:27:14Z</time>
      </trkpt>
      <trkpt lat="42.74087" lon="1.45671">
        <ele>1059.8</ele>
        <time>2020-08-05T09:27:16Z</time>
      </trkpt>
      <trkpt lat="42.74095" lon="1.45678">
        <ele>1061</ele>
        <time>2020-08-05T09:27:21Z</time>
      </trkpt>
      <trkpt lat="42.74099" lon="1.45679">
        <ele>1061.4</ele>
        <time>2020-08-05T09:27:23Z</time>
      </trkpt>
      <trkpt lat="42.74107" lon="1.45682">
        <ele>1062</ele>
        <time>2020-08-05T09:27:27Z</time>
      </trkpt>
      <trkpt lat="42.74112" lon="1.45684">
        <ele>1062.6</ele>
        <time>2020-08-05T09:27:30Z</time>
      </trkpt>
      <trkpt lat="42.74116" lon="1.45684">
        <ele>1063.2</ele>
        <time>2020-08-05T09:27:33Z</time>
      </trkpt>
      <trkpt lat="42.74121" lon="1.45685">
        <ele>1064.2</ele>
        <time>2020-08-05T09:27:36Z</time>
      </trkpt>
      <trkpt lat="42.74122" lon="1.45685">
        <ele>1064.4</ele>
        <time>2020-08-05T09:27:37Z</time>
      </trkpt>
      <trkpt lat="42.7413" lon="1.45689">
        <ele>1065.4</ele>
        <time>2020-08-05T09:27:42Z</time>
      </trkpt>
      <trkpt lat="42.74132" lon="1.4569">
        <ele>1065.8</ele>
        <time>2020-08-05T09:27:43Z</time>
      </trkpt>
      <trkpt lat="42.74139" lon="1.45696">
        <ele>1066.6</ele>
        <time>2020-08-05T09:27:48Z</time>
      </trkpt>
      <trkpt lat="42.74141" lon="1.457">
        <ele>1067</ele>
        <time>2020-08-05T09:27:50Z</time>
      </trkpt>
      <trkpt lat="42.74149" lon="1.45707">
        <ele>1067.6</ele>
        <time>2020-08-05T09:27:55Z</time>
      </trkpt>
      <trkpt lat="42.7415" lon="1.45708">
        <ele>1067.8</ele>
        <time>2020-08-05T09:27:56Z</time>
      </trkpt>
      <trkpt lat="42.74155" lon="1.45711">
        <ele>1068.6</ele>
        <time>2020-08-05T09:27:59Z</time>
      </trkpt>
      <trkpt lat="42.74157" lon="1.45713">
        <ele>1068.6</ele>
        <time>2020-08-05T09:28:00Z</time>
      </trkpt>
      <trkpt lat="42.74161" lon="1.45717">
        <ele>1069.2</ele>
        <time>2020-08-05T09:28:03Z</time>
      </trkpt>
      <trkpt lat="42.74164" lon="1.45719">
        <ele>1069.8</ele>
        <time>2020-08-05T09:28:05Z</time>
      </trkpt>
      <trkpt lat="42.74171" lon="1.45726">
        <ele>1070.8</ele>
        <time>2020-08-05T09:28:10Z</time>
      </trkpt>
      <trkpt lat="42.74181" lon="1.45732">
        <ele>1071.8</ele>
        <time>2020-08-05T09:28:16Z</time>
      </trkpt>
      <trkpt lat="42.74182" lon="1.45733">
        <ele>1072</ele>
        <time>2020-08-05T09:28:17Z</time>
      </trkpt>
      <trkpt lat="42.74188" lon="1.45735">
        <ele>1072.8</ele>
        <time>2020-08-05T09:28:21Z</time>
      </trkpt>
      <trkpt lat="42.74192" lon="1.45736">
        <ele>1073.6</ele>
        <time>2020-08-05T09:28:24Z</time>
      </trkpt>
      <trkpt lat="42.74195" lon="1.45737">
        <ele>1074</ele>
        <time>2020-08-05T09:28:26Z</time>
      </trkpt>
      <trkpt lat="42.74201" lon="1.45736">
        <ele>1075</ele>
        <time>2020-08-05T09:28:30Z</time>
      </trkpt>
      <trkpt lat="42.74209" lon="1.45732">
        <ele>1076.2</ele>
        <time>2020-08-05T09:28:36Z</time>
      </trkpt>
      <trkpt lat="42.74212" lon="1.45732">
        <ele>1076.8</ele>
        <time>2020-08-05T09:28:38Z</time>
      </trkpt>
      <trkpt lat="42.74216" lon="1.45731">
        <ele>1077.2</ele>
        <time>2020-08-05T09:28:41Z</time>
      </trkpt>
      <trkpt lat="42.74223" lon="1.4573">
        <ele>1078</ele>
        <time>2020-08-05T09:28:45Z</time>
      </trkpt>
      <trkpt lat="42.74226" lon="1.45729">
        <ele>1078.4</ele>
        <time>2020-08-05T09:28:47Z</time>
      </trkpt>
      <trkpt lat="42.74233" lon="1.45726">
        <ele>1079.6</ele>
        <time>2020-08-05T09:28:52Z</time>
      </trkpt>
      <trkpt lat="42.74239" lon="1.45723">
        <ele>1080.6</ele>
        <time>2020-08-05T09:28:57Z</time>
      </trkpt>
      <trkpt lat="42.7424" lon="1.45723">
        <ele>1080.8</ele>
        <time>2020-08-05T09:28:58Z</time>
      </trkpt>
      <trkpt lat="42.74244" lon="1.45723">
        <ele>1081.6</ele>
        <time>2020-08-05T09:29:01Z</time>
      </trkpt>
      <trkpt lat="42.74245" lon="1.45722">
        <ele>1081.8</ele>
        <time>2020-08-05T09:29:02Z</time>
      </trkpt>
      <trkpt lat="42.74249" lon="1.4572">
        <ele>1082.6</ele>
        <time>2020-08-05T09:29:05Z</time>
      </trkpt>
      <trkpt lat="42.74252" lon="1.45718">
        <ele>1083</ele>
        <time>2020-08-05T09:29:07Z</time>
      </trkpt>
      <trkpt lat="42.74253" lon="1.45718">
        <ele>1083.2</ele>
        <time>2020-08-05T09:29:08Z</time>
      </trkpt>
      <trkpt lat="42.74258" lon="1.45717">
        <ele>1084</ele>
        <time>2020-08-05T09:29:11Z</time>
      </trkpt>
      <trkpt lat="42.74259" lon="1.45716">
        <ele>1084.2</ele>
        <time>2020-08-05T09:29:12Z</time>
      </trkpt>
      <trkpt lat="42.7426" lon="1.45715">
        <ele>1084.4</ele>
        <time>2020-08-05T09:29:13Z</time>
      </trkpt>
      <trkpt lat="42.74263" lon="1.45713">
        <ele>1085</ele>
        <time>2020-08-05T09:29:16Z</time>
      </trkpt>
      <trkpt lat="42.74264" lon="1.45712">
        <ele>1085.4</ele>
        <time>2020-08-05T09:29:17Z</time>
      </trkpt>
      <trkpt lat="42.74265" lon="1.45711">
        <ele>1085.6</ele>
        <time>2020-08-05T09:29:18Z</time>
      </trkpt>
      <trkpt lat="42.74269" lon="1.45707">
        <ele>1086.2</ele>
        <time>2020-08-05T09:29:21Z</time>
      </trkpt>
      <trkpt lat="42.74274" lon="1.45702">
        <ele>1087.4</ele>
        <time>2020-08-05T09:29:26Z</time>
      </trkpt>
      <trkpt lat="42.74275" lon="1.45701">
        <ele>1087.6</ele>
        <time>2020-08-05T09:29:27Z</time>
      </trkpt>
      <trkpt lat="42.74279" lon="1.45696">
        <ele>1088.4</ele>
        <time>2020-08-05T09:29:31Z</time>
      </trkpt>
      <trkpt lat="42.7428" lon="1.45694">
        <ele>1088.6</ele>
        <time>2020-08-05T09:29:32Z</time>
      </trkpt>
      <trkpt lat="42.74281" lon="1.45692">
        <ele>1089</ele>
        <time>2020-08-05T09:29:33Z</time>
      </trkpt>
      <trkpt lat="42.74283" lon="1.45688">
        <ele>1089.6</ele>
        <time>2020-08-05T09:29:36Z</time>
      </trkpt>
      <trkpt lat="42.74284" lon="1.45685">
        <ele>1090</ele>
        <time>2020-08-05T09:29:38Z</time>
      </trkpt>
      <trkpt lat="42.74285" lon="1.45681">
        <ele>1090.4</ele>
        <time>2020-08-05T09:29:40Z</time>
      </trkpt>
      <trkpt lat="42.74285" lon="1.45679">
        <ele>1090.6</ele>
        <time>2020-08-05T09:29:41Z</time>
      </trkpt>
      <trkpt lat="42.74285" lon="1.45678">
        <ele>1090.8</ele>
        <time>2020-08-05T09:29:42Z</time>
      </trkpt>
      <trkpt lat="42.74286" lon="1.45676">
        <ele>1091.4</ele>
        <time>2020-08-05T09:29:44Z</time>
      </trkpt>
      <trkpt lat="42.74288" lon="1.45671">
        <ele>1091.8</ele>
        <time>2020-08-05T09:29:47Z</time>
      </trkpt>
      <trkpt lat="42.74289" lon="1.45663">
        <ele>1093</ele>
        <time>2020-08-05T09:29:52Z</time>
      </trkpt>
      <trkpt lat="42.7429" lon="1.4566">
        <ele>1093.4</ele>
        <time>2020-08-05T09:29:54Z</time>
      </trkpt>
      <trkpt lat="42.74292" lon="1.45654">
        <ele>1094.2</ele>
        <time>2020-08-05T09:29:58Z</time>
      </trkpt>
      <trkpt lat="42.74295" lon="1.4565">
        <ele>1095</ele>
        <time>2020-08-05T09:30:01Z</time>
      </trkpt>
      <trkpt lat="42.74297" lon="1.45648">
        <ele>1095.2</ele>
        <time>2020-08-05T09:30:03Z</time>
      </trkpt>
      <trkpt lat="42.74302" lon="1.45644">
        <ele>1096</ele>
        <time>2020-08-05T09:30:08Z</time>
      </trkpt>
      <trkpt lat="42.74305" lon="1.45641">
        <ele>1096.6</ele>
        <time>2020-08-05T09:30:10Z</time>
      </trkpt>
      <trkpt lat="42.74312" lon="1.45633">
        <ele>1097.6</ele>
        <time>2020-08-05T09:30:16Z</time>
      </trkpt>
      <trkpt lat="42.74313" lon="1.45632">
        <ele>1097.6</ele>
        <time>2020-08-05T09:30:17Z</time>
      </trkpt>
      <trkpt lat="42.74319" lon="1.45625">
        <ele>1098.8</ele>
        <time>2020-08-05T09:30:22Z</time>
      </trkpt>
      <trkpt lat="42.7432" lon="1.45624">
        <ele>1099</ele>
        <time>2020-08-05T09:30:23Z</time>
      </trkpt>
      <trkpt lat="42.74325" lon="1.4562">
        <ele>1100</ele>
        <time>2020-08-05T09:30:27Z</time>
      </trkpt>
      <trkpt lat="42.74327" lon="1.45618">
        <ele>1100.4</ele>
        <time>2020-08-05T09:30:29Z</time>
      </trkpt>
      <trkpt lat="42.74333" lon="1.45614">
        <ele>1101.2</ele>
        <time>2020-08-05T09:30:33Z</time>
      </trkpt>
      <trkpt lat="42.74335" lon="1.45612">
        <ele>1101.6</ele>
        <time>2020-08-05T09:30:35Z</time>
      </trkpt>
      <trkpt lat="42.74341" lon="1.45609">
        <ele>1102.2</ele>
        <time>2020-08-05T09:30:39Z</time>
      </trkpt>
      <trkpt lat="42.74344" lon="1.45605">
        <ele>1102.6</ele>
        <time>2020-08-05T09:30:42Z</time>
      </trkpt>
      <trkpt lat="42.74349" lon="1.456">
        <ele>1103.6</ele>
        <time>2020-08-05T09:30:46Z</time>
      </trkpt>
      <trkpt lat="42.74354" lon="1.45595">
        <ele>1104.2</ele>
        <time>2020-08-05T09:30:50Z</time>
      </trkpt>
      <trkpt lat="42.74365" lon="1.45587">
        <ele>1104.4</ele>
        <time>2020-08-05T09:30:57Z</time>
      </trkpt>
      <trkpt lat="42.74369" lon="1.45585">
        <ele>1104.6</ele>
        <time>2020-08-05T09:30:59Z</time>
      </trkpt>
      <trkpt lat="42.74379" lon="1.45581">
        <ele>1105</ele>
        <time>2020-08-05T09:31:04Z</time>
      </trkpt>
      <trkpt lat="42.7439" lon="1.45574">
        <ele>1105.8</ele>
        <time>2020-08-05T09:31:10Z</time>
      </trkpt>
      <trkpt lat="42.74392" lon="1.45573">
        <ele>1106</ele>
        <time>2020-08-05T09:31:11Z</time>
      </trkpt>
      <trkpt lat="42.74402" lon="1.45563">
        <ele>1106.8</ele>
        <time>2020-08-05T09:31:17Z</time>
      </trkpt>
      <trkpt lat="42.74404" lon="1.45561">
        <ele>1106.8</ele>
        <time>2020-08-05T09:31:18Z</time>
      </trkpt>
      <trkpt lat="42.74414" lon="1.45554">
        <ele>1107.6</ele>
        <time>2020-08-05T09:31:24Z</time>
      </trkpt>
      <trkpt lat="42.74416" lon="1.45553">
        <ele>1108</ele>
        <time>2020-08-05T09:31:25Z</time>
      </trkpt>
      <trkpt lat="42.74431" lon="1.4555">
        <ele>1108.2</ele>
        <time>2020-08-05T09:31:31Z</time>
      </trkpt>
      <trkpt lat="42.74446" lon="1.45554">
        <ele>1109</ele>
        <time>2020-08-05T09:31:37Z</time>
      </trkpt>
      <trkpt lat="42.74448" lon="1.45554">
        <ele>1109</ele>
        <time>2020-08-05T09:31:38Z</time>
      </trkpt>
      <trkpt lat="42.74461" lon="1.45551">
        <ele>1110</ele>
        <time>2020-08-05T09:31:44Z</time>
      </trkpt>
      <trkpt lat="42.74469" lon="1.45544">
        <ele>1111</ele>
        <time>2020-08-05T09:31:49Z</time>
      </trkpt>
      <trkpt lat="42.74472" lon="1.45541">
        <ele>1111.2</ele>
        <time>2020-08-05T09:31:51Z</time>
      </trkpt>
      <trkpt lat="42.74488" lon="1.45545">
        <ele>1112.2</ele>
        <time>2020-08-05T09:31:56Z</time>
      </trkpt>
      <trkpt lat="42.74491" lon="1.45545">
        <ele>1112.6</ele>
        <time>2020-08-05T09:31:58Z</time>
      </trkpt>
      <trkpt lat="42.74495" lon="1.45541">
        <ele>1113.2</ele>
        <time>2020-08-05T09:32:01Z</time>
      </trkpt>
      <trkpt lat="42.74502" lon="1.45538">
        <ele>1114</ele>
        <time>2020-08-05T09:32:05Z</time>
      </trkpt>
      <trkpt lat="42.74505" lon="1.45536">
        <ele>1114.4</ele>
        <time>2020-08-05T09:32:07Z</time>
      </trkpt>
      <trkpt lat="42.74512" lon="1.45532">
        <ele>1115.4</ele>
        <time>2020-08-05T09:32:12Z</time>
      </trkpt>
      <trkpt lat="42.74514" lon="1.45531">
        <ele>1115.6</ele>
        <time>2020-08-05T09:32:13Z</time>
      </trkpt>
      <trkpt lat="42.74522" lon="1.45529">
        <ele>1116.6</ele>
        <time>2020-08-05T09:32:18Z</time>
      </trkpt>
      <trkpt lat="42.74525" lon="1.45529">
        <ele>1117.2</ele>
        <time>2020-08-05T09:32:20Z</time>
      </trkpt>
      <trkpt lat="42.74528" lon="1.45528">
        <ele>1117.8</ele>
        <time>2020-08-05T09:32:22Z</time>
      </trkpt>
      <trkpt lat="42.74534" lon="1.45525">
        <ele>1118.8</ele>
        <time>2020-08-05T09:32:26Z</time>
      </trkpt>
      <trkpt lat="42.74537" lon="1.45522">
        <ele>1119.6</ele>
        <time>2020-08-05T09:32:29Z</time>
      </trkpt>
      <trkpt lat="42.74539" lon="1.45522">
        <ele>1119.8</ele>
        <time>2020-08-05T09:32:30Z</time>
      </trkpt>
      <trkpt lat="42.7454" lon="1.45521">
        <ele>1120</ele>
        <time>2020-08-05T09:32:31Z</time>
      </trkpt>
      <trkpt lat="42.74542" lon="1.4552">
        <ele>1120.4</ele>
        <time>2020-08-05T09:32:33Z</time>
      </trkpt>
      <trkpt lat="42.74544" lon="1.45519">
        <ele>1121</ele>
        <time>2020-08-05T09:32:35Z</time>
      </trkpt>
      <trkpt lat="42.74546" lon="1.45516">
        <ele>1121.4</ele>
        <time>2020-08-05T09:32:37Z</time>
      </trkpt>
      <trkpt lat="42.74548" lon="1.45513">
        <ele>1122</ele>
        <time>2020-08-05T09:32:39Z</time>
      </trkpt>
      <trkpt lat="42.74549" lon="1.4551">
        <ele>1122.4</ele>
        <time>2020-08-05T09:32:41Z</time>
      </trkpt>
      <trkpt lat="42.74551" lon="1.45505">
        <ele>1123</ele>
        <time>2020-08-05T09:32:44Z</time>
      </trkpt>
      <trkpt lat="42.74553" lon="1.45503">
        <ele>1124</ele>
        <time>2020-08-05T09:32:47Z</time>
      </trkpt>
      <trkpt lat="42.74554" lon="1.45503">
        <ele>1124</ele>
        <time>2020-08-05T09:32:48Z</time>
      </trkpt>
      <trkpt lat="42.74558" lon="1.45503">
        <ele>1124.4</ele>
        <time>2020-08-05T09:32:50Z</time>
      </trkpt>
      <trkpt lat="42.74559" lon="1.45502">
        <ele>1124.6</ele>
        <time>2020-08-05T09:32:51Z</time>
      </trkpt>
      <trkpt lat="42.74563" lon="1.45501">
        <ele>1125.2</ele>
        <time>2020-08-05T09:32:54Z</time>
      </trkpt>
      <trkpt lat="42.74566" lon="1.45503">
        <ele>1125.4</ele>
        <time>2020-08-05T09:32:56Z</time>
      </trkpt>
      <trkpt lat="42.74567" lon="1.45504">
        <ele>1125.6</ele>
        <time>2020-08-05T09:32:57Z</time>
      </trkpt>
      <trkpt lat="42.74576" lon="1.45513">
        <ele>1125.4</ele>
        <time>2020-08-05T09:33:02Z</time>
      </trkpt>
      <trkpt lat="42.74579" lon="1.45525">
        <ele>1125.8</ele>
        <time>2020-08-05T09:33:07Z</time>
      </trkpt>
      <trkpt lat="42.74579" lon="1.45527">
        <ele>1126</ele>
        <time>2020-08-05T09:33:08Z</time>
      </trkpt>
      <trkpt lat="42.7458" lon="1.45529">
        <ele>1126.2</ele>
        <time>2020-08-05T09:33:09Z</time>
      </trkpt>
      <trkpt lat="42.74581" lon="1.45534">
        <ele>1126.8</ele>
        <time>2020-08-05T09:33:11Z</time>
      </trkpt>
      <trkpt lat="42.74581" lon="1.4554">
        <ele>1127.4</ele>
        <time>2020-08-05T09:33:14Z</time>
      </trkpt>
      <trkpt lat="42.7458" lon="1.45549">
        <ele>1127.8</ele>
        <time>2020-08-05T09:33:18Z</time>
      </trkpt>
      <trkpt lat="42.7458" lon="1.45554">
        <ele>1128.2</ele>
        <time>2020-08-05T09:33:20Z</time>
      </trkpt>
      <trkpt lat="42.74581" lon="1.45559">
        <ele>1128.4</ele>
        <time>2020-08-05T09:33:22Z</time>
      </trkpt>
      <trkpt lat="42.74586" lon="1.45569">
        <ele>1128.8</ele>
        <time>2020-08-05T09:33:27Z</time>
      </trkpt>
      <trkpt lat="42.74592" lon="1.45576">
        <ele>1129.6</ele>
        <time>2020-08-05T09:33:31Z</time>
      </trkpt>
      <trkpt lat="42.74597" lon="1.45579">
        <ele>1130.2</ele>
        <time>2020-08-05T09:33:34Z</time>
      </trkpt>
      <trkpt lat="42.746" lon="1.4558">
        <ele>1130.6</ele>
        <time>2020-08-05T09:33:36Z</time>
      </trkpt>
      <trkpt lat="42.74601" lon="1.45581">
        <ele>1130.8</ele>
        <time>2020-08-05T09:33:37Z</time>
      </trkpt>
      <trkpt lat="42.74605" lon="1.45583">
        <ele>1131.6</ele>
        <time>2020-08-05T09:33:40Z</time>
      </trkpt>
      <trkpt lat="42.74608" lon="1.45585">
        <ele>1132.2</ele>
        <time>2020-08-05T09:33:42Z</time>
      </trkpt>
      <trkpt lat="42.7461" lon="1.45586">
        <ele>1132.6</ele>
        <time>2020-08-05T09:33:44Z</time>
      </trkpt>
      <trkpt lat="42.74615" lon="1.45587">
        <ele>1133.8</ele>
        <time>2020-08-05T09:33:48Z</time>
      </trkpt>
      <trkpt lat="42.74616" lon="1.45588">
        <ele>1134</ele>
        <time>2020-08-05T09:33:49Z</time>
      </trkpt>
      <trkpt lat="42.74621" lon="1.45591">
        <ele>1134.8</ele>
        <time>2020-08-05T09:33:53Z</time>
      </trkpt>
      <trkpt lat="42.74622" lon="1.45592">
        <ele>1135</ele>
        <time>2020-08-05T09:33:54Z</time>
      </trkpt>
      <trkpt lat="42.74629" lon="1.45596">
        <ele>1136</ele>
        <time>2020-08-05T09:33:59Z</time>
      </trkpt>
      <trkpt lat="42.74632" lon="1.45601">
        <ele>1136.6</ele>
        <time>2020-08-05T09:34:02Z</time>
      </trkpt>
      <trkpt lat="42.74636" lon="1.45604">
        <ele>1137.2</ele>
        <time>2020-08-05T09:34:05Z</time>
      </trkpt>
      <trkpt lat="42.7464" lon="1.45607">
        <ele>1137.8</ele>
        <time>2020-08-05T09:34:08Z</time>
      </trkpt>
      <trkpt lat="42.74641" lon="1.45609">
        <ele>1137.8</ele>
        <time>2020-08-05T09:34:09Z</time>
      </trkpt>
      <trkpt lat="42.74645" lon="1.45612">
        <ele>1138.4</ele>
        <time>2020-08-05T09:34:12Z</time>
      </trkpt>
      <trkpt lat="42.74651" lon="1.45621">
        <ele>1139.4</ele>
        <time>2020-08-05T09:34:18Z</time>
      </trkpt>
      <trkpt lat="42.74656" lon="1.45632">
        <ele>1140.6</ele>
        <time>2020-08-05T09:34:24Z</time>
      </trkpt>
      <trkpt lat="42.74657" lon="1.45634">
        <ele>1140.8</ele>
        <time>2020-08-05T09:34:25Z</time>
      </trkpt>
      <trkpt lat="42.7466" lon="1.45643">
        <ele>1141.4</ele>
        <time>2020-08-05T09:34:30Z</time>
      </trkpt>
      <trkpt lat="42.74663" lon="1.45649">
        <ele>1141.8</ele>
        <time>2020-08-05T09:34:33Z</time>
      </trkpt>
      <trkpt lat="42.74664" lon="1.4565">
        <ele>1142</ele>
        <time>2020-08-05T09:34:34Z</time>
      </trkpt>
      <trkpt lat="42.74669" lon="1.45654">
        <ele>1142.4</ele>
        <time>2020-08-05T09:34:38Z</time>
      </trkpt>
      <trkpt lat="42.74671" lon="1.45652">
        <ele>1142.8</ele>
        <time>2020-08-05T09:34:40Z</time>
      </trkpt>
      <trkpt lat="42.74672" lon="1.45649">
        <ele>1143</ele>
        <time>2020-08-05T09:34:42Z</time>
      </trkpt>
      <trkpt lat="42.74672" lon="1.45647">
        <ele>1143.2</ele>
        <time>2020-08-05T09:34:43Z</time>
      </trkpt>
      <trkpt lat="42.74669" lon="1.45638">
        <ele>1143.8</ele>
        <time>2020-08-05T09:34:47Z</time>
      </trkpt>
      <trkpt lat="42.74667" lon="1.45633">
        <ele>1144.2</ele>
        <time>2020-08-05T09:34:50Z</time>
      </trkpt>
      <trkpt lat="42.74666" lon="1.45627">
        <ele>1144.8</ele>
        <time>2020-08-05T09:34:53Z</time>
      </trkpt>
      <trkpt lat="42.74663" lon="1.45619">
        <ele>1145.4</ele>
        <time>2020-08-05T09:34:57Z</time>
      </trkpt>
      <trkpt lat="42.74661" lon="1.45616">
        <ele>1145.8</ele>
        <time>2020-08-05T09:34:59Z</time>
      </trkpt>
      <trkpt lat="42.74655" lon="1.45605">
        <ele>1147</ele>
        <time>2020-08-05T09:35:05Z</time>
      </trkpt>
      <trkpt lat="42.74648" lon="1.45596">
        <ele>1148</ele>
        <time>2020-08-05T09:35:10Z</time>
      </trkpt>
      <trkpt lat="42.74646" lon="1.45593">
        <ele>1148.4</ele>
        <time>2020-08-05T09:35:12Z</time>
      </trkpt>
      <trkpt lat="42.74642" lon="1.45588">
        <ele>1148.8</ele>
        <time>2020-08-05T09:35:18Z</time>
      </trkpt>
      <trkpt lat="42.74641" lon="1.45587">
        <ele>1149</ele>
        <time>2020-08-05T09:35:19Z</time>
      </trkpt>
      <trkpt lat="42.74639" lon="1.45585">
        <ele>1149</ele>
        <time>2020-08-05T09:35:25Z</time>
      </trkpt>
      <trkpt lat="42.74639" lon="1.45585">
        <ele>1149.2</ele>
        <time>2020-08-05T09:35:37Z</time>
      </trkpt>
      <trkpt lat="42.74639" lon="1.45585">
        <ele>1149</ele>
        <time>2020-08-05T09:35:43Z</time>
      </trkpt>
      <trkpt lat="42.74639" lon="1.45585">
        <ele>1149</ele>
        <time>2020-08-05T09:35:51Z</time>
      </trkpt>
      <trkpt lat="42.74639" lon="1.45585">
        <ele>1148.8</ele>
        <time>2020-08-05T09:36:06Z</time>
      </trkpt>
      <trkpt lat="42.7464" lon="1.45585">
        <ele>1148.8</ele>
        <time>2020-08-05T09:36:23Z</time>
      </trkpt>
      <trkpt lat="42.7464" lon="1.45585">
        <ele>1149</ele>
        <time>2020-08-05T09:36:36Z</time>
      </trkpt>
      <trkpt lat="42.7464" lon="1.45584">
        <ele>1149.2</ele>
        <time>2020-08-05T09:36:45Z</time>
      </trkpt>
      <trkpt lat="42.74637" lon="1.45581">
        <ele>1149.6</ele>
        <time>2020-08-05T09:36:47Z</time>
      </trkpt>
      <trkpt lat="42.74633" lon="1.45576">
        <ele>1150.2</ele>
        <time>2020-08-05T09:36:50Z</time>
      </trkpt>
      <trkpt lat="42.74631" lon="1.4557">
        <ele>1150.4</ele>
        <time>2020-08-05T09:36:52Z</time>
      </trkpt>
      <trkpt lat="42.74626" lon="1.45557">
        <ele>1150.6</ele>
        <time>2020-08-05T09:36:58Z</time>
      </trkpt>
      <trkpt lat="42.74627" lon="1.4554">
        <ele>1150.6</ele>
        <time>2020-08-05T09:37:04Z</time>
      </trkpt>
      <trkpt lat="42.74622" lon="1.45527">
        <ele>1150.6</ele>
        <time>2020-08-05T09:37:10Z</time>
      </trkpt>
      <trkpt lat="42.74617" lon="1.45515">
        <ele>1150.8</ele>
        <time>2020-08-05T09:37:15Z</time>
      </trkpt>
      <trkpt lat="42.74616" lon="1.45506">
        <ele>1150.6</ele>
        <time>2020-08-05T09:37:20Z</time>
      </trkpt>
      <trkpt lat="42.74617" lon="1.45506">
        <ele>1150.8</ele>
        <time>2020-08-05T09:37:21Z</time>
      </trkpt>
      <trkpt lat="42.74619" lon="1.45494">
        <ele>1150.6</ele>
        <time>2020-08-05T09:37:26Z</time>
      </trkpt>
      <trkpt lat="42.74618" lon="1.45489">
        <ele>1150.8</ele>
        <time>2020-08-05T09:37:31Z</time>
      </trkpt>
      <trkpt lat="42.74623" lon="1.45488">
        <ele>1150.6</ele>
        <time>2020-08-05T09:37:37Z</time>
      </trkpt>
      <trkpt lat="42.74625" lon="1.45487">
        <ele>1150.6</ele>
        <time>2020-08-05T09:37:38Z</time>
      </trkpt>
      <trkpt lat="42.74626" lon="1.45482">
        <ele>1150.4</ele>
        <time>2020-08-05T09:37:40Z</time>
      </trkpt>
      <trkpt lat="42.74626" lon="1.45479">
        <ele>1150.2</ele>
        <time>2020-08-05T09:37:41Z</time>
      </trkpt>
      <trkpt lat="42.74625" lon="1.45473">
        <ele>1150.2</ele>
        <time>2020-08-05T09:37:43Z</time>
      </trkpt>
      <trkpt lat="42.74622" lon="1.45465">
        <ele>1150.2</ele>
        <time>2020-08-05T09:37:46Z</time>
      </trkpt>
      <trkpt lat="42.7462" lon="1.45459">
        <ele>1150.2</ele>
        <time>2020-08-05T09:37:50Z</time>
      </trkpt>
      <trkpt lat="42.74618" lon="1.45457">
        <ele>1151.2</ele>
        <time>2020-08-05T09:37:55Z</time>
      </trkpt>
      <trkpt lat="42.74619" lon="1.45454">
        <ele>1152.2</ele>
        <time>2020-08-05T09:37:59Z</time>
      </trkpt>
      <trkpt lat="42.74617" lon="1.45453">
        <ele>1152.6</ele>
        <time>2020-08-05T09:38:03Z</time>
      </trkpt>
      <trkpt lat="42.74614" lon="1.45453">
        <ele>1152.8</ele>
        <time>2020-08-05T09:38:07Z</time>
      </trkpt>
      <trkpt lat="42.74613" lon="1.45451">
        <ele>1153</ele>
        <time>2020-08-05T09:38:09Z</time>
      </trkpt>
      <trkpt lat="42.74614" lon="1.45449">
        <ele>1152.4</ele>
        <time>2020-08-05T09:38:13Z</time>
      </trkpt>
      <trkpt lat="42.74615" lon="1.45448">
        <ele>1151.8</ele>
        <time>2020-08-05T09:38:18Z</time>
      </trkpt>
      <trkpt lat="42.74615" lon="1.45448">
        <ele>1151.8</ele>
        <time>2020-08-05T09:38:32Z</time>
      </trkpt>
      <trkpt lat="42.74615" lon="1.45448">
        <ele>1152</ele>
        <time>2020-08-05T09:38:52Z</time>
      </trkpt>
      <trkpt lat="42.74615" lon="1.45448">
        <ele>1152</ele>
        <time>2020-08-05T09:39:04Z</time>
      </trkpt>
      <trkpt lat="42.74608" lon="1.45445">
        <ele>1151.2</ele>
        <time>2020-08-05T09:39:10Z</time>
      </trkpt>
      <trkpt lat="42.74598" lon="1.45442">
        <ele>1151</ele>
        <time>2020-08-05T09:39:17Z</time>
      </trkpt>
      <trkpt lat="42.74594" lon="1.45445">
        <ele>1150.8</ele>
        <time>2020-08-05T09:39:23Z</time>
      </trkpt>
      <trkpt lat="42.74594" lon="1.45445">
        <ele>1150.8</ele>
        <time>2020-08-05T09:39:24Z</time>
      </trkpt>
      <trkpt lat="42.74591" lon="1.45448">
        <ele>1150.6</ele>
        <time>2020-08-05T09:39:27Z</time>
      </trkpt>
      <trkpt lat="42.74591" lon="1.4545">
        <ele>1150.2</ele>
        <time>2020-08-05T09:39:32Z</time>
      </trkpt>
      <trkpt lat="42.74591" lon="1.45451">
        <ele>1150</ele>
        <time>2020-08-05T09:39:41Z</time>
      </trkpt>
      <trkpt lat="42.7459" lon="1.45452">
        <ele>1150</ele>
        <time>2020-08-05T09:39:49Z</time>
      </trkpt>
      <trkpt lat="42.74589" lon="1.45453">
        <ele>1150</ele>
        <time>2020-08-05T09:39:50Z</time>
      </trkpt>
      <trkpt lat="42.74585" lon="1.45457">
        <ele>1150.2</ele>
        <time>2020-08-05T09:39:56Z</time>
      </trkpt>
      <trkpt lat="42.74583" lon="1.45458">
        <ele>1150.6</ele>
        <time>2020-08-05T09:39:59Z</time>
      </trkpt>
      <trkpt lat="42.74582" lon="1.45457">
        <ele>1150.8</ele>
        <time>2020-08-05T09:40:01Z</time>
      </trkpt>
      <trkpt lat="42.7458" lon="1.45458">
        <ele>1150.6</ele>
        <time>2020-08-05T09:40:06Z</time>
      </trkpt>
      <trkpt lat="42.74579" lon="1.45458">
        <ele>1150.6</ele>
        <time>2020-08-05T09:40:07Z</time>
      </trkpt>
      <trkpt lat="42.74569" lon="1.45461">
        <ele>1150.4</ele>
        <time>2020-08-05T09:40:11Z</time>
      </trkpt>
      <trkpt lat="42.74557" lon="1.45462">
        <ele>1150</ele>
        <time>2020-08-05T09:40:17Z</time>
      </trkpt>
      <trkpt lat="42.74541" lon="1.45458">
        <ele>1150.2</ele>
        <time>2020-08-05T09:40:23Z</time>
      </trkpt>
      <trkpt lat="42.7453" lon="1.45457">
        <ele>1150</ele>
        <time>2020-08-05T09:40:28Z</time>
      </trkpt>
      <trkpt lat="42.74528" lon="1.45458">
        <ele>1150.2</ele>
        <time>2020-08-05T09:40:33Z</time>
      </trkpt>
      <trkpt lat="42.74523" lon="1.4546">
        <ele>1150.6</ele>
        <time>2020-08-05T09:40:42Z</time>
      </trkpt>
      <trkpt lat="42.7452" lon="1.45461">
        <ele>1150.2</ele>
        <time>2020-08-05T09:40:48Z</time>
      </trkpt>
      <trkpt lat="42.74519" lon="1.45462">
        <ele>1150.2</ele>
        <time>2020-08-05T09:40:53Z</time>
      </trkpt>
      <trkpt lat="42.74519" lon="1.45462">
        <ele>1150.2</ele>
        <time>2020-08-05T09:41:05Z</time>
      </trkpt>
      <trkpt lat="42.74518" lon="1.45461">
        <ele>1149.8</ele>
        <time>2020-08-05T09:41:18Z</time>
      </trkpt>
      <trkpt lat="42.74518" lon="1.45461">
        <ele>1149.6</ele>
        <time>2020-08-05T09:41:24Z</time>
      </trkpt>
      <trkpt lat="42.74518" lon="1.45461">
        <ele>1149.6</ele>
        <time>2020-08-05T09:41:27Z</time>
      </trkpt>
      <trkpt lat="42.74518" lon="1.45461">
        <ele>1149.6</ele>
        <time>2020-08-05T09:41:42Z</time>
      </trkpt>
      <trkpt lat="42.74518" lon="1.45461">
        <ele>1149.6</ele>
        <time>2020-08-05T09:41:54Z</time>
      </trkpt>
      <trkpt lat="42.74518" lon="1.45461">
        <ele>1149.4</ele>
        <time>2020-08-05T09:42:11Z</time>
      </trkpt>
      <trkpt lat="42.74516" lon="1.45462">
        <ele>1149.6</ele>
        <time>2020-08-05T09:42:20Z</time>
      </trkpt>
      <trkpt lat="42.74507" lon="1.45472">
        <ele>1150</ele>
        <time>2020-08-05T09:42:26Z</time>
      </trkpt>
      <trkpt lat="42.74492" lon="1.45473">
        <ele>1150.4</ele>
        <time>2020-08-05T09:42:31Z</time>
      </trkpt>
      <trkpt lat="42.74476" lon="1.45477">
        <ele>1150.4</ele>
        <time>2020-08-05T09:42:36Z</time>
      </trkpt>
      <trkpt lat="42.74465" lon="1.45483">
        <ele>1150.6</ele>
        <time>2020-08-05T09:42:41Z</time>
      </trkpt>
      <trkpt lat="42.74452" lon="1.45488">
        <ele>1151</ele>
        <time>2020-08-05T09:42:47Z</time>
      </trkpt>
      <trkpt lat="42.74438" lon="1.45494">
        <ele>1150.4</ele>
        <time>2020-08-05T09:42:53Z</time>
      </trkpt>
      <trkpt lat="42.7442" lon="1.45503">
        <ele>1150.2</ele>
        <time>2020-08-05T09:42:59Z</time>
      </trkpt>
      <trkpt lat="42.74407" lon="1.45516">
        <ele>1150.4</ele>
        <time>2020-08-05T09:43:04Z</time>
      </trkpt>
      <trkpt lat="42.74392" lon="1.45526">
        <ele>1150.4</ele>
        <time>2020-08-05T09:43:09Z</time>
      </trkpt>
      <trkpt lat="42.74364" lon="1.45537">
        <ele>1150.2</ele>
        <time>2020-08-05T09:43:17Z</time>
      </trkpt>
      <trkpt lat="42.74352" lon="1.45545">
        <ele>1150.6</ele>
        <time>2020-08-05T09:43:23Z</time>
      </trkpt>
      <trkpt lat="42.74352" lon="1.45546">
        <ele>1150.8</ele>
        <time>2020-08-05T09:43:27Z</time>
      </trkpt>
      <trkpt lat="42.74348" lon="1.45552">
        <ele>1150.6</ele>
        <time>2020-08-05T09:43:32Z</time>
      </trkpt>
      <trkpt lat="42.74346" lon="1.45554">
        <ele>1150.6</ele>
        <time>2020-08-05T09:43:33Z</time>
      </trkpt>
      <trkpt lat="42.74341" lon="1.45563">
        <ele>1150.8</ele>
        <time>2020-08-05T09:43:36Z</time>
      </trkpt>
      <trkpt lat="42.74334" lon="1.45572">
        <ele>1151</ele>
        <time>2020-08-05T09:43:39Z</time>
      </trkpt>
      <trkpt lat="42.74317" lon="1.45593">
        <ele>1151</ele>
        <time>2020-08-05T09:43:45Z</time>
      </trkpt>
      <trkpt lat="42.74303" lon="1.456">
        <ele>1151</ele>
        <time>2020-08-05T09:43:49Z</time>
      </trkpt>
      <trkpt lat="42.743" lon="1.45603">
        <ele>1151.4</ele>
        <time>2020-08-05T09:43:50Z</time>
      </trkpt>
      <trkpt lat="42.74291" lon="1.45611">
        <ele>1151.2</ele>
        <time>2020-08-05T09:43:53Z</time>
      </trkpt>
      <trkpt lat="42.74274" lon="1.45624">
        <ele>1151.4</ele>
        <time>2020-08-05T09:43:58Z</time>
      </trkpt>
      <trkpt lat="42.74256" lon="1.45635">
        <ele>1151.2</ele>
        <time>2020-08-05T09:44:03Z</time>
      </trkpt>
      <trkpt lat="42.74245" lon="1.45634">
        <ele>1151.2</ele>
        <time>2020-08-05T09:44:06Z</time>
      </trkpt>
      <trkpt lat="42.74241" lon="1.45636">
        <ele>1151.2</ele>
        <time>2020-08-05T09:44:07Z</time>
      </trkpt>
      <trkpt lat="42.74229" lon="1.45633">
        <ele>1151.2</ele>
        <time>2020-08-05T09:44:11Z</time>
      </trkpt>
      <trkpt lat="42.7422" lon="1.45628">
        <ele>1151.4</ele>
        <time>2020-08-05T09:44:14Z</time>
      </trkpt>
      <trkpt lat="42.74212" lon="1.45622">
        <ele>1151.6</ele>
        <time>2020-08-05T09:44:17Z</time>
      </trkpt>
      <trkpt lat="42.74208" lon="1.45619">
        <ele>1151.6</ele>
        <time>2020-08-05T09:44:22Z</time>
      </trkpt>
      <trkpt lat="42.74206" lon="1.45618">
        <ele>1151.6</ele>
        <time>2020-08-05T09:44:27Z</time>
      </trkpt>
      <trkpt lat="42.74199" lon="1.45613">
        <ele>1151.8</ele>
        <time>2020-08-05T09:44:31Z</time>
      </trkpt>
      <trkpt lat="42.74182" lon="1.45595">
        <ele>1152</ele>
        <time>2020-08-05T09:44:38Z</time>
      </trkpt>
      <trkpt lat="42.74165" lon="1.45571">
        <ele>1152</ele>
        <time>2020-08-05T09:44:45Z</time>
      </trkpt>
      <trkpt lat="42.74161" lon="1.45554">
        <ele>1152.2</ele>
        <time>2020-08-05T09:44:49Z</time>
      </trkpt>
      <trkpt lat="42.74162" lon="1.45549">
        <ele>1152.4</ele>
        <time>2020-08-05T09:44:50Z</time>
      </trkpt>
      <trkpt lat="42.74163" lon="1.45526">
        <ele>1152.4</ele>
        <time>2020-08-05T09:44:55Z</time>
      </trkpt>
      <trkpt lat="42.74162" lon="1.45505">
        <ele>1152.8</ele>
        <time>2020-08-05T09:45:00Z</time>
      </trkpt>
      <trkpt lat="42.74162" lon="1.45504">
        <ele>1153.4</ele>
        <time>2020-08-05T09:45:04Z</time>
      </trkpt>
      <trkpt lat="42.74162" lon="1.45504">
        <ele>1153.4</ele>
        <time>2020-08-05T09:45:05Z</time>
      </trkpt>
      <trkpt lat="42.74159" lon="1.45492">
        <ele>1152.6</ele>
        <time>2020-08-05T09:45:12Z</time>
      </trkpt>
      <trkpt lat="42.74156" lon="1.45475">
        <ele>1153.4</ele>
        <time>2020-08-05T09:45:17Z</time>
      </trkpt>
      <trkpt lat="42.74154" lon="1.45472">
        <ele>1153.2</ele>
        <time>2020-08-05T09:45:18Z</time>
      </trkpt>
      <trkpt lat="42.74151" lon="1.45463">
        <ele>1153</ele>
        <time>2020-08-05T09:45:21Z</time>
      </trkpt>
      <trkpt lat="42.74153" lon="1.45452">
        <ele>1152.4</ele>
        <time>2020-08-05T09:45:24Z</time>
      </trkpt>
      <trkpt lat="42.74152" lon="1.45449">
        <ele>1152.6</ele>
        <time>2020-08-05T09:45:25Z</time>
      </trkpt>
      <trkpt lat="42.74152" lon="1.45445">
        <ele>1152.6</ele>
        <time>2020-08-05T09:45:26Z</time>
      </trkpt>
      <trkpt lat="42.74155" lon="1.4543">
        <ele>1153</ele>
        <time>2020-08-05T09:45:30Z</time>
      </trkpt>
      <trkpt lat="42.74154" lon="1.45417">
        <ele>1152.8</ele>
        <time>2020-08-05T09:45:35Z</time>
      </trkpt>
      <trkpt lat="42.74151" lon="1.45415">
        <ele>1152.2</ele>
        <time>2020-08-05T09:45:39Z</time>
      </trkpt>
      <trkpt lat="42.7415" lon="1.45413">
        <ele>1152</ele>
        <time>2020-08-05T09:45:40Z</time>
      </trkpt>
      <trkpt lat="42.7415" lon="1.45413">
        <ele>1152</ele>
        <time>2020-08-05T09:45:44Z</time>
      </trkpt>
      <trkpt lat="42.74149" lon="1.45411">
        <ele>1152.2</ele>
        <time>2020-08-05T09:45:46Z</time>
      </trkpt>
      <trkpt lat="42.74148" lon="1.45407">
        <ele>1152.8</ele>
        <time>2020-08-05T09:45:49Z</time>
      </trkpt>
      <trkpt lat="42.74142" lon="1.45401">
        <ele>1152.6</ele>
        <time>2020-08-05T09:45:55Z</time>
      </trkpt>
      <trkpt lat="42.74135" lon="1.45399">
        <ele>1152.4</ele>
        <time>2020-08-05T09:46:00Z</time>
      </trkpt>
      <trkpt lat="42.74122" lon="1.454">
        <ele>1152.4</ele>
        <time>2020-08-05T09:46:05Z</time>
      </trkpt>
      <trkpt lat="42.74117" lon="1.45396">
        <ele>1152.4</ele>
        <time>2020-08-05T09:46:07Z</time>
      </trkpt>
      <trkpt lat="42.74114" lon="1.45387">
        <ele>1152.4</ele>
        <time>2020-08-05T09:46:09Z</time>
      </trkpt>
      <trkpt lat="42.74111" lon="1.45378">
        <ele>1152.4</ele>
        <time>2020-08-05T09:46:11Z</time>
      </trkpt>
      <trkpt lat="42.74107" lon="1.45361">
        <ele>1152.4</ele>
        <time>2020-08-05T09:46:15Z</time>
      </trkpt>
      <trkpt lat="42.74097" lon="1.45346">
        <ele>1152.4</ele>
        <time>2020-08-05T09:46:21Z</time>
      </trkpt>
      <trkpt lat="42.7409" lon="1.45344">
        <ele>1152.4</ele>
        <time>2020-08-05T09:46:25Z</time>
      </trkpt>
      <trkpt lat="42.74078" lon="1.45342">
        <ele>1152.8</ele>
        <time>2020-08-05T09:46:30Z</time>
      </trkpt>
      <trkpt lat="42.74062" lon="1.45349">
        <ele>1152.6</ele>
        <time>2020-08-05T09:46:35Z</time>
      </trkpt>
      <trkpt lat="42.74047" lon="1.45358">
        <ele>1151.8</ele>
        <time>2020-08-05T09:46:40Z</time>
      </trkpt>
      <trkpt lat="42.74041" lon="1.45366">
        <ele>1152.6</ele>
        <time>2020-08-05T09:46:44Z</time>
      </trkpt>
      <trkpt lat="42.74037" lon="1.45375">
        <ele>1152.8</ele>
        <time>2020-08-05T09:46:49Z</time>
      </trkpt>
      <trkpt lat="42.74028" lon="1.4538">
        <ele>1152.8</ele>
        <time>2020-08-05T09:46:54Z</time>
      </trkpt>
      <trkpt lat="42.74019" lon="1.45378">
        <ele>1153</ele>
        <time>2020-08-05T09:46:59Z</time>
      </trkpt>
      <trkpt lat="42.74008" lon="1.45374">
        <ele>1153</ele>
        <time>2020-08-05T09:47:04Z</time>
      </trkpt>
      <trkpt lat="42.74005" lon="1.45372">
        <ele>1153</ele>
        <time>2020-08-05T09:47:05Z</time>
      </trkpt>
      <trkpt lat="42.7399" lon="1.45359">
        <ele>1153</ele>
        <time>2020-08-05T09:47:10Z</time>
      </trkpt>
      <trkpt lat="42.73971" lon="1.45344">
        <ele>1153.2</ele>
        <time>2020-08-05T09:47:16Z</time>
      </trkpt>
      <trkpt lat="42.73944" lon="1.4533">
        <ele>1153.4</ele>
        <time>2020-08-05T09:47:23Z</time>
      </trkpt>
      <trkpt lat="42.73941" lon="1.45329">
        <ele>1153.4</ele>
        <time>2020-08-05T09:47:24Z</time>
      </trkpt>
      <trkpt lat="42.73913" lon="1.45322">
        <ele>1153.2</ele>
        <time>2020-08-05T09:47:31Z</time>
      </trkpt>
      <trkpt lat="42.73895" lon="1.45313">
        <ele>1153.4</ele>
        <time>2020-08-05T09:47:36Z</time>
      </trkpt>
      <trkpt lat="42.73877" lon="1.45305">
        <ele>1153.4</ele>
        <time>2020-08-05T09:47:41Z</time>
      </trkpt>
      <trkpt lat="42.7386" lon="1.45292">
        <ele>1153.4</ele>
        <time>2020-08-05T09:47:46Z</time>
      </trkpt>
      <trkpt lat="42.73844" lon="1.45277">
        <ele>1153.4</ele>
        <time>2020-08-05T09:47:51Z</time>
      </trkpt>
      <trkpt lat="42.7383" lon="1.45254">
        <ele>1152.8</ele>
        <time>2020-08-05T09:47:56Z</time>
      </trkpt>
      <trkpt lat="42.73821" lon="1.4524">
        <ele>1153.6</ele>
        <time>2020-08-05T09:48:00Z</time>
      </trkpt>
      <trkpt lat="42.7381" lon="1.45219">
        <ele>1153.8</ele>
        <time>2020-08-05T09:48:06Z</time>
      </trkpt>
      <trkpt lat="42.73799" lon="1.45195">
        <ele>1154</ele>
        <time>2020-08-05T09:48:12Z</time>
      </trkpt>
      <trkpt lat="42.73799" lon="1.45191">
        <ele>1154.4</ele>
        <time>2020-08-05T09:48:13Z</time>
      </trkpt>
      <trkpt lat="42.73802" lon="1.45181">
        <ele>1155.2</ele>
        <time>2020-08-05T09:48:16Z</time>
      </trkpt>
      <trkpt lat="42.73809" lon="1.45163">
        <ele>1155.2</ele>
        <time>2020-08-05T09:48:21Z</time>
      </trkpt>
      <trkpt lat="42.7381" lon="1.45159">
        <ele>1155.6</ele>
        <time>2020-08-05T09:48:22Z</time>
      </trkpt>
      <trkpt lat="42.73807" lon="1.45155">
        <ele>1156</ele>
        <time>2020-08-05T09:48:24Z</time>
      </trkpt>
      <trkpt lat="42.73805" lon="1.45154">
        <ele>1156</ele>
        <time>2020-08-05T09:48:25Z</time>
      </trkpt>
      <trkpt lat="42.73792" lon="1.45154">
        <ele>1155.2</ele>
        <time>2020-08-05T09:48:29Z</time>
      </trkpt>
      <trkpt lat="42.73786" lon="1.45157">
        <ele>1154.8</ele>
        <time>2020-08-05T09:48:31Z</time>
      </trkpt>
      <trkpt lat="42.73778" lon="1.45163">
        <ele>1155.2</ele>
        <time>2020-08-05T09:48:34Z</time>
      </trkpt>
      <trkpt lat="42.73772" lon="1.4517">
        <ele>1154.4</ele>
        <time>2020-08-05T09:48:36Z</time>
      </trkpt>
      <trkpt lat="42.73764" lon="1.45176">
        <ele>1154</ele>
        <time>2020-08-05T09:48:38Z</time>
      </trkpt>
      <trkpt lat="42.73749" lon="1.45179">
        <ele>1153.8</ele>
        <time>2020-08-05T09:48:42Z</time>
      </trkpt>
      <trkpt lat="42.73739" lon="1.45194">
        <ele>1154</ele>
        <time>2020-08-05T09:48:46Z</time>
      </trkpt>
      <trkpt lat="42.73733" lon="1.45202">
        <ele>1153.8</ele>
        <time>2020-08-05T09:48:50Z</time>
      </trkpt>
      <trkpt lat="42.73727" lon="1.45206">
        <ele>1153.8</ele>
        <time>2020-08-05T09:48:52Z</time>
      </trkpt>
      <trkpt lat="42.73718" lon="1.4521">
        <ele>1153.8</ele>
        <time>2020-08-05T09:48:55Z</time>
      </trkpt>
      <trkpt lat="42.73695" lon="1.45214">
        <ele>1154</ele>
        <time>2020-08-05T09:49:01Z</time>
      </trkpt>
      <trkpt lat="42.73689" lon="1.45212">
        <ele>1153.8</ele>
        <time>2020-08-05T09:49:05Z</time>
      </trkpt>
      <trkpt lat="42.73692" lon="1.45213">
        <ele>1154.2</ele>
        <time>2020-08-05T09:49:07Z</time>
      </trkpt>
      <trkpt lat="42.73692" lon="1.45215">
        <ele>1153.8</ele>
        <time>2020-08-05T09:49:11Z</time>
      </trkpt>
      <trkpt lat="42.73692" lon="1.45215">
        <ele>1153.8</ele>
        <time>2020-08-05T09:49:27Z</time>
      </trkpt>
      <trkpt lat="42.73692" lon="1.45215">
        <ele>1153.8</ele>
        <time>2020-08-05T09:49:42Z</time>
      </trkpt>
      <trkpt lat="42.73689" lon="1.45216">
        <ele>1153.8</ele>
        <time>2020-08-05T09:49:56Z</time>
      </trkpt>
      <trkpt lat="42.73686" lon="1.45215">
        <ele>1153.8</ele>
        <time>2020-08-05T09:49:57Z</time>
      </trkpt>
      <trkpt lat="42.73671" lon="1.45205">
        <ele>1154</ele>
        <time>2020-08-05T09:50:02Z</time>
      </trkpt>
      <trkpt lat="42.73669" lon="1.45201">
        <ele>1154</ele>
        <time>2020-08-05T09:50:03Z</time>
      </trkpt>
      <trkpt lat="42.73667" lon="1.45192">
        <ele>1154.2</ele>
        <time>2020-08-05T09:50:05Z</time>
      </trkpt>
      <trkpt lat="42.73665" lon="1.45188">
        <ele>1154.2</ele>
        <time>2020-08-05T09:50:09Z</time>
      </trkpt>
      <trkpt lat="42.73663" lon="1.45185">
        <ele>1154</ele>
        <time>2020-08-05T09:50:14Z</time>
      </trkpt>
      <trkpt lat="42.7366" lon="1.45183">
        <ele>1153.4</ele>
        <time>2020-08-05T09:50:16Z</time>
      </trkpt>
      <trkpt lat="42.73656" lon="1.45179">
        <ele>1152.6</ele>
        <time>2020-08-05T09:50:21Z</time>
      </trkpt>
      <trkpt lat="42.73653" lon="1.45179">
        <ele>1152.8</ele>
        <time>2020-08-05T09:50:24Z</time>
      </trkpt>
      <trkpt lat="42.7365" lon="1.45182">
        <ele>1152.8</ele>
        <time>2020-08-05T09:50:27Z</time>
      </trkpt>
      <trkpt lat="42.73646" lon="1.45184">
        <ele>1153.4</ele>
        <time>2020-08-05T09:50:33Z</time>
      </trkpt>
      <trkpt lat="42.73645" lon="1.45184">
        <ele>1154.6</ele>
        <time>2020-08-05T09:50:38Z</time>
      </trkpt>
      <trkpt lat="42.73642" lon="1.45189">
        <ele>1154.6</ele>
        <time>2020-08-05T09:50:43Z</time>
      </trkpt>
      <trkpt lat="42.7364" lon="1.45191">
        <ele>1154.6</ele>
        <time>2020-08-05T09:50:44Z</time>
      </trkpt>
      <trkpt lat="42.73629" lon="1.452">
        <ele>1154.4</ele>
        <time>2020-08-05T09:50:49Z</time>
      </trkpt>
      <trkpt lat="42.73611" lon="1.45206">
        <ele>1154.4</ele>
        <time>2020-08-05T09:50:54Z</time>
      </trkpt>
      <trkpt lat="42.73588" lon="1.45207">
        <ele>1154.6</ele>
        <time>2020-08-05T09:50:59Z</time>
      </trkpt>
      <trkpt lat="42.73564" lon="1.45216">
        <ele>1154.8</ele>
        <time>2020-08-05T09:51:05Z</time>
      </trkpt>
      <trkpt lat="42.73547" lon="1.45219">
        <ele>1154.8</ele>
        <time>2020-08-05T09:51:10Z</time>
      </trkpt>
      <trkpt lat="42.73544" lon="1.45223">
        <ele>1154.8</ele>
        <time>2020-08-05T09:51:11Z</time>
      </trkpt>
      <trkpt lat="42.73535" lon="1.45226">
        <ele>1154.8</ele>
        <time>2020-08-05T09:51:14Z</time>
      </trkpt>
      <trkpt lat="42.73528" lon="1.45226">
        <ele>1154.6</ele>
        <time>2020-08-05T09:51:16Z</time>
      </trkpt>
      <trkpt lat="42.73504" lon="1.45237">
        <ele>1154.8</ele>
        <time>2020-08-05T09:51:22Z</time>
      </trkpt>
      <trkpt lat="42.73482" lon="1.45254">
        <ele>1155</ele>
        <time>2020-08-05T09:51:28Z</time>
      </trkpt>
      <trkpt lat="42.73466" lon="1.45256">
        <ele>1155.2</ele>
        <time>2020-08-05T09:51:32Z</time>
      </trkpt>
      <trkpt lat="42.73451" lon="1.45246">
        <ele>1155.2</ele>
        <time>2020-08-05T09:51:36Z</time>
      </trkpt>
      <trkpt lat="42.73438" lon="1.45234">
        <ele>1155.2</ele>
        <time>2020-08-05T09:51:40Z</time>
      </trkpt>
      <trkpt lat="42.73434" lon="1.45232">
        <ele>1155.2</ele>
        <time>2020-08-05T09:51:41Z</time>
      </trkpt>
      <trkpt lat="42.73426" lon="1.45228">
        <ele>1155.2</ele>
        <time>2020-08-05T09:51:43Z</time>
      </trkpt>
      <trkpt lat="42.73416" lon="1.45222">
        <ele>1155.4</ele>
        <time>2020-08-05T09:51:46Z</time>
      </trkpt>
      <trkpt lat="42.73411" lon="1.45221">
        <ele>1155.4</ele>
        <time>2020-08-05T09:51:47Z</time>
      </trkpt>
      <trkpt lat="42.73407" lon="1.45219">
        <ele>1155.6</ele>
        <time>2020-08-05T09:51:48Z</time>
      </trkpt>
      <trkpt lat="42.73387" lon="1.45213">
        <ele>1155.4</ele>
        <time>2020-08-05T09:51:53Z</time>
      </trkpt>
      <trkpt lat="42.73368" lon="1.45213">
        <ele>1155.6</ele>
        <time>2020-08-05T09:51:58Z</time>
      </trkpt>
      <trkpt lat="42.73357" lon="1.452">
        <ele>1155.6</ele>
        <time>2020-08-05T09:52:02Z</time>
      </trkpt>
      <trkpt lat="42.73339" lon="1.45176">
        <ele>1155.4</ele>
        <time>2020-08-05T09:52:08Z</time>
      </trkpt>
      <trkpt lat="42.73333" lon="1.45171">
        <ele>1155</ele>
        <time>2020-08-05T09:52:11Z</time>
      </trkpt>
      <trkpt lat="42.7333" lon="1.45172">
        <ele>1154.8</ele>
        <time>2020-08-05T09:52:12Z</time>
      </trkpt>
      <trkpt lat="42.73325" lon="1.4517">
        <ele>1154.4</ele>
        <time>2020-08-05T09:52:14Z</time>
      </trkpt>
      <trkpt lat="42.73322" lon="1.45177">
        <ele>1154</ele>
        <time>2020-08-05T09:52:16Z</time>
      </trkpt>
      <trkpt lat="42.73321" lon="1.4518">
        <ele>1154.2</ele>
        <time>2020-08-05T09:52:17Z</time>
      </trkpt>
      <trkpt lat="42.7332" lon="1.45182">
        <ele>1154.8</ele>
        <time>2020-08-05T09:52:20Z</time>
      </trkpt>
      <trkpt lat="42.73321" lon="1.45184">
        <ele>1155.4</ele>
        <time>2020-08-05T09:52:26Z</time>
      </trkpt>
      <trkpt lat="42.73321" lon="1.45185">
        <ele>1155.6</ele>
        <time>2020-08-05T09:52:27Z</time>
      </trkpt>
      <trkpt lat="42.73324" lon="1.4519">
        <ele>1155.6</ele>
        <time>2020-08-05T09:52:32Z</time>
      </trkpt>
      <trkpt lat="42.73326" lon="1.45204">
        <ele>1155.6</ele>
        <time>2020-08-05T09:52:37Z</time>
      </trkpt>
      <trkpt lat="42.73325" lon="1.45233">
        <ele>1155.8</ele>
        <time>2020-08-05T09:52:44Z</time>
      </trkpt>
      <trkpt lat="42.73324" lon="1.45264">
        <ele>1156</ele>
        <time>2020-08-05T09:52:50Z</time>
      </trkpt>
      <trkpt lat="42.73324" lon="1.45284">
        <ele>1155.8</ele>
        <time>2020-08-05T09:52:54Z</time>
      </trkpt>
      <trkpt lat="42.73319" lon="1.45304">
        <ele>1156.2</ele>
        <time>2020-08-05T09:52:59Z</time>
      </trkpt>
      <trkpt lat="42.7331" lon="1.45328">
        <ele>1156.2</ele>
        <time>2020-08-05T09:53:04Z</time>
      </trkpt>
      <trkpt lat="42.73298" lon="1.45347">
        <ele>1156.2</ele>
        <time>2020-08-05T09:53:08Z</time>
      </trkpt>
      <trkpt lat="42.73279" lon="1.45373">
        <ele>1156.2</ele>
        <time>2020-08-05T09:53:14Z</time>
      </trkpt>
      <trkpt lat="42.73267" lon="1.4538">
        <ele>1156.2</ele>
        <time>2020-08-05T09:53:17Z</time>
      </trkpt>
      <trkpt lat="42.73263" lon="1.4538">
        <ele>1156.4</ele>
        <time>2020-08-05T09:53:18Z</time>
      </trkpt>
      <trkpt lat="42.73248" lon="1.45377">
        <ele>1156.4</ele>
        <time>2020-08-05T09:53:21Z</time>
      </trkpt>
      <trkpt lat="42.73234" lon="1.45378">
        <ele>1156.4</ele>
        <time>2020-08-05T09:53:24Z</time>
      </trkpt>
      <trkpt lat="42.73226" lon="1.45379">
        <ele>1156.6</ele>
        <time>2020-08-05T09:53:26Z</time>
      </trkpt>
      <trkpt lat="42.73219" lon="1.45376">
        <ele>1156.8</ele>
        <time>2020-08-05T09:53:28Z</time>
      </trkpt>
      <trkpt lat="42.73209" lon="1.4537">
        <ele>1157</ele>
        <time>2020-08-05T09:53:33Z</time>
      </trkpt>
      <trkpt lat="42.73208" lon="1.4537">
        <ele>1157</ele>
        <time>2020-08-05T09:53:42Z</time>
      </trkpt>
      <trkpt lat="42.73208" lon="1.4537">
        <ele>1157</ele>
        <time>2020-08-05T09:53:58Z</time>
      </trkpt>
      <trkpt lat="42.73208" lon="1.4537">
        <ele>1156.8</ele>
        <time>2020-08-05T09:54:14Z</time>
      </trkpt>
      <trkpt lat="42.73208" lon="1.4537">
        <ele>1156.8</ele>
        <time>2020-08-05T09:54:28Z</time>
      </trkpt>
      <trkpt lat="42.73208" lon="1.4537">
        <ele>1157</ele>
        <time>2020-08-05T09:54:42Z</time>
      </trkpt>
      <trkpt lat="42.73208" lon="1.45369">
        <ele>1156.8</ele>
        <time>2020-08-05T09:54:51Z</time>
      </trkpt>
      <trkpt lat="42.73199" lon="1.45357">
        <ele>1157</ele>
        <time>2020-08-05T09:54:56Z</time>
      </trkpt>
      <trkpt lat="42.73188" lon="1.45346">
        <ele>1157.2</ele>
        <time>2020-08-05T09:55:00Z</time>
      </trkpt>
      <trkpt lat="42.73173" lon="1.4533">
        <ele>1157.2</ele>
        <time>2020-08-05T09:55:05Z</time>
      </trkpt>
      <trkpt lat="42.73156" lon="1.45318">
        <ele>1157.6</ele>
        <time>2020-08-05T09:55:10Z</time>
      </trkpt>
      <trkpt lat="42.73153" lon="1.45315">
        <ele>1157.8</ele>
        <time>2020-08-05T09:55:11Z</time>
      </trkpt>
      <trkpt lat="42.73146" lon="1.45308">
        <ele>1157.6</ele>
        <time>2020-08-05T09:55:13Z</time>
      </trkpt>
      <trkpt lat="42.73136" lon="1.45296">
        <ele>1157.6</ele>
        <time>2020-08-05T09:55:16Z</time>
      </trkpt>
      <trkpt lat="42.73122" lon="1.45276">
        <ele>1157.6</ele>
        <time>2020-08-05T09:55:21Z</time>
      </trkpt>
      <trkpt lat="42.73111" lon="1.45259">
        <ele>1157.8</ele>
        <time>2020-08-05T09:55:25Z</time>
      </trkpt>
      <trkpt lat="42.73107" lon="1.45249">
        <ele>1157.6</ele>
        <time>2020-08-05T09:55:27Z</time>
      </trkpt>
      <trkpt lat="42.73104" lon="1.45245">
        <ele>1157.6</ele>
        <time>2020-08-05T09:55:28Z</time>
      </trkpt>
      <trkpt lat="42.73096" lon="1.45232">
        <ele>1158</ele>
        <time>2020-08-05T09:55:31Z</time>
      </trkpt>
      <trkpt lat="42.73078" lon="1.4522">
        <ele>1158</ele>
        <time>2020-08-05T09:55:36Z</time>
      </trkpt>
      <trkpt lat="42.73059" lon="1.45203">
        <ele>1157.8</ele>
        <time>2020-08-05T09:55:42Z</time>
      </trkpt>
      <trkpt lat="42.73035" lon="1.45183">
        <ele>1158</ele>
        <time>2020-08-05T09:55:49Z</time>
      </trkpt>
      <trkpt lat="42.73016" lon="1.4516">
        <ele>1157.8</ele>
        <time>2020-08-05T09:55:55Z</time>
      </trkpt>
      <trkpt lat="42.73002" lon="1.45144">
        <ele>1157.8</ele>
        <time>2020-08-05T09:55:59Z</time>
      </trkpt>
      <trkpt lat="42.72995" lon="1.45136">
        <ele>1157.8</ele>
        <time>2020-08-05T09:56:01Z</time>
      </trkpt>
      <trkpt lat="42.72979" lon="1.45119">
        <ele>1158</ele>
        <time>2020-08-05T09:56:05Z</time>
      </trkpt>
      <trkpt lat="42.72968" lon="1.45107">
        <ele>1158</ele>
        <time>2020-08-05T09:56:08Z</time>
      </trkpt>
      <trkpt lat="42.72953" lon="1.45094">
        <ele>1158</ele>
        <time>2020-08-05T09:56:12Z</time>
      </trkpt>
      <trkpt lat="42.72927" lon="1.45082">
        <ele>1158</ele>
        <time>2020-08-05T09:56:18Z</time>
      </trkpt>
      <trkpt lat="42.72914" lon="1.45077">
        <ele>1158</ele>
        <time>2020-08-05T09:56:21Z</time>
      </trkpt>
      <trkpt lat="42.72902" lon="1.45074">
        <ele>1158</ele>
        <time>2020-08-05T09:56:24Z</time>
      </trkpt>
      <trkpt lat="42.72897" lon="1.45071">
        <ele>1158</ele>
        <time>2020-08-05T09:56:25Z</time>
      </trkpt>
      <trkpt lat="42.72889" lon="1.45066">
        <ele>1158.2</ele>
        <time>2020-08-05T09:56:27Z</time>
      </trkpt>
      <trkpt lat="42.72875" lon="1.45061">
        <ele>1158.2</ele>
        <time>2020-08-05T09:56:30Z</time>
      </trkpt>
      <trkpt lat="42.72861" lon="1.45057">
        <ele>1158</ele>
        <time>2020-08-05T09:56:33Z</time>
      </trkpt>
      <trkpt lat="42.72853" lon="1.45051">
        <ele>1158.2</ele>
        <time>2020-08-05T09:56:35Z</time>
      </trkpt>
      <trkpt lat="42.72846" lon="1.45044">
        <ele>1158.4</ele>
        <time>2020-08-05T09:56:37Z</time>
      </trkpt>
      <trkpt lat="42.72837" lon="1.4503">
        <ele>1158.6</ele>
        <time>2020-08-05T09:56:40Z</time>
      </trkpt>
      <trkpt lat="42.72831" lon="1.4502">
        <ele>1158.4</ele>
        <time>2020-08-05T09:56:42Z</time>
      </trkpt>
      <trkpt lat="42.7282" lon="1.44998">
        <ele>1158.4</ele>
        <time>2020-08-05T09:56:46Z</time>
      </trkpt>
      <trkpt lat="42.72807" lon="1.44965">
        <ele>1158.6</ele>
        <time>2020-08-05T09:56:52Z</time>
      </trkpt>
      <trkpt lat="42.72794" lon="1.44924">
        <ele>1158.6</ele>
        <time>2020-08-05T09:56:59Z</time>
      </trkpt>
      <trkpt lat="42.72792" lon="1.44912">
        <ele>1158.8</ele>
        <time>2020-08-05T09:57:01Z</time>
      </trkpt>
      <trkpt lat="42.7279" lon="1.44892">
        <ele>1158.8</ele>
        <time>2020-08-05T09:57:04Z</time>
      </trkpt>
      <trkpt lat="42.72787" lon="1.44853">
        <ele>1158.8</ele>
        <time>2020-08-05T09:57:10Z</time>
      </trkpt>
      <trkpt lat="42.72786" lon="1.44847">
        <ele>1158.6</ele>
        <time>2020-08-05T09:57:11Z</time>
      </trkpt>
      <trkpt lat="42.72783" lon="1.44835">
        <ele>1158.8</ele>
        <time>2020-08-05T09:57:13Z</time>
      </trkpt>
      <trkpt lat="42.72777" lon="1.44825">
        <ele>1158.8</ele>
        <time>2020-08-05T09:57:15Z</time>
      </trkpt>
      <trkpt lat="42.72775" lon="1.4482">
        <ele>1158.8</ele>
        <time>2020-08-05T09:57:16Z</time>
      </trkpt>
      <trkpt lat="42.72772" lon="1.44806">
        <ele>1158.8</ele>
        <time>2020-08-05T09:57:18Z</time>
      </trkpt>
      <trkpt lat="42.72772" lon="1.44793">
        <ele>1158.8</ele>
        <time>2020-08-05T09:57:20Z</time>
      </trkpt>
      <trkpt lat="42.72774" lon="1.44773">
        <ele>1159</ele>
        <time>2020-08-05T09:57:23Z</time>
      </trkpt>
      <trkpt lat="42.72783" lon="1.44728">
        <ele>1158.8</ele>
        <time>2020-08-05T09:57:30Z</time>
      </trkpt>
      <trkpt lat="42.72784" lon="1.44722">
        <ele>1159</ele>
        <time>2020-08-05T09:57:31Z</time>
      </trkpt>
      <trkpt lat="42.72787" lon="1.44703">
        <ele>1159</ele>
        <time>2020-08-05T09:57:34Z</time>
      </trkpt>
      <trkpt lat="42.72789" lon="1.44698">
        <ele>1159</ele>
        <time>2020-08-05T09:57:35Z</time>
      </trkpt>
      <trkpt lat="42.72795" lon="1.44686">
        <ele>1159</ele>
        <time>2020-08-05T09:57:39Z</time>
      </trkpt>
      <trkpt lat="42.72795" lon="1.44686">
        <ele>1159.8</ele>
        <time>2020-08-05T09:57:43Z</time>
      </trkpt>
      <trkpt lat="42.728" lon="1.44683">
        <ele>1160.2</ele>
        <time>2020-08-05T09:57:49Z</time>
      </trkpt>
      <trkpt lat="42.72801" lon="1.44681">
        <ele>1160.2</ele>
        <time>2020-08-05T09:57:51Z</time>
      </trkpt>
      <trkpt lat="42.72798" lon="1.44675">
        <ele>1160.2</ele>
        <time>2020-08-05T09:57:53Z</time>
      </trkpt>
      <trkpt lat="42.72787" lon="1.44671">
        <ele>1160.4</ele>
        <time>2020-08-05T09:57:58Z</time>
      </trkpt>
      <trkpt lat="42.72784" lon="1.44672">
        <ele>1160.4</ele>
        <time>2020-08-05T09:57:59Z</time>
      </trkpt>
      <trkpt lat="42.72771" lon="1.44677">
        <ele>1160</ele>
        <time>2020-08-05T09:58:04Z</time>
      </trkpt>
      <trkpt lat="42.72764" lon="1.44689">
        <ele>1160</ele>
        <time>2020-08-05T09:58:08Z</time>
      </trkpt>
      <trkpt lat="42.72759" lon="1.44696">
        <ele>1159.4</ele>
        <time>2020-08-05T09:58:10Z</time>
      </trkpt>
      <trkpt lat="42.72756" lon="1.447">
        <ele>1159.2</ele>
        <time>2020-08-05T09:58:11Z</time>
      </trkpt>
      <trkpt lat="42.72744" lon="1.44705">
        <ele>1159.2</ele>
        <time>2020-08-05T09:58:14Z</time>
      </trkpt>
      <trkpt lat="42.72736" lon="1.44708">
        <ele>1159.2</ele>
        <time>2020-08-05T09:58:16Z</time>
      </trkpt>
      <trkpt lat="42.72731" lon="1.4471">
        <ele>1159</ele>
        <time>2020-08-05T09:58:17Z</time>
      </trkpt>
      <trkpt lat="42.72711" lon="1.4472">
        <ele>1159</ele>
        <time>2020-08-05T09:58:22Z</time>
      </trkpt>
      <trkpt lat="42.72707" lon="1.44722">
        <ele>1159</ele>
        <time>2020-08-05T09:58:23Z</time>
      </trkpt>
      <trkpt lat="42.72697" lon="1.44731">
        <ele>1159.2</ele>
        <time>2020-08-05T09:58:26Z</time>
      </trkpt>
      <trkpt lat="42.72681" lon="1.4475">
        <ele>1159.2</ele>
        <time>2020-08-05T09:58:31Z</time>
      </trkpt>
      <trkpt lat="42.72678" lon="1.44754">
        <ele>1159.4</ele>
        <time>2020-08-05T09:58:32Z</time>
      </trkpt>
      <trkpt lat="42.72665" lon="1.44774">
        <ele>1159.4</ele>
        <time>2020-08-05T09:58:37Z</time>
      </trkpt>
      <trkpt lat="42.72653" lon="1.44808">
        <ele>1159.6</ele>
        <time>2020-08-05T09:58:44Z</time>
      </trkpt>
      <trkpt lat="42.72646" lon="1.44821">
        <ele>1159.6</ele>
        <time>2020-08-05T09:58:47Z</time>
      </trkpt>
      <trkpt lat="42.72642" lon="1.44824">
        <ele>1159.6</ele>
        <time>2020-08-05T09:58:48Z</time>
      </trkpt>
      <trkpt lat="42.72629" lon="1.44834">
        <ele>1159.6</ele>
        <time>2020-08-05T09:58:51Z</time>
      </trkpt>
      <trkpt lat="42.72626" lon="1.44838">
        <ele>1159.6</ele>
        <time>2020-08-05T09:58:52Z</time>
      </trkpt>
      <trkpt lat="42.72622" lon="1.44841">
        <ele>1159.6</ele>
        <time>2020-08-05T09:58:53Z</time>
      </trkpt>
      <trkpt lat="42.72609" lon="1.44848">
        <ele>1159.6</ele>
        <time>2020-08-05T09:58:56Z</time>
      </trkpt>
      <trkpt lat="42.72604" lon="1.44851">
        <ele>1159.8</ele>
        <time>2020-08-05T09:58:57Z</time>
      </trkpt>
      <trkpt lat="42.726" lon="1.44853">
        <ele>1159.6</ele>
        <time>2020-08-05T09:58:58Z</time>
      </trkpt>
      <trkpt lat="42.72591" lon="1.44853">
        <ele>1159.8</ele>
        <time>2020-08-05T09:59:00Z</time>
      </trkpt>
      <trkpt lat="42.72573" lon="1.44848">
        <ele>1159.4</ele>
        <time>2020-08-05T09:59:04Z</time>
      </trkpt>
      <trkpt lat="42.72566" lon="1.44841">
        <ele>1159.8</ele>
        <time>2020-08-05T09:59:06Z</time>
      </trkpt>
      <trkpt lat="42.72561" lon="1.44833">
        <ele>1159.8</ele>
        <time>2020-08-05T09:59:08Z</time>
      </trkpt>
      <trkpt lat="42.72555" lon="1.44827">
        <ele>1159.8</ele>
        <time>2020-08-05T09:59:10Z</time>
      </trkpt>
      <trkpt lat="42.72548" lon="1.44825">
        <ele>1159.8</ele>
        <time>2020-08-05T09:59:12Z</time>
      </trkpt>
      <trkpt lat="42.72544" lon="1.44827">
        <ele>1159.8</ele>
        <time>2020-08-05T09:59:13Z</time>
      </trkpt>
      <trkpt lat="42.72528" lon="1.44831">
        <ele>1159.6</ele>
        <time>2020-08-05T09:59:17Z</time>
      </trkpt>
      <trkpt lat="42.72508" lon="1.44819">
        <ele>1159.8</ele>
        <time>2020-08-05T09:59:22Z</time>
      </trkpt>
      <trkpt lat="42.725" lon="1.44815">
        <ele>1159.8</ele>
        <time>2020-08-05T09:59:24Z</time>
      </trkpt>
      <trkpt lat="42.72486" lon="1.44811">
        <ele>1160</ele>
        <time>2020-08-05T09:59:27Z</time>
      </trkpt>
      <trkpt lat="42.72461" lon="1.44802">
        <ele>1160.2</ele>
        <time>2020-08-05T09:59:33Z</time>
      </trkpt>
      <trkpt lat="42.72442" lon="1.44795">
        <ele>1160.2</ele>
        <time>2020-08-05T09:59:37Z</time>
      </trkpt>
      <trkpt lat="42.72433" lon="1.44792">
        <ele>1160.2</ele>
        <time>2020-08-05T09:59:39Z</time>
      </trkpt>
      <trkpt lat="42.72419" lon="1.4479">
        <ele>1160.2</ele>
        <time>2020-08-05T09:59:42Z</time>
      </trkpt>
      <trkpt lat="42.72406" lon="1.44783">
        <ele>1160.2</ele>
        <time>2020-08-05T09:59:45Z</time>
      </trkpt>
      <trkpt lat="42.72383" lon="1.44771">
        <ele>1160.2</ele>
        <time>2020-08-05T09:59:50Z</time>
      </trkpt>
      <trkpt lat="42.72378" lon="1.44771">
        <ele>1160.2</ele>
        <time>2020-08-05T09:59:51Z</time>
      </trkpt>
      <trkpt lat="42.72365" lon="1.44761">
        <ele>1160</ele>
        <time>2020-08-05T09:59:54Z</time>
      </trkpt>
      <trkpt lat="42.72343" lon="1.44745">
        <ele>1160.4</ele>
        <time>2020-08-05T09:59:59Z</time>
      </trkpt>
      <trkpt lat="42.72338" lon="1.44745">
        <ele>1160.4</ele>
        <time>2020-08-05T10:00:00Z</time>
      </trkpt>
      <trkpt lat="42.72334" lon="1.44745">
        <ele>1160.4</ele>
        <time>2020-08-05T10:00:01Z</time>
      </trkpt>
      <trkpt lat="42.72325" lon="1.44741">
        <ele>1160.4</ele>
        <time>2020-08-05T10:00:03Z</time>
      </trkpt>
      <trkpt lat="42.72306" lon="1.44732">
        <ele>1160.6</ele>
        <time>2020-08-05T10:00:07Z</time>
      </trkpt>
      <trkpt lat="42.72297" lon="1.44725">
        <ele>1160.6</ele>
        <time>2020-08-05T10:00:09Z</time>
      </trkpt>
      <trkpt lat="42.7228" lon="1.44706">
        <ele>1160.6</ele>
        <time>2020-08-05T10:00:14Z</time>
      </trkpt>
      <trkpt lat="42.72267" lon="1.447">
        <ele>1160.6</ele>
        <time>2020-08-05T10:00:17Z</time>
      </trkpt>
      <trkpt lat="42.72258" lon="1.44696">
        <ele>1160.8</ele>
        <time>2020-08-05T10:00:19Z</time>
      </trkpt>
      <trkpt lat="42.72253" lon="1.44695">
        <ele>1160.8</ele>
        <time>2020-08-05T10:00:20Z</time>
      </trkpt>
      <trkpt lat="42.72243" lon="1.44695">
        <ele>1160.8</ele>
        <time>2020-08-05T10:00:22Z</time>
      </trkpt>
      <trkpt lat="42.72234" lon="1.44695">
        <ele>1161</ele>
        <time>2020-08-05T10:00:24Z</time>
      </trkpt>
      <trkpt lat="42.72225" lon="1.44692">
        <ele>1161</ele>
        <time>2020-08-05T10:00:26Z</time>
      </trkpt>
      <trkpt lat="42.72221" lon="1.44689">
        <ele>1161</ele>
        <time>2020-08-05T10:00:27Z</time>
      </trkpt>
      <trkpt lat="42.72208" lon="1.44671">
        <ele>1161.2</ele>
        <time>2020-08-05T10:00:31Z</time>
      </trkpt>
      <trkpt lat="42.72205" lon="1.44666">
        <ele>1161.4</ele>
        <time>2020-08-05T10:00:32Z</time>
      </trkpt>
      <trkpt lat="42.72188" lon="1.44657">
        <ele>1160.8</ele>
        <time>2020-08-05T10:00:36Z</time>
      </trkpt>
      <trkpt lat="42.72179" lon="1.44657">
        <ele>1160.8</ele>
        <time>2020-08-05T10:00:38Z</time>
      </trkpt>
      <trkpt lat="42.72175" lon="1.44657">
        <ele>1161</ele>
        <time>2020-08-05T10:00:39Z</time>
      </trkpt>
      <trkpt lat="42.72171" lon="1.44655">
        <ele>1161</ele>
        <time>2020-08-05T10:00:40Z</time>
      </trkpt>
      <trkpt lat="42.72142" lon="1.44642">
        <ele>1161.2</ele>
        <time>2020-08-05T10:00:47Z</time>
      </trkpt>
      <trkpt lat="42.72121" lon="1.44631">
        <ele>1161.2</ele>
        <time>2020-08-05T10:00:53Z</time>
      </trkpt>
      <trkpt lat="42.72105" lon="1.44626">
        <ele>1161.4</ele>
        <time>2020-08-05T10:00:58Z</time>
      </trkpt>
      <trkpt lat="42.72097" lon="1.44626">
        <ele>1161.4</ele>
        <time>2020-08-05T10:01:00Z</time>
      </trkpt>
      <trkpt lat="42.72088" lon="1.44624">
        <ele>1161.4</ele>
        <time>2020-08-05T10:01:02Z</time>
      </trkpt>
      <trkpt lat="42.72083" lon="1.44622">
        <ele>1161.4</ele>
        <time>2020-08-05T10:01:03Z</time>
      </trkpt>
      <trkpt lat="42.7207" lon="1.44613">
        <ele>1161.6</ele>
        <time>2020-08-05T10:01:07Z</time>
      </trkpt>
      <trkpt lat="42.7206" lon="1.44615">
        <ele>1161.6</ele>
        <time>2020-08-05T10:01:11Z</time>
      </trkpt>
      <trkpt lat="42.72053" lon="1.44633">
        <ele>1161.6</ele>
        <time>2020-08-05T10:01:15Z</time>
      </trkpt>
      <trkpt lat="42.7205" lon="1.44636">
        <ele>1161.6</ele>
        <time>2020-08-05T10:01:16Z</time>
      </trkpt>
      <trkpt lat="42.72041" lon="1.44642">
        <ele>1161.6</ele>
        <time>2020-08-05T10:01:19Z</time>
      </trkpt>
      <trkpt lat="42.7204" lon="1.44642">
        <ele>1161.6</ele>
        <time>2020-08-05T10:01:22Z</time>
      </trkpt>
      <trkpt lat="42.7204" lon="1.44642">
        <ele>1161.4</ele>
        <time>2020-08-05T10:01:32Z</time>
      </trkpt>
      <trkpt lat="42.7204" lon="1.44642">
        <ele>1161.4</ele>
        <time>2020-08-05T10:01:43Z</time>
      </trkpt>
      <trkpt lat="42.7204" lon="1.44642">
        <ele>1161.4</ele>
        <time>2020-08-05T10:01:55Z</time>
      </trkpt>
      <trkpt lat="42.7204" lon="1.44642">
        <ele>1161.4</ele>
        <time>2020-08-05T10:02:07Z</time>
      </trkpt>
      <trkpt lat="42.7204" lon="1.44642">
        <ele>1161.6</ele>
        <time>2020-08-05T10:02:16Z</time>
      </trkpt>
      <trkpt lat="42.72035" lon="1.44645">
        <ele>1161.6</ele>
        <time>2020-08-05T10:02:21Z</time>
      </trkpt>
      <trkpt lat="42.72028" lon="1.4465">
        <ele>1161.6</ele>
        <time>2020-08-05T10:02:24Z</time>
      </trkpt>
      <trkpt lat="42.72026" lon="1.44654">
        <ele>1161.6</ele>
        <time>2020-08-05T10:02:25Z</time>
      </trkpt>
      <trkpt lat="42.72017" lon="1.44666">
        <ele>1161.6</ele>
        <time>2020-08-05T10:02:29Z</time>
      </trkpt>
      <trkpt lat="42.72014" lon="1.44668">
        <ele>1161.8</ele>
        <time>2020-08-05T10:02:30Z</time>
      </trkpt>
      <trkpt lat="42.72005" lon="1.44671">
        <ele>1161.8</ele>
        <time>2020-08-05T10:02:33Z</time>
      </trkpt>
      <trkpt lat="42.71998" lon="1.44672">
        <ele>1162</ele>
        <time>2020-08-05T10:02:35Z</time>
      </trkpt>
      <trkpt lat="42.71974" lon="1.44671">
        <ele>1161.8</ele>
        <time>2020-08-05T10:02:41Z</time>
      </trkpt>
      <trkpt lat="42.71963" lon="1.44677">
        <ele>1162</ele>
        <time>2020-08-05T10:02:44Z</time>
      </trkpt>
      <trkpt lat="42.7196" lon="1.44681">
        <ele>1162</ele>
        <time>2020-08-05T10:02:45Z</time>
      </trkpt>
      <trkpt lat="42.71942" lon="1.44697">
        <ele>1162</ele>
        <time>2020-08-05T10:02:51Z</time>
      </trkpt>
      <trkpt lat="42.7193" lon="1.44698">
        <ele>1162.4</ele>
        <time>2020-08-05T10:02:56Z</time>
      </trkpt>
      <trkpt lat="42.71927" lon="1.44696">
        <ele>1162.4</ele>
        <time>2020-08-05T10:02:59Z</time>
      </trkpt>
      <trkpt lat="42.71925" lon="1.44694">
        <ele>1162.4</ele>
        <time>2020-08-05T10:03:00Z</time>
      </trkpt>
      <trkpt lat="42.7192" lon="1.44685">
        <ele>1162</ele>
        <time>2020-08-05T10:03:05Z</time>
      </trkpt>
      <trkpt lat="42.7192" lon="1.44684">
        <ele>1162</ele>
        <time>2020-08-05T10:03:06Z</time>
      </trkpt>
      <trkpt lat="42.71917" lon="1.44675">
        <ele>1162</ele>
        <time>2020-08-05T10:03:12Z</time>
      </trkpt>
      <trkpt lat="42.71917" lon="1.44671">
        <ele>1161.2</ele>
        <time>2020-08-05T10:03:17Z</time>
      </trkpt>
      <trkpt lat="42.71917" lon="1.44669">
        <ele>1161</ele>
        <time>2020-08-05T10:03:23Z</time>
      </trkpt>
      <trkpt lat="42.71917" lon="1.44669">
        <ele>1161</ele>
        <time>2020-08-05T10:03:35Z</time>
      </trkpt>
      <trkpt lat="42.71918" lon="1.44669">
        <ele>1161.2</ele>
        <time>2020-08-05T10:03:40Z</time>
      </trkpt>
      <trkpt lat="42.71918" lon="1.44669">
        <ele>1161.2</ele>
        <time>2020-08-05T10:03:52Z</time>
      </trkpt>
      <trkpt lat="42.71918" lon="1.44669">
        <ele>1161</ele>
        <time>2020-08-05T10:04:05Z</time>
      </trkpt>
      <trkpt lat="42.71918" lon="1.44669">
        <ele>1161</ele>
        <time>2020-08-05T10:04:16Z</time>
      </trkpt>
      <trkpt lat="42.71918" lon="1.44669">
        <ele>1161.2</ele>
        <time>2020-08-05T10:04:18Z</time>
      </trkpt>
      <trkpt lat="42.71918" lon="1.44669">
        <ele>1161</ele>
        <time>2020-08-05T10:04:26Z</time>
      </trkpt>
      <trkpt lat="42.71918" lon="1.44669">
        <ele>1161.2</ele>
        <time>2020-08-05T10:04:35Z</time>
      </trkpt>
      <trkpt lat="42.71918" lon="1.44669">
        <ele>1161.2</ele>
        <time>2020-08-05T10:04:47Z</time>
      </trkpt>
      <trkpt lat="42.71918" lon="1.44668">
        <ele>1161.2</ele>
        <time>2020-08-05T10:04:59Z</time>
      </trkpt>
      <trkpt lat="42.71918" lon="1.44668">
        <ele>1161</ele>
        <time>2020-08-05T10:05:11Z</time>
      </trkpt>
      <trkpt lat="42.71918" lon="1.44668">
        <ele>1161</ele>
        <time>2020-08-05T10:05:21Z</time>
      </trkpt>
      <trkpt lat="42.71918" lon="1.44668">
        <ele>1161</ele>
        <time>2020-08-05T10:05:28Z</time>
      </trkpt>
      <trkpt lat="42.71918" lon="1.44668">
        <ele>1161</ele>
        <time>2020-08-05T10:05:32Z</time>
      </trkpt>
      <trkpt lat="42.71918" lon="1.44668">
        <ele>1161</ele>
        <time>2020-08-05T10:05:45Z</time>
      </trkpt>
      <trkpt lat="42.71918" lon="1.44668">
        <ele>1161.2</ele>
        <time>2020-08-05T10:06:01Z</time>
      </trkpt>
      <trkpt lat="42.71918" lon="1.44668">
        <ele>1161.2</ele>
        <time>2020-08-05T10:06:16Z</time>
      </trkpt>
      <trkpt lat="42.71917" lon="1.44669">
        <ele>1161.2</ele>
        <time>2020-08-05T10:06:26Z</time>
      </trkpt>
      <trkpt lat="42.71916" lon="1.44669">
        <ele>1161.4</ele>
        <time>2020-08-05T10:06:27Z</time>
      </trkpt>
      <trkpt lat="42.71916" lon="1.44669">
        <ele>1161.2</ele>
        <time>2020-08-05T10:06:35Z</time>
      </trkpt>
      <trkpt lat="42.71916" lon="1.44669">
        <ele>1161.2</ele>
        <time>2020-08-05T10:06:44Z</time>
      </trkpt>
      <trkpt lat="42.71916" lon="1.44669">
        <ele>1161.2</ele>
        <time>2020-08-05T10:06:50Z</time>
      </trkpt>
      <trkpt lat="42.71916" lon="1.44669">
        <ele>1161</ele>
        <time>2020-08-05T10:06:52Z</time>
      </trkpt>
      <trkpt lat="42.71917" lon="1.44665">
        <ele>1161.2</ele>
        <time>2020-08-05T10:06:56Z</time>
      </trkpt>
      <trkpt lat="42.71918" lon="1.44662">
        <ele>1161.6</ele>
        <time>2020-08-05T10:06:59Z</time>
      </trkpt>
      <trkpt lat="42.71918" lon="1.44658">
        <ele>1161.6</ele>
        <time>2020-08-05T10:07:02Z</time>
      </trkpt>
      <trkpt lat="42.71918" lon="1.44654">
        <ele>1161.6</ele>
        <time>2020-08-05T10:07:05Z</time>
      </trkpt>
      <trkpt lat="42.7192" lon="1.44649">
        <ele>1161.6</ele>
        <time>2020-08-05T10:07:07Z</time>
      </trkpt>
      <trkpt lat="42.71921" lon="1.44634">
        <ele>1162</ele>
        <time>2020-08-05T10:07:13Z</time>
      </trkpt>
      <trkpt lat="42.71923" lon="1.44619">
        <ele>1162.4</ele>
        <time>2020-08-05T10:07:18Z</time>
      </trkpt>
      <trkpt lat="42.71923" lon="1.44616">
        <ele>1162.6</ele>
        <time>2020-08-05T10:07:19Z</time>
      </trkpt>
      <trkpt lat="42.71923" lon="1.44595">
        <ele>1162.2</ele>
        <time>2020-08-05T10:07:25Z</time>
      </trkpt>
      <trkpt lat="42.7192" lon="1.4457">
        <ele>1162.4</ele>
        <time>2020-08-05T10:07:32Z</time>
      </trkpt>
      <trkpt lat="42.71919" lon="1.44556">
        <ele>1162.8</ele>
        <time>2020-08-05T10:07:37Z</time>
      </trkpt>
      <trkpt lat="42.71915" lon="1.44543">
        <ele>1162.2</ele>
        <time>2020-08-05T10:07:42Z</time>
      </trkpt>
      <trkpt lat="42.71915" lon="1.44536">
        <ele>1162.2</ele>
        <time>2020-08-05T10:07:46Z</time>
      </trkpt>
      <trkpt lat="42.71914" lon="1.44533">
        <ele>1162.2</ele>
        <time>2020-08-05T10:07:47Z</time>
      </trkpt>
      <trkpt lat="42.71912" lon="1.44523">
        <ele>1162.2</ele>
        <time>2020-08-05T10:07:50Z</time>
      </trkpt>
      <trkpt lat="42.71909" lon="1.44511">
        <ele>1162.2</ele>
        <time>2020-08-05T10:07:54Z</time>
      </trkpt>
      <trkpt lat="42.71906" lon="1.44501">
        <ele>1162</ele>
        <time>2020-08-05T10:07:59Z</time>
      </trkpt>
      <trkpt lat="42.71905" lon="1.44498">
        <ele>1162.2</ele>
        <time>2020-08-05T10:08:03Z</time>
      </trkpt>
      <trkpt lat="42.71901" lon="1.44477">
        <ele>1162.2</ele>
        <time>2020-08-05T10:08:09Z</time>
      </trkpt>
      <trkpt lat="42.71903" lon="1.44456">
        <ele>1162.2</ele>
        <time>2020-08-05T10:08:15Z</time>
      </trkpt>
      <trkpt lat="42.71902" lon="1.44454">
        <ele>1162.4</ele>
        <time>2020-08-05T10:08:16Z</time>
      </trkpt>
      <trkpt lat="42.71902" lon="1.44451">
        <ele>1162.4</ele>
        <time>2020-08-05T10:08:19Z</time>
      </trkpt>
      <trkpt lat="42.71902" lon="1.44455">
        <ele>1162.4</ele>
        <time>2020-08-05T10:08:24Z</time>
      </trkpt>
      <trkpt lat="42.71903" lon="1.44459">
        <ele>1162.2</ele>
        <time>2020-08-05T10:08:26Z</time>
      </trkpt>
      <trkpt lat="42.71902" lon="1.44472">
        <ele>1162</ele>
        <time>2020-08-05T10:08:30Z</time>
      </trkpt>
      <trkpt lat="42.71902" lon="1.44474">
        <ele>1162</ele>
        <time>2020-08-05T10:08:31Z</time>
      </trkpt>
      <trkpt lat="42.71905" lon="1.44494">
        <ele>1162.2</ele>
        <time>2020-08-05T10:08:38Z</time>
      </trkpt>
      <trkpt lat="42.71909" lon="1.44515">
        <ele>1162.6</ele>
        <time>2020-08-05T10:08:45Z</time>
      </trkpt>
      <trkpt lat="42.71914" lon="1.44534">
        <ele>1162.2</ele>
        <time>2020-08-05T10:08:52Z</time>
      </trkpt>
      <trkpt lat="42.71915" lon="1.44545">
        <ele>1162.4</ele>
        <time>2020-08-05T10:08:56Z</time>
      </trkpt>
      <trkpt lat="42.71916" lon="1.44547">
        <ele>1162.4</ele>
        <time>2020-08-05T10:08:57Z</time>
      </trkpt>
      <trkpt lat="42.71921" lon="1.44563">
        <ele>1163</ele>
        <time>2020-08-05T10:09:04Z</time>
      </trkpt>
      <trkpt lat="42.7192" lon="1.44565">
        <ele>1163</ele>
        <time>2020-08-05T10:09:08Z</time>
      </trkpt>
      <trkpt lat="42.7192" lon="1.44565">
        <ele>1163</ele>
        <time>2020-08-05T10:09:20Z</time>
      </trkpt>
      <trkpt lat="42.7192" lon="1.44565">
        <ele>1163.2</ele>
        <time>2020-08-05T10:09:29Z</time>
      </trkpt>
      <trkpt lat="42.7192" lon="1.44565">
        <ele>1163.2</ele>
        <time>2020-08-05T10:09:39Z</time>
      </trkpt>
      <trkpt lat="42.7192" lon="1.44565">
        <ele>1163</ele>
        <time>2020-08-05T10:09:52Z</time>
      </trkpt>
      <trkpt lat="42.7192" lon="1.44565">
        <ele>1163</ele>
        <time>2020-08-05T10:10:14Z</time>
      </trkpt>
      <trkpt lat="42.71919" lon="1.44565">
        <ele>1163</ele>
        <time>2020-08-05T10:10:36Z</time>
      </trkpt>
      <trkpt lat="42.71919" lon="1.44565">
        <ele>1163</ele>
        <time>2020-08-05T10:10:51Z</time>
      </trkpt>
      <trkpt lat="42.71919" lon="1.44563">
        <ele>1163</ele>
        <time>2020-08-05T10:11:04Z</time>
      </trkpt>
      <trkpt lat="42.71915" lon="1.44546">
        <ele>1162.8</ele>
        <time>2020-08-05T10:11:09Z</time>
      </trkpt>
      <trkpt lat="42.71912" lon="1.44536">
        <ele>1162.6</ele>
        <time>2020-08-05T10:11:11Z</time>
      </trkpt>
      <trkpt lat="42.71907" lon="1.44525">
        <ele>1161.4</ele>
        <time>2020-08-05T10:11:13Z</time>
      </trkpt>
      <trkpt lat="42.719" lon="1.4451">
        <ele>1159.8</ele>
        <time>2020-08-05T10:11:15Z</time>
      </trkpt>
      <trkpt lat="42.71894" lon="1.44496">
        <ele>1158.4</ele>
        <time>2020-08-05T10:11:17Z</time>
      </trkpt>
      <trkpt lat="42.71891" lon="1.44485">
        <ele>1157</ele>
        <time>2020-08-05T10:11:19Z</time>
      </trkpt>
      <trkpt lat="42.71888" lon="1.44474">
        <ele>1155.8</ele>
        <time>2020-08-05T10:11:21Z</time>
      </trkpt>
      <trkpt lat="42.71887" lon="1.44468">
        <ele>1155.4</ele>
        <time>2020-08-05T10:11:22Z</time>
      </trkpt>
      <trkpt lat="42.71887" lon="1.44461">
        <ele>1154.8</ele>
        <time>2020-08-05T10:11:24Z</time>
      </trkpt>
      <trkpt lat="42.71885" lon="1.44455">
        <ele>1154.6</ele>
        <time>2020-08-05T10:11:26Z</time>
      </trkpt>
      <trkpt lat="42.71882" lon="1.44451">
        <ele>1153.6</ele>
        <time>2020-08-05T10:11:30Z</time>
      </trkpt>
      <trkpt lat="42.71882" lon="1.44447">
        <ele>1153</ele>
        <time>2020-08-05T10:11:33Z</time>
      </trkpt>
      <trkpt lat="42.71882" lon="1.44444">
        <ele>1152.6</ele>
        <time>2020-08-05T10:11:34Z</time>
      </trkpt>
      <trkpt lat="42.71881" lon="1.44439">
        <ele>1151.2</ele>
        <time>2020-08-05T10:11:37Z</time>
      </trkpt>
      <trkpt lat="42.7188" lon="1.44436">
        <ele>1150.8</ele>
        <time>2020-08-05T10:11:38Z</time>
      </trkpt>
      <trkpt lat="42.71877" lon="1.4443">
        <ele>1149.8</ele>
        <time>2020-08-05T10:11:40Z</time>
      </trkpt>
      <trkpt lat="42.71877" lon="1.44424">
        <ele>1149.2</ele>
        <time>2020-08-05T10:11:42Z</time>
      </trkpt>
      <trkpt lat="42.71877" lon="1.4442">
        <ele>1148.4</ele>
        <time>2020-08-05T10:11:44Z</time>
      </trkpt>
      <trkpt lat="42.71877" lon="1.44417">
        <ele>1147.8</ele>
        <time>2020-08-05T10:11:45Z</time>
      </trkpt>
      <trkpt lat="42.71875" lon="1.44415">
        <ele>1146.8</ele>
        <time>2020-08-05T10:11:46Z</time>
      </trkpt>
      <trkpt lat="42.71874" lon="1.44413">
        <ele>1145.8</ele>
        <time>2020-08-05T10:11:47Z</time>
      </trkpt>
      <trkpt lat="42.71871" lon="1.4441">
        <ele>1144</ele>
        <time>2020-08-05T10:11:49Z</time>
      </trkpt>
      <trkpt lat="42.71868" lon="1.4441">
        <ele>1142.4</ele>
        <time>2020-08-05T10:11:51Z</time>
      </trkpt>
      <trkpt lat="42.71867" lon="1.4441">
        <ele>1141.6</ele>
        <time>2020-08-05T10:11:52Z</time>
      </trkpt>
      <trkpt lat="42.71867" lon="1.4441">
        <ele>1141.2</ele>
        <time>2020-08-05T10:11:53Z</time>
      </trkpt>
      <trkpt lat="42.71867" lon="1.44413">
        <ele>1140.8</ele>
        <time>2020-08-05T10:11:57Z</time>
      </trkpt>
      <trkpt lat="42.71866" lon="1.44415">
        <ele>1140.2</ele>
        <time>2020-08-05T10:11:58Z</time>
      </trkpt>
      <trkpt lat="42.71864" lon="1.4442">
        <ele>1138.4</ele>
        <time>2020-08-05T10:12:00Z</time>
      </trkpt>
      <trkpt lat="42.71863" lon="1.44421">
        <ele>1137.2</ele>
        <time>2020-08-05T10:12:01Z</time>
      </trkpt>
      <trkpt lat="42.71862" lon="1.44425">
        <ele>1136</ele>
        <time>2020-08-05T10:12:03Z</time>
      </trkpt>
      <trkpt lat="42.7186" lon="1.4443">
        <ele>1134.2</ele>
        <time>2020-08-05T10:12:05Z</time>
      </trkpt>
      <trkpt lat="42.71858" lon="1.44431">
        <ele>1133.6</ele>
        <time>2020-08-05T10:12:06Z</time>
      </trkpt>
      <trkpt lat="42.71856" lon="1.44432">
        <ele>1132.8</ele>
        <time>2020-08-05T10:12:07Z</time>
      </trkpt>
      <trkpt lat="42.71854" lon="1.44434">
        <ele>1132.2</ele>
        <time>2020-08-05T10:12:08Z</time>
      </trkpt>
      <trkpt lat="42.71852" lon="1.44434">
        <ele>1131.4</ele>
        <time>2020-08-05T10:12:09Z</time>
      </trkpt>
      <trkpt lat="42.71847" lon="1.44433">
        <ele>1129.8</ele>
        <time>2020-08-05T10:12:11Z</time>
      </trkpt>
      <trkpt lat="42.71842" lon="1.44432">
        <ele>1128.6</ele>
        <time>2020-08-05T10:12:13Z</time>
      </trkpt>
      <trkpt lat="42.71833" lon="1.44426">
        <ele>1127.4</ele>
        <time>2020-08-05T10:12:16Z</time>
      </trkpt>
      <trkpt lat="42.71831" lon="1.44424">
        <ele>1126.6</ele>
        <time>2020-08-05T10:12:17Z</time>
      </trkpt>
      <trkpt lat="42.71829" lon="1.44422">
        <ele>1126</ele>
        <time>2020-08-05T10:12:18Z</time>
      </trkpt>
      <trkpt lat="42.71826" lon="1.44419">
        <ele>1124.8</ele>
        <time>2020-08-05T10:12:21Z</time>
      </trkpt>
      <trkpt lat="42.71823" lon="1.44419">
        <ele>1124.8</ele>
        <time>2020-08-05T10:12:22Z</time>
      </trkpt>
      <trkpt lat="42.71822" lon="1.44418">
        <ele>1124.2</ele>
        <time>2020-08-05T10:12:29Z</time>
      </trkpt>
      <trkpt lat="42.71822" lon="1.44418">
        <ele>1124.4</ele>
        <time>2020-08-05T10:12:34Z</time>
      </trkpt>
      <trkpt lat="42.71822" lon="1.44418">
        <ele>1124.4</ele>
        <time>2020-08-05T10:12:45Z</time>
      </trkpt>
      <trkpt lat="42.71822" lon="1.44418">
        <ele>1124.4</ele>
        <time>2020-08-05T10:13:04Z</time>
      </trkpt>
      <trkpt lat="42.71819" lon="1.4442">
        <ele>1124</ele>
        <time>2020-08-05T10:13:08Z</time>
      </trkpt>
      <trkpt lat="42.71819" lon="1.44422">
        <ele>1123.4</ele>
        <time>2020-08-05T10:13:09Z</time>
      </trkpt>
      <trkpt lat="42.71819" lon="1.44424">
        <ele>1123</ele>
        <time>2020-08-05T10:13:10Z</time>
      </trkpt>
      <trkpt lat="42.71819" lon="1.44436">
        <ele>1122.2</ele>
        <time>2020-08-05T10:13:13Z</time>
      </trkpt>
      <trkpt lat="42.71818" lon="1.44439">
        <ele>1121.8</ele>
        <time>2020-08-05T10:13:14Z</time>
      </trkpt>
      <trkpt lat="42.71816" lon="1.44448">
        <ele>1120.6</ele>
        <time>2020-08-05T10:13:16Z</time>
      </trkpt>
      <trkpt lat="42.71814" lon="1.44458">
        <ele>1119.8</ele>
        <time>2020-08-05T10:13:18Z</time>
      </trkpt>
      <trkpt lat="42.71814" lon="1.44462">
        <ele>1119.6</ele>
        <time>2020-08-05T10:13:19Z</time>
      </trkpt>
      <trkpt lat="42.71813" lon="1.44473">
        <ele>1118.6</ele>
        <time>2020-08-05T10:13:22Z</time>
      </trkpt>
      <trkpt lat="42.71812" lon="1.44478">
        <ele>1118.2</ele>
        <time>2020-08-05T10:13:23Z</time>
      </trkpt>
      <trkpt lat="42.71808" lon="1.44485">
        <ele>1116.6</ele>
        <time>2020-08-05T10:13:25Z</time>
      </trkpt>
      <trkpt lat="42.71806" lon="1.44488">
        <ele>1115.6</ele>
        <time>2020-08-05T10:13:26Z</time>
      </trkpt>
      <trkpt lat="42.71807" lon="1.44498">
        <ele>1114.4</ele>
        <time>2020-08-05T10:13:28Z</time>
      </trkpt>
      <trkpt lat="42.71808" lon="1.44505">
        <ele>1114.2</ele>
        <time>2020-08-05T10:13:29Z</time>
      </trkpt>
      <trkpt lat="42.71808" lon="1.44512">
        <ele>1113.6</ele>
        <time>2020-08-05T10:13:30Z</time>
      </trkpt>
      <trkpt lat="42.71809" lon="1.44519">
        <ele>1113.4</ele>
        <time>2020-08-05T10:13:31Z</time>
      </trkpt>
      <trkpt lat="42.71809" lon="1.44525">
        <ele>1113.2</ele>
        <time>2020-08-05T10:13:32Z</time>
      </trkpt>
      <trkpt lat="42.71815" lon="1.4455">
        <ele>1113</ele>
        <time>2020-08-05T10:13:37Z</time>
      </trkpt>
      <trkpt lat="42.71819" lon="1.44578">
        <ele>1112.2</ele>
        <time>2020-08-05T10:13:42Z</time>
      </trkpt>
      <trkpt lat="42.71821" lon="1.44583">
        <ele>1111.6</ele>
        <time>2020-08-05T10:13:43Z</time>
      </trkpt>
      <trkpt lat="42.71822" lon="1.4459">
        <ele>1111</ele>
        <time>2020-08-05T10:13:44Z</time>
      </trkpt>
      <trkpt lat="42.71826" lon="1.44599">
        <ele>1110.2</ele>
        <time>2020-08-05T10:13:46Z</time>
      </trkpt>
      <trkpt lat="42.71827" lon="1.44603">
        <ele>1109.4</ele>
        <time>2020-08-05T10:13:47Z</time>
      </trkpt>
      <trkpt lat="42.71826" lon="1.4461">
        <ele>1108.2</ele>
        <time>2020-08-05T10:13:49Z</time>
      </trkpt>
      <trkpt lat="42.71826" lon="1.44614">
        <ele>1107.8</ele>
        <time>2020-08-05T10:13:50Z</time>
      </trkpt>
      <trkpt lat="42.71825" lon="1.44618">
        <ele>1107</ele>
        <time>2020-08-05T10:13:51Z</time>
      </trkpt>
      <trkpt lat="42.71821" lon="1.44625">
        <ele>1105.6</ele>
        <time>2020-08-05T10:13:53Z</time>
      </trkpt>
      <trkpt lat="42.7182" lon="1.44628">
        <ele>1105</ele>
        <time>2020-08-05T10:13:54Z</time>
      </trkpt>
      <trkpt lat="42.71819" lon="1.4463">
        <ele>1104.4</ele>
        <time>2020-08-05T10:13:55Z</time>
      </trkpt>
      <trkpt lat="42.71816" lon="1.44635">
        <ele>1103.2</ele>
        <time>2020-08-05T10:13:58Z</time>
      </trkpt>
      <trkpt lat="42.71816" lon="1.44635">
        <ele>1103</ele>
        <time>2020-08-05T10:13:59Z</time>
      </trkpt>
      <trkpt lat="42.71815" lon="1.44636">
        <ele>1103.2</ele>
        <time>2020-08-05T10:14:08Z</time>
      </trkpt>
      <trkpt lat="42.71815" lon="1.44636">
        <ele>1103.2</ele>
        <time>2020-08-05T10:14:14Z</time>
      </trkpt>
      <trkpt lat="42.71814" lon="1.44638">
        <ele>1103.2</ele>
        <time>2020-08-05T10:14:19Z</time>
      </trkpt>
      <trkpt lat="42.71813" lon="1.44639">
        <ele>1103</ele>
        <time>2020-08-05T10:14:20Z</time>
      </trkpt>
      <trkpt lat="42.71811" lon="1.44644">
        <ele>1102</ele>
        <time>2020-08-05T10:14:22Z</time>
      </trkpt>
      <trkpt lat="42.71809" lon="1.44647">
        <ele>1100.4</ele>
        <time>2020-08-05T10:14:24Z</time>
      </trkpt>
      <trkpt lat="42.71808" lon="1.44649">
        <ele>1098.8</ele>
        <time>2020-08-05T10:14:25Z</time>
      </trkpt>
      <trkpt lat="42.71805" lon="1.44653">
        <ele>1097</ele>
        <time>2020-08-05T10:14:27Z</time>
      </trkpt>
      <trkpt lat="42.71802" lon="1.44657">
        <ele>1095.4</ele>
        <time>2020-08-05T10:14:29Z</time>
      </trkpt>
      <trkpt lat="42.71801" lon="1.4466">
        <ele>1094.4</ele>
        <time>2020-08-05T10:14:30Z</time>
      </trkpt>
      <trkpt lat="42.718" lon="1.44662">
        <ele>1093.4</ele>
        <time>2020-08-05T10:14:31Z</time>
      </trkpt>
      <trkpt lat="42.71798" lon="1.44663">
        <ele>1092.6</ele>
        <time>2020-08-05T10:14:32Z</time>
      </trkpt>
      <trkpt lat="42.71796" lon="1.44664">
        <ele>1091.6</ele>
        <time>2020-08-05T10:14:33Z</time>
      </trkpt>
      <trkpt lat="42.71794" lon="1.44665">
        <ele>1090.8</ele>
        <time>2020-08-05T10:14:34Z</time>
      </trkpt>
      <trkpt lat="42.71795" lon="1.44665">
        <ele>1090</ele>
        <time>2020-08-05T10:14:35Z</time>
      </trkpt>
      <trkpt lat="42.71795" lon="1.44667">
        <ele>1089.8</ele>
        <time>2020-08-05T10:14:36Z</time>
      </trkpt>
      <trkpt lat="42.71796" lon="1.44671">
        <ele>1089.4</ele>
        <time>2020-08-05T10:14:37Z</time>
      </trkpt>
      <trkpt lat="42.71796" lon="1.44675">
        <ele>1088.6</ele>
        <time>2020-08-05T10:14:38Z</time>
      </trkpt>
      <trkpt lat="42.71799" lon="1.44683">
        <ele>1087.6</ele>
        <time>2020-08-05T10:14:40Z</time>
      </trkpt>
      <trkpt lat="42.71799" lon="1.44688">
        <ele>1087.2</ele>
        <time>2020-08-05T10:14:41Z</time>
      </trkpt>
      <trkpt lat="42.718" lon="1.44701">
        <ele>1086.4</ele>
        <time>2020-08-05T10:14:43Z</time>
      </trkpt>
      <trkpt lat="42.71802" lon="1.44714">
        <ele>1085.2</ele>
        <time>2020-08-05T10:14:45Z</time>
      </trkpt>
      <trkpt lat="42.71803" lon="1.44721">
        <ele>1084.8</ele>
        <time>2020-08-05T10:14:46Z</time>
      </trkpt>
      <trkpt lat="42.71804" lon="1.44728">
        <ele>1084</ele>
        <time>2020-08-05T10:14:47Z</time>
      </trkpt>
      <trkpt lat="42.71805" lon="1.44737">
        <ele>1082.8</ele>
        <time>2020-08-05T10:14:49Z</time>
      </trkpt>
      <trkpt lat="42.71806" lon="1.4474">
        <ele>1082.4</ele>
        <time>2020-08-05T10:14:50Z</time>
      </trkpt>
      <trkpt lat="42.71805" lon="1.44741">
        <ele>1082.2</ele>
        <time>2020-08-05T10:14:52Z</time>
      </trkpt>
      <trkpt lat="42.71804" lon="1.44739">
        <ele>1081.8</ele>
        <time>2020-08-05T10:14:53Z</time>
      </trkpt>
      <trkpt lat="42.71804" lon="1.44737">
        <ele>1081.4</ele>
        <time>2020-08-05T10:14:54Z</time>
      </trkpt>
      <trkpt lat="42.718" lon="1.44735">
        <ele>1080.2</ele>
        <time>2020-08-05T10:14:56Z</time>
      </trkpt>
      <trkpt lat="42.71799" lon="1.44744">
        <ele>1079</ele>
        <time>2020-08-05T10:14:58Z</time>
      </trkpt>
      <trkpt lat="42.71798" lon="1.44749">
        <ele>1078.2</ele>
        <time>2020-08-05T10:14:59Z</time>
      </trkpt>
      <trkpt lat="42.71797" lon="1.44755">
        <ele>1077</ele>
        <time>2020-08-05T10:15:00Z</time>
      </trkpt>
      <trkpt lat="42.71795" lon="1.44766">
        <ele>1075.2</ele>
        <time>2020-08-05T10:15:02Z</time>
      </trkpt>
      <trkpt lat="42.71793" lon="1.44772">
        <ele>1074.2</ele>
        <time>2020-08-05T10:15:03Z</time>
      </trkpt>
      <trkpt lat="42.71791" lon="1.44778">
        <ele>1072.6</ele>
        <time>2020-08-05T10:15:04Z</time>
      </trkpt>
      <trkpt lat="42.71787" lon="1.44783">
        <ele>1071.6</ele>
        <time>2020-08-05T10:15:05Z</time>
      </trkpt>
      <trkpt lat="42.71779" lon="1.44791">
        <ele>1069.8</ele>
        <time>2020-08-05T10:15:07Z</time>
      </trkpt>
      <trkpt lat="42.71773" lon="1.44798">
        <ele>1067.8</ele>
        <time>2020-08-05T10:15:09Z</time>
      </trkpt>
      <trkpt lat="42.71771" lon="1.44808">
        <ele>1066.2</ele>
        <time>2020-08-05T10:15:11Z</time>
      </trkpt>
      <trkpt lat="42.71771" lon="1.4482">
        <ele>1063.8</ele>
        <time>2020-08-05T10:15:13Z</time>
      </trkpt>
      <trkpt lat="42.71771" lon="1.4483">
        <ele>1061.6</ele>
        <time>2020-08-05T10:15:15Z</time>
      </trkpt>
      <trkpt lat="42.71768" lon="1.44834">
        <ele>1060</ele>
        <time>2020-08-05T10:15:16Z</time>
      </trkpt>
      <trkpt lat="42.71766" lon="1.44833">
        <ele>1059</ele>
        <time>2020-08-05T10:15:17Z</time>
      </trkpt>
      <trkpt lat="42.71764" lon="1.44831">
        <ele>1058.6</ele>
        <time>2020-08-05T10:15:18Z</time>
      </trkpt>
      <trkpt lat="42.71757" lon="1.44819">
        <ele>1057.4</ele>
        <time>2020-08-05T10:15:21Z</time>
      </trkpt>
      <trkpt lat="42.71754" lon="1.44814">
        <ele>1056.6</ele>
        <time>2020-08-05T10:15:22Z</time>
      </trkpt>
      <trkpt lat="42.71751" lon="1.4481">
        <ele>1055.6</ele>
        <time>2020-08-05T10:15:24Z</time>
      </trkpt>
      <trkpt lat="42.71749" lon="1.44802">
        <ele>1054</ele>
        <time>2020-08-05T10:15:26Z</time>
      </trkpt>
      <trkpt lat="42.71748" lon="1.44801">
        <ele>1053.4</ele>
        <time>2020-08-05T10:15:27Z</time>
      </trkpt>
      <trkpt lat="42.71747" lon="1.44803">
        <ele>1052.6</ele>
        <time>2020-08-05T10:15:28Z</time>
      </trkpt>
      <trkpt lat="42.71747" lon="1.44809">
        <ele>1051.2</ele>
        <time>2020-08-05T10:15:30Z</time>
      </trkpt>
      <trkpt lat="42.71745" lon="1.4481">
        <ele>1050</ele>
        <time>2020-08-05T10:15:32Z</time>
      </trkpt>
      <trkpt lat="42.71743" lon="1.44808">
        <ele>1049.4</ele>
        <time>2020-08-05T10:15:33Z</time>
      </trkpt>
      <trkpt lat="42.71741" lon="1.44805">
        <ele>1048.8</ele>
        <time>2020-08-05T10:15:34Z</time>
      </trkpt>
      <trkpt lat="42.71736" lon="1.44798">
        <ele>1047.4</ele>
        <time>2020-08-05T10:15:36Z</time>
      </trkpt>
      <trkpt lat="42.71732" lon="1.44797">
        <ele>1046.6</ele>
        <time>2020-08-05T10:15:37Z</time>
      </trkpt>
      <trkpt lat="42.71727" lon="1.44797">
        <ele>1044.4</ele>
        <time>2020-08-05T10:15:38Z</time>
      </trkpt>
      <trkpt lat="42.71723" lon="1.44798">
        <ele>1043.2</ele>
        <time>2020-08-05T10:15:39Z</time>
      </trkpt>
      <trkpt lat="42.71719" lon="1.44798">
        <ele>1042</ele>
        <time>2020-08-05T10:15:40Z</time>
      </trkpt>
      <trkpt lat="42.71716" lon="1.44798">
        <ele>1041</ele>
        <time>2020-08-05T10:15:41Z</time>
      </trkpt>
      <trkpt lat="42.71713" lon="1.44797">
        <ele>1040.4</ele>
        <time>2020-08-05T10:15:42Z</time>
      </trkpt>
      <trkpt lat="42.7171" lon="1.44798">
        <ele>1039.8</ele>
        <time>2020-08-05T10:15:45Z</time>
      </trkpt>
      <trkpt lat="42.71711" lon="1.44802">
        <ele>1039.4</ele>
        <time>2020-08-05T10:15:48Z</time>
      </trkpt>
      <trkpt lat="42.71712" lon="1.44804">
        <ele>1038.6</ele>
        <time>2020-08-05T10:15:50Z</time>
      </trkpt>
      <trkpt lat="42.71712" lon="1.44806">
        <ele>1038.4</ele>
        <time>2020-08-05T10:15:51Z</time>
      </trkpt>
      <trkpt lat="42.7171" lon="1.44805">
        <ele>1038.2</ele>
        <time>2020-08-05T10:15:55Z</time>
      </trkpt>
      <trkpt lat="42.71708" lon="1.44802">
        <ele>1038.2</ele>
        <time>2020-08-05T10:16:00Z</time>
      </trkpt>
      <trkpt lat="42.71705" lon="1.44802">
        <ele>1038.2</ele>
        <time>2020-08-05T10:16:08Z</time>
      </trkpt>
      <trkpt lat="42.71699" lon="1.44798">
        <ele>1038.6</ele>
        <time>2020-08-05T10:16:13Z</time>
      </trkpt>
      <trkpt lat="42.71696" lon="1.44795">
        <ele>1038.8</ele>
        <time>2020-08-05T10:16:18Z</time>
      </trkpt>
      <trkpt lat="42.71703" lon="1.448">
        <ele>1038.6</ele>
        <time>2020-08-05T10:16:22Z</time>
      </trkpt>
      <trkpt lat="42.71704" lon="1.44803">
        <ele>1038.6</ele>
        <time>2020-08-05T10:16:23Z</time>
      </trkpt>
      <trkpt lat="42.71711" lon="1.44816">
        <ele>1037.4</ele>
        <time>2020-08-05T10:16:30Z</time>
      </trkpt>
      <trkpt lat="42.71712" lon="1.44818">
        <ele>1037.2</ele>
        <time>2020-08-05T10:16:31Z</time>
      </trkpt>
      <trkpt lat="42.71713" lon="1.4482">
        <ele>1037</ele>
        <time>2020-08-05T10:16:32Z</time>
      </trkpt>
      <trkpt lat="42.71716" lon="1.44827">
        <ele>1036.2</ele>
        <time>2020-08-05T10:16:35Z</time>
      </trkpt>
      <trkpt lat="42.71715" lon="1.44831">
        <ele>1036</ele>
        <time>2020-08-05T10:16:37Z</time>
      </trkpt>
      <trkpt lat="42.71714" lon="1.44831">
        <ele>1036</ele>
        <time>2020-08-05T10:16:38Z</time>
      </trkpt>
      <trkpt lat="42.7171" lon="1.44821">
        <ele>1036.4</ele>
        <time>2020-08-05T10:16:42Z</time>
      </trkpt>
      <trkpt lat="42.71708" lon="1.44813">
        <ele>1037.2</ele>
        <time>2020-08-05T10:16:45Z</time>
      </trkpt>
      <trkpt lat="42.71709" lon="1.44812">
        <ele>1037.4</ele>
        <time>2020-08-05T10:16:46Z</time>
      </trkpt>
      <trkpt lat="42.7171" lon="1.44813">
        <ele>1037.6</ele>
        <time>2020-08-05T10:16:48Z</time>
      </trkpt>
      <trkpt lat="42.71711" lon="1.44817">
        <ele>1037.4</ele>
        <time>2020-08-05T10:16:49Z</time>
      </trkpt>
      <trkpt lat="42.71717" lon="1.44835">
        <ele>1036.2</ele>
        <time>2020-08-05T10:16:53Z</time>
      </trkpt>
      <trkpt lat="42.71719" lon="1.44839">
        <ele>1035.8</ele>
        <time>2020-08-05T10:16:54Z</time>
      </trkpt>
      <trkpt lat="42.71721" lon="1.44849">
        <ele>1035.2</ele>
        <time>2020-08-05T10:16:56Z</time>
      </trkpt>
      <trkpt lat="42.71722" lon="1.44854">
        <ele>1034.8</ele>
        <time>2020-08-05T10:16:57Z</time>
      </trkpt>
      <trkpt lat="42.71724" lon="1.4486">
        <ele>1034.4</ele>
        <time>2020-08-05T10:16:58Z</time>
      </trkpt>
      <trkpt lat="42.71729" lon="1.44876">
        <ele>1033.8</ele>
        <time>2020-08-05T10:17:01Z</time>
      </trkpt>
      <trkpt lat="42.71729" lon="1.44891">
        <ele>1033.6</ele>
        <time>2020-08-05T10:17:04Z</time>
      </trkpt>
      <trkpt lat="42.71727" lon="1.44896">
        <ele>1033.4</ele>
        <time>2020-08-05T10:17:05Z</time>
      </trkpt>
      <trkpt lat="42.71718" lon="1.44898">
        <ele>1032.2</ele>
        <time>2020-08-05T10:17:07Z</time>
      </trkpt>
      <trkpt lat="42.71709" lon="1.44889">
        <ele>1030.8</ele>
        <time>2020-08-05T10:17:09Z</time>
      </trkpt>
      <trkpt lat="42.71705" lon="1.44881">
        <ele>1030.2</ele>
        <time>2020-08-05T10:17:10Z</time>
      </trkpt>
      <trkpt lat="42.71702" lon="1.44874">
        <ele>1029.4</ele>
        <time>2020-08-05T10:17:11Z</time>
      </trkpt>
      <trkpt lat="42.71697" lon="1.4486">
        <ele>1028</ele>
        <time>2020-08-05T10:17:13Z</time>
      </trkpt>
      <trkpt lat="42.71691" lon="1.44848">
        <ele>1026.8</ele>
        <time>2020-08-05T10:17:15Z</time>
      </trkpt>
      <trkpt lat="42.71685" lon="1.44838">
        <ele>1025.8</ele>
        <time>2020-08-05T10:17:17Z</time>
      </trkpt>
      <trkpt lat="42.71677" lon="1.44824">
        <ele>1024.2</ele>
        <time>2020-08-05T10:17:20Z</time>
      </trkpt>
      <trkpt lat="42.71674" lon="1.4482">
        <ele>1023.4</ele>
        <time>2020-08-05T10:17:21Z</time>
      </trkpt>
      <trkpt lat="42.71671" lon="1.44817">
        <ele>1022.6</ele>
        <time>2020-08-05T10:17:22Z</time>
      </trkpt>
      <trkpt lat="42.71666" lon="1.44816">
        <ele>1021.2</ele>
        <time>2020-08-05T10:17:24Z</time>
      </trkpt>
      <trkpt lat="42.71664" lon="1.44815">
        <ele>1020.8</ele>
        <time>2020-08-05T10:17:28Z</time>
      </trkpt>
      <trkpt lat="42.71664" lon="1.44815">
        <ele>1020.8</ele>
        <time>2020-08-05T10:17:33Z</time>
      </trkpt>
      <trkpt lat="42.71664" lon="1.44815">
        <ele>1020.8</ele>
        <time>2020-08-05T10:17:42Z</time>
      </trkpt>
      <trkpt lat="42.71664" lon="1.44815">
        <ele>1020.8</ele>
        <time>2020-08-05T10:17:49Z</time>
      </trkpt>
      <trkpt lat="42.71664" lon="1.44815">
        <ele>1020.6</ele>
        <time>2020-08-05T10:17:56Z</time>
      </trkpt>
      <trkpt lat="42.71664" lon="1.44815">
        <ele>1020.8</ele>
        <time>2020-08-05T10:18:03Z</time>
      </trkpt>
      <trkpt lat="42.71663" lon="1.44815">
        <ele>1020.6</ele>
        <time>2020-08-05T10:18:12Z</time>
      </trkpt>
      <trkpt lat="42.71663" lon="1.44815">
        <ele>1020.6</ele>
        <time>2020-08-05T10:18:25Z</time>
      </trkpt>
      <trkpt lat="42.71663" lon="1.44815">
        <ele>1020.8</ele>
        <time>2020-08-05T10:18:35Z</time>
      </trkpt>
      <trkpt lat="42.71664" lon="1.44815">
        <ele>1021</ele>
        <time>2020-08-05T10:18:49Z</time>
      </trkpt>
      <trkpt lat="42.71663" lon="1.44815">
        <ele>1021</ele>
        <time>2020-08-05T10:18:57Z</time>
      </trkpt>
      <trkpt lat="42.71663" lon="1.44815">
        <ele>1021</ele>
        <time>2020-08-05T10:19:09Z</time>
      </trkpt>
      <trkpt lat="42.71664" lon="1.44815">
        <ele>1021</ele>
        <time>2020-08-05T10:19:20Z</time>
      </trkpt>
      <trkpt lat="42.71664" lon="1.44815">
        <ele>1021</ele>
        <time>2020-08-05T10:19:31Z</time>
      </trkpt>
      <trkpt lat="42.71664" lon="1.44815">
        <ele>1021</ele>
        <time>2020-08-05T10:19:36Z</time>
      </trkpt>
      <trkpt lat="42.71664" lon="1.44815">
        <ele>1021</ele>
        <time>2020-08-05T10:19:44Z</time>
      </trkpt>
      <trkpt lat="42.71664" lon="1.44815">
        <ele>1020.8</ele>
        <time>2020-08-05T10:19:55Z</time>
      </trkpt>
      <trkpt lat="42.71663" lon="1.44815">
        <ele>1020.8</ele>
        <time>2020-08-05T10:20:07Z</time>
      </trkpt>
      <trkpt lat="42.71664" lon="1.44815">
        <ele>1020.8</ele>
        <time>2020-08-05T10:20:14Z</time>
      </trkpt>
      <trkpt lat="42.71663" lon="1.44815">
        <ele>1020.6</ele>
        <time>2020-08-05T10:20:20Z</time>
      </trkpt>
      <trkpt lat="42.71663" lon="1.44815">
        <ele>1020.6</ele>
        <time>2020-08-05T10:20:35Z</time>
      </trkpt>
      <trkpt lat="42.71658" lon="1.44805">
        <ele>1020.6</ele>
        <time>2020-08-05T10:20:39Z</time>
      </trkpt>
      <trkpt lat="42.71649" lon="1.44801">
        <ele>1021</ele>
        <time>2020-08-05T10:20:43Z</time>
      </trkpt>
      <trkpt lat="42.7164" lon="1.44808">
        <ele>1021</ele>
        <time>2020-08-05T10:20:47Z</time>
      </trkpt>
      <trkpt lat="42.71634" lon="1.44825">
        <ele>1022</ele>
        <time>2020-08-05T10:20:52Z</time>
      </trkpt>
      <trkpt lat="42.71632" lon="1.44831">
        <ele>1022.4</ele>
        <time>2020-08-05T10:20:54Z</time>
      </trkpt>
      <trkpt lat="42.71628" lon="1.44838">
        <ele>1023</ele>
        <time>2020-08-05T10:20:57Z</time>
      </trkpt>
      <trkpt lat="42.71624" lon="1.44841">
        <ele>1023.4</ele>
        <time>2020-08-05T10:20:59Z</time>
      </trkpt>
      <trkpt lat="42.71618" lon="1.44844">
        <ele>1024.2</ele>
        <time>2020-08-05T10:21:02Z</time>
      </trkpt>
      <trkpt lat="42.71614" lon="1.44847">
        <ele>1024.6</ele>
        <time>2020-08-05T10:21:04Z</time>
      </trkpt>
      <trkpt lat="42.71606" lon="1.44851">
        <ele>1025.8</ele>
        <time>2020-08-05T10:21:08Z</time>
      </trkpt>
      <trkpt lat="42.71603" lon="1.44852">
        <ele>1026</ele>
        <time>2020-08-05T10:21:09Z</time>
      </trkpt>
      <trkpt lat="42.71595" lon="1.44854">
        <ele>1027</ele>
        <time>2020-08-05T10:21:13Z</time>
      </trkpt>
      <trkpt lat="42.71591" lon="1.44854">
        <ele>1027.6</ele>
        <time>2020-08-05T10:21:15Z</time>
      </trkpt>
      <trkpt lat="42.71587" lon="1.44857">
        <ele>1028</ele>
        <time>2020-08-05T10:21:17Z</time>
      </trkpt>
      <trkpt lat="42.71578" lon="1.44861">
        <ele>1029.2</ele>
        <time>2020-08-05T10:21:22Z</time>
      </trkpt>
      <trkpt lat="42.71575" lon="1.44861">
        <ele>1029.6</ele>
        <time>2020-08-05T10:21:24Z</time>
      </trkpt>
      <trkpt lat="42.7157" lon="1.44861">
        <ele>1030.2</ele>
        <time>2020-08-05T10:21:27Z</time>
      </trkpt>
      <trkpt lat="42.71568" lon="1.44861">
        <ele>1030.4</ele>
        <time>2020-08-05T10:21:28Z</time>
      </trkpt>
      <trkpt lat="42.71559" lon="1.44865">
        <ele>1031.4</ele>
        <time>2020-08-05T10:21:33Z</time>
      </trkpt>
      <trkpt lat="42.71557" lon="1.44865">
        <ele>1031.6</ele>
        <time>2020-08-05T10:21:34Z</time>
      </trkpt>
      <trkpt lat="42.71555" lon="1.44866">
        <ele>1031.8</ele>
        <time>2020-08-05T10:21:35Z</time>
      </trkpt>
      <trkpt lat="42.7155" lon="1.44869">
        <ele>1032.6</ele>
        <time>2020-08-05T10:21:38Z</time>
      </trkpt>
      <trkpt lat="42.71546" lon="1.4487">
        <ele>1033</ele>
        <time>2020-08-05T10:21:40Z</time>
      </trkpt>
      <trkpt lat="42.71541" lon="1.44872">
        <ele>1033.4</ele>
        <time>2020-08-05T10:21:42Z</time>
      </trkpt>
      <trkpt lat="42.71539" lon="1.44873">
        <ele>1033.6</ele>
        <time>2020-08-05T10:21:43Z</time>
      </trkpt>
      <trkpt lat="42.71537" lon="1.44873">
        <ele>1033.6</ele>
        <time>2020-08-05T10:21:44Z</time>
      </trkpt>
      <trkpt lat="42.71531" lon="1.44872">
        <ele>1034.4</ele>
        <time>2020-08-05T10:21:47Z</time>
      </trkpt>
      <trkpt lat="42.71529" lon="1.44872">
        <ele>1034.4</ele>
        <time>2020-08-05T10:21:48Z</time>
      </trkpt>
      <trkpt lat="42.71527" lon="1.44873">
        <ele>1034.6</ele>
        <time>2020-08-05T10:21:49Z</time>
      </trkpt>
      <trkpt lat="42.71517" lon="1.44872">
        <ele>1035.8</ele>
        <time>2020-08-05T10:21:54Z</time>
      </trkpt>
      <trkpt lat="42.71505" lon="1.4487">
        <ele>1036.8</ele>
        <time>2020-08-05T10:22:00Z</time>
      </trkpt>
      <trkpt lat="42.71502" lon="1.4487">
        <ele>1037</ele>
        <time>2020-08-05T10:22:01Z</time>
      </trkpt>
      <trkpt lat="42.71496" lon="1.44869">
        <ele>1038</ele>
        <time>2020-08-05T10:22:04Z</time>
      </trkpt>
      <trkpt lat="42.71483" lon="1.44867">
        <ele>1039.2</ele>
        <time>2020-08-05T10:22:10Z</time>
      </trkpt>
      <trkpt lat="42.71471" lon="1.44871">
        <ele>1040.4</ele>
        <time>2020-08-05T10:22:16Z</time>
      </trkpt>
      <trkpt lat="42.71469" lon="1.44872">
        <ele>1040.6</ele>
        <time>2020-08-05T10:22:17Z</time>
      </trkpt>
      <trkpt lat="42.71462" lon="1.44878">
        <ele>1041.4</ele>
        <time>2020-08-05T10:22:21Z</time>
      </trkpt>
      <trkpt lat="42.71453" lon="1.44886">
        <ele>1042.4</ele>
        <time>2020-08-05T10:22:26Z</time>
      </trkpt>
      <trkpt lat="42.71452" lon="1.44887">
        <ele>1042.6</ele>
        <time>2020-08-05T10:22:27Z</time>
      </trkpt>
      <trkpt lat="42.71442" lon="1.44896">
        <ele>1043.6</ele>
        <time>2020-08-05T10:22:33Z</time>
      </trkpt>
      <trkpt lat="42.71441" lon="1.44897">
        <ele>1043.8</ele>
        <time>2020-08-05T10:22:34Z</time>
      </trkpt>
      <trkpt lat="42.71437" lon="1.449">
        <ele>1044</ele>
        <time>2020-08-05T10:22:37Z</time>
      </trkpt>
      <trkpt lat="42.71433" lon="1.44902">
        <ele>1044.4</ele>
        <time>2020-08-05T10:22:41Z</time>
      </trkpt>
      <trkpt lat="42.71432" lon="1.44901">
        <ele>1044.4</ele>
        <time>2020-08-05T10:22:42Z</time>
      </trkpt>
      <trkpt lat="42.71429" lon="1.449">
        <ele>1044.6</ele>
        <time>2020-08-05T10:22:44Z</time>
      </trkpt>
      <trkpt lat="42.71427" lon="1.44902">
        <ele>1045</ele>
        <time>2020-08-05T10:22:46Z</time>
      </trkpt>
      <trkpt lat="42.71425" lon="1.44903">
        <ele>1045.2</ele>
        <time>2020-08-05T10:22:48Z</time>
      </trkpt>
      <trkpt lat="42.71424" lon="1.44904">
        <ele>1045.4</ele>
        <time>2020-08-05T10:22:49Z</time>
      </trkpt>
      <trkpt lat="42.71422" lon="1.44906">
        <ele>1045.8</ele>
        <time>2020-08-05T10:22:51Z</time>
      </trkpt>
      <trkpt lat="42.71421" lon="1.44907">
        <ele>1046</ele>
        <time>2020-08-05T10:22:52Z</time>
      </trkpt>
      <trkpt lat="42.71415" lon="1.44917">
        <ele>1046.8</ele>
        <time>2020-08-05T10:22:58Z</time>
      </trkpt>
      <trkpt lat="42.71413" lon="1.44918">
        <ele>1047</ele>
        <time>2020-08-05T10:22:59Z</time>
      </trkpt>
      <trkpt lat="42.71408" lon="1.44926">
        <ele>1047.8</ele>
        <time>2020-08-05T10:23:04Z</time>
      </trkpt>
      <trkpt lat="42.71405" lon="1.44931">
        <ele>1048.2</ele>
        <time>2020-08-05T10:23:07Z</time>
      </trkpt>
      <trkpt lat="42.71403" lon="1.44932">
        <ele>1048.2</ele>
        <time>2020-08-05T10:23:08Z</time>
      </trkpt>
      <trkpt lat="42.714" lon="1.44936">
        <ele>1049</ele>
        <time>2020-08-05T10:23:11Z</time>
      </trkpt>
      <trkpt lat="42.71398" lon="1.44937">
        <ele>1049.2</ele>
        <time>2020-08-05T10:23:12Z</time>
      </trkpt>
      <trkpt lat="42.71395" lon="1.44938">
        <ele>1049.8</ele>
        <time>2020-08-05T10:23:14Z</time>
      </trkpt>
      <trkpt lat="42.71393" lon="1.44939">
        <ele>1050</ele>
        <time>2020-08-05T10:23:15Z</time>
      </trkpt>
      <trkpt lat="42.71384" lon="1.44944">
        <ele>1051</ele>
        <time>2020-08-05T10:23:20Z</time>
      </trkpt>
      <trkpt lat="42.71383" lon="1.44945">
        <ele>1051.2</ele>
        <time>2020-08-05T10:23:21Z</time>
      </trkpt>
      <trkpt lat="42.7138" lon="1.44947">
        <ele>1051.4</ele>
        <time>2020-08-05T10:23:23Z</time>
      </trkpt>
      <trkpt lat="42.7138" lon="1.44951">
        <ele>1051.8</ele>
        <time>2020-08-05T10:23:25Z</time>
      </trkpt>
      <trkpt lat="42.71379" lon="1.44953">
        <ele>1051.8</ele>
        <time>2020-08-05T10:23:26Z</time>
      </trkpt>
      <trkpt lat="42.71374" lon="1.44954">
        <ele>1052.2</ele>
        <time>2020-08-05T10:23:29Z</time>
      </trkpt>
      <trkpt lat="42.71372" lon="1.44955">
        <ele>1052.2</ele>
        <time>2020-08-05T10:23:30Z</time>
      </trkpt>
      <trkpt lat="42.71371" lon="1.44956">
        <ele>1052.4</ele>
        <time>2020-08-05T10:23:31Z</time>
      </trkpt>
      <trkpt lat="42.71371" lon="1.44956">
        <ele>1052.6</ele>
        <time>2020-08-05T10:23:34Z</time>
      </trkpt>
      <trkpt lat="42.71371" lon="1.44955">
        <ele>1052.8</ele>
        <time>2020-08-05T10:23:38Z</time>
      </trkpt>
      <trkpt lat="42.71371" lon="1.44955">
        <ele>1052.6</ele>
        <time>2020-08-05T10:23:50Z</time>
      </trkpt>
      <trkpt lat="42.71371" lon="1.44955">
        <ele>1052.4</ele>
        <time>2020-08-05T10:23:59Z</time>
      </trkpt>
      <trkpt lat="42.71371" lon="1.44955">
        <ele>1052.2</ele>
        <time>2020-08-05T10:24:14Z</time>
      </trkpt>
      <trkpt lat="42.7137" lon="1.44956">
        <ele>1052.4</ele>
        <time>2020-08-05T10:24:33Z</time>
      </trkpt>
      <trkpt lat="42.7137" lon="1.44956">
        <ele>1052.6</ele>
        <time>2020-08-05T10:24:46Z</time>
      </trkpt>
      <trkpt lat="42.7137" lon="1.44956">
        <ele>1052.6</ele>
        <time>2020-08-05T10:25:04Z</time>
      </trkpt>
      <trkpt lat="42.7137" lon="1.44956">
        <ele>1052.6</ele>
        <time>2020-08-05T10:25:10Z</time>
      </trkpt>
      <trkpt lat="42.7137" lon="1.44956">
        <ele>1052.8</ele>
        <time>2020-08-05T10:25:19Z</time>
      </trkpt>
      <trkpt lat="42.7137" lon="1.44956">
        <ele>1052.8</ele>
        <time>2020-08-05T10:25:37Z</time>
      </trkpt>
      <trkpt lat="42.7137" lon="1.44956">
        <ele>1052.8</ele>
        <time>2020-08-05T10:25:50Z</time>
      </trkpt>
      <trkpt lat="42.71369" lon="1.44952">
        <ele>1052.8</ele>
        <time>2020-08-05T10:25:57Z</time>
      </trkpt>
      <trkpt lat="42.71374" lon="1.44951">
        <ele>1052.6</ele>
        <time>2020-08-05T10:25:59Z</time>
      </trkpt>
      <trkpt lat="42.71385" lon="1.44948">
        <ele>1051.8</ele>
        <time>2020-08-05T10:26:02Z</time>
      </trkpt>
      <trkpt lat="42.7139" lon="1.44945">
        <ele>1051.4</ele>
        <time>2020-08-05T10:26:03Z</time>
      </trkpt>
      <trkpt lat="42.71395" lon="1.44942">
        <ele>1051</ele>
        <time>2020-08-05T10:26:04Z</time>
      </trkpt>
      <trkpt lat="42.71405" lon="1.4493">
        <ele>1049.8</ele>
        <time>2020-08-05T10:26:06Z</time>
      </trkpt>
      <trkpt lat="42.71416" lon="1.44913">
        <ele>1048.4</ele>
        <time>2020-08-05T10:26:08Z</time>
      </trkpt>
      <trkpt lat="42.71429" lon="1.44897">
        <ele>1047.2</ele>
        <time>2020-08-05T10:26:10Z</time>
      </trkpt>
      <trkpt lat="42.71442" lon="1.44881">
        <ele>1045.8</ele>
        <time>2020-08-05T10:26:12Z</time>
      </trkpt>
      <trkpt lat="42.71454" lon="1.44868">
        <ele>1046</ele>
        <time>2020-08-05T10:26:14Z</time>
      </trkpt>
      <trkpt lat="42.71473" lon="1.44849">
        <ele>1046.8</ele>
        <time>2020-08-05T10:26:18Z</time>
      </trkpt>
      <trkpt lat="42.71487" lon="1.4484">
        <ele>1048.2</ele>
        <time>2020-08-05T10:26:22Z</time>
      </trkpt>
      <trkpt lat="42.7149" lon="1.44839">
        <ele>1048.4</ele>
        <time>2020-08-05T10:26:23Z</time>
      </trkpt>
      <trkpt lat="42.71496" lon="1.44837">
        <ele>1049.2</ele>
        <time>2020-08-05T10:26:25Z</time>
      </trkpt>
      <trkpt lat="42.71503" lon="1.44836">
        <ele>1050.4</ele>
        <time>2020-08-05T10:26:28Z</time>
      </trkpt>
      <trkpt lat="42.71505" lon="1.44835">
        <ele>1050.6</ele>
        <time>2020-08-05T10:26:29Z</time>
      </trkpt>
      <trkpt lat="42.71514" lon="1.44832">
        <ele>1051.6</ele>
        <time>2020-08-05T10:26:33Z</time>
      </trkpt>
      <trkpt lat="42.71516" lon="1.44831">
        <ele>1051.8</ele>
        <time>2020-08-05T10:26:34Z</time>
      </trkpt>
      <trkpt lat="42.7152" lon="1.44828">
        <ele>1052.2</ele>
        <time>2020-08-05T10:26:36Z</time>
      </trkpt>
      <trkpt lat="42.71524" lon="1.44825">
        <ele>1052.6</ele>
        <time>2020-08-05T10:26:38Z</time>
      </trkpt>
      <trkpt lat="42.71528" lon="1.44821">
        <ele>1053.2</ele>
        <time>2020-08-05T10:26:41Z</time>
      </trkpt>
      <trkpt lat="42.71531" lon="1.44818">
        <ele>1053.6</ele>
        <time>2020-08-05T10:26:43Z</time>
      </trkpt>
      <trkpt lat="42.71537" lon="1.44813">
        <ele>1054.4</ele>
        <time>2020-08-05T10:26:47Z</time>
      </trkpt>
      <trkpt lat="42.71538" lon="1.44811">
        <ele>1054.6</ele>
        <time>2020-08-05T10:26:48Z</time>
      </trkpt>
      <trkpt lat="42.71544" lon="1.44804">
        <ele>1055.8</ele>
        <time>2020-08-05T10:26:52Z</time>
      </trkpt>
      <trkpt lat="42.71547" lon="1.448">
        <ele>1056.2</ele>
        <time>2020-08-05T10:26:55Z</time>
      </trkpt>
      <trkpt lat="42.71552" lon="1.44794">
        <ele>1056.8</ele>
        <time>2020-08-05T10:26:59Z</time>
      </trkpt>
      <trkpt lat="42.71556" lon="1.44788">
        <ele>1057.4</ele>
        <time>2020-08-05T10:27:02Z</time>
      </trkpt>
      <trkpt lat="42.71559" lon="1.44782">
        <ele>1058</ele>
        <time>2020-08-05T10:27:05Z</time>
      </trkpt>
      <trkpt lat="42.71561" lon="1.44775">
        <ele>1058.6</ele>
        <time>2020-08-05T10:27:08Z</time>
      </trkpt>
      <trkpt lat="42.71564" lon="1.44768">
        <ele>1059</ele>
        <time>2020-08-05T10:27:11Z</time>
      </trkpt>
      <trkpt lat="42.71566" lon="1.44761">
        <ele>1059.6</ele>
        <time>2020-08-05T10:27:14Z</time>
      </trkpt>
      <trkpt lat="42.71569" lon="1.44754">
        <ele>1060.2</ele>
        <time>2020-08-05T10:27:17Z</time>
      </trkpt>
      <trkpt lat="42.71572" lon="1.44742">
        <ele>1061.2</ele>
        <time>2020-08-05T10:27:22Z</time>
      </trkpt>
      <trkpt lat="42.71572" lon="1.44739">
        <ele>1061.2</ele>
        <time>2020-08-05T10:27:23Z</time>
      </trkpt>
      <trkpt lat="42.71575" lon="1.44727">
        <ele>1062.2</ele>
        <time>2020-08-05T10:27:28Z</time>
      </trkpt>
      <trkpt lat="42.71576" lon="1.44725">
        <ele>1062.6</ele>
        <time>2020-08-05T10:27:29Z</time>
      </trkpt>
      <trkpt lat="42.7158" lon="1.44714">
        <ele>1063.4</ele>
        <time>2020-08-05T10:27:34Z</time>
      </trkpt>
      <trkpt lat="42.71582" lon="1.4471">
        <ele>1063.8</ele>
        <time>2020-08-05T10:27:36Z</time>
      </trkpt>
      <trkpt lat="42.71586" lon="1.44704">
        <ele>1064.8</ele>
        <time>2020-08-05T10:27:39Z</time>
      </trkpt>
      <trkpt lat="42.71589" lon="1.44695">
        <ele>1065.6</ele>
        <time>2020-08-05T10:27:43Z</time>
      </trkpt>
      <trkpt lat="42.7159" lon="1.44692">
        <ele>1065.8</ele>
        <time>2020-08-05T10:27:44Z</time>
      </trkpt>
      <trkpt lat="42.71593" lon="1.44682">
        <ele>1066.4</ele>
        <time>2020-08-05T10:27:48Z</time>
      </trkpt>
      <trkpt lat="42.71596" lon="1.44676">
        <ele>1067</ele>
        <time>2020-08-05T10:27:51Z</time>
      </trkpt>
      <trkpt lat="42.716" lon="1.44661">
        <ele>1068</ele>
        <time>2020-08-05T10:27:57Z</time>
      </trkpt>
      <trkpt lat="42.71604" lon="1.44649">
        <ele>1069.2</ele>
        <time>2020-08-05T10:28:02Z</time>
      </trkpt>
      <trkpt lat="42.71605" lon="1.44644">
        <ele>1069.6</ele>
        <time>2020-08-05T10:28:04Z</time>
      </trkpt>
      <trkpt lat="42.71606" lon="1.4464">
        <ele>1070.2</ele>
        <time>2020-08-05T10:28:06Z</time>
      </trkpt>
      <trkpt lat="42.71608" lon="1.4463">
        <ele>1071</ele>
        <time>2020-08-05T10:28:10Z</time>
      </trkpt>
      <trkpt lat="42.71609" lon="1.44628">
        <ele>1071.2</ele>
        <time>2020-08-05T10:28:11Z</time>
      </trkpt>
      <trkpt lat="42.71612" lon="1.44613">
        <ele>1072.2</ele>
        <time>2020-08-05T10:28:17Z</time>
      </trkpt>
      <trkpt lat="42.71612" lon="1.44611">
        <ele>1072.4</ele>
        <time>2020-08-05T10:28:18Z</time>
      </trkpt>
      <trkpt lat="42.71615" lon="1.44597">
        <ele>1073.4</ele>
        <time>2020-08-05T10:28:23Z</time>
      </trkpt>
      <trkpt lat="42.71616" lon="1.44591">
        <ele>1073.6</ele>
        <time>2020-08-05T10:28:25Z</time>
      </trkpt>
      <trkpt lat="42.7162" lon="1.44572">
        <ele>1074.4</ele>
        <time>2020-08-05T10:28:32Z</time>
      </trkpt>
      <trkpt lat="42.71624" lon="1.4455">
        <ele>1075.2</ele>
        <time>2020-08-05T10:28:39Z</time>
      </trkpt>
      <trkpt lat="42.71627" lon="1.44537">
        <ele>1075.6</ele>
        <time>2020-08-05T10:28:43Z</time>
      </trkpt>
      <trkpt lat="42.71633" lon="1.44525">
        <ele>1076</ele>
        <time>2020-08-05T10:28:47Z</time>
      </trkpt>
      <trkpt lat="42.71636" lon="1.44515">
        <ele>1076.6</ele>
        <time>2020-08-05T10:28:50Z</time>
      </trkpt>
      <trkpt lat="42.71639" lon="1.44498">
        <ele>1077.8</ele>
        <time>2020-08-05T10:28:55Z</time>
      </trkpt>
      <trkpt lat="42.71641" lon="1.44482">
        <ele>1079</ele>
        <time>2020-08-05T10:29:00Z</time>
      </trkpt>
      <trkpt lat="42.71643" lon="1.44473">
        <ele>1079.8</ele>
        <time>2020-08-05T10:29:03Z</time>
      </trkpt>
      <trkpt lat="42.71643" lon="1.44469">
        <ele>1080</ele>
        <time>2020-08-05T10:29:04Z</time>
      </trkpt>
      <trkpt lat="42.71646" lon="1.4445">
        <ele>1080.8</ele>
        <time>2020-08-05T10:29:10Z</time>
      </trkpt>
      <trkpt lat="42.71647" lon="1.44443">
        <ele>1081</ele>
        <time>2020-08-05T10:29:12Z</time>
      </trkpt>
      <trkpt lat="42.71648" lon="1.44419">
        <ele>1081.8</ele>
        <time>2020-08-05T10:29:18Z</time>
      </trkpt>
      <trkpt lat="42.71648" lon="1.44394">
        <ele>1082</ele>
        <time>2020-08-05T10:29:24Z</time>
      </trkpt>
      <trkpt lat="42.71648" lon="1.44366">
        <ele>1083</ele>
        <time>2020-08-05T10:29:31Z</time>
      </trkpt>
      <trkpt lat="42.71648" lon="1.44358">
        <ele>1083.2</ele>
        <time>2020-08-05T10:29:33Z</time>
      </trkpt>
      <trkpt lat="42.71651" lon="1.44339">
        <ele>1084</ele>
        <time>2020-08-05T10:29:38Z</time>
      </trkpt>
      <trkpt lat="42.71651" lon="1.44336">
        <ele>1084.4</ele>
        <time>2020-08-05T10:29:39Z</time>
      </trkpt>
      <trkpt lat="42.71656" lon="1.44321">
        <ele>1085.2</ele>
        <time>2020-08-05T10:29:44Z</time>
      </trkpt>
      <trkpt lat="42.71657" lon="1.44318">
        <ele>1085.4</ele>
        <time>2020-08-05T10:29:45Z</time>
      </trkpt>
      <trkpt lat="42.71659" lon="1.44295">
        <ele>1086.2</ele>
        <time>2020-08-05T10:29:51Z</time>
      </trkpt>
      <trkpt lat="42.71663" lon="1.4427">
        <ele>1086.6</ele>
        <time>2020-08-05T10:29:57Z</time>
      </trkpt>
      <trkpt lat="42.7167" lon="1.44241">
        <ele>1087.2</ele>
        <time>2020-08-05T10:30:04Z</time>
      </trkpt>
      <trkpt lat="42.71674" lon="1.44219">
        <ele>1087.6</ele>
        <time>2020-08-05T10:30:09Z</time>
      </trkpt>
      <trkpt lat="42.71675" lon="1.4421">
        <ele>1087.8</ele>
        <time>2020-08-05T10:30:11Z</time>
      </trkpt>
      <trkpt lat="42.71681" lon="1.44181">
        <ele>1088.2</ele>
        <time>2020-08-05T10:30:18Z</time>
      </trkpt>
      <trkpt lat="42.71682" lon="1.44165">
        <ele>1088.6</ele>
        <time>2020-08-05T10:30:22Z</time>
      </trkpt>
      <trkpt lat="42.71685" lon="1.44155">
        <ele>1089</ele>
        <time>2020-08-05T10:30:24Z</time>
      </trkpt>
      <trkpt lat="42.71686" lon="1.44131">
        <ele>1089.2</ele>
        <time>2020-08-05T10:30:29Z</time>
      </trkpt>
      <trkpt lat="42.71682" lon="1.44096">
        <ele>1089.6</ele>
        <time>2020-08-05T10:30:36Z</time>
      </trkpt>
      <trkpt lat="42.71677" lon="1.4406">
        <ele>1090.4</ele>
        <time>2020-08-05T10:30:44Z</time>
      </trkpt>
      <trkpt lat="42.71677" lon="1.44056">
        <ele>1090.8</ele>
        <time>2020-08-05T10:30:45Z</time>
      </trkpt>
      <trkpt lat="42.71675" lon="1.44036">
        <ele>1092</ele>
        <time>2020-08-05T10:30:51Z</time>
      </trkpt>
      <trkpt lat="42.71672" lon="1.44018">
        <ele>1093.2</ele>
        <time>2020-08-05T10:30:57Z</time>
      </trkpt>
      <trkpt lat="42.7167" lon="1.44001">
        <ele>1094.2</ele>
        <time>2020-08-05T10:31:03Z</time>
      </trkpt>
      <trkpt lat="42.7167" lon="1.43995">
        <ele>1094.6</ele>
        <time>2020-08-05T10:31:05Z</time>
      </trkpt>
      <trkpt lat="42.71672" lon="1.43972">
        <ele>1094.8</ele>
        <time>2020-08-05T10:31:11Z</time>
      </trkpt>
      <trkpt lat="42.71681" lon="1.43939">
        <ele>1095.2</ele>
        <time>2020-08-05T10:31:19Z</time>
      </trkpt>
      <trkpt lat="42.71682" lon="1.43935">
        <ele>1095.4</ele>
        <time>2020-08-05T10:31:20Z</time>
      </trkpt>
      <trkpt lat="42.7168" lon="1.43912">
        <ele>1096</ele>
        <time>2020-08-05T10:31:25Z</time>
      </trkpt>
      <trkpt lat="42.71672" lon="1.4389">
        <ele>1096.6</ele>
        <time>2020-08-05T10:31:30Z</time>
      </trkpt>
      <trkpt lat="42.71671" lon="1.43885">
        <ele>1096.6</ele>
        <time>2020-08-05T10:31:31Z</time>
      </trkpt>
      <trkpt lat="42.71661" lon="1.43862">
        <ele>1097.6</ele>
        <time>2020-08-05T10:31:37Z</time>
      </trkpt>
      <trkpt lat="42.71659" lon="1.43858">
        <ele>1097.8</ele>
        <time>2020-08-05T10:31:38Z</time>
      </trkpt>
      <trkpt lat="42.71652" lon="1.43844">
        <ele>1098.6</ele>
        <time>2020-08-05T10:31:42Z</time>
      </trkpt>
      <trkpt lat="42.71647" lon="1.43837">
        <ele>1099</ele>
        <time>2020-08-05T10:31:44Z</time>
      </trkpt>
      <trkpt lat="42.71635" lon="1.43818">
        <ele>1099.6</ele>
        <time>2020-08-05T10:31:50Z</time>
      </trkpt>
      <trkpt lat="42.71633" lon="1.43815">
        <ele>1099.8</ele>
        <time>2020-08-05T10:31:51Z</time>
      </trkpt>
      <trkpt lat="42.71619" lon="1.43793">
        <ele>1100.2</ele>
        <time>2020-08-05T10:31:57Z</time>
      </trkpt>
      <trkpt lat="42.71609" lon="1.43774">
        <ele>1100.8</ele>
        <time>2020-08-05T10:32:02Z</time>
      </trkpt>
      <trkpt lat="42.71607" lon="1.4377">
        <ele>1101</ele>
        <time>2020-08-05T10:32:03Z</time>
      </trkpt>
      <trkpt lat="42.71597" lon="1.43749">
        <ele>1102</ele>
        <time>2020-08-05T10:32:08Z</time>
      </trkpt>
      <trkpt lat="42.71594" lon="1.43741">
        <ele>1102.2</ele>
        <time>2020-08-05T10:32:10Z</time>
      </trkpt>
      <trkpt lat="42.71586" lon="1.43725">
        <ele>1103</ele>
        <time>2020-08-05T10:32:15Z</time>
      </trkpt>
      <trkpt lat="42.71583" lon="1.43719">
        <ele>1103.4</ele>
        <time>2020-08-05T10:32:17Z</time>
      </trkpt>
      <trkpt lat="42.71577" lon="1.43711">
        <ele>1104.2</ele>
        <time>2020-08-05T10:32:20Z</time>
      </trkpt>
      <trkpt lat="42.71573" lon="1.43704">
        <ele>1104.8</ele>
        <time>2020-08-05T10:32:23Z</time>
      </trkpt>
      <trkpt lat="42.71567" lon="1.43697">
        <ele>1105.4</ele>
        <time>2020-08-05T10:32:26Z</time>
      </trkpt>
      <trkpt lat="42.71561" lon="1.43691">
        <ele>1106.6</ele>
        <time>2020-08-05T10:32:29Z</time>
      </trkpt>
      <trkpt lat="42.71559" lon="1.43688">
        <ele>1106.6</ele>
        <time>2020-08-05T10:32:30Z</time>
      </trkpt>
      <trkpt lat="42.71548" lon="1.43677">
        <ele>1107.4</ele>
        <time>2020-08-05T10:32:35Z</time>
      </trkpt>
      <trkpt lat="42.71544" lon="1.43674">
        <ele>1107.6</ele>
        <time>2020-08-05T10:32:37Z</time>
      </trkpt>
      <trkpt lat="42.71535" lon="1.43666">
        <ele>1108</ele>
        <time>2020-08-05T10:32:41Z</time>
      </trkpt>
      <trkpt lat="42.71522" lon="1.43656">
        <ele>1108.8</ele>
        <time>2020-08-05T10:32:46Z</time>
      </trkpt>
      <trkpt lat="42.71513" lon="1.4365">
        <ele>1109</ele>
        <time>2020-08-05T10:32:49Z</time>
      </trkpt>
      <trkpt lat="42.71496" lon="1.43641">
        <ele>1109.8</ele>
        <time>2020-08-05T10:32:55Z</time>
      </trkpt>
      <trkpt lat="42.71489" lon="1.43634">
        <ele>1110.2</ele>
        <time>2020-08-05T10:32:58Z</time>
      </trkpt>
      <trkpt lat="42.71478" lon="1.43621">
        <ele>1110.8</ele>
        <time>2020-08-05T10:33:03Z</time>
      </trkpt>
      <trkpt lat="42.71472" lon="1.43612">
        <ele>1111.2</ele>
        <time>2020-08-05T10:33:06Z</time>
      </trkpt>
      <trkpt lat="42.7146" lon="1.43594">
        <ele>1111.8</ele>
        <time>2020-08-05T10:33:12Z</time>
      </trkpt>
      <trkpt lat="42.71454" lon="1.43585">
        <ele>1112.4</ele>
        <time>2020-08-05T10:33:15Z</time>
      </trkpt>
      <trkpt lat="42.71443" lon="1.43569">
        <ele>1113</ele>
        <time>2020-08-05T10:33:20Z</time>
      </trkpt>
      <trkpt lat="42.71437" lon="1.43561">
        <ele>1113.2</ele>
        <time>2020-08-05T10:33:23Z</time>
      </trkpt>
      <trkpt lat="42.71428" lon="1.4355">
        <ele>1114</ele>
        <time>2020-08-05T10:33:27Z</time>
      </trkpt>
      <trkpt lat="42.71418" lon="1.43536">
        <ele>1114.6</ele>
        <time>2020-08-05T10:33:32Z</time>
      </trkpt>
      <trkpt lat="42.71412" lon="1.43528">
        <ele>1115</ele>
        <time>2020-08-05T10:33:35Z</time>
      </trkpt>
      <trkpt lat="42.714" lon="1.4351">
        <ele>1116</ele>
        <time>2020-08-05T10:33:41Z</time>
      </trkpt>
      <trkpt lat="42.71398" lon="1.43507">
        <ele>1116.2</ele>
        <time>2020-08-05T10:33:42Z</time>
      </trkpt>
      <trkpt lat="42.71385" lon="1.43492">
        <ele>1117.4</ele>
        <time>2020-08-05T10:33:48Z</time>
      </trkpt>
      <trkpt lat="42.71383" lon="1.43489">
        <ele>1117.4</ele>
        <time>2020-08-05T10:33:49Z</time>
      </trkpt>
      <trkpt lat="42.71372" lon="1.43476">
        <ele>1118.4</ele>
        <time>2020-08-05T10:33:55Z</time>
      </trkpt>
      <trkpt lat="42.71357" lon="1.43476">
        <ele>1118.6</ele>
        <time>2020-08-05T10:34:01Z</time>
      </trkpt>
      <trkpt lat="42.71346" lon="1.43478">
        <ele>1118.6</ele>
        <time>2020-08-05T10:34:05Z</time>
      </trkpt>
      <trkpt lat="42.7133" lon="1.43469">
        <ele>1119.2</ele>
        <time>2020-08-05T10:34:11Z</time>
      </trkpt>
      <trkpt lat="42.71327" lon="1.43467">
        <ele>1119.4</ele>
        <time>2020-08-05T10:34:12Z</time>
      </trkpt>
      <trkpt lat="42.7132" lon="1.43455">
        <ele>1120.4</ele>
        <time>2020-08-05T10:34:17Z</time>
      </trkpt>
      <trkpt lat="42.71309" lon="1.43444">
        <ele>1121.4</ele>
        <time>2020-08-05T10:34:23Z</time>
      </trkpt>
      <trkpt lat="42.71307" lon="1.43442">
        <ele>1121.6</ele>
        <time>2020-08-05T10:34:24Z</time>
      </trkpt>
      <trkpt lat="42.71299" lon="1.43428">
        <ele>1122.4</ele>
        <time>2020-08-05T10:34:30Z</time>
      </trkpt>
      <trkpt lat="42.71297" lon="1.43426">
        <ele>1122.8</ele>
        <time>2020-08-05T10:34:31Z</time>
      </trkpt>
      <trkpt lat="42.71291" lon="1.4341">
        <ele>1123.6</ele>
        <time>2020-08-05T10:34:37Z</time>
      </trkpt>
      <trkpt lat="42.7129" lon="1.43407">
        <ele>1124</ele>
        <time>2020-08-05T10:34:38Z</time>
      </trkpt>
      <trkpt lat="42.71287" lon="1.43397">
        <ele>1124.8</ele>
        <time>2020-08-05T10:34:43Z</time>
      </trkpt>
      <trkpt lat="42.71285" lon="1.43395">
        <ele>1125.2</ele>
        <time>2020-08-05T10:34:44Z</time>
      </trkpt>
      <trkpt lat="42.71279" lon="1.43382">
        <ele>1125.8</ele>
        <time>2020-08-05T10:34:50Z</time>
      </trkpt>
      <trkpt lat="42.71278" lon="1.4338">
        <ele>1126.2</ele>
        <time>2020-08-05T10:34:51Z</time>
      </trkpt>
      <trkpt lat="42.71268" lon="1.4337">
        <ele>1127.2</ele>
        <time>2020-08-05T10:34:57Z</time>
      </trkpt>
      <trkpt lat="42.71266" lon="1.43368">
        <ele>1127.4</ele>
        <time>2020-08-05T10:34:58Z</time>
      </trkpt>
      <trkpt lat="42.7126" lon="1.43365">
        <ele>1127.6</ele>
        <time>2020-08-05T10:35:01Z</time>
      </trkpt>
      <trkpt lat="42.71257" lon="1.4337">
        <ele>1128</ele>
        <time>2020-08-05T10:35:03Z</time>
      </trkpt>
      <trkpt lat="42.71258" lon="1.43378">
        <ele>1128.4</ele>
        <time>2020-08-05T10:35:06Z</time>
      </trkpt>
      <trkpt lat="42.7126" lon="1.4338">
        <ele>1128.4</ele>
        <time>2020-08-05T10:35:07Z</time>
      </trkpt>
      <trkpt lat="42.71268" lon="1.43389">
        <ele>1129</ele>
        <time>2020-08-05T10:35:12Z</time>
      </trkpt>
      <trkpt lat="42.71274" lon="1.43398">
        <ele>1129.4</ele>
        <time>2020-08-05T10:35:16Z</time>
      </trkpt>
      <trkpt lat="42.71275" lon="1.43403">
        <ele>1129.6</ele>
        <time>2020-08-05T10:35:18Z</time>
      </trkpt>
      <trkpt lat="42.71279" lon="1.43419">
        <ele>1130.2</ele>
        <time>2020-08-05T10:35:23Z</time>
      </trkpt>
      <trkpt lat="42.71281" lon="1.43425">
        <ele>1130.6</ele>
        <time>2020-08-05T10:35:25Z</time>
      </trkpt>
      <trkpt lat="42.71286" lon="1.43445">
        <ele>1131.2</ele>
        <time>2020-08-05T10:35:31Z</time>
      </trkpt>
      <trkpt lat="42.71289" lon="1.43451">
        <ele>1131.6</ele>
        <time>2020-08-05T10:35:34Z</time>
      </trkpt>
      <trkpt lat="42.71291" lon="1.43458">
        <ele>1132.4</ele>
        <time>2020-08-05T10:35:37Z</time>
      </trkpt>
      <trkpt lat="42.71293" lon="1.43462">
        <ele>1132.8</ele>
        <time>2020-08-05T10:35:39Z</time>
      </trkpt>
      <trkpt lat="42.71296" lon="1.43468">
        <ele>1133.4</ele>
        <time>2020-08-05T10:35:42Z</time>
      </trkpt>
      <trkpt lat="42.71298" lon="1.43473">
        <ele>1134</ele>
        <time>2020-08-05T10:35:45Z</time>
      </trkpt>
      <trkpt lat="42.713" lon="1.43479">
        <ele>1134.6</ele>
        <time>2020-08-05T10:35:48Z</time>
      </trkpt>
      <trkpt lat="42.71302" lon="1.43483">
        <ele>1135</ele>
        <time>2020-08-05T10:35:50Z</time>
      </trkpt>
      <trkpt lat="42.71307" lon="1.43489">
        <ele>1135.6</ele>
        <time>2020-08-05T10:35:54Z</time>
      </trkpt>
      <trkpt lat="42.71309" lon="1.43494">
        <ele>1136.2</ele>
        <time>2020-08-05T10:35:57Z</time>
      </trkpt>
      <trkpt lat="42.71315" lon="1.43504">
        <ele>1137.2</ele>
        <time>2020-08-05T10:36:02Z</time>
      </trkpt>
      <trkpt lat="42.71316" lon="1.43505">
        <ele>1137.6</ele>
        <time>2020-08-05T10:36:03Z</time>
      </trkpt>
      <trkpt lat="42.71317" lon="1.43506">
        <ele>1137.8</ele>
        <time>2020-08-05T10:36:04Z</time>
      </trkpt>
      <trkpt lat="42.7132" lon="1.43509">
        <ele>1138.4</ele>
        <time>2020-08-05T10:36:07Z</time>
      </trkpt>
      <trkpt lat="42.71322" lon="1.43512">
        <ele>1138.8</ele>
        <time>2020-08-05T10:36:09Z</time>
      </trkpt>
      <trkpt lat="42.71325" lon="1.43519">
        <ele>1139.4</ele>
        <time>2020-08-05T10:36:14Z</time>
      </trkpt>
      <trkpt lat="42.71328" lon="1.43521">
        <ele>1140</ele>
        <time>2020-08-05T10:36:16Z</time>
      </trkpt>
      <trkpt lat="42.71329" lon="1.43527">
        <ele>1140.4</ele>
        <time>2020-08-05T10:36:19Z</time>
      </trkpt>
      <trkpt lat="42.71332" lon="1.43532">
        <ele>1141</ele>
        <time>2020-08-05T10:36:22Z</time>
      </trkpt>
      <trkpt lat="42.71334" lon="1.43537">
        <ele>1141.4</ele>
        <time>2020-08-05T10:36:25Z</time>
      </trkpt>
      <trkpt lat="42.71337" lon="1.43541">
        <ele>1142</ele>
        <time>2020-08-05T10:36:28Z</time>
      </trkpt>
      <trkpt lat="42.71341" lon="1.43548">
        <ele>1142.6</ele>
        <time>2020-08-05T10:36:32Z</time>
      </trkpt>
      <trkpt lat="42.71345" lon="1.43551">
        <ele>1143</ele>
        <time>2020-08-05T10:36:35Z</time>
      </trkpt>
      <trkpt lat="42.71347" lon="1.43556">
        <ele>1143.4</ele>
        <time>2020-08-05T10:36:38Z</time>
      </trkpt>
      <trkpt lat="42.71349" lon="1.43564">
        <ele>1144.2</ele>
        <time>2020-08-05T10:36:43Z</time>
      </trkpt>
      <trkpt lat="42.71348" lon="1.43566">
        <ele>1144.4</ele>
        <time>2020-08-05T10:36:44Z</time>
      </trkpt>
      <trkpt lat="42.71346" lon="1.43566">
        <ele>1144.4</ele>
        <time>2020-08-05T10:36:45Z</time>
      </trkpt>
      <trkpt lat="42.71339" lon="1.43568">
        <ele>1145.2</ele>
        <time>2020-08-05T10:36:50Z</time>
      </trkpt>
      <trkpt lat="42.71334" lon="1.43561">
        <ele>1146.2</ele>
        <time>2020-08-05T10:36:55Z</time>
      </trkpt>
      <trkpt lat="42.71333" lon="1.4356">
        <ele>1146.4</ele>
        <time>2020-08-05T10:36:56Z</time>
      </trkpt>
      <trkpt lat="42.71328" lon="1.4355">
        <ele>1147.4</ele>
        <time>2020-08-05T10:37:02Z</time>
      </trkpt>
      <trkpt lat="42.71327" lon="1.43547">
        <ele>1147.8</ele>
        <time>2020-08-05T10:37:04Z</time>
      </trkpt>
      <trkpt lat="42.71321" lon="1.4354">
        <ele>1148.6</ele>
        <time>2020-08-05T10:37:09Z</time>
      </trkpt>
      <trkpt lat="42.71318" lon="1.43537">
        <ele>1149</ele>
        <time>2020-08-05T10:37:12Z</time>
      </trkpt>
      <trkpt lat="42.71314" lon="1.43534">
        <ele>1149.6</ele>
        <time>2020-08-05T10:37:15Z</time>
      </trkpt>
      <trkpt lat="42.71308" lon="1.43527">
        <ele>1150.6</ele>
        <time>2020-08-05T10:37:20Z</time>
      </trkpt>
      <trkpt lat="42.71307" lon="1.43526">
        <ele>1150.8</ele>
        <time>2020-08-05T10:37:21Z</time>
      </trkpt>
      <trkpt lat="42.713" lon="1.43518">
        <ele>1151.6</ele>
        <time>2020-08-05T10:37:27Z</time>
      </trkpt>
      <trkpt lat="42.71297" lon="1.43515">
        <ele>1151.8</ele>
        <time>2020-08-05T10:37:29Z</time>
      </trkpt>
      <trkpt lat="42.71289" lon="1.43506">
        <ele>1152.8</ele>
        <time>2020-08-05T10:37:35Z</time>
      </trkpt>
      <trkpt lat="42.71282" lon="1.43498">
        <ele>1154</ele>
        <time>2020-08-05T10:37:41Z</time>
      </trkpt>
      <trkpt lat="42.71275" lon="1.43491">
        <ele>1155</ele>
        <time>2020-08-05T10:37:46Z</time>
      </trkpt>
      <trkpt lat="42.7127" lon="1.43486">
        <ele>1155.8</ele>
        <time>2020-08-05T10:37:50Z</time>
      </trkpt>
      <trkpt lat="42.71266" lon="1.43482">
        <ele>1156.2</ele>
        <time>2020-08-05T10:37:53Z</time>
      </trkpt>
      <trkpt lat="42.71263" lon="1.43478">
        <ele>1156.8</ele>
        <time>2020-08-05T10:37:56Z</time>
      </trkpt>
      <trkpt lat="42.7126" lon="1.43473">
        <ele>1157.4</ele>
        <time>2020-08-05T10:37:59Z</time>
      </trkpt>
      <trkpt lat="42.71254" lon="1.43468">
        <ele>1158.2</ele>
        <time>2020-08-05T10:38:03Z</time>
      </trkpt>
      <trkpt lat="42.71253" lon="1.43466">
        <ele>1158.4</ele>
        <time>2020-08-05T10:38:04Z</time>
      </trkpt>
      <trkpt lat="42.71246" lon="1.43459">
        <ele>1159.6</ele>
        <time>2020-08-05T10:38:10Z</time>
      </trkpt>
      <trkpt lat="42.71239" lon="1.43452">
        <ele>1160.6</ele>
        <time>2020-08-05T10:38:16Z</time>
      </trkpt>
      <trkpt lat="42.71237" lon="1.43452">
        <ele>1161</ele>
        <time>2020-08-05T10:38:17Z</time>
      </trkpt>
      <trkpt lat="42.71232" lon="1.43448">
        <ele>1161.8</ele>
        <time>2020-08-05T10:38:21Z</time>
      </trkpt>
      <trkpt lat="42.71226" lon="1.43442">
        <ele>1163</ele>
        <time>2020-08-05T10:38:26Z</time>
      </trkpt>
      <trkpt lat="42.71221" lon="1.43435">
        <ele>1164.2</ele>
        <time>2020-08-05T10:38:31Z</time>
      </trkpt>
      <trkpt lat="42.71217" lon="1.43433">
        <ele>1164.4</ele>
        <time>2020-08-05T10:38:33Z</time>
      </trkpt>
      <trkpt lat="42.71215" lon="1.43429">
        <ele>1165.2</ele>
        <time>2020-08-05T10:38:36Z</time>
      </trkpt>
      <trkpt lat="42.71214" lon="1.43429">
        <ele>1165.4</ele>
        <time>2020-08-05T10:38:37Z</time>
      </trkpt>
      <trkpt lat="42.71212" lon="1.43426">
        <ele>1165.6</ele>
        <time>2020-08-05T10:38:39Z</time>
      </trkpt>
      <trkpt lat="42.71206" lon="1.43422">
        <ele>1166.4</ele>
        <time>2020-08-05T10:38:43Z</time>
      </trkpt>
      <trkpt lat="42.71203" lon="1.43418">
        <ele>1167</ele>
        <time>2020-08-05T10:38:46Z</time>
      </trkpt>
      <trkpt lat="42.71202" lon="1.43416">
        <ele>1167.2</ele>
        <time>2020-08-05T10:38:47Z</time>
      </trkpt>
      <trkpt lat="42.712" lon="1.43415">
        <ele>1167.4</ele>
        <time>2020-08-05T10:38:48Z</time>
      </trkpt>
      <trkpt lat="42.71199" lon="1.43414">
        <ele>1167.6</ele>
        <time>2020-08-05T10:38:49Z</time>
      </trkpt>
      <trkpt lat="42.71195" lon="1.43408">
        <ele>1168.6</ele>
        <time>2020-08-05T10:38:53Z</time>
      </trkpt>
      <trkpt lat="42.71192" lon="1.43406">
        <ele>1168.8</ele>
        <time>2020-08-05T10:38:55Z</time>
      </trkpt>
      <trkpt lat="42.7119" lon="1.434">
        <ele>1169.6</ele>
        <time>2020-08-05T10:38:59Z</time>
      </trkpt>
      <trkpt lat="42.71189" lon="1.43399">
        <ele>1169.6</ele>
        <time>2020-08-05T10:39:00Z</time>
      </trkpt>
      <trkpt lat="42.71184" lon="1.4339">
        <ele>1170.8</ele>
        <time>2020-08-05T10:39:06Z</time>
      </trkpt>
      <trkpt lat="42.71183" lon="1.43388">
        <ele>1171</ele>
        <time>2020-08-05T10:39:07Z</time>
      </trkpt>
      <trkpt lat="42.71182" lon="1.43383">
        <ele>1171.4</ele>
        <time>2020-08-05T10:39:09Z</time>
      </trkpt>
      <trkpt lat="42.7118" lon="1.43378">
        <ele>1172</ele>
        <time>2020-08-05T10:39:12Z</time>
      </trkpt>
      <trkpt lat="42.71179" lon="1.43376">
        <ele>1172.2</ele>
        <time>2020-08-05T10:39:13Z</time>
      </trkpt>
      <trkpt lat="42.71178" lon="1.43374">
        <ele>1172.2</ele>
        <time>2020-08-05T10:39:14Z</time>
      </trkpt>
      <trkpt lat="42.71174" lon="1.43369">
        <ele>1173</ele>
        <time>2020-08-05T10:39:18Z</time>
      </trkpt>
      <trkpt lat="42.7117" lon="1.43365">
        <ele>1173.6</ele>
        <time>2020-08-05T10:39:22Z</time>
      </trkpt>
      <trkpt lat="42.71167" lon="1.43363">
        <ele>1174</ele>
        <time>2020-08-05T10:39:24Z</time>
      </trkpt>
      <trkpt lat="42.71161" lon="1.43357">
        <ele>1175</ele>
        <time>2020-08-05T10:39:29Z</time>
      </trkpt>
      <trkpt lat="42.7116" lon="1.43356">
        <ele>1175</ele>
        <time>2020-08-05T10:39:30Z</time>
      </trkpt>
      <trkpt lat="42.71151" lon="1.43354">
        <ele>1176</ele>
        <time>2020-08-05T10:39:36Z</time>
      </trkpt>
      <trkpt lat="42.7115" lon="1.43353">
        <ele>1176.2</ele>
        <time>2020-08-05T10:39:37Z</time>
      </trkpt>
      <trkpt lat="42.71146" lon="1.4335">
        <ele>1176.8</ele>
        <time>2020-08-05T10:39:40Z</time>
      </trkpt>
      <trkpt lat="42.71145" lon="1.43349">
        <ele>1177.2</ele>
        <time>2020-08-05T10:39:41Z</time>
      </trkpt>
      <trkpt lat="42.71143" lon="1.43349">
        <ele>1177.4</ele>
        <time>2020-08-05T10:39:42Z</time>
      </trkpt>
      <trkpt lat="42.71139" lon="1.43346">
        <ele>1178</ele>
        <time>2020-08-05T10:39:46Z</time>
      </trkpt>
      <trkpt lat="42.71137" lon="1.43343">
        <ele>1178.6</ele>
        <time>2020-08-05T10:39:48Z</time>
      </trkpt>
      <trkpt lat="42.71135" lon="1.43337">
        <ele>1179.4</ele>
        <time>2020-08-05T10:39:52Z</time>
      </trkpt>
      <trkpt lat="42.71134" lon="1.43336">
        <ele>1179.6</ele>
        <time>2020-08-05T10:39:53Z</time>
      </trkpt>
      <trkpt lat="42.71131" lon="1.43329">
        <ele>1180.8</ele>
        <time>2020-08-05T10:39:59Z</time>
      </trkpt>
      <trkpt lat="42.7113" lon="1.43324">
        <ele>1181.8</ele>
        <time>2020-08-05T10:40:04Z</time>
      </trkpt>
      <trkpt lat="42.71128" lon="1.43321">
        <ele>1182</ele>
        <time>2020-08-05T10:40:05Z</time>
      </trkpt>
      <trkpt lat="42.71125" lon="1.43315">
        <ele>1182.8</ele>
        <time>2020-08-05T10:40:09Z</time>
      </trkpt>
      <trkpt lat="42.71125" lon="1.43314">
        <ele>1183</ele>
        <time>2020-08-05T10:40:10Z</time>
      </trkpt>
      <trkpt lat="42.71121" lon="1.43306">
        <ele>1183.8</ele>
        <time>2020-08-05T10:40:15Z</time>
      </trkpt>
      <trkpt lat="42.7112" lon="1.43304">
        <ele>1184</ele>
        <time>2020-08-05T10:40:16Z</time>
      </trkpt>
      <trkpt lat="42.7112" lon="1.43303">
        <ele>1184.2</ele>
        <time>2020-08-05T10:40:17Z</time>
      </trkpt>
      <trkpt lat="42.71117" lon="1.43295">
        <ele>1184.8</ele>
        <time>2020-08-05T10:40:22Z</time>
      </trkpt>
      <trkpt lat="42.71116" lon="1.43294">
        <ele>1185</ele>
        <time>2020-08-05T10:40:23Z</time>
      </trkpt>
      <trkpt lat="42.71111" lon="1.43287">
        <ele>1186</ele>
        <time>2020-08-05T10:40:28Z</time>
      </trkpt>
      <trkpt lat="42.71111" lon="1.43285">
        <ele>1186</ele>
        <time>2020-08-05T10:40:29Z</time>
      </trkpt>
      <trkpt lat="42.71111" lon="1.43283">
        <ele>1186.2</ele>
        <time>2020-08-05T10:40:30Z</time>
      </trkpt>
      <trkpt lat="42.71109" lon="1.43274">
        <ele>1187.2</ele>
        <time>2020-08-05T10:40:35Z</time>
      </trkpt>
      <trkpt lat="42.71107" lon="1.43269">
        <ele>1187.4</ele>
        <time>2020-08-05T10:40:38Z</time>
      </trkpt>
      <trkpt lat="42.71106" lon="1.43265">
        <ele>1187.6</ele>
        <time>2020-08-05T10:40:40Z</time>
      </trkpt>
      <trkpt lat="42.71104" lon="1.43262">
        <ele>1188.2</ele>
        <time>2020-08-05T10:40:43Z</time>
      </trkpt>
      <trkpt lat="42.71103" lon="1.4326">
        <ele>1188.2</ele>
        <time>2020-08-05T10:40:44Z</time>
      </trkpt>
      <trkpt lat="42.71095" lon="1.43251">
        <ele>1189</ele>
        <time>2020-08-05T10:40:50Z</time>
      </trkpt>
      <trkpt lat="42.71093" lon="1.43251">
        <ele>1189.2</ele>
        <time>2020-08-05T10:40:51Z</time>
      </trkpt>
      <trkpt lat="42.71088" lon="1.43251">
        <ele>1189.8</ele>
        <time>2020-08-05T10:40:56Z</time>
      </trkpt>
      <trkpt lat="42.71084" lon="1.43258">
        <ele>1190.2</ele>
        <time>2020-08-05T10:41:00Z</time>
      </trkpt>
      <trkpt lat="42.71084" lon="1.43262">
        <ele>1190.6</ele>
        <time>2020-08-05T10:41:02Z</time>
      </trkpt>
      <trkpt lat="42.71089" lon="1.43275">
        <ele>1191.4</ele>
        <time>2020-08-05T10:41:09Z</time>
      </trkpt>
      <trkpt lat="42.71093" lon="1.43284">
        <ele>1192.4</ele>
        <time>2020-08-05T10:41:15Z</time>
      </trkpt>
      <trkpt lat="42.71093" lon="1.43287">
        <ele>1192.4</ele>
        <time>2020-08-05T10:41:16Z</time>
      </trkpt>
      <trkpt lat="42.71093" lon="1.43291">
        <ele>1192.8</ele>
        <time>2020-08-05T10:41:19Z</time>
      </trkpt>
      <trkpt lat="42.71094" lon="1.43297">
        <ele>1193.4</ele>
        <time>2020-08-05T10:41:22Z</time>
      </trkpt>
      <trkpt lat="42.71094" lon="1.4331">
        <ele>1194.6</ele>
        <time>2020-08-05T10:41:29Z</time>
      </trkpt>
      <trkpt lat="42.71095" lon="1.43314">
        <ele>1195</ele>
        <time>2020-08-05T10:41:31Z</time>
      </trkpt>
      <trkpt lat="42.71095" lon="1.43321">
        <ele>1195.6</ele>
        <time>2020-08-05T10:41:34Z</time>
      </trkpt>
      <trkpt lat="42.71096" lon="1.43329">
        <ele>1196.2</ele>
        <time>2020-08-05T10:41:38Z</time>
      </trkpt>
      <trkpt lat="42.71096" lon="1.43333">
        <ele>1196.6</ele>
        <time>2020-08-05T10:41:40Z</time>
      </trkpt>
      <trkpt lat="42.71097" lon="1.43335">
        <ele>1197</ele>
        <time>2020-08-05T10:41:42Z</time>
      </trkpt>
      <trkpt lat="42.711" lon="1.4334">
        <ele>1197.4</ele>
        <time>2020-08-05T10:41:45Z</time>
      </trkpt>
      <trkpt lat="42.71102" lon="1.43346">
        <ele>1197.8</ele>
        <time>2020-08-05T10:41:48Z</time>
      </trkpt>
      <trkpt lat="42.71104" lon="1.43351">
        <ele>1198.4</ele>
        <time>2020-08-05T10:41:51Z</time>
      </trkpt>
      <trkpt lat="42.71108" lon="1.43358">
        <ele>1198.8</ele>
        <time>2020-08-05T10:41:55Z</time>
      </trkpt>
      <trkpt lat="42.71109" lon="1.4336">
        <ele>1199</ele>
        <time>2020-08-05T10:41:56Z</time>
      </trkpt>
      <trkpt lat="42.71109" lon="1.43368">
        <ele>1199.6</ele>
        <time>2020-08-05T10:42:00Z</time>
      </trkpt>
      <trkpt lat="42.71107" lon="1.4337">
        <ele>1199.8</ele>
        <time>2020-08-05T10:42:02Z</time>
      </trkpt>
      <trkpt lat="42.71101" lon="1.4337">
        <ele>1201</ele>
        <time>2020-08-05T10:42:07Z</time>
      </trkpt>
      <trkpt lat="42.711" lon="1.43369">
        <ele>1201.2</ele>
        <time>2020-08-05T10:42:08Z</time>
      </trkpt>
      <trkpt lat="42.71097" lon="1.43362">
        <ele>1202</ele>
        <time>2020-08-05T10:42:13Z</time>
      </trkpt>
      <trkpt lat="42.71097" lon="1.4336">
        <ele>1202.4</ele>
        <time>2020-08-05T10:42:14Z</time>
      </trkpt>
      <trkpt lat="42.71093" lon="1.43351">
        <ele>1203.2</ele>
        <time>2020-08-05T10:42:20Z</time>
      </trkpt>
      <trkpt lat="42.7109" lon="1.43345">
        <ele>1204</ele>
        <time>2020-08-05T10:42:24Z</time>
      </trkpt>
      <trkpt lat="42.7109" lon="1.43344">
        <ele>1204</ele>
        <time>2020-08-05T10:42:25Z</time>
      </trkpt>
      <trkpt lat="42.71089" lon="1.43342">
        <ele>1204.2</ele>
        <time>2020-08-05T10:42:26Z</time>
      </trkpt>
      <trkpt lat="42.71087" lon="1.43338">
        <ele>1205</ele>
        <time>2020-08-05T10:42:29Z</time>
      </trkpt>
      <trkpt lat="42.71087" lon="1.43337">
        <ele>1205.4</ele>
        <time>2020-08-05T10:42:32Z</time>
      </trkpt>
      <trkpt lat="42.71083" lon="1.43327">
        <ele>1206.2</ele>
        <time>2020-08-05T10:42:36Z</time>
      </trkpt>
      <trkpt lat="42.7108" lon="1.43325">
        <ele>1206.4</ele>
        <time>2020-08-05T10:42:38Z</time>
      </trkpt>
      <trkpt lat="42.71076" lon="1.4332">
        <ele>1207.2</ele>
        <time>2020-08-05T10:42:42Z</time>
      </trkpt>
      <trkpt lat="42.71075" lon="1.43318">
        <ele>1207.2</ele>
        <time>2020-08-05T10:42:43Z</time>
      </trkpt>
      <trkpt lat="42.71075" lon="1.43317">
        <ele>1207.4</ele>
        <time>2020-08-05T10:42:44Z</time>
      </trkpt>
      <trkpt lat="42.71073" lon="1.43314">
        <ele>1207.8</ele>
        <time>2020-08-05T10:42:46Z</time>
      </trkpt>
      <trkpt lat="42.71071" lon="1.43312">
        <ele>1208.2</ele>
        <time>2020-08-05T10:42:48Z</time>
      </trkpt>
      <trkpt lat="42.71068" lon="1.43309">
        <ele>1208.4</ele>
        <time>2020-08-05T10:42:50Z</time>
      </trkpt>
      <trkpt lat="42.71062" lon="1.43306">
        <ele>1209.6</ele>
        <time>2020-08-05T10:42:55Z</time>
      </trkpt>
      <trkpt lat="42.7106" lon="1.43307">
        <ele>1209.6</ele>
        <time>2020-08-05T10:42:56Z</time>
      </trkpt>
      <trkpt lat="42.71051" lon="1.43308">
        <ele>1210.6</ele>
        <time>2020-08-05T10:43:02Z</time>
      </trkpt>
      <trkpt lat="42.7105" lon="1.43309">
        <ele>1210.6</ele>
        <time>2020-08-05T10:43:03Z</time>
      </trkpt>
      <trkpt lat="42.71046" lon="1.43307">
        <ele>1211</ele>
        <time>2020-08-05T10:43:06Z</time>
      </trkpt>
      <trkpt lat="42.71043" lon="1.43303">
        <ele>1211.6</ele>
        <time>2020-08-05T10:43:09Z</time>
      </trkpt>
      <trkpt lat="42.71042" lon="1.43302">
        <ele>1211.8</ele>
        <time>2020-08-05T10:43:10Z</time>
      </trkpt>
      <trkpt lat="42.71037" lon="1.43295">
        <ele>1212.8</ele>
        <time>2020-08-05T10:43:16Z</time>
      </trkpt>
      <trkpt lat="42.71037" lon="1.43294">
        <ele>1213</ele>
        <time>2020-08-05T10:43:17Z</time>
      </trkpt>
      <trkpt lat="42.71036" lon="1.43292">
        <ele>1213.2</ele>
        <time>2020-08-05T10:43:18Z</time>
      </trkpt>
      <trkpt lat="42.71032" lon="1.43285">
        <ele>1213.8</ele>
        <time>2020-08-05T10:43:22Z</time>
      </trkpt>
      <trkpt lat="42.71028" lon="1.4328">
        <ele>1214.4</ele>
        <time>2020-08-05T10:43:26Z</time>
      </trkpt>
      <trkpt lat="42.71026" lon="1.43276">
        <ele>1214.8</ele>
        <time>2020-08-05T10:43:29Z</time>
      </trkpt>
      <trkpt lat="42.71024" lon="1.43272">
        <ele>1215.4</ele>
        <time>2020-08-05T10:43:32Z</time>
      </trkpt>
      <trkpt lat="42.71023" lon="1.43271">
        <ele>1215.4</ele>
        <time>2020-08-05T10:43:33Z</time>
      </trkpt>
      <trkpt lat="42.7102" lon="1.43266">
        <ele>1216</ele>
        <time>2020-08-05T10:43:36Z</time>
      </trkpt>
      <trkpt lat="42.71017" lon="1.43261">
        <ele>1216.8</ele>
        <time>2020-08-05T10:43:40Z</time>
      </trkpt>
      <trkpt lat="42.71016" lon="1.43259">
        <ele>1216.8</ele>
        <time>2020-08-05T10:43:41Z</time>
      </trkpt>
      <trkpt lat="42.71016" lon="1.43258">
        <ele>1217</ele>
        <time>2020-08-05T10:43:42Z</time>
      </trkpt>
      <trkpt lat="42.71013" lon="1.4325">
        <ele>1217.8</ele>
        <time>2020-08-05T10:43:46Z</time>
      </trkpt>
      <trkpt lat="42.71012" lon="1.43248">
        <ele>1218.2</ele>
        <time>2020-08-05T10:43:48Z</time>
      </trkpt>
      <trkpt lat="42.71009" lon="1.43241">
        <ele>1219</ele>
        <time>2020-08-05T10:43:52Z</time>
      </trkpt>
      <trkpt lat="42.71008" lon="1.43238">
        <ele>1219.4</ele>
        <time>2020-08-05T10:43:54Z</time>
      </trkpt>
      <trkpt lat="42.71007" lon="1.43234">
        <ele>1219.6</ele>
        <time>2020-08-05T10:43:56Z</time>
      </trkpt>
      <trkpt lat="42.71005" lon="1.4323">
        <ele>1220.4</ele>
        <time>2020-08-05T10:43:59Z</time>
      </trkpt>
      <trkpt lat="42.71004" lon="1.43229">
        <ele>1220.6</ele>
        <time>2020-08-05T10:44:00Z</time>
      </trkpt>
      <trkpt lat="42.71003" lon="1.43223">
        <ele>1221.6</ele>
        <time>2020-08-05T10:44:04Z</time>
      </trkpt>
      <trkpt lat="42.71003" lon="1.43221">
        <ele>1221.8</ele>
        <time>2020-08-05T10:44:05Z</time>
      </trkpt>
      <trkpt lat="42.71001" lon="1.4322">
        <ele>1222</ele>
        <time>2020-08-05T10:44:06Z</time>
      </trkpt>
      <trkpt lat="42.70998" lon="1.43214">
        <ele>1222.6</ele>
        <time>2020-08-05T10:44:10Z</time>
      </trkpt>
      <trkpt lat="42.70996" lon="1.43212">
        <ele>1223</ele>
        <time>2020-08-05T10:44:12Z</time>
      </trkpt>
      <trkpt lat="42.70992" lon="1.43207">
        <ele>1223.8</ele>
        <time>2020-08-05T10:44:16Z</time>
      </trkpt>
      <trkpt lat="42.70988" lon="1.43201">
        <ele>1224.4</ele>
        <time>2020-08-05T10:44:20Z</time>
      </trkpt>
      <trkpt lat="42.70985" lon="1.432">
        <ele>1224.6</ele>
        <time>2020-08-05T10:44:22Z</time>
      </trkpt>
      <trkpt lat="42.70984" lon="1.43199">
        <ele>1224.8</ele>
        <time>2020-08-05T10:44:23Z</time>
      </trkpt>
      <trkpt lat="42.7098" lon="1.43193">
        <ele>1225.4</ele>
        <time>2020-08-05T10:44:27Z</time>
      </trkpt>
      <trkpt lat="42.70979" lon="1.43189">
        <ele>1225.8</ele>
        <time>2020-08-05T10:44:29Z</time>
      </trkpt>
      <trkpt lat="42.70975" lon="1.4318">
        <ele>1227</ele>
        <time>2020-08-05T10:44:35Z</time>
      </trkpt>
      <trkpt lat="42.70971" lon="1.43172">
        <ele>1228</ele>
        <time>2020-08-05T10:44:40Z</time>
      </trkpt>
      <trkpt lat="42.70971" lon="1.43169">
        <ele>1228.4</ele>
        <time>2020-08-05T10:44:42Z</time>
      </trkpt>
      <trkpt lat="42.7097" lon="1.43168">
        <ele>1228.6</ele>
        <time>2020-08-05T10:44:43Z</time>
      </trkpt>
      <trkpt lat="42.70967" lon="1.43163">
        <ele>1229.2</ele>
        <time>2020-08-05T10:44:46Z</time>
      </trkpt>
      <trkpt lat="42.70965" lon="1.4316">
        <ele>1229.6</ele>
        <time>2020-08-05T10:44:48Z</time>
      </trkpt>
      <trkpt lat="42.70964" lon="1.43158">
        <ele>1229.8</ele>
        <time>2020-08-05T10:44:49Z</time>
      </trkpt>
      <trkpt lat="42.70962" lon="1.43156">
        <ele>1230.2</ele>
        <time>2020-08-05T10:44:52Z</time>
      </trkpt>
      <trkpt lat="42.70961" lon="1.43156">
        <ele>1230.4</ele>
        <time>2020-08-05T10:44:55Z</time>
      </trkpt>
      <trkpt lat="42.70962" lon="1.43156">
        <ele>1230.4</ele>
        <time>2020-08-05T10:45:04Z</time>
      </trkpt>
      <trkpt lat="42.70963" lon="1.43157">
        <ele>1230.4</ele>
        <time>2020-08-05T10:45:05Z</time>
      </trkpt>
      <trkpt lat="42.70962" lon="1.43156">
        <ele>1230.2</ele>
        <time>2020-08-05T10:45:09Z</time>
      </trkpt>
      <trkpt lat="42.70962" lon="1.43156">
        <ele>1230.2</ele>
        <time>2020-08-05T10:45:14Z</time>
      </trkpt>
      <trkpt lat="42.70961" lon="1.43156">
        <ele>1230.4</ele>
        <time>2020-08-05T10:45:15Z</time>
      </trkpt>
      <trkpt lat="42.70957" lon="1.43147">
        <ele>1231</ele>
        <time>2020-08-05T10:45:20Z</time>
      </trkpt>
      <trkpt lat="42.70955" lon="1.43144">
        <ele>1231.4</ele>
        <time>2020-08-05T10:45:22Z</time>
      </trkpt>
      <trkpt lat="42.70953" lon="1.43136">
        <ele>1232.2</ele>
        <time>2020-08-05T10:45:27Z</time>
      </trkpt>
      <trkpt lat="42.70953" lon="1.43134">
        <ele>1232.4</ele>
        <time>2020-08-05T10:45:28Z</time>
      </trkpt>
      <trkpt lat="42.70952" lon="1.43126">
        <ele>1233.6</ele>
        <time>2020-08-05T10:45:33Z</time>
      </trkpt>
      <trkpt lat="42.70952" lon="1.43125">
        <ele>1233.8</ele>
        <time>2020-08-05T10:45:34Z</time>
      </trkpt>
      <trkpt lat="42.70952" lon="1.43123">
        <ele>1234</ele>
        <time>2020-08-05T10:45:35Z</time>
      </trkpt>
      <trkpt lat="42.70951" lon="1.43115">
        <ele>1235</ele>
        <time>2020-08-05T10:45:40Z</time>
      </trkpt>
      <trkpt lat="42.70949" lon="1.43106">
        <ele>1236</ele>
        <time>2020-08-05T10:45:46Z</time>
      </trkpt>
      <trkpt lat="42.70949" lon="1.43102">
        <ele>1236.4</ele>
        <time>2020-08-05T10:45:48Z</time>
      </trkpt>
      <trkpt lat="42.70949" lon="1.43096">
        <ele>1237.2</ele>
        <time>2020-08-05T10:45:52Z</time>
      </trkpt>
      <trkpt lat="42.70948" lon="1.43094">
        <ele>1237.4</ele>
        <time>2020-08-05T10:45:53Z</time>
      </trkpt>
      <trkpt lat="42.70946" lon="1.43092">
        <ele>1237.6</ele>
        <time>2020-08-05T10:45:55Z</time>
      </trkpt>
      <trkpt lat="42.70943" lon="1.43087">
        <ele>1238.2</ele>
        <time>2020-08-05T10:45:59Z</time>
      </trkpt>
      <trkpt lat="42.70942" lon="1.43084">
        <ele>1238.4</ele>
        <time>2020-08-05T10:46:01Z</time>
      </trkpt>
      <trkpt lat="42.7094" lon="1.43079">
        <ele>1239.2</ele>
        <time>2020-08-05T10:46:04Z</time>
      </trkpt>
      <trkpt lat="42.70939" lon="1.43078">
        <ele>1239.4</ele>
        <time>2020-08-05T10:46:05Z</time>
      </trkpt>
      <trkpt lat="42.70935" lon="1.43072">
        <ele>1240</ele>
        <time>2020-08-05T10:46:09Z</time>
      </trkpt>
      <trkpt lat="42.70935" lon="1.43071">
        <ele>1240.2</ele>
        <time>2020-08-05T10:46:10Z</time>
      </trkpt>
      <trkpt lat="42.70931" lon="1.43062">
        <ele>1241.2</ele>
        <time>2020-08-05T10:46:16Z</time>
      </trkpt>
      <trkpt lat="42.70929" lon="1.43059">
        <ele>1241.4</ele>
        <time>2020-08-05T10:46:18Z</time>
      </trkpt>
      <trkpt lat="42.70926" lon="1.43054">
        <ele>1242</ele>
        <time>2020-08-05T10:46:22Z</time>
      </trkpt>
      <trkpt lat="42.70924" lon="1.4305">
        <ele>1242.2</ele>
        <time>2020-08-05T10:46:24Z</time>
      </trkpt>
      <trkpt lat="42.70919" lon="1.43045">
        <ele>1243.2</ele>
        <time>2020-08-05T10:46:29Z</time>
      </trkpt>
      <trkpt lat="42.70918" lon="1.43044">
        <ele>1243.4</ele>
        <time>2020-08-05T10:46:30Z</time>
      </trkpt>
      <trkpt lat="42.70917" lon="1.43041">
        <ele>1243.6</ele>
        <time>2020-08-05T10:46:32Z</time>
      </trkpt>
      <trkpt lat="42.70915" lon="1.43037">
        <ele>1244</ele>
        <time>2020-08-05T10:46:35Z</time>
      </trkpt>
      <trkpt lat="42.70913" lon="1.43034">
        <ele>1244.4</ele>
        <time>2020-08-05T10:46:37Z</time>
      </trkpt>
      <trkpt lat="42.70911" lon="1.43027">
        <ele>1244.8</ele>
        <time>2020-08-05T10:46:41Z</time>
      </trkpt>
      <trkpt lat="42.70909" lon="1.43022">
        <ele>1245.4</ele>
        <time>2020-08-05T10:46:45Z</time>
      </trkpt>
      <trkpt lat="42.70908" lon="1.4302">
        <ele>1245.6</ele>
        <time>2020-08-05T10:46:46Z</time>
      </trkpt>
      <trkpt lat="42.70907" lon="1.43017">
        <ele>1245.8</ele>
        <time>2020-08-05T10:46:48Z</time>
      </trkpt>
      <trkpt lat="42.70904" lon="1.43011">
        <ele>1246.6</ele>
        <time>2020-08-05T10:46:52Z</time>
      </trkpt>
      <trkpt lat="42.70902" lon="1.43007">
        <ele>1247</ele>
        <time>2020-08-05T10:46:55Z</time>
      </trkpt>
      <trkpt lat="42.709" lon="1.43001">
        <ele>1247.8</ele>
        <time>2020-08-05T10:46:59Z</time>
      </trkpt>
      <trkpt lat="42.70897" lon="1.42998">
        <ele>1248</ele>
        <time>2020-08-05T10:47:01Z</time>
      </trkpt>
      <trkpt lat="42.70893" lon="1.42995">
        <ele>1248.6</ele>
        <time>2020-08-05T10:47:05Z</time>
      </trkpt>
      <trkpt lat="42.70891" lon="1.42995">
        <ele>1248.8</ele>
        <time>2020-08-05T10:47:06Z</time>
      </trkpt>
      <trkpt lat="42.70888" lon="1.42996">
        <ele>1249</ele>
        <time>2020-08-05T10:47:08Z</time>
      </trkpt>
      <trkpt lat="42.70885" lon="1.43002">
        <ele>1249.4</ele>
        <time>2020-08-05T10:47:12Z</time>
      </trkpt>
      <trkpt lat="42.70885" lon="1.43004">
        <ele>1249.6</ele>
        <time>2020-08-05T10:47:13Z</time>
      </trkpt>
      <trkpt lat="42.70885" lon="1.43006">
        <ele>1249.6</ele>
        <time>2020-08-05T10:47:14Z</time>
      </trkpt>
      <trkpt lat="42.70885" lon="1.43007">
        <ele>1249.8</ele>
        <time>2020-08-05T10:47:15Z</time>
      </trkpt>
      <trkpt lat="42.70888" lon="1.43013">
        <ele>1250.6</ele>
        <time>2020-08-05T10:47:19Z</time>
      </trkpt>
      <trkpt lat="42.7089" lon="1.43018">
        <ele>1251</ele>
        <time>2020-08-05T10:47:22Z</time>
      </trkpt>
      <trkpt lat="42.70894" lon="1.43025">
        <ele>1251.6</ele>
        <time>2020-08-05T10:47:27Z</time>
      </trkpt>
      <trkpt lat="42.70895" lon="1.4303">
        <ele>1252</ele>
        <time>2020-08-05T10:47:30Z</time>
      </trkpt>
      <trkpt lat="42.70896" lon="1.43033">
        <ele>1252.2</ele>
        <time>2020-08-05T10:47:32Z</time>
      </trkpt>
      <trkpt lat="42.70896" lon="1.43034">
        <ele>1252.4</ele>
        <time>2020-08-05T10:47:33Z</time>
      </trkpt>
      <trkpt lat="42.70901" lon="1.43042">
        <ele>1253.2</ele>
        <time>2020-08-05T10:47:38Z</time>
      </trkpt>
      <trkpt lat="42.70901" lon="1.43044">
        <ele>1253.2</ele>
        <time>2020-08-05T10:47:39Z</time>
      </trkpt>
      <trkpt lat="42.70902" lon="1.43045">
        <ele>1253.4</ele>
        <time>2020-08-05T10:47:40Z</time>
      </trkpt>
      <trkpt lat="42.70904" lon="1.43052">
        <ele>1254</ele>
        <time>2020-08-05T10:47:44Z</time>
      </trkpt>
      <trkpt lat="42.70905" lon="1.43056">
        <ele>1254.4</ele>
        <time>2020-08-05T10:47:46Z</time>
      </trkpt>
      <trkpt lat="42.70907" lon="1.43063">
        <ele>1254.8</ele>
        <time>2020-08-05T10:47:50Z</time>
      </trkpt>
      <trkpt lat="42.70909" lon="1.43069">
        <ele>1255.4</ele>
        <time>2020-08-05T10:47:54Z</time>
      </trkpt>
      <trkpt lat="42.7091" lon="1.43077">
        <ele>1255.6</ele>
        <time>2020-08-05T10:47:58Z</time>
      </trkpt>
      <trkpt lat="42.70903" lon="1.43079">
        <ele>1256.4</ele>
        <time>2020-08-05T10:48:03Z</time>
      </trkpt>
      <trkpt lat="42.70899" lon="1.43073">
        <ele>1257.2</ele>
        <time>2020-08-05T10:48:08Z</time>
      </trkpt>
      <trkpt lat="42.70898" lon="1.4307">
        <ele>1257.4</ele>
        <time>2020-08-05T10:48:10Z</time>
      </trkpt>
      <trkpt lat="42.70897" lon="1.43064">
        <ele>1257.8</ele>
        <time>2020-08-05T10:48:13Z</time>
      </trkpt>
      <trkpt lat="42.70897" lon="1.43062">
        <ele>1258</ele>
        <time>2020-08-05T10:48:14Z</time>
      </trkpt>
      <trkpt lat="42.70896" lon="1.43054">
        <ele>1258.4</ele>
        <time>2020-08-05T10:48:18Z</time>
      </trkpt>
      <trkpt lat="42.70895" lon="1.43053">
        <ele>1258.6</ele>
        <time>2020-08-05T10:48:19Z</time>
      </trkpt>
      <trkpt lat="42.7089" lon="1.43047">
        <ele>1259.2</ele>
        <time>2020-08-05T10:48:23Z</time>
      </trkpt>
      <trkpt lat="42.70889" lon="1.43044">
        <ele>1259.4</ele>
        <time>2020-08-05T10:48:25Z</time>
      </trkpt>
      <trkpt lat="42.70887" lon="1.43041">
        <ele>1259.6</ele>
        <time>2020-08-05T10:48:27Z</time>
      </trkpt>
      <trkpt lat="42.70883" lon="1.43036">
        <ele>1260.6</ele>
        <time>2020-08-05T10:48:32Z</time>
      </trkpt>
      <trkpt lat="42.70882" lon="1.43034">
        <ele>1260.6</ele>
        <time>2020-08-05T10:48:33Z</time>
      </trkpt>
      <trkpt lat="42.70877" lon="1.43029">
        <ele>1261.8</ele>
        <time>2020-08-05T10:48:38Z</time>
      </trkpt>
      <trkpt lat="42.70876" lon="1.43025">
        <ele>1262.2</ele>
        <time>2020-08-05T10:48:41Z</time>
      </trkpt>
      <trkpt lat="42.70872" lon="1.43019">
        <ele>1262.8</ele>
        <time>2020-08-05T10:48:45Z</time>
      </trkpt>
      <trkpt lat="42.70868" lon="1.43017">
        <ele>1263.4</ele>
        <time>2020-08-05T10:48:48Z</time>
      </trkpt>
      <trkpt lat="42.70865" lon="1.43013">
        <ele>1263.8</ele>
        <time>2020-08-05T10:48:51Z</time>
      </trkpt>
      <trkpt lat="42.70861" lon="1.43008">
        <ele>1264.8</ele>
        <time>2020-08-05T10:48:55Z</time>
      </trkpt>
      <trkpt lat="42.70861" lon="1.43007">
        <ele>1264.8</ele>
        <time>2020-08-05T10:48:56Z</time>
      </trkpt>
      <trkpt lat="42.7086" lon="1.42999">
        <ele>1265.4</ele>
        <time>2020-08-05T10:49:00Z</time>
      </trkpt>
      <trkpt lat="42.70859" lon="1.42996">
        <ele>1265.8</ele>
        <time>2020-08-05T10:49:02Z</time>
      </trkpt>
      <trkpt lat="42.70858" lon="1.42992">
        <ele>1266.2</ele>
        <time>2020-08-05T10:49:04Z</time>
      </trkpt>
      <trkpt lat="42.70857" lon="1.42982">
        <ele>1266.8</ele>
        <time>2020-08-05T10:49:09Z</time>
      </trkpt>
      <trkpt lat="42.70855" lon="1.42969">
        <ele>1268.2</ele>
        <time>2020-08-05T10:49:16Z</time>
      </trkpt>
      <trkpt lat="42.70855" lon="1.42967">
        <ele>1268.2</ele>
        <time>2020-08-05T10:49:17Z</time>
      </trkpt>
      <trkpt lat="42.70853" lon="1.42958">
        <ele>1269.2</ele>
        <time>2020-08-05T10:49:22Z</time>
      </trkpt>
      <trkpt lat="42.70853" lon="1.42954">
        <ele>1269.6</ele>
        <time>2020-08-05T10:49:24Z</time>
      </trkpt>
      <trkpt lat="42.7085" lon="1.42945">
        <ele>1270.2</ele>
        <time>2020-08-05T10:49:29Z</time>
      </trkpt>
      <trkpt lat="42.7085" lon="1.42942">
        <ele>1270.8</ele>
        <time>2020-08-05T10:49:31Z</time>
      </trkpt>
      <trkpt lat="42.70849" lon="1.42935">
        <ele>1271.2</ele>
        <time>2020-08-05T10:49:35Z</time>
      </trkpt>
      <trkpt lat="42.70848" lon="1.42927">
        <ele>1272.2</ele>
        <time>2020-08-05T10:49:40Z</time>
      </trkpt>
      <trkpt lat="42.70848" lon="1.42926">
        <ele>1272.4</ele>
        <time>2020-08-05T10:49:41Z</time>
      </trkpt>
      <trkpt lat="42.70845" lon="1.42913">
        <ele>1273.2</ele>
        <time>2020-08-05T10:49:48Z</time>
      </trkpt>
      <trkpt lat="42.70845" lon="1.42911">
        <ele>1273.4</ele>
        <time>2020-08-05T10:49:49Z</time>
      </trkpt>
      <trkpt lat="42.7084" lon="1.42899">
        <ele>1274.4</ele>
        <time>2020-08-05T10:49:56Z</time>
      </trkpt>
      <trkpt lat="42.7084" lon="1.42897">
        <ele>1274.6</ele>
        <time>2020-08-05T10:49:57Z</time>
      </trkpt>
      <trkpt lat="42.70839" lon="1.42888">
        <ele>1275.2</ele>
        <time>2020-08-05T10:50:02Z</time>
      </trkpt>
      <trkpt lat="42.70839" lon="1.42884">
        <ele>1275.6</ele>
        <time>2020-08-05T10:50:04Z</time>
      </trkpt>
      <trkpt lat="42.70839" lon="1.42875">
        <ele>1276.2</ele>
        <time>2020-08-05T10:50:09Z</time>
      </trkpt>
      <trkpt lat="42.7084" lon="1.42869">
        <ele>1276.8</ele>
        <time>2020-08-05T10:50:12Z</time>
      </trkpt>
      <trkpt lat="42.7084" lon="1.4286">
        <ele>1277.6</ele>
        <time>2020-08-05T10:50:17Z</time>
      </trkpt>
      <trkpt lat="42.70841" lon="1.42858">
        <ele>1277.8</ele>
        <time>2020-08-05T10:50:18Z</time>
      </trkpt>
      <trkpt lat="42.70841" lon="1.42856">
        <ele>1278</ele>
        <time>2020-08-05T10:50:19Z</time>
      </trkpt>
      <trkpt lat="42.70841" lon="1.42848">
        <ele>1278.6</ele>
        <time>2020-08-05T10:50:23Z</time>
      </trkpt>
      <trkpt lat="42.70841" lon="1.42845">
        <ele>1279</ele>
        <time>2020-08-05T10:50:25Z</time>
      </trkpt>
      <trkpt lat="42.70844" lon="1.42835">
        <ele>1280</ele>
        <time>2020-08-05T10:50:31Z</time>
      </trkpt>
      <trkpt lat="42.70844" lon="1.42821">
        <ele>1281</ele>
        <time>2020-08-05T10:50:39Z</time>
      </trkpt>
      <trkpt lat="42.70844" lon="1.42819">
        <ele>1281.2</ele>
        <time>2020-08-05T10:50:40Z</time>
      </trkpt>
      <trkpt lat="42.70844" lon="1.42816">
        <ele>1281.6</ele>
        <time>2020-08-05T10:50:42Z</time>
      </trkpt>
      <trkpt lat="42.70843" lon="1.42811">
        <ele>1282.2</ele>
        <time>2020-08-05T10:50:45Z</time>
      </trkpt>
      <trkpt lat="42.70843" lon="1.42808">
        <ele>1282.4</ele>
        <time>2020-08-05T10:50:47Z</time>
      </trkpt>
      <trkpt lat="42.7084" lon="1.42801">
        <ele>1283.2</ele>
        <time>2020-08-05T10:50:52Z</time>
      </trkpt>
      <trkpt lat="42.70839" lon="1.428">
        <ele>1283.6</ele>
        <time>2020-08-05T10:50:53Z</time>
      </trkpt>
      <trkpt lat="42.70837" lon="1.42796">
        <ele>1284</ele>
        <time>2020-08-05T10:50:56Z</time>
      </trkpt>
      <trkpt lat="42.70835" lon="1.42791">
        <ele>1284.4</ele>
        <time>2020-08-05T10:50:59Z</time>
      </trkpt>
      <trkpt lat="42.70834" lon="1.4279">
        <ele>1284.6</ele>
        <time>2020-08-05T10:51:00Z</time>
      </trkpt>
      <trkpt lat="42.70834" lon="1.42789">
        <ele>1284.6</ele>
        <time>2020-08-05T10:51:01Z</time>
      </trkpt>
      <trkpt lat="42.70831" lon="1.42783">
        <ele>1285.4</ele>
        <time>2020-08-05T10:51:06Z</time>
      </trkpt>
      <trkpt lat="42.7083" lon="1.42779">
        <ele>1285.8</ele>
        <time>2020-08-05T10:51:08Z</time>
      </trkpt>
      <trkpt lat="42.70827" lon="1.42772">
        <ele>1286.4</ele>
        <time>2020-08-05T10:51:12Z</time>
      </trkpt>
      <trkpt lat="42.70827" lon="1.4277">
        <ele>1286.4</ele>
        <time>2020-08-05T10:51:13Z</time>
      </trkpt>
      <trkpt lat="42.70826" lon="1.42768">
        <ele>1286.6</ele>
        <time>2020-08-05T10:51:14Z</time>
      </trkpt>
      <trkpt lat="42.70822" lon="1.42755">
        <ele>1287.6</ele>
        <time>2020-08-05T10:51:21Z</time>
      </trkpt>
      <trkpt lat="42.7082" lon="1.42743">
        <ele>1288.2</ele>
        <time>2020-08-05T10:51:27Z</time>
      </trkpt>
      <trkpt lat="42.70819" lon="1.42738">
        <ele>1288.6</ele>
        <time>2020-08-05T10:51:30Z</time>
      </trkpt>
      <trkpt lat="42.70817" lon="1.42733">
        <ele>1289</ele>
        <time>2020-08-05T10:51:33Z</time>
      </trkpt>
      <trkpt lat="42.70816" lon="1.42726">
        <ele>1289.4</ele>
        <time>2020-08-05T10:51:37Z</time>
      </trkpt>
      <trkpt lat="42.70815" lon="1.42723">
        <ele>1289.6</ele>
        <time>2020-08-05T10:51:39Z</time>
      </trkpt>
      <trkpt lat="42.70812" lon="1.42713">
        <ele>1290.8</ele>
        <time>2020-08-05T10:51:45Z</time>
      </trkpt>
      <trkpt lat="42.70809" lon="1.42704">
        <ele>1291.6</ele>
        <time>2020-08-05T10:51:51Z</time>
      </trkpt>
      <trkpt lat="42.70807" lon="1.427">
        <ele>1291.8</ele>
        <time>2020-08-05T10:51:53Z</time>
      </trkpt>
      <trkpt lat="42.70807" lon="1.42699">
        <ele>1292</ele>
        <time>2020-08-05T10:51:54Z</time>
      </trkpt>
      <trkpt lat="42.70804" lon="1.42696">
        <ele>1292.6</ele>
        <time>2020-08-05T10:51:57Z</time>
      </trkpt>
      <trkpt lat="42.70801" lon="1.42694">
        <ele>1293</ele>
        <time>2020-08-05T10:51:59Z</time>
      </trkpt>
      <trkpt lat="42.708" lon="1.42693">
        <ele>1293</ele>
        <time>2020-08-05T10:52:00Z</time>
      </trkpt>
      <trkpt lat="42.70797" lon="1.42687">
        <ele>1293.6</ele>
        <time>2020-08-05T10:52:03Z</time>
      </trkpt>
      <trkpt lat="42.70797" lon="1.42686">
        <ele>1294</ele>
        <time>2020-08-05T10:52:04Z</time>
      </trkpt>
      <trkpt lat="42.70796" lon="1.42682">
        <ele>1294.2</ele>
        <time>2020-08-05T10:52:06Z</time>
      </trkpt>
      <trkpt lat="42.70795" lon="1.42679">
        <ele>1294.6</ele>
        <time>2020-08-05T10:52:08Z</time>
      </trkpt>
      <trkpt lat="42.70795" lon="1.42676">
        <ele>1294.8</ele>
        <time>2020-08-05T10:52:10Z</time>
      </trkpt>
      <trkpt lat="42.70795" lon="1.42674">
        <ele>1295</ele>
        <time>2020-08-05T10:52:11Z</time>
      </trkpt>
      <trkpt lat="42.70792" lon="1.42666">
        <ele>1295.8</ele>
        <time>2020-08-05T10:52:16Z</time>
      </trkpt>
      <trkpt lat="42.70791" lon="1.4266">
        <ele>1296.2</ele>
        <time>2020-08-05T10:52:19Z</time>
      </trkpt>
      <trkpt lat="42.7079" lon="1.42655">
        <ele>1296.6</ele>
        <time>2020-08-05T10:52:22Z</time>
      </trkpt>
      <trkpt lat="42.70788" lon="1.42644">
        <ele>1297.4</ele>
        <time>2020-08-05T10:52:28Z</time>
      </trkpt>
      <trkpt lat="42.70785" lon="1.42631">
        <ele>1298.4</ele>
        <time>2020-08-05T10:52:35Z</time>
      </trkpt>
      <trkpt lat="42.70784" lon="1.4263">
        <ele>1298.4</ele>
        <time>2020-08-05T10:52:36Z</time>
      </trkpt>
      <trkpt lat="42.70782" lon="1.42619">
        <ele>1299.4</ele>
        <time>2020-08-05T10:52:42Z</time>
      </trkpt>
      <trkpt lat="42.70782" lon="1.42617">
        <ele>1299.4</ele>
        <time>2020-08-05T10:52:43Z</time>
      </trkpt>
      <trkpt lat="42.70777" lon="1.42603">
        <ele>1300.6</ele>
        <time>2020-08-05T10:52:51Z</time>
      </trkpt>
      <trkpt lat="42.70775" lon="1.42595">
        <ele>1301.6</ele>
        <time>2020-08-05T10:52:56Z</time>
      </trkpt>
      <trkpt lat="42.70773" lon="1.42592">
        <ele>1301.6</ele>
        <time>2020-08-05T10:52:58Z</time>
      </trkpt>
      <trkpt lat="42.7077" lon="1.42583">
        <ele>1302.6</ele>
        <time>2020-08-05T10:53:04Z</time>
      </trkpt>
      <trkpt lat="42.70768" lon="1.42578">
        <ele>1303.2</ele>
        <time>2020-08-05T10:53:07Z</time>
      </trkpt>
      <trkpt lat="42.70767" lon="1.42578">
        <ele>1303.2</ele>
        <time>2020-08-05T10:53:08Z</time>
      </trkpt>
      <trkpt lat="42.70764" lon="1.42572">
        <ele>1303.8</ele>
        <time>2020-08-05T10:53:12Z</time>
      </trkpt>
      <trkpt lat="42.70762" lon="1.42569">
        <ele>1304</ele>
        <time>2020-08-05T10:53:14Z</time>
      </trkpt>
      <trkpt lat="42.70759" lon="1.42565">
        <ele>1304.6</ele>
        <time>2020-08-05T10:53:17Z</time>
      </trkpt>
      <trkpt lat="42.70759" lon="1.42563">
        <ele>1304.8</ele>
        <time>2020-08-05T10:53:18Z</time>
      </trkpt>
      <trkpt lat="42.70755" lon="1.42554">
        <ele>1305.8</ele>
        <time>2020-08-05T10:53:24Z</time>
      </trkpt>
      <trkpt lat="42.70755" lon="1.42552">
        <ele>1306</ele>
        <time>2020-08-05T10:53:25Z</time>
      </trkpt>
      <trkpt lat="42.7075" lon="1.42544">
        <ele>1306.8</ele>
        <time>2020-08-05T10:53:31Z</time>
      </trkpt>
      <trkpt lat="42.70749" lon="1.42543">
        <ele>1306.8</ele>
        <time>2020-08-05T10:53:32Z</time>
      </trkpt>
      <trkpt lat="42.70745" lon="1.42535">
        <ele>1307.8</ele>
        <time>2020-08-05T10:53:38Z</time>
      </trkpt>
      <trkpt lat="42.70744" lon="1.42534">
        <ele>1308</ele>
        <time>2020-08-05T10:53:39Z</time>
      </trkpt>
      <trkpt lat="42.70739" lon="1.42527">
        <ele>1309</ele>
        <time>2020-08-05T10:53:45Z</time>
      </trkpt>
      <trkpt lat="42.70738" lon="1.42522">
        <ele>1309.6</ele>
        <time>2020-08-05T10:53:48Z</time>
      </trkpt>
      <trkpt lat="42.70735" lon="1.42519">
        <ele>1309.8</ele>
        <time>2020-08-05T10:53:51Z</time>
      </trkpt>
      <trkpt lat="42.70735" lon="1.42517">
        <ele>1310</ele>
        <time>2020-08-05T10:53:52Z</time>
      </trkpt>
      <trkpt lat="42.70731" lon="1.42508">
        <ele>1311</ele>
        <time>2020-08-05T10:53:58Z</time>
      </trkpt>
      <trkpt lat="42.7073" lon="1.42507">
        <ele>1311.2</ele>
        <time>2020-08-05T10:53:59Z</time>
      </trkpt>
      <trkpt lat="42.7073" lon="1.42506">
        <ele>1311.2</ele>
        <time>2020-08-05T10:54:00Z</time>
      </trkpt>
      <trkpt lat="42.70728" lon="1.42499">
        <ele>1312</ele>
        <time>2020-08-05T10:54:04Z</time>
      </trkpt>
      <trkpt lat="42.70727" lon="1.42497">
        <ele>1312.2</ele>
        <time>2020-08-05T10:54:07Z</time>
      </trkpt>
      <trkpt lat="42.70725" lon="1.42494">
        <ele>1312.6</ele>
        <time>2020-08-05T10:54:10Z</time>
      </trkpt>
      <trkpt lat="42.70724" lon="1.42492">
        <ele>1312.8</ele>
        <time>2020-08-05T10:54:12Z</time>
      </trkpt>
      <trkpt lat="42.70722" lon="1.42487">
        <ele>1313.2</ele>
        <time>2020-08-05T10:54:15Z</time>
      </trkpt>
      <trkpt lat="42.70721" lon="1.42484">
        <ele>1313.4</ele>
        <time>2020-08-05T10:54:17Z</time>
      </trkpt>
      <trkpt lat="42.70718" lon="1.4248">
        <ele>1314</ele>
        <time>2020-08-05T10:54:20Z</time>
      </trkpt>
      <trkpt lat="42.70717" lon="1.42477">
        <ele>1314.2</ele>
        <time>2020-08-05T10:54:22Z</time>
      </trkpt>
      <trkpt lat="42.70716" lon="1.42474">
        <ele>1314.6</ele>
        <time>2020-08-05T10:54:24Z</time>
      </trkpt>
      <trkpt lat="42.70712" lon="1.42469">
        <ele>1315.2</ele>
        <time>2020-08-05T10:54:28Z</time>
      </trkpt>
      <trkpt lat="42.70711" lon="1.42466">
        <ele>1315.8</ele>
        <time>2020-08-05T10:54:31Z</time>
      </trkpt>
      <trkpt lat="42.70709" lon="1.42461">
        <ele>1316.4</ele>
        <time>2020-08-05T10:54:34Z</time>
      </trkpt>
      <trkpt lat="42.70707" lon="1.42458">
        <ele>1316.8</ele>
        <time>2020-08-05T10:54:36Z</time>
      </trkpt>
      <trkpt lat="42.70706" lon="1.42457">
        <ele>1317</ele>
        <time>2020-08-05T10:54:37Z</time>
      </trkpt>
      <trkpt lat="42.70702" lon="1.42453">
        <ele>1317.6</ele>
        <time>2020-08-05T10:54:41Z</time>
      </trkpt>
      <trkpt lat="42.707" lon="1.42451">
        <ele>1317.8</ele>
        <time>2020-08-05T10:54:43Z</time>
      </trkpt>
      <trkpt lat="42.70694" lon="1.42443">
        <ele>1318.6</ele>
        <time>2020-08-05T10:54:49Z</time>
      </trkpt>
      <trkpt lat="42.70694" lon="1.42441">
        <ele>1318.6</ele>
        <time>2020-08-05T10:54:50Z</time>
      </trkpt>
      <trkpt lat="42.7069" lon="1.42436">
        <ele>1319.6</ele>
        <time>2020-08-05T10:54:54Z</time>
      </trkpt>
      <trkpt lat="42.70688" lon="1.42433">
        <ele>1319.8</ele>
        <time>2020-08-05T10:54:56Z</time>
      </trkpt>
      <trkpt lat="42.70685" lon="1.42433">
        <ele>1320.2</ele>
        <time>2020-08-05T10:54:58Z</time>
      </trkpt>
      <trkpt lat="42.70682" lon="1.42435">
        <ele>1320.6</ele>
        <time>2020-08-05T10:55:01Z</time>
      </trkpt>
      <trkpt lat="42.7068" lon="1.42438">
        <ele>1320.8</ele>
        <time>2020-08-05T10:55:03Z</time>
      </trkpt>
      <trkpt lat="42.7068" lon="1.42442">
        <ele>1321.2</ele>
        <time>2020-08-05T10:55:06Z</time>
      </trkpt>
      <trkpt lat="42.7068" lon="1.42443">
        <ele>1321.4</ele>
        <time>2020-08-05T10:55:07Z</time>
      </trkpt>
      <trkpt lat="42.70681" lon="1.42448">
        <ele>1321.8</ele>
        <time>2020-08-05T10:55:10Z</time>
      </trkpt>
      <trkpt lat="42.70684" lon="1.42453">
        <ele>1322.2</ele>
        <time>2020-08-05T10:55:13Z</time>
      </trkpt>
      <trkpt lat="42.70688" lon="1.42462">
        <ele>1322.8</ele>
        <time>2020-08-05T10:55:18Z</time>
      </trkpt>
      <trkpt lat="42.70689" lon="1.42463">
        <ele>1323</ele>
        <time>2020-08-05T10:55:19Z</time>
      </trkpt>
      <trkpt lat="42.70692" lon="1.42473">
        <ele>1323.6</ele>
        <time>2020-08-05T10:55:25Z</time>
      </trkpt>
      <trkpt lat="42.70693" lon="1.42477">
        <ele>1323.8</ele>
        <time>2020-08-05T10:55:27Z</time>
      </trkpt>
      <trkpt lat="42.70695" lon="1.42482">
        <ele>1324.2</ele>
        <time>2020-08-05T10:55:30Z</time>
      </trkpt>
      <trkpt lat="42.70696" lon="1.4249">
        <ele>1325</ele>
        <time>2020-08-05T10:55:35Z</time>
      </trkpt>
      <trkpt lat="42.70697" lon="1.42491">
        <ele>1325</ele>
        <time>2020-08-05T10:55:36Z</time>
      </trkpt>
      <trkpt lat="42.70699" lon="1.42497">
        <ele>1325.8</ele>
        <time>2020-08-05T10:55:40Z</time>
      </trkpt>
      <trkpt lat="42.70699" lon="1.42499">
        <ele>1326</ele>
        <time>2020-08-05T10:55:41Z</time>
      </trkpt>
      <trkpt lat="42.707" lon="1.42501">
        <ele>1326.2</ele>
        <time>2020-08-05T10:55:42Z</time>
      </trkpt>
      <trkpt lat="42.70703" lon="1.42511">
        <ele>1327</ele>
        <time>2020-08-05T10:55:48Z</time>
      </trkpt>
      <trkpt lat="42.70704" lon="1.42513">
        <ele>1327.2</ele>
        <time>2020-08-05T10:55:49Z</time>
      </trkpt>
      <trkpt lat="42.70704" lon="1.42515">
        <ele>1327.2</ele>
        <time>2020-08-05T10:55:50Z</time>
      </trkpt>
      <trkpt lat="42.70707" lon="1.42525">
        <ele>1328.2</ele>
        <time>2020-08-05T10:55:56Z</time>
      </trkpt>
      <trkpt lat="42.70711" lon="1.42536">
        <ele>1329.4</ele>
        <time>2020-08-05T10:56:03Z</time>
      </trkpt>
      <trkpt lat="42.70716" lon="1.42547">
        <ele>1330.4</ele>
        <time>2020-08-05T10:56:09Z</time>
      </trkpt>
      <trkpt lat="42.70716" lon="1.42549">
        <ele>1330.6</ele>
        <time>2020-08-05T10:56:10Z</time>
      </trkpt>
      <trkpt lat="42.70716" lon="1.4255">
        <ele>1330.8</ele>
        <time>2020-08-05T10:56:11Z</time>
      </trkpt>
      <trkpt lat="42.70717" lon="1.42557">
        <ele>1331.4</ele>
        <time>2020-08-05T10:56:15Z</time>
      </trkpt>
      <trkpt lat="42.70718" lon="1.42559">
        <ele>1331.6</ele>
        <time>2020-08-05T10:56:16Z</time>
      </trkpt>
      <trkpt lat="42.70722" lon="1.4257">
        <ele>1332.6</ele>
        <time>2020-08-05T10:56:23Z</time>
      </trkpt>
      <trkpt lat="42.70723" lon="1.42574">
        <ele>1332.8</ele>
        <time>2020-08-05T10:56:25Z</time>
      </trkpt>
      <trkpt lat="42.70724" lon="1.42581">
        <ele>1333.6</ele>
        <time>2020-08-05T10:56:29Z</time>
      </trkpt>
      <trkpt lat="42.70725" lon="1.42585">
        <ele>1334</ele>
        <time>2020-08-05T10:56:31Z</time>
      </trkpt>
      <trkpt lat="42.70729" lon="1.42592">
        <ele>1334.8</ele>
        <time>2020-08-05T10:56:36Z</time>
      </trkpt>
      <trkpt lat="42.70729" lon="1.42593">
        <ele>1334.8</ele>
        <time>2020-08-05T10:56:37Z</time>
      </trkpt>
      <trkpt lat="42.70729" lon="1.42595">
        <ele>1335</ele>
        <time>2020-08-05T10:56:38Z</time>
      </trkpt>
      <trkpt lat="42.70731" lon="1.42599">
        <ele>1335.6</ele>
        <time>2020-08-05T10:56:41Z</time>
      </trkpt>
      <trkpt lat="42.70732" lon="1.42602">
        <ele>1335.8</ele>
        <time>2020-08-05T10:56:43Z</time>
      </trkpt>
      <trkpt lat="42.70735" lon="1.42614">
        <ele>1337</ele>
        <time>2020-08-05T10:56:50Z</time>
      </trkpt>
      <trkpt lat="42.70737" lon="1.42619">
        <ele>1337.8</ele>
        <time>2020-08-05T10:56:54Z</time>
      </trkpt>
      <trkpt lat="42.70737" lon="1.42622">
        <ele>1338</ele>
        <time>2020-08-05T10:56:56Z</time>
      </trkpt>
      <trkpt lat="42.70742" lon="1.42628">
        <ele>1338.6</ele>
        <time>2020-08-05T10:57:01Z</time>
      </trkpt>
      <trkpt lat="42.70742" lon="1.4263">
        <ele>1338.8</ele>
        <time>2020-08-05T10:57:02Z</time>
      </trkpt>
      <trkpt lat="42.70743" lon="1.42632">
        <ele>1339</ele>
        <time>2020-08-05T10:57:03Z</time>
      </trkpt>
      <trkpt lat="42.70744" lon="1.42633">
        <ele>1339.2</ele>
        <time>2020-08-05T10:57:04Z</time>
      </trkpt>
      <trkpt lat="42.70746" lon="1.42643">
        <ele>1340</ele>
        <time>2020-08-05T10:57:10Z</time>
      </trkpt>
      <trkpt lat="42.70746" lon="1.42648">
        <ele>1340.2</ele>
        <time>2020-08-05T10:57:13Z</time>
      </trkpt>
      <trkpt lat="42.70746" lon="1.4265">
        <ele>1340.4</ele>
        <time>2020-08-05T10:57:14Z</time>
      </trkpt>
      <trkpt lat="42.70745" lon="1.42651">
        <ele>1340.6</ele>
        <time>2020-08-05T10:57:15Z</time>
      </trkpt>
      <trkpt lat="42.70744" lon="1.42652">
        <ele>1340.8</ele>
        <time>2020-08-05T10:57:16Z</time>
      </trkpt>
      <trkpt lat="42.7074" lon="1.42652">
        <ele>1341.2</ele>
        <time>2020-08-05T10:57:19Z</time>
      </trkpt>
      <trkpt lat="42.70739" lon="1.42652">
        <ele>1341.4</ele>
        <time>2020-08-05T10:57:20Z</time>
      </trkpt>
      <trkpt lat="42.70737" lon="1.4265">
        <ele>1341.8</ele>
        <time>2020-08-05T10:57:22Z</time>
      </trkpt>
      <trkpt lat="42.70734" lon="1.42645">
        <ele>1342.4</ele>
        <time>2020-08-05T10:57:25Z</time>
      </trkpt>
      <trkpt lat="42.70732" lon="1.42639">
        <ele>1343</ele>
        <time>2020-08-05T10:57:29Z</time>
      </trkpt>
      <trkpt lat="42.7073" lon="1.42636">
        <ele>1343.4</ele>
        <time>2020-08-05T10:57:31Z</time>
      </trkpt>
      <trkpt lat="42.70728" lon="1.42628">
        <ele>1344.2</ele>
        <time>2020-08-05T10:57:36Z</time>
      </trkpt>
      <trkpt lat="42.70727" lon="1.42625">
        <ele>1344.6</ele>
        <time>2020-08-05T10:57:38Z</time>
      </trkpt>
      <trkpt lat="42.70725" lon="1.42623">
        <ele>1345.2</ele>
        <time>2020-08-05T10:57:40Z</time>
      </trkpt>
      <trkpt lat="42.70725" lon="1.42621">
        <ele>1345.4</ele>
        <time>2020-08-05T10:57:41Z</time>
      </trkpt>
      <trkpt lat="42.70723" lon="1.42619">
        <ele>1345.6</ele>
        <time>2020-08-05T10:57:43Z</time>
      </trkpt>
      <trkpt lat="42.70718" lon="1.42612">
        <ele>1346.4</ele>
        <time>2020-08-05T10:57:48Z</time>
      </trkpt>
      <trkpt lat="42.70715" lon="1.4261">
        <ele>1346.8</ele>
        <time>2020-08-05T10:57:50Z</time>
      </trkpt>
      <trkpt lat="42.7071" lon="1.42604">
        <ele>1347.4</ele>
        <time>2020-08-05T10:57:54Z</time>
      </trkpt>
      <trkpt lat="42.70708" lon="1.42601">
        <ele>1348</ele>
        <time>2020-08-05T10:57:56Z</time>
      </trkpt>
      <trkpt lat="42.70703" lon="1.42594">
        <ele>1348.8</ele>
        <time>2020-08-05T10:58:01Z</time>
      </trkpt>
      <trkpt lat="42.70701" lon="1.42591">
        <ele>1349.2</ele>
        <time>2020-08-05T10:58:03Z</time>
      </trkpt>
      <trkpt lat="42.70696" lon="1.42585">
        <ele>1350</ele>
        <time>2020-08-05T10:58:07Z</time>
      </trkpt>
      <trkpt lat="42.70695" lon="1.42584">
        <ele>1350.2</ele>
        <time>2020-08-05T10:58:08Z</time>
      </trkpt>
      <trkpt lat="42.70689" lon="1.42575">
        <ele>1351</ele>
        <time>2020-08-05T10:58:14Z</time>
      </trkpt>
      <trkpt lat="42.70687" lon="1.42572">
        <ele>1351.4</ele>
        <time>2020-08-05T10:58:16Z</time>
      </trkpt>
      <trkpt lat="42.70682" lon="1.42567">
        <ele>1352</ele>
        <time>2020-08-05T10:58:20Z</time>
      </trkpt>
      <trkpt lat="42.7068" lon="1.42563">
        <ele>1352.4</ele>
        <time>2020-08-05T10:58:22Z</time>
      </trkpt>
      <trkpt lat="42.70679" lon="1.42562">
        <ele>1352.6</ele>
        <time>2020-08-05T10:58:23Z</time>
      </trkpt>
      <trkpt lat="42.70676" lon="1.42557">
        <ele>1353.2</ele>
        <time>2020-08-05T10:58:26Z</time>
      </trkpt>
      <trkpt lat="42.70674" lon="1.42553">
        <ele>1353.6</ele>
        <time>2020-08-05T10:58:28Z</time>
      </trkpt>
      <trkpt lat="42.70668" lon="1.42544">
        <ele>1354.8</ele>
        <time>2020-08-05T10:58:33Z</time>
      </trkpt>
      <trkpt lat="42.70659" lon="1.42535">
        <ele>1356</ele>
        <time>2020-08-05T10:58:39Z</time>
      </trkpt>
      <trkpt lat="42.70653" lon="1.42525">
        <ele>1357.2</ele>
        <time>2020-08-05T10:58:45Z</time>
      </trkpt>
      <trkpt lat="42.70651" lon="1.42521">
        <ele>1357.6</ele>
        <time>2020-08-05T10:58:47Z</time>
      </trkpt>
      <trkpt lat="42.70648" lon="1.42515">
        <ele>1358.2</ele>
        <time>2020-08-05T10:58:51Z</time>
      </trkpt>
      <trkpt lat="42.70646" lon="1.42511">
        <ele>1359</ele>
        <time>2020-08-05T10:58:53Z</time>
      </trkpt>
      <trkpt lat="42.70643" lon="1.42508">
        <ele>1359.4</ele>
        <time>2020-08-05T10:58:55Z</time>
      </trkpt>
      <trkpt lat="42.70637" lon="1.425">
        <ele>1360.2</ele>
        <time>2020-08-05T10:59:00Z</time>
      </trkpt>
      <trkpt lat="42.70635" lon="1.42496">
        <ele>1360.6</ele>
        <time>2020-08-05T10:59:02Z</time>
      </trkpt>
      <trkpt lat="42.70633" lon="1.42493">
        <ele>1360.8</ele>
        <time>2020-08-05T10:59:04Z</time>
      </trkpt>
      <trkpt lat="42.70631" lon="1.42489">
        <ele>1361.2</ele>
        <time>2020-08-05T10:59:06Z</time>
      </trkpt>
      <trkpt lat="42.70629" lon="1.42487">
        <ele>1361.6</ele>
        <time>2020-08-05T10:59:08Z</time>
      </trkpt>
      <trkpt lat="42.70626" lon="1.42483">
        <ele>1362.2</ele>
        <time>2020-08-05T10:59:11Z</time>
      </trkpt>
      <trkpt lat="42.70623" lon="1.42478">
        <ele>1362.8</ele>
        <time>2020-08-05T10:59:14Z</time>
      </trkpt>
      <trkpt lat="42.7062" lon="1.42473">
        <ele>1363.6</ele>
        <time>2020-08-05T10:59:17Z</time>
      </trkpt>
      <trkpt lat="42.70618" lon="1.42471">
        <ele>1364</ele>
        <time>2020-08-05T10:59:19Z</time>
      </trkpt>
      <trkpt lat="42.70613" lon="1.4246">
        <ele>1365.2</ele>
        <time>2020-08-05T10:59:25Z</time>
      </trkpt>
      <trkpt lat="42.70611" lon="1.42459">
        <ele>1365.2</ele>
        <time>2020-08-05T10:59:26Z</time>
      </trkpt>
      <trkpt lat="42.70607" lon="1.42452">
        <ele>1366</ele>
        <time>2020-08-05T10:59:30Z</time>
      </trkpt>
      <trkpt lat="42.70606" lon="1.42449">
        <ele>1366.2</ele>
        <time>2020-08-05T10:59:31Z</time>
      </trkpt>
      <trkpt lat="42.70605" lon="1.42445">
        <ele>1366.6</ele>
        <time>2020-08-05T10:59:33Z</time>
      </trkpt>
      <trkpt lat="42.70601" lon="1.42434">
        <ele>1367.4</ele>
        <time>2020-08-05T10:59:38Z</time>
      </trkpt>
      <trkpt lat="42.706" lon="1.4243">
        <ele>1367.8</ele>
        <time>2020-08-05T10:59:40Z</time>
      </trkpt>
      <trkpt lat="42.70598" lon="1.42429">
        <ele>1367.8</ele>
        <time>2020-08-05T10:59:41Z</time>
      </trkpt>
      <trkpt lat="42.70591" lon="1.42427">
        <ele>1368.4</ele>
        <time>2020-08-05T10:59:44Z</time>
      </trkpt>
      <trkpt lat="42.70586" lon="1.42429">
        <ele>1368.8</ele>
        <time>2020-08-05T10:59:47Z</time>
      </trkpt>
      <trkpt lat="42.70585" lon="1.42435">
        <ele>1369.2</ele>
        <time>2020-08-05T10:59:50Z</time>
      </trkpt>
      <trkpt lat="42.70584" lon="1.4244">
        <ele>1369.6</ele>
        <time>2020-08-05T10:59:52Z</time>
      </trkpt>
      <trkpt lat="42.70588" lon="1.4245">
        <ele>1370.4</ele>
        <time>2020-08-05T10:59:58Z</time>
      </trkpt>
      <trkpt lat="42.70588" lon="1.42451">
        <ele>1370.6</ele>
        <time>2020-08-05T10:59:59Z</time>
      </trkpt>
      <trkpt lat="42.70591" lon="1.42456">
        <ele>1370.8</ele>
        <time>2020-08-05T11:00:02Z</time>
      </trkpt>
      <trkpt lat="42.70592" lon="1.42457">
        <ele>1371</ele>
        <time>2020-08-05T11:00:03Z</time>
      </trkpt>
      <trkpt lat="42.70594" lon="1.42462">
        <ele>1371.6</ele>
        <time>2020-08-05T11:00:06Z</time>
      </trkpt>
      <trkpt lat="42.70596" lon="1.42467">
        <ele>1372</ele>
        <time>2020-08-05T11:00:09Z</time>
      </trkpt>
      <trkpt lat="42.70596" lon="1.42469">
        <ele>1372.2</ele>
        <time>2020-08-05T11:00:10Z</time>
      </trkpt>
      <trkpt lat="42.70597" lon="1.42475">
        <ele>1372.6</ele>
        <time>2020-08-05T11:00:13Z</time>
      </trkpt>
      <trkpt lat="42.70599" lon="1.42481">
        <ele>1373.4</ele>
        <time>2020-08-05T11:00:17Z</time>
      </trkpt>
      <trkpt lat="42.706" lon="1.42483">
        <ele>1373.6</ele>
        <time>2020-08-05T11:00:18Z</time>
      </trkpt>
      <trkpt lat="42.706" lon="1.42485">
        <ele>1373.6</ele>
        <time>2020-08-05T11:00:19Z</time>
      </trkpt>
      <trkpt lat="42.70601" lon="1.42488">
        <ele>1373.8</ele>
        <time>2020-08-05T11:00:21Z</time>
      </trkpt>
      <trkpt lat="42.70602" lon="1.42493">
        <ele>1374.2</ele>
        <time>2020-08-05T11:00:23Z</time>
      </trkpt>
      <trkpt lat="42.70602" lon="1.42497">
        <ele>1374.6</ele>
        <time>2020-08-05T11:00:25Z</time>
      </trkpt>
      <trkpt lat="42.70602" lon="1.42498">
        <ele>1374.8</ele>
        <time>2020-08-05T11:00:26Z</time>
      </trkpt>
      <trkpt lat="42.70604" lon="1.42511">
        <ele>1375.8</ele>
        <time>2020-08-05T11:00:33Z</time>
      </trkpt>
      <trkpt lat="42.70606" lon="1.42524">
        <ele>1377</ele>
        <time>2020-08-05T11:00:41Z</time>
      </trkpt>
      <trkpt lat="42.70607" lon="1.42528">
        <ele>1377.4</ele>
        <time>2020-08-05T11:00:43Z</time>
      </trkpt>
      <trkpt lat="42.70609" lon="1.42535">
        <ele>1377.8</ele>
        <time>2020-08-05T11:00:47Z</time>
      </trkpt>
      <trkpt lat="42.7061" lon="1.42537">
        <ele>1378</ele>
        <time>2020-08-05T11:00:48Z</time>
      </trkpt>
      <trkpt lat="42.7061" lon="1.42539">
        <ele>1378</ele>
        <time>2020-08-05T11:00:49Z</time>
      </trkpt>
      <trkpt lat="42.70611" lon="1.42549">
        <ele>1379</ele>
        <time>2020-08-05T11:00:54Z</time>
      </trkpt>
      <trkpt lat="42.7061" lon="1.42551">
        <ele>1379.2</ele>
        <time>2020-08-05T11:00:55Z</time>
      </trkpt>
      <trkpt lat="42.70613" lon="1.42562">
        <ele>1380</ele>
        <time>2020-08-05T11:01:01Z</time>
      </trkpt>
      <trkpt lat="42.70614" lon="1.42564">
        <ele>1380.2</ele>
        <time>2020-08-05T11:01:02Z</time>
      </trkpt>
      <trkpt lat="42.70615" lon="1.42572">
        <ele>1380.8</ele>
        <time>2020-08-05T11:01:06Z</time>
      </trkpt>
      <trkpt lat="42.70616" lon="1.42575">
        <ele>1381</ele>
        <time>2020-08-05T11:01:08Z</time>
      </trkpt>
      <trkpt lat="42.70617" lon="1.42577">
        <ele>1381.2</ele>
        <time>2020-08-05T11:01:09Z</time>
      </trkpt>
      <trkpt lat="42.70619" lon="1.42581">
        <ele>1381.6</ele>
        <time>2020-08-05T11:01:12Z</time>
      </trkpt>
      <trkpt lat="42.70619" lon="1.42583">
        <ele>1381.8</ele>
        <time>2020-08-05T11:01:13Z</time>
      </trkpt>
      <trkpt lat="42.70621" lon="1.42588">
        <ele>1382.2</ele>
        <time>2020-08-05T11:01:16Z</time>
      </trkpt>
      <trkpt lat="42.70621" lon="1.4259">
        <ele>1382.6</ele>
        <time>2020-08-05T11:01:17Z</time>
      </trkpt>
      <trkpt lat="42.70622" lon="1.42592">
        <ele>1382.6</ele>
        <time>2020-08-05T11:01:18Z</time>
      </trkpt>
      <trkpt lat="42.70624" lon="1.42597">
        <ele>1383.2</ele>
        <time>2020-08-05T11:01:21Z</time>
      </trkpt>
      <trkpt lat="42.70626" lon="1.42606">
        <ele>1384</ele>
        <time>2020-08-05T11:01:26Z</time>
      </trkpt>
      <trkpt lat="42.70627" lon="1.42608">
        <ele>1384.2</ele>
        <time>2020-08-05T11:01:27Z</time>
      </trkpt>
      <trkpt lat="42.70628" lon="1.42617">
        <ele>1385.2</ele>
        <time>2020-08-05T11:01:32Z</time>
      </trkpt>
      <trkpt lat="42.70628" lon="1.42619">
        <ele>1385.2</ele>
        <time>2020-08-05T11:01:33Z</time>
      </trkpt>
      <trkpt lat="42.70628" lon="1.42621">
        <ele>1385.4</ele>
        <time>2020-08-05T11:01:34Z</time>
      </trkpt>
      <trkpt lat="42.70631" lon="1.42633">
        <ele>1386.4</ele>
        <time>2020-08-05T11:01:40Z</time>
      </trkpt>
      <trkpt lat="42.70631" lon="1.42639">
        <ele>1387</ele>
        <time>2020-08-05T11:01:43Z</time>
      </trkpt>
      <trkpt lat="42.70632" lon="1.42644">
        <ele>1387.4</ele>
        <time>2020-08-05T11:01:46Z</time>
      </trkpt>
      <trkpt lat="42.70633" lon="1.42653">
        <ele>1388.2</ele>
        <time>2020-08-05T11:01:51Z</time>
      </trkpt>
      <trkpt lat="42.70635" lon="1.42658">
        <ele>1388.6</ele>
        <time>2020-08-05T11:01:54Z</time>
      </trkpt>
      <trkpt lat="42.70636" lon="1.42661">
        <ele>1388.8</ele>
        <time>2020-08-05T11:01:56Z</time>
      </trkpt>
      <trkpt lat="42.70637" lon="1.42663">
        <ele>1389</ele>
        <time>2020-08-05T11:01:57Z</time>
      </trkpt>
      <trkpt lat="42.70637" lon="1.42671">
        <ele>1389.8</ele>
        <time>2020-08-05T11:02:02Z</time>
      </trkpt>
      <trkpt lat="42.70638" lon="1.42677">
        <ele>1390.4</ele>
        <time>2020-08-05T11:02:05Z</time>
      </trkpt>
      <trkpt lat="42.7064" lon="1.42684">
        <ele>1390.8</ele>
        <time>2020-08-05T11:02:09Z</time>
      </trkpt>
      <trkpt lat="42.70642" lon="1.42695">
        <ele>1392</ele>
        <time>2020-08-05T11:02:15Z</time>
      </trkpt>
      <trkpt lat="42.70644" lon="1.427">
        <ele>1392.2</ele>
        <time>2020-08-05T11:02:18Z</time>
      </trkpt>
      <trkpt lat="42.70647" lon="1.42708">
        <ele>1393</ele>
        <time>2020-08-05T11:02:22Z</time>
      </trkpt>
      <trkpt lat="42.70647" lon="1.4271">
        <ele>1393</ele>
        <time>2020-08-05T11:02:23Z</time>
      </trkpt>
      <trkpt lat="42.70652" lon="1.42721">
        <ele>1393.8</ele>
        <time>2020-08-05T11:02:29Z</time>
      </trkpt>
      <trkpt lat="42.70652" lon="1.42723">
        <ele>1394</ele>
        <time>2020-08-05T11:02:30Z</time>
      </trkpt>
      <trkpt lat="42.70651" lon="1.42727">
        <ele>1394</ele>
        <time>2020-08-05T11:02:32Z</time>
      </trkpt>
      <trkpt lat="42.7065" lon="1.42728">
        <ele>1394.2</ele>
        <time>2020-08-05T11:02:33Z</time>
      </trkpt>
      <trkpt lat="42.70645" lon="1.4273">
        <ele>1394.4</ele>
        <time>2020-08-05T11:02:36Z</time>
      </trkpt>
      <trkpt lat="42.70644" lon="1.42729">
        <ele>1394.6</ele>
        <time>2020-08-05T11:02:37Z</time>
      </trkpt>
      <trkpt lat="42.70644" lon="1.42727">
        <ele>1394.8</ele>
        <time>2020-08-05T11:02:38Z</time>
      </trkpt>
      <trkpt lat="42.70642" lon="1.42722">
        <ele>1395.2</ele>
        <time>2020-08-05T11:02:41Z</time>
      </trkpt>
      <trkpt lat="42.70641" lon="1.4272">
        <ele>1395.4</ele>
        <time>2020-08-05T11:02:42Z</time>
      </trkpt>
      <trkpt lat="42.70641" lon="1.42718">
        <ele>1395.4</ele>
        <time>2020-08-05T11:02:43Z</time>
      </trkpt>
      <trkpt lat="42.7064" lon="1.42717">
        <ele>1395.6</ele>
        <time>2020-08-05T11:02:44Z</time>
      </trkpt>
      <trkpt lat="42.70638" lon="1.4271">
        <ele>1396.2</ele>
        <time>2020-08-05T11:02:48Z</time>
      </trkpt>
      <trkpt lat="42.70636" lon="1.42703">
        <ele>1397</ele>
        <time>2020-08-05T11:02:52Z</time>
      </trkpt>
      <trkpt lat="42.70636" lon="1.42702">
        <ele>1397.2</ele>
        <time>2020-08-05T11:02:53Z</time>
      </trkpt>
      <trkpt lat="42.70636" lon="1.427">
        <ele>1397.4</ele>
        <time>2020-08-05T11:02:54Z</time>
      </trkpt>
      <trkpt lat="42.70634" lon="1.42696">
        <ele>1398</ele>
        <time>2020-08-05T11:02:57Z</time>
      </trkpt>
      <trkpt lat="42.70633" lon="1.42694">
        <ele>1398</ele>
        <time>2020-08-05T11:02:58Z</time>
      </trkpt>
      <trkpt lat="42.70632" lon="1.42689">
        <ele>1398.4</ele>
        <time>2020-08-05T11:03:01Z</time>
      </trkpt>
      <trkpt lat="42.70629" lon="1.42684">
        <ele>1399.2</ele>
        <time>2020-08-05T11:03:06Z</time>
      </trkpt>
      <trkpt lat="42.70628" lon="1.42681">
        <ele>1399.4</ele>
        <time>2020-08-05T11:03:08Z</time>
      </trkpt>
      <trkpt lat="42.70628" lon="1.42679">
        <ele>1399.6</ele>
        <time>2020-08-05T11:03:09Z</time>
      </trkpt>
      <trkpt lat="42.70626" lon="1.42675">
        <ele>1400</ele>
        <time>2020-08-05T11:03:12Z</time>
      </trkpt>
      <trkpt lat="42.70623" lon="1.42669">
        <ele>1400.8</ele>
        <time>2020-08-05T11:03:17Z</time>
      </trkpt>
      <trkpt lat="42.70622" lon="1.42666">
        <ele>1401.2</ele>
        <time>2020-08-05T11:03:19Z</time>
      </trkpt>
      <trkpt lat="42.70621" lon="1.42664">
        <ele>1401.4</ele>
        <time>2020-08-05T11:03:20Z</time>
      </trkpt>
      <trkpt lat="42.70619" lon="1.42659">
        <ele>1401.8</ele>
        <time>2020-08-05T11:03:24Z</time>
      </trkpt>
      <trkpt lat="42.70617" lon="1.42656">
        <ele>1402.2</ele>
        <time>2020-08-05T11:03:26Z</time>
      </trkpt>
      <trkpt lat="42.70611" lon="1.4265">
        <ele>1403</ele>
        <time>2020-08-05T11:03:31Z</time>
      </trkpt>
      <trkpt lat="42.7061" lon="1.42648">
        <ele>1403.2</ele>
        <time>2020-08-05T11:03:32Z</time>
      </trkpt>
      <trkpt lat="42.70605" lon="1.42642">
        <ele>1403.8</ele>
        <time>2020-08-05T11:03:36Z</time>
      </trkpt>
      <trkpt lat="42.70603" lon="1.42639">
        <ele>1404</ele>
        <time>2020-08-05T11:03:38Z</time>
      </trkpt>
      <trkpt lat="42.70599" lon="1.42636">
        <ele>1404.8</ele>
        <time>2020-08-05T11:03:41Z</time>
      </trkpt>
      <trkpt lat="42.70598" lon="1.42633">
        <ele>1405</ele>
        <time>2020-08-05T11:03:43Z</time>
      </trkpt>
      <trkpt lat="42.70597" lon="1.42632">
        <ele>1405.2</ele>
        <time>2020-08-05T11:03:44Z</time>
      </trkpt>
      <trkpt lat="42.70593" lon="1.42628">
        <ele>1405.6</ele>
        <time>2020-08-05T11:03:47Z</time>
      </trkpt>
      <trkpt lat="42.70591" lon="1.42626">
        <ele>1405.8</ele>
        <time>2020-08-05T11:03:49Z</time>
      </trkpt>
      <trkpt lat="42.7059" lon="1.42622">
        <ele>1406</ele>
        <time>2020-08-05T11:03:51Z</time>
      </trkpt>
      <trkpt lat="42.70588" lon="1.42619">
        <ele>1406.4</ele>
        <time>2020-08-05T11:03:53Z</time>
      </trkpt>
      <trkpt lat="42.70584" lon="1.42615">
        <ele>1406.8</ele>
        <time>2020-08-05T11:03:57Z</time>
      </trkpt>
      <trkpt lat="42.70583" lon="1.42612">
        <ele>1407.2</ele>
        <time>2020-08-05T11:03:59Z</time>
      </trkpt>
      <trkpt lat="42.70582" lon="1.42611">
        <ele>1407.4</ele>
        <time>2020-08-05T11:04:00Z</time>
      </trkpt>
      <trkpt lat="42.7058" lon="1.42608">
        <ele>1407.8</ele>
        <time>2020-08-05T11:04:03Z</time>
      </trkpt>
      <trkpt lat="42.70579" lon="1.42606">
        <ele>1408.2</ele>
        <time>2020-08-05T11:04:05Z</time>
      </trkpt>
      <trkpt lat="42.70576" lon="1.426">
        <ele>1408.8</ele>
        <time>2020-08-05T11:04:09Z</time>
      </trkpt>
      <trkpt lat="42.70575" lon="1.42597">
        <ele>1409.2</ele>
        <time>2020-08-05T11:04:12Z</time>
      </trkpt>
      <trkpt lat="42.70574" lon="1.42596">
        <ele>1409.4</ele>
        <time>2020-08-05T11:04:13Z</time>
      </trkpt>
      <trkpt lat="42.70573" lon="1.42595">
        <ele>1409.6</ele>
        <time>2020-08-05T11:04:14Z</time>
      </trkpt>
      <trkpt lat="42.70572" lon="1.42594">
        <ele>1409.6</ele>
        <time>2020-08-05T11:04:15Z</time>
      </trkpt>
      <trkpt lat="42.7057" lon="1.42592">
        <ele>1410.2</ele>
        <time>2020-08-05T11:04:20Z</time>
      </trkpt>
      <trkpt lat="42.70568" lon="1.4259">
        <ele>1410.4</ele>
        <time>2020-08-05T11:04:26Z</time>
      </trkpt>
      <trkpt lat="42.70568" lon="1.42589">
        <ele>1410.4</ele>
        <time>2020-08-05T11:04:27Z</time>
      </trkpt>
      <trkpt lat="42.70566" lon="1.42584">
        <ele>1411.2</ele>
        <time>2020-08-05T11:04:31Z</time>
      </trkpt>
      <trkpt lat="42.70565" lon="1.42583">
        <ele>1411.4</ele>
        <time>2020-08-05T11:04:32Z</time>
      </trkpt>
      <trkpt lat="42.70563" lon="1.4258">
        <ele>1411.8</ele>
        <time>2020-08-05T11:04:34Z</time>
      </trkpt>
      <trkpt lat="42.70562" lon="1.42575">
        <ele>1412.6</ele>
        <time>2020-08-05T11:04:38Z</time>
      </trkpt>
      <trkpt lat="42.7056" lon="1.42574">
        <ele>1412.8</ele>
        <time>2020-08-05T11:04:40Z</time>
      </trkpt>
      <trkpt lat="42.70559" lon="1.42573">
        <ele>1413</ele>
        <time>2020-08-05T11:04:41Z</time>
      </trkpt>
      <trkpt lat="42.70556" lon="1.42568">
        <ele>1413.6</ele>
        <time>2020-08-05T11:04:45Z</time>
      </trkpt>
      <trkpt lat="42.70556" lon="1.42567">
        <ele>1413.6</ele>
        <time>2020-08-05T11:04:46Z</time>
      </trkpt>
      <trkpt lat="42.70554" lon="1.42564">
        <ele>1414.2</ele>
        <time>2020-08-05T11:04:49Z</time>
      </trkpt>
      <trkpt lat="42.70552" lon="1.4256">
        <ele>1414.6</ele>
        <time>2020-08-05T11:04:52Z</time>
      </trkpt>
      <trkpt lat="42.7055" lon="1.42557">
        <ele>1415</ele>
        <time>2020-08-05T11:04:54Z</time>
      </trkpt>
      <trkpt lat="42.70548" lon="1.42555">
        <ele>1415.6</ele>
        <time>2020-08-05T11:04:57Z</time>
      </trkpt>
      <trkpt lat="42.70547" lon="1.42554">
        <ele>1415.6</ele>
        <time>2020-08-05T11:04:58Z</time>
      </trkpt>
      <trkpt lat="42.7054" lon="1.42548">
        <ele>1416.6</ele>
        <time>2020-08-05T11:05:05Z</time>
      </trkpt>
      <trkpt lat="42.70539" lon="1.42546">
        <ele>1416.8</ele>
        <time>2020-08-05T11:05:06Z</time>
      </trkpt>
      <trkpt lat="42.70537" lon="1.42542">
        <ele>1417.4</ele>
        <time>2020-08-05T11:05:09Z</time>
      </trkpt>
      <trkpt lat="42.70536" lon="1.4254">
        <ele>1417.6</ele>
        <time>2020-08-05T11:05:11Z</time>
      </trkpt>
      <trkpt lat="42.70535" lon="1.42539">
        <ele>1417.8</ele>
        <time>2020-08-05T11:05:12Z</time>
      </trkpt>
      <trkpt lat="42.70533" lon="1.42538">
        <ele>1418</ele>
        <time>2020-08-05T11:05:13Z</time>
      </trkpt>
      <trkpt lat="42.7053" lon="1.42535">
        <ele>1418.6</ele>
        <time>2020-08-05T11:05:17Z</time>
      </trkpt>
      <trkpt lat="42.70528" lon="1.4253">
        <ele>1419</ele>
        <time>2020-08-05T11:05:20Z</time>
      </trkpt>
      <trkpt lat="42.70524" lon="1.42527">
        <ele>1419.6</ele>
        <time>2020-08-05T11:05:24Z</time>
      </trkpt>
      <trkpt lat="42.70519" lon="1.42525">
        <ele>1420.2</ele>
        <time>2020-08-05T11:05:28Z</time>
      </trkpt>
      <trkpt lat="42.70517" lon="1.42522">
        <ele>1420.4</ele>
        <time>2020-08-05T11:05:30Z</time>
      </trkpt>
      <trkpt lat="42.70516" lon="1.42519">
        <ele>1420.8</ele>
        <time>2020-08-05T11:05:32Z</time>
      </trkpt>
      <trkpt lat="42.70513" lon="1.42515">
        <ele>1421.2</ele>
        <time>2020-08-05T11:05:36Z</time>
      </trkpt>
      <trkpt lat="42.70511" lon="1.42512">
        <ele>1421.6</ele>
        <time>2020-08-05T11:05:38Z</time>
      </trkpt>
      <trkpt lat="42.70509" lon="1.42507">
        <ele>1422.4</ele>
        <time>2020-08-05T11:05:42Z</time>
      </trkpt>
      <trkpt lat="42.70502" lon="1.42502">
        <ele>1423.2</ele>
        <time>2020-08-05T11:05:48Z</time>
      </trkpt>
      <trkpt lat="42.70499" lon="1.42499">
        <ele>1423.4</ele>
        <time>2020-08-05T11:05:51Z</time>
      </trkpt>
      <trkpt lat="42.70496" lon="1.42497">
        <ele>1424</ele>
        <time>2020-08-05T11:05:54Z</time>
      </trkpt>
      <trkpt lat="42.70493" lon="1.42494">
        <ele>1424.4</ele>
        <time>2020-08-05T11:05:57Z</time>
      </trkpt>
      <trkpt lat="42.70492" lon="1.42494">
        <ele>1424.4</ele>
        <time>2020-08-05T11:05:58Z</time>
      </trkpt>
      <trkpt lat="42.7049" lon="1.42493">
        <ele>1424.8</ele>
        <time>2020-08-05T11:06:00Z</time>
      </trkpt>
      <trkpt lat="42.70487" lon="1.42492">
        <ele>1425</ele>
        <time>2020-08-05T11:06:02Z</time>
      </trkpt>
      <trkpt lat="42.70484" lon="1.42487">
        <ele>1425.6</ele>
        <time>2020-08-05T11:06:05Z</time>
      </trkpt>
      <trkpt lat="42.70476" lon="1.4248">
        <ele>1426.6</ele>
        <time>2020-08-05T11:06:11Z</time>
      </trkpt>
      <trkpt lat="42.70475" lon="1.42478">
        <ele>1426.8</ele>
        <time>2020-08-05T11:06:12Z</time>
      </trkpt>
      <trkpt lat="42.70468" lon="1.42471">
        <ele>1427.8</ele>
        <time>2020-08-05T11:06:19Z</time>
      </trkpt>
      <trkpt lat="42.70466" lon="1.42471">
        <ele>1428</ele>
        <time>2020-08-05T11:06:20Z</time>
      </trkpt>
      <trkpt lat="42.70459" lon="1.42463">
        <ele>1429.2</ele>
        <time>2020-08-05T11:06:27Z</time>
      </trkpt>
      <trkpt lat="42.70452" lon="1.42458">
        <ele>1430.2</ele>
        <time>2020-08-05T11:06:32Z</time>
      </trkpt>
      <trkpt lat="42.70451" lon="1.42458">
        <ele>1430.2</ele>
        <time>2020-08-05T11:06:33Z</time>
      </trkpt>
      <trkpt lat="42.70447" lon="1.42453">
        <ele>1430.8</ele>
        <time>2020-08-05T11:06:37Z</time>
      </trkpt>
      <trkpt lat="42.70445" lon="1.42451">
        <ele>1431.2</ele>
        <time>2020-08-05T11:06:39Z</time>
      </trkpt>
      <trkpt lat="42.70444" lon="1.42448">
        <ele>1431.6</ele>
        <time>2020-08-05T11:06:41Z</time>
      </trkpt>
      <trkpt lat="42.70443" lon="1.42447">
        <ele>1431.6</ele>
        <time>2020-08-05T11:06:42Z</time>
      </trkpt>
      <trkpt lat="42.70441" lon="1.42444">
        <ele>1432.2</ele>
        <time>2020-08-05T11:06:45Z</time>
      </trkpt>
      <trkpt lat="42.7044" lon="1.42443">
        <ele>1432.2</ele>
        <time>2020-08-05T11:06:46Z</time>
      </trkpt>
      <trkpt lat="42.7044" lon="1.42442">
        <ele>1432.4</ele>
        <time>2020-08-05T11:06:47Z</time>
      </trkpt>
      <trkpt lat="42.70436" lon="1.42438">
        <ele>1433</ele>
        <time>2020-08-05T11:06:51Z</time>
      </trkpt>
      <trkpt lat="42.70432" lon="1.42435">
        <ele>1433.8</ele>
        <time>2020-08-05T11:06:54Z</time>
      </trkpt>
      <trkpt lat="42.70429" lon="1.42432">
        <ele>1434.2</ele>
        <time>2020-08-05T11:06:57Z</time>
      </trkpt>
      <trkpt lat="42.70424" lon="1.42426">
        <ele>1434.8</ele>
        <time>2020-08-05T11:07:02Z</time>
      </trkpt>
      <trkpt lat="42.70421" lon="1.42424">
        <ele>1435</ele>
        <time>2020-08-05T11:07:04Z</time>
      </trkpt>
      <trkpt lat="42.70418" lon="1.42421">
        <ele>1435.6</ele>
        <time>2020-08-05T11:07:07Z</time>
      </trkpt>
      <trkpt lat="42.70416" lon="1.42419">
        <ele>1436</ele>
        <time>2020-08-05T11:07:09Z</time>
      </trkpt>
      <trkpt lat="42.70413" lon="1.42416">
        <ele>1436.2</ele>
        <time>2020-08-05T11:07:12Z</time>
      </trkpt>
      <trkpt lat="42.70408" lon="1.42414">
        <ele>1437</ele>
        <time>2020-08-05T11:07:16Z</time>
      </trkpt>
      <trkpt lat="42.70402" lon="1.4241">
        <ele>1438</ele>
        <time>2020-08-05T11:07:21Z</time>
      </trkpt>
      <trkpt lat="42.70401" lon="1.42408">
        <ele>1438.2</ele>
        <time>2020-08-05T11:07:22Z</time>
      </trkpt>
      <trkpt lat="42.70392" lon="1.42402">
        <ele>1439.2</ele>
        <time>2020-08-05T11:07:28Z</time>
      </trkpt>
      <trkpt lat="42.70386" lon="1.42397">
        <ele>1440.2</ele>
        <time>2020-08-05T11:07:34Z</time>
      </trkpt>
      <trkpt lat="42.70385" lon="1.42396">
        <ele>1440.4</ele>
        <time>2020-08-05T11:07:35Z</time>
      </trkpt>
      <trkpt lat="42.70376" lon="1.4239">
        <ele>1441.8</ele>
        <time>2020-08-05T11:07:42Z</time>
      </trkpt>
      <trkpt lat="42.70371" lon="1.42388">
        <ele>1442.4</ele>
        <time>2020-08-05T11:07:47Z</time>
      </trkpt>
      <trkpt lat="42.70369" lon="1.42388">
        <ele>1442.8</ele>
        <time>2020-08-05T11:07:49Z</time>
      </trkpt>
      <trkpt lat="42.70363" lon="1.42383">
        <ele>1443.6</ele>
        <time>2020-08-05T11:07:54Z</time>
      </trkpt>
      <trkpt lat="42.70362" lon="1.42382">
        <ele>1443.8</ele>
        <time>2020-08-05T11:07:55Z</time>
      </trkpt>
      <trkpt lat="42.70355" lon="1.42377">
        <ele>1445</ele>
        <time>2020-08-05T11:08:00Z</time>
      </trkpt>
      <trkpt lat="42.7035" lon="1.42372">
        <ele>1446</ele>
        <time>2020-08-05T11:08:06Z</time>
      </trkpt>
      <trkpt lat="42.70349" lon="1.42372">
        <ele>1446.2</ele>
        <time>2020-08-05T11:08:07Z</time>
      </trkpt>
      <trkpt lat="42.70344" lon="1.42367">
        <ele>1447.2</ele>
        <time>2020-08-05T11:08:12Z</time>
      </trkpt>
      <trkpt lat="42.70342" lon="1.42366">
        <ele>1447.6</ele>
        <time>2020-08-05T11:08:14Z</time>
      </trkpt>
      <trkpt lat="42.70336" lon="1.42362">
        <ele>1448.2</ele>
        <time>2020-08-05T11:08:19Z</time>
      </trkpt>
      <trkpt lat="42.70334" lon="1.42361">
        <ele>1448.4</ele>
        <time>2020-08-05T11:08:20Z</time>
      </trkpt>
      <trkpt lat="42.70329" lon="1.42359">
        <ele>1449.2</ele>
        <time>2020-08-05T11:08:24Z</time>
      </trkpt>
      <trkpt lat="42.70328" lon="1.42358">
        <ele>1449.4</ele>
        <time>2020-08-05T11:08:25Z</time>
      </trkpt>
      <trkpt lat="42.70326" lon="1.42356">
        <ele>1449.6</ele>
        <time>2020-08-05T11:08:27Z</time>
      </trkpt>
      <trkpt lat="42.70325" lon="1.42356">
        <ele>1449.8</ele>
        <time>2020-08-05T11:08:28Z</time>
      </trkpt>
      <trkpt lat="42.70322" lon="1.42355">
        <ele>1450.4</ele>
        <time>2020-08-05T11:08:31Z</time>
      </trkpt>
      <trkpt lat="42.70321" lon="1.42354">
        <ele>1450.6</ele>
        <time>2020-08-05T11:08:32Z</time>
      </trkpt>
      <trkpt lat="42.70315" lon="1.42351">
        <ele>1451.6</ele>
        <time>2020-08-05T11:08:37Z</time>
      </trkpt>
      <trkpt lat="42.70314" lon="1.4235">
        <ele>1451.6</ele>
        <time>2020-08-05T11:08:38Z</time>
      </trkpt>
      <trkpt lat="42.7031" lon="1.42349">
        <ele>1452.2</ele>
        <time>2020-08-05T11:08:41Z</time>
      </trkpt>
      <trkpt lat="42.70309" lon="1.42348">
        <ele>1452.4</ele>
        <time>2020-08-05T11:08:42Z</time>
      </trkpt>
      <trkpt lat="42.70308" lon="1.42347">
        <ele>1452.6</ele>
        <time>2020-08-05T11:08:43Z</time>
      </trkpt>
      <trkpt lat="42.70307" lon="1.42346">
        <ele>1452.8</ele>
        <time>2020-08-05T11:08:44Z</time>
      </trkpt>
      <trkpt lat="42.70306" lon="1.42345">
        <ele>1453</ele>
        <time>2020-08-05T11:08:45Z</time>
      </trkpt>
      <trkpt lat="42.70303" lon="1.42342">
        <ele>1453.4</ele>
        <time>2020-08-05T11:08:48Z</time>
      </trkpt>
      <trkpt lat="42.70302" lon="1.42341">
        <ele>1453.6</ele>
        <time>2020-08-05T11:08:49Z</time>
      </trkpt>
      <trkpt lat="42.70302" lon="1.42339">
        <ele>1454</ele>
        <time>2020-08-05T11:08:50Z</time>
      </trkpt>
      <trkpt lat="42.70299" lon="1.42338">
        <ele>1454.2</ele>
        <time>2020-08-05T11:08:52Z</time>
      </trkpt>
      <trkpt lat="42.70298" lon="1.42338">
        <ele>1454.2</ele>
        <time>2020-08-05T11:08:53Z</time>
      </trkpt>
      <trkpt lat="42.70296" lon="1.42337">
        <ele>1454.8</ele>
        <time>2020-08-05T11:08:55Z</time>
      </trkpt>
      <trkpt lat="42.70293" lon="1.42334">
        <ele>1455.6</ele>
        <time>2020-08-05T11:08:58Z</time>
      </trkpt>
      <trkpt lat="42.70291" lon="1.42335">
        <ele>1455.8</ele>
        <time>2020-08-05T11:09:00Z</time>
      </trkpt>
      <trkpt lat="42.7029" lon="1.42337">
        <ele>1456</ele>
        <time>2020-08-05T11:09:01Z</time>
      </trkpt>
      <trkpt lat="42.70286" lon="1.42342">
        <ele>1456.4</ele>
        <time>2020-08-05T11:09:05Z</time>
      </trkpt>
      <trkpt lat="42.70285" lon="1.42347">
        <ele>1456.8</ele>
        <time>2020-08-05T11:09:08Z</time>
      </trkpt>
      <trkpt lat="42.70286" lon="1.4235">
        <ele>1457</ele>
        <time>2020-08-05T11:09:10Z</time>
      </trkpt>
      <trkpt lat="42.70287" lon="1.42351">
        <ele>1457</ele>
        <time>2020-08-05T11:09:11Z</time>
      </trkpt>
      <trkpt lat="42.70291" lon="1.42353">
        <ele>1457.4</ele>
        <time>2020-08-05T11:09:14Z</time>
      </trkpt>
      <trkpt lat="42.70295" lon="1.42357">
        <ele>1458</ele>
        <time>2020-08-05T11:09:18Z</time>
      </trkpt>
      <trkpt lat="42.70296" lon="1.42358">
        <ele>1458.2</ele>
        <time>2020-08-05T11:09:19Z</time>
      </trkpt>
      <trkpt lat="42.70298" lon="1.42361">
        <ele>1458.4</ele>
        <time>2020-08-05T11:09:21Z</time>
      </trkpt>
      <trkpt lat="42.70299" lon="1.42363">
        <ele>1458.6</ele>
        <time>2020-08-05T11:09:23Z</time>
      </trkpt>
      <trkpt lat="42.703" lon="1.42365">
        <ele>1458.8</ele>
        <time>2020-08-05T11:09:24Z</time>
      </trkpt>
      <trkpt lat="42.70304" lon="1.42371">
        <ele>1459.4</ele>
        <time>2020-08-05T11:09:28Z</time>
      </trkpt>
      <trkpt lat="42.70305" lon="1.42374">
        <ele>1459.6</ele>
        <time>2020-08-05T11:09:30Z</time>
      </trkpt>
      <trkpt lat="42.70308" lon="1.42383">
        <ele>1460.4</ele>
        <time>2020-08-05T11:09:36Z</time>
      </trkpt>
      <trkpt lat="42.70309" lon="1.42384">
        <ele>1460.6</ele>
        <time>2020-08-05T11:09:37Z</time>
      </trkpt>
      <trkpt lat="42.70313" lon="1.42391">
        <ele>1461.4</ele>
        <time>2020-08-05T11:09:42Z</time>
      </trkpt>
      <trkpt lat="42.70315" lon="1.42394">
        <ele>1461.8</ele>
        <time>2020-08-05T11:09:44Z</time>
      </trkpt>
      <trkpt lat="42.70316" lon="1.42399">
        <ele>1462</ele>
        <time>2020-08-05T11:09:47Z</time>
      </trkpt>
      <trkpt lat="42.70319" lon="1.42402">
        <ele>1462.6</ele>
        <time>2020-08-05T11:09:50Z</time>
      </trkpt>
      <trkpt lat="42.7032" lon="1.42403">
        <ele>1462.8</ele>
        <time>2020-08-05T11:09:51Z</time>
      </trkpt>
      <trkpt lat="42.70325" lon="1.42412">
        <ele>1463.6</ele>
        <time>2020-08-05T11:09:58Z</time>
      </trkpt>
      <trkpt lat="42.70326" lon="1.42413">
        <ele>1463.8</ele>
        <time>2020-08-05T11:09:59Z</time>
      </trkpt>
      <trkpt lat="42.70334" lon="1.42421">
        <ele>1464.6</ele>
        <time>2020-08-05T11:10:05Z</time>
      </trkpt>
      <trkpt lat="42.70342" lon="1.42429">
        <ele>1465.8</ele>
        <time>2020-08-05T11:10:12Z</time>
      </trkpt>
      <trkpt lat="42.70343" lon="1.4243">
        <ele>1465.8</ele>
        <time>2020-08-05T11:10:13Z</time>
      </trkpt>
      <trkpt lat="42.70349" lon="1.42439">
        <ele>1466.4</ele>
        <time>2020-08-05T11:10:19Z</time>
      </trkpt>
      <trkpt lat="42.70351" lon="1.42441">
        <ele>1466.8</ele>
        <time>2020-08-05T11:10:21Z</time>
      </trkpt>
      <trkpt lat="42.70354" lon="1.42448">
        <ele>1467.6</ele>
        <time>2020-08-05T11:10:26Z</time>
      </trkpt>
      <trkpt lat="42.70355" lon="1.42451">
        <ele>1467.8</ele>
        <time>2020-08-05T11:10:28Z</time>
      </trkpt>
      <trkpt lat="42.70358" lon="1.42457">
        <ele>1468.4</ele>
        <time>2020-08-05T11:10:32Z</time>
      </trkpt>
      <trkpt lat="42.70358" lon="1.4246">
        <ele>1468.6</ele>
        <time>2020-08-05T11:10:34Z</time>
      </trkpt>
      <trkpt lat="42.7036" lon="1.42462">
        <ele>1468.8</ele>
        <time>2020-08-05T11:10:36Z</time>
      </trkpt>
      <trkpt lat="42.70362" lon="1.42469">
        <ele>1469.6</ele>
        <time>2020-08-05T11:10:40Z</time>
      </trkpt>
      <trkpt lat="42.70364" lon="1.42471">
        <ele>1470</ele>
        <time>2020-08-05T11:10:42Z</time>
      </trkpt>
      <trkpt lat="42.70367" lon="1.42476">
        <ele>1470.6</ele>
        <time>2020-08-05T11:10:46Z</time>
      </trkpt>
      <trkpt lat="42.70371" lon="1.42482">
        <ele>1471</ele>
        <time>2020-08-05T11:10:50Z</time>
      </trkpt>
      <trkpt lat="42.70371" lon="1.42483">
        <ele>1471.2</ele>
        <time>2020-08-05T11:10:51Z</time>
      </trkpt>
      <trkpt lat="42.70375" lon="1.42489">
        <ele>1472</ele>
        <time>2020-08-05T11:10:56Z</time>
      </trkpt>
      <trkpt lat="42.70377" lon="1.42493">
        <ele>1472.6</ele>
        <time>2020-08-05T11:10:59Z</time>
      </trkpt>
      <trkpt lat="42.70377" lon="1.42493">
        <ele>1472.8</ele>
        <time>2020-08-05T11:11:01Z</time>
      </trkpt>
      <trkpt lat="42.70377" lon="1.42493">
        <ele>1472.8</ele>
        <time>2020-08-05T11:11:09Z</time>
      </trkpt>
      <trkpt lat="42.70377" lon="1.42493">
        <ele>1472.8</ele>
        <time>2020-08-05T11:11:17Z</time>
      </trkpt>
      <trkpt lat="42.70377" lon="1.42493">
        <ele>1472.6</ele>
        <time>2020-08-05T11:11:24Z</time>
      </trkpt>
      <trkpt lat="42.70377" lon="1.42493">
        <ele>1472.6</ele>
        <time>2020-08-05T11:11:33Z</time>
      </trkpt>
      <trkpt lat="42.70376" lon="1.42493">
        <ele>1472.4</ele>
        <time>2020-08-05T11:11:43Z</time>
      </trkpt>
      <trkpt lat="42.70376" lon="1.42493">
        <ele>1472.4</ele>
        <time>2020-08-05T11:11:52Z</time>
      </trkpt>
      <trkpt lat="42.70376" lon="1.42494">
        <ele>1472.6</ele>
        <time>2020-08-05T11:12:02Z</time>
      </trkpt>
      <trkpt lat="42.70376" lon="1.42494">
        <ele>1472.6</ele>
        <time>2020-08-05T11:12:15Z</time>
      </trkpt>
      <trkpt lat="42.70376" lon="1.42494">
        <ele>1472.2</ele>
        <time>2020-08-05T11:12:26Z</time>
      </trkpt>
      <trkpt lat="42.70376" lon="1.42493">
        <ele>1472.4</ele>
        <time>2020-08-05T11:12:40Z</time>
      </trkpt>
      <trkpt lat="42.70376" lon="1.42493">
        <ele>1472.2</ele>
        <time>2020-08-05T11:12:56Z</time>
      </trkpt>
      <trkpt lat="42.70376" lon="1.42493">
        <ele>1472.2</ele>
        <time>2020-08-05T11:13:09Z</time>
      </trkpt>
      <trkpt lat="42.70377" lon="1.42494">
        <ele>1472.2</ele>
        <time>2020-08-05T11:13:14Z</time>
      </trkpt>
      <trkpt lat="42.7038" lon="1.42496">
        <ele>1472.4</ele>
        <time>2020-08-05T11:13:16Z</time>
      </trkpt>
      <trkpt lat="42.70383" lon="1.42505">
        <ele>1473.2</ele>
        <time>2020-08-05T11:13:21Z</time>
      </trkpt>
      <trkpt lat="42.70384" lon="1.42506">
        <ele>1473.4</ele>
        <time>2020-08-05T11:13:22Z</time>
      </trkpt>
      <trkpt lat="42.70391" lon="1.42514">
        <ele>1474.2</ele>
        <time>2020-08-05T11:13:27Z</time>
      </trkpt>
      <trkpt lat="42.70392" lon="1.42516">
        <ele>1474.4</ele>
        <time>2020-08-05T11:13:28Z</time>
      </trkpt>
      <trkpt lat="42.70395" lon="1.42523">
        <ele>1475</ele>
        <time>2020-08-05T11:13:32Z</time>
      </trkpt>
      <trkpt lat="42.70396" lon="1.42526">
        <ele>1475.4</ele>
        <time>2020-08-05T11:13:34Z</time>
      </trkpt>
      <trkpt lat="42.704" lon="1.42534">
        <ele>1476.4</ele>
        <time>2020-08-05T11:13:41Z</time>
      </trkpt>
      <trkpt lat="42.70401" lon="1.42535">
        <ele>1476.6</ele>
        <time>2020-08-05T11:13:42Z</time>
      </trkpt>
      <trkpt lat="42.70402" lon="1.42536">
        <ele>1476.8</ele>
        <time>2020-08-05T11:13:43Z</time>
      </trkpt>
      <trkpt lat="42.70404" lon="1.42539">
        <ele>1477</ele>
        <time>2020-08-05T11:13:46Z</time>
      </trkpt>
      <trkpt lat="42.70406" lon="1.42541">
        <ele>1477.4</ele>
        <time>2020-08-05T11:13:48Z</time>
      </trkpt>
      <trkpt lat="42.70409" lon="1.42552">
        <ele>1478.4</ele>
        <time>2020-08-05T11:13:55Z</time>
      </trkpt>
      <trkpt lat="42.70409" lon="1.42554">
        <ele>1478.6</ele>
        <time>2020-08-05T11:13:56Z</time>
      </trkpt>
      <trkpt lat="42.70408" lon="1.42556">
        <ele>1478.8</ele>
        <time>2020-08-05T11:13:58Z</time>
      </trkpt>
      <trkpt lat="42.70409" lon="1.4256">
        <ele>1479.4</ele>
        <time>2020-08-05T11:14:01Z</time>
      </trkpt>
      <trkpt lat="42.70412" lon="1.42565">
        <ele>1479.8</ele>
        <time>2020-08-05T11:14:05Z</time>
      </trkpt>
      <trkpt lat="42.70413" lon="1.42568">
        <ele>1480.2</ele>
        <time>2020-08-05T11:14:07Z</time>
      </trkpt>
      <trkpt lat="42.70416" lon="1.42573">
        <ele>1480.8</ele>
        <time>2020-08-05T11:14:11Z</time>
      </trkpt>
      <trkpt lat="42.70417" lon="1.42577">
        <ele>1481.2</ele>
        <time>2020-08-05T11:14:14Z</time>
      </trkpt>
      <trkpt lat="42.7042" lon="1.42583">
        <ele>1481.8</ele>
        <time>2020-08-05T11:14:18Z</time>
      </trkpt>
      <trkpt lat="42.70422" lon="1.42588">
        <ele>1482.4</ele>
        <time>2020-08-05T11:14:21Z</time>
      </trkpt>
      <trkpt lat="42.70427" lon="1.42595">
        <ele>1483</ele>
        <time>2020-08-05T11:14:27Z</time>
      </trkpt>
      <trkpt lat="42.70428" lon="1.42597">
        <ele>1483.2</ele>
        <time>2020-08-05T11:14:29Z</time>
      </trkpt>
      <trkpt lat="42.70425" lon="1.42596">
        <ele>1483.2</ele>
        <time>2020-08-05T11:14:32Z</time>
      </trkpt>
      <trkpt lat="42.70423" lon="1.4259">
        <ele>1483</ele>
        <time>2020-08-05T11:14:34Z</time>
      </trkpt>
      <trkpt lat="42.70418" lon="1.42575">
        <ele>1482</ele>
        <time>2020-08-05T11:14:37Z</time>
      </trkpt>
      <trkpt lat="42.70415" lon="1.42569">
        <ele>1481.8</ele>
        <time>2020-08-05T11:14:38Z</time>
      </trkpt>
      <trkpt lat="42.70411" lon="1.42563">
        <ele>1480.8</ele>
        <time>2020-08-05T11:14:39Z</time>
      </trkpt>
      <trkpt lat="42.70405" lon="1.42558">
        <ele>1480.2</ele>
        <time>2020-08-05T11:14:40Z</time>
      </trkpt>
      <trkpt lat="42.704" lon="1.42553">
        <ele>1479.8</ele>
        <time>2020-08-05T11:14:41Z</time>
      </trkpt>
      <trkpt lat="42.70397" lon="1.42548">
        <ele>1480.2</ele>
        <time>2020-08-05T11:14:42Z</time>
      </trkpt>
      <trkpt lat="42.70392" lon="1.42542">
        <ele>1480.8</ele>
        <time>2020-08-05T11:14:44Z</time>
      </trkpt>
      <trkpt lat="42.70387" lon="1.42536">
        <ele>1481.2</ele>
        <time>2020-08-05T11:14:48Z</time>
      </trkpt>
      <trkpt lat="42.70381" lon="1.42528">
        <ele>1482</ele>
        <time>2020-08-05T11:14:54Z</time>
      </trkpt>
      <trkpt lat="42.70379" lon="1.42526">
        <ele>1482.4</ele>
        <time>2020-08-05T11:14:56Z</time>
      </trkpt>
      <trkpt lat="42.70379" lon="1.42525">
        <ele>1482</ele>
        <time>2020-08-05T11:14:59Z</time>
      </trkpt>
      <trkpt lat="42.70379" lon="1.42525">
        <ele>1481.8</ele>
        <time>2020-08-05T11:15:16Z</time>
      </trkpt>
      <trkpt lat="42.70379" lon="1.42526">
        <ele>1481.8</ele>
        <time>2020-08-05T11:15:37Z</time>
      </trkpt>
      <trkpt lat="42.70379" lon="1.42526">
        <ele>1481.8</ele>
        <time>2020-08-05T11:15:58Z</time>
      </trkpt>
      <trkpt lat="42.70378" lon="1.42524">
        <ele>1482.6</ele>
        <time>2020-08-05T11:16:12Z</time>
      </trkpt>
      <trkpt lat="42.70377" lon="1.42522">
        <ele>1482.8</ele>
        <time>2020-08-05T11:16:18Z</time>
      </trkpt>
      <trkpt lat="42.70375" lon="1.42519">
        <ele>1483.2</ele>
        <time>2020-08-05T11:16:21Z</time>
      </trkpt>
      <trkpt lat="42.70375" lon="1.42518">
        <ele>1483.4</ele>
        <time>2020-08-05T11:16:22Z</time>
      </trkpt>
      <trkpt lat="42.70375" lon="1.42517">
        <ele>1483.6</ele>
        <time>2020-08-05T11:16:23Z</time>
      </trkpt>
      <trkpt lat="42.70373" lon="1.42515">
        <ele>1483.8</ele>
        <time>2020-08-05T11:16:25Z</time>
      </trkpt>
      <trkpt lat="42.70369" lon="1.42512">
        <ele>1484.6</ele>
        <time>2020-08-05T11:16:29Z</time>
      </trkpt>
      <trkpt lat="42.70367" lon="1.42511">
        <ele>1485</ele>
        <time>2020-08-05T11:16:31Z</time>
      </trkpt>
      <trkpt lat="42.70363" lon="1.4251">
        <ele>1485.8</ele>
        <time>2020-08-05T11:16:34Z</time>
      </trkpt>
      <trkpt lat="42.70362" lon="1.42509">
        <ele>1486</ele>
        <time>2020-08-05T11:16:35Z</time>
      </trkpt>
      <trkpt lat="42.70356" lon="1.42505">
        <ele>1487</ele>
        <time>2020-08-05T11:16:40Z</time>
      </trkpt>
      <trkpt lat="42.70355" lon="1.42505">
        <ele>1487.2</ele>
        <time>2020-08-05T11:16:41Z</time>
      </trkpt>
      <trkpt lat="42.7035" lon="1.42504">
        <ele>1488</ele>
        <time>2020-08-05T11:16:45Z</time>
      </trkpt>
      <trkpt lat="42.70347" lon="1.42501">
        <ele>1488.4</ele>
        <time>2020-08-05T11:16:48Z</time>
      </trkpt>
      <trkpt lat="42.70342" lon="1.42498">
        <ele>1489</ele>
        <time>2020-08-05T11:16:52Z</time>
      </trkpt>
      <trkpt lat="42.7034" lon="1.42497">
        <ele>1489.2</ele>
        <time>2020-08-05T11:16:53Z</time>
      </trkpt>
      <trkpt lat="42.70337" lon="1.42496">
        <ele>1489.8</ele>
        <time>2020-08-05T11:16:55Z</time>
      </trkpt>
      <trkpt lat="42.70335" lon="1.42495">
        <ele>1490.2</ele>
        <time>2020-08-05T11:16:57Z</time>
      </trkpt>
      <trkpt lat="42.70333" lon="1.42493">
        <ele>1490.4</ele>
        <time>2020-08-05T11:16:58Z</time>
      </trkpt>
      <trkpt lat="42.70329" lon="1.42493">
        <ele>1490.8</ele>
        <time>2020-08-05T11:17:01Z</time>
      </trkpt>
      <trkpt lat="42.70327" lon="1.42492">
        <ele>1491</ele>
        <time>2020-08-05T11:17:02Z</time>
      </trkpt>
      <trkpt lat="42.70325" lon="1.4249">
        <ele>1491.2</ele>
        <time>2020-08-05T11:17:04Z</time>
      </trkpt>
      <trkpt lat="42.70323" lon="1.4249">
        <ele>1491.6</ele>
        <time>2020-08-05T11:17:06Z</time>
      </trkpt>
      <trkpt lat="42.70319" lon="1.42489">
        <ele>1492</ele>
        <time>2020-08-05T11:17:09Z</time>
      </trkpt>
      <trkpt lat="42.70316" lon="1.42489">
        <ele>1492.4</ele>
        <time>2020-08-05T11:17:11Z</time>
      </trkpt>
      <trkpt lat="42.70314" lon="1.42487">
        <ele>1492.8</ele>
        <time>2020-08-05T11:17:14Z</time>
      </trkpt>
      <trkpt lat="42.70309" lon="1.42484">
        <ele>1493.6</ele>
        <time>2020-08-05T11:17:19Z</time>
      </trkpt>
      <trkpt lat="42.70307" lon="1.42484">
        <ele>1493.8</ele>
        <time>2020-08-05T11:17:20Z</time>
      </trkpt>
      <trkpt lat="42.70303" lon="1.4248">
        <ele>1494.8</ele>
        <time>2020-08-05T11:17:25Z</time>
      </trkpt>
      <trkpt lat="42.70302" lon="1.4248">
        <ele>1495.2</ele>
        <time>2020-08-05T11:17:27Z</time>
      </trkpt>
      <trkpt lat="42.70298" lon="1.42478">
        <ele>1495.8</ele>
        <time>2020-08-05T11:17:31Z</time>
      </trkpt>
      <trkpt lat="42.70296" lon="1.42477">
        <ele>1496.2</ele>
        <time>2020-08-05T11:17:33Z</time>
      </trkpt>
      <trkpt lat="42.7029" lon="1.42473">
        <ele>1497</ele>
        <time>2020-08-05T11:17:37Z</time>
      </trkpt>
      <trkpt lat="42.70289" lon="1.42472">
        <ele>1497</ele>
        <time>2020-08-05T11:17:38Z</time>
      </trkpt>
      <trkpt lat="42.70283" lon="1.42469">
        <ele>1498</ele>
        <time>2020-08-05T11:17:43Z</time>
      </trkpt>
      <trkpt lat="42.70282" lon="1.42469">
        <ele>1498.2</ele>
        <time>2020-08-05T11:17:44Z</time>
      </trkpt>
      <trkpt lat="42.70276" lon="1.42465">
        <ele>1499.2</ele>
        <time>2020-08-05T11:17:49Z</time>
      </trkpt>
      <trkpt lat="42.70274" lon="1.42463">
        <ele>1499.4</ele>
        <time>2020-08-05T11:17:51Z</time>
      </trkpt>
      <trkpt lat="42.70267" lon="1.42458">
        <ele>1500.2</ele>
        <time>2020-08-05T11:17:57Z</time>
      </trkpt>
      <trkpt lat="42.70266" lon="1.42457">
        <ele>1500.4</ele>
        <time>2020-08-05T11:17:58Z</time>
      </trkpt>
      <trkpt lat="42.70265" lon="1.42457">
        <ele>1500.4</ele>
        <time>2020-08-05T11:17:59Z</time>
      </trkpt>
      <trkpt lat="42.70258" lon="1.42454">
        <ele>1501</ele>
        <time>2020-08-05T11:18:04Z</time>
      </trkpt>
      <trkpt lat="42.70255" lon="1.42454">
        <ele>1501.2</ele>
        <time>2020-08-05T11:18:06Z</time>
      </trkpt>
      <trkpt lat="42.7025" lon="1.42453">
        <ele>1502.2</ele>
        <time>2020-08-05T11:18:11Z</time>
      </trkpt>
      <trkpt lat="42.70249" lon="1.42453">
        <ele>1502.4</ele>
        <time>2020-08-05T11:18:12Z</time>
      </trkpt>
      <trkpt lat="42.70246" lon="1.42454">
        <ele>1503</ele>
        <time>2020-08-05T11:18:15Z</time>
      </trkpt>
      <trkpt lat="42.70244" lon="1.42452">
        <ele>1503.2</ele>
        <time>2020-08-05T11:18:17Z</time>
      </trkpt>
      <trkpt lat="42.70242" lon="1.4245">
        <ele>1503.4</ele>
        <time>2020-08-05T11:18:19Z</time>
      </trkpt>
      <trkpt lat="42.70237" lon="1.42447">
        <ele>1504.4</ele>
        <time>2020-08-05T11:18:24Z</time>
      </trkpt>
      <trkpt lat="42.70236" lon="1.42445">
        <ele>1504.6</ele>
        <time>2020-08-05T11:18:25Z</time>
      </trkpt>
      <trkpt lat="42.70235" lon="1.42442">
        <ele>1504.8</ele>
        <time>2020-08-05T11:18:27Z</time>
      </trkpt>
      <trkpt lat="42.70233" lon="1.4244">
        <ele>1505.4</ele>
        <time>2020-08-05T11:18:30Z</time>
      </trkpt>
      <trkpt lat="42.70232" lon="1.42439">
        <ele>1505.6</ele>
        <time>2020-08-05T11:18:31Z</time>
      </trkpt>
      <trkpt lat="42.70232" lon="1.42438">
        <ele>1505.8</ele>
        <time>2020-08-05T11:18:32Z</time>
      </trkpt>
      <trkpt lat="42.7023" lon="1.42436">
        <ele>1506</ele>
        <time>2020-08-05T11:18:34Z</time>
      </trkpt>
      <trkpt lat="42.70228" lon="1.42432">
        <ele>1506.6</ele>
        <time>2020-08-05T11:18:37Z</time>
      </trkpt>
      <trkpt lat="42.70227" lon="1.42433">
        <ele>1507</ele>
        <time>2020-08-05T11:18:38Z</time>
      </trkpt>
      <trkpt lat="42.70221" lon="1.42431">
        <ele>1507.8</ele>
        <time>2020-08-05T11:18:44Z</time>
      </trkpt>
      <trkpt lat="42.70219" lon="1.4243">
        <ele>1508</ele>
        <time>2020-08-05T11:18:46Z</time>
      </trkpt>
      <trkpt lat="42.70217" lon="1.4243">
        <ele>1508.2</ele>
        <time>2020-08-05T11:18:48Z</time>
      </trkpt>
      <trkpt lat="42.70217" lon="1.42427">
        <ele>1508.6</ele>
        <time>2020-08-05T11:18:50Z</time>
      </trkpt>
      <trkpt lat="42.70218" lon="1.42425">
        <ele>1508.6</ele>
        <time>2020-08-05T11:18:52Z</time>
      </trkpt>
      <trkpt lat="42.70217" lon="1.42423">
        <ele>1508</ele>
        <time>2020-08-05T11:18:56Z</time>
      </trkpt>
      <trkpt lat="42.70217" lon="1.42423">
        <ele>1508.6</ele>
        <time>2020-08-05T11:19:06Z</time>
      </trkpt>
      <trkpt lat="42.70217" lon="1.42423">
        <ele>1508.8</ele>
        <time>2020-08-05T11:19:18Z</time>
      </trkpt>
      <trkpt lat="42.70218" lon="1.42424">
        <ele>1508.8</ele>
        <time>2020-08-05T11:19:27Z</time>
      </trkpt>
      <trkpt lat="42.70219" lon="1.42424">
        <ele>1508.6</ele>
        <time>2020-08-05T11:19:28Z</time>
      </trkpt>
      <trkpt lat="42.7022" lon="1.42433">
        <ele>1507.8</ele>
        <time>2020-08-05T11:19:33Z</time>
      </trkpt>
      <trkpt lat="42.70217" lon="1.42444">
        <ele>1508.2</ele>
        <time>2020-08-05T11:19:38Z</time>
      </trkpt>
      <trkpt lat="42.70218" lon="1.42451">
        <ele>1509</ele>
        <time>2020-08-05T11:19:42Z</time>
      </trkpt>
      <trkpt lat="42.70219" lon="1.42453">
        <ele>1509.2</ele>
        <time>2020-08-05T11:19:43Z</time>
      </trkpt>
      <trkpt lat="42.70222" lon="1.42456">
        <ele>1509.8</ele>
        <time>2020-08-05T11:19:47Z</time>
      </trkpt>
      <trkpt lat="42.70224" lon="1.42457">
        <ele>1510.2</ele>
        <time>2020-08-05T11:19:49Z</time>
      </trkpt>
      <trkpt lat="42.70226" lon="1.42458">
        <ele>1510.4</ele>
        <time>2020-08-05T11:19:50Z</time>
      </trkpt>
      <trkpt lat="42.7023" lon="1.42463">
        <ele>1511</ele>
        <time>2020-08-05T11:19:54Z</time>
      </trkpt>
      <trkpt lat="42.70231" lon="1.42465">
        <ele>1511.2</ele>
        <time>2020-08-05T11:19:55Z</time>
      </trkpt>
      <trkpt lat="42.70232" lon="1.42468">
        <ele>1511.6</ele>
        <time>2020-08-05T11:19:57Z</time>
      </trkpt>
      <trkpt lat="42.70235" lon="1.42473">
        <ele>1512</ele>
        <time>2020-08-05T11:20:01Z</time>
      </trkpt>
      <trkpt lat="42.70235" lon="1.42475">
        <ele>1512.2</ele>
        <time>2020-08-05T11:20:02Z</time>
      </trkpt>
      <trkpt lat="42.70237" lon="1.42477">
        <ele>1512.6</ele>
        <time>2020-08-05T11:20:04Z</time>
      </trkpt>
      <trkpt lat="42.7024" lon="1.42482">
        <ele>1513.6</ele>
        <time>2020-08-05T11:20:08Z</time>
      </trkpt>
      <trkpt lat="42.7024" lon="1.42484">
        <ele>1513.8</ele>
        <time>2020-08-05T11:20:09Z</time>
      </trkpt>
      <trkpt lat="42.70242" lon="1.42486">
        <ele>1514</ele>
        <time>2020-08-05T11:20:11Z</time>
      </trkpt>
      <trkpt lat="42.70243" lon="1.42487">
        <ele>1514.2</ele>
        <time>2020-08-05T11:20:12Z</time>
      </trkpt>
      <trkpt lat="42.70245" lon="1.42488">
        <ele>1514.4</ele>
        <time>2020-08-05T11:20:14Z</time>
      </trkpt>
      <trkpt lat="42.70247" lon="1.42491">
        <ele>1514.8</ele>
        <time>2020-08-05T11:20:16Z</time>
      </trkpt>
      <trkpt lat="42.70248" lon="1.42494">
        <ele>1515.2</ele>
        <time>2020-08-05T11:20:18Z</time>
      </trkpt>
      <trkpt lat="42.70251" lon="1.42497">
        <ele>1515.8</ele>
        <time>2020-08-05T11:20:21Z</time>
      </trkpt>
      <trkpt lat="42.70252" lon="1.425">
        <ele>1516.2</ele>
        <time>2020-08-05T11:20:23Z</time>
      </trkpt>
      <trkpt lat="42.70256" lon="1.42506">
        <ele>1517</ele>
        <time>2020-08-05T11:20:27Z</time>
      </trkpt>
      <trkpt lat="42.70257" lon="1.42508">
        <ele>1517.2</ele>
        <time>2020-08-05T11:20:28Z</time>
      </trkpt>
      <trkpt lat="42.70261" lon="1.42512">
        <ele>1518</ele>
        <time>2020-08-05T11:20:32Z</time>
      </trkpt>
      <trkpt lat="42.70262" lon="1.42513">
        <ele>1518.2</ele>
        <time>2020-08-05T11:20:33Z</time>
      </trkpt>
      <trkpt lat="42.70266" lon="1.4252">
        <ele>1519.2</ele>
        <time>2020-08-05T11:20:38Z</time>
      </trkpt>
      <trkpt lat="42.70268" lon="1.42523">
        <ele>1519.6</ele>
        <time>2020-08-05T11:20:41Z</time>
      </trkpt>
      <trkpt lat="42.70271" lon="1.42526">
        <ele>1520.2</ele>
        <time>2020-08-05T11:20:44Z</time>
      </trkpt>
      <trkpt lat="42.70277" lon="1.42531">
        <ele>1521</ele>
        <time>2020-08-05T11:20:49Z</time>
      </trkpt>
      <trkpt lat="42.70279" lon="1.42533">
        <ele>1521.4</ele>
        <time>2020-08-05T11:20:51Z</time>
      </trkpt>
      <trkpt lat="42.70284" lon="1.4254">
        <ele>1522.6</ele>
        <time>2020-08-05T11:20:56Z</time>
      </trkpt>
      <trkpt lat="42.70285" lon="1.42541">
        <ele>1522.8</ele>
        <time>2020-08-05T11:20:57Z</time>
      </trkpt>
      <trkpt lat="42.70288" lon="1.42546">
        <ele>1523.6</ele>
        <time>2020-08-05T11:21:01Z</time>
      </trkpt>
      <trkpt lat="42.70289" lon="1.42547">
        <ele>1523.8</ele>
        <time>2020-08-05T11:21:02Z</time>
      </trkpt>
      <trkpt lat="42.7029" lon="1.42548">
        <ele>1524</ele>
        <time>2020-08-05T11:21:03Z</time>
      </trkpt>
      <trkpt lat="42.70291" lon="1.42549">
        <ele>1524.2</ele>
        <time>2020-08-05T11:21:04Z</time>
      </trkpt>
      <trkpt lat="42.70294" lon="1.42552">
        <ele>1524.8</ele>
        <time>2020-08-05T11:21:07Z</time>
      </trkpt>
      <trkpt lat="42.70295" lon="1.42554">
        <ele>1525.2</ele>
        <time>2020-08-05T11:21:09Z</time>
      </trkpt>
      <trkpt lat="42.70299" lon="1.42559">
        <ele>1525.8</ele>
        <time>2020-08-05T11:21:13Z</time>
      </trkpt>
      <trkpt lat="42.703" lon="1.42561">
        <ele>1526</ele>
        <time>2020-08-05T11:21:15Z</time>
      </trkpt>
      <trkpt lat="42.703" lon="1.42562">
        <ele>1526.2</ele>
        <time>2020-08-05T11:21:16Z</time>
      </trkpt>
      <trkpt lat="42.70303" lon="1.42567">
        <ele>1527.2</ele>
        <time>2020-08-05T11:21:20Z</time>
      </trkpt>
      <trkpt lat="42.70305" lon="1.4257">
        <ele>1527.8</ele>
        <time>2020-08-05T11:21:23Z</time>
      </trkpt>
      <trkpt lat="42.70306" lon="1.42573">
        <ele>1528</ele>
        <time>2020-08-05T11:21:25Z</time>
      </trkpt>
      <trkpt lat="42.70306" lon="1.42575">
        <ele>1528.2</ele>
        <time>2020-08-05T11:21:26Z</time>
      </trkpt>
      <trkpt lat="42.70307" lon="1.42576">
        <ele>1528.4</ele>
        <time>2020-08-05T11:21:27Z</time>
      </trkpt>
      <trkpt lat="42.70309" lon="1.42579">
        <ele>1528.8</ele>
        <time>2020-08-05T11:21:30Z</time>
      </trkpt>
      <trkpt lat="42.70311" lon="1.42581">
        <ele>1529.4</ele>
        <time>2020-08-05T11:21:33Z</time>
      </trkpt>
      <trkpt lat="42.70315" lon="1.42587">
        <ele>1530.2</ele>
        <time>2020-08-05T11:21:38Z</time>
      </trkpt>
      <trkpt lat="42.70316" lon="1.4259">
        <ele>1530.4</ele>
        <time>2020-08-05T11:21:40Z</time>
      </trkpt>
      <trkpt lat="42.70317" lon="1.42591">
        <ele>1530.6</ele>
        <time>2020-08-05T11:21:41Z</time>
      </trkpt>
      <trkpt lat="42.7032" lon="1.42594">
        <ele>1531.4</ele>
        <time>2020-08-05T11:21:45Z</time>
      </trkpt>
      <trkpt lat="42.70321" lon="1.42597">
        <ele>1531.6</ele>
        <time>2020-08-05T11:21:47Z</time>
      </trkpt>
      <trkpt lat="42.70323" lon="1.42601">
        <ele>1532</ele>
        <time>2020-08-05T11:21:50Z</time>
      </trkpt>
      <trkpt lat="42.70325" lon="1.42607">
        <ele>1532.6</ele>
        <time>2020-08-05T11:21:54Z</time>
      </trkpt>
      <trkpt lat="42.70326" lon="1.42609">
        <ele>1533.2</ele>
        <time>2020-08-05T11:21:56Z</time>
      </trkpt>
      <trkpt lat="42.70331" lon="1.42615">
        <ele>1533.8</ele>
        <time>2020-08-05T11:22:01Z</time>
      </trkpt>
      <trkpt lat="42.70331" lon="1.42617">
        <ele>1534</ele>
        <time>2020-08-05T11:22:02Z</time>
      </trkpt>
      <trkpt lat="42.70334" lon="1.42622">
        <ele>1534.8</ele>
        <time>2020-08-05T11:22:07Z</time>
      </trkpt>
      <trkpt lat="42.70335" lon="1.42623">
        <ele>1535</ele>
        <time>2020-08-05T11:22:08Z</time>
      </trkpt>
      <trkpt lat="42.70337" lon="1.42626">
        <ele>1535.2</ele>
        <time>2020-08-05T11:22:10Z</time>
      </trkpt>
      <trkpt lat="42.70338" lon="1.42627">
        <ele>1535.6</ele>
        <time>2020-08-05T11:22:12Z</time>
      </trkpt>
      <trkpt lat="42.7034" lon="1.42629">
        <ele>1536</ele>
        <time>2020-08-05T11:22:14Z</time>
      </trkpt>
      <trkpt lat="42.7034" lon="1.4263">
        <ele>1536.2</ele>
        <time>2020-08-05T11:22:15Z</time>
      </trkpt>
      <trkpt lat="42.70342" lon="1.42633">
        <ele>1536.4</ele>
        <time>2020-08-05T11:22:17Z</time>
      </trkpt>
      <trkpt lat="42.70344" lon="1.42636">
        <ele>1537</ele>
        <time>2020-08-05T11:22:20Z</time>
      </trkpt>
      <trkpt lat="42.70346" lon="1.42639">
        <ele>1537.2</ele>
        <time>2020-08-05T11:22:22Z</time>
      </trkpt>
      <trkpt lat="42.70346" lon="1.42641">
        <ele>1537.4</ele>
        <time>2020-08-05T11:22:23Z</time>
      </trkpt>
      <trkpt lat="42.70348" lon="1.42644">
        <ele>1537.8</ele>
        <time>2020-08-05T11:22:26Z</time>
      </trkpt>
      <trkpt lat="42.70349" lon="1.42647">
        <ele>1538.2</ele>
        <time>2020-08-05T11:22:28Z</time>
      </trkpt>
      <trkpt lat="42.7035" lon="1.42649">
        <ele>1538.2</ele>
        <time>2020-08-05T11:22:29Z</time>
      </trkpt>
      <trkpt lat="42.70352" lon="1.42653">
        <ele>1539</ele>
        <time>2020-08-05T11:22:32Z</time>
      </trkpt>
      <trkpt lat="42.70352" lon="1.42654">
        <ele>1539.2</ele>
        <time>2020-08-05T11:22:33Z</time>
      </trkpt>
      <trkpt lat="42.70353" lon="1.42655">
        <ele>1539.2</ele>
        <time>2020-08-05T11:22:34Z</time>
      </trkpt>
      <trkpt lat="42.70356" lon="1.42663">
        <ele>1540.2</ele>
        <time>2020-08-05T11:22:40Z</time>
      </trkpt>
      <trkpt lat="42.70357" lon="1.42668">
        <ele>1540.8</ele>
        <time>2020-08-05T11:22:43Z</time>
      </trkpt>
      <trkpt lat="42.70358" lon="1.42675">
        <ele>1541.4</ele>
        <time>2020-08-05T11:22:47Z</time>
      </trkpt>
      <trkpt lat="42.70358" lon="1.42676">
        <ele>1541.6</ele>
        <time>2020-08-05T11:22:48Z</time>
      </trkpt>
      <trkpt lat="42.7036" lon="1.42683">
        <ele>1542.4</ele>
        <time>2020-08-05T11:22:53Z</time>
      </trkpt>
      <trkpt lat="42.70361" lon="1.42684">
        <ele>1542.6</ele>
        <time>2020-08-05T11:22:54Z</time>
      </trkpt>
      <trkpt lat="42.70362" lon="1.42689">
        <ele>1543</ele>
        <time>2020-08-05T11:22:57Z</time>
      </trkpt>
      <trkpt lat="42.70362" lon="1.42693">
        <ele>1543.6</ele>
        <time>2020-08-05T11:23:00Z</time>
      </trkpt>
      <trkpt lat="42.70364" lon="1.427">
        <ele>1544.4</ele>
        <time>2020-08-05T11:23:04Z</time>
      </trkpt>
      <trkpt lat="42.70365" lon="1.42702">
        <ele>1544.6</ele>
        <time>2020-08-05T11:23:06Z</time>
      </trkpt>
      <trkpt lat="42.70365" lon="1.42705">
        <ele>1545</ele>
        <time>2020-08-05T11:23:08Z</time>
      </trkpt>
      <trkpt lat="42.70365" lon="1.42711">
        <ele>1545.8</ele>
        <time>2020-08-05T11:23:12Z</time>
      </trkpt>
      <trkpt lat="42.70366" lon="1.42713">
        <ele>1546.2</ele>
        <time>2020-08-05T11:23:14Z</time>
      </trkpt>
      <trkpt lat="42.70367" lon="1.42719">
        <ele>1546.8</ele>
        <time>2020-08-05T11:23:18Z</time>
      </trkpt>
      <trkpt lat="42.70367" lon="1.42721">
        <ele>1546.8</ele>
        <time>2020-08-05T11:23:19Z</time>
      </trkpt>
      <trkpt lat="42.70368" lon="1.42728">
        <ele>1548</ele>
        <time>2020-08-05T11:23:24Z</time>
      </trkpt>
      <trkpt lat="42.70369" lon="1.42734">
        <ele>1548.6</ele>
        <time>2020-08-05T11:23:28Z</time>
      </trkpt>
      <trkpt lat="42.70369" lon="1.42738">
        <ele>1549</ele>
        <time>2020-08-05T11:23:31Z</time>
      </trkpt>
      <trkpt lat="42.70369" lon="1.42739">
        <ele>1549.2</ele>
        <time>2020-08-05T11:23:32Z</time>
      </trkpt>
      <trkpt lat="42.70369" lon="1.42741">
        <ele>1549.4</ele>
        <time>2020-08-05T11:23:33Z</time>
      </trkpt>
      <trkpt lat="42.70369" lon="1.42744">
        <ele>1549.8</ele>
        <time>2020-08-05T11:23:36Z</time>
      </trkpt>
      <trkpt lat="42.70371" lon="1.4275">
        <ele>1550.2</ele>
        <time>2020-08-05T11:23:40Z</time>
      </trkpt>
      <trkpt lat="42.70371" lon="1.42752">
        <ele>1550.6</ele>
        <time>2020-08-05T11:23:42Z</time>
      </trkpt>
      <trkpt lat="42.70371" lon="1.42758">
        <ele>1551.2</ele>
        <time>2020-08-05T11:23:46Z</time>
      </trkpt>
      <trkpt lat="42.70372" lon="1.42762">
        <ele>1551.8</ele>
        <time>2020-08-05T11:23:49Z</time>
      </trkpt>
      <trkpt lat="42.70373" lon="1.42768">
        <ele>1552.4</ele>
        <time>2020-08-05T11:23:53Z</time>
      </trkpt>
      <trkpt lat="42.70375" lon="1.42775">
        <ele>1552.8</ele>
        <time>2020-08-05T11:23:58Z</time>
      </trkpt>
      <trkpt lat="42.70376" lon="1.42779">
        <ele>1553.4</ele>
        <time>2020-08-05T11:24:01Z</time>
      </trkpt>
      <trkpt lat="42.70377" lon="1.42785">
        <ele>1553.8</ele>
        <time>2020-08-05T11:24:05Z</time>
      </trkpt>
      <trkpt lat="42.70378" lon="1.42786">
        <ele>1554</ele>
        <time>2020-08-05T11:24:06Z</time>
      </trkpt>
      <trkpt lat="42.70378" lon="1.42789">
        <ele>1554.6</ele>
        <time>2020-08-05T11:24:08Z</time>
      </trkpt>
      <trkpt lat="42.70378" lon="1.42791">
        <ele>1554.6</ele>
        <time>2020-08-05T11:24:09Z</time>
      </trkpt>
      <trkpt lat="42.70378" lon="1.42794">
        <ele>1555.2</ele>
        <time>2020-08-05T11:24:12Z</time>
      </trkpt>
      <trkpt lat="42.70379" lon="1.42798">
        <ele>1555.6</ele>
        <time>2020-08-05T11:24:15Z</time>
      </trkpt>
      <trkpt lat="42.70379" lon="1.428">
        <ele>1555.8</ele>
        <time>2020-08-05T11:24:16Z</time>
      </trkpt>
      <trkpt lat="42.7038" lon="1.42803">
        <ele>1556</ele>
        <time>2020-08-05T11:24:18Z</time>
      </trkpt>
      <trkpt lat="42.70379" lon="1.42805">
        <ele>1556.2</ele>
        <time>2020-08-05T11:24:19Z</time>
      </trkpt>
      <trkpt lat="42.70379" lon="1.42808">
        <ele>1556.8</ele>
        <time>2020-08-05T11:24:22Z</time>
      </trkpt>
      <trkpt lat="42.70379" lon="1.42809">
        <ele>1556.8</ele>
        <time>2020-08-05T11:24:23Z</time>
      </trkpt>
      <trkpt lat="42.7038" lon="1.42811">
        <ele>1557</ele>
        <time>2020-08-05T11:24:24Z</time>
      </trkpt>
      <trkpt lat="42.7038" lon="1.42812">
        <ele>1557.2</ele>
        <time>2020-08-05T11:24:25Z</time>
      </trkpt>
      <trkpt lat="42.70381" lon="1.42819">
        <ele>1557.8</ele>
        <time>2020-08-05T11:24:30Z</time>
      </trkpt>
      <trkpt lat="42.70381" lon="1.4282">
        <ele>1558</ele>
        <time>2020-08-05T11:24:31Z</time>
      </trkpt>
      <trkpt lat="42.70381" lon="1.42826">
        <ele>1559</ele>
        <time>2020-08-05T11:24:36Z</time>
      </trkpt>
      <trkpt lat="42.7038" lon="1.42828">
        <ele>1559.4</ele>
        <time>2020-08-05T11:24:38Z</time>
      </trkpt>
      <trkpt lat="42.70377" lon="1.42823">
        <ele>1559.6</ele>
        <time>2020-08-05T11:24:42Z</time>
      </trkpt>
      <trkpt lat="42.70376" lon="1.42819">
        <ele>1559.8</ele>
        <time>2020-08-05T11:24:44Z</time>
      </trkpt>
      <trkpt lat="42.70376" lon="1.42808">
        <ele>1560</ele>
        <time>2020-08-05T11:24:48Z</time>
      </trkpt>
      <trkpt lat="42.70375" lon="1.42806">
        <ele>1560</ele>
        <time>2020-08-05T11:24:49Z</time>
      </trkpt>
      <trkpt lat="42.70371" lon="1.42794">
        <ele>1560.6</ele>
        <time>2020-08-05T11:24:54Z</time>
      </trkpt>
      <trkpt lat="42.70365" lon="1.4277">
        <ele>1560.6</ele>
        <time>2020-08-05T11:25:02Z</time>
      </trkpt>
      <trkpt lat="42.70359" lon="1.4275">
        <ele>1560.8</ele>
        <time>2020-08-05T11:25:08Z</time>
      </trkpt>
      <trkpt lat="42.70354" lon="1.42737">
        <ele>1561</ele>
        <time>2020-08-05T11:25:12Z</time>
      </trkpt>
      <trkpt lat="42.70352" lon="1.42734">
        <ele>1561</ele>
        <time>2020-08-05T11:25:13Z</time>
      </trkpt>
      <trkpt lat="42.70342" lon="1.42712">
        <ele>1561.2</ele>
        <time>2020-08-05T11:25:20Z</time>
      </trkpt>
      <trkpt lat="42.70329" lon="1.42691">
        <ele>1561.6</ele>
        <time>2020-08-05T11:25:27Z</time>
      </trkpt>
      <trkpt lat="42.70315" lon="1.42669">
        <ele>1562</ele>
        <time>2020-08-05T11:25:34Z</time>
      </trkpt>
      <trkpt lat="42.703" lon="1.42648">
        <ele>1562</ele>
        <time>2020-08-05T11:25:41Z</time>
      </trkpt>
      <trkpt lat="42.70295" lon="1.42643">
        <ele>1562.2</ele>
        <time>2020-08-05T11:25:43Z</time>
      </trkpt>
      <trkpt lat="42.70285" lon="1.42633">
        <ele>1562</ele>
        <time>2020-08-05T11:25:47Z</time>
      </trkpt>
      <trkpt lat="42.70268" lon="1.42617">
        <ele>1562.2</ele>
        <time>2020-08-05T11:25:53Z</time>
      </trkpt>
      <trkpt lat="42.7025" lon="1.42603">
        <ele>1562.4</ele>
        <time>2020-08-05T11:25:59Z</time>
      </trkpt>
      <trkpt lat="42.70225" lon="1.42588">
        <ele>1562.8</ele>
        <time>2020-08-05T11:26:07Z</time>
      </trkpt>
      <trkpt lat="42.70222" lon="1.42586">
        <ele>1563.2</ele>
        <time>2020-08-05T11:26:08Z</time>
      </trkpt>
      <trkpt lat="42.70206" lon="1.42575">
        <ele>1563.4</ele>
        <time>2020-08-05T11:26:14Z</time>
      </trkpt>
      <trkpt lat="42.70186" lon="1.42564">
        <ele>1563.8</ele>
        <time>2020-08-05T11:26:20Z</time>
      </trkpt>
      <trkpt lat="42.70165" lon="1.4255">
        <ele>1563.6</ele>
        <time>2020-08-05T11:26:27Z</time>
      </trkpt>
      <trkpt lat="42.70151" lon="1.42538">
        <ele>1563.8</ele>
        <time>2020-08-05T11:26:32Z</time>
      </trkpt>
      <trkpt lat="42.70135" lon="1.42518">
        <ele>1564.2</ele>
        <time>2020-08-05T11:26:39Z</time>
      </trkpt>
      <trkpt lat="42.7012" lon="1.42512">
        <ele>1564.2</ele>
        <time>2020-08-05T11:26:44Z</time>
      </trkpt>
      <trkpt lat="42.70117" lon="1.4251">
        <ele>1564.2</ele>
        <time>2020-08-05T11:26:45Z</time>
      </trkpt>
      <trkpt lat="42.70104" lon="1.42502">
        <ele>1564.2</ele>
        <time>2020-08-05T11:26:49Z</time>
      </trkpt>
      <trkpt lat="42.70087" lon="1.42493">
        <ele>1564.4</ele>
        <time>2020-08-05T11:26:55Z</time>
      </trkpt>
      <trkpt lat="42.7007" lon="1.42484">
        <ele>1564.6</ele>
        <time>2020-08-05T11:27:01Z</time>
      </trkpt>
      <trkpt lat="42.70064" lon="1.42479">
        <ele>1564.4</ele>
        <time>2020-08-05T11:27:03Z</time>
      </trkpt>
      <trkpt lat="42.7005" lon="1.42461">
        <ele>1564.2</ele>
        <time>2020-08-05T11:27:10Z</time>
      </trkpt>
      <trkpt lat="42.70041" lon="1.42452">
        <ele>1564.6</ele>
        <time>2020-08-05T11:27:16Z</time>
      </trkpt>
      <trkpt lat="42.70034" lon="1.42438">
        <ele>1564.8</ele>
        <time>2020-08-05T11:27:23Z</time>
      </trkpt>
      <trkpt lat="42.70024" lon="1.42426">
        <ele>1565</ele>
        <time>2020-08-05T11:27:28Z</time>
      </trkpt>
      <trkpt lat="42.70017" lon="1.42419">
        <ele>1565</ele>
        <time>2020-08-05T11:27:33Z</time>
      </trkpt>
      <trkpt lat="42.70013" lon="1.42419">
        <ele>1565</ele>
        <time>2020-08-05T11:27:38Z</time>
      </trkpt>
      <trkpt lat="42.70012" lon="1.42418">
        <ele>1565</ele>
        <time>2020-08-05T11:27:39Z</time>
      </trkpt>
      <trkpt lat="42.70013" lon="1.42418">
        <ele>1565</ele>
        <time>2020-08-05T11:27:43Z</time>
      </trkpt>
      <trkpt lat="42.70013" lon="1.42418">
        <ele>1564.2</ele>
        <time>2020-08-05T11:27:51Z</time>
      </trkpt>
      <trkpt lat="42.70013" lon="1.42418">
        <ele>1564.2</ele>
        <time>2020-08-05T11:28:06Z</time>
      </trkpt>
      <trkpt lat="42.70013" lon="1.42418">
        <ele>1564</ele>
        <time>2020-08-05T11:28:23Z</time>
      </trkpt>
      <trkpt lat="42.70013" lon="1.42418">
        <ele>1564.2</ele>
        <time>2020-08-05T11:28:35Z</time>
      </trkpt>
      <trkpt lat="42.70013" lon="1.42418">
        <ele>1564.2</ele>
        <time>2020-08-05T11:28:41Z</time>
      </trkpt>
      <trkpt lat="42.70013" lon="1.42418">
        <ele>1564.2</ele>
        <time>2020-08-05T11:29:02Z</time>
      </trkpt>
      <trkpt lat="42.70013" lon="1.42418">
        <ele>1564.2</ele>
        <time>2020-08-05T11:29:19Z</time>
      </trkpt>
      <trkpt lat="42.70014" lon="1.42417">
        <ele>1564.4</ele>
        <time>2020-08-05T11:29:31Z</time>
      </trkpt>
      <trkpt lat="42.70013" lon="1.42417">
        <ele>1565</ele>
        <time>2020-08-05T11:29:33Z</time>
      </trkpt>
      <trkpt lat="42.70008" lon="1.42411">
        <ele>1565</ele>
        <time>2020-08-05T11:29:40Z</time>
      </trkpt>
      <trkpt lat="42.70006" lon="1.4241">
        <ele>1565.2</ele>
        <time>2020-08-05T11:29:46Z</time>
      </trkpt>
      <trkpt lat="42.70006" lon="1.4241">
        <ele>1565.2</ele>
        <time>2020-08-05T11:29:48Z</time>
      </trkpt>
      <trkpt lat="42.70006" lon="1.4241">
        <ele>1565</ele>
        <time>2020-08-05T11:29:58Z</time>
      </trkpt>
      <trkpt lat="42.70006" lon="1.4241">
        <ele>1565.2</ele>
        <time>2020-08-05T11:30:06Z</time>
      </trkpt>
      <trkpt lat="42.70006" lon="1.42411">
        <ele>1565</ele>
        <time>2020-08-05T11:30:12Z</time>
      </trkpt>
      <trkpt lat="42.70006" lon="1.42411">
        <ele>1565.2</ele>
        <time>2020-08-05T11:30:21Z</time>
      </trkpt>
      <trkpt lat="42.70006" lon="1.42411">
        <ele>1565</ele>
        <time>2020-08-05T11:30:33Z</time>
      </trkpt>
      <trkpt lat="42.70007" lon="1.42412">
        <ele>1565</ele>
        <time>2020-08-05T11:30:39Z</time>
      </trkpt>
      <trkpt lat="42.70016" lon="1.42419">
        <ele>1564.8</ele>
        <time>2020-08-05T11:30:44Z</time>
      </trkpt>
      <trkpt lat="42.70029" lon="1.42433">
        <ele>1564.8</ele>
        <time>2020-08-05T11:30:50Z</time>
      </trkpt>
      <trkpt lat="42.70037" lon="1.42442">
        <ele>1564.4</ele>
        <time>2020-08-05T11:30:56Z</time>
      </trkpt>
      <trkpt lat="42.70037" lon="1.42443">
        <ele>1564</ele>
        <time>2020-08-05T11:30:58Z</time>
      </trkpt>
      <trkpt lat="42.70036" lon="1.42443">
        <ele>1563.6</ele>
        <time>2020-08-05T11:31:01Z</time>
      </trkpt>
      <trkpt lat="42.70036" lon="1.42443">
        <ele>1563.6</ele>
        <time>2020-08-05T11:31:18Z</time>
      </trkpt>
      <trkpt lat="42.70036" lon="1.42443">
        <ele>1563.6</ele>
        <time>2020-08-05T11:31:30Z</time>
      </trkpt>
      <trkpt lat="42.70036" lon="1.42443">
        <ele>1563.6</ele>
        <time>2020-08-05T11:31:49Z</time>
      </trkpt>
      <trkpt lat="42.70036" lon="1.42443">
        <ele>1563.6</ele>
        <time>2020-08-05T11:32:05Z</time>
      </trkpt>
      <trkpt lat="42.70036" lon="1.42443">
        <ele>1563.6</ele>
        <time>2020-08-05T11:32:13Z</time>
      </trkpt>
      <trkpt lat="42.70036" lon="1.42443">
        <ele>1563.6</ele>
        <time>2020-08-05T11:32:19Z</time>
      </trkpt>
      <trkpt lat="42.70036" lon="1.42443">
        <ele>1563.6</ele>
        <time>2020-08-05T11:32:35Z</time>
      </trkpt>
      <trkpt lat="42.70036" lon="1.42443">
        <ele>1563.6</ele>
        <time>2020-08-05T11:32:54Z</time>
      </trkpt>
      <trkpt lat="42.70036" lon="1.42443">
        <ele>1563.8</ele>
        <time>2020-08-05T11:33:11Z</time>
      </trkpt>
      <trkpt lat="42.70037" lon="1.42443">
        <ele>1564.2</ele>
        <time>2020-08-05T11:33:18Z</time>
      </trkpt>
      <trkpt lat="42.70037" lon="1.42443">
        <ele>1564.2</ele>
        <time>2020-08-05T11:33:25Z</time>
      </trkpt>
      <trkpt lat="42.70037" lon="1.42442">
        <ele>1564.2</ele>
        <time>2020-08-05T11:33:37Z</time>
      </trkpt>
      <trkpt lat="42.70037" lon="1.42441">
        <ele>1564.2</ele>
        <time>2020-08-05T11:33:41Z</time>
      </trkpt>
      <trkpt lat="42.70037" lon="1.42441">
        <ele>1564.2</ele>
        <time>2020-08-05T11:33:44Z</time>
      </trkpt>
      <trkpt lat="42.70037" lon="1.4244">
        <ele>1563.8</ele>
        <time>2020-08-05T11:33:51Z</time>
      </trkpt>
      <trkpt lat="42.70038" lon="1.4244">
        <ele>1563</ele>
        <time>2020-08-05T11:33:54Z</time>
      </trkpt>
      <trkpt lat="42.70041" lon="1.4244">
        <ele>1562</ele>
        <time>2020-08-05T11:33:57Z</time>
      </trkpt>
      <trkpt lat="42.70043" lon="1.42441">
        <ele>1561.4</ele>
        <time>2020-08-05T11:33:58Z</time>
      </trkpt>
      <trkpt lat="42.70043" lon="1.4244">
        <ele>1561</ele>
        <time>2020-08-05T11:34:00Z</time>
      </trkpt>
      <trkpt lat="42.70048" lon="1.42441">
        <ele>1559.4</ele>
        <time>2020-08-05T11:34:03Z</time>
      </trkpt>
      <trkpt lat="42.70048" lon="1.42442">
        <ele>1558.8</ele>
        <time>2020-08-05T11:34:04Z</time>
      </trkpt>
      <trkpt lat="42.70049" lon="1.42442">
        <ele>1558.4</ele>
        <time>2020-08-05T11:34:05Z</time>
      </trkpt>
      <trkpt lat="42.70049" lon="1.42442">
        <ele>1558</ele>
        <time>2020-08-05T11:34:07Z</time>
      </trkpt>
      <trkpt lat="42.70049" lon="1.42442">
        <ele>1557.4</ele>
        <time>2020-08-05T11:34:10Z</time>
      </trkpt>
      <trkpt lat="42.7005" lon="1.42442">
        <ele>1556.6</ele>
        <time>2020-08-05T11:34:13Z</time>
      </trkpt>
      <trkpt lat="42.7005" lon="1.42442">
        <ele>1556.4</ele>
        <time>2020-08-05T11:34:15Z</time>
      </trkpt>
      <trkpt lat="42.70052" lon="1.42442">
        <ele>1555</ele>
        <time>2020-08-05T11:34:21Z</time>
      </trkpt>
      <trkpt lat="42.70052" lon="1.42442">
        <ele>1554.4</ele>
        <time>2020-08-05T11:34:23Z</time>
      </trkpt>
      <trkpt lat="42.70053" lon="1.42442">
        <ele>1554</ele>
        <time>2020-08-05T11:34:26Z</time>
      </trkpt>
      <trkpt lat="42.70057" lon="1.42445">
        <ele>1553</ele>
        <time>2020-08-05T11:34:30Z</time>
      </trkpt>
      <trkpt lat="42.70059" lon="1.42446">
        <ele>1551.8</ele>
        <time>2020-08-05T11:34:36Z</time>
      </trkpt>
      <trkpt lat="42.70063" lon="1.42447">
        <ele>1551.4</ele>
        <time>2020-08-05T11:34:42Z</time>
      </trkpt>
      <trkpt lat="42.70065" lon="1.42449">
        <ele>1550.8</ele>
        <time>2020-08-05T11:34:45Z</time>
      </trkpt>
      <trkpt lat="42.70067" lon="1.42451">
        <ele>1550.4</ele>
        <time>2020-08-05T11:34:47Z</time>
      </trkpt>
      <trkpt lat="42.70068" lon="1.42452">
        <ele>1550</ele>
        <time>2020-08-05T11:34:53Z</time>
      </trkpt>
      <trkpt lat="42.7007" lon="1.42452">
        <ele>1550</ele>
        <time>2020-08-05T11:34:57Z</time>
      </trkpt>
      <trkpt lat="42.70071" lon="1.42452">
        <ele>1549.8</ele>
        <time>2020-08-05T11:34:58Z</time>
      </trkpt>
      <trkpt lat="42.70072" lon="1.42453">
        <ele>1549.4</ele>
        <time>2020-08-05T11:34:59Z</time>
      </trkpt>
      <trkpt lat="42.70074" lon="1.42454">
        <ele>1548.8</ele>
        <time>2020-08-05T11:35:02Z</time>
      </trkpt>
      <trkpt lat="42.70075" lon="1.42453">
        <ele>1548.4</ele>
        <time>2020-08-05T11:35:03Z</time>
      </trkpt>
      <trkpt lat="42.70076" lon="1.42453">
        <ele>1548.2</ele>
        <time>2020-08-05T11:35:04Z</time>
      </trkpt>
      <trkpt lat="42.7008" lon="1.42452">
        <ele>1547.2</ele>
        <time>2020-08-05T11:35:08Z</time>
      </trkpt>
      <trkpt lat="42.70081" lon="1.42452">
        <ele>1546.4</ele>
        <time>2020-08-05T11:35:10Z</time>
      </trkpt>
      <trkpt lat="42.70083" lon="1.42452">
        <ele>1546</ele>
        <time>2020-08-05T11:35:12Z</time>
      </trkpt>
      <trkpt lat="42.70085" lon="1.42451">
        <ele>1545.6</ele>
        <time>2020-08-05T11:35:18Z</time>
      </trkpt>
      <trkpt lat="42.70088" lon="1.4245">
        <ele>1545</ele>
        <time>2020-08-05T11:35:22Z</time>
      </trkpt>
      <trkpt lat="42.70089" lon="1.4245">
        <ele>1544.6</ele>
        <time>2020-08-05T11:35:23Z</time>
      </trkpt>
      <trkpt lat="42.70091" lon="1.42449">
        <ele>1544</ele>
        <time>2020-08-05T11:35:25Z</time>
      </trkpt>
      <trkpt lat="42.70096" lon="1.42447">
        <ele>1543.2</ele>
        <time>2020-08-05T11:35:27Z</time>
      </trkpt>
      <trkpt lat="42.70098" lon="1.42446">
        <ele>1542.8</ele>
        <time>2020-08-05T11:35:28Z</time>
      </trkpt>
      <trkpt lat="42.70101" lon="1.42445">
        <ele>1541.4</ele>
        <time>2020-08-05T11:35:29Z</time>
      </trkpt>
      <trkpt lat="42.70106" lon="1.42444">
        <ele>1540.2</ele>
        <time>2020-08-05T11:35:31Z</time>
      </trkpt>
      <trkpt lat="42.7011" lon="1.42442">
        <ele>1539.6</ele>
        <time>2020-08-05T11:35:33Z</time>
      </trkpt>
      <trkpt lat="42.70111" lon="1.42442">
        <ele>1539.2</ele>
        <time>2020-08-05T11:35:34Z</time>
      </trkpt>
      <trkpt lat="42.70112" lon="1.42443">
        <ele>1538.2</ele>
        <time>2020-08-05T11:35:38Z</time>
      </trkpt>
      <trkpt lat="42.70114" lon="1.42444">
        <ele>1538.4</ele>
        <time>2020-08-05T11:35:42Z</time>
      </trkpt>
      <trkpt lat="42.70115" lon="1.42443">
        <ele>1538</ele>
        <time>2020-08-05T11:35:47Z</time>
      </trkpt>
      <trkpt lat="42.70116" lon="1.42442">
        <ele>1537.8</ele>
        <time>2020-08-05T11:35:48Z</time>
      </trkpt>
      <trkpt lat="42.70117" lon="1.42442">
        <ele>1537</ele>
        <time>2020-08-05T11:35:52Z</time>
      </trkpt>
      <trkpt lat="42.70118" lon="1.42441">
        <ele>1536.6</ele>
        <time>2020-08-05T11:35:53Z</time>
      </trkpt>
      <trkpt lat="42.70121" lon="1.42441">
        <ele>1536</ele>
        <time>2020-08-05T11:35:56Z</time>
      </trkpt>
      <trkpt lat="42.70123" lon="1.4244">
        <ele>1535.4</ele>
        <time>2020-08-05T11:35:59Z</time>
      </trkpt>
      <trkpt lat="42.70126" lon="1.42437">
        <ele>1534.8</ele>
        <time>2020-08-05T11:36:03Z</time>
      </trkpt>
      <trkpt lat="42.70127" lon="1.42437">
        <ele>1534.6</ele>
        <time>2020-08-05T11:36:04Z</time>
      </trkpt>
      <trkpt lat="42.70128" lon="1.42437">
        <ele>1534.2</ele>
        <time>2020-08-05T11:36:05Z</time>
      </trkpt>
      <trkpt lat="42.7013" lon="1.42437">
        <ele>1533.8</ele>
        <time>2020-08-05T11:36:07Z</time>
      </trkpt>
      <trkpt lat="42.70133" lon="1.42437">
        <ele>1532.6</ele>
        <time>2020-08-05T11:36:11Z</time>
      </trkpt>
      <trkpt lat="42.70135" lon="1.42437">
        <ele>1532.4</ele>
        <time>2020-08-05T11:36:13Z</time>
      </trkpt>
      <trkpt lat="42.70137" lon="1.42438">
        <ele>1532.4</ele>
        <time>2020-08-05T11:36:15Z</time>
      </trkpt>
      <trkpt lat="42.70137" lon="1.42438">
        <ele>1532</ele>
        <time>2020-08-05T11:36:17Z</time>
      </trkpt>
      <trkpt lat="42.70138" lon="1.42438">
        <ele>1531.6</ele>
        <time>2020-08-05T11:36:19Z</time>
      </trkpt>
      <trkpt lat="42.70143" lon="1.42436">
        <ele>1530.8</ele>
        <time>2020-08-05T11:36:22Z</time>
      </trkpt>
      <trkpt lat="42.70145" lon="1.42435">
        <ele>1530.4</ele>
        <time>2020-08-05T11:36:23Z</time>
      </trkpt>
      <trkpt lat="42.70149" lon="1.42433">
        <ele>1529.4</ele>
        <time>2020-08-05T11:36:25Z</time>
      </trkpt>
      <trkpt lat="42.70151" lon="1.42431">
        <ele>1528.6</ele>
        <time>2020-08-05T11:36:26Z</time>
      </trkpt>
      <trkpt lat="42.70152" lon="1.42429">
        <ele>1528</ele>
        <time>2020-08-05T11:36:27Z</time>
      </trkpt>
      <trkpt lat="42.70157" lon="1.42428">
        <ele>1526.8</ele>
        <time>2020-08-05T11:36:29Z</time>
      </trkpt>
      <trkpt lat="42.70158" lon="1.42428">
        <ele>1526.2</ele>
        <time>2020-08-05T11:36:30Z</time>
      </trkpt>
      <trkpt lat="42.7016" lon="1.42429">
        <ele>1525.6</ele>
        <time>2020-08-05T11:36:31Z</time>
      </trkpt>
      <trkpt lat="42.7016" lon="1.4243">
        <ele>1525</ele>
        <time>2020-08-05T11:36:34Z</time>
      </trkpt>
      <trkpt lat="42.70164" lon="1.4243">
        <ele>1524.2</ele>
        <time>2020-08-05T11:36:37Z</time>
      </trkpt>
      <trkpt lat="42.70166" lon="1.42431">
        <ele>1524</ele>
        <time>2020-08-05T11:36:38Z</time>
      </trkpt>
      <trkpt lat="42.70172" lon="1.42434">
        <ele>1523</ele>
        <time>2020-08-05T11:36:41Z</time>
      </trkpt>
      <trkpt lat="42.70173" lon="1.42435">
        <ele>1522.6</ele>
        <time>2020-08-05T11:36:42Z</time>
      </trkpt>
      <trkpt lat="42.70176" lon="1.42437">
        <ele>1521.6</ele>
        <time>2020-08-05T11:36:44Z</time>
      </trkpt>
      <trkpt lat="42.70178" lon="1.42437">
        <ele>1521.4</ele>
        <time>2020-08-05T11:36:46Z</time>
      </trkpt>
      <trkpt lat="42.70181" lon="1.42435">
        <ele>1520.6</ele>
        <time>2020-08-05T11:36:48Z</time>
      </trkpt>
      <trkpt lat="42.70182" lon="1.42434">
        <ele>1519.4</ele>
        <time>2020-08-05T11:36:50Z</time>
      </trkpt>
      <trkpt lat="42.70183" lon="1.42434">
        <ele>1519</ele>
        <time>2020-08-05T11:36:51Z</time>
      </trkpt>
      <trkpt lat="42.70186" lon="1.42435">
        <ele>1518.8</ele>
        <time>2020-08-05T11:36:53Z</time>
      </trkpt>
      <trkpt lat="42.70188" lon="1.42434">
        <ele>1518.6</ele>
        <time>2020-08-05T11:36:55Z</time>
      </trkpt>
      <trkpt lat="42.7019" lon="1.42433">
        <ele>1518.2</ele>
        <time>2020-08-05T11:36:56Z</time>
      </trkpt>
      <trkpt lat="42.70193" lon="1.42433">
        <ele>1516.8</ele>
        <time>2020-08-05T11:36:58Z</time>
      </trkpt>
      <trkpt lat="42.70193" lon="1.42433">
        <ele>1516.4</ele>
        <time>2020-08-05T11:36:59Z</time>
      </trkpt>
      <trkpt lat="42.70193" lon="1.42433">
        <ele>1516</ele>
        <time>2020-08-05T11:37:04Z</time>
      </trkpt>
      <trkpt lat="42.70195" lon="1.42432">
        <ele>1515.8</ele>
        <time>2020-08-05T11:37:07Z</time>
      </trkpt>
      <trkpt lat="42.70203" lon="1.42429">
        <ele>1514.2</ele>
        <time>2020-08-05T11:37:11Z</time>
      </trkpt>
      <trkpt lat="42.70207" lon="1.42426">
        <ele>1512.4</ele>
        <time>2020-08-05T11:37:13Z</time>
      </trkpt>
      <trkpt lat="42.7021" lon="1.42424">
        <ele>1511.4</ele>
        <time>2020-08-05T11:37:14Z</time>
      </trkpt>
      <trkpt lat="42.70212" lon="1.42423">
        <ele>1510.2</ele>
        <time>2020-08-05T11:37:15Z</time>
      </trkpt>
      <trkpt lat="42.70214" lon="1.42422">
        <ele>1509.6</ele>
        <time>2020-08-05T11:37:16Z</time>
      </trkpt>
      <trkpt lat="42.70215" lon="1.42423">
        <ele>1508.6</ele>
        <time>2020-08-05T11:37:17Z</time>
      </trkpt>
      <trkpt lat="42.70219" lon="1.42424">
        <ele>1507.6</ele>
        <time>2020-08-05T11:37:20Z</time>
      </trkpt>
      <trkpt lat="42.7022" lon="1.42424">
        <ele>1507.4</ele>
        <time>2020-08-05T11:37:21Z</time>
      </trkpt>
      <trkpt lat="42.70222" lon="1.42421">
        <ele>1507</ele>
        <time>2020-08-05T11:37:24Z</time>
      </trkpt>
      <trkpt lat="42.70222" lon="1.42421">
        <ele>1506.4</ele>
        <time>2020-08-05T11:37:31Z</time>
      </trkpt>
      <trkpt lat="42.70222" lon="1.42421">
        <ele>1506.4</ele>
        <time>2020-08-05T11:37:49Z</time>
      </trkpt>
      <trkpt lat="42.70225" lon="1.42421">
        <ele>1507.6</ele>
        <time>2020-08-05T11:49:56Z</time>
      </trkpt>
      <trkpt lat="42.70225" lon="1.42421">
        <ele>1507.8</ele>
        <time>2020-08-05T11:49:59Z</time>
      </trkpt>
      <trkpt lat="42.70225" lon="1.42421">
        <ele>1508</ele>
        <time>2020-08-05T11:50:16Z</time>
      </trkpt>
      <trkpt lat="42.70226" lon="1.42425">
        <ele>1508</ele>
        <time>2020-08-05T11:50:26Z</time>
      </trkpt>
      <trkpt lat="42.70227" lon="1.42431">
        <ele>1507.4</ele>
        <time>2020-08-05T11:50:28Z</time>
      </trkpt>
      <trkpt lat="42.70232" lon="1.42436">
        <ele>1506.8</ele>
        <time>2020-08-05T11:50:30Z</time>
      </trkpt>
      <trkpt lat="42.70236" lon="1.42441">
        <ele>1506.2</ele>
        <time>2020-08-05T11:50:32Z</time>
      </trkpt>
      <trkpt lat="42.7024" lon="1.42444">
        <ele>1504.6</ele>
        <time>2020-08-05T11:50:34Z</time>
      </trkpt>
      <trkpt lat="42.70246" lon="1.4245">
        <ele>1503.4</ele>
        <time>2020-08-05T11:50:38Z</time>
      </trkpt>
      <trkpt lat="42.70248" lon="1.42451">
        <ele>1503.2</ele>
        <time>2020-08-05T11:50:39Z</time>
      </trkpt>
      <trkpt lat="42.70256" lon="1.42452">
        <ele>1502.4</ele>
        <time>2020-08-05T11:50:42Z</time>
      </trkpt>
      <trkpt lat="42.70259" lon="1.42451">
        <ele>1501.8</ele>
        <time>2020-08-05T11:50:43Z</time>
      </trkpt>
      <trkpt lat="42.70261" lon="1.42449">
        <ele>1501.4</ele>
        <time>2020-08-05T11:50:45Z</time>
      </trkpt>
      <trkpt lat="42.70262" lon="1.42448">
        <ele>1501.2</ele>
        <time>2020-08-05T11:50:47Z</time>
      </trkpt>
      <trkpt lat="42.70263" lon="1.42448">
        <ele>1500.8</ele>
        <time>2020-08-05T11:50:57Z</time>
      </trkpt>
      <trkpt lat="42.70263" lon="1.42447">
        <ele>1501</ele>
        <time>2020-08-05T11:51:03Z</time>
      </trkpt>
      <trkpt lat="42.70263" lon="1.42447">
        <ele>1501</ele>
        <time>2020-08-05T11:51:10Z</time>
      </trkpt>
      <trkpt lat="42.70263" lon="1.42446">
        <ele>1500</ele>
        <time>2020-08-05T11:51:15Z</time>
      </trkpt>
      <trkpt lat="42.70262" lon="1.42444">
        <ele>1499.4</ele>
        <time>2020-08-05T11:51:17Z</time>
      </trkpt>
      <trkpt lat="42.70262" lon="1.42442">
        <ele>1498.8</ele>
        <time>2020-08-05T11:51:21Z</time>
      </trkpt>
      <trkpt lat="42.70262" lon="1.42442">
        <ele>1498</ele>
        <time>2020-08-05T11:51:23Z</time>
      </trkpt>
      <trkpt lat="42.70262" lon="1.42441">
        <ele>1497.6</ele>
        <time>2020-08-05T11:51:24Z</time>
      </trkpt>
      <trkpt lat="42.70262" lon="1.42442">
        <ele>1496.6</ele>
        <time>2020-08-05T11:51:27Z</time>
      </trkpt>
      <trkpt lat="42.70262" lon="1.4244">
        <ele>1495.6</ele>
        <time>2020-08-05T11:51:30Z</time>
      </trkpt>
      <trkpt lat="42.70262" lon="1.4244">
        <ele>1495.4</ele>
        <time>2020-08-05T11:51:31Z</time>
      </trkpt>
      <trkpt lat="42.70263" lon="1.42437">
        <ele>1495.4</ele>
        <time>2020-08-05T11:51:35Z</time>
      </trkpt>
      <trkpt lat="42.70263" lon="1.42432">
        <ele>1494.2</ele>
        <time>2020-08-05T11:51:41Z</time>
      </trkpt>
      <trkpt lat="42.70264" lon="1.42431">
        <ele>1493.8</ele>
        <time>2020-08-05T11:51:43Z</time>
      </trkpt>
      <trkpt lat="42.70265" lon="1.42431">
        <ele>1493.2</ele>
        <time>2020-08-05T11:51:45Z</time>
      </trkpt>
      <trkpt lat="42.70266" lon="1.4243">
        <ele>1492.2</ele>
        <time>2020-08-05T11:51:47Z</time>
      </trkpt>
      <trkpt lat="42.70267" lon="1.4243">
        <ele>1492.2</ele>
        <time>2020-08-05T11:51:48Z</time>
      </trkpt>
      <trkpt lat="42.70271" lon="1.42429">
        <ele>1491</ele>
        <time>2020-08-05T11:51:56Z</time>
      </trkpt>
      <trkpt lat="42.70272" lon="1.42429">
        <ele>1490</ele>
        <time>2020-08-05T11:52:00Z</time>
      </trkpt>
      <trkpt lat="42.70272" lon="1.42429">
        <ele>1489.6</ele>
        <time>2020-08-05T11:52:03Z</time>
      </trkpt>
      <trkpt lat="42.70275" lon="1.42428">
        <ele>1488.6</ele>
        <time>2020-08-05T11:52:06Z</time>
      </trkpt>
      <trkpt lat="42.70276" lon="1.42425">
        <ele>1487.8</ele>
        <time>2020-08-05T11:52:10Z</time>
      </trkpt>
      <trkpt lat="42.70275" lon="1.42424">
        <ele>1487.4</ele>
        <time>2020-08-05T11:52:11Z</time>
      </trkpt>
      <trkpt lat="42.70272" lon="1.42419">
        <ele>1486.8</ele>
        <time>2020-08-05T11:52:14Z</time>
      </trkpt>
      <trkpt lat="42.7027" lon="1.42414">
        <ele>1486.2</ele>
        <time>2020-08-05T11:52:16Z</time>
      </trkpt>
      <trkpt lat="42.70269" lon="1.42411">
        <ele>1485.8</ele>
        <time>2020-08-05T11:52:17Z</time>
      </trkpt>
      <trkpt lat="42.70266" lon="1.42406">
        <ele>1484.8</ele>
        <time>2020-08-05T11:52:19Z</time>
      </trkpt>
      <trkpt lat="42.70263" lon="1.42401">
        <ele>1484</ele>
        <time>2020-08-05T11:52:22Z</time>
      </trkpt>
      <trkpt lat="42.70261" lon="1.42397">
        <ele>1483.6</ele>
        <time>2020-08-05T11:52:24Z</time>
      </trkpt>
      <trkpt lat="42.70259" lon="1.42394">
        <ele>1483</ele>
        <time>2020-08-05T11:52:27Z</time>
      </trkpt>
      <trkpt lat="42.70258" lon="1.42391">
        <ele>1483</ele>
        <time>2020-08-05T11:52:36Z</time>
      </trkpt>
      <trkpt lat="42.70255" lon="1.42388">
        <ele>1482.4</ele>
        <time>2020-08-05T11:52:42Z</time>
      </trkpt>
      <trkpt lat="42.70255" lon="1.42387">
        <ele>1482.4</ele>
        <time>2020-08-05T11:52:43Z</time>
      </trkpt>
      <trkpt lat="42.70249" lon="1.42374">
        <ele>1481.2</ele>
        <time>2020-08-05T11:52:49Z</time>
      </trkpt>
      <trkpt lat="42.70247" lon="1.42371">
        <ele>1480.8</ele>
        <time>2020-08-05T11:52:50Z</time>
      </trkpt>
      <trkpt lat="42.70243" lon="1.42361">
        <ele>1480</ele>
        <time>2020-08-05T11:52:53Z</time>
      </trkpt>
      <trkpt lat="42.70241" lon="1.42359">
        <ele>1479.8</ele>
        <time>2020-08-05T11:52:54Z</time>
      </trkpt>
      <trkpt lat="42.70238" lon="1.4235">
        <ele>1478.8</ele>
        <time>2020-08-05T11:52:58Z</time>
      </trkpt>
      <trkpt lat="42.70238" lon="1.42348">
        <ele>1477.8</ele>
        <time>2020-08-05T11:53:00Z</time>
      </trkpt>
      <trkpt lat="42.70236" lon="1.42344">
        <ele>1478.2</ele>
        <time>2020-08-05T11:53:05Z</time>
      </trkpt>
      <trkpt lat="42.70234" lon="1.42344">
        <ele>1478</ele>
        <time>2020-08-05T11:53:12Z</time>
      </trkpt>
      <trkpt lat="42.70232" lon="1.42344">
        <ele>1477.2</ele>
        <time>2020-08-05T11:53:17Z</time>
      </trkpt>
      <trkpt lat="42.70232" lon="1.42344">
        <ele>1476.6</ele>
        <time>2020-08-05T11:53:20Z</time>
      </trkpt>
      <trkpt lat="42.70232" lon="1.42344">
        <ele>1476.4</ele>
        <time>2020-08-05T11:53:23Z</time>
      </trkpt>
      <trkpt lat="42.70232" lon="1.42344">
        <ele>1476.2</ele>
        <time>2020-08-05T11:53:38Z</time>
      </trkpt>
      <trkpt lat="42.70232" lon="1.42344">
        <ele>1476.4</ele>
        <time>2020-08-05T11:53:47Z</time>
      </trkpt>
      <trkpt lat="42.70232" lon="1.42344">
        <ele>1476.2</ele>
        <time>2020-08-05T11:54:01Z</time>
      </trkpt>
      <trkpt lat="42.70232" lon="1.42344">
        <ele>1476.2</ele>
        <time>2020-08-05T11:54:09Z</time>
      </trkpt>
      <trkpt lat="42.70232" lon="1.42344">
        <ele>1476.6</ele>
        <time>2020-08-05T11:54:20Z</time>
      </trkpt>
      <trkpt lat="42.70232" lon="1.42344">
        <ele>1477.2</ele>
        <time>2020-08-05T11:54:30Z</time>
      </trkpt>
      <trkpt lat="42.70232" lon="1.42344">
        <ele>1477.4</ele>
        <time>2020-08-05T11:54:35Z</time>
      </trkpt>
      <trkpt lat="42.70232" lon="1.42344">
        <ele>1477.8</ele>
        <time>2020-08-05T11:54:37Z</time>
      </trkpt>
      <trkpt lat="42.70234" lon="1.42343">
        <ele>1478.4</ele>
        <time>2020-08-05T11:54:44Z</time>
      </trkpt>
      <trkpt lat="42.70237" lon="1.42343">
        <ele>1477.8</ele>
        <time>2020-08-05T11:54:51Z</time>
      </trkpt>
      <trkpt lat="42.70237" lon="1.42343">
        <ele>1477.8</ele>
        <time>2020-08-05T11:55:02Z</time>
      </trkpt>
      <trkpt lat="42.70238" lon="1.42344">
        <ele>1477.8</ele>
        <time>2020-08-05T11:55:03Z</time>
      </trkpt>
      <trkpt lat="42.70241" lon="1.42348">
        <ele>1477.4</ele>
        <time>2020-08-05T11:55:06Z</time>
      </trkpt>
      <trkpt lat="42.70241" lon="1.42348">
        <ele>1477.2</ele>
        <time>2020-08-05T11:55:07Z</time>
      </trkpt>
      <trkpt lat="42.70242" lon="1.4235">
        <ele>1477.6</ele>
        <time>2020-08-05T11:55:14Z</time>
      </trkpt>
      <trkpt lat="42.70242" lon="1.42348">
        <ele>1477.4</ele>
        <time>2020-08-05T11:55:17Z</time>
      </trkpt>
      <trkpt lat="42.70241" lon="1.42345">
        <ele>1477.6</ele>
        <time>2020-08-05T11:55:19Z</time>
      </trkpt>
      <trkpt lat="42.7023" lon="1.42339">
        <ele>1478.2</ele>
        <time>2020-08-05T11:55:25Z</time>
      </trkpt>
      <trkpt lat="42.70229" lon="1.42339">
        <ele>1478.2</ele>
        <time>2020-08-05T11:55:26Z</time>
      </trkpt>
      <trkpt lat="42.70223" lon="1.42336">
        <ele>1476.8</ele>
        <time>2020-08-05T11:55:31Z</time>
      </trkpt>
      <trkpt lat="42.70221" lon="1.42335">
        <ele>1476.2</ele>
        <time>2020-08-05T11:55:39Z</time>
      </trkpt>
      <trkpt lat="42.70221" lon="1.42334">
        <ele>1476.4</ele>
        <time>2020-08-05T11:55:46Z</time>
      </trkpt>
      <trkpt lat="42.70223" lon="1.42328">
        <ele>1476.2</ele>
        <time>2020-08-05T11:55:51Z</time>
      </trkpt>
      <trkpt lat="42.70224" lon="1.42326">
        <ele>1476.2</ele>
        <time>2020-08-05T11:55:52Z</time>
      </trkpt>
      <trkpt lat="42.70224" lon="1.42324">
        <ele>1476</ele>
        <time>2020-08-05T11:55:56Z</time>
      </trkpt>
      <trkpt lat="42.70224" lon="1.42323">
        <ele>1475.6</ele>
        <time>2020-08-05T11:55:58Z</time>
      </trkpt>
      <trkpt lat="42.70224" lon="1.42323">
        <ele>1475.6</ele>
        <time>2020-08-05T11:56:02Z</time>
      </trkpt>
      <trkpt lat="42.70225" lon="1.42323">
        <ele>1475.6</ele>
        <time>2020-08-05T11:56:08Z</time>
      </trkpt>
      <trkpt lat="42.70228" lon="1.42323">
        <ele>1475</ele>
        <time>2020-08-05T11:56:10Z</time>
      </trkpt>
      <trkpt lat="42.70231" lon="1.42321">
        <ele>1474.6</ele>
        <time>2020-08-05T11:56:12Z</time>
      </trkpt>
      <trkpt lat="42.70235" lon="1.42321">
        <ele>1473.4</ele>
        <time>2020-08-05T11:56:15Z</time>
      </trkpt>
      <trkpt lat="42.70236" lon="1.4232">
        <ele>1473.2</ele>
        <time>2020-08-05T11:56:16Z</time>
      </trkpt>
      <trkpt lat="42.70237" lon="1.42319">
        <ele>1472.8</ele>
        <time>2020-08-05T11:56:21Z</time>
      </trkpt>
      <trkpt lat="42.70242" lon="1.42312">
        <ele>1472.4</ele>
        <time>2020-08-05T11:56:26Z</time>
      </trkpt>
      <trkpt lat="42.70243" lon="1.42311">
        <ele>1472.4</ele>
        <time>2020-08-05T11:56:27Z</time>
      </trkpt>
      <trkpt lat="42.7025" lon="1.42304">
        <ele>1471.6</ele>
        <time>2020-08-05T11:56:32Z</time>
      </trkpt>
      <trkpt lat="42.70254" lon="1.423">
        <ele>1471</ele>
        <time>2020-08-05T11:56:34Z</time>
      </trkpt>
      <trkpt lat="42.70259" lon="1.42297">
        <ele>1470.6</ele>
        <time>2020-08-05T11:56:36Z</time>
      </trkpt>
      <trkpt lat="42.70266" lon="1.42291">
        <ele>1470</ele>
        <time>2020-08-05T11:56:39Z</time>
      </trkpt>
      <trkpt lat="42.70272" lon="1.42288">
        <ele>1469.8</ele>
        <time>2020-08-05T11:56:41Z</time>
      </trkpt>
      <trkpt lat="42.70286" lon="1.42283">
        <ele>1469.2</ele>
        <time>2020-08-05T11:56:46Z</time>
      </trkpt>
      <trkpt lat="42.70292" lon="1.42278">
        <ele>1468.8</ele>
        <time>2020-08-05T11:56:48Z</time>
      </trkpt>
      <trkpt lat="42.70302" lon="1.42268">
        <ele>1468.2</ele>
        <time>2020-08-05T11:56:51Z</time>
      </trkpt>
      <trkpt lat="42.70313" lon="1.4226">
        <ele>1467.8</ele>
        <time>2020-08-05T11:56:55Z</time>
      </trkpt>
      <trkpt lat="42.70317" lon="1.42258">
        <ele>1467.8</ele>
        <time>2020-08-05T11:56:56Z</time>
      </trkpt>
      <trkpt lat="42.7033" lon="1.42251">
        <ele>1467.6</ele>
        <time>2020-08-05T11:57:01Z</time>
      </trkpt>
      <trkpt lat="42.70348" lon="1.4224">
        <ele>1467.8</ele>
        <time>2020-08-05T11:57:07Z</time>
      </trkpt>
      <trkpt lat="42.70367" lon="1.42224">
        <ele>1468.2</ele>
        <time>2020-08-05T11:57:14Z</time>
      </trkpt>
      <trkpt lat="42.7038" lon="1.42215">
        <ele>1468.6</ele>
        <time>2020-08-05T11:57:19Z</time>
      </trkpt>
      <trkpt lat="42.70385" lon="1.42212">
        <ele>1468.8</ele>
        <time>2020-08-05T11:57:21Z</time>
      </trkpt>
      <trkpt lat="42.70395" lon="1.42208">
        <ele>1469.2</ele>
        <time>2020-08-05T11:57:25Z</time>
      </trkpt>
      <trkpt lat="42.704" lon="1.42202">
        <ele>1469.4</ele>
        <time>2020-08-05T11:57:28Z</time>
      </trkpt>
      <trkpt lat="42.70403" lon="1.42197">
        <ele>1469.6</ele>
        <time>2020-08-05T11:57:30Z</time>
      </trkpt>
      <trkpt lat="42.70411" lon="1.42189">
        <ele>1469.8</ele>
        <time>2020-08-05T11:57:33Z</time>
      </trkpt>
      <trkpt lat="42.70414" lon="1.42185">
        <ele>1469.8</ele>
        <time>2020-08-05T11:57:34Z</time>
      </trkpt>
      <trkpt lat="42.70433" lon="1.42169">
        <ele>1469.4</ele>
        <time>2020-08-05T11:57:40Z</time>
      </trkpt>
      <trkpt lat="42.7045" lon="1.42149">
        <ele>1469.8</ele>
        <time>2020-08-05T11:57:47Z</time>
      </trkpt>
      <trkpt lat="42.70457" lon="1.42133">
        <ele>1469.2</ele>
        <time>2020-08-05T11:57:52Z</time>
      </trkpt>
      <trkpt lat="42.70459" lon="1.42132">
        <ele>1469</ele>
        <time>2020-08-05T11:57:56Z</time>
      </trkpt>
      <trkpt lat="42.70459" lon="1.42132">
        <ele>1469.2</ele>
        <time>2020-08-05T11:58:11Z</time>
      </trkpt>
      <trkpt lat="42.7046" lon="1.4213">
        <ele>1469</ele>
        <time>2020-08-05T11:58:23Z</time>
      </trkpt>
      <trkpt lat="42.70464" lon="1.42114">
        <ele>1468.2</ele>
        <time>2020-08-05T11:58:28Z</time>
      </trkpt>
      <trkpt lat="42.70465" lon="1.42109">
        <ele>1467.8</ele>
        <time>2020-08-05T11:58:32Z</time>
      </trkpt>
      <trkpt lat="42.70465" lon="1.42109">
        <ele>1467.8</ele>
        <time>2020-08-05T11:58:33Z</time>
      </trkpt>
      <trkpt lat="42.70465" lon="1.42109">
        <ele>1468</ele>
        <time>2020-08-05T11:58:48Z</time>
      </trkpt>
      <trkpt lat="42.70466" lon="1.42108">
        <ele>1468</ele>
        <time>2020-08-05T11:59:05Z</time>
      </trkpt>
      <trkpt lat="42.70474" lon="1.42094">
        <ele>1467.8</ele>
        <time>2020-08-05T11:59:10Z</time>
      </trkpt>
      <trkpt lat="42.70477" lon="1.42079">
        <ele>1467.6</ele>
        <time>2020-08-05T11:59:14Z</time>
      </trkpt>
      <trkpt lat="42.70478" lon="1.42073">
        <ele>1467.4</ele>
        <time>2020-08-05T11:59:16Z</time>
      </trkpt>
      <trkpt lat="42.70481" lon="1.42058">
        <ele>1468</ele>
        <time>2020-08-05T11:59:20Z</time>
      </trkpt>
      <trkpt lat="42.70486" lon="1.42042">
        <ele>1467.8</ele>
        <time>2020-08-05T11:59:24Z</time>
      </trkpt>
      <trkpt lat="42.70488" lon="1.42039">
        <ele>1467.8</ele>
        <time>2020-08-05T11:59:25Z</time>
      </trkpt>
      <trkpt lat="42.70498" lon="1.42013">
        <ele>1468</ele>
        <time>2020-08-05T11:59:31Z</time>
      </trkpt>
      <trkpt lat="42.70496" lon="1.4198">
        <ele>1467.8</ele>
        <time>2020-08-05T11:59:37Z</time>
      </trkpt>
      <trkpt lat="42.70502" lon="1.41955">
        <ele>1466.8</ele>
        <time>2020-08-05T11:59:42Z</time>
      </trkpt>
      <trkpt lat="42.70504" lon="1.41943">
        <ele>1466.4</ele>
        <time>2020-08-05T11:59:46Z</time>
      </trkpt>
      <trkpt lat="42.70507" lon="1.41926">
        <ele>1466.8</ele>
        <time>2020-08-05T11:59:51Z</time>
      </trkpt>
      <trkpt lat="42.70508" lon="1.41899">
        <ele>1467.2</ele>
        <time>2020-08-05T11:59:59Z</time>
      </trkpt>
      <trkpt lat="42.70503" lon="1.41881">
        <ele>1467.4</ele>
        <time>2020-08-05T12:00:04Z</time>
      </trkpt>
      <trkpt lat="42.70502" lon="1.41878">
        <ele>1467.6</ele>
        <time>2020-08-05T12:00:05Z</time>
      </trkpt>
      <trkpt lat="42.70502" lon="1.41874">
        <ele>1467.6</ele>
        <time>2020-08-05T12:00:06Z</time>
      </trkpt>
      <trkpt lat="42.70502" lon="1.4186">
        <ele>1467.2</ele>
        <time>2020-08-05T12:00:09Z</time>
      </trkpt>
      <trkpt lat="42.70498" lon="1.41844">
        <ele>1466.6</ele>
        <time>2020-08-05T12:00:14Z</time>
      </trkpt>
      <trkpt lat="42.70498" lon="1.41841">
        <ele>1466.8</ele>
        <time>2020-08-05T12:00:15Z</time>
      </trkpt>
      <trkpt lat="42.705" lon="1.41831">
        <ele>1467.2</ele>
        <time>2020-08-05T12:00:18Z</time>
      </trkpt>
      <trkpt lat="42.70506" lon="1.41815">
        <ele>1467.6</ele>
        <time>2020-08-05T12:00:23Z</time>
      </trkpt>
      <trkpt lat="42.70507" lon="1.4181">
        <ele>1467.8</ele>
        <time>2020-08-05T12:00:25Z</time>
      </trkpt>
      <trkpt lat="42.70509" lon="1.41798">
        <ele>1468</ele>
        <time>2020-08-05T12:00:28Z</time>
      </trkpt>
      <trkpt lat="42.70509" lon="1.41791">
        <ele>1468</ele>
        <time>2020-08-05T12:00:30Z</time>
      </trkpt>
      <trkpt lat="42.70509" lon="1.41784">
        <ele>1468</ele>
        <time>2020-08-05T12:00:32Z</time>
      </trkpt>
      <trkpt lat="42.70509" lon="1.41769">
        <ele>1468.4</ele>
        <time>2020-08-05T12:00:37Z</time>
      </trkpt>
      <trkpt lat="42.70509" lon="1.41766">
        <ele>1468.6</ele>
        <time>2020-08-05T12:00:38Z</time>
      </trkpt>
      <trkpt lat="42.70511" lon="1.41745">
        <ele>1468</ele>
        <time>2020-08-05T12:00:43Z</time>
      </trkpt>
      <trkpt lat="42.70518" lon="1.41722">
        <ele>1468.4</ele>
        <time>2020-08-05T12:00:50Z</time>
      </trkpt>
      <trkpt lat="42.70518" lon="1.41709">
        <ele>1468.6</ele>
        <time>2020-08-05T12:00:53Z</time>
      </trkpt>
      <trkpt lat="42.70517" lon="1.41705">
        <ele>1468.4</ele>
        <time>2020-08-05T12:00:54Z</time>
      </trkpt>
      <trkpt lat="42.7052" lon="1.41685">
        <ele>1468.4</ele>
        <time>2020-08-05T12:00:58Z</time>
      </trkpt>
      <trkpt lat="42.70521" lon="1.41668">
        <ele>1468.6</ele>
        <time>2020-08-05T12:01:02Z</time>
      </trkpt>
      <trkpt lat="42.70522" lon="1.41643">
        <ele>1468.8</ele>
        <time>2020-08-05T12:01:08Z</time>
      </trkpt>
      <trkpt lat="42.7052" lon="1.41623">
        <ele>1468.8</ele>
        <time>2020-08-05T12:01:13Z</time>
      </trkpt>
      <trkpt lat="42.7052" lon="1.41616">
        <ele>1469</ele>
        <time>2020-08-05T12:01:15Z</time>
      </trkpt>
      <trkpt lat="42.7052" lon="1.41612">
        <ele>1469.2</ele>
        <time>2020-08-05T12:01:16Z</time>
      </trkpt>
      <trkpt lat="42.70518" lon="1.41606">
        <ele>1469.2</ele>
        <time>2020-08-05T12:01:18Z</time>
      </trkpt>
      <trkpt lat="42.70516" lon="1.41593">
        <ele>1469.6</ele>
        <time>2020-08-05T12:01:22Z</time>
      </trkpt>
      <trkpt lat="42.70516" lon="1.4159">
        <ele>1469.8</ele>
        <time>2020-08-05T12:01:23Z</time>
      </trkpt>
      <trkpt lat="42.70517" lon="1.41587">
        <ele>1470</ele>
        <time>2020-08-05T12:01:24Z</time>
      </trkpt>
      <trkpt lat="42.7052" lon="1.41573">
        <ele>1470.2</ele>
        <time>2020-08-05T12:01:28Z</time>
      </trkpt>
      <trkpt lat="42.70523" lon="1.4155">
        <ele>1470.4</ele>
        <time>2020-08-05T12:01:34Z</time>
      </trkpt>
      <trkpt lat="42.70523" lon="1.41532">
        <ele>1470.4</ele>
        <time>2020-08-05T12:01:38Z</time>
      </trkpt>
      <trkpt lat="42.70522" lon="1.41519">
        <ele>1469.2</ele>
        <time>2020-08-05T12:01:42Z</time>
      </trkpt>
      <trkpt lat="42.70522" lon="1.41519">
        <ele>1469.2</ele>
        <time>2020-08-05T12:01:47Z</time>
      </trkpt>
      <trkpt lat="42.70522" lon="1.41518">
        <ele>1469.2</ele>
        <time>2020-08-05T12:01:57Z</time>
      </trkpt>
      <trkpt lat="42.70521" lon="1.41508">
        <ele>1468.8</ele>
        <time>2020-08-05T12:02:00Z</time>
      </trkpt>
      <trkpt lat="42.70522" lon="1.41504">
        <ele>1468.8</ele>
        <time>2020-08-05T12:02:01Z</time>
      </trkpt>
      <trkpt lat="42.7052" lon="1.41496">
        <ele>1468.6</ele>
        <time>2020-08-05T12:02:03Z</time>
      </trkpt>
      <trkpt lat="42.70519" lon="1.41483">
        <ele>1468.4</ele>
        <time>2020-08-05T12:02:06Z</time>
      </trkpt>
      <trkpt lat="42.7052" lon="1.41466">
        <ele>1468</ele>
        <time>2020-08-05T12:02:11Z</time>
      </trkpt>
      <trkpt lat="42.7052" lon="1.41462">
        <ele>1467.8</ele>
        <time>2020-08-05T12:02:12Z</time>
      </trkpt>
      <trkpt lat="42.70522" lon="1.41457">
        <ele>1468</ele>
        <time>2020-08-05T12:02:14Z</time>
      </trkpt>
      <trkpt lat="42.70522" lon="1.41455">
        <ele>1468</ele>
        <time>2020-08-05T12:02:15Z</time>
      </trkpt>
      <trkpt lat="42.70521" lon="1.41452">
        <ele>1468</ele>
        <time>2020-08-05T12:02:18Z</time>
      </trkpt>
      <trkpt lat="42.70522" lon="1.4145">
        <ele>1468.4</ele>
        <time>2020-08-05T12:02:20Z</time>
      </trkpt>
      <trkpt lat="42.70522" lon="1.41447">
        <ele>1468.4</ele>
        <time>2020-08-05T12:02:22Z</time>
      </trkpt>
      <trkpt lat="42.70522" lon="1.41445">
        <ele>1468.4</ele>
        <time>2020-08-05T12:02:23Z</time>
      </trkpt>
      <trkpt lat="42.70524" lon="1.41441">
        <ele>1468.8</ele>
        <time>2020-08-05T12:02:25Z</time>
      </trkpt>
      <trkpt lat="42.70527" lon="1.41431">
        <ele>1469.2</ele>
        <time>2020-08-05T12:02:28Z</time>
      </trkpt>
      <trkpt lat="42.70531" lon="1.41418">
        <ele>1469.4</ele>
        <time>2020-08-05T12:02:32Z</time>
      </trkpt>
      <trkpt lat="42.70532" lon="1.41414">
        <ele>1469.4</ele>
        <time>2020-08-05T12:02:33Z</time>
      </trkpt>
      <trkpt lat="42.70534" lon="1.41396">
        <ele>1469.6</ele>
        <time>2020-08-05T12:02:38Z</time>
      </trkpt>
      <trkpt lat="42.70533" lon="1.41383">
        <ele>1470</ele>
        <time>2020-08-05T12:02:42Z</time>
      </trkpt>
      <trkpt lat="42.70533" lon="1.41379">
        <ele>1470</ele>
        <time>2020-08-05T12:02:43Z</time>
      </trkpt>
      <trkpt lat="42.70536" lon="1.41352">
        <ele>1470.2</ele>
        <time>2020-08-05T12:02:50Z</time>
      </trkpt>
      <trkpt lat="42.70544" lon="1.4133">
        <ele>1470.8</ele>
        <time>2020-08-05T12:02:57Z</time>
      </trkpt>
      <trkpt lat="42.70546" lon="1.41315">
        <ele>1470.8</ele>
        <time>2020-08-05T12:03:01Z</time>
      </trkpt>
      <trkpt lat="42.70548" lon="1.41312">
        <ele>1471</ele>
        <time>2020-08-05T12:03:02Z</time>
      </trkpt>
      <trkpt lat="42.70553" lon="1.41296">
        <ele>1471.4</ele>
        <time>2020-08-05T12:03:06Z</time>
      </trkpt>
      <trkpt lat="42.70557" lon="1.41273">
        <ele>1470.8</ele>
        <time>2020-08-05T12:03:11Z</time>
      </trkpt>
      <trkpt lat="42.70556" lon="1.41268">
        <ele>1470.8</ele>
        <time>2020-08-05T12:03:12Z</time>
      </trkpt>
      <trkpt lat="42.70557" lon="1.41258">
        <ele>1470.8</ele>
        <time>2020-08-05T12:03:15Z</time>
      </trkpt>
      <trkpt lat="42.70563" lon="1.41239">
        <ele>1470.2</ele>
        <time>2020-08-05T12:03:19Z</time>
      </trkpt>
      <trkpt lat="42.70572" lon="1.41227">
        <ele>1470</ele>
        <time>2020-08-05T12:03:22Z</time>
      </trkpt>
      <trkpt lat="42.70574" lon="1.41223">
        <ele>1469.8</ele>
        <time>2020-08-05T12:03:23Z</time>
      </trkpt>
      <trkpt lat="42.70579" lon="1.41214">
        <ele>1469.4</ele>
        <time>2020-08-05T12:03:25Z</time>
      </trkpt>
      <trkpt lat="42.70581" lon="1.41209">
        <ele>1469</ele>
        <time>2020-08-05T12:03:26Z</time>
      </trkpt>
      <trkpt lat="42.70583" lon="1.41202">
        <ele>1468.8</ele>
        <time>2020-08-05T12:03:27Z</time>
      </trkpt>
      <trkpt lat="42.70588" lon="1.41191">
        <ele>1468.2</ele>
        <time>2020-08-05T12:03:29Z</time>
      </trkpt>
      <trkpt lat="42.70595" lon="1.41163">
        <ele>1467.8</ele>
        <time>2020-08-05T12:03:33Z</time>
      </trkpt>
      <trkpt lat="42.70598" lon="1.41149">
        <ele>1467.4</ele>
        <time>2020-08-05T12:03:35Z</time>
      </trkpt>
      <trkpt lat="42.706" lon="1.41142">
        <ele>1467</ele>
        <time>2020-08-05T12:03:36Z</time>
      </trkpt>
      <trkpt lat="42.70601" lon="1.41123">
        <ele>1466.6</ele>
        <time>2020-08-05T12:03:39Z</time>
      </trkpt>
      <trkpt lat="42.70607" lon="1.41097">
        <ele>1465.8</ele>
        <time>2020-08-05T12:03:44Z</time>
      </trkpt>
      <trkpt lat="42.70609" lon="1.41092">
        <ele>1465.6</ele>
        <time>2020-08-05T12:03:45Z</time>
      </trkpt>
      <trkpt lat="42.70613" lon="1.41073">
        <ele>1464.4</ele>
        <time>2020-08-05T12:03:48Z</time>
      </trkpt>
      <trkpt lat="42.70614" lon="1.41065">
        <ele>1464.2</ele>
        <time>2020-08-05T12:03:49Z</time>
      </trkpt>
      <trkpt lat="42.70618" lon="1.41051">
        <ele>1464</ele>
        <time>2020-08-05T12:03:51Z</time>
      </trkpt>
      <trkpt lat="42.70623" lon="1.4103">
        <ele>1463.4</ele>
        <time>2020-08-05T12:03:54Z</time>
      </trkpt>
      <trkpt lat="42.70625" lon="1.41023">
        <ele>1463</ele>
        <time>2020-08-05T12:03:55Z</time>
      </trkpt>
      <trkpt lat="42.70631" lon="1.41">
        <ele>1462</ele>
        <time>2020-08-05T12:03:58Z</time>
      </trkpt>
      <trkpt lat="42.70635" lon="1.40985">
        <ele>1461.2</ele>
        <time>2020-08-05T12:04:00Z</time>
      </trkpt>
      <trkpt lat="42.70636" lon="1.4098">
        <ele>1460.6</ele>
        <time>2020-08-05T12:04:01Z</time>
      </trkpt>
      <trkpt lat="42.70637" lon="1.40972">
        <ele>1460.4</ele>
        <time>2020-08-05T12:04:03Z</time>
      </trkpt>
      <trkpt lat="42.70644" lon="1.40952">
        <ele>1459.8</ele>
        <time>2020-08-05T12:04:08Z</time>
      </trkpt>
      <trkpt lat="42.70646" lon="1.40948">
        <ele>1459.6</ele>
        <time>2020-08-05T12:04:09Z</time>
      </trkpt>
      <trkpt lat="42.70656" lon="1.40929">
        <ele>1458.6</ele>
        <time>2020-08-05T12:04:13Z</time>
      </trkpt>
      <trkpt lat="42.70657" lon="1.40925">
        <ele>1458.4</ele>
        <time>2020-08-05T12:04:14Z</time>
      </trkpt>
      <trkpt lat="42.70657" lon="1.40911">
        <ele>1458.2</ele>
        <time>2020-08-05T12:04:18Z</time>
      </trkpt>
      <trkpt lat="42.70658" lon="1.4091">
        <ele>1457.8</ele>
        <time>2020-08-05T12:04:19Z</time>
      </trkpt>
      <trkpt lat="42.70658" lon="1.40911">
        <ele>1457.2</ele>
        <time>2020-08-05T12:04:20Z</time>
      </trkpt>
      <trkpt lat="42.70658" lon="1.40913">
        <ele>1456.2</ele>
        <time>2020-08-05T12:04:22Z</time>
      </trkpt>
      <trkpt lat="42.70658" lon="1.40916">
        <ele>1455.8</ele>
        <time>2020-08-05T12:04:23Z</time>
      </trkpt>
      <trkpt lat="42.70658" lon="1.40922">
        <ele>1454.8</ele>
        <time>2020-08-05T12:04:25Z</time>
      </trkpt>
      <trkpt lat="42.7066" lon="1.40926">
        <ele>1453.8</ele>
        <time>2020-08-05T12:04:26Z</time>
      </trkpt>
      <trkpt lat="42.70658" lon="1.40933">
        <ele>1452.6</ele>
        <time>2020-08-05T12:04:28Z</time>
      </trkpt>
      <trkpt lat="42.70658" lon="1.40942">
        <ele>1451.2</ele>
        <time>2020-08-05T12:04:30Z</time>
      </trkpt>
      <trkpt lat="42.70656" lon="1.4095">
        <ele>1449.8</ele>
        <time>2020-08-05T12:04:32Z</time>
      </trkpt>
      <trkpt lat="42.70656" lon="1.40958">
        <ele>1448.4</ele>
        <time>2020-08-05T12:04:34Z</time>
      </trkpt>
      <trkpt lat="42.70657" lon="1.40964">
        <ele>1447</ele>
        <time>2020-08-05T12:04:36Z</time>
      </trkpt>
      <trkpt lat="42.70657" lon="1.40968">
        <ele>1446.6</ele>
        <time>2020-08-05T12:04:37Z</time>
      </trkpt>
      <trkpt lat="42.70657" lon="1.40971">
        <ele>1445.6</ele>
        <time>2020-08-05T12:04:38Z</time>
      </trkpt>
      <trkpt lat="42.70659" lon="1.40981">
        <ele>1444.6</ele>
        <time>2020-08-05T12:04:41Z</time>
      </trkpt>
      <trkpt lat="42.7066" lon="1.40986">
        <ele>1443.8</ele>
        <time>2020-08-05T12:04:43Z</time>
      </trkpt>
      <trkpt lat="42.7066" lon="1.40989">
        <ele>1443.4</ele>
        <time>2020-08-05T12:04:44Z</time>
      </trkpt>
      <trkpt lat="42.70661" lon="1.40996">
        <ele>1442.2</ele>
        <time>2020-08-05T12:04:46Z</time>
      </trkpt>
      <trkpt lat="42.70662" lon="1.41002">
        <ele>1441.2</ele>
        <time>2020-08-05T12:04:48Z</time>
      </trkpt>
      <trkpt lat="42.70662" lon="1.41004">
        <ele>1441</ele>
        <time>2020-08-05T12:04:49Z</time>
      </trkpt>
      <trkpt lat="42.70662" lon="1.41007">
        <ele>1440.6</ele>
        <time>2020-08-05T12:04:50Z</time>
      </trkpt>
      <trkpt lat="42.70664" lon="1.41015">
        <ele>1439.8</ele>
        <time>2020-08-05T12:04:53Z</time>
      </trkpt>
      <trkpt lat="42.70665" lon="1.41024">
        <ele>1438.4</ele>
        <time>2020-08-05T12:04:56Z</time>
      </trkpt>
      <trkpt lat="42.70665" lon="1.41032">
        <ele>1437.8</ele>
        <time>2020-08-05T12:04:58Z</time>
      </trkpt>
      <trkpt lat="42.70665" lon="1.41036">
        <ele>1437.4</ele>
        <time>2020-08-05T12:04:59Z</time>
      </trkpt>
      <trkpt lat="42.70666" lon="1.41042">
        <ele>1435.8</ele>
        <time>2020-08-05T12:05:01Z</time>
      </trkpt>
      <trkpt lat="42.70667" lon="1.41044">
        <ele>1435.4</ele>
        <time>2020-08-05T12:05:02Z</time>
      </trkpt>
      <trkpt lat="42.70668" lon="1.41043">
        <ele>1434.8</ele>
        <time>2020-08-05T12:05:03Z</time>
      </trkpt>
      <trkpt lat="42.70674" lon="1.4104">
        <ele>1433.4</ele>
        <time>2020-08-05T12:05:06Z</time>
      </trkpt>
      <trkpt lat="42.70678" lon="1.41029">
        <ele>1432.4</ele>
        <time>2020-08-05T12:05:10Z</time>
      </trkpt>
      <trkpt lat="42.70679" lon="1.41027">
        <ele>1432</ele>
        <time>2020-08-05T12:05:11Z</time>
      </trkpt>
      <trkpt lat="42.7068" lon="1.41022">
        <ele>1430.8</ele>
        <time>2020-08-05T12:05:14Z</time>
      </trkpt>
      <trkpt lat="42.70681" lon="1.41023">
        <ele>1430.6</ele>
        <time>2020-08-05T12:05:15Z</time>
      </trkpt>
      <trkpt lat="42.70681" lon="1.41026">
        <ele>1429.8</ele>
        <time>2020-08-05T12:05:17Z</time>
      </trkpt>
      <trkpt lat="42.70681" lon="1.41031">
        <ele>1429</ele>
        <time>2020-08-05T12:05:19Z</time>
      </trkpt>
      <trkpt lat="42.70682" lon="1.41033">
        <ele>1428.4</ele>
        <time>2020-08-05T12:05:20Z</time>
      </trkpt>
      <trkpt lat="42.70683" lon="1.41038">
        <ele>1427</ele>
        <time>2020-08-05T12:05:22Z</time>
      </trkpt>
      <trkpt lat="42.70684" lon="1.41043">
        <ele>1426.2</ele>
        <time>2020-08-05T12:05:23Z</time>
      </trkpt>
      <trkpt lat="42.70685" lon="1.41048">
        <ele>1424.6</ele>
        <time>2020-08-05T12:05:24Z</time>
      </trkpt>
      <trkpt lat="42.70688" lon="1.41057">
        <ele>1423.2</ele>
        <time>2020-08-05T12:05:26Z</time>
      </trkpt>
      <trkpt lat="42.7069" lon="1.41061">
        <ele>1422</ele>
        <time>2020-08-05T12:05:27Z</time>
      </trkpt>
      <trkpt lat="42.70692" lon="1.41066">
        <ele>1420.6</ele>
        <time>2020-08-05T12:05:28Z</time>
      </trkpt>
      <trkpt lat="42.70693" lon="1.4107">
        <ele>1419.4</ele>
        <time>2020-08-05T12:05:29Z</time>
      </trkpt>
      <trkpt lat="42.70693" lon="1.41075">
        <ele>1418.2</ele>
        <time>2020-08-05T12:05:30Z</time>
      </trkpt>
      <trkpt lat="42.70695" lon="1.41085">
        <ele>1417</ele>
        <time>2020-08-05T12:05:32Z</time>
      </trkpt>
      <trkpt lat="42.70699" lon="1.41097">
        <ele>1415.6</ele>
        <time>2020-08-05T12:05:34Z</time>
      </trkpt>
      <trkpt lat="42.707" lon="1.41103">
        <ele>1414.6</ele>
        <time>2020-08-05T12:05:35Z</time>
      </trkpt>
      <trkpt lat="42.70701" lon="1.41106">
        <ele>1413.6</ele>
        <time>2020-08-05T12:05:36Z</time>
      </trkpt>
      <trkpt lat="42.70702" lon="1.41111">
        <ele>1412.4</ele>
        <time>2020-08-05T12:05:37Z</time>
      </trkpt>
      <trkpt lat="42.70703" lon="1.41119">
        <ele>1411.2</ele>
        <time>2020-08-05T12:05:39Z</time>
      </trkpt>
      <trkpt lat="42.70707" lon="1.41131">
        <ele>1409.8</ele>
        <time>2020-08-05T12:05:42Z</time>
      </trkpt>
      <trkpt lat="42.70708" lon="1.41137">
        <ele>1408.6</ele>
        <time>2020-08-05T12:05:44Z</time>
      </trkpt>
      <trkpt lat="42.70709" lon="1.41147">
        <ele>1407.2</ele>
        <time>2020-08-05T12:05:46Z</time>
      </trkpt>
      <trkpt lat="42.7071" lon="1.41153">
        <ele>1406.4</ele>
        <time>2020-08-05T12:05:47Z</time>
      </trkpt>
      <trkpt lat="42.70711" lon="1.41158">
        <ele>1404.2</ele>
        <time>2020-08-05T12:05:48Z</time>
      </trkpt>
      <trkpt lat="42.70712" lon="1.41163">
        <ele>1403</ele>
        <time>2020-08-05T12:05:49Z</time>
      </trkpt>
      <trkpt lat="42.70712" lon="1.41172">
        <ele>1401.6</ele>
        <time>2020-08-05T12:05:51Z</time>
      </trkpt>
      <trkpt lat="42.70711" lon="1.41177">
        <ele>1401</ele>
        <time>2020-08-05T12:05:52Z</time>
      </trkpt>
      <trkpt lat="42.70711" lon="1.41182">
        <ele>1400.4</ele>
        <time>2020-08-05T12:05:53Z</time>
      </trkpt>
      <trkpt lat="42.70711" lon="1.41186">
        <ele>1399.2</ele>
        <time>2020-08-05T12:05:55Z</time>
      </trkpt>
      <trkpt lat="42.70711" lon="1.41188">
        <ele>1398.6</ele>
        <time>2020-08-05T12:05:56Z</time>
      </trkpt>
      <trkpt lat="42.70711" lon="1.41193">
        <ele>1398</ele>
        <time>2020-08-05T12:05:58Z</time>
      </trkpt>
      <trkpt lat="42.70711" lon="1.412">
        <ele>1397.2</ele>
        <time>2020-08-05T12:06:00Z</time>
      </trkpt>
      <trkpt lat="42.70711" lon="1.41205">
        <ele>1396.4</ele>
        <time>2020-08-05T12:06:01Z</time>
      </trkpt>
      <trkpt lat="42.70709" lon="1.41208">
        <ele>1395.8</ele>
        <time>2020-08-05T12:06:02Z</time>
      </trkpt>
      <trkpt lat="42.70709" lon="1.41215">
        <ele>1395</ele>
        <time>2020-08-05T12:06:04Z</time>
      </trkpt>
      <trkpt lat="42.70707" lon="1.41219">
        <ele>1393.4</ele>
        <time>2020-08-05T12:06:06Z</time>
      </trkpt>
      <trkpt lat="42.70707" lon="1.41222">
        <ele>1393</ele>
        <time>2020-08-05T12:06:07Z</time>
      </trkpt>
      <trkpt lat="42.70704" lon="1.41231">
        <ele>1391.6</ele>
        <time>2020-08-05T12:06:09Z</time>
      </trkpt>
      <trkpt lat="42.70703" lon="1.4124">
        <ele>1391</ele>
        <time>2020-08-05T12:06:11Z</time>
      </trkpt>
      <trkpt lat="42.707" lon="1.41249">
        <ele>1391.4</ele>
        <time>2020-08-05T12:06:14Z</time>
      </trkpt>
      <trkpt lat="42.70699" lon="1.41253">
        <ele>1391</ele>
        <time>2020-08-05T12:06:15Z</time>
      </trkpt>
      <trkpt lat="42.70699" lon="1.41258">
        <ele>1390.6</ele>
        <time>2020-08-05T12:06:16Z</time>
      </trkpt>
      <trkpt lat="42.70698" lon="1.41265">
        <ele>1389.2</ele>
        <time>2020-08-05T12:06:18Z</time>
      </trkpt>
      <trkpt lat="42.70698" lon="1.41268">
        <ele>1388.8</ele>
        <time>2020-08-05T12:06:19Z</time>
      </trkpt>
      <trkpt lat="42.70698" lon="1.41276">
        <ele>1388</ele>
        <time>2020-08-05T12:06:21Z</time>
      </trkpt>
      <trkpt lat="42.70695" lon="1.41283">
        <ele>1387.6</ele>
        <time>2020-08-05T12:06:23Z</time>
      </trkpt>
      <trkpt lat="42.70694" lon="1.41287">
        <ele>1387.6</ele>
        <time>2020-08-05T12:06:24Z</time>
      </trkpt>
      <trkpt lat="42.70692" lon="1.41302">
        <ele>1387.8</ele>
        <time>2020-08-05T12:06:29Z</time>
      </trkpt>
      <trkpt lat="42.70695" lon="1.4131">
        <ele>1387</ele>
        <time>2020-08-05T12:06:31Z</time>
      </trkpt>
      <trkpt lat="42.70696" lon="1.41315">
        <ele>1386.6</ele>
        <time>2020-08-05T12:06:32Z</time>
      </trkpt>
      <trkpt lat="42.70698" lon="1.4132">
        <ele>1385.8</ele>
        <time>2020-08-05T12:06:33Z</time>
      </trkpt>
      <trkpt lat="42.70698" lon="1.41324">
        <ele>1385.4</ele>
        <time>2020-08-05T12:06:34Z</time>
      </trkpt>
      <trkpt lat="42.70696" lon="1.41332">
        <ele>1384.4</ele>
        <time>2020-08-05T12:06:36Z</time>
      </trkpt>
      <trkpt lat="42.70695" lon="1.41346">
        <ele>1383</ele>
        <time>2020-08-05T12:06:39Z</time>
      </trkpt>
      <trkpt lat="42.70694" lon="1.41358">
        <ele>1381.6</ele>
        <time>2020-08-05T12:06:41Z</time>
      </trkpt>
      <trkpt lat="42.70692" lon="1.41371">
        <ele>1380.8</ele>
        <time>2020-08-05T12:06:44Z</time>
      </trkpt>
      <trkpt lat="42.70692" lon="1.41374">
        <ele>1380.6</ele>
        <time>2020-08-05T12:06:45Z</time>
      </trkpt>
      <trkpt lat="42.70693" lon="1.41386">
        <ele>1379.2</ele>
        <time>2020-08-05T12:06:48Z</time>
      </trkpt>
      <trkpt lat="42.70694" lon="1.4139">
        <ele>1378.8</ele>
        <time>2020-08-05T12:06:49Z</time>
      </trkpt>
      <trkpt lat="42.70694" lon="1.41393">
        <ele>1378.4</ele>
        <time>2020-08-05T12:06:50Z</time>
      </trkpt>
      <trkpt lat="42.70694" lon="1.41396">
        <ele>1378.2</ele>
        <time>2020-08-05T12:06:51Z</time>
      </trkpt>
      <trkpt lat="42.70691" lon="1.41407">
        <ele>1378.4</ele>
        <time>2020-08-05T12:06:55Z</time>
      </trkpt>
      <trkpt lat="42.7069" lon="1.4141">
        <ele>1378.6</ele>
        <time>2020-08-05T12:06:56Z</time>
      </trkpt>
      <trkpt lat="42.70689" lon="1.41415">
        <ele>1379</ele>
        <time>2020-08-05T12:06:58Z</time>
      </trkpt>
      <trkpt lat="42.70689" lon="1.41418">
        <ele>1379.2</ele>
        <time>2020-08-05T12:06:59Z</time>
      </trkpt>
      <trkpt lat="42.70688" lon="1.41426">
        <ele>1378.8</ele>
        <time>2020-08-05T12:07:02Z</time>
      </trkpt>
      <trkpt lat="42.70687" lon="1.41438">
        <ele>1379.2</ele>
        <time>2020-08-05T12:07:07Z</time>
      </trkpt>
      <trkpt lat="42.70688" lon="1.41441">
        <ele>1379</ele>
        <time>2020-08-05T12:07:08Z</time>
      </trkpt>
      <trkpt lat="42.70689" lon="1.41453">
        <ele>1377.8</ele>
        <time>2020-08-05T12:07:10Z</time>
      </trkpt>
      <trkpt lat="42.70688" lon="1.4147">
        <ele>1378.2</ele>
        <time>2020-08-05T12:07:14Z</time>
      </trkpt>
      <trkpt lat="42.70686" lon="1.41484">
        <ele>1378</ele>
        <time>2020-08-05T12:07:19Z</time>
      </trkpt>
      <trkpt lat="42.70688" lon="1.41493">
        <ele>1377.2</ele>
        <time>2020-08-05T12:07:23Z</time>
      </trkpt>
      <trkpt lat="42.70689" lon="1.41496">
        <ele>1376.4</ele>
        <time>2020-08-05T12:07:24Z</time>
      </trkpt>
      <trkpt lat="42.70685" lon="1.41502">
        <ele>1376.2</ele>
        <time>2020-08-05T12:07:27Z</time>
      </trkpt>
      <trkpt lat="42.70682" lon="1.41508">
        <ele>1376.4</ele>
        <time>2020-08-05T12:07:29Z</time>
      </trkpt>
      <trkpt lat="42.70681" lon="1.41511">
        <ele>1376.6</ele>
        <time>2020-08-05T12:07:31Z</time>
      </trkpt>
      <trkpt lat="42.70679" lon="1.4152">
        <ele>1376.2</ele>
        <time>2020-08-05T12:07:34Z</time>
      </trkpt>
      <trkpt lat="42.70678" lon="1.4152">
        <ele>1376</ele>
        <time>2020-08-05T12:07:36Z</time>
      </trkpt>
      <trkpt lat="42.70676" lon="1.41522">
        <ele>1376.4</ele>
        <time>2020-08-05T12:07:43Z</time>
      </trkpt>
      <trkpt lat="42.70671" lon="1.41522">
        <ele>1377</ele>
        <time>2020-08-05T12:07:50Z</time>
      </trkpt>
      <trkpt lat="42.7067" lon="1.41522">
        <ele>1377.2</ele>
        <time>2020-08-05T12:07:51Z</time>
      </trkpt>
      <trkpt lat="42.70667" lon="1.41523">
        <ele>1377.4</ele>
        <time>2020-08-05T12:07:55Z</time>
      </trkpt>
      <trkpt lat="42.70666" lon="1.41523">
        <ele>1377.4</ele>
        <time>2020-08-05T12:07:56Z</time>
      </trkpt>
      <trkpt lat="42.70665" lon="1.41522">
        <ele>1377.2</ele>
        <time>2020-08-05T12:08:03Z</time>
      </trkpt>
      <trkpt lat="42.70664" lon="1.41524">
        <ele>1376.4</ele>
        <time>2020-08-05T12:08:10Z</time>
      </trkpt>
      <trkpt lat="42.70663" lon="1.41526">
        <ele>1375.8</ele>
        <time>2020-08-05T12:08:16Z</time>
      </trkpt>
      <trkpt lat="42.70662" lon="1.41527">
        <ele>1375.2</ele>
        <time>2020-08-05T12:08:19Z</time>
      </trkpt>
      <trkpt lat="42.70662" lon="1.41528">
        <ele>1375.2</ele>
        <time>2020-08-05T12:08:23Z</time>
      </trkpt>
      <trkpt lat="42.70662" lon="1.41532">
        <ele>1374.8</ele>
        <time>2020-08-05T12:08:27Z</time>
      </trkpt>
      <trkpt lat="42.70662" lon="1.41535">
        <ele>1374.4</ele>
        <time>2020-08-05T12:08:28Z</time>
      </trkpt>
      <trkpt lat="42.70663" lon="1.41538">
        <ele>1373.6</ele>
        <time>2020-08-05T12:08:29Z</time>
      </trkpt>
      <trkpt lat="42.70663" lon="1.4154">
        <ele>1371.6</ele>
        <time>2020-08-05T12:08:31Z</time>
      </trkpt>
      <trkpt lat="42.70662" lon="1.4154">
        <ele>1371.2</ele>
        <time>2020-08-05T12:08:32Z</time>
      </trkpt>
      <trkpt lat="42.70661" lon="1.41542">
        <ele>1370.6</ele>
        <time>2020-08-05T12:08:33Z</time>
      </trkpt>
      <trkpt lat="42.7066" lon="1.41547">
        <ele>1369.6</ele>
        <time>2020-08-05T12:08:35Z</time>
      </trkpt>
      <trkpt lat="42.70662" lon="1.4155">
        <ele>1367.6</ele>
        <time>2020-08-05T12:08:36Z</time>
      </trkpt>
      <trkpt lat="42.70663" lon="1.41556">
        <ele>1366.2</ele>
        <time>2020-08-05T12:08:38Z</time>
      </trkpt>
      <trkpt lat="42.70663" lon="1.41559">
        <ele>1365.6</ele>
        <time>2020-08-05T12:08:39Z</time>
      </trkpt>
      <trkpt lat="42.70663" lon="1.41562">
        <ele>1364.8</ele>
        <time>2020-08-05T12:08:40Z</time>
      </trkpt>
      <trkpt lat="42.70665" lon="1.41568">
        <ele>1363.2</ele>
        <time>2020-08-05T12:08:42Z</time>
      </trkpt>
      <trkpt lat="42.70666" lon="1.41569">
        <ele>1362.6</ele>
        <time>2020-08-05T12:08:43Z</time>
      </trkpt>
      <trkpt lat="42.70666" lon="1.4157">
        <ele>1361.6</ele>
        <time>2020-08-05T12:08:44Z</time>
      </trkpt>
      <trkpt lat="42.70667" lon="1.41575">
        <ele>1360.6</ele>
        <time>2020-08-05T12:08:46Z</time>
      </trkpt>
      <trkpt lat="42.70671" lon="1.4158">
        <ele>1358.8</ele>
        <time>2020-08-05T12:08:48Z</time>
      </trkpt>
      <trkpt lat="42.70673" lon="1.41582">
        <ele>1357.8</ele>
        <time>2020-08-05T12:08:49Z</time>
      </trkpt>
      <trkpt lat="42.70674" lon="1.41582">
        <ele>1356.8</ele>
        <time>2020-08-05T12:08:52Z</time>
      </trkpt>
      <trkpt lat="42.70675" lon="1.41585">
        <ele>1355.6</ele>
        <time>2020-08-05T12:08:58Z</time>
      </trkpt>
      <trkpt lat="42.70677" lon="1.41588">
        <ele>1354.6</ele>
        <time>2020-08-05T12:08:59Z</time>
      </trkpt>
      <trkpt lat="42.7068" lon="1.41592">
        <ele>1352.4</ele>
        <time>2020-08-05T12:09:00Z</time>
      </trkpt>
      <trkpt lat="42.70683" lon="1.41603">
        <ele>1350.4</ele>
        <time>2020-08-05T12:09:02Z</time>
      </trkpt>
      <trkpt lat="42.70684" lon="1.41612">
        <ele>1349.2</ele>
        <time>2020-08-05T12:09:05Z</time>
      </trkpt>
      <trkpt lat="42.70683" lon="1.41615">
        <ele>1348.6</ele>
        <time>2020-08-05T12:09:06Z</time>
      </trkpt>
      <trkpt lat="42.70684" lon="1.41618">
        <ele>1348</ele>
        <time>2020-08-05T12:09:07Z</time>
      </trkpt>
      <trkpt lat="42.70686" lon="1.41625">
        <ele>1346.8</ele>
        <time>2020-08-05T12:09:09Z</time>
      </trkpt>
      <trkpt lat="42.70687" lon="1.4163">
        <ele>1345.8</ele>
        <time>2020-08-05T12:09:11Z</time>
      </trkpt>
      <trkpt lat="42.7069" lon="1.41633">
        <ele>1344.8</ele>
        <time>2020-08-05T12:09:13Z</time>
      </trkpt>
      <trkpt lat="42.70692" lon="1.41635">
        <ele>1344.4</ele>
        <time>2020-08-05T12:09:14Z</time>
      </trkpt>
      <trkpt lat="42.70697" lon="1.41641">
        <ele>1343</ele>
        <time>2020-08-05T12:09:16Z</time>
      </trkpt>
      <trkpt lat="42.70698" lon="1.41644">
        <ele>1342.4</ele>
        <time>2020-08-05T12:09:17Z</time>
      </trkpt>
      <trkpt lat="42.70698" lon="1.41648">
        <ele>1341.8</ele>
        <time>2020-08-05T12:09:18Z</time>
      </trkpt>
      <trkpt lat="42.70702" lon="1.41657">
        <ele>1340.4</ele>
        <time>2020-08-05T12:09:20Z</time>
      </trkpt>
      <trkpt lat="42.70702" lon="1.41662">
        <ele>1339.4</ele>
        <time>2020-08-05T12:09:21Z</time>
      </trkpt>
      <trkpt lat="42.70703" lon="1.41666">
        <ele>1338.4</ele>
        <time>2020-08-05T12:09:22Z</time>
      </trkpt>
      <trkpt lat="42.70703" lon="1.41668">
        <ele>1337.6</ele>
        <time>2020-08-05T12:09:23Z</time>
      </trkpt>
      <trkpt lat="42.70704" lon="1.4167">
        <ele>1336.6</ele>
        <time>2020-08-05T12:09:24Z</time>
      </trkpt>
      <trkpt lat="42.70705" lon="1.41673">
        <ele>1336.2</ele>
        <time>2020-08-05T12:09:25Z</time>
      </trkpt>
      <trkpt lat="42.70705" lon="1.41676">
        <ele>1335.6</ele>
        <time>2020-08-05T12:09:26Z</time>
      </trkpt>
      <trkpt lat="42.70707" lon="1.41682">
        <ele>1335</ele>
        <time>2020-08-05T12:09:28Z</time>
      </trkpt>
      <trkpt lat="42.70709" lon="1.41689">
        <ele>1334</ele>
        <time>2020-08-05T12:09:30Z</time>
      </trkpt>
      <trkpt lat="42.70709" lon="1.41692">
        <ele>1333.6</ele>
        <time>2020-08-05T12:09:31Z</time>
      </trkpt>
      <trkpt lat="42.70709" lon="1.41695">
        <ele>1333</ele>
        <time>2020-08-05T12:09:32Z</time>
      </trkpt>
      <trkpt lat="42.70709" lon="1.41696">
        <ele>1332.2</ele>
        <time>2020-08-05T12:09:34Z</time>
      </trkpt>
      <trkpt lat="42.70712" lon="1.41701">
        <ele>1331.6</ele>
        <time>2020-08-05T12:09:35Z</time>
      </trkpt>
      <trkpt lat="42.70713" lon="1.41704">
        <ele>1331</ele>
        <time>2020-08-05T12:09:36Z</time>
      </trkpt>
      <trkpt lat="42.70716" lon="1.4171">
        <ele>1329</ele>
        <time>2020-08-05T12:09:38Z</time>
      </trkpt>
      <trkpt lat="42.70718" lon="1.41711">
        <ele>1328</ele>
        <time>2020-08-05T12:09:39Z</time>
      </trkpt>
      <trkpt lat="42.70721" lon="1.41711">
        <ele>1326.4</ele>
        <time>2020-08-05T12:09:41Z</time>
      </trkpt>
      <trkpt lat="42.70725" lon="1.4171">
        <ele>1324.8</ele>
        <time>2020-08-05T12:09:43Z</time>
      </trkpt>
      <trkpt lat="42.70728" lon="1.41708">
        <ele>1324</ele>
        <time>2020-08-05T12:09:44Z</time>
      </trkpt>
      <trkpt lat="42.70729" lon="1.41703">
        <ele>1323.2</ele>
        <time>2020-08-05T12:09:45Z</time>
      </trkpt>
      <trkpt lat="42.70733" lon="1.41695">
        <ele>1321.8</ele>
        <time>2020-08-05T12:09:47Z</time>
      </trkpt>
      <trkpt lat="42.70735" lon="1.41692">
        <ele>1320.8</ele>
        <time>2020-08-05T12:09:48Z</time>
      </trkpt>
      <trkpt lat="42.70737" lon="1.41689">
        <ele>1319.4</ele>
        <time>2020-08-05T12:09:49Z</time>
      </trkpt>
      <trkpt lat="42.70739" lon="1.41684">
        <ele>1318</ele>
        <time>2020-08-05T12:09:51Z</time>
      </trkpt>
      <trkpt lat="42.7074" lon="1.41681">
        <ele>1316.2</ele>
        <time>2020-08-05T12:09:53Z</time>
      </trkpt>
      <trkpt lat="42.70743" lon="1.4168">
        <ele>1315.4</ele>
        <time>2020-08-05T12:09:54Z</time>
      </trkpt>
      <trkpt lat="42.70744" lon="1.41678">
        <ele>1314.4</ele>
        <time>2020-08-05T12:09:55Z</time>
      </trkpt>
      <trkpt lat="42.70746" lon="1.41674">
        <ele>1312.6</ele>
        <time>2020-08-05T12:09:57Z</time>
      </trkpt>
      <trkpt lat="42.70748" lon="1.41671">
        <ele>1311</ele>
        <time>2020-08-05T12:09:59Z</time>
      </trkpt>
      <trkpt lat="42.70749" lon="1.4167">
        <ele>1310.8</ele>
        <time>2020-08-05T12:10:00Z</time>
      </trkpt>
      <trkpt lat="42.70751" lon="1.41665">
        <ele>1309.2</ele>
        <time>2020-08-05T12:10:02Z</time>
      </trkpt>
      <trkpt lat="42.70753" lon="1.41661">
        <ele>1308.2</ele>
        <time>2020-08-05T12:10:03Z</time>
      </trkpt>
      <trkpt lat="42.70756" lon="1.41656">
        <ele>1307.6</ele>
        <time>2020-08-05T12:10:04Z</time>
      </trkpt>
      <trkpt lat="42.70757" lon="1.41653">
        <ele>1306.6</ele>
        <time>2020-08-05T12:10:05Z</time>
      </trkpt>
      <trkpt lat="42.7076" lon="1.41648">
        <ele>1305.2</ele>
        <time>2020-08-05T12:10:07Z</time>
      </trkpt>
      <trkpt lat="42.7076" lon="1.41644">
        <ele>1304.6</ele>
        <time>2020-08-05T12:10:08Z</time>
      </trkpt>
      <trkpt lat="42.70762" lon="1.41643">
        <ele>1303.8</ele>
        <time>2020-08-05T12:10:10Z</time>
      </trkpt>
      <trkpt lat="42.70763" lon="1.41641">
        <ele>1301.4</ele>
        <time>2020-08-05T12:10:13Z</time>
      </trkpt>
      <trkpt lat="42.70764" lon="1.41639">
        <ele>1299.8</ele>
        <time>2020-08-05T12:10:15Z</time>
      </trkpt>
      <trkpt lat="42.70765" lon="1.41638">
        <ele>1298</ele>
        <time>2020-08-05T12:10:17Z</time>
      </trkpt>
      <trkpt lat="42.70766" lon="1.41636">
        <ele>1297.2</ele>
        <time>2020-08-05T12:10:18Z</time>
      </trkpt>
      <trkpt lat="42.70767" lon="1.41634">
        <ele>1296.2</ele>
        <time>2020-08-05T12:10:19Z</time>
      </trkpt>
      <trkpt lat="42.70773" lon="1.41628">
        <ele>1294</ele>
        <time>2020-08-05T12:10:21Z</time>
      </trkpt>
      <trkpt lat="42.70777" lon="1.41621">
        <ele>1292.2</ele>
        <time>2020-08-05T12:10:23Z</time>
      </trkpt>
      <trkpt lat="42.70778" lon="1.41618">
        <ele>1290.8</ele>
        <time>2020-08-05T12:10:25Z</time>
      </trkpt>
      <trkpt lat="42.70779" lon="1.41616">
        <ele>1290</ele>
        <time>2020-08-05T12:10:27Z</time>
      </trkpt>
      <trkpt lat="42.70781" lon="1.41615">
        <ele>1289.4</ele>
        <time>2020-08-05T12:10:28Z</time>
      </trkpt>
      <trkpt lat="42.70781" lon="1.41616">
        <ele>1288.6</ele>
        <time>2020-08-05T12:10:30Z</time>
      </trkpt>
      <trkpt lat="42.70782" lon="1.41616">
        <ele>1288.4</ele>
        <time>2020-08-05T12:10:33Z</time>
      </trkpt>
      <trkpt lat="42.70782" lon="1.41616">
        <ele>1288.6</ele>
        <time>2020-08-05T12:10:40Z</time>
      </trkpt>
      <trkpt lat="42.70782" lon="1.41616">
        <ele>1288.4</ele>
        <time>2020-08-05T12:10:50Z</time>
      </trkpt>
      <trkpt lat="42.70785" lon="1.41616">
        <ele>1287.8</ele>
        <time>2020-08-05T12:10:55Z</time>
      </trkpt>
      <trkpt lat="42.70787" lon="1.41616">
        <ele>1287.2</ele>
        <time>2020-08-05T12:10:57Z</time>
      </trkpt>
      <trkpt lat="42.70787" lon="1.41616">
        <ele>1286.4</ele>
        <time>2020-08-05T12:11:01Z</time>
      </trkpt>
      <trkpt lat="42.70788" lon="1.41614">
        <ele>1286</ele>
        <time>2020-08-05T12:11:03Z</time>
      </trkpt>
      <trkpt lat="42.7079" lon="1.41612">
        <ele>1285.4</ele>
        <time>2020-08-05T12:11:07Z</time>
      </trkpt>
      <trkpt lat="42.7079" lon="1.41612">
        <ele>1285</ele>
        <time>2020-08-05T12:11:08Z</time>
      </trkpt>
      <trkpt lat="42.70793" lon="1.41616">
        <ele>1284</ele>
        <time>2020-08-05T12:11:13Z</time>
      </trkpt>
      <trkpt lat="42.70793" lon="1.41617">
        <ele>1283.8</ele>
        <time>2020-08-05T12:11:14Z</time>
      </trkpt>
      <trkpt lat="42.70794" lon="1.41616">
        <ele>1283.4</ele>
        <time>2020-08-05T12:11:19Z</time>
      </trkpt>
      <trkpt lat="42.70794" lon="1.41615">
        <ele>1283.4</ele>
        <time>2020-08-05T12:11:29Z</time>
      </trkpt>
      <trkpt lat="42.70795" lon="1.41612">
        <ele>1283</ele>
        <time>2020-08-05T12:11:33Z</time>
      </trkpt>
      <trkpt lat="42.70796" lon="1.4161">
        <ele>1282.6</ele>
        <time>2020-08-05T12:11:34Z</time>
      </trkpt>
      <trkpt lat="42.70796" lon="1.41608">
        <ele>1282.2</ele>
        <time>2020-08-05T12:11:35Z</time>
      </trkpt>
      <trkpt lat="42.70796" lon="1.41607">
        <ele>1281.4</ele>
        <time>2020-08-05T12:11:37Z</time>
      </trkpt>
      <trkpt lat="42.70796" lon="1.41606">
        <ele>1281</ele>
        <time>2020-08-05T12:11:39Z</time>
      </trkpt>
      <trkpt lat="42.70796" lon="1.41606">
        <ele>1281</ele>
        <time>2020-08-05T12:11:44Z</time>
      </trkpt>
      <trkpt lat="42.70796" lon="1.41606">
        <ele>1281.2</ele>
        <time>2020-08-05T12:11:47Z</time>
      </trkpt>
      <trkpt lat="42.70796" lon="1.41606">
        <ele>1281.2</ele>
        <time>2020-08-05T12:11:57Z</time>
      </trkpt>
      <trkpt lat="42.70796" lon="1.41606">
        <ele>1281.2</ele>
        <time>2020-08-05T12:12:03Z</time>
      </trkpt>
      <trkpt lat="42.70798" lon="1.41606">
        <ele>1281.2</ele>
        <time>2020-08-05T12:12:06Z</time>
      </trkpt>
      <trkpt lat="42.70802" lon="1.4161">
        <ele>1280</ele>
        <time>2020-08-05T12:12:09Z</time>
      </trkpt>
      <trkpt lat="42.70804" lon="1.41606">
        <ele>1278.6</ele>
        <time>2020-08-05T12:12:11Z</time>
      </trkpt>
      <trkpt lat="42.70805" lon="1.41604">
        <ele>1278</ele>
        <time>2020-08-05T12:12:12Z</time>
      </trkpt>
      <trkpt lat="42.70806" lon="1.41603">
        <ele>1276.4</ele>
        <time>2020-08-05T12:12:13Z</time>
      </trkpt>
      <trkpt lat="42.70808" lon="1.41603">
        <ele>1276</ele>
        <time>2020-08-05T12:12:14Z</time>
      </trkpt>
      <trkpt lat="42.70808" lon="1.41601">
        <ele>1275.4</ele>
        <time>2020-08-05T12:12:15Z</time>
      </trkpt>
      <trkpt lat="42.70809" lon="1.41594">
        <ele>1273.8</ele>
        <time>2020-08-05T12:12:17Z</time>
      </trkpt>
      <trkpt lat="42.7081" lon="1.41593">
        <ele>1272.8</ele>
        <time>2020-08-05T12:12:18Z</time>
      </trkpt>
      <trkpt lat="42.70812" lon="1.41589">
        <ele>1271.8</ele>
        <time>2020-08-05T12:12:19Z</time>
      </trkpt>
      <trkpt lat="42.70812" lon="1.41584">
        <ele>1270.4</ele>
        <time>2020-08-05T12:12:21Z</time>
      </trkpt>
      <trkpt lat="42.70814" lon="1.41584">
        <ele>1270</ele>
        <time>2020-08-05T12:12:22Z</time>
      </trkpt>
      <trkpt lat="42.70816" lon="1.41585">
        <ele>1269.2</ele>
        <time>2020-08-05T12:12:23Z</time>
      </trkpt>
      <trkpt lat="42.70819" lon="1.41585">
        <ele>1268</ele>
        <time>2020-08-05T12:12:25Z</time>
      </trkpt>
      <trkpt lat="42.70819" lon="1.41583">
        <ele>1267.2</ele>
        <time>2020-08-05T12:12:26Z</time>
      </trkpt>
      <trkpt lat="42.70817" lon="1.4158">
        <ele>1266.8</ele>
        <time>2020-08-05T12:12:27Z</time>
      </trkpt>
      <trkpt lat="42.70819" lon="1.4158">
        <ele>1265.8</ele>
        <time>2020-08-05T12:12:29Z</time>
      </trkpt>
      <trkpt lat="42.7082" lon="1.4158">
        <ele>1265.4</ele>
        <time>2020-08-05T12:12:30Z</time>
      </trkpt>
      <trkpt lat="42.70823" lon="1.41574">
        <ele>1264.2</ele>
        <time>2020-08-05T12:12:33Z</time>
      </trkpt>
      <trkpt lat="42.70822" lon="1.41572">
        <ele>1263.4</ele>
        <time>2020-08-05T12:12:34Z</time>
      </trkpt>
      <trkpt lat="42.70822" lon="1.41571">
        <ele>1262.8</ele>
        <time>2020-08-05T12:12:35Z</time>
      </trkpt>
      <trkpt lat="42.70824" lon="1.41569">
        <ele>1262.6</ele>
        <time>2020-08-05T12:12:36Z</time>
      </trkpt>
      <trkpt lat="42.70824" lon="1.41568">
        <ele>1261.6</ele>
        <time>2020-08-05T12:12:37Z</time>
      </trkpt>
      <trkpt lat="42.70828" lon="1.41568">
        <ele>1260.6</ele>
        <time>2020-08-05T12:12:39Z</time>
      </trkpt>
      <trkpt lat="42.70829" lon="1.41563">
        <ele>1259.2</ele>
        <time>2020-08-05T12:12:41Z</time>
      </trkpt>
      <trkpt lat="42.70832" lon="1.41558">
        <ele>1257.6</ele>
        <time>2020-08-05T12:12:43Z</time>
      </trkpt>
      <trkpt lat="42.70833" lon="1.4155">
        <ele>1256</ele>
        <time>2020-08-05T12:12:45Z</time>
      </trkpt>
      <trkpt lat="42.70833" lon="1.41545">
        <ele>1255.2</ele>
        <time>2020-08-05T12:12:46Z</time>
      </trkpt>
      <trkpt lat="42.70833" lon="1.41541">
        <ele>1254.6</ele>
        <time>2020-08-05T12:12:47Z</time>
      </trkpt>
      <trkpt lat="42.70837" lon="1.41534">
        <ele>1253.2</ele>
        <time>2020-08-05T12:12:49Z</time>
      </trkpt>
      <trkpt lat="42.70839" lon="1.41533">
        <ele>1252.2</ele>
        <time>2020-08-05T12:12:50Z</time>
      </trkpt>
      <trkpt lat="42.70842" lon="1.41534">
        <ele>1251.4</ele>
        <time>2020-08-05T12:12:51Z</time>
      </trkpt>
      <trkpt lat="42.70845" lon="1.41535">
        <ele>1250.6</ele>
        <time>2020-08-05T12:12:52Z</time>
      </trkpt>
      <trkpt lat="42.70849" lon="1.41536">
        <ele>1250</ele>
        <time>2020-08-05T12:12:53Z</time>
      </trkpt>
      <trkpt lat="42.70855" lon="1.41537">
        <ele>1248.2</ele>
        <time>2020-08-05T12:12:55Z</time>
      </trkpt>
      <trkpt lat="42.7086" lon="1.41537">
        <ele>1246.6</ele>
        <time>2020-08-05T12:12:57Z</time>
      </trkpt>
      <trkpt lat="42.70862" lon="1.41536">
        <ele>1245.8</ele>
        <time>2020-08-05T12:12:58Z</time>
      </trkpt>
      <trkpt lat="42.70864" lon="1.41533">
        <ele>1245</ele>
        <time>2020-08-05T12:12:59Z</time>
      </trkpt>
      <trkpt lat="42.70868" lon="1.41528">
        <ele>1242.8</ele>
        <time>2020-08-05T12:13:01Z</time>
      </trkpt>
      <trkpt lat="42.70872" lon="1.4153">
        <ele>1241.6</ele>
        <time>2020-08-05T12:13:03Z</time>
      </trkpt>
      <trkpt lat="42.70875" lon="1.41531">
        <ele>1240.8</ele>
        <time>2020-08-05T12:13:04Z</time>
      </trkpt>
      <trkpt lat="42.70878" lon="1.41531">
        <ele>1240</ele>
        <time>2020-08-05T12:13:05Z</time>
      </trkpt>
      <trkpt lat="42.70885" lon="1.41532">
        <ele>1237.8</ele>
        <time>2020-08-05T12:13:07Z</time>
      </trkpt>
      <trkpt lat="42.70888" lon="1.41532">
        <ele>1236.6</ele>
        <time>2020-08-05T12:13:08Z</time>
      </trkpt>
      <trkpt lat="42.70892" lon="1.41532">
        <ele>1235.2</ele>
        <time>2020-08-05T12:13:09Z</time>
      </trkpt>
      <trkpt lat="42.70893" lon="1.41538">
        <ele>1233.6</ele>
        <time>2020-08-05T12:13:11Z</time>
      </trkpt>
      <trkpt lat="42.70895" lon="1.41544">
        <ele>1232.2</ele>
        <time>2020-08-05T12:13:13Z</time>
      </trkpt>
      <trkpt lat="42.70896" lon="1.41551">
        <ele>1231.2</ele>
        <time>2020-08-05T12:13:15Z</time>
      </trkpt>
      <trkpt lat="42.70896" lon="1.41555">
        <ele>1230.6</ele>
        <time>2020-08-05T12:13:16Z</time>
      </trkpt>
      <trkpt lat="42.70894" lon="1.41562">
        <ele>1229.2</ele>
        <time>2020-08-05T12:13:18Z</time>
      </trkpt>
      <trkpt lat="42.70893" lon="1.41566">
        <ele>1228</ele>
        <time>2020-08-05T12:13:20Z</time>
      </trkpt>
      <trkpt lat="42.70892" lon="1.4157">
        <ele>1227.4</ele>
        <time>2020-08-05T12:13:22Z</time>
      </trkpt>
      <trkpt lat="42.70891" lon="1.41571">
        <ele>1227</ele>
        <time>2020-08-05T12:13:23Z</time>
      </trkpt>
      <trkpt lat="42.7089" lon="1.41574">
        <ele>1226.8</ele>
        <time>2020-08-05T12:13:24Z</time>
      </trkpt>
      <trkpt lat="42.7089" lon="1.4158">
        <ele>1226.2</ele>
        <time>2020-08-05T12:13:25Z</time>
      </trkpt>
      <trkpt lat="42.70889" lon="1.41586">
        <ele>1225.6</ele>
        <time>2020-08-05T12:13:26Z</time>
      </trkpt>
      <trkpt lat="42.70889" lon="1.41595">
        <ele>1224.4</ele>
        <time>2020-08-05T12:13:28Z</time>
      </trkpt>
      <trkpt lat="42.70889" lon="1.41595">
        <ele>1224</ele>
        <time>2020-08-05T12:13:31Z</time>
      </trkpt>
      <trkpt lat="42.70891" lon="1.416">
        <ele>1223.4</ele>
        <time>2020-08-05T12:13:34Z</time>
      </trkpt>
      <trkpt lat="42.70892" lon="1.41606">
        <ele>1223</ele>
        <time>2020-08-05T12:13:35Z</time>
      </trkpt>
      <trkpt lat="42.70894" lon="1.41622">
        <ele>1222.2</ele>
        <time>2020-08-05T12:13:39Z</time>
      </trkpt>
      <trkpt lat="42.70894" lon="1.41625">
        <ele>1221.4</ele>
        <time>2020-08-05T12:13:40Z</time>
      </trkpt>
      <trkpt lat="42.70896" lon="1.4164">
        <ele>1220.2</ele>
        <time>2020-08-05T12:13:44Z</time>
      </trkpt>
      <trkpt lat="42.70899" lon="1.41665">
        <ele>1219</ele>
        <time>2020-08-05T12:13:48Z</time>
      </trkpt>
      <trkpt lat="42.709" lon="1.41672">
        <ele>1217.8</ele>
        <time>2020-08-05T12:13:49Z</time>
      </trkpt>
      <trkpt lat="42.70901" lon="1.41678">
        <ele>1217</ele>
        <time>2020-08-05T12:13:50Z</time>
      </trkpt>
      <trkpt lat="42.70902" lon="1.41683">
        <ele>1216.8</ele>
        <time>2020-08-05T12:13:51Z</time>
      </trkpt>
      <trkpt lat="42.70903" lon="1.41686">
        <ele>1216.6</ele>
        <time>2020-08-05T12:13:52Z</time>
      </trkpt>
      <trkpt lat="42.70905" lon="1.41696">
        <ele>1215.8</ele>
        <time>2020-08-05T12:13:55Z</time>
      </trkpt>
      <trkpt lat="42.70907" lon="1.41701">
        <ele>1215</ele>
        <time>2020-08-05T12:13:57Z</time>
      </trkpt>
      <trkpt lat="42.70907" lon="1.41704">
        <ele>1214.6</ele>
        <time>2020-08-05T12:13:58Z</time>
      </trkpt>
      <trkpt lat="42.70909" lon="1.41714">
        <ele>1213.4</ele>
        <time>2020-08-05T12:14:01Z</time>
      </trkpt>
      <trkpt lat="42.70909" lon="1.41723">
        <ele>1212.8</ele>
        <time>2020-08-05T12:14:03Z</time>
      </trkpt>
      <trkpt lat="42.70911" lon="1.41727">
        <ele>1212.2</ele>
        <time>2020-08-05T12:14:04Z</time>
      </trkpt>
      <trkpt lat="42.70914" lon="1.41734">
        <ele>1211</ele>
        <time>2020-08-05T12:14:06Z</time>
      </trkpt>
      <trkpt lat="42.70916" lon="1.41738">
        <ele>1210.6</ele>
        <time>2020-08-05T12:14:07Z</time>
      </trkpt>
      <trkpt lat="42.70918" lon="1.41743">
        <ele>1210.4</ele>
        <time>2020-08-05T12:14:08Z</time>
      </trkpt>
      <trkpt lat="42.7092" lon="1.41748">
        <ele>1209.8</ele>
        <time>2020-08-05T12:14:09Z</time>
      </trkpt>
      <trkpt lat="42.70923" lon="1.41757">
        <ele>1208.8</ele>
        <time>2020-08-05T12:14:11Z</time>
      </trkpt>
      <trkpt lat="42.70923" lon="1.41761">
        <ele>1208.4</ele>
        <time>2020-08-05T12:14:13Z</time>
      </trkpt>
      <trkpt lat="42.70922" lon="1.41764">
        <ele>1208.2</ele>
        <time>2020-08-05T12:14:17Z</time>
      </trkpt>
      <trkpt lat="42.70924" lon="1.41772">
        <ele>1207.8</ele>
        <time>2020-08-05T12:14:20Z</time>
      </trkpt>
      <trkpt lat="42.70925" lon="1.41774">
        <ele>1207.4</ele>
        <time>2020-08-05T12:14:21Z</time>
      </trkpt>
      <trkpt lat="42.70927" lon="1.41785">
        <ele>1206.6</ele>
        <time>2020-08-05T12:14:24Z</time>
      </trkpt>
      <trkpt lat="42.70929" lon="1.4179">
        <ele>1206</ele>
        <time>2020-08-05T12:14:25Z</time>
      </trkpt>
      <trkpt lat="42.70929" lon="1.41795">
        <ele>1205.6</ele>
        <time>2020-08-05T12:14:26Z</time>
      </trkpt>
      <trkpt lat="42.70927" lon="1.41806">
        <ele>1204.8</ele>
        <time>2020-08-05T12:14:29Z</time>
      </trkpt>
      <trkpt lat="42.70927" lon="1.41809">
        <ele>1204.6</ele>
        <time>2020-08-05T12:14:30Z</time>
      </trkpt>
      <trkpt lat="42.70928" lon="1.41816">
        <ele>1204.4</ele>
        <time>2020-08-05T12:14:32Z</time>
      </trkpt>
      <trkpt lat="42.7093" lon="1.41824">
        <ele>1204.2</ele>
        <time>2020-08-05T12:14:34Z</time>
      </trkpt>
      <trkpt lat="42.70933" lon="1.41843">
        <ele>1203.8</ele>
        <time>2020-08-05T12:14:39Z</time>
      </trkpt>
      <trkpt lat="42.70935" lon="1.41847">
        <ele>1203.4</ele>
        <time>2020-08-05T12:14:40Z</time>
      </trkpt>
      <trkpt lat="42.70934" lon="1.41861">
        <ele>1202.2</ele>
        <time>2020-08-05T12:14:43Z</time>
      </trkpt>
      <trkpt lat="42.70934" lon="1.41877">
        <ele>1201.2</ele>
        <time>2020-08-05T12:14:46Z</time>
      </trkpt>
      <trkpt lat="42.70935" lon="1.41879">
        <ele>1201</ele>
        <time>2020-08-05T12:14:47Z</time>
      </trkpt>
      <trkpt lat="42.70936" lon="1.4188">
        <ele>1201</ele>
        <time>2020-08-05T12:14:48Z</time>
      </trkpt>
      <trkpt lat="42.7094" lon="1.41885">
        <ele>1201.4</ele>
        <time>2020-08-05T12:14:51Z</time>
      </trkpt>
      <trkpt lat="42.70941" lon="1.4189">
        <ele>1202.2</ele>
        <time>2020-08-05T12:14:53Z</time>
      </trkpt>
      <trkpt lat="42.70941" lon="1.41895">
        <ele>1203.2</ele>
        <time>2020-08-05T12:14:55Z</time>
      </trkpt>
      <trkpt lat="42.70941" lon="1.41897">
        <ele>1203.6</ele>
        <time>2020-08-05T12:14:56Z</time>
      </trkpt>
      <trkpt lat="42.70941" lon="1.41902">
        <ele>1204.8</ele>
        <time>2020-08-05T12:14:59Z</time>
      </trkpt>
      <trkpt lat="42.70941" lon="1.41904">
        <ele>1205.2</ele>
        <time>2020-08-05T12:15:00Z</time>
      </trkpt>
      <trkpt lat="42.7094" lon="1.41906">
        <ele>1205.8</ele>
        <time>2020-08-05T12:15:01Z</time>
      </trkpt>
      <trkpt lat="42.70937" lon="1.41916">
        <ele>1205.8</ele>
        <time>2020-08-05T12:15:06Z</time>
      </trkpt>
      <trkpt lat="42.70931" lon="1.41929">
        <ele>1204.8</ele>
        <time>2020-08-05T12:15:11Z</time>
      </trkpt>
      <trkpt lat="42.70928" lon="1.41936">
        <ele>1203.8</ele>
        <time>2020-08-05T12:15:13Z</time>
      </trkpt>
      <trkpt lat="42.70924" lon="1.41944">
        <ele>1202.6</ele>
        <time>2020-08-05T12:15:16Z</time>
      </trkpt>
      <trkpt lat="42.70923" lon="1.41946">
        <ele>1202.2</ele>
        <time>2020-08-05T12:15:17Z</time>
      </trkpt>
      <trkpt lat="42.70921" lon="1.4195">
        <ele>1201.2</ele>
        <time>2020-08-05T12:15:19Z</time>
      </trkpt>
      <trkpt lat="42.70919" lon="1.41959">
        <ele>1200.4</ele>
        <time>2020-08-05T12:15:23Z</time>
      </trkpt>
      <trkpt lat="42.70919" lon="1.41961">
        <ele>1200</ele>
        <time>2020-08-05T12:15:24Z</time>
      </trkpt>
      <trkpt lat="42.70917" lon="1.41969">
        <ele>1198.6</ele>
        <time>2020-08-05T12:15:26Z</time>
      </trkpt>
      <trkpt lat="42.70914" lon="1.41976">
        <ele>1198</ele>
        <time>2020-08-05T12:15:27Z</time>
      </trkpt>
      <trkpt lat="42.70912" lon="1.41982">
        <ele>1197.4</ele>
        <time>2020-08-05T12:15:28Z</time>
      </trkpt>
      <trkpt lat="42.70906" lon="1.42013">
        <ele>1197.2</ele>
        <time>2020-08-05T12:15:32Z</time>
      </trkpt>
      <trkpt lat="42.70913" lon="1.42042">
        <ele>1196.4</ele>
        <time>2020-08-05T12:15:36Z</time>
      </trkpt>
      <trkpt lat="42.70918" lon="1.42056">
        <ele>1195.8</ele>
        <time>2020-08-05T12:15:40Z</time>
      </trkpt>
      <trkpt lat="42.70922" lon="1.42064">
        <ele>1195.6</ele>
        <time>2020-08-05T12:15:48Z</time>
      </trkpt>
      <trkpt lat="42.70922" lon="1.42064">
        <ele>1195.6</ele>
        <time>2020-08-05T12:16:00Z</time>
      </trkpt>
      <trkpt lat="42.70922" lon="1.42064">
        <ele>1195.6</ele>
        <time>2020-08-05T12:16:15Z</time>
      </trkpt>
      <trkpt lat="42.70924" lon="1.42069">
        <ele>1195.2</ele>
        <time>2020-08-05T12:16:23Z</time>
      </trkpt>
      <trkpt lat="42.70927" lon="1.42083">
        <ele>1194.4</ele>
        <time>2020-08-05T12:16:25Z</time>
      </trkpt>
      <trkpt lat="42.70929" lon="1.42091">
        <ele>1193.4</ele>
        <time>2020-08-05T12:16:26Z</time>
      </trkpt>
      <trkpt lat="42.70931" lon="1.42098">
        <ele>1192.2</ele>
        <time>2020-08-05T12:16:27Z</time>
      </trkpt>
      <trkpt lat="42.70932" lon="1.42103">
        <ele>1191</ele>
        <time>2020-08-05T12:16:28Z</time>
      </trkpt>
      <trkpt lat="42.70934" lon="1.42111">
        <ele>1189.4</ele>
        <time>2020-08-05T12:16:30Z</time>
      </trkpt>
      <trkpt lat="42.70936" lon="1.42119">
        <ele>1187.4</ele>
        <time>2020-08-05T12:16:32Z</time>
      </trkpt>
      <trkpt lat="42.70937" lon="1.42123">
        <ele>1186.4</ele>
        <time>2020-08-05T12:16:33Z</time>
      </trkpt>
      <trkpt lat="42.70938" lon="1.42131">
        <ele>1185</ele>
        <time>2020-08-05T12:16:35Z</time>
      </trkpt>
      <trkpt lat="42.70938" lon="1.42135">
        <ele>1184.4</ele>
        <time>2020-08-05T12:16:36Z</time>
      </trkpt>
      <trkpt lat="42.70938" lon="1.42141">
        <ele>1182.8</ele>
        <time>2020-08-05T12:16:37Z</time>
      </trkpt>
      <trkpt lat="42.7094" lon="1.42149">
        <ele>1181.4</ele>
        <time>2020-08-05T12:16:39Z</time>
      </trkpt>
      <trkpt lat="42.70941" lon="1.42157">
        <ele>1180.4</ele>
        <time>2020-08-05T12:16:41Z</time>
      </trkpt>
      <trkpt lat="42.70942" lon="1.42161">
        <ele>1180</ele>
        <time>2020-08-05T12:16:42Z</time>
      </trkpt>
      <trkpt lat="42.70944" lon="1.42169">
        <ele>1179.6</ele>
        <time>2020-08-05T12:16:45Z</time>
      </trkpt>
      <trkpt lat="42.70946" lon="1.42182">
        <ele>1179.4</ele>
        <time>2020-08-05T12:16:52Z</time>
      </trkpt>
      <trkpt lat="42.70947" lon="1.42191">
        <ele>1179.4</ele>
        <time>2020-08-05T12:16:57Z</time>
      </trkpt>
      <trkpt lat="42.70948" lon="1.4221">
        <ele>1179.2</ele>
        <time>2020-08-05T12:17:01Z</time>
      </trkpt>
      <trkpt lat="42.7095" lon="1.42222">
        <ele>1179.2</ele>
        <time>2020-08-05T12:17:06Z</time>
      </trkpt>
      <trkpt lat="42.70952" lon="1.4223">
        <ele>1179.2</ele>
        <time>2020-08-05T12:17:12Z</time>
      </trkpt>
      <trkpt lat="42.70954" lon="1.42235">
        <ele>1179.2</ele>
        <time>2020-08-05T12:17:15Z</time>
      </trkpt>
      <trkpt lat="42.70955" lon="1.4224">
        <ele>1179.2</ele>
        <time>2020-08-05T12:17:20Z</time>
      </trkpt>
      <trkpt lat="42.70957" lon="1.4225">
        <ele>1180</ele>
        <time>2020-08-05T12:17:26Z</time>
      </trkpt>
      <trkpt lat="42.70958" lon="1.42255">
        <ele>1180.2</ele>
        <time>2020-08-05T12:17:29Z</time>
      </trkpt>
      <trkpt lat="42.70958" lon="1.42258">
        <ele>1180.2</ele>
        <time>2020-08-05T12:17:31Z</time>
      </trkpt>
      <trkpt lat="42.70958" lon="1.4226">
        <ele>1180.2</ele>
        <time>2020-08-05T12:17:32Z</time>
      </trkpt>
      <trkpt lat="42.70959" lon="1.42263">
        <ele>1180.2</ele>
        <time>2020-08-05T12:17:33Z</time>
      </trkpt>
      <trkpt lat="42.7096" lon="1.42273">
        <ele>1179.8</ele>
        <time>2020-08-05T12:17:36Z</time>
      </trkpt>
      <trkpt lat="42.7096" lon="1.42292">
        <ele>1179.8</ele>
        <time>2020-08-05T12:17:40Z</time>
      </trkpt>
      <trkpt lat="42.70961" lon="1.42302">
        <ele>1179.6</ele>
        <time>2020-08-05T12:17:42Z</time>
      </trkpt>
      <trkpt lat="42.70965" lon="1.42321">
        <ele>1179.4</ele>
        <time>2020-08-05T12:17:46Z</time>
      </trkpt>
      <trkpt lat="42.70973" lon="1.42339">
        <ele>1179.2</ele>
        <time>2020-08-05T12:17:51Z</time>
      </trkpt>
      <trkpt lat="42.7098" lon="1.4235">
        <ele>1179</ele>
        <time>2020-08-05T12:17:56Z</time>
      </trkpt>
      <trkpt lat="42.7098" lon="1.42354">
        <ele>1179</ele>
        <time>2020-08-05T12:17:57Z</time>
      </trkpt>
      <trkpt lat="42.70981" lon="1.42357">
        <ele>1179.2</ele>
        <time>2020-08-05T12:18:00Z</time>
      </trkpt>
      <trkpt lat="42.70981" lon="1.42363">
        <ele>1179.2</ele>
        <time>2020-08-05T12:18:02Z</time>
      </trkpt>
      <trkpt lat="42.70983" lon="1.42376">
        <ele>1179.2</ele>
        <time>2020-08-05T12:18:05Z</time>
      </trkpt>
      <trkpt lat="42.70983" lon="1.42381">
        <ele>1179</ele>
        <time>2020-08-05T12:18:06Z</time>
      </trkpt>
      <trkpt lat="42.70987" lon="1.42391">
        <ele>1178.8</ele>
        <time>2020-08-05T12:18:08Z</time>
      </trkpt>
      <trkpt lat="42.70991" lon="1.42404">
        <ele>1179</ele>
        <time>2020-08-05T12:18:11Z</time>
      </trkpt>
      <trkpt lat="42.70997" lon="1.42422">
        <ele>1179</ele>
        <time>2020-08-05T12:18:16Z</time>
      </trkpt>
      <trkpt lat="42.71002" lon="1.42439">
        <ele>1178.8</ele>
        <time>2020-08-05T12:18:21Z</time>
      </trkpt>
      <trkpt lat="42.71005" lon="1.42452">
        <ele>1178.8</ele>
        <time>2020-08-05T12:18:27Z</time>
      </trkpt>
      <trkpt lat="42.71008" lon="1.4246">
        <ele>1178.8</ele>
        <time>2020-08-05T12:18:30Z</time>
      </trkpt>
      <trkpt lat="42.71011" lon="1.42464">
        <ele>1178.8</ele>
        <time>2020-08-05T12:18:32Z</time>
      </trkpt>
      <trkpt lat="42.71013" lon="1.4247">
        <ele>1179</ele>
        <time>2020-08-05T12:18:35Z</time>
      </trkpt>
      <trkpt lat="42.71014" lon="1.42478">
        <ele>1179.4</ele>
        <time>2020-08-05T12:18:38Z</time>
      </trkpt>
      <trkpt lat="42.71015" lon="1.42481">
        <ele>1179.4</ele>
        <time>2020-08-05T12:18:39Z</time>
      </trkpt>
      <trkpt lat="42.7102" lon="1.42488">
        <ele>1179.6</ele>
        <time>2020-08-05T12:18:42Z</time>
      </trkpt>
      <trkpt lat="42.71028" lon="1.42502">
        <ele>1179.6</ele>
        <time>2020-08-05T12:18:47Z</time>
      </trkpt>
      <trkpt lat="42.71035" lon="1.42516">
        <ele>1179.2</ele>
        <time>2020-08-05T12:18:51Z</time>
      </trkpt>
      <trkpt lat="42.7104" lon="1.42522">
        <ele>1178.8</ele>
        <time>2020-08-05T12:18:53Z</time>
      </trkpt>
      <trkpt lat="42.71046" lon="1.42536">
        <ele>1177.8</ele>
        <time>2020-08-05T12:18:56Z</time>
      </trkpt>
      <trkpt lat="42.71048" lon="1.42541">
        <ele>1177.4</ele>
        <time>2020-08-05T12:18:57Z</time>
      </trkpt>
      <trkpt lat="42.71051" lon="1.42551">
        <ele>1176.6</ele>
        <time>2020-08-05T12:18:59Z</time>
      </trkpt>
      <trkpt lat="42.71053" lon="1.42561">
        <ele>1175.6</ele>
        <time>2020-08-05T12:19:02Z</time>
      </trkpt>
      <trkpt lat="42.71056" lon="1.42581">
        <ele>1174.4</ele>
        <time>2020-08-05T12:19:07Z</time>
      </trkpt>
      <trkpt lat="42.71056" lon="1.42585">
        <ele>1174.4</ele>
        <time>2020-08-05T12:19:08Z</time>
      </trkpt>
      <trkpt lat="42.7106" lon="1.42611">
        <ele>1173.4</ele>
        <time>2020-08-05T12:19:13Z</time>
      </trkpt>
      <trkpt lat="42.71062" lon="1.42626">
        <ele>1172.8</ele>
        <time>2020-08-05T12:19:18Z</time>
      </trkpt>
      <trkpt lat="42.71064" lon="1.42635">
        <ele>1172.6</ele>
        <time>2020-08-05T12:19:21Z</time>
      </trkpt>
      <trkpt lat="42.71064" lon="1.4264">
        <ele>1172.6</ele>
        <time>2020-08-05T12:19:22Z</time>
      </trkpt>
      <trkpt lat="42.71066" lon="1.42646">
        <ele>1172.4</ele>
        <time>2020-08-05T12:19:23Z</time>
      </trkpt>
      <trkpt lat="42.71068" lon="1.42666">
        <ele>1171.2</ele>
        <time>2020-08-05T12:19:27Z</time>
      </trkpt>
      <trkpt lat="42.71071" lon="1.4268">
        <ele>1170.4</ele>
        <time>2020-08-05T12:19:33Z</time>
      </trkpt>
      <trkpt lat="42.7107" lon="1.42682">
        <ele>1170.4</ele>
        <time>2020-08-05T12:19:34Z</time>
      </trkpt>
      <trkpt lat="42.71069" lon="1.42685">
        <ele>1170.2</ele>
        <time>2020-08-05T12:19:35Z</time>
      </trkpt>
      <trkpt lat="42.7107" lon="1.42694">
        <ele>1169.8</ele>
        <time>2020-08-05T12:19:37Z</time>
      </trkpt>
      <trkpt lat="42.71071" lon="1.42707">
        <ele>1169.2</ele>
        <time>2020-08-05T12:19:39Z</time>
      </trkpt>
      <trkpt lat="42.71071" lon="1.42714">
        <ele>1169</ele>
        <time>2020-08-05T12:19:40Z</time>
      </trkpt>
      <trkpt lat="42.71071" lon="1.42722">
        <ele>1168.6</ele>
        <time>2020-08-05T12:19:41Z</time>
      </trkpt>
      <trkpt lat="42.71075" lon="1.4274">
        <ele>1167.6</ele>
        <time>2020-08-05T12:19:43Z</time>
      </trkpt>
      <trkpt lat="42.71079" lon="1.4276">
        <ele>1166.2</ele>
        <time>2020-08-05T12:19:45Z</time>
      </trkpt>
      <trkpt lat="42.71081" lon="1.42781">
        <ele>1165</ele>
        <time>2020-08-05T12:19:47Z</time>
      </trkpt>
      <trkpt lat="42.71083" lon="1.42792">
        <ele>1164.8</ele>
        <time>2020-08-05T12:19:48Z</time>
      </trkpt>
      <trkpt lat="42.71084" lon="1.42803">
        <ele>1163.4</ele>
        <time>2020-08-05T12:19:49Z</time>
      </trkpt>
      <trkpt lat="42.7109" lon="1.42825">
        <ele>1161.8</ele>
        <time>2020-08-05T12:19:51Z</time>
      </trkpt>
      <trkpt lat="42.71098" lon="1.42847">
        <ele>1159.8</ele>
        <time>2020-08-05T12:19:53Z</time>
      </trkpt>
      <trkpt lat="42.71106" lon="1.42871">
        <ele>1158.6</ele>
        <time>2020-08-05T12:19:55Z</time>
      </trkpt>
      <trkpt lat="42.7111" lon="1.42883">
        <ele>1158.2</ele>
        <time>2020-08-05T12:19:56Z</time>
      </trkpt>
      <trkpt lat="42.71113" lon="1.42895">
        <ele>1157.4</ele>
        <time>2020-08-05T12:19:57Z</time>
      </trkpt>
      <trkpt lat="42.71121" lon="1.42919">
        <ele>1156</ele>
        <time>2020-08-05T12:19:59Z</time>
      </trkpt>
      <trkpt lat="42.71129" lon="1.42942">
        <ele>1154.6</ele>
        <time>2020-08-05T12:20:01Z</time>
      </trkpt>
      <trkpt lat="42.71133" lon="1.42954">
        <ele>1154</ele>
        <time>2020-08-05T12:20:02Z</time>
      </trkpt>
      <trkpt lat="42.71136" lon="1.42966">
        <ele>1153.4</ele>
        <time>2020-08-05T12:20:03Z</time>
      </trkpt>
      <trkpt lat="42.71142" lon="1.42989">
        <ele>1152.4</ele>
        <time>2020-08-05T12:20:05Z</time>
      </trkpt>
      <trkpt lat="42.7115" lon="1.43012">
        <ele>1151.2</ele>
        <time>2020-08-05T12:20:07Z</time>
      </trkpt>
      <trkpt lat="42.7117" lon="1.43038">
        <ele>1150.4</ele>
        <time>2020-08-05T12:20:10Z</time>
      </trkpt>
      <trkpt lat="42.71183" lon="1.43056">
        <ele>1149.6</ele>
        <time>2020-08-05T12:20:12Z</time>
      </trkpt>
      <trkpt lat="42.7119" lon="1.43066">
        <ele>1148.2</ele>
        <time>2020-08-05T12:20:13Z</time>
      </trkpt>
      <trkpt lat="42.71205" lon="1.43083">
        <ele>1146.4</ele>
        <time>2020-08-05T12:20:15Z</time>
      </trkpt>
      <trkpt lat="42.71212" lon="1.4309">
        <ele>1145.8</ele>
        <time>2020-08-05T12:20:16Z</time>
      </trkpt>
      <trkpt lat="42.7122" lon="1.43096">
        <ele>1145</ele>
        <time>2020-08-05T12:20:17Z</time>
      </trkpt>
      <trkpt lat="42.71228" lon="1.43102">
        <ele>1144</ele>
        <time>2020-08-05T12:20:18Z</time>
      </trkpt>
      <trkpt lat="42.71236" lon="1.43108">
        <ele>1143.2</ele>
        <time>2020-08-05T12:20:19Z</time>
      </trkpt>
      <trkpt lat="42.71244" lon="1.43113">
        <ele>1142.4</ele>
        <time>2020-08-05T12:20:20Z</time>
      </trkpt>
      <trkpt lat="42.71251" lon="1.4312">
        <ele>1141.8</ele>
        <time>2020-08-05T12:20:21Z</time>
      </trkpt>
      <trkpt lat="42.71265" lon="1.43134">
        <ele>1141</ele>
        <time>2020-08-05T12:20:23Z</time>
      </trkpt>
      <trkpt lat="42.71271" lon="1.43143">
        <ele>1140.6</ele>
        <time>2020-08-05T12:20:24Z</time>
      </trkpt>
      <trkpt lat="42.71277" lon="1.43152">
        <ele>1139.8</ele>
        <time>2020-08-05T12:20:25Z</time>
      </trkpt>
      <trkpt lat="42.71283" lon="1.4316">
        <ele>1139</ele>
        <time>2020-08-05T12:20:26Z</time>
      </trkpt>
      <trkpt lat="42.71296" lon="1.43176">
        <ele>1137.8</ele>
        <time>2020-08-05T12:20:28Z</time>
      </trkpt>
      <trkpt lat="42.71301" lon="1.43186">
        <ele>1137.2</ele>
        <time>2020-08-05T12:20:29Z</time>
      </trkpt>
      <trkpt lat="42.71304" lon="1.43197">
        <ele>1136.6</ele>
        <time>2020-08-05T12:20:30Z</time>
      </trkpt>
      <trkpt lat="42.71312" lon="1.43229">
        <ele>1135.4</ele>
        <time>2020-08-05T12:20:33Z</time>
      </trkpt>
      <trkpt lat="42.71315" lon="1.43252">
        <ele>1134.2</ele>
        <time>2020-08-05T12:20:35Z</time>
      </trkpt>
      <trkpt lat="42.71317" lon="1.43295">
        <ele>1133.2</ele>
        <time>2020-08-05T12:20:39Z</time>
      </trkpt>
      <trkpt lat="42.71318" lon="1.43305">
        <ele>1132.8</ele>
        <time>2020-08-05T12:20:40Z</time>
      </trkpt>
      <trkpt lat="42.71323" lon="1.43331">
        <ele>1131.8</ele>
        <time>2020-08-05T12:20:43Z</time>
      </trkpt>
      <trkpt lat="42.71324" lon="1.43349">
        <ele>1131.4</ele>
        <time>2020-08-05T12:20:45Z</time>
      </trkpt>
      <trkpt lat="42.71326" lon="1.43358">
        <ele>1130.6</ele>
        <time>2020-08-05T12:20:46Z</time>
      </trkpt>
      <trkpt lat="42.71336" lon="1.43381">
        <ele>1129.4</ele>
        <time>2020-08-05T12:20:49Z</time>
      </trkpt>
      <trkpt lat="42.7134" lon="1.43388">
        <ele>1129</ele>
        <time>2020-08-05T12:20:50Z</time>
      </trkpt>
      <trkpt lat="42.71348" lon="1.43403">
        <ele>1127.8</ele>
        <time>2020-08-05T12:20:52Z</time>
      </trkpt>
      <trkpt lat="42.71357" lon="1.43416">
        <ele>1126.8</ele>
        <time>2020-08-05T12:20:54Z</time>
      </trkpt>
      <trkpt lat="42.71361" lon="1.43423">
        <ele>1126</ele>
        <time>2020-08-05T12:20:55Z</time>
      </trkpt>
      <trkpt lat="42.71365" lon="1.43431">
        <ele>1125.4</ele>
        <time>2020-08-05T12:20:56Z</time>
      </trkpt>
      <trkpt lat="42.71365" lon="1.43449">
        <ele>1123.8</ele>
        <time>2020-08-05T12:20:58Z</time>
      </trkpt>
      <trkpt lat="42.71368" lon="1.43476">
        <ele>1123.4</ele>
        <time>2020-08-05T12:21:02Z</time>
      </trkpt>
      <trkpt lat="42.71381" lon="1.4349">
        <ele>1122.8</ele>
        <time>2020-08-05T12:21:05Z</time>
      </trkpt>
      <trkpt lat="42.71385" lon="1.43495">
        <ele>1122.4</ele>
        <time>2020-08-05T12:21:06Z</time>
      </trkpt>
      <trkpt lat="42.71402" lon="1.43519">
        <ele>1121.6</ele>
        <time>2020-08-05T12:21:10Z</time>
      </trkpt>
      <trkpt lat="42.71407" lon="1.43524">
        <ele>1121.2</ele>
        <time>2020-08-05T12:21:11Z</time>
      </trkpt>
      <trkpt lat="42.71416" lon="1.43535">
        <ele>1120.2</ele>
        <time>2020-08-05T12:21:13Z</time>
      </trkpt>
      <trkpt lat="42.71428" lon="1.43551">
        <ele>1119.2</ele>
        <time>2020-08-05T12:21:16Z</time>
      </trkpt>
      <trkpt lat="42.71445" lon="1.43573">
        <ele>1118</ele>
        <time>2020-08-05T12:21:20Z</time>
      </trkpt>
      <trkpt lat="42.71454" lon="1.43586">
        <ele>1117.4</ele>
        <time>2020-08-05T12:21:22Z</time>
      </trkpt>
      <trkpt lat="42.71458" lon="1.43591">
        <ele>1117.2</ele>
        <time>2020-08-05T12:21:23Z</time>
      </trkpt>
      <trkpt lat="42.71466" lon="1.43605">
        <ele>1116.2</ele>
        <time>2020-08-05T12:21:25Z</time>
      </trkpt>
      <trkpt lat="42.71479" lon="1.43626">
        <ele>1115.6</ele>
        <time>2020-08-05T12:21:28Z</time>
      </trkpt>
      <trkpt lat="42.7149" lon="1.43637">
        <ele>1115.2</ele>
        <time>2020-08-05T12:21:30Z</time>
      </trkpt>
      <trkpt lat="42.71509" lon="1.43651">
        <ele>1114.4</ele>
        <time>2020-08-05T12:21:33Z</time>
      </trkpt>
      <trkpt lat="42.71516" lon="1.43654">
        <ele>1114</ele>
        <time>2020-08-05T12:21:34Z</time>
      </trkpt>
      <trkpt lat="42.71535" lon="1.43666">
        <ele>1113.4</ele>
        <time>2020-08-05T12:21:37Z</time>
      </trkpt>
      <trkpt lat="42.71541" lon="1.43672">
        <ele>1113</ele>
        <time>2020-08-05T12:21:38Z</time>
      </trkpt>
      <trkpt lat="42.71567" lon="1.43697">
        <ele>1111.6</ele>
        <time>2020-08-05T12:21:42Z</time>
      </trkpt>
      <trkpt lat="42.7158" lon="1.43712">
        <ele>1110.4</ele>
        <time>2020-08-05T12:21:44Z</time>
      </trkpt>
      <trkpt lat="42.7159" lon="1.43732">
        <ele>1109.2</ele>
        <time>2020-08-05T12:21:46Z</time>
      </trkpt>
      <trkpt lat="42.71601" lon="1.43754">
        <ele>1107.4</ele>
        <time>2020-08-05T12:21:48Z</time>
      </trkpt>
      <trkpt lat="42.71607" lon="1.43765">
        <ele>1106.4</ele>
        <time>2020-08-05T12:21:49Z</time>
      </trkpt>
      <trkpt lat="42.71622" lon="1.43797">
        <ele>1105.4</ele>
        <time>2020-08-05T12:21:52Z</time>
      </trkpt>
      <trkpt lat="42.71627" lon="1.43807">
        <ele>1105.2</ele>
        <time>2020-08-05T12:21:53Z</time>
      </trkpt>
      <trkpt lat="42.71636" lon="1.43826">
        <ele>1104.8</ele>
        <time>2020-08-05T12:21:55Z</time>
      </trkpt>
      <trkpt lat="42.71647" lon="1.43843">
        <ele>1104.2</ele>
        <time>2020-08-05T12:21:57Z</time>
      </trkpt>
      <trkpt lat="42.71658" lon="1.43862">
        <ele>1103.2</ele>
        <time>2020-08-05T12:21:59Z</time>
      </trkpt>
      <trkpt lat="42.71662" lon="1.43872">
        <ele>1102.6</ele>
        <time>2020-08-05T12:22:00Z</time>
      </trkpt>
      <trkpt lat="42.71672" lon="1.43894">
        <ele>1101.8</ele>
        <time>2020-08-05T12:22:02Z</time>
      </trkpt>
      <trkpt lat="42.71679" lon="1.43916">
        <ele>1101.2</ele>
        <time>2020-08-05T12:22:04Z</time>
      </trkpt>
      <trkpt lat="42.71681" lon="1.43928">
        <ele>1100.8</ele>
        <time>2020-08-05T12:22:05Z</time>
      </trkpt>
      <trkpt lat="42.7168" lon="1.43939">
        <ele>1100.6</ele>
        <time>2020-08-05T12:22:06Z</time>
      </trkpt>
      <trkpt lat="42.71674" lon="1.43962">
        <ele>1100.2</ele>
        <time>2020-08-05T12:22:08Z</time>
      </trkpt>
      <trkpt lat="42.71671" lon="1.43973">
        <ele>1099.8</ele>
        <time>2020-08-05T12:22:09Z</time>
      </trkpt>
      <trkpt lat="42.71668" lon="1.43983">
        <ele>1099.6</ele>
        <time>2020-08-05T12:22:10Z</time>
      </trkpt>
      <trkpt lat="42.71667" lon="1.43993">
        <ele>1099.6</ele>
        <time>2020-08-05T12:22:11Z</time>
      </trkpt>
      <trkpt lat="42.71669" lon="1.44014">
        <ele>1099.8</ele>
        <time>2020-08-05T12:22:13Z</time>
      </trkpt>
      <trkpt lat="42.71669" lon="1.44025">
        <ele>1099</ele>
        <time>2020-08-05T12:22:14Z</time>
      </trkpt>
      <trkpt lat="42.71671" lon="1.44037">
        <ele>1098.2</ele>
        <time>2020-08-05T12:22:15Z</time>
      </trkpt>
      <trkpt lat="42.71673" lon="1.44049">
        <ele>1097.4</ele>
        <time>2020-08-05T12:22:16Z</time>
      </trkpt>
      <trkpt lat="42.71675" lon="1.44061">
        <ele>1096.8</ele>
        <time>2020-08-05T12:22:17Z</time>
      </trkpt>
      <trkpt lat="42.71677" lon="1.44074">
        <ele>1096</ele>
        <time>2020-08-05T12:22:18Z</time>
      </trkpt>
      <trkpt lat="42.7168" lon="1.44098">
        <ele>1094.8</ele>
        <time>2020-08-05T12:22:20Z</time>
      </trkpt>
      <trkpt lat="42.71682" lon="1.44117">
        <ele>1094.6</ele>
        <time>2020-08-05T12:22:22Z</time>
      </trkpt>
      <trkpt lat="42.71684" lon="1.44142">
        <ele>1094.2</ele>
        <time>2020-08-05T12:22:25Z</time>
      </trkpt>
      <trkpt lat="42.71682" lon="1.44157">
        <ele>1094.2</ele>
        <time>2020-08-05T12:22:27Z</time>
      </trkpt>
      <trkpt lat="42.71679" lon="1.44172">
        <ele>1093.8</ele>
        <time>2020-08-05T12:22:29Z</time>
      </trkpt>
      <trkpt lat="42.71675" lon="1.44204">
        <ele>1092.8</ele>
        <time>2020-08-05T12:22:33Z</time>
      </trkpt>
      <trkpt lat="42.71674" lon="1.44212">
        <ele>1092.6</ele>
        <time>2020-08-05T12:22:34Z</time>
      </trkpt>
      <trkpt lat="42.71668" lon="1.44254">
        <ele>1092</ele>
        <time>2020-08-05T12:22:39Z</time>
      </trkpt>
      <trkpt lat="42.71665" lon="1.44262">
        <ele>1091.8</ele>
        <time>2020-08-05T12:22:40Z</time>
      </trkpt>
      <trkpt lat="42.71662" lon="1.44269">
        <ele>1091.8</ele>
        <time>2020-08-05T12:22:41Z</time>
      </trkpt>
      <trkpt lat="42.71659" lon="1.44286">
        <ele>1091.8</ele>
        <time>2020-08-05T12:22:43Z</time>
      </trkpt>
      <trkpt lat="42.71658" lon="1.44302">
        <ele>1091.6</ele>
        <time>2020-08-05T12:22:45Z</time>
      </trkpt>
      <trkpt lat="42.71656" lon="1.44319">
        <ele>1091.2</ele>
        <time>2020-08-05T12:22:47Z</time>
      </trkpt>
      <trkpt lat="42.71653" lon="1.44337">
        <ele>1090.6</ele>
        <time>2020-08-05T12:22:49Z</time>
      </trkpt>
      <trkpt lat="42.7165" lon="1.44346">
        <ele>1090</ele>
        <time>2020-08-05T12:22:50Z</time>
      </trkpt>
      <trkpt lat="42.71648" lon="1.44356">
        <ele>1089.4</ele>
        <time>2020-08-05T12:22:51Z</time>
      </trkpt>
      <trkpt lat="42.71647" lon="1.44367">
        <ele>1089</ele>
        <time>2020-08-05T12:22:52Z</time>
      </trkpt>
      <trkpt lat="42.71647" lon="1.44389">
        <ele>1088.4</ele>
        <time>2020-08-05T12:22:54Z</time>
      </trkpt>
      <trkpt lat="42.71648" lon="1.44428">
        <ele>1087.2</ele>
        <time>2020-08-05T12:22:58Z</time>
      </trkpt>
      <trkpt lat="42.71648" lon="1.44437">
        <ele>1087</ele>
        <time>2020-08-05T12:22:59Z</time>
      </trkpt>
      <trkpt lat="42.71642" lon="1.44474">
        <ele>1086</ele>
        <time>2020-08-05T12:23:03Z</time>
      </trkpt>
      <trkpt lat="42.7164" lon="1.44483">
        <ele>1085.6</ele>
        <time>2020-08-05T12:23:04Z</time>
      </trkpt>
      <trkpt lat="42.71637" lon="1.44504">
        <ele>1084.6</ele>
        <time>2020-08-05T12:23:06Z</time>
      </trkpt>
      <trkpt lat="42.71632" lon="1.44528">
        <ele>1083</ele>
        <time>2020-08-05T12:23:08Z</time>
      </trkpt>
      <trkpt lat="42.71628" lon="1.44539">
        <ele>1082.4</ele>
        <time>2020-08-05T12:23:09Z</time>
      </trkpt>
      <trkpt lat="42.71624" lon="1.44549">
        <ele>1081.8</ele>
        <time>2020-08-05T12:23:10Z</time>
      </trkpt>
      <trkpt lat="42.71617" lon="1.44577">
        <ele>1080.6</ele>
        <time>2020-08-05T12:23:13Z</time>
      </trkpt>
      <trkpt lat="42.71614" lon="1.44603">
        <ele>1079.2</ele>
        <time>2020-08-05T12:23:16Z</time>
      </trkpt>
      <trkpt lat="42.71611" lon="1.44619">
        <ele>1078.4</ele>
        <time>2020-08-05T12:23:18Z</time>
      </trkpt>
      <trkpt lat="42.71607" lon="1.44637">
        <ele>1077.8</ele>
        <time>2020-08-05T12:23:20Z</time>
      </trkpt>
      <trkpt lat="42.71602" lon="1.44659">
        <ele>1076.2</ele>
        <time>2020-08-05T12:23:22Z</time>
      </trkpt>
      <trkpt lat="42.71594" lon="1.44683">
        <ele>1074.6</ele>
        <time>2020-08-05T12:23:24Z</time>
      </trkpt>
      <trkpt lat="42.71586" lon="1.44708">
        <ele>1071.8</ele>
        <time>2020-08-05T12:23:26Z</time>
      </trkpt>
      <trkpt lat="42.71581" lon="1.44721">
        <ele>1070.8</ele>
        <time>2020-08-05T12:23:27Z</time>
      </trkpt>
      <trkpt lat="42.71576" lon="1.44733">
        <ele>1069.6</ele>
        <time>2020-08-05T12:23:28Z</time>
      </trkpt>
      <trkpt lat="42.71569" lon="1.44753">
        <ele>1067.4</ele>
        <time>2020-08-05T12:23:30Z</time>
      </trkpt>
      <trkpt lat="42.71566" lon="1.44762">
        <ele>1066.4</ele>
        <time>2020-08-05T12:23:31Z</time>
      </trkpt>
      <trkpt lat="42.71563" lon="1.44771">
        <ele>1065.6</ele>
        <time>2020-08-05T12:23:32Z</time>
      </trkpt>
      <trkpt lat="42.71555" lon="1.4479">
        <ele>1064.2</ele>
        <time>2020-08-05T12:23:34Z</time>
      </trkpt>
      <trkpt lat="42.71549" lon="1.44798">
        <ele>1063.6</ele>
        <time>2020-08-05T12:23:35Z</time>
      </trkpt>
      <trkpt lat="42.71543" lon="1.44806">
        <ele>1062.8</ele>
        <time>2020-08-05T12:23:36Z</time>
      </trkpt>
      <trkpt lat="42.7153" lon="1.44821">
        <ele>1060.8</ele>
        <time>2020-08-05T12:23:38Z</time>
      </trkpt>
      <trkpt lat="42.71515" lon="1.44835">
        <ele>1059.2</ele>
        <time>2020-08-05T12:23:40Z</time>
      </trkpt>
      <trkpt lat="42.71507" lon="1.44839">
        <ele>1058.4</ele>
        <time>2020-08-05T12:23:41Z</time>
      </trkpt>
      <trkpt lat="42.71498" lon="1.44842">
        <ele>1057.6</ele>
        <time>2020-08-05T12:23:42Z</time>
      </trkpt>
      <trkpt lat="42.71481" lon="1.44848">
        <ele>1055.4</ele>
        <time>2020-08-05T12:23:44Z</time>
      </trkpt>
      <trkpt lat="42.71473" lon="1.44853">
        <ele>1054.4</ele>
        <time>2020-08-05T12:23:45Z</time>
      </trkpt>
      <trkpt lat="42.7146" lon="1.44864">
        <ele>1053.2</ele>
        <time>2020-08-05T12:23:47Z</time>
      </trkpt>
      <trkpt lat="42.71449" lon="1.44876">
        <ele>1052.4</ele>
        <time>2020-08-05T12:23:49Z</time>
      </trkpt>
      <trkpt lat="42.71445" lon="1.44881">
        <ele>1051.6</ele>
        <time>2020-08-05T12:23:50Z</time>
      </trkpt>
      <trkpt lat="42.7144" lon="1.44886">
        <ele>1051.4</ele>
        <time>2020-08-05T12:23:51Z</time>
      </trkpt>
      <trkpt lat="42.7143" lon="1.44895">
        <ele>1050.8</ele>
        <time>2020-08-05T12:23:53Z</time>
      </trkpt>
      <trkpt lat="42.71417" lon="1.44913">
        <ele>1051.8</ele>
        <time>2020-08-05T12:23:57Z</time>
      </trkpt>
      <trkpt lat="42.71415" lon="1.44916">
        <ele>1052</ele>
        <time>2020-08-05T12:23:58Z</time>
      </trkpt>
      <trkpt lat="42.71409" lon="1.44922">
        <ele>1052.8</ele>
        <time>2020-08-05T12:24:01Z</time>
      </trkpt>
      <trkpt lat="42.71407" lon="1.44925">
        <ele>1053.2</ele>
        <time>2020-08-05T12:24:02Z</time>
      </trkpt>
      <trkpt lat="42.714" lon="1.44934">
        <ele>1054.2</ele>
        <time>2020-08-05T12:24:06Z</time>
      </trkpt>
      <trkpt lat="42.71394" lon="1.44939">
        <ele>1055.2</ele>
        <time>2020-08-05T12:24:09Z</time>
      </trkpt>
      <trkpt lat="42.71393" lon="1.4494">
        <ele>1055.6</ele>
        <time>2020-08-05T12:24:10Z</time>
      </trkpt>
      <trkpt lat="42.71385" lon="1.44946">
        <ele>1056.8</ele>
        <time>2020-08-05T12:24:15Z</time>
      </trkpt>
      <trkpt lat="42.71375" lon="1.4495">
        <ele>1057.8</ele>
        <time>2020-08-05T12:24:20Z</time>
      </trkpt>
      <trkpt lat="42.71373" lon="1.4495">
        <ele>1058</ele>
        <time>2020-08-05T12:24:21Z</time>
      </trkpt>
      <trkpt lat="42.71358" lon="1.44955">
        <ele>1058.2</ele>
        <time>2020-08-05T12:24:27Z</time>
      </trkpt>
      <trkpt lat="42.7134" lon="1.44966">
        <ele>1058.2</ele>
        <time>2020-08-05T12:24:33Z</time>
      </trkpt>
      <trkpt lat="42.71317" lon="1.4498">
        <ele>1057.8</ele>
        <time>2020-08-05T12:24:40Z</time>
      </trkpt>
      <trkpt lat="42.7129" lon="1.45002">
        <ele>1058.2</ele>
        <time>2020-08-05T12:24:48Z</time>
      </trkpt>
      <trkpt lat="42.71275" lon="1.45013">
        <ele>1059</ele>
        <time>2020-08-05T12:24:53Z</time>
      </trkpt>
      <trkpt lat="42.71269" lon="1.45016">
        <ele>1059.2</ele>
        <time>2020-08-05T12:24:55Z</time>
      </trkpt>
      <trkpt lat="42.71259" lon="1.45023">
        <ele>1060</ele>
        <time>2020-08-05T12:24:59Z</time>
      </trkpt>
      <trkpt lat="42.71251" lon="1.45027">
        <ele>1061</ele>
        <time>2020-08-05T12:25:02Z</time>
      </trkpt>
      <trkpt lat="42.71249" lon="1.45029">
        <ele>1061.2</ele>
        <time>2020-08-05T12:25:03Z</time>
      </trkpt>
      <trkpt lat="42.71239" lon="1.45035">
        <ele>1062</ele>
        <time>2020-08-05T12:25:08Z</time>
      </trkpt>
      <trkpt lat="42.71237" lon="1.45037">
        <ele>1062.2</ele>
        <time>2020-08-05T12:25:09Z</time>
      </trkpt>
      <trkpt lat="42.71229" lon="1.45044">
        <ele>1062.8</ele>
        <time>2020-08-05T12:25:13Z</time>
      </trkpt>
      <trkpt lat="42.71225" lon="1.45047">
        <ele>1063.4</ele>
        <time>2020-08-05T12:25:15Z</time>
      </trkpt>
      <trkpt lat="42.71215" lon="1.45055">
        <ele>1064.2</ele>
        <time>2020-08-05T12:25:20Z</time>
      </trkpt>
      <trkpt lat="42.71214" lon="1.45057">
        <ele>1064.4</ele>
        <time>2020-08-05T12:25:21Z</time>
      </trkpt>
      <trkpt lat="42.71209" lon="1.45067">
        <ele>1065.2</ele>
        <time>2020-08-05T12:25:26Z</time>
      </trkpt>
      <trkpt lat="42.71211" lon="1.45079">
        <ele>1064</ele>
        <time>2020-08-05T12:25:29Z</time>
      </trkpt>
      <trkpt lat="42.71211" lon="1.45084">
        <ele>1063.2</ele>
        <time>2020-08-05T12:25:30Z</time>
      </trkpt>
      <trkpt lat="42.71213" lon="1.45091">
        <ele>1062.8</ele>
        <time>2020-08-05T12:25:32Z</time>
      </trkpt>
      <trkpt lat="42.71214" lon="1.45094">
        <ele>1062.8</ele>
        <time>2020-08-05T12:25:33Z</time>
      </trkpt>
      <trkpt lat="42.71218" lon="1.45108">
        <ele>1063.4</ele>
        <time>2020-08-05T12:25:38Z</time>
      </trkpt>
      <trkpt lat="42.71223" lon="1.45117">
        <ele>1064.4</ele>
        <time>2020-08-05T12:25:43Z</time>
      </trkpt>
      <trkpt lat="42.71223" lon="1.45118">
        <ele>1064.8</ele>
        <time>2020-08-05T12:25:44Z</time>
      </trkpt>
      <trkpt lat="42.71218" lon="1.45126">
        <ele>1065.2</ele>
        <time>2020-08-05T12:25:49Z</time>
      </trkpt>
      <trkpt lat="42.71217" lon="1.45127">
        <ele>1065.4</ele>
        <time>2020-08-05T12:25:50Z</time>
      </trkpt>
      <trkpt lat="42.71214" lon="1.45131">
        <ele>1065.6</ele>
        <time>2020-08-05T12:25:52Z</time>
      </trkpt>
      <trkpt lat="42.71211" lon="1.45135">
        <ele>1065.6</ele>
        <time>2020-08-05T12:25:54Z</time>
      </trkpt>
      <trkpt lat="42.71197" lon="1.45149">
        <ele>1066.4</ele>
        <time>2020-08-05T12:26:02Z</time>
      </trkpt>
      <trkpt lat="42.71186" lon="1.45155">
        <ele>1067.2</ele>
        <time>2020-08-05T12:26:09Z</time>
      </trkpt>
      <trkpt lat="42.71181" lon="1.45158">
        <ele>1067.6</ele>
        <time>2020-08-05T12:26:12Z</time>
      </trkpt>
      <trkpt lat="42.71176" lon="1.4516">
        <ele>1068.2</ele>
        <time>2020-08-05T12:26:15Z</time>
      </trkpt>
      <trkpt lat="42.71172" lon="1.45164">
        <ele>1068.8</ele>
        <time>2020-08-05T12:26:18Z</time>
      </trkpt>
      <trkpt lat="42.71165" lon="1.45167">
        <ele>1069.8</ele>
        <time>2020-08-05T12:26:23Z</time>
      </trkpt>
      <trkpt lat="42.71163" lon="1.45168">
        <ele>1070</ele>
        <time>2020-08-05T12:26:24Z</time>
      </trkpt>
      <trkpt lat="42.71162" lon="1.45174">
        <ele>1070.4</ele>
        <time>2020-08-05T12:26:30Z</time>
      </trkpt>
      <trkpt lat="42.71169" lon="1.45176">
        <ele>1070.8</ele>
        <time>2020-08-05T12:26:35Z</time>
      </trkpt>
      <trkpt lat="42.71171" lon="1.45175">
        <ele>1071</ele>
        <time>2020-08-05T12:26:37Z</time>
      </trkpt>
      <trkpt lat="42.7117" lon="1.45175">
        <ele>1071</ele>
        <time>2020-08-05T12:26:38Z</time>
      </trkpt>
      <trkpt lat="42.71169" lon="1.45174">
        <ele>1071</ele>
        <time>2020-08-05T12:26:39Z</time>
      </trkpt>
      <trkpt lat="42.7116" lon="1.45169">
        <ele>1070.4</ele>
        <time>2020-08-05T12:26:43Z</time>
      </trkpt>
      <trkpt lat="42.7115" lon="1.45167">
        <ele>1070.8</ele>
        <time>2020-08-05T12:26:47Z</time>
      </trkpt>
      <trkpt lat="42.71149" lon="1.45168">
        <ele>1070.8</ele>
        <time>2020-08-05T12:26:48Z</time>
      </trkpt>
      <trkpt lat="42.71147" lon="1.4517">
        <ele>1071</ele>
        <time>2020-08-05T12:26:51Z</time>
      </trkpt>
      <trkpt lat="42.71141" lon="1.45171">
        <ele>1071.4</ele>
        <time>2020-08-05T12:26:56Z</time>
      </trkpt>
      <trkpt lat="42.71135" lon="1.45171">
        <ele>1072</ele>
        <time>2020-08-05T12:27:00Z</time>
      </trkpt>
      <trkpt lat="42.71132" lon="1.45172">
        <ele>1072.8</ele>
        <time>2020-08-05T12:27:02Z</time>
      </trkpt>
      <trkpt lat="42.7113" lon="1.45172">
        <ele>1073</ele>
        <time>2020-08-05T12:27:03Z</time>
      </trkpt>
      <trkpt lat="42.71121" lon="1.45171">
        <ele>1074.2</ele>
        <time>2020-08-05T12:27:09Z</time>
      </trkpt>
      <trkpt lat="42.71119" lon="1.45172">
        <ele>1074.6</ele>
        <time>2020-08-05T12:27:11Z</time>
      </trkpt>
      <trkpt lat="42.71116" lon="1.45172">
        <ele>1075</ele>
        <time>2020-08-05T12:27:13Z</time>
      </trkpt>
      <trkpt lat="42.71114" lon="1.45172">
        <ele>1075.4</ele>
        <time>2020-08-05T12:27:15Z</time>
      </trkpt>
      <trkpt lat="42.7111" lon="1.45171">
        <ele>1075.8</ele>
        <time>2020-08-05T12:27:17Z</time>
      </trkpt>
      <trkpt lat="42.71105" lon="1.4517">
        <ele>1076.6</ele>
        <time>2020-08-05T12:27:21Z</time>
      </trkpt>
      <trkpt lat="42.711" lon="1.4517">
        <ele>1077</ele>
        <time>2020-08-05T12:27:24Z</time>
      </trkpt>
      <trkpt lat="42.71098" lon="1.45171">
        <ele>1077.8</ele>
        <time>2020-08-05T12:27:26Z</time>
      </trkpt>
      <trkpt lat="42.71094" lon="1.45172">
        <ele>1078.2</ele>
        <time>2020-08-05T12:27:31Z</time>
      </trkpt>
      <trkpt lat="42.7109" lon="1.45173">
        <ele>1078.6</ele>
        <time>2020-08-05T12:27:35Z</time>
      </trkpt>
      <trkpt lat="42.7109" lon="1.45173">
        <ele>1078.6</ele>
        <time>2020-08-05T12:27:36Z</time>
      </trkpt>
      <trkpt lat="42.71086" lon="1.45174">
        <ele>1078</ele>
        <time>2020-08-05T12:27:39Z</time>
      </trkpt>
      <trkpt lat="42.71079" lon="1.45177">
        <ele>1078.2</ele>
        <time>2020-08-05T12:27:42Z</time>
      </trkpt>
      <trkpt lat="42.71077" lon="1.45178">
        <ele>1078.2</ele>
        <time>2020-08-05T12:27:43Z</time>
      </trkpt>
      <trkpt lat="42.71066" lon="1.45179">
        <ele>1078.4</ele>
        <time>2020-08-05T12:27:48Z</time>
      </trkpt>
      <trkpt lat="42.71061" lon="1.45178">
        <ele>1078.8</ele>
        <time>2020-08-05T12:27:50Z</time>
      </trkpt>
      <trkpt lat="42.71055" lon="1.45179">
        <ele>1079.2</ele>
        <time>2020-08-05T12:27:53Z</time>
      </trkpt>
      <trkpt lat="42.71046" lon="1.45178">
        <ele>1079.6</ele>
        <time>2020-08-05T12:27:58Z</time>
      </trkpt>
      <trkpt lat="42.71033" lon="1.45172">
        <ele>1079.8</ele>
        <time>2020-08-05T12:28:04Z</time>
      </trkpt>
      <trkpt lat="42.71031" lon="1.45172">
        <ele>1080</ele>
        <time>2020-08-05T12:28:05Z</time>
      </trkpt>
      <trkpt lat="42.71025" lon="1.45169">
        <ele>1080.4</ele>
        <time>2020-08-05T12:28:10Z</time>
      </trkpt>
      <trkpt lat="42.71014" lon="1.45165">
        <ele>1080.2</ele>
        <time>2020-08-05T12:28:16Z</time>
      </trkpt>
      <trkpt lat="42.71005" lon="1.45162">
        <ele>1080.4</ele>
        <time>2020-08-05T12:28:21Z</time>
      </trkpt>
      <trkpt lat="42.70995" lon="1.45161">
        <ele>1080.2</ele>
        <time>2020-08-05T12:28:27Z</time>
      </trkpt>
      <trkpt lat="42.70993" lon="1.4516">
        <ele>1080.2</ele>
        <time>2020-08-05T12:28:35Z</time>
      </trkpt>
      <trkpt lat="42.70983" lon="1.45158">
        <ele>1080.6</ele>
        <time>2020-08-05T12:28:40Z</time>
      </trkpt>
      <trkpt lat="42.70982" lon="1.45158">
        <ele>1080.8</ele>
        <time>2020-08-05T12:28:41Z</time>
      </trkpt>
      <trkpt lat="42.70982" lon="1.45158">
        <ele>1081</ele>
        <time>2020-08-05T12:28:42Z</time>
      </trkpt>
      <trkpt lat="42.70974" lon="1.4516">
        <ele>1082</ele>
        <time>2020-08-05T12:28:47Z</time>
      </trkpt>
      <trkpt lat="42.70972" lon="1.4516">
        <ele>1082.2</ele>
        <time>2020-08-05T12:28:48Z</time>
      </trkpt>
      <trkpt lat="42.70959" lon="1.45154">
        <ele>1082.6</ele>
        <time>2020-08-05T12:28:53Z</time>
      </trkpt>
      <trkpt lat="42.70943" lon="1.45151">
        <ele>1082.6</ele>
        <time>2020-08-05T12:28:59Z</time>
      </trkpt>
      <trkpt lat="42.70925" lon="1.45147">
        <ele>1083</ele>
        <time>2020-08-05T12:29:05Z</time>
      </trkpt>
      <trkpt lat="42.70909" lon="1.45142">
        <ele>1083.4</ele>
        <time>2020-08-05T12:29:10Z</time>
      </trkpt>
      <trkpt lat="42.70907" lon="1.45142">
        <ele>1083.4</ele>
        <time>2020-08-05T12:29:11Z</time>
      </trkpt>
      <trkpt lat="42.7089" lon="1.4514">
        <ele>1084.2</ele>
        <time>2020-08-05T12:29:17Z</time>
      </trkpt>
      <trkpt lat="42.70882" lon="1.45136">
        <ele>1084.6</ele>
        <time>2020-08-05T12:29:20Z</time>
      </trkpt>
      <trkpt lat="42.70877" lon="1.45134">
        <ele>1084.8</ele>
        <time>2020-08-05T12:29:22Z</time>
      </trkpt>
      <trkpt lat="42.70865" lon="1.45129">
        <ele>1085.4</ele>
        <time>2020-08-05T12:29:28Z</time>
      </trkpt>
      <trkpt lat="42.7086" lon="1.45125">
        <ele>1085.6</ele>
        <time>2020-08-05T12:29:31Z</time>
      </trkpt>
      <trkpt lat="42.70858" lon="1.45125">
        <ele>1085.6</ele>
        <time>2020-08-05T12:29:32Z</time>
      </trkpt>
      <trkpt lat="42.70855" lon="1.45124">
        <ele>1086</ele>
        <time>2020-08-05T12:29:34Z</time>
      </trkpt>
      <trkpt lat="42.7085" lon="1.45123">
        <ele>1086.8</ele>
        <time>2020-08-05T12:29:37Z</time>
      </trkpt>
      <trkpt lat="42.70849" lon="1.45123">
        <ele>1086.8</ele>
        <time>2020-08-05T12:29:38Z</time>
      </trkpt>
      <trkpt lat="42.70846" lon="1.45122">
        <ele>1087.4</ele>
        <time>2020-08-05T12:29:40Z</time>
      </trkpt>
      <trkpt lat="42.70844" lon="1.45121">
        <ele>1087.8</ele>
        <time>2020-08-05T12:29:42Z</time>
      </trkpt>
      <trkpt lat="42.70841" lon="1.45119">
        <ele>1087.8</ele>
        <time>2020-08-05T12:29:44Z</time>
      </trkpt>
      <trkpt lat="42.7084" lon="1.45118">
        <ele>1088</ele>
        <time>2020-08-05T12:29:45Z</time>
      </trkpt>
      <trkpt lat="42.70835" lon="1.45116">
        <ele>1088.4</ele>
        <time>2020-08-05T12:29:48Z</time>
      </trkpt>
      <trkpt lat="42.70832" lon="1.45115">
        <ele>1089</ele>
        <time>2020-08-05T12:29:50Z</time>
      </trkpt>
      <trkpt lat="42.70831" lon="1.45114">
        <ele>1089.2</ele>
        <time>2020-08-05T12:29:51Z</time>
      </trkpt>
      <trkpt lat="42.70827" lon="1.45113">
        <ele>1090</ele>
        <time>2020-08-05T12:29:54Z</time>
      </trkpt>
      <trkpt lat="42.70825" lon="1.45112">
        <ele>1090.2</ele>
        <time>2020-08-05T12:29:55Z</time>
      </trkpt>
      <trkpt lat="42.70824" lon="1.45112">
        <ele>1090.4</ele>
        <time>2020-08-05T12:29:56Z</time>
      </trkpt>
      <trkpt lat="42.70818" lon="1.45108">
        <ele>1091.2</ele>
        <time>2020-08-05T12:30:00Z</time>
      </trkpt>
      <trkpt lat="42.70817" lon="1.45107">
        <ele>1091.4</ele>
        <time>2020-08-05T12:30:01Z</time>
      </trkpt>
      <trkpt lat="42.70814" lon="1.45107">
        <ele>1091.6</ele>
        <time>2020-08-05T12:30:03Z</time>
      </trkpt>
      <trkpt lat="42.70804" lon="1.45101">
        <ele>1092.2</ele>
        <time>2020-08-05T12:30:09Z</time>
      </trkpt>
      <trkpt lat="42.70802" lon="1.45099">
        <ele>1092.4</ele>
        <time>2020-08-05T12:30:10Z</time>
      </trkpt>
      <trkpt lat="42.70793" lon="1.45091">
        <ele>1093.4</ele>
        <time>2020-08-05T12:30:16Z</time>
      </trkpt>
      <trkpt lat="42.70791" lon="1.4509">
        <ele>1093.6</ele>
        <time>2020-08-05T12:30:17Z</time>
      </trkpt>
      <trkpt lat="42.70787" lon="1.45088">
        <ele>1093.8</ele>
        <time>2020-08-05T12:30:20Z</time>
      </trkpt>
      <trkpt lat="42.7078" lon="1.45086">
        <ele>1094.2</ele>
        <time>2020-08-05T12:30:24Z</time>
      </trkpt>
      <trkpt lat="42.70777" lon="1.45086">
        <ele>1094.4</ele>
        <time>2020-08-05T12:30:26Z</time>
      </trkpt>
      <trkpt lat="42.70768" lon="1.45081">
        <ele>1095.4</ele>
        <time>2020-08-05T12:30:31Z</time>
      </trkpt>
      <trkpt lat="42.70765" lon="1.4508">
        <ele>1095.6</ele>
        <time>2020-08-05T12:30:33Z</time>
      </trkpt>
      <trkpt lat="42.7076" lon="1.45078">
        <ele>1096.2</ele>
        <time>2020-08-05T12:30:36Z</time>
      </trkpt>
      <trkpt lat="42.70758" lon="1.45076">
        <ele>1096.4</ele>
        <time>2020-08-05T12:30:37Z</time>
      </trkpt>
      <trkpt lat="42.70757" lon="1.45075">
        <ele>1096.8</ele>
        <time>2020-08-05T12:30:38Z</time>
      </trkpt>
      <trkpt lat="42.70749" lon="1.45067">
        <ele>1097.8</ele>
        <time>2020-08-05T12:30:44Z</time>
      </trkpt>
      <trkpt lat="42.70747" lon="1.45065">
        <ele>1097.8</ele>
        <time>2020-08-05T12:30:45Z</time>
      </trkpt>
      <trkpt lat="42.7074" lon="1.4506">
        <ele>1098.8</ele>
        <time>2020-08-05T12:30:50Z</time>
      </trkpt>
      <trkpt lat="42.70738" lon="1.45057">
        <ele>1099</ele>
        <time>2020-08-05T12:30:52Z</time>
      </trkpt>
      <trkpt lat="42.70731" lon="1.4505">
        <ele>1099.6</ele>
        <time>2020-08-05T12:30:56Z</time>
      </trkpt>
      <trkpt lat="42.70723" lon="1.45043">
        <ele>1100</ele>
        <time>2020-08-05T12:31:00Z</time>
      </trkpt>
      <trkpt lat="42.70713" lon="1.45033">
        <ele>1101</ele>
        <time>2020-08-05T12:31:05Z</time>
      </trkpt>
      <trkpt lat="42.707" lon="1.45028">
        <ele>1102.2</ele>
        <time>2020-08-05T12:31:11Z</time>
      </trkpt>
      <trkpt lat="42.70698" lon="1.45029">
        <ele>1102.6</ele>
        <time>2020-08-05T12:31:12Z</time>
      </trkpt>
      <trkpt lat="42.70691" lon="1.45032">
        <ele>1103.4</ele>
        <time>2020-08-05T12:31:16Z</time>
      </trkpt>
      <trkpt lat="42.70685" lon="1.45035">
        <ele>1104</ele>
        <time>2020-08-05T12:31:19Z</time>
      </trkpt>
      <trkpt lat="42.70682" lon="1.45037">
        <ele>1104.6</ele>
        <time>2020-08-05T12:31:21Z</time>
      </trkpt>
      <trkpt lat="42.70674" lon="1.45042">
        <ele>1105.6</ele>
        <time>2020-08-05T12:31:26Z</time>
      </trkpt>
      <trkpt lat="42.70672" lon="1.45043">
        <ele>1105.8</ele>
        <time>2020-08-05T12:31:27Z</time>
      </trkpt>
      <trkpt lat="42.70662" lon="1.45048">
        <ele>1106.6</ele>
        <time>2020-08-05T12:31:33Z</time>
      </trkpt>
      <trkpt lat="42.70658" lon="1.45052">
        <ele>1107.2</ele>
        <time>2020-08-05T12:31:36Z</time>
      </trkpt>
      <trkpt lat="42.70654" lon="1.45054">
        <ele>1107.6</ele>
        <time>2020-08-05T12:31:38Z</time>
      </trkpt>
      <trkpt lat="42.70646" lon="1.45058">
        <ele>1108.4</ele>
        <time>2020-08-05T12:31:43Z</time>
      </trkpt>
      <trkpt lat="42.70643" lon="1.45061">
        <ele>1108.6</ele>
        <time>2020-08-05T12:31:45Z</time>
      </trkpt>
      <trkpt lat="42.70635" lon="1.45068">
        <ele>1109.6</ele>
        <time>2020-08-05T12:31:51Z</time>
      </trkpt>
      <trkpt lat="42.70631" lon="1.45071">
        <ele>1109.8</ele>
        <time>2020-08-05T12:31:53Z</time>
      </trkpt>
      <trkpt lat="42.70622" lon="1.45076">
        <ele>1110.4</ele>
        <time>2020-08-05T12:31:58Z</time>
      </trkpt>
      <trkpt lat="42.70618" lon="1.45079">
        <ele>1111</ele>
        <time>2020-08-05T12:32:01Z</time>
      </trkpt>
      <trkpt lat="42.70609" lon="1.45078">
        <ele>1111.8</ele>
        <time>2020-08-05T12:32:05Z</time>
      </trkpt>
      <trkpt lat="42.70607" lon="1.45077">
        <ele>1112</ele>
        <time>2020-08-05T12:32:06Z</time>
      </trkpt>
      <trkpt lat="42.70597" lon="1.45069">
        <ele>1113.2</ele>
        <time>2020-08-05T12:32:13Z</time>
      </trkpt>
      <trkpt lat="42.70589" lon="1.45062">
        <ele>1114.2</ele>
        <time>2020-08-05T12:32:19Z</time>
      </trkpt>
      <trkpt lat="42.70587" lon="1.45062">
        <ele>1114.4</ele>
        <time>2020-08-05T12:32:20Z</time>
      </trkpt>
      <trkpt lat="42.70581" lon="1.45056">
        <ele>1115.4</ele>
        <time>2020-08-05T12:32:25Z</time>
      </trkpt>
      <trkpt lat="42.70579" lon="1.45054">
        <ele>1115.6</ele>
        <time>2020-08-05T12:32:27Z</time>
      </trkpt>
      <trkpt lat="42.70571" lon="1.45046">
        <ele>1116.4</ele>
        <time>2020-08-05T12:32:33Z</time>
      </trkpt>
      <trkpt lat="42.70565" lon="1.4504">
        <ele>1117.4</ele>
        <time>2020-08-05T12:32:38Z</time>
      </trkpt>
      <trkpt lat="42.70562" lon="1.45038">
        <ele>1117.8</ele>
        <time>2020-08-05T12:32:40Z</time>
      </trkpt>
      <trkpt lat="42.70558" lon="1.45034">
        <ele>1118.6</ele>
        <time>2020-08-05T12:32:44Z</time>
      </trkpt>
      <trkpt lat="42.70556" lon="1.45032">
        <ele>1119</ele>
        <time>2020-08-05T12:32:46Z</time>
      </trkpt>
      <trkpt lat="42.70555" lon="1.4503">
        <ele>1119.2</ele>
        <time>2020-08-05T12:32:47Z</time>
      </trkpt>
      <trkpt lat="42.7055" lon="1.45027">
        <ele>1119.8</ele>
        <time>2020-08-05T12:32:50Z</time>
      </trkpt>
      <trkpt lat="42.70543" lon="1.45023">
        <ele>1120.6</ele>
        <time>2020-08-05T12:32:55Z</time>
      </trkpt>
      <trkpt lat="42.70542" lon="1.45022">
        <ele>1120.8</ele>
        <time>2020-08-05T12:32:56Z</time>
      </trkpt>
      <trkpt lat="42.7054" lon="1.45019">
        <ele>1121.2</ele>
        <time>2020-08-05T12:32:58Z</time>
      </trkpt>
      <trkpt lat="42.70536" lon="1.45016">
        <ele>1121.8</ele>
        <time>2020-08-05T12:33:01Z</time>
      </trkpt>
      <trkpt lat="42.70529" lon="1.45011">
        <ele>1123</ele>
        <time>2020-08-05T12:33:06Z</time>
      </trkpt>
      <trkpt lat="42.70528" lon="1.4501">
        <ele>1123.2</ele>
        <time>2020-08-05T12:33:07Z</time>
      </trkpt>
      <trkpt lat="42.70525" lon="1.45007">
        <ele>1123.6</ele>
        <time>2020-08-05T12:33:09Z</time>
      </trkpt>
      <trkpt lat="42.70522" lon="1.45004">
        <ele>1124</ele>
        <time>2020-08-05T12:33:12Z</time>
      </trkpt>
      <trkpt lat="42.70516" lon="1.45">
        <ele>1124.6</ele>
        <time>2020-08-05T12:33:16Z</time>
      </trkpt>
      <trkpt lat="42.70514" lon="1.44997">
        <ele>1125.2</ele>
        <time>2020-08-05T12:33:18Z</time>
      </trkpt>
      <trkpt lat="42.70513" lon="1.44996">
        <ele>1125.4</ele>
        <time>2020-08-05T12:33:19Z</time>
      </trkpt>
      <trkpt lat="42.70507" lon="1.44991">
        <ele>1126.2</ele>
        <time>2020-08-05T12:33:23Z</time>
      </trkpt>
      <trkpt lat="42.70505" lon="1.4499">
        <ele>1126.4</ele>
        <time>2020-08-05T12:33:24Z</time>
      </trkpt>
      <trkpt lat="42.70501" lon="1.44987">
        <ele>1127.2</ele>
        <time>2020-08-05T12:33:27Z</time>
      </trkpt>
      <trkpt lat="42.70495" lon="1.44984">
        <ele>1128.2</ele>
        <time>2020-08-05T12:33:32Z</time>
      </trkpt>
      <trkpt lat="42.70486" lon="1.44983">
        <ele>1129.4</ele>
        <time>2020-08-05T12:33:38Z</time>
      </trkpt>
      <trkpt lat="42.70485" lon="1.44983">
        <ele>1129.4</ele>
        <time>2020-08-05T12:33:39Z</time>
      </trkpt>
      <trkpt lat="42.70476" lon="1.44982">
        <ele>1130.4</ele>
        <time>2020-08-05T12:33:45Z</time>
      </trkpt>
      <trkpt lat="42.70474" lon="1.44981">
        <ele>1130.6</ele>
        <time>2020-08-05T12:33:46Z</time>
      </trkpt>
      <trkpt lat="42.70468" lon="1.44981">
        <ele>1131.4</ele>
        <time>2020-08-05T12:33:50Z</time>
      </trkpt>
      <trkpt lat="42.70467" lon="1.4498">
        <ele>1131.6</ele>
        <time>2020-08-05T12:33:51Z</time>
      </trkpt>
      <trkpt lat="42.70463" lon="1.4498">
        <ele>1132</ele>
        <time>2020-08-05T12:33:53Z</time>
      </trkpt>
      <trkpt lat="42.7046" lon="1.44979">
        <ele>1132.6</ele>
        <time>2020-08-05T12:33:55Z</time>
      </trkpt>
      <trkpt lat="42.70453" lon="1.44978">
        <ele>1133.4</ele>
        <time>2020-08-05T12:34:00Z</time>
      </trkpt>
      <trkpt lat="42.7045" lon="1.44976">
        <ele>1133.8</ele>
        <time>2020-08-05T12:34:02Z</time>
      </trkpt>
      <trkpt lat="42.70446" lon="1.44975">
        <ele>1134.4</ele>
        <time>2020-08-05T12:34:05Z</time>
      </trkpt>
      <trkpt lat="42.70443" lon="1.44974">
        <ele>1134.6</ele>
        <time>2020-08-05T12:34:07Z</time>
      </trkpt>
      <trkpt lat="42.70441" lon="1.44973">
        <ele>1134.8</ele>
        <time>2020-08-05T12:34:08Z</time>
      </trkpt>
      <trkpt lat="42.70435" lon="1.44969">
        <ele>1135.8</ele>
        <time>2020-08-05T12:34:13Z</time>
      </trkpt>
      <trkpt lat="42.70433" lon="1.44969">
        <ele>1136.2</ele>
        <time>2020-08-05T12:34:14Z</time>
      </trkpt>
      <trkpt lat="42.70429" lon="1.44966">
        <ele>1137</ele>
        <time>2020-08-05T12:34:18Z</time>
      </trkpt>
      <trkpt lat="42.70424" lon="1.44964">
        <ele>1137.8</ele>
        <time>2020-08-05T12:34:22Z</time>
      </trkpt>
      <trkpt lat="42.70421" lon="1.44963">
        <ele>1138</ele>
        <time>2020-08-05T12:34:24Z</time>
      </trkpt>
      <trkpt lat="42.70417" lon="1.44963">
        <ele>1138.8</ele>
        <time>2020-08-05T12:34:27Z</time>
      </trkpt>
      <trkpt lat="42.70415" lon="1.44962">
        <ele>1139.2</ele>
        <time>2020-08-05T12:34:29Z</time>
      </trkpt>
      <trkpt lat="42.70413" lon="1.44962">
        <ele>1139.2</ele>
        <time>2020-08-05T12:34:30Z</time>
      </trkpt>
      <trkpt lat="42.70407" lon="1.44959">
        <ele>1140.2</ele>
        <time>2020-08-05T12:34:35Z</time>
      </trkpt>
      <trkpt lat="42.70403" lon="1.44958">
        <ele>1141</ele>
        <time>2020-08-05T12:34:38Z</time>
      </trkpt>
      <trkpt lat="42.70401" lon="1.44958">
        <ele>1141.2</ele>
        <time>2020-08-05T12:34:40Z</time>
      </trkpt>
      <trkpt lat="42.70398" lon="1.44958">
        <ele>1141.6</ele>
        <time>2020-08-05T12:34:42Z</time>
      </trkpt>
      <trkpt lat="42.70395" lon="1.44959">
        <ele>1142</ele>
        <time>2020-08-05T12:34:44Z</time>
      </trkpt>
      <trkpt lat="42.70393" lon="1.44959">
        <ele>1142.2</ele>
        <time>2020-08-05T12:34:46Z</time>
      </trkpt>
      <trkpt lat="42.7039" lon="1.4496">
        <ele>1142.4</ele>
        <time>2020-08-05T12:34:48Z</time>
      </trkpt>
      <trkpt lat="42.70384" lon="1.44959">
        <ele>1143</ele>
        <time>2020-08-05T12:34:52Z</time>
      </trkpt>
      <trkpt lat="42.70379" lon="1.44959">
        <ele>1143.6</ele>
        <time>2020-08-05T12:34:55Z</time>
      </trkpt>
      <trkpt lat="42.70374" lon="1.44958">
        <ele>1144</ele>
        <time>2020-08-05T12:34:58Z</time>
      </trkpt>
      <trkpt lat="42.70369" lon="1.44956">
        <ele>1144.8</ele>
        <time>2020-08-05T12:35:02Z</time>
      </trkpt>
      <trkpt lat="42.70361" lon="1.44953">
        <ele>1145.4</ele>
        <time>2020-08-05T12:35:07Z</time>
      </trkpt>
      <trkpt lat="42.70354" lon="1.4495">
        <ele>1145.8</ele>
        <time>2020-08-05T12:35:11Z</time>
      </trkpt>
      <trkpt lat="42.7035" lon="1.44949">
        <ele>1146.2</ele>
        <time>2020-08-05T12:35:14Z</time>
      </trkpt>
      <trkpt lat="42.7034" lon="1.44945">
        <ele>1147</ele>
        <time>2020-08-05T12:35:20Z</time>
      </trkpt>
      <trkpt lat="42.7033" lon="1.44944">
        <ele>1148</ele>
        <time>2020-08-05T12:35:26Z</time>
      </trkpt>
      <trkpt lat="42.70316" lon="1.44941">
        <ele>1149</ele>
        <time>2020-08-05T12:35:34Z</time>
      </trkpt>
      <trkpt lat="42.70312" lon="1.44939">
        <ele>1149</ele>
        <time>2020-08-05T12:35:36Z</time>
      </trkpt>
      <trkpt lat="42.70306" lon="1.44934">
        <ele>1149.6</ele>
        <time>2020-08-05T12:35:40Z</time>
      </trkpt>
      <trkpt lat="42.70299" lon="1.44931">
        <ele>1150</ele>
        <time>2020-08-05T12:35:43Z</time>
      </trkpt>
      <trkpt lat="42.70292" lon="1.44928">
        <ele>1151</ele>
        <time>2020-08-05T12:35:47Z</time>
      </trkpt>
      <trkpt lat="42.7029" lon="1.44927">
        <ele>1151</ele>
        <time>2020-08-05T12:35:48Z</time>
      </trkpt>
      <trkpt lat="42.70288" lon="1.44925">
        <ele>1151.2</ele>
        <time>2020-08-05T12:35:49Z</time>
      </trkpt>
      <trkpt lat="42.70281" lon="1.44921">
        <ele>1152.2</ele>
        <time>2020-08-05T12:35:53Z</time>
      </trkpt>
      <trkpt lat="42.70277" lon="1.44919">
        <ele>1152.6</ele>
        <time>2020-08-05T12:35:55Z</time>
      </trkpt>
      <trkpt lat="42.70264" lon="1.44912">
        <ele>1153.2</ele>
        <time>2020-08-05T12:36:02Z</time>
      </trkpt>
      <trkpt lat="42.70261" lon="1.44911">
        <ele>1153.2</ele>
        <time>2020-08-05T12:36:03Z</time>
      </trkpt>
      <trkpt lat="42.7024" lon="1.44908">
        <ele>1153</ele>
        <time>2020-08-05T12:36:10Z</time>
      </trkpt>
      <trkpt lat="42.70218" lon="1.44902">
        <ele>1153.2</ele>
        <time>2020-08-05T12:36:16Z</time>
      </trkpt>
      <trkpt lat="42.70198" lon="1.44889">
        <ele>1153</ele>
        <time>2020-08-05T12:36:22Z</time>
      </trkpt>
      <trkpt lat="42.70175" lon="1.4488">
        <ele>1152.4</ele>
        <time>2020-08-05T12:36:27Z</time>
      </trkpt>
      <trkpt lat="42.7017" lon="1.44878">
        <ele>1152.4</ele>
        <time>2020-08-05T12:36:28Z</time>
      </trkpt>
      <trkpt lat="42.70165" lon="1.44877">
        <ele>1152.2</ele>
        <time>2020-08-05T12:36:29Z</time>
      </trkpt>
      <trkpt lat="42.70154" lon="1.44877">
        <ele>1151.6</ele>
        <time>2020-08-05T12:36:31Z</time>
      </trkpt>
      <trkpt lat="42.70148" lon="1.44878">
        <ele>1151.2</ele>
        <time>2020-08-05T12:36:32Z</time>
      </trkpt>
      <trkpt lat="42.70142" lon="1.4488">
        <ele>1151</ele>
        <time>2020-08-05T12:36:33Z</time>
      </trkpt>
      <trkpt lat="42.70123" lon="1.44889">
        <ele>1149.8</ele>
        <time>2020-08-05T12:36:36Z</time>
      </trkpt>
      <trkpt lat="42.70116" lon="1.44891">
        <ele>1149.4</ele>
        <time>2020-08-05T12:36:37Z</time>
      </trkpt>
      <trkpt lat="42.70102" lon="1.44896">
        <ele>1148.8</ele>
        <time>2020-08-05T12:36:39Z</time>
      </trkpt>
      <trkpt lat="42.70088" lon="1.44894">
        <ele>1147.8</ele>
        <time>2020-08-05T12:36:41Z</time>
      </trkpt>
      <trkpt lat="42.7008" lon="1.44888">
        <ele>1147.4</ele>
        <time>2020-08-05T12:36:42Z</time>
      </trkpt>
      <trkpt lat="42.70066" lon="1.44874">
        <ele>1146.4</ele>
        <time>2020-08-05T12:36:44Z</time>
      </trkpt>
      <trkpt lat="42.70058" lon="1.44868">
        <ele>1145.8</ele>
        <time>2020-08-05T12:36:45Z</time>
      </trkpt>
      <trkpt lat="42.70044" lon="1.44856">
        <ele>1145.2</ele>
        <time>2020-08-05T12:36:47Z</time>
      </trkpt>
      <trkpt lat="42.70024" lon="1.44845">
        <ele>1145.8</ele>
        <time>2020-08-05T12:36:50Z</time>
      </trkpt>
      <trkpt lat="42.7001" lon="1.44839">
        <ele>1146.4</ele>
        <time>2020-08-05T12:36:53Z</time>
      </trkpt>
      <trkpt lat="42.70006" lon="1.44838">
        <ele>1146.6</ele>
        <time>2020-08-05T12:36:54Z</time>
      </trkpt>
      <trkpt lat="42.69996" lon="1.44835">
        <ele>1147.4</ele>
        <time>2020-08-05T12:36:57Z</time>
      </trkpt>
      <trkpt lat="42.69987" lon="1.44832">
        <ele>1148.2</ele>
        <time>2020-08-05T12:37:00Z</time>
      </trkpt>
      <trkpt lat="42.69984" lon="1.44832">
        <ele>1148.4</ele>
        <time>2020-08-05T12:37:01Z</time>
      </trkpt>
      <trkpt lat="42.69974" lon="1.44828">
        <ele>1149.6</ele>
        <time>2020-08-05T12:37:05Z</time>
      </trkpt>
      <trkpt lat="42.69969" lon="1.44827">
        <ele>1150</ele>
        <time>2020-08-05T12:37:07Z</time>
      </trkpt>
      <trkpt lat="42.69962" lon="1.44825">
        <ele>1150.6</ele>
        <time>2020-08-05T12:37:10Z</time>
      </trkpt>
      <trkpt lat="42.69956" lon="1.44823">
        <ele>1151.4</ele>
        <time>2020-08-05T12:37:13Z</time>
      </trkpt>
      <trkpt lat="42.69952" lon="1.44821">
        <ele>1151.8</ele>
        <time>2020-08-05T12:37:15Z</time>
      </trkpt>
      <trkpt lat="42.69941" lon="1.44817">
        <ele>1153</ele>
        <time>2020-08-05T12:37:21Z</time>
      </trkpt>
      <trkpt lat="42.69939" lon="1.44817">
        <ele>1153.2</ele>
        <time>2020-08-05T12:37:22Z</time>
      </trkpt>
      <trkpt lat="42.69932" lon="1.44815">
        <ele>1154.2</ele>
        <time>2020-08-05T12:37:26Z</time>
      </trkpt>
      <trkpt lat="42.69926" lon="1.44813">
        <ele>1155</ele>
        <time>2020-08-05T12:37:30Z</time>
      </trkpt>
      <trkpt lat="42.69925" lon="1.44813">
        <ele>1155.2</ele>
        <time>2020-08-05T12:37:31Z</time>
      </trkpt>
      <trkpt lat="42.69917" lon="1.4481">
        <ele>1156.2</ele>
        <time>2020-08-05T12:37:36Z</time>
      </trkpt>
      <trkpt lat="42.69914" lon="1.44809">
        <ele>1156.6</ele>
        <time>2020-08-05T12:37:38Z</time>
      </trkpt>
      <trkpt lat="42.69908" lon="1.44808">
        <ele>1157.4</ele>
        <time>2020-08-05T12:37:41Z</time>
      </trkpt>
      <trkpt lat="42.69899" lon="1.44806">
        <ele>1158.6</ele>
        <time>2020-08-05T12:37:47Z</time>
      </trkpt>
      <trkpt lat="42.69896" lon="1.44807">
        <ele>1158.8</ele>
        <time>2020-08-05T12:37:49Z</time>
      </trkpt>
      <trkpt lat="42.6989" lon="1.44809">
        <ele>1159.8</ele>
        <time>2020-08-05T12:37:53Z</time>
      </trkpt>
      <trkpt lat="42.69883" lon="1.44809">
        <ele>1160.6</ele>
        <time>2020-08-05T12:37:57Z</time>
      </trkpt>
      <trkpt lat="42.69882" lon="1.44808">
        <ele>1160.8</ele>
        <time>2020-08-05T12:37:58Z</time>
      </trkpt>
      <trkpt lat="42.69873" lon="1.4481">
        <ele>1162</ele>
        <time>2020-08-05T12:38:04Z</time>
      </trkpt>
      <trkpt lat="42.69863" lon="1.44809">
        <ele>1163.2</ele>
        <time>2020-08-05T12:38:10Z</time>
      </trkpt>
      <trkpt lat="42.6986" lon="1.44809">
        <ele>1163.4</ele>
        <time>2020-08-05T12:38:12Z</time>
      </trkpt>
      <trkpt lat="42.69855" lon="1.44808">
        <ele>1164.4</ele>
        <time>2020-08-05T12:38:15Z</time>
      </trkpt>
      <trkpt lat="42.69848" lon="1.44808">
        <ele>1165.4</ele>
        <time>2020-08-05T12:38:20Z</time>
      </trkpt>
      <trkpt lat="42.69846" lon="1.44808">
        <ele>1165.6</ele>
        <time>2020-08-05T12:38:21Z</time>
      </trkpt>
      <trkpt lat="42.6984" lon="1.44809">
        <ele>1166.4</ele>
        <time>2020-08-05T12:38:24Z</time>
      </trkpt>
      <trkpt lat="42.69832" lon="1.44808">
        <ele>1167</ele>
        <time>2020-08-05T12:38:28Z</time>
      </trkpt>
      <trkpt lat="42.69827" lon="1.4481">
        <ele>1167.6</ele>
        <time>2020-08-05T12:38:31Z</time>
      </trkpt>
      <trkpt lat="42.6982" lon="1.44812">
        <ele>1168.4</ele>
        <time>2020-08-05T12:38:35Z</time>
      </trkpt>
      <trkpt lat="42.69815" lon="1.44814">
        <ele>1168.8</ele>
        <time>2020-08-05T12:38:38Z</time>
      </trkpt>
      <trkpt lat="42.69808" lon="1.44817">
        <ele>1169.6</ele>
        <time>2020-08-05T12:38:42Z</time>
      </trkpt>
      <trkpt lat="42.69805" lon="1.44819">
        <ele>1169.8</ele>
        <time>2020-08-05T12:38:44Z</time>
      </trkpt>
      <trkpt lat="42.69801" lon="1.44821">
        <ele>1170</ele>
        <time>2020-08-05T12:38:46Z</time>
      </trkpt>
      <trkpt lat="42.69792" lon="1.44824">
        <ele>1170.2</ele>
        <time>2020-08-05T12:38:50Z</time>
      </trkpt>
      <trkpt lat="42.69777" lon="1.44835">
        <ele>1170.6</ele>
        <time>2020-08-05T12:38:57Z</time>
      </trkpt>
      <trkpt lat="42.69773" lon="1.44838">
        <ele>1170.8</ele>
        <time>2020-08-05T12:38:59Z</time>
      </trkpt>
      <trkpt lat="42.69767" lon="1.44843">
        <ele>1171.4</ele>
        <time>2020-08-05T12:39:03Z</time>
      </trkpt>
      <trkpt lat="42.69764" lon="1.44845">
        <ele>1171.8</ele>
        <time>2020-08-05T12:39:05Z</time>
      </trkpt>
      <trkpt lat="42.69755" lon="1.44847">
        <ele>1172.4</ele>
        <time>2020-08-05T12:39:10Z</time>
      </trkpt>
      <trkpt lat="42.69751" lon="1.44848">
        <ele>1172.8</ele>
        <time>2020-08-05T12:39:12Z</time>
      </trkpt>
      <trkpt lat="42.69742" lon="1.44849">
        <ele>1174</ele>
        <time>2020-08-05T12:39:18Z</time>
      </trkpt>
      <trkpt lat="42.69736" lon="1.44849">
        <ele>1174.8</ele>
        <time>2020-08-05T12:39:21Z</time>
      </trkpt>
      <trkpt lat="42.69733" lon="1.44851">
        <ele>1175.2</ele>
        <time>2020-08-05T12:39:23Z</time>
      </trkpt>
      <trkpt lat="42.69727" lon="1.44853">
        <ele>1176.2</ele>
        <time>2020-08-05T12:39:27Z</time>
      </trkpt>
      <trkpt lat="42.69722" lon="1.44855">
        <ele>1176.8</ele>
        <time>2020-08-05T12:39:30Z</time>
      </trkpt>
      <trkpt lat="42.69718" lon="1.44857">
        <ele>1177.4</ele>
        <time>2020-08-05T12:39:32Z</time>
      </trkpt>
      <trkpt lat="42.6971" lon="1.44862">
        <ele>1178.2</ele>
        <time>2020-08-05T12:39:37Z</time>
      </trkpt>
      <trkpt lat="42.69709" lon="1.44864">
        <ele>1178.4</ele>
        <time>2020-08-05T12:39:38Z</time>
      </trkpt>
      <trkpt lat="42.69707" lon="1.44866">
        <ele>1178.6</ele>
        <time>2020-08-05T12:39:40Z</time>
      </trkpt>
      <trkpt lat="42.69702" lon="1.4487">
        <ele>1179.2</ele>
        <time>2020-08-05T12:39:43Z</time>
      </trkpt>
      <trkpt lat="42.69698" lon="1.44874">
        <ele>1179.6</ele>
        <time>2020-08-05T12:39:46Z</time>
      </trkpt>
      <trkpt lat="42.6969" lon="1.44881">
        <ele>1180.2</ele>
        <time>2020-08-05T12:39:51Z</time>
      </trkpt>
      <trkpt lat="42.69676" lon="1.44891">
        <ele>1180.6</ele>
        <time>2020-08-05T12:39:58Z</time>
      </trkpt>
      <trkpt lat="42.69674" lon="1.44892">
        <ele>1180.8</ele>
        <time>2020-08-05T12:39:59Z</time>
      </trkpt>
      <trkpt lat="42.69656" lon="1.44901">
        <ele>1181.4</ele>
        <time>2020-08-05T12:40:08Z</time>
      </trkpt>
      <trkpt lat="42.69651" lon="1.44902">
        <ele>1181.8</ele>
        <time>2020-08-05T12:40:10Z</time>
      </trkpt>
      <trkpt lat="42.69642" lon="1.44904">
        <ele>1182.2</ele>
        <time>2020-08-05T12:40:14Z</time>
      </trkpt>
      <trkpt lat="42.69635" lon="1.44904">
        <ele>1182.8</ele>
        <time>2020-08-05T12:40:17Z</time>
      </trkpt>
      <trkpt lat="42.69627" lon="1.44907">
        <ele>1183.8</ele>
        <time>2020-08-05T12:40:21Z</time>
      </trkpt>
      <trkpt lat="42.69625" lon="1.44908">
        <ele>1184</ele>
        <time>2020-08-05T12:40:22Z</time>
      </trkpt>
      <trkpt lat="42.69613" lon="1.44917">
        <ele>1185</ele>
        <time>2020-08-05T12:40:28Z</time>
      </trkpt>
      <trkpt lat="42.69611" lon="1.44918">
        <ele>1185.2</ele>
        <time>2020-08-05T12:40:29Z</time>
      </trkpt>
      <trkpt lat="42.69601" lon="1.44923">
        <ele>1186.2</ele>
        <time>2020-08-05T12:40:35Z</time>
      </trkpt>
      <trkpt lat="42.69599" lon="1.44924">
        <ele>1186.4</ele>
        <time>2020-08-05T12:40:36Z</time>
      </trkpt>
      <trkpt lat="42.6959" lon="1.44925">
        <ele>1187.4</ele>
        <time>2020-08-05T12:40:41Z</time>
      </trkpt>
      <trkpt lat="42.69587" lon="1.44925">
        <ele>1187.6</ele>
        <time>2020-08-05T12:40:43Z</time>
      </trkpt>
      <trkpt lat="42.6958" lon="1.44926">
        <ele>1188.4</ele>
        <time>2020-08-05T12:40:47Z</time>
      </trkpt>
      <trkpt lat="42.69572" lon="1.44926">
        <ele>1189</ele>
        <time>2020-08-05T12:40:51Z</time>
      </trkpt>
      <trkpt lat="42.69566" lon="1.44926">
        <ele>1189.4</ele>
        <time>2020-08-05T12:40:54Z</time>
      </trkpt>
      <trkpt lat="42.69557" lon="1.44928">
        <ele>1190.6</ele>
        <time>2020-08-05T12:40:59Z</time>
      </trkpt>
      <trkpt lat="42.69545" lon="1.44929">
        <ele>1191.6</ele>
        <time>2020-08-05T12:41:05Z</time>
      </trkpt>
      <trkpt lat="42.6954" lon="1.44931">
        <ele>1192.2</ele>
        <time>2020-08-05T12:41:08Z</time>
      </trkpt>
      <trkpt lat="42.69534" lon="1.44933">
        <ele>1192.6</ele>
        <time>2020-08-05T12:41:11Z</time>
      </trkpt>
      <trkpt lat="42.69526" lon="1.44934">
        <ele>1193.4</ele>
        <time>2020-08-05T12:41:15Z</time>
      </trkpt>
      <trkpt lat="42.69522" lon="1.44936">
        <ele>1193.6</ele>
        <time>2020-08-05T12:41:17Z</time>
      </trkpt>
      <trkpt lat="42.69512" lon="1.44941">
        <ele>1194.4</ele>
        <time>2020-08-05T12:41:23Z</time>
      </trkpt>
      <trkpt lat="42.69506" lon="1.44943">
        <ele>1194.8</ele>
        <time>2020-08-05T12:41:26Z</time>
      </trkpt>
      <trkpt lat="42.69494" lon="1.4495">
        <ele>1195.4</ele>
        <time>2020-08-05T12:41:32Z</time>
      </trkpt>
      <trkpt lat="42.69488" lon="1.44954">
        <ele>1195.8</ele>
        <time>2020-08-05T12:41:35Z</time>
      </trkpt>
      <trkpt lat="42.69478" lon="1.44959">
        <ele>1196.2</ele>
        <time>2020-08-05T12:41:40Z</time>
      </trkpt>
      <trkpt lat="42.69463" lon="1.44966">
        <ele>1196.8</ele>
        <time>2020-08-05T12:41:47Z</time>
      </trkpt>
      <trkpt lat="42.69461" lon="1.44967">
        <ele>1197</ele>
        <time>2020-08-05T12:41:48Z</time>
      </trkpt>
      <trkpt lat="42.69446" lon="1.44975">
        <ele>1197.8</ele>
        <time>2020-08-05T12:41:55Z</time>
      </trkpt>
      <trkpt lat="42.69444" lon="1.44976">
        <ele>1198</ele>
        <time>2020-08-05T12:41:56Z</time>
      </trkpt>
      <trkpt lat="42.69431" lon="1.44979">
        <ele>1198.8</ele>
        <time>2020-08-05T12:42:03Z</time>
      </trkpt>
      <trkpt lat="42.69429" lon="1.44979">
        <ele>1199</ele>
        <time>2020-08-05T12:42:04Z</time>
      </trkpt>
      <trkpt lat="42.69422" lon="1.44982">
        <ele>1199.6</ele>
        <time>2020-08-05T12:42:08Z</time>
      </trkpt>
      <trkpt lat="42.69416" lon="1.44982">
        <ele>1200</ele>
        <time>2020-08-05T12:42:11Z</time>
      </trkpt>
      <trkpt lat="42.69408" lon="1.44983">
        <ele>1200.8</ele>
        <time>2020-08-05T12:42:15Z</time>
      </trkpt>
      <trkpt lat="42.69404" lon="1.44986">
        <ele>1201.2</ele>
        <time>2020-08-05T12:42:17Z</time>
      </trkpt>
      <trkpt lat="42.69395" lon="1.4499">
        <ele>1202.4</ele>
        <time>2020-08-05T12:42:22Z</time>
      </trkpt>
      <trkpt lat="42.69391" lon="1.44992">
        <ele>1202.8</ele>
        <time>2020-08-05T12:42:24Z</time>
      </trkpt>
      <trkpt lat="42.69384" lon="1.44996">
        <ele>1203.4</ele>
        <time>2020-08-05T12:42:28Z</time>
      </trkpt>
      <trkpt lat="42.69377" lon="1.44999">
        <ele>1204.2</ele>
        <time>2020-08-05T12:42:32Z</time>
      </trkpt>
      <trkpt lat="42.69373" lon="1.45">
        <ele>1204.6</ele>
        <time>2020-08-05T12:42:34Z</time>
      </trkpt>
      <trkpt lat="42.69365" lon="1.45004">
        <ele>1205.8</ele>
        <time>2020-08-05T12:42:39Z</time>
      </trkpt>
      <trkpt lat="42.69363" lon="1.45005">
        <ele>1205.8</ele>
        <time>2020-08-05T12:42:40Z</time>
      </trkpt>
      <trkpt lat="42.69353" lon="1.45013">
        <ele>1206.6</ele>
        <time>2020-08-05T12:42:46Z</time>
      </trkpt>
      <trkpt lat="42.69349" lon="1.45014">
        <ele>1206.8</ele>
        <time>2020-08-05T12:42:48Z</time>
      </trkpt>
      <trkpt lat="42.69339" lon="1.45021">
        <ele>1207.2</ele>
        <time>2020-08-05T12:42:53Z</time>
      </trkpt>
      <trkpt lat="42.69321" lon="1.45032">
        <ele>1207.8</ele>
        <time>2020-08-05T12:43:01Z</time>
      </trkpt>
      <trkpt lat="42.693" lon="1.45045">
        <ele>1207.4</ele>
        <time>2020-08-05T12:43:09Z</time>
      </trkpt>
      <trkpt lat="42.69281" lon="1.45055">
        <ele>1207.2</ele>
        <time>2020-08-05T12:43:16Z</time>
      </trkpt>
      <trkpt lat="42.69259" lon="1.45062">
        <ele>1207.4</ele>
        <time>2020-08-05T12:43:24Z</time>
      </trkpt>
      <trkpt lat="42.69238" lon="1.45069">
        <ele>1207.6</ele>
        <time>2020-08-05T12:43:31Z</time>
      </trkpt>
      <trkpt lat="42.69226" lon="1.45073">
        <ele>1207.8</ele>
        <time>2020-08-05T12:43:35Z</time>
      </trkpt>
      <trkpt lat="42.69215" lon="1.45076">
        <ele>1208.2</ele>
        <time>2020-08-05T12:43:39Z</time>
      </trkpt>
      <trkpt lat="42.69202" lon="1.4508">
        <ele>1209</ele>
        <time>2020-08-05T12:43:44Z</time>
      </trkpt>
      <trkpt lat="42.692" lon="1.4508">
        <ele>1209</ele>
        <time>2020-08-05T12:43:45Z</time>
      </trkpt>
      <trkpt lat="42.69186" lon="1.45083">
        <ele>1210</ele>
        <time>2020-08-05T12:43:51Z</time>
      </trkpt>
      <trkpt lat="42.69184" lon="1.45083">
        <ele>1210.2</ele>
        <time>2020-08-05T12:43:52Z</time>
      </trkpt>
      <trkpt lat="42.69174" lon="1.45086">
        <ele>1211</ele>
        <time>2020-08-05T12:43:57Z</time>
      </trkpt>
      <trkpt lat="42.69172" lon="1.45087">
        <ele>1211.2</ele>
        <time>2020-08-05T12:43:58Z</time>
      </trkpt>
      <trkpt lat="42.69159" lon="1.45088">
        <ele>1212.2</ele>
        <time>2020-08-05T12:44:04Z</time>
      </trkpt>
      <trkpt lat="42.69155" lon="1.45088">
        <ele>1212.6</ele>
        <time>2020-08-05T12:44:06Z</time>
      </trkpt>
      <trkpt lat="42.69144" lon="1.4509">
        <ele>1213.2</ele>
        <time>2020-08-05T12:44:11Z</time>
      </trkpt>
      <trkpt lat="42.69142" lon="1.4509">
        <ele>1213.4</ele>
        <time>2020-08-05T12:44:12Z</time>
      </trkpt>
      <trkpt lat="42.69132" lon="1.45092">
        <ele>1214.4</ele>
        <time>2020-08-05T12:44:17Z</time>
      </trkpt>
      <trkpt lat="42.6913" lon="1.45092">
        <ele>1214.6</ele>
        <time>2020-08-05T12:44:18Z</time>
      </trkpt>
      <trkpt lat="42.6912" lon="1.45094">
        <ele>1215.4</ele>
        <time>2020-08-05T12:44:23Z</time>
      </trkpt>
      <trkpt lat="42.69115" lon="1.45095">
        <ele>1215.8</ele>
        <time>2020-08-05T12:44:26Z</time>
      </trkpt>
      <trkpt lat="42.69107" lon="1.45096">
        <ele>1216.4</ele>
        <time>2020-08-05T12:44:30Z</time>
      </trkpt>
      <trkpt lat="42.69103" lon="1.45097">
        <ele>1217</ele>
        <time>2020-08-05T12:44:32Z</time>
      </trkpt>
      <trkpt lat="42.69095" lon="1.45102">
        <ele>1217.6</ele>
        <time>2020-08-05T12:44:37Z</time>
      </trkpt>
      <trkpt lat="42.69093" lon="1.45103">
        <ele>1217.8</ele>
        <time>2020-08-05T12:44:38Z</time>
      </trkpt>
      <trkpt lat="42.69086" lon="1.45112">
        <ele>1218.4</ele>
        <time>2020-08-05T12:44:43Z</time>
      </trkpt>
      <trkpt lat="42.69086" lon="1.45114">
        <ele>1218.6</ele>
        <time>2020-08-05T12:44:44Z</time>
      </trkpt>
      <trkpt lat="42.69085" lon="1.45125">
        <ele>1219.4</ele>
        <time>2020-08-05T12:44:48Z</time>
      </trkpt>
      <trkpt lat="42.69084" lon="1.45131">
        <ele>1219.8</ele>
        <time>2020-08-05T12:44:51Z</time>
      </trkpt>
      <trkpt lat="42.69084" lon="1.45137">
        <ele>1220.4</ele>
        <time>2020-08-05T12:44:54Z</time>
      </trkpt>
      <trkpt lat="42.69089" lon="1.45148">
        <ele>1220.8</ele>
        <time>2020-08-05T12:44:59Z</time>
      </trkpt>
      <trkpt lat="42.6909" lon="1.45149">
        <ele>1220.8</ele>
        <time>2020-08-05T12:45:00Z</time>
      </trkpt>
      <trkpt lat="42.69096" lon="1.45163">
        <ele>1222</ele>
        <time>2020-08-05T12:45:06Z</time>
      </trkpt>
      <trkpt lat="42.69102" lon="1.45174">
        <ele>1223</ele>
        <time>2020-08-05T12:45:12Z</time>
      </trkpt>
      <trkpt lat="42.69106" lon="1.45185">
        <ele>1224</ele>
        <time>2020-08-05T12:45:17Z</time>
      </trkpt>
      <trkpt lat="42.69106" lon="1.45188">
        <ele>1224.4</ele>
        <time>2020-08-05T12:45:22Z</time>
      </trkpt>
      <trkpt lat="42.69106" lon="1.45188">
        <ele>1224.4</ele>
        <time>2020-08-05T12:45:33Z</time>
      </trkpt>
      <trkpt lat="42.69106" lon="1.45188">
        <ele>1224.4</ele>
        <time>2020-08-05T12:45:44Z</time>
      </trkpt>
      <trkpt lat="42.69106" lon="1.45188">
        <ele>1224.4</ele>
        <time>2020-08-05T12:45:54Z</time>
      </trkpt>
      <trkpt lat="42.69108" lon="1.45189">
        <ele>1224.2</ele>
        <time>2020-08-05T12:46:08Z</time>
      </trkpt>
      <trkpt lat="42.69109" lon="1.45189">
        <ele>1224.4</ele>
        <time>2020-08-05T12:46:21Z</time>
      </trkpt>
      <trkpt lat="42.69109" lon="1.4519">
        <ele>1224.4</ele>
        <time>2020-08-05T12:46:32Z</time>
      </trkpt>
      <trkpt lat="42.69111" lon="1.45193">
        <ele>1224.4</ele>
        <time>2020-08-05T12:46:34Z</time>
      </trkpt>
      <trkpt lat="42.69113" lon="1.452">
        <ele>1225</ele>
        <time>2020-08-05T12:46:38Z</time>
      </trkpt>
      <trkpt lat="42.6912" lon="1.45208">
        <ele>1226</ele>
        <time>2020-08-05T12:46:43Z</time>
      </trkpt>
      <trkpt lat="42.69121" lon="1.45209">
        <ele>1226.2</ele>
        <time>2020-08-05T12:46:44Z</time>
      </trkpt>
      <trkpt lat="42.69131" lon="1.45217">
        <ele>1227</ele>
        <time>2020-08-05T12:46:50Z</time>
      </trkpt>
      <trkpt lat="42.69133" lon="1.45219">
        <ele>1227.2</ele>
        <time>2020-08-05T12:46:51Z</time>
      </trkpt>
      <trkpt lat="42.69144" lon="1.45227">
        <ele>1228.2</ele>
        <time>2020-08-05T12:46:58Z</time>
      </trkpt>
      <trkpt lat="42.69152" lon="1.45232">
        <ele>1229.4</ele>
        <time>2020-08-05T12:47:03Z</time>
      </trkpt>
      <trkpt lat="42.69154" lon="1.45234">
        <ele>1229.8</ele>
        <time>2020-08-05T12:47:05Z</time>
      </trkpt>
      <trkpt lat="42.69159" lon="1.45238">
        <ele>1230.6</ele>
        <time>2020-08-05T12:47:09Z</time>
      </trkpt>
      <trkpt lat="42.69162" lon="1.45239">
        <ele>1230.8</ele>
        <time>2020-08-05T12:47:11Z</time>
      </trkpt>
      <trkpt lat="42.69163" lon="1.4524">
        <ele>1231</ele>
        <time>2020-08-05T12:47:12Z</time>
      </trkpt>
      <trkpt lat="42.69166" lon="1.45243">
        <ele>1231.6</ele>
        <time>2020-08-05T12:47:15Z</time>
      </trkpt>
      <trkpt lat="42.69171" lon="1.45246">
        <ele>1232.2</ele>
        <time>2020-08-05T12:47:18Z</time>
      </trkpt>
      <trkpt lat="42.69174" lon="1.45247">
        <ele>1232.8</ele>
        <time>2020-08-05T12:47:21Z</time>
      </trkpt>
      <trkpt lat="42.69177" lon="1.45248">
        <ele>1233</ele>
        <time>2020-08-05T12:47:23Z</time>
      </trkpt>
      <trkpt lat="42.69182" lon="1.45251">
        <ele>1234</ele>
        <time>2020-08-05T12:47:27Z</time>
      </trkpt>
      <trkpt lat="42.69185" lon="1.45252">
        <ele>1234.4</ele>
        <time>2020-08-05T12:47:29Z</time>
      </trkpt>
      <trkpt lat="42.6919" lon="1.45254">
        <ele>1235.2</ele>
        <time>2020-08-05T12:47:33Z</time>
      </trkpt>
      <trkpt lat="42.69194" lon="1.45257">
        <ele>1235.6</ele>
        <time>2020-08-05T12:47:36Z</time>
      </trkpt>
      <trkpt lat="42.69198" lon="1.45258">
        <ele>1236.2</ele>
        <time>2020-08-05T12:47:39Z</time>
      </trkpt>
      <trkpt lat="42.69201" lon="1.4526">
        <ele>1236.8</ele>
        <time>2020-08-05T12:47:42Z</time>
      </trkpt>
      <trkpt lat="42.69203" lon="1.45261">
        <ele>1237.4</ele>
        <time>2020-08-05T12:47:44Z</time>
      </trkpt>
      <trkpt lat="42.69211" lon="1.45261">
        <ele>1238.4</ele>
        <time>2020-08-05T12:47:50Z</time>
      </trkpt>
      <trkpt lat="42.69212" lon="1.45262">
        <ele>1238.6</ele>
        <time>2020-08-05T12:47:51Z</time>
      </trkpt>
      <trkpt lat="42.69213" lon="1.45263">
        <ele>1238.6</ele>
        <time>2020-08-05T12:47:52Z</time>
      </trkpt>
      <trkpt lat="42.69218" lon="1.45264">
        <ele>1239.4</ele>
        <time>2020-08-05T12:47:56Z</time>
      </trkpt>
      <trkpt lat="42.6922" lon="1.45264">
        <ele>1239.6</ele>
        <time>2020-08-05T12:47:57Z</time>
      </trkpt>
      <trkpt lat="42.69221" lon="1.45264">
        <ele>1239.8</ele>
        <time>2020-08-05T12:47:58Z</time>
      </trkpt>
      <trkpt lat="42.69225" lon="1.45265">
        <ele>1240.2</ele>
        <time>2020-08-05T12:48:01Z</time>
      </trkpt>
      <trkpt lat="42.69228" lon="1.45266">
        <ele>1240.8</ele>
        <time>2020-08-05T12:48:03Z</time>
      </trkpt>
      <trkpt lat="42.69229" lon="1.45266">
        <ele>1240.8</ele>
        <time>2020-08-05T12:48:04Z</time>
      </trkpt>
      <trkpt lat="42.69236" lon="1.45268">
        <ele>1241.8</ele>
        <time>2020-08-05T12:48:09Z</time>
      </trkpt>
      <trkpt lat="42.69239" lon="1.45268">
        <ele>1242</ele>
        <time>2020-08-05T12:48:11Z</time>
      </trkpt>
      <trkpt lat="42.69244" lon="1.45269">
        <ele>1243</ele>
        <time>2020-08-05T12:48:15Z</time>
      </trkpt>
      <trkpt lat="42.69251" lon="1.4527">
        <ele>1243.8</ele>
        <time>2020-08-05T12:48:21Z</time>
      </trkpt>
      <trkpt lat="42.69253" lon="1.45271">
        <ele>1244</ele>
        <time>2020-08-05T12:48:22Z</time>
      </trkpt>
      <trkpt lat="42.69254" lon="1.4527">
        <ele>1244</ele>
        <time>2020-08-05T12:48:23Z</time>
      </trkpt>
      <trkpt lat="42.69262" lon="1.45269">
        <ele>1245</ele>
        <time>2020-08-05T12:48:28Z</time>
      </trkpt>
      <trkpt lat="42.69264" lon="1.45269">
        <ele>1245.2</ele>
        <time>2020-08-05T12:48:29Z</time>
      </trkpt>
      <trkpt lat="42.69271" lon="1.45268">
        <ele>1246.2</ele>
        <time>2020-08-05T12:48:35Z</time>
      </trkpt>
      <trkpt lat="42.69273" lon="1.45268">
        <ele>1246.4</ele>
        <time>2020-08-05T12:48:36Z</time>
      </trkpt>
      <trkpt lat="42.69281" lon="1.45268">
        <ele>1247.6</ele>
        <time>2020-08-05T12:48:42Z</time>
      </trkpt>
      <trkpt lat="42.69282" lon="1.45268">
        <ele>1247.6</ele>
        <time>2020-08-05T12:48:43Z</time>
      </trkpt>
      <trkpt lat="42.69284" lon="1.45268">
        <ele>1247.8</ele>
        <time>2020-08-05T12:48:44Z</time>
      </trkpt>
      <trkpt lat="42.69289" lon="1.45266">
        <ele>1248.6</ele>
        <time>2020-08-05T12:48:48Z</time>
      </trkpt>
      <trkpt lat="42.6929" lon="1.45266">
        <ele>1248.6</ele>
        <time>2020-08-05T12:48:49Z</time>
      </trkpt>
      <trkpt lat="42.69296" lon="1.45268">
        <ele>1249.6</ele>
        <time>2020-08-05T12:48:54Z</time>
      </trkpt>
      <trkpt lat="42.69298" lon="1.45267">
        <ele>1249.8</ele>
        <time>2020-08-05T12:48:55Z</time>
      </trkpt>
      <trkpt lat="42.69306" lon="1.45267">
        <ele>1250.8</ele>
        <time>2020-08-05T12:49:01Z</time>
      </trkpt>
      <trkpt lat="42.69308" lon="1.45267">
        <ele>1251</ele>
        <time>2020-08-05T12:49:02Z</time>
      </trkpt>
      <trkpt lat="42.69309" lon="1.45268">
        <ele>1251.2</ele>
        <time>2020-08-05T12:49:03Z</time>
      </trkpt>
      <trkpt lat="42.69313" lon="1.45268">
        <ele>1252</ele>
        <time>2020-08-05T12:49:06Z</time>
      </trkpt>
      <trkpt lat="42.69317" lon="1.45269">
        <ele>1252.2</ele>
        <time>2020-08-05T12:49:08Z</time>
      </trkpt>
      <trkpt lat="42.6932" lon="1.45259">
        <ele>1252.8</ele>
        <time>2020-08-05T12:49:11Z</time>
      </trkpt>
      <trkpt lat="42.69322" lon="1.45258">
        <ele>1253</ele>
        <time>2020-08-05T12:49:12Z</time>
      </trkpt>
      <trkpt lat="42.69324" lon="1.45257">
        <ele>1253.4</ele>
        <time>2020-08-05T12:49:14Z</time>
      </trkpt>
      <trkpt lat="42.69327" lon="1.45255">
        <ele>1254</ele>
        <time>2020-08-05T12:49:18Z</time>
      </trkpt>
      <trkpt lat="42.69328" lon="1.45255">
        <ele>1254</ele>
        <time>2020-08-05T12:49:19Z</time>
      </trkpt>
      <trkpt lat="42.69329" lon="1.45255">
        <ele>1254.2</ele>
        <time>2020-08-05T12:49:20Z</time>
      </trkpt>
      <trkpt lat="42.69336" lon="1.45251">
        <ele>1255.2</ele>
        <time>2020-08-05T12:49:26Z</time>
      </trkpt>
      <trkpt lat="42.69339" lon="1.4525">
        <ele>1255.8</ele>
        <time>2020-08-05T12:49:28Z</time>
      </trkpt>
      <trkpt lat="42.69341" lon="1.45248">
        <ele>1256.4</ele>
        <time>2020-08-05T12:49:30Z</time>
      </trkpt>
      <trkpt lat="42.69345" lon="1.45247">
        <ele>1256.8</ele>
        <time>2020-08-05T12:49:33Z</time>
      </trkpt>
      <trkpt lat="42.69347" lon="1.45248">
        <ele>1257</ele>
        <time>2020-08-05T12:49:34Z</time>
      </trkpt>
      <trkpt lat="42.6935" lon="1.45253">
        <ele>1257.4</ele>
        <time>2020-08-05T12:49:38Z</time>
      </trkpt>
      <trkpt lat="42.6935" lon="1.45257">
        <ele>1257.6</ele>
        <time>2020-08-05T12:49:40Z</time>
      </trkpt>
      <trkpt lat="42.6935" lon="1.4526">
        <ele>1258</ele>
        <time>2020-08-05T12:49:42Z</time>
      </trkpt>
      <trkpt lat="42.69348" lon="1.45265">
        <ele>1258.6</ele>
        <time>2020-08-05T12:49:45Z</time>
      </trkpt>
      <trkpt lat="42.69346" lon="1.45268">
        <ele>1259</ele>
        <time>2020-08-05T12:49:48Z</time>
      </trkpt>
      <trkpt lat="42.69342" lon="1.45269">
        <ele>1259.6</ele>
        <time>2020-08-05T12:49:51Z</time>
      </trkpt>
      <trkpt lat="42.69337" lon="1.4527">
        <ele>1260.2</ele>
        <time>2020-08-05T12:49:55Z</time>
      </trkpt>
      <trkpt lat="42.69334" lon="1.45271">
        <ele>1260.6</ele>
        <time>2020-08-05T12:49:58Z</time>
      </trkpt>
      <trkpt lat="42.6933" lon="1.45275">
        <ele>1261.2</ele>
        <time>2020-08-05T12:50:02Z</time>
      </trkpt>
      <trkpt lat="42.6933" lon="1.45275">
        <ele>1261.2</ele>
        <time>2020-08-05T12:50:07Z</time>
      </trkpt>
      <trkpt lat="42.69327" lon="1.45278">
        <ele>1261.4</ele>
        <time>2020-08-05T12:50:17Z</time>
      </trkpt>
      <trkpt lat="42.69328" lon="1.45276">
        <ele>1261.4</ele>
        <time>2020-08-05T12:50:31Z</time>
      </trkpt>
      <trkpt lat="42.69327" lon="1.45271">
        <ele>1261.2</ele>
        <time>2020-08-05T12:50:42Z</time>
      </trkpt>
      <trkpt lat="42.69327" lon="1.45268">
        <ele>1261.2</ele>
        <time>2020-08-05T12:50:55Z</time>
      </trkpt>
      <trkpt lat="42.69327" lon="1.45268">
        <ele>1261.2</ele>
        <time>2020-08-05T12:51:07Z</time>
      </trkpt>
      <trkpt lat="42.69327" lon="1.45269">
        <ele>1261.2</ele>
        <time>2020-08-05T12:51:20Z</time>
      </trkpt>
      <trkpt lat="42.69324" lon="1.45276">
        <ele>1261.6</ele>
        <time>2020-08-05T12:51:25Z</time>
      </trkpt>
      <trkpt lat="42.69322" lon="1.45276">
        <ele>1261.8</ele>
        <time>2020-08-05T12:51:26Z</time>
      </trkpt>
      <trkpt lat="42.69316" lon="1.45281">
        <ele>1262.8</ele>
        <time>2020-08-05T12:51:31Z</time>
      </trkpt>
      <trkpt lat="42.69314" lon="1.45282">
        <ele>1263</ele>
        <time>2020-08-05T12:51:32Z</time>
      </trkpt>
      <trkpt lat="42.69308" lon="1.45289">
        <ele>1264</ele>
        <time>2020-08-05T12:51:37Z</time>
      </trkpt>
      <trkpt lat="42.69304" lon="1.45293">
        <ele>1264.6</ele>
        <time>2020-08-05T12:51:40Z</time>
      </trkpt>
      <trkpt lat="42.693" lon="1.45296">
        <ele>1265</ele>
        <time>2020-08-05T12:51:43Z</time>
      </trkpt>
      <trkpt lat="42.69293" lon="1.45304">
        <ele>1265.8</ele>
        <time>2020-08-05T12:51:49Z</time>
      </trkpt>
      <trkpt lat="42.69291" lon="1.45308">
        <ele>1266.2</ele>
        <time>2020-08-05T12:51:51Z</time>
      </trkpt>
      <trkpt lat="42.69285" lon="1.45314">
        <ele>1267.2</ele>
        <time>2020-08-05T12:51:56Z</time>
      </trkpt>
      <trkpt lat="42.69282" lon="1.45316">
        <ele>1267.4</ele>
        <time>2020-08-05T12:51:58Z</time>
      </trkpt>
      <trkpt lat="42.69275" lon="1.4532">
        <ele>1268.2</ele>
        <time>2020-08-05T12:52:03Z</time>
      </trkpt>
      <trkpt lat="42.6927" lon="1.4532">
        <ele>1268.8</ele>
        <time>2020-08-05T12:52:06Z</time>
      </trkpt>
      <trkpt lat="42.69265" lon="1.45321">
        <ele>1269.4</ele>
        <time>2020-08-05T12:52:09Z</time>
      </trkpt>
      <trkpt lat="42.69259" lon="1.45322">
        <ele>1270</ele>
        <time>2020-08-05T12:52:13Z</time>
      </trkpt>
      <trkpt lat="42.69255" lon="1.45324">
        <ele>1270.4</ele>
        <time>2020-08-05T12:52:16Z</time>
      </trkpt>
      <trkpt lat="42.69251" lon="1.45327">
        <ele>1271</ele>
        <time>2020-08-05T12:52:19Z</time>
      </trkpt>
      <trkpt lat="42.69244" lon="1.4533">
        <ele>1271.6</ele>
        <time>2020-08-05T12:52:24Z</time>
      </trkpt>
      <trkpt lat="42.69241" lon="1.4533">
        <ele>1271.8</ele>
        <time>2020-08-05T12:52:26Z</time>
      </trkpt>
      <trkpt lat="42.69231" lon="1.45333">
        <ele>1272.8</ele>
        <time>2020-08-05T12:52:32Z</time>
      </trkpt>
      <trkpt lat="42.69228" lon="1.45333">
        <ele>1273.2</ele>
        <time>2020-08-05T12:52:34Z</time>
      </trkpt>
      <trkpt lat="42.69224" lon="1.45333">
        <ele>1273.6</ele>
        <time>2020-08-05T12:52:37Z</time>
      </trkpt>
      <trkpt lat="42.69221" lon="1.45335">
        <ele>1273.8</ele>
        <time>2020-08-05T12:52:39Z</time>
      </trkpt>
      <trkpt lat="42.69218" lon="1.45335">
        <ele>1274.2</ele>
        <time>2020-08-05T12:52:41Z</time>
      </trkpt>
      <trkpt lat="42.69211" lon="1.45337">
        <ele>1275</ele>
        <time>2020-08-05T12:52:46Z</time>
      </trkpt>
      <trkpt lat="42.69206" lon="1.45338">
        <ele>1275.2</ele>
        <time>2020-08-05T12:52:49Z</time>
      </trkpt>
      <trkpt lat="42.69198" lon="1.45338">
        <ele>1276.2</ele>
        <time>2020-08-05T12:52:54Z</time>
      </trkpt>
      <trkpt lat="42.69197" lon="1.45339">
        <ele>1276.2</ele>
        <time>2020-08-05T12:52:55Z</time>
      </trkpt>
      <trkpt lat="42.69196" lon="1.45339">
        <ele>1276.4</ele>
        <time>2020-08-05T12:52:56Z</time>
      </trkpt>
      <trkpt lat="42.69186" lon="1.45337">
        <ele>1277.2</ele>
        <time>2020-08-05T12:53:02Z</time>
      </trkpt>
      <trkpt lat="42.69184" lon="1.45337">
        <ele>1277.2</ele>
        <time>2020-08-05T12:53:03Z</time>
      </trkpt>
      <trkpt lat="42.69175" lon="1.45339">
        <ele>1278.2</ele>
        <time>2020-08-05T12:53:09Z</time>
      </trkpt>
      <trkpt lat="42.69172" lon="1.4534">
        <ele>1278.4</ele>
        <time>2020-08-05T12:53:11Z</time>
      </trkpt>
      <trkpt lat="42.69161" lon="1.45342">
        <ele>1279.4</ele>
        <time>2020-08-05T12:53:18Z</time>
      </trkpt>
      <trkpt lat="42.69151" lon="1.45342">
        <ele>1280.4</ele>
        <time>2020-08-05T12:53:25Z</time>
      </trkpt>
      <trkpt lat="42.69149" lon="1.45343">
        <ele>1280.8</ele>
        <time>2020-08-05T12:53:27Z</time>
      </trkpt>
      <trkpt lat="42.69143" lon="1.45346">
        <ele>1281.4</ele>
        <time>2020-08-05T12:53:31Z</time>
      </trkpt>
      <trkpt lat="42.69142" lon="1.45345">
        <ele>1281.6</ele>
        <time>2020-08-05T12:53:32Z</time>
      </trkpt>
      <trkpt lat="42.69138" lon="1.45347">
        <ele>1282</ele>
        <time>2020-08-05T12:53:36Z</time>
      </trkpt>
      <trkpt lat="42.69143" lon="1.45353">
        <ele>1282.2</ele>
        <time>2020-08-05T12:53:41Z</time>
      </trkpt>
      <trkpt lat="42.69146" lon="1.45354">
        <ele>1282.2</ele>
        <time>2020-08-05T12:53:44Z</time>
      </trkpt>
      <trkpt lat="42.69147" lon="1.45353">
        <ele>1282.2</ele>
        <time>2020-08-05T12:53:47Z</time>
      </trkpt>
      <trkpt lat="42.69148" lon="1.45353">
        <ele>1282.2</ele>
        <time>2020-08-05T12:53:56Z</time>
      </trkpt>
      <trkpt lat="42.69148" lon="1.45353">
        <ele>1282.2</ele>
        <time>2020-08-05T12:54:04Z</time>
      </trkpt>
      <trkpt lat="42.69151" lon="1.45353">
        <ele>1282.2</ele>
        <time>2020-08-05T12:54:09Z</time>
      </trkpt>
      <trkpt lat="42.69159" lon="1.45353">
        <ele>1282.6</ele>
        <time>2020-08-05T12:54:16Z</time>
      </trkpt>
      <trkpt lat="42.69159" lon="1.45353">
        <ele>1282.6</ele>
        <time>2020-08-05T12:54:27Z</time>
      </trkpt>
      <trkpt lat="42.69159" lon="1.45353">
        <ele>1282.6</ele>
        <time>2020-08-05T12:54:42Z</time>
      </trkpt>
      <trkpt lat="42.69159" lon="1.45353">
        <ele>1282.6</ele>
        <time>2020-08-05T12:54:48Z</time>
      </trkpt>
      <trkpt lat="42.69159" lon="1.45353">
        <ele>1282.6</ele>
        <time>2020-08-05T12:54:52Z</time>
      </trkpt>
      <trkpt lat="42.69159" lon="1.45353">
        <ele>1282.6</ele>
        <time>2020-08-05T12:55:02Z</time>
      </trkpt>
      <trkpt lat="42.69159" lon="1.45353">
        <ele>1282.4</ele>
        <time>2020-08-05T12:55:16Z</time>
      </trkpt>
      <trkpt lat="42.69159" lon="1.45353">
        <ele>1282.4</ele>
        <time>2020-08-05T12:55:28Z</time>
      </trkpt>
      <trkpt lat="42.69159" lon="1.45353">
        <ele>1282.6</ele>
        <time>2020-08-05T12:55:37Z</time>
      </trkpt>
      <trkpt lat="42.69159" lon="1.45353">
        <ele>1282.6</ele>
        <time>2020-08-05T12:55:53Z</time>
      </trkpt>
      <trkpt lat="42.69159" lon="1.45353">
        <ele>1282.6</ele>
        <time>2020-08-05T12:56:06Z</time>
      </trkpt>
      <trkpt lat="42.69159" lon="1.45353">
        <ele>1282.4</ele>
        <time>2020-08-05T12:56:17Z</time>
      </trkpt>
      <trkpt lat="42.69159" lon="1.45353">
        <ele>1282.4</ele>
        <time>2020-08-05T12:56:27Z</time>
      </trkpt>
      <trkpt lat="42.69159" lon="1.45353">
        <ele>1282.6</ele>
        <time>2020-08-05T12:56:29Z</time>
      </trkpt>
      <trkpt lat="42.69159" lon="1.45353">
        <ele>1282.4</ele>
        <time>2020-08-05T12:56:38Z</time>
      </trkpt>
      <trkpt lat="42.69159" lon="1.45353">
        <ele>1282.4</ele>
        <time>2020-08-05T12:56:50Z</time>
      </trkpt>
      <trkpt lat="42.6916" lon="1.45353">
        <ele>1282.6</ele>
        <time>2020-08-05T12:56:56Z</time>
      </trkpt>
      <trkpt lat="42.69162" lon="1.45353">
        <ele>1282.6</ele>
        <time>2020-08-05T12:56:58Z</time>
      </trkpt>
      <trkpt lat="42.69174" lon="1.45352">
        <ele>1283.6</ele>
        <time>2020-08-05T12:57:05Z</time>
      </trkpt>
      <trkpt lat="42.69183" lon="1.45352">
        <ele>1284.6</ele>
        <time>2020-08-05T12:57:11Z</time>
      </trkpt>
      <trkpt lat="42.69185" lon="1.45352">
        <ele>1284.8</ele>
        <time>2020-08-05T12:57:12Z</time>
      </trkpt>
      <trkpt lat="42.69188" lon="1.45352">
        <ele>1285</ele>
        <time>2020-08-05T12:57:14Z</time>
      </trkpt>
      <trkpt lat="42.69195" lon="1.45354">
        <ele>1285.4</ele>
        <time>2020-08-05T12:57:18Z</time>
      </trkpt>
      <trkpt lat="42.69202" lon="1.45356">
        <ele>1285.8</ele>
        <time>2020-08-05T12:57:22Z</time>
      </trkpt>
      <trkpt lat="42.69208" lon="1.45359">
        <ele>1286.2</ele>
        <time>2020-08-05T12:57:26Z</time>
      </trkpt>
      <trkpt lat="42.69216" lon="1.4536">
        <ele>1286.8</ele>
        <time>2020-08-05T12:57:31Z</time>
      </trkpt>
      <trkpt lat="42.6922" lon="1.45359">
        <ele>1287.2</ele>
        <time>2020-08-05T12:57:33Z</time>
      </trkpt>
      <trkpt lat="42.69228" lon="1.4536">
        <ele>1288</ele>
        <time>2020-08-05T12:57:38Z</time>
      </trkpt>
      <trkpt lat="42.69232" lon="1.4536">
        <ele>1288.4</ele>
        <time>2020-08-05T12:57:41Z</time>
      </trkpt>
      <trkpt lat="42.69239" lon="1.4536">
        <ele>1289</ele>
        <time>2020-08-05T12:57:46Z</time>
      </trkpt>
      <trkpt lat="42.69247" lon="1.45362">
        <ele>1289.6</ele>
        <time>2020-08-05T12:57:51Z</time>
      </trkpt>
      <trkpt lat="42.69252" lon="1.45362">
        <ele>1290</ele>
        <time>2020-08-05T12:57:54Z</time>
      </trkpt>
      <trkpt lat="42.69256" lon="1.45362">
        <ele>1290.4</ele>
        <time>2020-08-05T12:57:56Z</time>
      </trkpt>
      <trkpt lat="42.69262" lon="1.45362">
        <ele>1291</ele>
        <time>2020-08-05T12:58:00Z</time>
      </trkpt>
      <trkpt lat="42.69265" lon="1.45363">
        <ele>1291.2</ele>
        <time>2020-08-05T12:58:02Z</time>
      </trkpt>
      <trkpt lat="42.69274" lon="1.45364">
        <ele>1292</ele>
        <time>2020-08-05T12:58:08Z</time>
      </trkpt>
      <trkpt lat="42.69275" lon="1.45365">
        <ele>1292.2</ele>
        <time>2020-08-05T12:58:09Z</time>
      </trkpt>
      <trkpt lat="42.69286" lon="1.4537">
        <ele>1293.6</ele>
        <time>2020-08-05T12:58:17Z</time>
      </trkpt>
      <trkpt lat="42.69297" lon="1.45371">
        <ele>1294.8</ele>
        <time>2020-08-05T12:58:25Z</time>
      </trkpt>
      <trkpt lat="42.69307" lon="1.4537">
        <ele>1295.8</ele>
        <time>2020-08-05T12:58:32Z</time>
      </trkpt>
      <trkpt lat="42.69319" lon="1.45368">
        <ele>1297</ele>
        <time>2020-08-05T12:58:40Z</time>
      </trkpt>
      <trkpt lat="42.69327" lon="1.45368">
        <ele>1298</ele>
        <time>2020-08-05T12:58:45Z</time>
      </trkpt>
      <trkpt lat="42.69328" lon="1.45368">
        <ele>1298</ele>
        <time>2020-08-05T12:58:46Z</time>
      </trkpt>
      <trkpt lat="42.69331" lon="1.45368">
        <ele>1298.6</ele>
        <time>2020-08-05T12:58:49Z</time>
      </trkpt>
      <trkpt lat="42.69335" lon="1.45368">
        <ele>1298.6</ele>
        <time>2020-08-05T12:58:52Z</time>
      </trkpt>
      <trkpt lat="42.69338" lon="1.45369">
        <ele>1299</ele>
        <time>2020-08-05T12:58:54Z</time>
      </trkpt>
      <trkpt lat="42.69344" lon="1.45371">
        <ele>1300</ele>
        <time>2020-08-05T12:58:59Z</time>
      </trkpt>
      <trkpt lat="42.69349" lon="1.45371">
        <ele>1300.2</ele>
        <time>2020-08-05T12:59:02Z</time>
      </trkpt>
      <trkpt lat="42.69358" lon="1.45374">
        <ele>1301</ele>
        <time>2020-08-05T12:59:08Z</time>
      </trkpt>
      <trkpt lat="42.69362" lon="1.45375">
        <ele>1301.2</ele>
        <time>2020-08-05T12:59:10Z</time>
      </trkpt>
      <trkpt lat="42.69368" lon="1.45376">
        <ele>1301.6</ele>
        <time>2020-08-05T12:59:14Z</time>
      </trkpt>
      <trkpt lat="42.69374" lon="1.45378">
        <ele>1302.2</ele>
        <time>2020-08-05T12:59:18Z</time>
      </trkpt>
      <trkpt lat="42.69377" lon="1.45379">
        <ele>1302.8</ele>
        <time>2020-08-05T12:59:20Z</time>
      </trkpt>
      <trkpt lat="42.69382" lon="1.45381">
        <ele>1303.2</ele>
        <time>2020-08-05T12:59:24Z</time>
      </trkpt>
      <trkpt lat="42.69388" lon="1.45381">
        <ele>1304</ele>
        <time>2020-08-05T12:59:28Z</time>
      </trkpt>
      <trkpt lat="42.69391" lon="1.45382">
        <ele>1304.4</ele>
        <time>2020-08-05T12:59:30Z</time>
      </trkpt>
      <trkpt lat="42.69399" lon="1.45383">
        <ele>1305.4</ele>
        <time>2020-08-05T12:59:35Z</time>
      </trkpt>
      <trkpt lat="42.69402" lon="1.45383">
        <ele>1305.8</ele>
        <time>2020-08-05T12:59:37Z</time>
      </trkpt>
      <trkpt lat="42.69412" lon="1.45385">
        <ele>1306.4</ele>
        <time>2020-08-05T12:59:43Z</time>
      </trkpt>
      <trkpt lat="42.69425" lon="1.45386">
        <ele>1307.4</ele>
        <time>2020-08-05T12:59:51Z</time>
      </trkpt>
      <trkpt lat="42.69434" lon="1.45379">
        <ele>1307.4</ele>
        <time>2020-08-05T12:59:56Z</time>
      </trkpt>
      <trkpt lat="42.69444" lon="1.45367">
        <ele>1307.8</ele>
        <time>2020-08-05T13:00:03Z</time>
      </trkpt>
      <trkpt lat="42.69454" lon="1.45363">
        <ele>1308.4</ele>
        <time>2020-08-05T13:00:09Z</time>
      </trkpt>
      <trkpt lat="42.69458" lon="1.45362">
        <ele>1308.6</ele>
        <time>2020-08-05T13:00:11Z</time>
      </trkpt>
      <trkpt lat="42.69466" lon="1.4536">
        <ele>1309.8</ele>
        <time>2020-08-05T13:00:16Z</time>
      </trkpt>
      <trkpt lat="42.69469" lon="1.45358">
        <ele>1310</ele>
        <time>2020-08-05T13:00:18Z</time>
      </trkpt>
      <trkpt lat="42.69475" lon="1.45356">
        <ele>1310.8</ele>
        <time>2020-08-05T13:00:23Z</time>
      </trkpt>
      <trkpt lat="42.69478" lon="1.45355">
        <ele>1311</ele>
        <time>2020-08-05T13:00:25Z</time>
      </trkpt>
      <trkpt lat="42.69484" lon="1.45355">
        <ele>1312</ele>
        <time>2020-08-05T13:00:29Z</time>
      </trkpt>
      <trkpt lat="42.69487" lon="1.45354">
        <ele>1312.4</ele>
        <time>2020-08-05T13:00:31Z</time>
      </trkpt>
      <trkpt lat="42.6949" lon="1.45355">
        <ele>1313</ele>
        <time>2020-08-05T13:00:34Z</time>
      </trkpt>
      <trkpt lat="42.69491" lon="1.45356">
        <ele>1313.2</ele>
        <time>2020-08-05T13:00:35Z</time>
      </trkpt>
      <trkpt lat="42.69496" lon="1.45356">
        <ele>1313.6</ele>
        <time>2020-08-05T13:00:38Z</time>
      </trkpt>
      <trkpt lat="42.69497" lon="1.45356">
        <ele>1313.8</ele>
        <time>2020-08-05T13:00:39Z</time>
      </trkpt>
      <trkpt lat="42.69499" lon="1.45355">
        <ele>1314.4</ele>
        <time>2020-08-05T13:00:41Z</time>
      </trkpt>
      <trkpt lat="42.69503" lon="1.45353">
        <ele>1314.8</ele>
        <time>2020-08-05T13:00:44Z</time>
      </trkpt>
      <trkpt lat="42.69504" lon="1.45352">
        <ele>1315</ele>
        <time>2020-08-05T13:00:45Z</time>
      </trkpt>
      <trkpt lat="42.69507" lon="1.45347">
        <ele>1315.4</ele>
        <time>2020-08-05T13:00:48Z</time>
      </trkpt>
      <trkpt lat="42.69509" lon="1.45345">
        <ele>1315.8</ele>
        <time>2020-08-05T13:00:50Z</time>
      </trkpt>
      <trkpt lat="42.69515" lon="1.4534">
        <ele>1316.6</ele>
        <time>2020-08-05T13:00:55Z</time>
      </trkpt>
      <trkpt lat="42.69517" lon="1.45337">
        <ele>1316.6</ele>
        <time>2020-08-05T13:00:57Z</time>
      </trkpt>
      <trkpt lat="42.69521" lon="1.45327">
        <ele>1317</ele>
        <time>2020-08-05T13:01:03Z</time>
      </trkpt>
      <trkpt lat="42.69524" lon="1.45323">
        <ele>1317.6</ele>
        <time>2020-08-05T13:01:06Z</time>
      </trkpt>
      <trkpt lat="42.69529" lon="1.45317">
        <ele>1318</ele>
        <time>2020-08-05T13:01:10Z</time>
      </trkpt>
      <trkpt lat="42.69541" lon="1.45307">
        <ele>1318.4</ele>
        <time>2020-08-05T13:01:17Z</time>
      </trkpt>
      <trkpt lat="42.69545" lon="1.45306">
        <ele>1318.6</ele>
        <time>2020-08-05T13:01:19Z</time>
      </trkpt>
      <trkpt lat="42.69553" lon="1.45304">
        <ele>1319.4</ele>
        <time>2020-08-05T13:01:24Z</time>
      </trkpt>
      <trkpt lat="42.69558" lon="1.45304">
        <ele>1319.8</ele>
        <time>2020-08-05T13:01:27Z</time>
      </trkpt>
      <trkpt lat="42.69562" lon="1.45304">
        <ele>1320.8</ele>
        <time>2020-08-05T13:01:30Z</time>
      </trkpt>
      <trkpt lat="42.69564" lon="1.45304">
        <ele>1321</ele>
        <time>2020-08-05T13:01:31Z</time>
      </trkpt>
      <trkpt lat="42.69575" lon="1.45307">
        <ele>1322</ele>
        <time>2020-08-05T13:01:38Z</time>
      </trkpt>
      <trkpt lat="42.69585" lon="1.45312">
        <ele>1322.8</ele>
        <time>2020-08-05T13:01:45Z</time>
      </trkpt>
      <trkpt lat="42.69589" lon="1.45316">
        <ele>1323</ele>
        <time>2020-08-05T13:01:48Z</time>
      </trkpt>
      <trkpt lat="42.69594" lon="1.4532">
        <ele>1323.4</ele>
        <time>2020-08-05T13:01:52Z</time>
      </trkpt>
      <trkpt lat="42.69595" lon="1.45322">
        <ele>1323.8</ele>
        <time>2020-08-05T13:01:53Z</time>
      </trkpt>
      <trkpt lat="42.69597" lon="1.45324">
        <ele>1324</ele>
        <time>2020-08-05T13:01:55Z</time>
      </trkpt>
      <trkpt lat="42.69602" lon="1.45332">
        <ele>1324.6</ele>
        <time>2020-08-05T13:02:00Z</time>
      </trkpt>
      <trkpt lat="42.69605" lon="1.45336">
        <ele>1325</ele>
        <time>2020-08-05T13:02:03Z</time>
      </trkpt>
      <trkpt lat="42.69609" lon="1.45342">
        <ele>1325.6</ele>
        <time>2020-08-05T13:02:07Z</time>
      </trkpt>
      <trkpt lat="42.6961" lon="1.45346">
        <ele>1326.2</ele>
        <time>2020-08-05T13:02:09Z</time>
      </trkpt>
      <trkpt lat="42.69612" lon="1.4535">
        <ele>1326.6</ele>
        <time>2020-08-05T13:02:12Z</time>
      </trkpt>
      <trkpt lat="42.69615" lon="1.45354">
        <ele>1327</ele>
        <time>2020-08-05T13:02:15Z</time>
      </trkpt>
      <trkpt lat="42.69619" lon="1.4536">
        <ele>1327.2</ele>
        <time>2020-08-05T13:02:19Z</time>
      </trkpt>
      <trkpt lat="42.69623" lon="1.45362">
        <ele>1328</ele>
        <time>2020-08-05T13:02:22Z</time>
      </trkpt>
      <trkpt lat="42.69629" lon="1.4536">
        <ele>1328.2</ele>
        <time>2020-08-05T13:02:27Z</time>
      </trkpt>
      <trkpt lat="42.6963" lon="1.45358">
        <ele>1328.2</ele>
        <time>2020-08-05T13:02:28Z</time>
      </trkpt>
      <trkpt lat="42.69631" lon="1.45357">
        <ele>1328.4</ele>
        <time>2020-08-05T13:02:29Z</time>
      </trkpt>
      <trkpt lat="42.69633" lon="1.45352">
        <ele>1328.6</ele>
        <time>2020-08-05T13:02:32Z</time>
      </trkpt>
      <trkpt lat="42.69636" lon="1.45345">
        <ele>1329</ele>
        <time>2020-08-05T13:02:36Z</time>
      </trkpt>
      <trkpt lat="42.69638" lon="1.45339">
        <ele>1329.2</ele>
        <time>2020-08-05T13:02:39Z</time>
      </trkpt>
      <trkpt lat="42.69641" lon="1.4533">
        <ele>1330</ele>
        <time>2020-08-05T13:02:43Z</time>
      </trkpt>
      <trkpt lat="42.69643" lon="1.4532">
        <ele>1330.2</ele>
        <time>2020-08-05T13:02:48Z</time>
      </trkpt>
      <trkpt lat="42.69646" lon="1.45311">
        <ele>1331</ele>
        <time>2020-08-05T13:02:52Z</time>
      </trkpt>
      <trkpt lat="42.69648" lon="1.45307">
        <ele>1331.4</ele>
        <time>2020-08-05T13:02:54Z</time>
      </trkpt>
      <trkpt lat="42.6965" lon="1.453">
        <ele>1331.8</ele>
        <time>2020-08-05T13:02:58Z</time>
      </trkpt>
      <trkpt lat="42.69651" lon="1.45299">
        <ele>1332</ele>
        <time>2020-08-05T13:02:59Z</time>
      </trkpt>
      <trkpt lat="42.69659" lon="1.45293">
        <ele>1332.4</ele>
        <time>2020-08-05T13:03:04Z</time>
      </trkpt>
      <trkpt lat="42.69661" lon="1.45291">
        <ele>1332.8</ele>
        <time>2020-08-05T13:03:06Z</time>
      </trkpt>
      <trkpt lat="42.69668" lon="1.45287">
        <ele>1333.4</ele>
        <time>2020-08-05T13:03:11Z</time>
      </trkpt>
      <trkpt lat="42.69671" lon="1.45285">
        <ele>1333.8</ele>
        <time>2020-08-05T13:03:14Z</time>
      </trkpt>
      <trkpt lat="42.69675" lon="1.45282">
        <ele>1334.4</ele>
        <time>2020-08-05T13:03:18Z</time>
      </trkpt>
      <trkpt lat="42.69678" lon="1.45281">
        <ele>1334.8</ele>
        <time>2020-08-05T13:03:20Z</time>
      </trkpt>
      <trkpt lat="42.69683" lon="1.45276">
        <ele>1335.6</ele>
        <time>2020-08-05T13:03:25Z</time>
      </trkpt>
      <trkpt lat="42.69688" lon="1.45274">
        <ele>1336.2</ele>
        <time>2020-08-05T13:03:29Z</time>
      </trkpt>
      <trkpt lat="42.69691" lon="1.45271">
        <ele>1336.6</ele>
        <time>2020-08-05T13:03:32Z</time>
      </trkpt>
      <trkpt lat="42.69696" lon="1.45266">
        <ele>1337.2</ele>
        <time>2020-08-05T13:03:36Z</time>
      </trkpt>
      <trkpt lat="42.697" lon="1.45263">
        <ele>1337.8</ele>
        <time>2020-08-05T13:03:39Z</time>
      </trkpt>
      <trkpt lat="42.69705" lon="1.4526">
        <ele>1338.2</ele>
        <time>2020-08-05T13:03:43Z</time>
      </trkpt>
      <trkpt lat="42.69709" lon="1.45256">
        <ele>1338.8</ele>
        <time>2020-08-05T13:03:46Z</time>
      </trkpt>
      <trkpt lat="42.69714" lon="1.45253">
        <ele>1339.4</ele>
        <time>2020-08-05T13:03:50Z</time>
      </trkpt>
      <trkpt lat="42.6972" lon="1.45248">
        <ele>1339.8</ele>
        <time>2020-08-05T13:03:55Z</time>
      </trkpt>
      <trkpt lat="42.69722" lon="1.45248">
        <ele>1340.2</ele>
        <time>2020-08-05T13:03:57Z</time>
      </trkpt>
      <trkpt lat="42.69731" lon="1.45247">
        <ele>1340.8</ele>
        <time>2020-08-05T13:04:04Z</time>
      </trkpt>
      <trkpt lat="42.69739" lon="1.45248">
        <ele>1342</ele>
        <time>2020-08-05T13:04:10Z</time>
      </trkpt>
      <trkpt lat="42.69742" lon="1.45248">
        <ele>1342.2</ele>
        <time>2020-08-05T13:04:13Z</time>
      </trkpt>
      <trkpt lat="42.69746" lon="1.45249">
        <ele>1343</ele>
        <time>2020-08-05T13:04:17Z</time>
      </trkpt>
      <trkpt lat="42.6975" lon="1.45249">
        <ele>1343.6</ele>
        <time>2020-08-05T13:04:20Z</time>
      </trkpt>
      <trkpt lat="42.69755" lon="1.45248">
        <ele>1344.2</ele>
        <time>2020-08-05T13:04:24Z</time>
      </trkpt>
      <trkpt lat="42.69757" lon="1.45249">
        <ele>1344.6</ele>
        <time>2020-08-05T13:04:27Z</time>
      </trkpt>
      <trkpt lat="42.69762" lon="1.45249">
        <ele>1345.2</ele>
        <time>2020-08-05T13:04:31Z</time>
      </trkpt>
      <trkpt lat="42.69765" lon="1.45249">
        <ele>1345.4</ele>
        <time>2020-08-05T13:04:33Z</time>
      </trkpt>
      <trkpt lat="42.69769" lon="1.4525">
        <ele>1346.2</ele>
        <time>2020-08-05T13:04:37Z</time>
      </trkpt>
      <trkpt lat="42.69773" lon="1.4525">
        <ele>1346.8</ele>
        <time>2020-08-05T13:04:41Z</time>
      </trkpt>
      <trkpt lat="42.69777" lon="1.4525">
        <ele>1347.2</ele>
        <time>2020-08-05T13:04:44Z</time>
      </trkpt>
      <trkpt lat="42.69783" lon="1.45252">
        <ele>1348.2</ele>
        <time>2020-08-05T13:04:50Z</time>
      </trkpt>
      <trkpt lat="42.69785" lon="1.45253">
        <ele>1348.2</ele>
        <time>2020-08-05T13:04:51Z</time>
      </trkpt>
      <trkpt lat="42.69794" lon="1.45253">
        <ele>1349.2</ele>
        <time>2020-08-05T13:04:59Z</time>
      </trkpt>
      <trkpt lat="42.69795" lon="1.45253">
        <ele>1349.4</ele>
        <time>2020-08-05T13:05:00Z</time>
      </trkpt>
      <trkpt lat="42.69799" lon="1.45253">
        <ele>1349.8</ele>
        <time>2020-08-05T13:05:04Z</time>
      </trkpt>
      <trkpt lat="42.69802" lon="1.45255">
        <ele>1350.2</ele>
        <time>2020-08-05T13:05:06Z</time>
      </trkpt>
      <trkpt lat="42.69805" lon="1.45257">
        <ele>1350.4</ele>
        <time>2020-08-05T13:05:09Z</time>
      </trkpt>
      <trkpt lat="42.69806" lon="1.45258">
        <ele>1350.4</ele>
        <time>2020-08-05T13:05:10Z</time>
      </trkpt>
      <trkpt lat="42.69809" lon="1.45261">
        <ele>1350.8</ele>
        <time>2020-08-05T13:05:13Z</time>
      </trkpt>
      <trkpt lat="42.69815" lon="1.45265">
        <ele>1351.4</ele>
        <time>2020-08-05T13:05:18Z</time>
      </trkpt>
      <trkpt lat="42.69815" lon="1.45267">
        <ele>1351.6</ele>
        <time>2020-08-05T13:05:19Z</time>
      </trkpt>
      <trkpt lat="42.69817" lon="1.45269">
        <ele>1351.8</ele>
        <time>2020-08-05T13:05:21Z</time>
      </trkpt>
      <trkpt lat="42.69821" lon="1.4527">
        <ele>1352.2</ele>
        <time>2020-08-05T13:05:24Z</time>
      </trkpt>
      <trkpt lat="42.69823" lon="1.45272">
        <ele>1352.4</ele>
        <time>2020-08-05T13:05:26Z</time>
      </trkpt>
      <trkpt lat="42.69825" lon="1.45274">
        <ele>1352.8</ele>
        <time>2020-08-05T13:05:28Z</time>
      </trkpt>
      <trkpt lat="42.69828" lon="1.45275">
        <ele>1353.2</ele>
        <time>2020-08-05T13:05:30Z</time>
      </trkpt>
      <trkpt lat="42.69829" lon="1.45275">
        <ele>1353.4</ele>
        <time>2020-08-05T13:05:31Z</time>
      </trkpt>
      <trkpt lat="42.6983" lon="1.45274">
        <ele>1353.4</ele>
        <time>2020-08-05T13:05:32Z</time>
      </trkpt>
      <trkpt lat="42.69833" lon="1.45275">
        <ele>1353.8</ele>
        <time>2020-08-05T13:05:35Z</time>
      </trkpt>
      <trkpt lat="42.69835" lon="1.45276">
        <ele>1354</ele>
        <time>2020-08-05T13:05:36Z</time>
      </trkpt>
      <trkpt lat="42.69837" lon="1.45275">
        <ele>1354.2</ele>
        <time>2020-08-05T13:05:38Z</time>
      </trkpt>
      <trkpt lat="42.69842" lon="1.45275">
        <ele>1354.6</ele>
        <time>2020-08-05T13:05:41Z</time>
      </trkpt>
      <trkpt lat="42.69843" lon="1.45276">
        <ele>1354.8</ele>
        <time>2020-08-05T13:05:42Z</time>
      </trkpt>
      <trkpt lat="42.6985" lon="1.45274">
        <ele>1355.8</ele>
        <time>2020-08-05T13:05:48Z</time>
      </trkpt>
      <trkpt lat="42.69851" lon="1.45273">
        <ele>1355.8</ele>
        <time>2020-08-05T13:05:49Z</time>
      </trkpt>
      <trkpt lat="42.69853" lon="1.45274">
        <ele>1355.8</ele>
        <time>2020-08-05T13:05:50Z</time>
      </trkpt>
      <trkpt lat="42.69858" lon="1.45274">
        <ele>1356.6</ele>
        <time>2020-08-05T13:05:54Z</time>
      </trkpt>
      <trkpt lat="42.69859" lon="1.45274">
        <ele>1356.6</ele>
        <time>2020-08-05T13:05:55Z</time>
      </trkpt>
      <trkpt lat="42.6986" lon="1.45274">
        <ele>1356.8</ele>
        <time>2020-08-05T13:05:56Z</time>
      </trkpt>
      <trkpt lat="42.69866" lon="1.45272">
        <ele>1357.4</ele>
        <time>2020-08-05T13:06:01Z</time>
      </trkpt>
      <trkpt lat="42.69867" lon="1.45272">
        <ele>1357.6</ele>
        <time>2020-08-05T13:06:02Z</time>
      </trkpt>
      <trkpt lat="42.69869" lon="1.45272">
        <ele>1357.8</ele>
        <time>2020-08-05T13:06:03Z</time>
      </trkpt>
      <trkpt lat="42.69873" lon="1.45272">
        <ele>1358.4</ele>
        <time>2020-08-05T13:06:07Z</time>
      </trkpt>
      <trkpt lat="42.69874" lon="1.45272">
        <ele>1358.4</ele>
        <time>2020-08-05T13:06:08Z</time>
      </trkpt>
      <trkpt lat="42.69878" lon="1.45272">
        <ele>1358.8</ele>
        <time>2020-08-05T13:06:11Z</time>
      </trkpt>
      <trkpt lat="42.69883" lon="1.45273">
        <ele>1359.6</ele>
        <time>2020-08-05T13:06:15Z</time>
      </trkpt>
      <trkpt lat="42.69887" lon="1.45273">
        <ele>1360.2</ele>
        <time>2020-08-05T13:06:18Z</time>
      </trkpt>
      <trkpt lat="42.69892" lon="1.45271">
        <ele>1360.6</ele>
        <time>2020-08-05T13:06:22Z</time>
      </trkpt>
      <trkpt lat="42.69895" lon="1.45271">
        <ele>1361.2</ele>
        <time>2020-08-05T13:06:25Z</time>
      </trkpt>
      <trkpt lat="42.69901" lon="1.4527">
        <ele>1361.6</ele>
        <time>2020-08-05T13:06:29Z</time>
      </trkpt>
      <trkpt lat="42.69908" lon="1.45268">
        <ele>1362.2</ele>
        <time>2020-08-05T13:06:35Z</time>
      </trkpt>
      <trkpt lat="42.69909" lon="1.45268">
        <ele>1362.2</ele>
        <time>2020-08-05T13:06:36Z</time>
      </trkpt>
      <trkpt lat="42.69916" lon="1.45269">
        <ele>1363.4</ele>
        <time>2020-08-05T13:06:42Z</time>
      </trkpt>
      <trkpt lat="42.69918" lon="1.4527">
        <ele>1363.4</ele>
        <time>2020-08-05T13:06:44Z</time>
      </trkpt>
      <trkpt lat="42.69923" lon="1.45272">
        <ele>1364.4</ele>
        <time>2020-08-05T13:06:49Z</time>
      </trkpt>
      <trkpt lat="42.69924" lon="1.45272">
        <ele>1364.6</ele>
        <time>2020-08-05T13:06:50Z</time>
      </trkpt>
      <trkpt lat="42.69931" lon="1.45274">
        <ele>1365.6</ele>
        <time>2020-08-05T13:06:57Z</time>
      </trkpt>
      <trkpt lat="42.69932" lon="1.45274">
        <ele>1365.6</ele>
        <time>2020-08-05T13:07:02Z</time>
      </trkpt>
      <trkpt lat="42.69932" lon="1.45274">
        <ele>1366</ele>
        <time>2020-08-05T13:07:11Z</time>
      </trkpt>
      <trkpt lat="42.69932" lon="1.45274">
        <ele>1365.8</ele>
        <time>2020-08-05T13:07:23Z</time>
      </trkpt>
      <trkpt lat="42.69932" lon="1.45274">
        <ele>1365.6</ele>
        <time>2020-08-05T13:07:37Z</time>
      </trkpt>
      <trkpt lat="42.69932" lon="1.45274">
        <ele>1365.8</ele>
        <time>2020-08-05T13:07:49Z</time>
      </trkpt>
      <trkpt lat="42.69932" lon="1.45274">
        <ele>1365.8</ele>
        <time>2020-08-05T13:08:08Z</time>
      </trkpt>
      <trkpt lat="42.69932" lon="1.45274">
        <ele>1365.6</ele>
        <time>2020-08-05T13:08:26Z</time>
      </trkpt>
      <trkpt lat="42.69932" lon="1.45274">
        <ele>1365.2</ele>
        <time>2020-08-05T13:08:40Z</time>
      </trkpt>
      <trkpt lat="42.69932" lon="1.45274">
        <ele>1365.2</ele>
        <time>2020-08-05T13:09:01Z</time>
      </trkpt>
      <trkpt lat="42.69932" lon="1.45275">
        <ele>1365.2</ele>
        <time>2020-08-05T13:09:22Z</time>
      </trkpt>
      <trkpt lat="42.69932" lon="1.45275">
        <ele>1365.2</ele>
        <time>2020-08-05T13:09:38Z</time>
      </trkpt>
      <trkpt lat="42.69932" lon="1.45274">
        <ele>1365.4</ele>
        <time>2020-08-05T13:09:52Z</time>
      </trkpt>
      <trkpt lat="42.69932" lon="1.45274">
        <ele>1365.4</ele>
        <time>2020-08-05T13:09:53Z</time>
      </trkpt>
      <trkpt lat="42.69932" lon="1.45274">
        <ele>1365.2</ele>
        <time>2020-08-05T13:10:10Z</time>
      </trkpt>
      <trkpt lat="42.69932" lon="1.45275">
        <ele>1365.2</ele>
        <time>2020-08-05T13:10:26Z</time>
      </trkpt>
      <trkpt lat="42.69932" lon="1.45275">
        <ele>1365.2</ele>
        <time>2020-08-05T13:10:41Z</time>
      </trkpt>
      <trkpt lat="42.69932" lon="1.45275">
        <ele>1365.2</ele>
        <time>2020-08-05T13:10:54Z</time>
      </trkpt>
      <trkpt lat="42.69932" lon="1.45274">
        <ele>1365.2</ele>
        <time>2020-08-05T13:11:08Z</time>
      </trkpt>
      <trkpt lat="42.69932" lon="1.45274">
        <ele>1365.4</ele>
        <time>2020-08-05T13:11:22Z</time>
      </trkpt>
      <trkpt lat="42.69932" lon="1.45274">
        <ele>1365.4</ele>
        <time>2020-08-05T13:11:30Z</time>
      </trkpt>
      <trkpt lat="42.69932" lon="1.45274">
        <ele>1365.6</ele>
        <time>2020-08-05T13:11:37Z</time>
      </trkpt>
      <trkpt lat="42.69932" lon="1.45274">
        <ele>1365.6</ele>
        <time>2020-08-05T13:11:51Z</time>
      </trkpt>
      <trkpt lat="42.69934" lon="1.45275">
        <ele>1366</ele>
        <time>2020-08-05T13:11:58Z</time>
      </trkpt>
      <trkpt lat="42.69939" lon="1.45278">
        <ele>1366.6</ele>
        <time>2020-08-05T13:12:03Z</time>
      </trkpt>
      <trkpt lat="42.6994" lon="1.45277">
        <ele>1366.6</ele>
        <time>2020-08-05T13:12:04Z</time>
      </trkpt>
      <trkpt lat="42.69951" lon="1.45277">
        <ele>1367.6</ele>
        <time>2020-08-05T13:12:12Z</time>
      </trkpt>
      <trkpt lat="42.69954" lon="1.45277">
        <ele>1368</ele>
        <time>2020-08-05T13:12:15Z</time>
      </trkpt>
      <trkpt lat="42.69958" lon="1.45278">
        <ele>1368.4</ele>
        <time>2020-08-05T13:12:18Z</time>
      </trkpt>
      <trkpt lat="42.69958" lon="1.45279">
        <ele>1368.6</ele>
        <time>2020-08-05T13:12:19Z</time>
      </trkpt>
      <trkpt lat="42.69961" lon="1.4528">
        <ele>1368.8</ele>
        <time>2020-08-05T13:12:21Z</time>
      </trkpt>
      <trkpt lat="42.69964" lon="1.45281">
        <ele>1369.2</ele>
        <time>2020-08-05T13:12:24Z</time>
      </trkpt>
      <trkpt lat="42.69965" lon="1.45282">
        <ele>1369.6</ele>
        <time>2020-08-05T13:12:25Z</time>
      </trkpt>
      <trkpt lat="42.69967" lon="1.45284">
        <ele>1369.8</ele>
        <time>2020-08-05T13:12:27Z</time>
      </trkpt>
      <trkpt lat="42.6997" lon="1.45286">
        <ele>1370.2</ele>
        <time>2020-08-05T13:12:30Z</time>
      </trkpt>
      <trkpt lat="42.69974" lon="1.4529">
        <ele>1371</ele>
        <time>2020-08-05T13:12:34Z</time>
      </trkpt>
      <trkpt lat="42.69978" lon="1.45293">
        <ele>1371.4</ele>
        <time>2020-08-05T13:12:38Z</time>
      </trkpt>
      <trkpt lat="42.69981" lon="1.45294">
        <ele>1371.8</ele>
        <time>2020-08-05T13:12:41Z</time>
      </trkpt>
      <trkpt lat="42.69981" lon="1.45295">
        <ele>1372</ele>
        <time>2020-08-05T13:12:42Z</time>
      </trkpt>
      <trkpt lat="42.69987" lon="1.45298">
        <ele>1372.8</ele>
        <time>2020-08-05T13:12:47Z</time>
      </trkpt>
      <trkpt lat="42.69989" lon="1.45299">
        <ele>1373</ele>
        <time>2020-08-05T13:12:49Z</time>
      </trkpt>
      <trkpt lat="42.69991" lon="1.45299">
        <ele>1373.2</ele>
        <time>2020-08-05T13:12:51Z</time>
      </trkpt>
      <trkpt lat="42.69995" lon="1.453">
        <ele>1373.2</ele>
        <time>2020-08-05T13:12:53Z</time>
      </trkpt>
      <trkpt lat="42.70001" lon="1.45304">
        <ele>1373.4</ele>
        <time>2020-08-05T13:12:58Z</time>
      </trkpt>
      <trkpt lat="42.70001" lon="1.45306">
        <ele>1373.2</ele>
        <time>2020-08-05T13:12:59Z</time>
      </trkpt>
      <trkpt lat="42.69996" lon="1.45311">
        <ele>1373.4</ele>
        <time>2020-08-05T13:13:04Z</time>
      </trkpt>
      <trkpt lat="42.69992" lon="1.45306">
        <ele>1374</ele>
        <time>2020-08-05T13:13:08Z</time>
      </trkpt>
      <trkpt lat="42.69991" lon="1.45305">
        <ele>1374.2</ele>
        <time>2020-08-05T13:13:09Z</time>
      </trkpt>
      <trkpt lat="42.6999" lon="1.45305">
        <ele>1374.4</ele>
        <time>2020-08-05T13:13:10Z</time>
      </trkpt>
      <trkpt lat="42.69981" lon="1.45304">
        <ele>1375</ele>
        <time>2020-08-05T13:13:17Z</time>
      </trkpt>
      <trkpt lat="42.69979" lon="1.45302">
        <ele>1375.2</ele>
        <time>2020-08-05T13:13:19Z</time>
      </trkpt>
      <trkpt lat="42.6997" lon="1.453">
        <ele>1375.8</ele>
        <time>2020-08-05T13:13:24Z</time>
      </trkpt>
      <trkpt lat="42.69965" lon="1.45299">
        <ele>1376.4</ele>
        <time>2020-08-05T13:13:27Z</time>
      </trkpt>
      <trkpt lat="42.69959" lon="1.45298">
        <ele>1377</ele>
        <time>2020-08-05T13:13:31Z</time>
      </trkpt>
      <trkpt lat="42.69953" lon="1.45299">
        <ele>1377.4</ele>
        <time>2020-08-05T13:13:35Z</time>
      </trkpt>
      <trkpt lat="42.69949" lon="1.45301">
        <ele>1377.8</ele>
        <time>2020-08-05T13:13:38Z</time>
      </trkpt>
      <trkpt lat="42.6994" lon="1.45305">
        <ele>1378.6</ele>
        <time>2020-08-05T13:13:44Z</time>
      </trkpt>
      <trkpt lat="42.69937" lon="1.45305">
        <ele>1379</ele>
        <time>2020-08-05T13:13:46Z</time>
      </trkpt>
      <trkpt lat="42.69928" lon="1.45306">
        <ele>1379.8</ele>
        <time>2020-08-05T13:13:52Z</time>
      </trkpt>
      <trkpt lat="42.69924" lon="1.45305">
        <ele>1380.4</ele>
        <time>2020-08-05T13:13:55Z</time>
      </trkpt>
      <trkpt lat="42.69921" lon="1.45306">
        <ele>1380.6</ele>
        <time>2020-08-05T13:13:57Z</time>
      </trkpt>
      <trkpt lat="42.6992" lon="1.45305">
        <ele>1380.8</ele>
        <time>2020-08-05T13:13:58Z</time>
      </trkpt>
      <trkpt lat="42.69917" lon="1.45305">
        <ele>1381.2</ele>
        <time>2020-08-05T13:14:01Z</time>
      </trkpt>
      <trkpt lat="42.6991" lon="1.45305">
        <ele>1381.8</ele>
        <time>2020-08-05T13:14:06Z</time>
      </trkpt>
      <trkpt lat="42.69904" lon="1.45307">
        <ele>1382.2</ele>
        <time>2020-08-05T13:14:10Z</time>
      </trkpt>
      <trkpt lat="42.69897" lon="1.45308">
        <ele>1383</ele>
        <time>2020-08-05T13:14:16Z</time>
      </trkpt>
      <trkpt lat="42.69895" lon="1.45309">
        <ele>1383.2</ele>
        <time>2020-08-05T13:14:17Z</time>
      </trkpt>
      <trkpt lat="42.69894" lon="1.45309">
        <ele>1383.4</ele>
        <time>2020-08-05T13:14:18Z</time>
      </trkpt>
      <trkpt lat="42.69892" lon="1.4531">
        <ele>1384</ele>
        <time>2020-08-05T13:14:20Z</time>
      </trkpt>
      <trkpt lat="42.69891" lon="1.45311">
        <ele>1384.2</ele>
        <time>2020-08-05T13:14:21Z</time>
      </trkpt>
      <trkpt lat="42.69887" lon="1.45315">
        <ele>1384.6</ele>
        <time>2020-08-05T13:14:25Z</time>
      </trkpt>
      <trkpt lat="42.69881" lon="1.45318">
        <ele>1385.4</ele>
        <time>2020-08-05T13:14:30Z</time>
      </trkpt>
      <trkpt lat="42.69879" lon="1.4532">
        <ele>1385.6</ele>
        <time>2020-08-05T13:14:32Z</time>
      </trkpt>
      <trkpt lat="42.69875" lon="1.45324">
        <ele>1386.4</ele>
        <time>2020-08-05T13:14:36Z</time>
      </trkpt>
      <trkpt lat="42.69874" lon="1.45324">
        <ele>1386.4</ele>
        <time>2020-08-05T13:14:37Z</time>
      </trkpt>
      <trkpt lat="42.69871" lon="1.45326">
        <ele>1387</ele>
        <time>2020-08-05T13:14:40Z</time>
      </trkpt>
      <trkpt lat="42.69869" lon="1.45326">
        <ele>1387.8</ele>
        <time>2020-08-05T13:14:42Z</time>
      </trkpt>
      <trkpt lat="42.69863" lon="1.45331">
        <ele>1388.4</ele>
        <time>2020-08-05T13:14:48Z</time>
      </trkpt>
      <trkpt lat="42.6986" lon="1.45333">
        <ele>1388.8</ele>
        <time>2020-08-05T13:14:51Z</time>
      </trkpt>
      <trkpt lat="42.69856" lon="1.45335">
        <ele>1389.4</ele>
        <time>2020-08-05T13:14:55Z</time>
      </trkpt>
      <trkpt lat="42.69853" lon="1.45336">
        <ele>1389.8</ele>
        <time>2020-08-05T13:14:58Z</time>
      </trkpt>
      <trkpt lat="42.69849" lon="1.45339">
        <ele>1390.4</ele>
        <time>2020-08-05T13:15:02Z</time>
      </trkpt>
      <trkpt lat="42.69847" lon="1.4534">
        <ele>1390.6</ele>
        <time>2020-08-05T13:15:04Z</time>
      </trkpt>
      <trkpt lat="42.69845" lon="1.45342">
        <ele>1391</ele>
        <time>2020-08-05T13:15:06Z</time>
      </trkpt>
      <trkpt lat="42.69843" lon="1.45343">
        <ele>1391</ele>
        <time>2020-08-05T13:15:08Z</time>
      </trkpt>
      <trkpt lat="42.69838" lon="1.45348">
        <ele>1392</ele>
        <time>2020-08-05T13:15:13Z</time>
      </trkpt>
      <trkpt lat="42.69833" lon="1.4535">
        <ele>1392.6</ele>
        <time>2020-08-05T13:15:18Z</time>
      </trkpt>
      <trkpt lat="42.6983" lon="1.45353">
        <ele>1393.2</ele>
        <time>2020-08-05T13:15:21Z</time>
      </trkpt>
      <trkpt lat="42.69827" lon="1.45354">
        <ele>1393.6</ele>
        <time>2020-08-05T13:15:24Z</time>
      </trkpt>
      <trkpt lat="42.69822" lon="1.45356">
        <ele>1394.2</ele>
        <time>2020-08-05T13:15:28Z</time>
      </trkpt>
      <trkpt lat="42.6982" lon="1.45357">
        <ele>1394.2</ele>
        <time>2020-08-05T13:15:29Z</time>
      </trkpt>
      <trkpt lat="42.69819" lon="1.45357">
        <ele>1394.4</ele>
        <time>2020-08-05T13:15:30Z</time>
      </trkpt>
      <trkpt lat="42.69815" lon="1.45359">
        <ele>1395</ele>
        <time>2020-08-05T13:15:33Z</time>
      </trkpt>
      <trkpt lat="42.69812" lon="1.4536">
        <ele>1395.2</ele>
        <time>2020-08-05T13:15:36Z</time>
      </trkpt>
      <trkpt lat="42.69808" lon="1.45361">
        <ele>1395.6</ele>
        <time>2020-08-05T13:15:39Z</time>
      </trkpt>
      <trkpt lat="42.69801" lon="1.45365">
        <ele>1396.4</ele>
        <time>2020-08-05T13:15:45Z</time>
      </trkpt>
      <trkpt lat="42.69798" lon="1.45366">
        <ele>1396.6</ele>
        <time>2020-08-05T13:15:47Z</time>
      </trkpt>
      <trkpt lat="42.6979" lon="1.45372">
        <ele>1397.4</ele>
        <time>2020-08-05T13:15:54Z</time>
      </trkpt>
      <trkpt lat="42.69787" lon="1.45374">
        <ele>1397.8</ele>
        <time>2020-08-05T13:15:56Z</time>
      </trkpt>
      <trkpt lat="42.69781" lon="1.45378">
        <ele>1398.4</ele>
        <time>2020-08-05T13:16:01Z</time>
      </trkpt>
      <trkpt lat="42.69777" lon="1.45381">
        <ele>1399</ele>
        <time>2020-08-05T13:16:05Z</time>
      </trkpt>
      <trkpt lat="42.6977" lon="1.45387">
        <ele>1399.6</ele>
        <time>2020-08-05T13:16:11Z</time>
      </trkpt>
      <trkpt lat="42.69767" lon="1.45389">
        <ele>1399.8</ele>
        <time>2020-08-05T13:16:13Z</time>
      </trkpt>
      <trkpt lat="42.69761" lon="1.45395">
        <ele>1400.8</ele>
        <time>2020-08-05T13:16:19Z</time>
      </trkpt>
      <trkpt lat="42.6976" lon="1.45397">
        <ele>1400.8</ele>
        <time>2020-08-05T13:16:20Z</time>
      </trkpt>
      <trkpt lat="42.69755" lon="1.45407">
        <ele>1401.6</ele>
        <time>2020-08-05T13:16:28Z</time>
      </trkpt>
      <trkpt lat="42.69754" lon="1.45408">
        <ele>1401.8</ele>
        <time>2020-08-05T13:16:29Z</time>
      </trkpt>
      <trkpt lat="42.69752" lon="1.45412">
        <ele>1402.2</ele>
        <time>2020-08-05T13:16:32Z</time>
      </trkpt>
      <trkpt lat="42.69752" lon="1.45415">
        <ele>1402.4</ele>
        <time>2020-08-05T13:16:34Z</time>
      </trkpt>
      <trkpt lat="42.69755" lon="1.45417">
        <ele>1402.8</ele>
        <time>2020-08-05T13:16:37Z</time>
      </trkpt>
      <trkpt lat="42.69758" lon="1.45417">
        <ele>1403.2</ele>
        <time>2020-08-05T13:16:40Z</time>
      </trkpt>
      <trkpt lat="42.69764" lon="1.45414">
        <ele>1403.8</ele>
        <time>2020-08-05T13:16:46Z</time>
      </trkpt>
      <trkpt lat="42.69766" lon="1.45412">
        <ele>1403.8</ele>
        <time>2020-08-05T13:16:48Z</time>
      </trkpt>
      <trkpt lat="42.69771" lon="1.45408">
        <ele>1404.2</ele>
        <time>2020-08-05T13:16:54Z</time>
      </trkpt>
      <trkpt lat="42.69773" lon="1.45406">
        <ele>1404.4</ele>
        <time>2020-08-05T13:17:01Z</time>
      </trkpt>
      <trkpt lat="42.69774" lon="1.45406">
        <ele>1404.4</ele>
        <time>2020-08-05T13:17:07Z</time>
      </trkpt>
      <trkpt lat="42.69775" lon="1.45405">
        <ele>1404.6</ele>
        <time>2020-08-05T13:17:08Z</time>
      </trkpt>
      <trkpt lat="42.69777" lon="1.45404">
        <ele>1404.6</ele>
        <time>2020-08-05T13:17:10Z</time>
      </trkpt>
      <trkpt lat="42.69778" lon="1.45405">
        <ele>1404.6</ele>
        <time>2020-08-05T13:17:13Z</time>
      </trkpt>
      <trkpt lat="42.69778" lon="1.45406">
        <ele>1404.6</ele>
        <time>2020-08-05T13:17:14Z</time>
      </trkpt>
      <trkpt lat="42.69773" lon="1.45407">
        <ele>1404.2</ele>
        <time>2020-08-05T13:17:18Z</time>
      </trkpt>
      <trkpt lat="42.69763" lon="1.45415">
        <ele>1404</ele>
        <time>2020-08-05T13:17:24Z</time>
      </trkpt>
      <trkpt lat="42.69749" lon="1.45421">
        <ele>1403.2</ele>
        <time>2020-08-05T13:17:28Z</time>
      </trkpt>
      <trkpt lat="42.69743" lon="1.45427">
        <ele>1403.8</ele>
        <time>2020-08-05T13:17:32Z</time>
      </trkpt>
      <trkpt lat="42.69736" lon="1.45439">
        <ele>1405</ele>
        <time>2020-08-05T13:17:40Z</time>
      </trkpt>
      <trkpt lat="42.69735" lon="1.45444">
        <ele>1405.2</ele>
        <time>2020-08-05T13:17:43Z</time>
      </trkpt>
      <trkpt lat="42.6973" lon="1.45452">
        <ele>1406.2</ele>
        <time>2020-08-05T13:17:48Z</time>
      </trkpt>
      <trkpt lat="42.69724" lon="1.45463">
        <ele>1407.2</ele>
        <time>2020-08-05T13:17:55Z</time>
      </trkpt>
      <trkpt lat="42.69723" lon="1.45464">
        <ele>1407.4</ele>
        <time>2020-08-05T13:17:56Z</time>
      </trkpt>
      <trkpt lat="42.69718" lon="1.45472">
        <ele>1408.4</ele>
        <time>2020-08-05T13:18:01Z</time>
      </trkpt>
      <trkpt lat="42.69717" lon="1.45473">
        <ele>1408.4</ele>
        <time>2020-08-05T13:18:02Z</time>
      </trkpt>
      <trkpt lat="42.69713" lon="1.45482">
        <ele>1409.2</ele>
        <time>2020-08-05T13:18:08Z</time>
      </trkpt>
      <trkpt lat="42.69712" lon="1.45483">
        <ele>1409.2</ele>
        <time>2020-08-05T13:18:09Z</time>
      </trkpt>
      <trkpt lat="42.69712" lon="1.45484">
        <ele>1409.4</ele>
        <time>2020-08-05T13:18:10Z</time>
      </trkpt>
      <trkpt lat="42.69711" lon="1.45485">
        <ele>1409.8</ele>
        <time>2020-08-05T13:18:13Z</time>
      </trkpt>
      <trkpt lat="42.69709" lon="1.45491">
        <ele>1410.2</ele>
        <time>2020-08-05T13:18:19Z</time>
      </trkpt>
      <trkpt lat="42.69708" lon="1.45493">
        <ele>1410.4</ele>
        <time>2020-08-05T13:18:20Z</time>
      </trkpt>
      <trkpt lat="42.69708" lon="1.45494">
        <ele>1410.6</ele>
        <time>2020-08-05T13:18:21Z</time>
      </trkpt>
      <trkpt lat="42.69706" lon="1.45501">
        <ele>1411.2</ele>
        <time>2020-08-05T13:18:25Z</time>
      </trkpt>
      <trkpt lat="42.69705" lon="1.45502">
        <ele>1411.4</ele>
        <time>2020-08-05T13:18:26Z</time>
      </trkpt>
      <trkpt lat="42.69705" lon="1.45504">
        <ele>1411.4</ele>
        <time>2020-08-05T13:18:27Z</time>
      </trkpt>
      <trkpt lat="42.69704" lon="1.45508">
        <ele>1411.8</ele>
        <time>2020-08-05T13:18:30Z</time>
      </trkpt>
      <trkpt lat="42.69703" lon="1.45513">
        <ele>1412.4</ele>
        <time>2020-08-05T13:18:36Z</time>
      </trkpt>
      <trkpt lat="42.69703" lon="1.45513">
        <ele>1412.4</ele>
        <time>2020-08-05T13:18:40Z</time>
      </trkpt>
      <trkpt lat="42.69702" lon="1.45515">
        <ele>1412.4</ele>
        <time>2020-08-05T13:18:48Z</time>
      </trkpt>
      <trkpt lat="42.69698" lon="1.45525">
        <ele>1413</ele>
        <time>2020-08-05T13:18:56Z</time>
      </trkpt>
      <trkpt lat="42.69696" lon="1.45528">
        <ele>1413.4</ele>
        <time>2020-08-05T13:18:59Z</time>
      </trkpt>
      <trkpt lat="42.69694" lon="1.45534">
        <ele>1413.6</ele>
        <time>2020-08-05T13:19:04Z</time>
      </trkpt>
      <trkpt lat="42.69693" lon="1.45535">
        <ele>1413.6</ele>
        <time>2020-08-05T13:19:05Z</time>
      </trkpt>
      <trkpt lat="42.69692" lon="1.4554">
        <ele>1413.8</ele>
        <time>2020-08-05T13:19:10Z</time>
      </trkpt>
      <trkpt lat="42.69691" lon="1.45542">
        <ele>1413.8</ele>
        <time>2020-08-05T13:19:17Z</time>
      </trkpt>
      <trkpt lat="42.69691" lon="1.45542">
        <ele>1413.8</ele>
        <time>2020-08-05T13:19:33Z</time>
      </trkpt>
      <trkpt lat="42.69691" lon="1.45542">
        <ele>1414</ele>
        <time>2020-08-05T13:19:47Z</time>
      </trkpt>
      <trkpt lat="42.69691" lon="1.45542">
        <ele>1414.2</ele>
        <time>2020-08-05T13:19:57Z</time>
      </trkpt>
      <trkpt lat="42.69691" lon="1.45542">
        <ele>1414.2</ele>
        <time>2020-08-05T13:20:08Z</time>
      </trkpt>
      <trkpt lat="42.69691" lon="1.45542">
        <ele>1414.2</ele>
        <time>2020-08-05T13:20:09Z</time>
      </trkpt>
      <trkpt lat="42.69691" lon="1.45542">
        <ele>1414</ele>
        <time>2020-08-05T13:20:17Z</time>
      </trkpt>
      <trkpt lat="42.69687" lon="1.45545">
        <ele>1414</ele>
        <time>2020-08-05T13:20:23Z</time>
      </trkpt>
      <trkpt lat="42.69688" lon="1.45548">
        <ele>1414.2</ele>
        <time>2020-08-05T13:20:28Z</time>
      </trkpt>
      <trkpt lat="42.69689" lon="1.45547">
        <ele>1414</ele>
        <time>2020-08-05T13:20:29Z</time>
      </trkpt>
      <trkpt lat="42.69692" lon="1.45541">
        <ele>1414</ele>
        <time>2020-08-05T13:20:35Z</time>
      </trkpt>
      <trkpt lat="42.69695" lon="1.45534">
        <ele>1413.6</ele>
        <time>2020-08-05T13:20:42Z</time>
      </trkpt>
      <trkpt lat="42.69696" lon="1.45531">
        <ele>1413.4</ele>
        <time>2020-08-05T13:20:48Z</time>
      </trkpt>
      <trkpt lat="42.69695" lon="1.45533">
        <ele>1413.4</ele>
        <time>2020-08-05T13:20:55Z</time>
      </trkpt>
      <trkpt lat="42.69692" lon="1.45538">
        <ele>1413.6</ele>
        <time>2020-08-05T13:21:02Z</time>
      </trkpt>
      <trkpt lat="42.69689" lon="1.45542">
        <ele>1413.8</ele>
        <time>2020-08-05T13:21:09Z</time>
      </trkpt>
      <trkpt lat="42.69688" lon="1.45543">
        <ele>1413.8</ele>
        <time>2020-08-05T13:21:10Z</time>
      </trkpt>
      <trkpt lat="42.69687" lon="1.45547">
        <ele>1414</ele>
        <time>2020-08-05T13:21:16Z</time>
      </trkpt>
      <trkpt lat="42.69687" lon="1.45549">
        <ele>1414.4</ele>
        <time>2020-08-05T13:21:23Z</time>
      </trkpt>
      <trkpt lat="42.69687" lon="1.45549">
        <ele>1414.6</ele>
        <time>2020-08-05T13:21:25Z</time>
      </trkpt>
      <trkpt lat="42.69687" lon="1.45549">
        <ele>1414.8</ele>
        <time>2020-08-05T13:21:29Z</time>
      </trkpt>
      <trkpt lat="42.69687" lon="1.45548">
        <ele>1414.4</ele>
        <time>2020-08-05T13:21:34Z</time>
      </trkpt>
      <trkpt lat="42.69687" lon="1.4555">
        <ele>1414.6</ele>
        <time>2020-08-05T13:21:44Z</time>
      </trkpt>
      <trkpt lat="42.69687" lon="1.45554">
        <ele>1415.8</ele>
        <time>2020-08-05T13:21:50Z</time>
      </trkpt>
      <trkpt lat="42.69691" lon="1.45554">
        <ele>1416.2</ele>
        <time>2020-08-05T13:21:55Z</time>
      </trkpt>
      <trkpt lat="42.69692" lon="1.45553">
        <ele>1416</ele>
        <time>2020-08-05T13:21:56Z</time>
      </trkpt>
      <trkpt lat="42.69692" lon="1.45552">
        <ele>1416</ele>
        <time>2020-08-05T13:22:02Z</time>
      </trkpt>
      <trkpt lat="42.69693" lon="1.45547">
        <ele>1416.2</ele>
        <time>2020-08-05T13:22:06Z</time>
      </trkpt>
      <trkpt lat="42.69695" lon="1.45544">
        <ele>1416.4</ele>
        <time>2020-08-05T13:22:08Z</time>
      </trkpt>
      <trkpt lat="42.69698" lon="1.45539">
        <ele>1416.8</ele>
        <time>2020-08-05T13:22:12Z</time>
      </trkpt>
      <trkpt lat="42.69699" lon="1.45538">
        <ele>1417</ele>
        <time>2020-08-05T13:22:13Z</time>
      </trkpt>
      <trkpt lat="42.697" lon="1.45535">
        <ele>1417</ele>
        <time>2020-08-05T13:22:15Z</time>
      </trkpt>
      <trkpt lat="42.69706" lon="1.45525">
        <ele>1418</ele>
        <time>2020-08-05T13:22:22Z</time>
      </trkpt>
      <trkpt lat="42.69712" lon="1.45514">
        <ele>1418.8</ele>
        <time>2020-08-05T13:22:29Z</time>
      </trkpt>
      <trkpt lat="42.69714" lon="1.4551">
        <ele>1419</ele>
        <time>2020-08-05T13:22:32Z</time>
      </trkpt>
      <trkpt lat="42.69718" lon="1.45506">
        <ele>1419.4</ele>
        <time>2020-08-05T13:22:36Z</time>
      </trkpt>
      <trkpt lat="42.69724" lon="1.45501">
        <ele>1419.8</ele>
        <time>2020-08-05T13:22:41Z</time>
      </trkpt>
      <trkpt lat="42.69725" lon="1.455">
        <ele>1420</ele>
        <time>2020-08-05T13:22:42Z</time>
      </trkpt>
      <trkpt lat="42.69725" lon="1.45498">
        <ele>1420.2</ele>
        <time>2020-08-05T13:22:43Z</time>
      </trkpt>
      <trkpt lat="42.69728" lon="1.45497">
        <ele>1420.6</ele>
        <time>2020-08-05T13:22:45Z</time>
      </trkpt>
      <trkpt lat="42.69732" lon="1.45493">
        <ele>1421</ele>
        <time>2020-08-05T13:22:49Z</time>
      </trkpt>
      <trkpt lat="42.69734" lon="1.45492">
        <ele>1421.2</ele>
        <time>2020-08-05T13:22:50Z</time>
      </trkpt>
      <trkpt lat="42.69735" lon="1.45492">
        <ele>1421.2</ele>
        <time>2020-08-05T13:22:51Z</time>
      </trkpt>
      <trkpt lat="42.69747" lon="1.45485">
        <ele>1422.4</ele>
        <time>2020-08-05T13:23:01Z</time>
      </trkpt>
      <trkpt lat="42.69757" lon="1.45482">
        <ele>1423.6</ele>
        <time>2020-08-05T13:23:09Z</time>
      </trkpt>
      <trkpt lat="42.69767" lon="1.45478">
        <ele>1424.6</ele>
        <time>2020-08-05T13:23:17Z</time>
      </trkpt>
      <trkpt lat="42.69773" lon="1.45473">
        <ele>1425.4</ele>
        <time>2020-08-05T13:23:23Z</time>
      </trkpt>
      <trkpt lat="42.69776" lon="1.45471">
        <ele>1425.6</ele>
        <time>2020-08-05T13:23:26Z</time>
      </trkpt>
      <trkpt lat="42.69781" lon="1.45468">
        <ele>1426.4</ele>
        <time>2020-08-05T13:23:30Z</time>
      </trkpt>
      <trkpt lat="42.69783" lon="1.45467">
        <ele>1426.8</ele>
        <time>2020-08-05T13:23:32Z</time>
      </trkpt>
      <trkpt lat="42.6979" lon="1.45466">
        <ele>1427.6</ele>
        <time>2020-08-05T13:23:37Z</time>
      </trkpt>
      <trkpt lat="42.69792" lon="1.45465">
        <ele>1427.8</ele>
        <time>2020-08-05T13:23:39Z</time>
      </trkpt>
      <trkpt lat="42.698" lon="1.45463">
        <ele>1428.6</ele>
        <time>2020-08-05T13:23:45Z</time>
      </trkpt>
      <trkpt lat="42.69801" lon="1.45463">
        <ele>1428.8</ele>
        <time>2020-08-05T13:23:46Z</time>
      </trkpt>
      <trkpt lat="42.69802" lon="1.45463">
        <ele>1429</ele>
        <time>2020-08-05T13:23:47Z</time>
      </trkpt>
      <trkpt lat="42.69808" lon="1.45461">
        <ele>1429.6</ele>
        <time>2020-08-05T13:23:52Z</time>
      </trkpt>
      <trkpt lat="42.69809" lon="1.45461">
        <ele>1429.8</ele>
        <time>2020-08-05T13:23:53Z</time>
      </trkpt>
      <trkpt lat="42.6981" lon="1.45461">
        <ele>1430</ele>
        <time>2020-08-05T13:23:54Z</time>
      </trkpt>
      <trkpt lat="42.69813" lon="1.45461">
        <ele>1430.4</ele>
        <time>2020-08-05T13:23:56Z</time>
      </trkpt>
      <trkpt lat="42.69817" lon="1.45459">
        <ele>1431</ele>
        <time>2020-08-05T13:24:00Z</time>
      </trkpt>
      <trkpt lat="42.69824" lon="1.45457">
        <ele>1431.8</ele>
        <time>2020-08-05T13:24:06Z</time>
      </trkpt>
      <trkpt lat="42.69826" lon="1.45456">
        <ele>1432.2</ele>
        <time>2020-08-05T13:24:08Z</time>
      </trkpt>
      <trkpt lat="42.69834" lon="1.45455">
        <ele>1433</ele>
        <time>2020-08-05T13:24:14Z</time>
      </trkpt>
      <trkpt lat="42.69835" lon="1.45455">
        <ele>1433.2</ele>
        <time>2020-08-05T13:24:15Z</time>
      </trkpt>
      <trkpt lat="42.69836" lon="1.45456">
        <ele>1433.4</ele>
        <time>2020-08-05T13:24:16Z</time>
      </trkpt>
      <trkpt lat="42.69841" lon="1.45459">
        <ele>1434.2</ele>
        <time>2020-08-05T13:24:20Z</time>
      </trkpt>
      <trkpt lat="42.69843" lon="1.45462">
        <ele>1434.2</ele>
        <time>2020-08-05T13:24:22Z</time>
      </trkpt>
      <trkpt lat="42.69845" lon="1.45463">
        <ele>1434.6</ele>
        <time>2020-08-05T13:24:24Z</time>
      </trkpt>
      <trkpt lat="42.69849" lon="1.45467">
        <ele>1435.2</ele>
        <time>2020-08-05T13:24:28Z</time>
      </trkpt>
      <trkpt lat="42.6985" lon="1.45469">
        <ele>1435.4</ele>
        <time>2020-08-05T13:24:29Z</time>
      </trkpt>
      <trkpt lat="42.69851" lon="1.4547">
        <ele>1435.6</ele>
        <time>2020-08-05T13:24:30Z</time>
      </trkpt>
      <trkpt lat="42.69855" lon="1.45473">
        <ele>1436</ele>
        <time>2020-08-05T13:24:33Z</time>
      </trkpt>
      <trkpt lat="42.69856" lon="1.45474">
        <ele>1436.2</ele>
        <time>2020-08-05T13:24:34Z</time>
      </trkpt>
      <trkpt lat="42.69859" lon="1.45477">
        <ele>1436.4</ele>
        <time>2020-08-05T13:24:37Z</time>
      </trkpt>
      <trkpt lat="42.69863" lon="1.45479">
        <ele>1436.8</ele>
        <time>2020-08-05T13:24:40Z</time>
      </trkpt>
      <trkpt lat="42.69867" lon="1.45481">
        <ele>1437.6</ele>
        <time>2020-08-05T13:24:43Z</time>
      </trkpt>
      <trkpt lat="42.69871" lon="1.45483">
        <ele>1438.2</ele>
        <time>2020-08-05T13:24:46Z</time>
      </trkpt>
      <trkpt lat="42.69874" lon="1.45485">
        <ele>1438.8</ele>
        <time>2020-08-05T13:24:49Z</time>
      </trkpt>
      <trkpt lat="42.69882" lon="1.45488">
        <ele>1439.4</ele>
        <time>2020-08-05T13:24:55Z</time>
      </trkpt>
      <trkpt lat="42.69886" lon="1.45488">
        <ele>1440</ele>
        <time>2020-08-05T13:24:58Z</time>
      </trkpt>
      <trkpt lat="42.69889" lon="1.45489">
        <ele>1440.2</ele>
        <time>2020-08-05T13:25:00Z</time>
      </trkpt>
      <trkpt lat="42.69891" lon="1.45489">
        <ele>1440.2</ele>
        <time>2020-08-05T13:25:02Z</time>
      </trkpt>
      <trkpt lat="42.69893" lon="1.4549">
        <ele>1440.6</ele>
        <time>2020-08-05T13:25:04Z</time>
      </trkpt>
      <trkpt lat="42.69897" lon="1.45491">
        <ele>1441.2</ele>
        <time>2020-08-05T13:25:07Z</time>
      </trkpt>
      <trkpt lat="42.69901" lon="1.45491">
        <ele>1441.6</ele>
        <time>2020-08-05T13:25:10Z</time>
      </trkpt>
      <trkpt lat="42.69903" lon="1.45492">
        <ele>1441.6</ele>
        <time>2020-08-05T13:25:12Z</time>
      </trkpt>
      <trkpt lat="42.69909" lon="1.45493">
        <ele>1442.2</ele>
        <time>2020-08-05T13:25:16Z</time>
      </trkpt>
      <trkpt lat="42.69921" lon="1.45498">
        <ele>1443.2</ele>
        <time>2020-08-05T13:25:24Z</time>
      </trkpt>
      <trkpt lat="42.6993" lon="1.45499">
        <ele>1444.4</ele>
        <time>2020-08-05T13:25:31Z</time>
      </trkpt>
      <trkpt lat="42.69941" lon="1.45496">
        <ele>1445.4</ele>
        <time>2020-08-05T13:25:39Z</time>
      </trkpt>
      <trkpt lat="42.69951" lon="1.45495">
        <ele>1446.4</ele>
        <time>2020-08-05T13:25:46Z</time>
      </trkpt>
      <trkpt lat="42.69952" lon="1.45495">
        <ele>1446.4</ele>
        <time>2020-08-05T13:25:47Z</time>
      </trkpt>
      <trkpt lat="42.69961" lon="1.45494">
        <ele>1447</ele>
        <time>2020-08-05T13:25:53Z</time>
      </trkpt>
      <trkpt lat="42.69963" lon="1.45494">
        <ele>1447.6</ele>
        <time>2020-08-05T13:25:55Z</time>
      </trkpt>
      <trkpt lat="42.69969" lon="1.45493">
        <ele>1448</ele>
        <time>2020-08-05T13:25:59Z</time>
      </trkpt>
      <trkpt lat="42.69974" lon="1.45497">
        <ele>1448.8</ele>
        <time>2020-08-05T13:26:04Z</time>
      </trkpt>
      <trkpt lat="42.69978" lon="1.45498">
        <ele>1449.2</ele>
        <time>2020-08-05T13:26:07Z</time>
      </trkpt>
      <trkpt lat="42.69982" lon="1.45499">
        <ele>1449.8</ele>
        <time>2020-08-05T13:26:11Z</time>
      </trkpt>
      <trkpt lat="42.69983" lon="1.455">
        <ele>1450</ele>
        <time>2020-08-05T13:26:12Z</time>
      </trkpt>
      <trkpt lat="42.69985" lon="1.455">
        <ele>1450.2</ele>
        <time>2020-08-05T13:26:14Z</time>
      </trkpt>
      <trkpt lat="42.69991" lon="1.45503">
        <ele>1451</ele>
        <time>2020-08-05T13:26:19Z</time>
      </trkpt>
      <trkpt lat="42.69992" lon="1.45505">
        <ele>1451</ele>
        <time>2020-08-05T13:26:20Z</time>
      </trkpt>
      <trkpt lat="42.69994" lon="1.45512">
        <ele>1451.4</ele>
        <time>2020-08-05T13:26:24Z</time>
      </trkpt>
      <trkpt lat="42.69992" lon="1.45515">
        <ele>1451.6</ele>
        <time>2020-08-05T13:26:26Z</time>
      </trkpt>
      <trkpt lat="42.69985" lon="1.45517">
        <ele>1452</ele>
        <time>2020-08-05T13:26:31Z</time>
      </trkpt>
      <trkpt lat="42.69984" lon="1.45517">
        <ele>1452.2</ele>
        <time>2020-08-05T13:26:32Z</time>
      </trkpt>
      <trkpt lat="42.69977" lon="1.45517">
        <ele>1452.8</ele>
        <time>2020-08-05T13:26:38Z</time>
      </trkpt>
      <trkpt lat="42.69973" lon="1.45517">
        <ele>1453.2</ele>
        <time>2020-08-05T13:26:41Z</time>
      </trkpt>
      <trkpt lat="42.69968" lon="1.45518">
        <ele>1454.2</ele>
        <time>2020-08-05T13:26:45Z</time>
      </trkpt>
      <trkpt lat="42.69967" lon="1.45518">
        <ele>1454.2</ele>
        <time>2020-08-05T13:26:46Z</time>
      </trkpt>
      <trkpt lat="42.69958" lon="1.4552">
        <ele>1455.2</ele>
        <time>2020-08-05T13:26:53Z</time>
      </trkpt>
      <trkpt lat="42.69957" lon="1.4552">
        <ele>1455.4</ele>
        <time>2020-08-05T13:26:54Z</time>
      </trkpt>
      <trkpt lat="42.69955" lon="1.45521">
        <ele>1455.6</ele>
        <time>2020-08-05T13:26:56Z</time>
      </trkpt>
      <trkpt lat="42.69951" lon="1.45521">
        <ele>1456</ele>
        <time>2020-08-05T13:26:59Z</time>
      </trkpt>
      <trkpt lat="42.69945" lon="1.45523">
        <ele>1456.4</ele>
        <time>2020-08-05T13:27:03Z</time>
      </trkpt>
      <trkpt lat="42.69943" lon="1.45523">
        <ele>1456.6</ele>
        <time>2020-08-05T13:27:04Z</time>
      </trkpt>
      <trkpt lat="42.6994" lon="1.45524">
        <ele>1456.8</ele>
        <time>2020-08-05T13:27:06Z</time>
      </trkpt>
      <trkpt lat="42.69933" lon="1.45527">
        <ele>1457.4</ele>
        <time>2020-08-05T13:27:11Z</time>
      </trkpt>
      <trkpt lat="42.69929" lon="1.4553">
        <ele>1457.8</ele>
        <time>2020-08-05T13:27:14Z</time>
      </trkpt>
      <trkpt lat="42.69919" lon="1.45533">
        <ele>1458.6</ele>
        <time>2020-08-05T13:27:21Z</time>
      </trkpt>
      <trkpt lat="42.6991" lon="1.45536">
        <ele>1459.4</ele>
        <time>2020-08-05T13:27:28Z</time>
      </trkpt>
      <trkpt lat="42.69907" lon="1.45537">
        <ele>1459.6</ele>
        <time>2020-08-05T13:27:30Z</time>
      </trkpt>
      <trkpt lat="42.699" lon="1.4554">
        <ele>1460.6</ele>
        <time>2020-08-05T13:27:35Z</time>
      </trkpt>
      <trkpt lat="42.69899" lon="1.4554">
        <ele>1460.6</ele>
        <time>2020-08-05T13:27:36Z</time>
      </trkpt>
      <trkpt lat="42.69892" lon="1.45545">
        <ele>1461.6</ele>
        <time>2020-08-05T13:27:42Z</time>
      </trkpt>
      <trkpt lat="42.69891" lon="1.45545">
        <ele>1461.8</ele>
        <time>2020-08-05T13:27:43Z</time>
      </trkpt>
      <trkpt lat="42.69885" lon="1.45549">
        <ele>1462.4</ele>
        <time>2020-08-05T13:27:49Z</time>
      </trkpt>
      <trkpt lat="42.69883" lon="1.45551">
        <ele>1462.8</ele>
        <time>2020-08-05T13:27:51Z</time>
      </trkpt>
      <trkpt lat="42.69881" lon="1.45552">
        <ele>1463.2</ele>
        <time>2020-08-05T13:27:52Z</time>
      </trkpt>
      <trkpt lat="42.69877" lon="1.45553">
        <ele>1463.6</ele>
        <time>2020-08-05T13:27:56Z</time>
      </trkpt>
      <trkpt lat="42.69875" lon="1.45555">
        <ele>1464</ele>
        <time>2020-08-05T13:27:58Z</time>
      </trkpt>
      <trkpt lat="42.69869" lon="1.45559">
        <ele>1464.4</ele>
        <time>2020-08-05T13:28:03Z</time>
      </trkpt>
      <trkpt lat="42.69865" lon="1.45562">
        <ele>1465</ele>
        <time>2020-08-05T13:28:07Z</time>
      </trkpt>
      <trkpt lat="42.69863" lon="1.45564">
        <ele>1465.2</ele>
        <time>2020-08-05T13:28:09Z</time>
      </trkpt>
      <trkpt lat="42.69857" lon="1.4557">
        <ele>1466.2</ele>
        <time>2020-08-05T13:28:15Z</time>
      </trkpt>
      <trkpt lat="42.69856" lon="1.45571">
        <ele>1466.4</ele>
        <time>2020-08-05T13:28:16Z</time>
      </trkpt>
      <trkpt lat="42.69854" lon="1.45572">
        <ele>1466.6</ele>
        <time>2020-08-05T13:28:18Z</time>
      </trkpt>
      <trkpt lat="42.69851" lon="1.45576">
        <ele>1467.2</ele>
        <time>2020-08-05T13:28:22Z</time>
      </trkpt>
      <trkpt lat="42.6985" lon="1.45577">
        <ele>1467.4</ele>
        <time>2020-08-05T13:28:23Z</time>
      </trkpt>
      <trkpt lat="42.69849" lon="1.45579">
        <ele>1467.6</ele>
        <time>2020-08-05T13:28:24Z</time>
      </trkpt>
      <trkpt lat="42.69845" lon="1.45584">
        <ele>1468.2</ele>
        <time>2020-08-05T13:28:29Z</time>
      </trkpt>
      <trkpt lat="42.69841" lon="1.45588">
        <ele>1468.8</ele>
        <time>2020-08-05T13:28:33Z</time>
      </trkpt>
      <trkpt lat="42.69838" lon="1.4559">
        <ele>1469.4</ele>
        <time>2020-08-05T13:28:36Z</time>
      </trkpt>
      <trkpt lat="42.69834" lon="1.45593">
        <ele>1469.8</ele>
        <time>2020-08-05T13:28:40Z</time>
      </trkpt>
      <trkpt lat="42.69833" lon="1.45593">
        <ele>1469.8</ele>
        <time>2020-08-05T13:28:41Z</time>
      </trkpt>
      <trkpt lat="42.69824" lon="1.45594">
        <ele>1470.4</ele>
        <time>2020-08-05T13:28:47Z</time>
      </trkpt>
      <trkpt lat="42.69821" lon="1.45595">
        <ele>1470.6</ele>
        <time>2020-08-05T13:28:49Z</time>
      </trkpt>
      <trkpt lat="42.69819" lon="1.45595">
        <ele>1470.6</ele>
        <time>2020-08-05T13:28:54Z</time>
      </trkpt>
      <trkpt lat="42.69819" lon="1.45594">
        <ele>1470</ele>
        <time>2020-08-05T13:29:07Z</time>
      </trkpt>
      <trkpt lat="42.69819" lon="1.45594">
        <ele>1470.2</ele>
        <time>2020-08-05T13:29:17Z</time>
      </trkpt>
      <trkpt lat="42.69819" lon="1.45594">
        <ele>1470.2</ele>
        <time>2020-08-05T13:29:30Z</time>
      </trkpt>
      <trkpt lat="42.69819" lon="1.45594">
        <ele>1470</ele>
        <time>2020-08-05T13:29:46Z</time>
      </trkpt>
      <trkpt lat="42.69819" lon="1.45594">
        <ele>1470</ele>
        <time>2020-08-05T13:29:58Z</time>
      </trkpt>
      <trkpt lat="42.69819" lon="1.45594">
        <ele>1470</ele>
        <time>2020-08-05T13:30:11Z</time>
      </trkpt>
      <trkpt lat="42.69819" lon="1.45594">
        <ele>1470.2</ele>
        <time>2020-08-05T13:30:21Z</time>
      </trkpt>
      <trkpt lat="42.69819" lon="1.45595">
        <ele>1470.8</ele>
        <time>2020-08-05T13:30:31Z</time>
      </trkpt>
      <trkpt lat="42.69818" lon="1.45597">
        <ele>1470.8</ele>
        <time>2020-08-05T13:30:34Z</time>
      </trkpt>
      <trkpt lat="42.69816" lon="1.45599">
        <ele>1471</ele>
        <time>2020-08-05T13:30:36Z</time>
      </trkpt>
      <trkpt lat="42.69809" lon="1.45601">
        <ele>1471.4</ele>
        <time>2020-08-05T13:30:40Z</time>
      </trkpt>
      <trkpt lat="42.69807" lon="1.45603">
        <ele>1471.8</ele>
        <time>2020-08-05T13:30:42Z</time>
      </trkpt>
      <trkpt lat="42.69806" lon="1.45604">
        <ele>1471.8</ele>
        <time>2020-08-05T13:30:43Z</time>
      </trkpt>
      <trkpt lat="42.69799" lon="1.4561">
        <ele>1472.4</ele>
        <time>2020-08-05T13:30:49Z</time>
      </trkpt>
      <trkpt lat="42.69798" lon="1.45611">
        <ele>1472.6</ele>
        <time>2020-08-05T13:30:50Z</time>
      </trkpt>
      <trkpt lat="42.69791" lon="1.45618">
        <ele>1473.4</ele>
        <time>2020-08-05T13:30:57Z</time>
      </trkpt>
      <trkpt lat="42.69789" lon="1.4562">
        <ele>1473.6</ele>
        <time>2020-08-05T13:30:59Z</time>
      </trkpt>
      <trkpt lat="42.69784" lon="1.45624">
        <ele>1474.2</ele>
        <time>2020-08-05T13:31:04Z</time>
      </trkpt>
      <trkpt lat="42.6978" lon="1.45627">
        <ele>1474.6</ele>
        <time>2020-08-05T13:31:07Z</time>
      </trkpt>
      <trkpt lat="42.69775" lon="1.45631">
        <ele>1475.2</ele>
        <time>2020-08-05T13:31:12Z</time>
      </trkpt>
      <trkpt lat="42.69771" lon="1.45634">
        <ele>1475.8</ele>
        <time>2020-08-05T13:31:16Z</time>
      </trkpt>
      <trkpt lat="42.69764" lon="1.45636">
        <ele>1476.4</ele>
        <time>2020-08-05T13:31:21Z</time>
      </trkpt>
      <trkpt lat="42.69761" lon="1.45638">
        <ele>1476.8</ele>
        <time>2020-08-05T13:31:24Z</time>
      </trkpt>
      <trkpt lat="42.69759" lon="1.45639">
        <ele>1477</ele>
        <time>2020-08-05T13:31:25Z</time>
      </trkpt>
      <trkpt lat="42.69756" lon="1.4564">
        <ele>1477.4</ele>
        <time>2020-08-05T13:31:28Z</time>
      </trkpt>
      <trkpt lat="42.69752" lon="1.45641">
        <ele>1477.8</ele>
        <time>2020-08-05T13:31:31Z</time>
      </trkpt>
      <trkpt lat="42.69748" lon="1.45644">
        <ele>1478.2</ele>
        <time>2020-08-05T13:31:34Z</time>
      </trkpt>
      <trkpt lat="42.69747" lon="1.45646">
        <ele>1478.4</ele>
        <time>2020-08-05T13:31:35Z</time>
      </trkpt>
      <trkpt lat="42.69743" lon="1.4565">
        <ele>1479</ele>
        <time>2020-08-05T13:31:39Z</time>
      </trkpt>
      <trkpt lat="42.6974" lon="1.45654">
        <ele>1479.4</ele>
        <time>2020-08-05T13:31:42Z</time>
      </trkpt>
      <trkpt lat="42.69735" lon="1.45659">
        <ele>1480</ele>
        <time>2020-08-05T13:31:47Z</time>
      </trkpt>
      <trkpt lat="42.69731" lon="1.45665">
        <ele>1480.4</ele>
        <time>2020-08-05T13:31:51Z</time>
      </trkpt>
      <trkpt lat="42.69726" lon="1.45669">
        <ele>1481</ele>
        <time>2020-08-05T13:31:55Z</time>
      </trkpt>
      <trkpt lat="42.69722" lon="1.45675">
        <ele>1481.6</ele>
        <time>2020-08-05T13:31:59Z</time>
      </trkpt>
      <trkpt lat="42.69719" lon="1.45678">
        <ele>1482</ele>
        <time>2020-08-05T13:32:02Z</time>
      </trkpt>
      <trkpt lat="42.69714" lon="1.45683">
        <ele>1482.8</ele>
        <time>2020-08-05T13:32:07Z</time>
      </trkpt>
      <trkpt lat="42.69711" lon="1.45686">
        <ele>1483.2</ele>
        <time>2020-08-05T13:32:10Z</time>
      </trkpt>
      <trkpt lat="42.69707" lon="1.4569">
        <ele>1483.4</ele>
        <time>2020-08-05T13:32:14Z</time>
      </trkpt>
      <trkpt lat="42.69701" lon="1.45697">
        <ele>1484.4</ele>
        <time>2020-08-05T13:32:20Z</time>
      </trkpt>
      <trkpt lat="42.697" lon="1.45698">
        <ele>1484.6</ele>
        <time>2020-08-05T13:32:21Z</time>
      </trkpt>
      <trkpt lat="42.69695" lon="1.45704">
        <ele>1485.4</ele>
        <time>2020-08-05T13:32:26Z</time>
      </trkpt>
      <trkpt lat="42.69692" lon="1.45707">
        <ele>1485.8</ele>
        <time>2020-08-05T13:32:29Z</time>
      </trkpt>
      <trkpt lat="42.69691" lon="1.4571">
        <ele>1486</ele>
        <time>2020-08-05T13:32:31Z</time>
      </trkpt>
      <trkpt lat="42.69689" lon="1.45713">
        <ele>1486.4</ele>
        <time>2020-08-05T13:32:34Z</time>
      </trkpt>
      <trkpt lat="42.69688" lon="1.45714">
        <ele>1486.6</ele>
        <time>2020-08-05T13:32:35Z</time>
      </trkpt>
      <trkpt lat="42.69682" lon="1.45719">
        <ele>1487.2</ele>
        <time>2020-08-05T13:32:41Z</time>
      </trkpt>
      <trkpt lat="42.69681" lon="1.45721">
        <ele>1487.6</ele>
        <time>2020-08-05T13:32:43Z</time>
      </trkpt>
      <trkpt lat="42.6968" lon="1.45723">
        <ele>1487.8</ele>
        <time>2020-08-05T13:32:44Z</time>
      </trkpt>
      <trkpt lat="42.69677" lon="1.45726">
        <ele>1488.2</ele>
        <time>2020-08-05T13:32:47Z</time>
      </trkpt>
      <trkpt lat="42.69678" lon="1.45732">
        <ele>1488.6</ele>
        <time>2020-08-05T13:32:51Z</time>
      </trkpt>
      <trkpt lat="42.69679" lon="1.45733">
        <ele>1488.8</ele>
        <time>2020-08-05T13:32:52Z</time>
      </trkpt>
      <trkpt lat="42.69686" lon="1.4573">
        <ele>1489.4</ele>
        <time>2020-08-05T13:32:58Z</time>
      </trkpt>
      <trkpt lat="42.69689" lon="1.45725">
        <ele>1489.6</ele>
        <time>2020-08-05T13:33:01Z</time>
      </trkpt>
      <trkpt lat="42.69694" lon="1.45718">
        <ele>1489.8</ele>
        <time>2020-08-05T13:33:06Z</time>
      </trkpt>
      <trkpt lat="42.69702" lon="1.4571">
        <ele>1490.4</ele>
        <time>2020-08-05T13:33:12Z</time>
      </trkpt>
      <trkpt lat="42.69708" lon="1.45704">
        <ele>1490.8</ele>
        <time>2020-08-05T13:33:16Z</time>
      </trkpt>
      <trkpt lat="42.69717" lon="1.45697">
        <ele>1491.6</ele>
        <time>2020-08-05T13:33:22Z</time>
      </trkpt>
      <trkpt lat="42.69722" lon="1.45694">
        <ele>1491.8</ele>
        <time>2020-08-05T13:33:25Z</time>
      </trkpt>
      <trkpt lat="42.69731" lon="1.45691">
        <ele>1492.2</ele>
        <time>2020-08-05T13:33:31Z</time>
      </trkpt>
      <trkpt lat="42.69735" lon="1.4569">
        <ele>1492.8</ele>
        <time>2020-08-05T13:33:34Z</time>
      </trkpt>
      <trkpt lat="42.69736" lon="1.45689">
        <ele>1493</ele>
        <time>2020-08-05T13:33:35Z</time>
      </trkpt>
      <trkpt lat="42.69738" lon="1.45688">
        <ele>1493.4</ele>
        <time>2020-08-05T13:33:37Z</time>
      </trkpt>
      <trkpt lat="42.69746" lon="1.45686">
        <ele>1494</ele>
        <time>2020-08-05T13:33:42Z</time>
      </trkpt>
      <trkpt lat="42.69747" lon="1.45685">
        <ele>1494.2</ele>
        <time>2020-08-05T13:33:43Z</time>
      </trkpt>
      <trkpt lat="42.6975" lon="1.45685">
        <ele>1494.6</ele>
        <time>2020-08-05T13:33:45Z</time>
      </trkpt>
      <trkpt lat="42.69754" lon="1.45685">
        <ele>1495</ele>
        <time>2020-08-05T13:33:48Z</time>
      </trkpt>
      <trkpt lat="42.69759" lon="1.45684">
        <ele>1495.6</ele>
        <time>2020-08-05T13:33:52Z</time>
      </trkpt>
      <trkpt lat="42.69763" lon="1.45684">
        <ele>1496</ele>
        <time>2020-08-05T13:33:55Z</time>
      </trkpt>
      <trkpt lat="42.69767" lon="1.45683">
        <ele>1496.6</ele>
        <time>2020-08-05T13:33:59Z</time>
      </trkpt>
      <trkpt lat="42.6977" lon="1.45683">
        <ele>1496.8</ele>
        <time>2020-08-05T13:34:01Z</time>
      </trkpt>
      <trkpt lat="42.69771" lon="1.45683">
        <ele>1497</ele>
        <time>2020-08-05T13:34:02Z</time>
      </trkpt>
      <trkpt lat="42.69775" lon="1.45683">
        <ele>1497.4</ele>
        <time>2020-08-05T13:34:05Z</time>
      </trkpt>
      <trkpt lat="42.6978" lon="1.45683">
        <ele>1498.2</ele>
        <time>2020-08-05T13:34:09Z</time>
      </trkpt>
      <trkpt lat="42.69781" lon="1.45683">
        <ele>1498.2</ele>
        <time>2020-08-05T13:34:10Z</time>
      </trkpt>
      <trkpt lat="42.69783" lon="1.45682">
        <ele>1498.4</ele>
        <time>2020-08-05T13:34:12Z</time>
      </trkpt>
      <trkpt lat="42.69785" lon="1.45683">
        <ele>1498.6</ele>
        <time>2020-08-05T13:34:14Z</time>
      </trkpt>
      <trkpt lat="42.69791" lon="1.45683">
        <ele>1499.2</ele>
        <time>2020-08-05T13:34:19Z</time>
      </trkpt>
      <trkpt lat="42.69792" lon="1.45682">
        <ele>1499.4</ele>
        <time>2020-08-05T13:34:20Z</time>
      </trkpt>
      <trkpt lat="42.69798" lon="1.45682">
        <ele>1499.8</ele>
        <time>2020-08-05T13:34:25Z</time>
      </trkpt>
      <trkpt lat="42.69802" lon="1.45681">
        <ele>1500.2</ele>
        <time>2020-08-05T13:34:28Z</time>
      </trkpt>
      <trkpt lat="42.69804" lon="1.4568">
        <ele>1500.4</ele>
        <time>2020-08-05T13:34:30Z</time>
      </trkpt>
      <trkpt lat="42.69807" lon="1.4568">
        <ele>1500.8</ele>
        <time>2020-08-05T13:34:32Z</time>
      </trkpt>
      <trkpt lat="42.69814" lon="1.45678">
        <ele>1501.4</ele>
        <time>2020-08-05T13:34:38Z</time>
      </trkpt>
      <trkpt lat="42.69815" lon="1.45678">
        <ele>1501.6</ele>
        <time>2020-08-05T13:34:39Z</time>
      </trkpt>
      <trkpt lat="42.69816" lon="1.45678">
        <ele>1501.6</ele>
        <time>2020-08-05T13:34:40Z</time>
      </trkpt>
      <trkpt lat="42.69823" lon="1.45678">
        <ele>1502.4</ele>
        <time>2020-08-05T13:34:45Z</time>
      </trkpt>
      <trkpt lat="42.69824" lon="1.45679">
        <ele>1502.6</ele>
        <time>2020-08-05T13:34:46Z</time>
      </trkpt>
      <trkpt lat="42.69833" lon="1.45678">
        <ele>1503.4</ele>
        <time>2020-08-05T13:34:53Z</time>
      </trkpt>
      <trkpt lat="42.69834" lon="1.45678">
        <ele>1503.6</ele>
        <time>2020-08-05T13:34:54Z</time>
      </trkpt>
      <trkpt lat="42.69841" lon="1.45677">
        <ele>1504.6</ele>
        <time>2020-08-05T13:35:00Z</time>
      </trkpt>
      <trkpt lat="42.69842" lon="1.45677">
        <ele>1504.8</ele>
        <time>2020-08-05T13:35:01Z</time>
      </trkpt>
      <trkpt lat="42.69847" lon="1.45676">
        <ele>1505.4</ele>
        <time>2020-08-05T13:35:05Z</time>
      </trkpt>
      <trkpt lat="42.69849" lon="1.45674">
        <ele>1505.6</ele>
        <time>2020-08-05T13:35:07Z</time>
      </trkpt>
      <trkpt lat="42.69851" lon="1.45674">
        <ele>1506</ele>
        <time>2020-08-05T13:35:08Z</time>
      </trkpt>
      <trkpt lat="42.69855" lon="1.4567">
        <ele>1506.6</ele>
        <time>2020-08-05T13:35:13Z</time>
      </trkpt>
      <trkpt lat="42.69858" lon="1.45668">
        <ele>1506.8</ele>
        <time>2020-08-05T13:35:15Z</time>
      </trkpt>
      <trkpt lat="42.69863" lon="1.45664">
        <ele>1507.6</ele>
        <time>2020-08-05T13:35:20Z</time>
      </trkpt>
      <trkpt lat="42.69865" lon="1.45662">
        <ele>1507.8</ele>
        <time>2020-08-05T13:35:22Z</time>
      </trkpt>
      <trkpt lat="42.69866" lon="1.45661">
        <ele>1508</ele>
        <time>2020-08-05T13:35:23Z</time>
      </trkpt>
      <trkpt lat="42.69872" lon="1.45656">
        <ele>1508.6</ele>
        <time>2020-08-05T13:35:28Z</time>
      </trkpt>
      <trkpt lat="42.69873" lon="1.45654">
        <ele>1508.8</ele>
        <time>2020-08-05T13:35:30Z</time>
      </trkpt>
      <trkpt lat="42.69877" lon="1.45651">
        <ele>1509.8</ele>
        <time>2020-08-05T13:35:34Z</time>
      </trkpt>
      <trkpt lat="42.69879" lon="1.45649">
        <ele>1510</ele>
        <time>2020-08-05T13:35:36Z</time>
      </trkpt>
      <trkpt lat="42.69883" lon="1.45646">
        <ele>1510.6</ele>
        <time>2020-08-05T13:35:40Z</time>
      </trkpt>
      <trkpt lat="42.69884" lon="1.45645">
        <ele>1510.8</ele>
        <time>2020-08-05T13:35:41Z</time>
      </trkpt>
      <trkpt lat="42.69885" lon="1.45645">
        <ele>1511</ele>
        <time>2020-08-05T13:35:42Z</time>
      </trkpt>
      <trkpt lat="42.69889" lon="1.45642">
        <ele>1511.8</ele>
        <time>2020-08-05T13:35:47Z</time>
      </trkpt>
      <trkpt lat="42.69891" lon="1.45642">
        <ele>1512</ele>
        <time>2020-08-05T13:35:48Z</time>
      </trkpt>
      <trkpt lat="42.69898" lon="1.45643">
        <ele>1513.2</ele>
        <time>2020-08-05T13:35:54Z</time>
      </trkpt>
      <trkpt lat="42.699" lon="1.45643">
        <ele>1513.6</ele>
        <time>2020-08-05T13:35:56Z</time>
      </trkpt>
      <trkpt lat="42.69903" lon="1.45643">
        <ele>1514</ele>
        <time>2020-08-05T13:35:59Z</time>
      </trkpt>
      <trkpt lat="42.69906" lon="1.45645">
        <ele>1514.2</ele>
        <time>2020-08-05T13:36:02Z</time>
      </trkpt>
      <trkpt lat="42.6991" lon="1.45648">
        <ele>1515</ele>
        <time>2020-08-05T13:36:06Z</time>
      </trkpt>
      <trkpt lat="42.69912" lon="1.45649">
        <ele>1515.4</ele>
        <time>2020-08-05T13:36:09Z</time>
      </trkpt>
      <trkpt lat="42.69916" lon="1.45651">
        <ele>1516</ele>
        <time>2020-08-05T13:36:13Z</time>
      </trkpt>
      <trkpt lat="42.6992" lon="1.45653">
        <ele>1516.4</ele>
        <time>2020-08-05T13:36:17Z</time>
      </trkpt>
      <trkpt lat="42.69923" lon="1.45653">
        <ele>1517</ele>
        <time>2020-08-05T13:36:20Z</time>
      </trkpt>
      <trkpt lat="42.69924" lon="1.45653">
        <ele>1517</ele>
        <time>2020-08-05T13:36:21Z</time>
      </trkpt>
      <trkpt lat="42.69928" lon="1.45654">
        <ele>1517.4</ele>
        <time>2020-08-05T13:36:25Z</time>
      </trkpt>
      <trkpt lat="42.69929" lon="1.45654">
        <ele>1517.6</ele>
        <time>2020-08-05T13:36:26Z</time>
      </trkpt>
      <trkpt lat="42.69932" lon="1.45655">
        <ele>1518</ele>
        <time>2020-08-05T13:36:29Z</time>
      </trkpt>
      <trkpt lat="42.69936" lon="1.45656">
        <ele>1518.6</ele>
        <time>2020-08-05T13:36:33Z</time>
      </trkpt>
      <trkpt lat="42.69938" lon="1.45656">
        <ele>1518.8</ele>
        <time>2020-08-05T13:36:35Z</time>
      </trkpt>
      <trkpt lat="42.69945" lon="1.45656">
        <ele>1519.6</ele>
        <time>2020-08-05T13:36:42Z</time>
      </trkpt>
      <trkpt lat="42.69946" lon="1.45657">
        <ele>1519.8</ele>
        <time>2020-08-05T13:36:43Z</time>
      </trkpt>
      <trkpt lat="42.69952" lon="1.45657">
        <ele>1520.6</ele>
        <time>2020-08-05T13:36:49Z</time>
      </trkpt>
      <trkpt lat="42.69953" lon="1.45657">
        <ele>1520.8</ele>
        <time>2020-08-05T13:36:50Z</time>
      </trkpt>
      <trkpt lat="42.69958" lon="1.45661">
        <ele>1521.4</ele>
        <time>2020-08-05T13:36:55Z</time>
      </trkpt>
      <trkpt lat="42.69961" lon="1.45665">
        <ele>1521.8</ele>
        <time>2020-08-05T13:36:58Z</time>
      </trkpt>
      <trkpt lat="42.69961" lon="1.45666">
        <ele>1521.8</ele>
        <time>2020-08-05T13:36:59Z</time>
      </trkpt>
      <trkpt lat="42.69963" lon="1.45668">
        <ele>1522</ele>
        <time>2020-08-05T13:37:01Z</time>
      </trkpt>
      <trkpt lat="42.69964" lon="1.45669">
        <ele>1522.2</ele>
        <time>2020-08-05T13:37:03Z</time>
      </trkpt>
      <trkpt lat="42.69967" lon="1.45674">
        <ele>1522.8</ele>
        <time>2020-08-05T13:37:07Z</time>
      </trkpt>
      <trkpt lat="42.69968" lon="1.45675">
        <ele>1523</ele>
        <time>2020-08-05T13:37:08Z</time>
      </trkpt>
      <trkpt lat="42.69973" lon="1.45679">
        <ele>1523.6</ele>
        <time>2020-08-05T13:37:13Z</time>
      </trkpt>
      <trkpt lat="42.69973" lon="1.45679">
        <ele>1523.8</ele>
        <time>2020-08-05T13:37:14Z</time>
      </trkpt>
      <trkpt lat="42.69975" lon="1.4568">
        <ele>1524</ele>
        <time>2020-08-05T13:37:16Z</time>
      </trkpt>
      <trkpt lat="42.69978" lon="1.45681">
        <ele>1524.2</ele>
        <time>2020-08-05T13:37:18Z</time>
      </trkpt>
      <trkpt lat="42.69981" lon="1.45682">
        <ele>1524.6</ele>
        <time>2020-08-05T13:37:21Z</time>
      </trkpt>
      <trkpt lat="42.69985" lon="1.45684">
        <ele>1525</ele>
        <time>2020-08-05T13:37:24Z</time>
      </trkpt>
      <trkpt lat="42.69986" lon="1.45684">
        <ele>1525.2</ele>
        <time>2020-08-05T13:37:25Z</time>
      </trkpt>
      <trkpt lat="42.69987" lon="1.45686">
        <ele>1525.4</ele>
        <time>2020-08-05T13:37:27Z</time>
      </trkpt>
      <trkpt lat="42.69993" lon="1.45693">
        <ele>1526.2</ele>
        <time>2020-08-05T13:37:34Z</time>
      </trkpt>
      <trkpt lat="42.70002" lon="1.45699">
        <ele>1527</ele>
        <time>2020-08-05T13:37:43Z</time>
      </trkpt>
      <trkpt lat="42.70005" lon="1.45702">
        <ele>1527.2</ele>
        <time>2020-08-05T13:37:46Z</time>
      </trkpt>
      <trkpt lat="42.7001" lon="1.45705">
        <ele>1527.8</ele>
        <time>2020-08-05T13:37:50Z</time>
      </trkpt>
      <trkpt lat="42.70018" lon="1.4571">
        <ele>1528.4</ele>
        <time>2020-08-05T13:37:57Z</time>
      </trkpt>
      <trkpt lat="42.70019" lon="1.4571">
        <ele>1528.6</ele>
        <time>2020-08-05T13:37:58Z</time>
      </trkpt>
      <trkpt lat="42.70026" lon="1.45714">
        <ele>1529.4</ele>
        <time>2020-08-05T13:38:05Z</time>
      </trkpt>
      <trkpt lat="42.70029" lon="1.45714">
        <ele>1529.6</ele>
        <time>2020-08-05T13:38:07Z</time>
      </trkpt>
      <trkpt lat="42.70037" lon="1.45718">
        <ele>1530.4</ele>
        <time>2020-08-05T13:38:14Z</time>
      </trkpt>
      <trkpt lat="42.70039" lon="1.4572">
        <ele>1530.6</ele>
        <time>2020-08-05T13:38:16Z</time>
      </trkpt>
      <trkpt lat="42.7004" lon="1.45727">
        <ele>1530.8</ele>
        <time>2020-08-05T13:38:21Z</time>
      </trkpt>
      <trkpt lat="42.70035" lon="1.45732">
        <ele>1531</ele>
        <time>2020-08-05T13:38:25Z</time>
      </trkpt>
      <trkpt lat="42.70034" lon="1.45733">
        <ele>1531.2</ele>
        <time>2020-08-05T13:38:26Z</time>
      </trkpt>
      <trkpt lat="42.70028" lon="1.4573">
        <ele>1531.6</ele>
        <time>2020-08-05T13:38:31Z</time>
      </trkpt>
      <trkpt lat="42.7002" lon="1.45724">
        <ele>1532.4</ele>
        <time>2020-08-05T13:38:38Z</time>
      </trkpt>
      <trkpt lat="42.70016" lon="1.45723">
        <ele>1532.6</ele>
        <time>2020-08-05T13:38:41Z</time>
      </trkpt>
      <trkpt lat="42.70011" lon="1.45721">
        <ele>1533.4</ele>
        <time>2020-08-05T13:38:45Z</time>
      </trkpt>
      <trkpt lat="42.70005" lon="1.45719">
        <ele>1533.8</ele>
        <time>2020-08-05T13:38:49Z</time>
      </trkpt>
      <trkpt lat="42.69999" lon="1.45719">
        <ele>1534</ele>
        <time>2020-08-05T13:38:53Z</time>
      </trkpt>
      <trkpt lat="42.69992" lon="1.45719">
        <ele>1534.8</ele>
        <time>2020-08-05T13:38:58Z</time>
      </trkpt>
      <trkpt lat="42.69988" lon="1.45718">
        <ele>1535</ele>
        <time>2020-08-05T13:39:01Z</time>
      </trkpt>
      <trkpt lat="42.69979" lon="1.45716">
        <ele>1535.6</ele>
        <time>2020-08-05T13:39:07Z</time>
      </trkpt>
      <trkpt lat="42.69978" lon="1.45716">
        <ele>1535.8</ele>
        <time>2020-08-05T13:39:08Z</time>
      </trkpt>
      <trkpt lat="42.69969" lon="1.45713">
        <ele>1536.8</ele>
        <time>2020-08-05T13:39:16Z</time>
      </trkpt>
      <trkpt lat="42.69967" lon="1.45712">
        <ele>1537</ele>
        <time>2020-08-05T13:39:17Z</time>
      </trkpt>
      <trkpt lat="42.69962" lon="1.45711">
        <ele>1537.4</ele>
        <time>2020-08-05T13:39:22Z</time>
      </trkpt>
      <trkpt lat="42.6996" lon="1.4571">
        <ele>1537.6</ele>
        <time>2020-08-05T13:39:24Z</time>
      </trkpt>
      <trkpt lat="42.69958" lon="1.4571">
        <ele>1538</ele>
        <time>2020-08-05T13:39:26Z</time>
      </trkpt>
      <trkpt lat="42.69952" lon="1.45711">
        <ele>1538.4</ele>
        <time>2020-08-05T13:39:30Z</time>
      </trkpt>
      <trkpt lat="42.69949" lon="1.45712">
        <ele>1539</ele>
        <time>2020-08-05T13:39:32Z</time>
      </trkpt>
      <trkpt lat="42.69941" lon="1.45714">
        <ele>1539.8</ele>
        <time>2020-08-05T13:39:39Z</time>
      </trkpt>
      <trkpt lat="42.6994" lon="1.45715">
        <ele>1540</ele>
        <time>2020-08-05T13:39:40Z</time>
      </trkpt>
      <trkpt lat="42.69931" lon="1.4572">
        <ele>1541</ele>
        <time>2020-08-05T13:39:48Z</time>
      </trkpt>
      <trkpt lat="42.69923" lon="1.45724">
        <ele>1542.2</ele>
        <time>2020-08-05T13:39:55Z</time>
      </trkpt>
      <trkpt lat="42.69921" lon="1.45726">
        <ele>1542.6</ele>
        <time>2020-08-05T13:39:58Z</time>
      </trkpt>
      <trkpt lat="42.69918" lon="1.45728">
        <ele>1543</ele>
        <time>2020-08-05T13:40:01Z</time>
      </trkpt>
      <trkpt lat="42.69917" lon="1.45729">
        <ele>1543.2</ele>
        <time>2020-08-05T13:40:05Z</time>
      </trkpt>
      <trkpt lat="42.69917" lon="1.45729">
        <ele>1543.2</ele>
        <time>2020-08-05T13:40:06Z</time>
      </trkpt>
      <trkpt lat="42.69917" lon="1.45729">
        <ele>1543</ele>
        <time>2020-08-05T13:40:15Z</time>
      </trkpt>
      <trkpt lat="42.69917" lon="1.45729">
        <ele>1543</ele>
        <time>2020-08-05T13:40:24Z</time>
      </trkpt>
      <trkpt lat="42.69917" lon="1.45729">
        <ele>1543.2</ele>
        <time>2020-08-05T13:40:38Z</time>
      </trkpt>
      <trkpt lat="42.69916" lon="1.45729">
        <ele>1543.2</ele>
        <time>2020-08-05T13:40:50Z</time>
      </trkpt>
      <trkpt lat="42.69916" lon="1.45729">
        <ele>1543.4</ele>
        <time>2020-08-05T13:41:02Z</time>
      </trkpt>
      <trkpt lat="42.69916" lon="1.45729">
        <ele>1543.4</ele>
        <time>2020-08-05T13:41:15Z</time>
      </trkpt>
      <trkpt lat="42.69916" lon="1.45729">
        <ele>1543.4</ele>
        <time>2020-08-05T13:41:26Z</time>
      </trkpt>
      <trkpt lat="42.69916" lon="1.45729">
        <ele>1543.4</ele>
        <time>2020-08-05T13:41:31Z</time>
      </trkpt>
      <trkpt lat="42.69916" lon="1.45729">
        <ele>1543.4</ele>
        <time>2020-08-05T13:41:42Z</time>
      </trkpt>
      <trkpt lat="42.69916" lon="1.45729">
        <ele>1543.4</ele>
        <time>2020-08-05T13:42:00Z</time>
      </trkpt>
      <trkpt lat="42.69916" lon="1.45729">
        <ele>1543.6</ele>
        <time>2020-08-05T13:42:15Z</time>
      </trkpt>
      <trkpt lat="42.69913" lon="1.4573">
        <ele>1543.6</ele>
        <time>2020-08-05T13:42:25Z</time>
      </trkpt>
      <trkpt lat="42.69908" lon="1.45735">
        <ele>1544.2</ele>
        <time>2020-08-05T13:42:31Z</time>
      </trkpt>
      <trkpt lat="42.69906" lon="1.45736">
        <ele>1544.4</ele>
        <time>2020-08-05T13:42:32Z</time>
      </trkpt>
      <trkpt lat="42.69906" lon="1.45736">
        <ele>1544.4</ele>
        <time>2020-08-05T13:42:33Z</time>
      </trkpt>
      <trkpt lat="42.69905" lon="1.45737">
        <ele>1544.6</ele>
        <time>2020-08-05T13:42:34Z</time>
      </trkpt>
      <trkpt lat="42.699" lon="1.45741">
        <ele>1545</ele>
        <time>2020-08-05T13:42:38Z</time>
      </trkpt>
      <trkpt lat="42.69899" lon="1.45741">
        <ele>1545.2</ele>
        <time>2020-08-05T13:42:39Z</time>
      </trkpt>
      <trkpt lat="42.69898" lon="1.45743">
        <ele>1545.4</ele>
        <time>2020-08-05T13:42:40Z</time>
      </trkpt>
      <trkpt lat="42.69891" lon="1.45748">
        <ele>1546.4</ele>
        <time>2020-08-05T13:42:47Z</time>
      </trkpt>
      <trkpt lat="42.6989" lon="1.45749">
        <ele>1546.4</ele>
        <time>2020-08-05T13:42:48Z</time>
      </trkpt>
      <trkpt lat="42.69883" lon="1.45755">
        <ele>1547.2</ele>
        <time>2020-08-05T13:42:55Z</time>
      </trkpt>
      <trkpt lat="42.69881" lon="1.45757">
        <ele>1547.4</ele>
        <time>2020-08-05T13:42:57Z</time>
      </trkpt>
      <trkpt lat="42.69876" lon="1.45762">
        <ele>1548</ele>
        <time>2020-08-05T13:43:02Z</time>
      </trkpt>
      <trkpt lat="42.69874" lon="1.45764">
        <ele>1548.4</ele>
        <time>2020-08-05T13:43:04Z</time>
      </trkpt>
      <trkpt lat="42.69869" lon="1.45771">
        <ele>1549.4</ele>
        <time>2020-08-05T13:43:10Z</time>
      </trkpt>
      <trkpt lat="42.69868" lon="1.45772">
        <ele>1549.4</ele>
        <time>2020-08-05T13:43:11Z</time>
      </trkpt>
      <trkpt lat="42.6986" lon="1.45779">
        <ele>1550.6</ele>
        <time>2020-08-05T13:43:19Z</time>
      </trkpt>
      <trkpt lat="42.69853" lon="1.45789">
        <ele>1551.4</ele>
        <time>2020-08-05T13:43:28Z</time>
      </trkpt>
      <trkpt lat="42.69852" lon="1.4579">
        <ele>1551.6</ele>
        <time>2020-08-05T13:43:29Z</time>
      </trkpt>
      <trkpt lat="42.69844" lon="1.45797">
        <ele>1552.6</ele>
        <time>2020-08-05T13:43:37Z</time>
      </trkpt>
      <trkpt lat="42.69838" lon="1.45802">
        <ele>1553.6</ele>
        <time>2020-08-05T13:43:44Z</time>
      </trkpt>
      <trkpt lat="42.69837" lon="1.45803">
        <ele>1553.8</ele>
        <time>2020-08-05T13:43:45Z</time>
      </trkpt>
      <trkpt lat="42.69833" lon="1.45805">
        <ele>1554.2</ele>
        <time>2020-08-05T13:43:49Z</time>
      </trkpt>
      <trkpt lat="42.69832" lon="1.45805">
        <ele>1554.4</ele>
        <time>2020-08-05T13:43:50Z</time>
      </trkpt>
      <trkpt lat="42.6983" lon="1.45806">
        <ele>1554.8</ele>
        <time>2020-08-05T13:43:52Z</time>
      </trkpt>
      <trkpt lat="42.69827" lon="1.45808">
        <ele>1555</ele>
        <time>2020-08-05T13:43:55Z</time>
      </trkpt>
      <trkpt lat="42.69826" lon="1.45809">
        <ele>1555.2</ele>
        <time>2020-08-05T13:43:57Z</time>
      </trkpt>
      <trkpt lat="42.69824" lon="1.45811">
        <ele>1555.6</ele>
        <time>2020-08-05T13:43:59Z</time>
      </trkpt>
      <trkpt lat="42.69822" lon="1.45811">
        <ele>1555.8</ele>
        <time>2020-08-05T13:44:01Z</time>
      </trkpt>
      <trkpt lat="42.69819" lon="1.45812">
        <ele>1556</ele>
        <time>2020-08-05T13:44:03Z</time>
      </trkpt>
      <trkpt lat="42.69811" lon="1.45815">
        <ele>1556.8</ele>
        <time>2020-08-05T13:44:10Z</time>
      </trkpt>
      <trkpt lat="42.69809" lon="1.45816">
        <ele>1557</ele>
        <time>2020-08-05T13:44:12Z</time>
      </trkpt>
      <trkpt lat="42.69801" lon="1.45819">
        <ele>1557.6</ele>
        <time>2020-08-05T13:44:18Z</time>
      </trkpt>
      <trkpt lat="42.69798" lon="1.45821">
        <ele>1558</ele>
        <time>2020-08-05T13:44:21Z</time>
      </trkpt>
      <trkpt lat="42.69792" lon="1.45823">
        <ele>1558.8</ele>
        <time>2020-08-05T13:44:26Z</time>
      </trkpt>
      <trkpt lat="42.69791" lon="1.45824">
        <ele>1559</ele>
        <time>2020-08-05T13:44:27Z</time>
      </trkpt>
      <trkpt lat="42.69782" lon="1.45827">
        <ele>1560</ele>
        <time>2020-08-05T13:44:35Z</time>
      </trkpt>
      <trkpt lat="42.69772" lon="1.45827">
        <ele>1561</ele>
        <time>2020-08-05T13:44:43Z</time>
      </trkpt>
      <trkpt lat="42.69771" lon="1.45827">
        <ele>1561</ele>
        <time>2020-08-05T13:44:44Z</time>
      </trkpt>
      <trkpt lat="42.6976" lon="1.4583">
        <ele>1562</ele>
        <time>2020-08-05T13:44:52Z</time>
      </trkpt>
      <trkpt lat="42.69759" lon="1.4583">
        <ele>1562.2</ele>
        <time>2020-08-05T13:44:53Z</time>
      </trkpt>
      <trkpt lat="42.69749" lon="1.45833">
        <ele>1563</ele>
        <time>2020-08-05T13:45:00Z</time>
      </trkpt>
      <trkpt lat="42.69748" lon="1.45834">
        <ele>1563.2</ele>
        <time>2020-08-05T13:45:01Z</time>
      </trkpt>
      <trkpt lat="42.69741" lon="1.45839">
        <ele>1564</ele>
        <time>2020-08-05T13:45:08Z</time>
      </trkpt>
      <trkpt lat="42.6974" lon="1.45841">
        <ele>1564.2</ele>
        <time>2020-08-05T13:45:09Z</time>
      </trkpt>
      <trkpt lat="42.6974" lon="1.45844">
        <ele>1564.6</ele>
        <time>2020-08-05T13:45:11Z</time>
      </trkpt>
      <trkpt lat="42.69741" lon="1.45846">
        <ele>1565</ele>
        <time>2020-08-05T13:45:13Z</time>
      </trkpt>
      <trkpt lat="42.69744" lon="1.45848">
        <ele>1565.2</ele>
        <time>2020-08-05T13:45:15Z</time>
      </trkpt>
      <trkpt lat="42.69746" lon="1.45848">
        <ele>1565.6</ele>
        <time>2020-08-05T13:45:17Z</time>
      </trkpt>
      <trkpt lat="42.69747" lon="1.45847">
        <ele>1565.6</ele>
        <time>2020-08-05T13:45:18Z</time>
      </trkpt>
      <trkpt lat="42.69757" lon="1.45841">
        <ele>1566.4</ele>
        <time>2020-08-05T13:45:26Z</time>
      </trkpt>
      <trkpt lat="42.69759" lon="1.45841">
        <ele>1566.4</ele>
        <time>2020-08-05T13:45:27Z</time>
      </trkpt>
      <trkpt lat="42.69763" lon="1.4584">
        <ele>1566.8</ele>
        <time>2020-08-05T13:45:30Z</time>
      </trkpt>
      <trkpt lat="42.69768" lon="1.45842">
        <ele>1567.2</ele>
        <time>2020-08-05T13:45:34Z</time>
      </trkpt>
      <trkpt lat="42.69769" lon="1.45843">
        <ele>1567.4</ele>
        <time>2020-08-05T13:45:35Z</time>
      </trkpt>
      <trkpt lat="42.69777" lon="1.45847">
        <ele>1568.4</ele>
        <time>2020-08-05T13:45:42Z</time>
      </trkpt>
      <trkpt lat="42.69783" lon="1.4585">
        <ele>1568.8</ele>
        <time>2020-08-05T13:45:47Z</time>
      </trkpt>
      <trkpt lat="42.69784" lon="1.45851">
        <ele>1569</ele>
        <time>2020-08-05T13:45:48Z</time>
      </trkpt>
      <trkpt lat="42.69786" lon="1.4585">
        <ele>1569.4</ele>
        <time>2020-08-05T13:45:50Z</time>
      </trkpt>
      <trkpt lat="42.6979" lon="1.4585">
        <ele>1569.8</ele>
        <time>2020-08-05T13:45:53Z</time>
      </trkpt>
      <trkpt lat="42.69795" lon="1.45853">
        <ele>1570.8</ele>
        <time>2020-08-05T13:45:58Z</time>
      </trkpt>
      <trkpt lat="42.69797" lon="1.45853">
        <ele>1571</ele>
        <time>2020-08-05T13:46:00Z</time>
      </trkpt>
      <trkpt lat="42.69805" lon="1.45852">
        <ele>1571.8</ele>
        <time>2020-08-05T13:46:07Z</time>
      </trkpt>
      <trkpt lat="42.69807" lon="1.45851">
        <ele>1571.8</ele>
        <time>2020-08-05T13:46:08Z</time>
      </trkpt>
      <trkpt lat="42.69812" lon="1.45852">
        <ele>1572.2</ele>
        <time>2020-08-05T13:46:13Z</time>
      </trkpt>
      <trkpt lat="42.69814" lon="1.45853">
        <ele>1572.4</ele>
        <time>2020-08-05T13:46:14Z</time>
      </trkpt>
      <trkpt lat="42.69817" lon="1.45853">
        <ele>1572.8</ele>
        <time>2020-08-05T13:46:17Z</time>
      </trkpt>
      <trkpt lat="42.69821" lon="1.45854">
        <ele>1573.2</ele>
        <time>2020-08-05T13:46:20Z</time>
      </trkpt>
      <trkpt lat="42.69826" lon="1.45853">
        <ele>1574</ele>
        <time>2020-08-05T13:46:25Z</time>
      </trkpt>
      <trkpt lat="42.69827" lon="1.45853">
        <ele>1574.2</ele>
        <time>2020-08-05T13:46:26Z</time>
      </trkpt>
      <trkpt lat="42.69834" lon="1.45853">
        <ele>1575</ele>
        <time>2020-08-05T13:46:32Z</time>
      </trkpt>
      <trkpt lat="42.69835" lon="1.45853">
        <ele>1575.2</ele>
        <time>2020-08-05T13:46:33Z</time>
      </trkpt>
      <trkpt lat="42.69846" lon="1.45854">
        <ele>1576.2</ele>
        <time>2020-08-05T13:46:42Z</time>
      </trkpt>
      <trkpt lat="42.69848" lon="1.45854">
        <ele>1576.4</ele>
        <time>2020-08-05T13:46:43Z</time>
      </trkpt>
      <trkpt lat="42.69853" lon="1.45852">
        <ele>1577.4</ele>
        <time>2020-08-05T13:46:48Z</time>
      </trkpt>
      <trkpt lat="42.69854" lon="1.45853">
        <ele>1577.6</ele>
        <time>2020-08-05T13:46:49Z</time>
      </trkpt>
      <trkpt lat="42.69861" lon="1.45853">
        <ele>1578.4</ele>
        <time>2020-08-05T13:46:55Z</time>
      </trkpt>
      <trkpt lat="42.69864" lon="1.45852">
        <ele>1578.8</ele>
        <time>2020-08-05T13:46:57Z</time>
      </trkpt>
      <trkpt lat="42.69871" lon="1.45852">
        <ele>1579.4</ele>
        <time>2020-08-05T13:47:04Z</time>
      </trkpt>
      <trkpt lat="42.69874" lon="1.45853">
        <ele>1579.8</ele>
        <time>2020-08-05T13:47:06Z</time>
      </trkpt>
      <trkpt lat="42.69876" lon="1.45853">
        <ele>1580.2</ele>
        <time>2020-08-05T13:47:08Z</time>
      </trkpt>
      <trkpt lat="42.69878" lon="1.45852">
        <ele>1580.4</ele>
        <time>2020-08-05T13:47:10Z</time>
      </trkpt>
      <trkpt lat="42.69879" lon="1.45851">
        <ele>1580.4</ele>
        <time>2020-08-05T13:47:11Z</time>
      </trkpt>
      <trkpt lat="42.6988" lon="1.4585">
        <ele>1580.6</ele>
        <time>2020-08-05T13:47:12Z</time>
      </trkpt>
      <trkpt lat="42.69886" lon="1.45849">
        <ele>1581.2</ele>
        <time>2020-08-05T13:47:17Z</time>
      </trkpt>
      <trkpt lat="42.69891" lon="1.45849">
        <ele>1581.6</ele>
        <time>2020-08-05T13:47:21Z</time>
      </trkpt>
      <trkpt lat="42.69892" lon="1.45849">
        <ele>1581.8</ele>
        <time>2020-08-05T13:47:22Z</time>
      </trkpt>
      <trkpt lat="42.69893" lon="1.45848">
        <ele>1582.2</ele>
        <time>2020-08-05T13:47:23Z</time>
      </trkpt>
      <trkpt lat="42.69899" lon="1.45847">
        <ele>1582.8</ele>
        <time>2020-08-05T13:47:28Z</time>
      </trkpt>
      <trkpt lat="42.69902" lon="1.45846">
        <ele>1583.2</ele>
        <time>2020-08-05T13:47:31Z</time>
      </trkpt>
      <trkpt lat="42.69903" lon="1.45846">
        <ele>1583.4</ele>
        <time>2020-08-05T13:47:32Z</time>
      </trkpt>
      <trkpt lat="42.69907" lon="1.45845">
        <ele>1583.8</ele>
        <time>2020-08-05T13:47:35Z</time>
      </trkpt>
      <trkpt lat="42.69913" lon="1.45845">
        <ele>1584.2</ele>
        <time>2020-08-05T13:47:40Z</time>
      </trkpt>
      <trkpt lat="42.69916" lon="1.45844">
        <ele>1584.4</ele>
        <time>2020-08-05T13:47:42Z</time>
      </trkpt>
      <trkpt lat="42.69921" lon="1.45843">
        <ele>1584.8</ele>
        <time>2020-08-05T13:47:46Z</time>
      </trkpt>
      <trkpt lat="42.69922" lon="1.45843">
        <ele>1585</ele>
        <time>2020-08-05T13:47:47Z</time>
      </trkpt>
      <trkpt lat="42.69926" lon="1.45843">
        <ele>1585.6</ele>
        <time>2020-08-05T13:47:51Z</time>
      </trkpt>
      <trkpt lat="42.69927" lon="1.45844">
        <ele>1585.6</ele>
        <time>2020-08-05T13:47:52Z</time>
      </trkpt>
      <trkpt lat="42.6993" lon="1.45844">
        <ele>1586</ele>
        <time>2020-08-05T13:47:55Z</time>
      </trkpt>
      <trkpt lat="42.69933" lon="1.45846">
        <ele>1586.6</ele>
        <time>2020-08-05T13:47:58Z</time>
      </trkpt>
      <trkpt lat="42.69937" lon="1.45848">
        <ele>1587.2</ele>
        <time>2020-08-05T13:48:02Z</time>
      </trkpt>
      <trkpt lat="42.6994" lon="1.45851">
        <ele>1587.8</ele>
        <time>2020-08-05T13:48:06Z</time>
      </trkpt>
      <trkpt lat="42.69942" lon="1.45851">
        <ele>1587.8</ele>
        <time>2020-08-05T13:48:07Z</time>
      </trkpt>
      <trkpt lat="42.69944" lon="1.45853">
        <ele>1588.2</ele>
        <time>2020-08-05T13:48:09Z</time>
      </trkpt>
      <trkpt lat="42.69946" lon="1.45854">
        <ele>1588.4</ele>
        <time>2020-08-05T13:48:11Z</time>
      </trkpt>
      <trkpt lat="42.69947" lon="1.45854">
        <ele>1588.6</ele>
        <time>2020-08-05T13:48:12Z</time>
      </trkpt>
      <trkpt lat="42.69952" lon="1.45855">
        <ele>1589.2</ele>
        <time>2020-08-05T13:48:17Z</time>
      </trkpt>
      <trkpt lat="42.69956" lon="1.45857">
        <ele>1589.8</ele>
        <time>2020-08-05T13:48:20Z</time>
      </trkpt>
      <trkpt lat="42.69957" lon="1.45857">
        <ele>1589.8</ele>
        <time>2020-08-05T13:48:21Z</time>
      </trkpt>
      <trkpt lat="42.6996" lon="1.45859">
        <ele>1590.4</ele>
        <time>2020-08-05T13:48:24Z</time>
      </trkpt>
      <trkpt lat="42.69965" lon="1.4586">
        <ele>1590.6</ele>
        <time>2020-08-05T13:48:28Z</time>
      </trkpt>
      <trkpt lat="42.69966" lon="1.45859">
        <ele>1590.8</ele>
        <time>2020-08-05T13:48:29Z</time>
      </trkpt>
      <trkpt lat="42.6997" lon="1.45859">
        <ele>1591.2</ele>
        <time>2020-08-05T13:48:33Z</time>
      </trkpt>
      <trkpt lat="42.69972" lon="1.4586">
        <ele>1591.4</ele>
        <time>2020-08-05T13:48:35Z</time>
      </trkpt>
      <trkpt lat="42.69978" lon="1.45862">
        <ele>1592.2</ele>
        <time>2020-08-05T13:48:41Z</time>
      </trkpt>
      <trkpt lat="42.69979" lon="1.45863">
        <ele>1592.2</ele>
        <time>2020-08-05T13:48:42Z</time>
      </trkpt>
      <trkpt lat="42.6998" lon="1.45863">
        <ele>1592.4</ele>
        <time>2020-08-05T13:48:43Z</time>
      </trkpt>
      <trkpt lat="42.69982" lon="1.45864">
        <ele>1592.6</ele>
        <time>2020-08-05T13:48:45Z</time>
      </trkpt>
      <trkpt lat="42.69984" lon="1.45866">
        <ele>1593</ele>
        <time>2020-08-05T13:48:48Z</time>
      </trkpt>
      <trkpt lat="42.69986" lon="1.45868">
        <ele>1593.2</ele>
        <time>2020-08-05T13:48:50Z</time>
      </trkpt>
      <trkpt lat="42.6999" lon="1.45874">
        <ele>1593.6</ele>
        <time>2020-08-05T13:48:55Z</time>
      </trkpt>
      <trkpt lat="42.69994" lon="1.4588">
        <ele>1594.4</ele>
        <time>2020-08-05T13:49:01Z</time>
      </trkpt>
      <trkpt lat="42.69996" lon="1.45882">
        <ele>1594.6</ele>
        <time>2020-08-05T13:49:03Z</time>
      </trkpt>
      <trkpt lat="42.69999" lon="1.45886">
        <ele>1595</ele>
        <time>2020-08-05T13:49:07Z</time>
      </trkpt>
      <trkpt lat="42.70002" lon="1.45887">
        <ele>1595.2</ele>
        <time>2020-08-05T13:49:09Z</time>
      </trkpt>
      <trkpt lat="42.70004" lon="1.45889">
        <ele>1595.6</ele>
        <time>2020-08-05T13:49:12Z</time>
      </trkpt>
      <trkpt lat="42.70006" lon="1.45891">
        <ele>1595.8</ele>
        <time>2020-08-05T13:49:14Z</time>
      </trkpt>
      <trkpt lat="42.70007" lon="1.45891">
        <ele>1596</ele>
        <time>2020-08-05T13:49:15Z</time>
      </trkpt>
      <trkpt lat="42.70011" lon="1.45893">
        <ele>1596.4</ele>
        <time>2020-08-05T13:49:19Z</time>
      </trkpt>
      <trkpt lat="42.70014" lon="1.45893">
        <ele>1596.8</ele>
        <time>2020-08-05T13:49:21Z</time>
      </trkpt>
      <trkpt lat="42.70015" lon="1.45893">
        <ele>1597</ele>
        <time>2020-08-05T13:49:22Z</time>
      </trkpt>
      <trkpt lat="42.70024" lon="1.45894">
        <ele>1597.6</ele>
        <time>2020-08-05T13:49:30Z</time>
      </trkpt>
      <trkpt lat="42.70025" lon="1.45894">
        <ele>1597.8</ele>
        <time>2020-08-05T13:49:31Z</time>
      </trkpt>
      <trkpt lat="42.70031" lon="1.45894">
        <ele>1598.8</ele>
        <time>2020-08-05T13:49:37Z</time>
      </trkpt>
      <trkpt lat="42.70036" lon="1.45892">
        <ele>1599.6</ele>
        <time>2020-08-05T13:49:42Z</time>
      </trkpt>
      <trkpt lat="42.70038" lon="1.45893">
        <ele>1599.6</ele>
        <time>2020-08-05T13:49:44Z</time>
      </trkpt>
      <trkpt lat="42.70039" lon="1.45893">
        <ele>1599.8</ele>
        <time>2020-08-05T13:49:45Z</time>
      </trkpt>
      <trkpt lat="42.70042" lon="1.4589">
        <ele>1600.6</ele>
        <time>2020-08-05T13:49:48Z</time>
      </trkpt>
      <trkpt lat="42.70045" lon="1.45891">
        <ele>1600.8</ele>
        <time>2020-08-05T13:49:51Z</time>
      </trkpt>
      <trkpt lat="42.70049" lon="1.45889">
        <ele>1601.6</ele>
        <time>2020-08-05T13:49:56Z</time>
      </trkpt>
      <trkpt lat="42.70052" lon="1.45888">
        <ele>1602</ele>
        <time>2020-08-05T13:49:58Z</time>
      </trkpt>
      <trkpt lat="42.70055" lon="1.45886">
        <ele>1602.6</ele>
        <time>2020-08-05T13:50:01Z</time>
      </trkpt>
      <trkpt lat="42.70057" lon="1.45885">
        <ele>1602.8</ele>
        <time>2020-08-05T13:50:03Z</time>
      </trkpt>
      <trkpt lat="42.70058" lon="1.45885">
        <ele>1603</ele>
        <time>2020-08-05T13:50:04Z</time>
      </trkpt>
      <trkpt lat="42.7006" lon="1.45884">
        <ele>1603.2</ele>
        <time>2020-08-05T13:50:06Z</time>
      </trkpt>
      <trkpt lat="42.70062" lon="1.45883">
        <ele>1603.4</ele>
        <time>2020-08-05T13:50:08Z</time>
      </trkpt>
      <trkpt lat="42.70063" lon="1.45882">
        <ele>1603.6</ele>
        <time>2020-08-05T13:50:09Z</time>
      </trkpt>
      <trkpt lat="42.70068" lon="1.45878">
        <ele>1604.4</ele>
        <time>2020-08-05T13:50:14Z</time>
      </trkpt>
      <trkpt lat="42.70069" lon="1.45878">
        <ele>1604.4</ele>
        <time>2020-08-05T13:50:15Z</time>
      </trkpt>
      <trkpt lat="42.70072" lon="1.45876">
        <ele>1604.8</ele>
        <time>2020-08-05T13:50:19Z</time>
      </trkpt>
      <trkpt lat="42.70075" lon="1.45873">
        <ele>1605</ele>
        <time>2020-08-05T13:50:22Z</time>
      </trkpt>
      <trkpt lat="42.70076" lon="1.45871">
        <ele>1605.4</ele>
        <time>2020-08-05T13:50:24Z</time>
      </trkpt>
      <trkpt lat="42.70077" lon="1.45871">
        <ele>1605.6</ele>
        <time>2020-08-05T13:50:25Z</time>
      </trkpt>
      <trkpt lat="42.7008" lon="1.4587">
        <ele>1605.8</ele>
        <time>2020-08-05T13:50:27Z</time>
      </trkpt>
      <trkpt lat="42.70082" lon="1.4587">
        <ele>1606</ele>
        <time>2020-08-05T13:50:29Z</time>
      </trkpt>
      <trkpt lat="42.70085" lon="1.4587">
        <ele>1606.4</ele>
        <time>2020-08-05T13:50:32Z</time>
      </trkpt>
      <trkpt lat="42.70087" lon="1.45868">
        <ele>1606.8</ele>
        <time>2020-08-05T13:50:34Z</time>
      </trkpt>
      <trkpt lat="42.7009" lon="1.4587">
        <ele>1607</ele>
        <time>2020-08-05T13:50:37Z</time>
      </trkpt>
      <trkpt lat="42.70092" lon="1.45872">
        <ele>1607.2</ele>
        <time>2020-08-05T13:50:39Z</time>
      </trkpt>
      <trkpt lat="42.70094" lon="1.45872">
        <ele>1607.6</ele>
        <time>2020-08-05T13:50:42Z</time>
      </trkpt>
      <trkpt lat="42.70097" lon="1.4587">
        <ele>1608</ele>
        <time>2020-08-05T13:50:45Z</time>
      </trkpt>
      <trkpt lat="42.70101" lon="1.45869">
        <ele>1608.4</ele>
        <time>2020-08-05T13:50:49Z</time>
      </trkpt>
      <trkpt lat="42.70102" lon="1.45869">
        <ele>1608.6</ele>
        <time>2020-08-05T13:50:50Z</time>
      </trkpt>
      <trkpt lat="42.70103" lon="1.45868">
        <ele>1608.8</ele>
        <time>2020-08-05T13:50:51Z</time>
      </trkpt>
      <trkpt lat="42.70108" lon="1.45866">
        <ele>1609.6</ele>
        <time>2020-08-05T13:50:58Z</time>
      </trkpt>
      <trkpt lat="42.70108" lon="1.45866">
        <ele>1609.4</ele>
        <time>2020-08-05T13:51:07Z</time>
      </trkpt>
      <trkpt lat="42.70108" lon="1.45866">
        <ele>1609.8</ele>
        <time>2020-08-05T13:51:23Z</time>
      </trkpt>
      <trkpt lat="42.70108" lon="1.45866">
        <ele>1609.8</ele>
        <time>2020-08-05T13:51:30Z</time>
      </trkpt>
      <trkpt lat="42.70108" lon="1.45866">
        <ele>1609.8</ele>
        <time>2020-08-05T13:51:37Z</time>
      </trkpt>
      <trkpt lat="42.70107" lon="1.45866">
        <ele>1610</ele>
        <time>2020-08-05T13:51:44Z</time>
      </trkpt>
      <trkpt lat="42.7011" lon="1.45864">
        <ele>1610.4</ele>
        <time>2020-08-05T13:51:50Z</time>
      </trkpt>
      <trkpt lat="42.7011" lon="1.45864">
        <ele>1610.2</ele>
        <time>2020-08-05T13:51:58Z</time>
      </trkpt>
      <trkpt lat="42.70113" lon="1.45864">
        <ele>1610.4</ele>
        <time>2020-08-05T13:52:03Z</time>
      </trkpt>
      <trkpt lat="42.70113" lon="1.45864">
        <ele>1610.4</ele>
        <time>2020-08-05T13:52:11Z</time>
      </trkpt>
      <trkpt lat="42.70113" lon="1.45866">
        <ele>1610.6</ele>
        <time>2020-08-05T13:52:23Z</time>
      </trkpt>
      <trkpt lat="42.70114" lon="1.45868">
        <ele>1611</ele>
        <time>2020-08-05T13:52:26Z</time>
      </trkpt>
      <trkpt lat="42.70114" lon="1.45869">
        <ele>1611.6</ele>
        <time>2020-08-05T13:52:31Z</time>
      </trkpt>
      <trkpt lat="42.70113" lon="1.4587">
        <ele>1612</ele>
        <time>2020-08-05T13:52:33Z</time>
      </trkpt>
      <trkpt lat="42.70112" lon="1.45871">
        <ele>1612.6</ele>
        <time>2020-08-05T13:52:36Z</time>
      </trkpt>
      <trkpt lat="42.70111" lon="1.45873">
        <ele>1613.2</ele>
        <time>2020-08-05T13:52:39Z</time>
      </trkpt>
      <trkpt lat="42.70111" lon="1.45873">
        <ele>1613.6</ele>
        <time>2020-08-05T13:52:41Z</time>
      </trkpt>
      <trkpt lat="42.70111" lon="1.45873">
        <ele>1614.2</ele>
        <time>2020-08-05T13:52:47Z</time>
      </trkpt>
      <trkpt lat="42.70113" lon="1.45874">
        <ele>1614.4</ele>
        <time>2020-08-05T13:52:49Z</time>
      </trkpt>
      <trkpt lat="42.70116" lon="1.45876">
        <ele>1614.8</ele>
        <time>2020-08-05T13:52:56Z</time>
      </trkpt>
      <trkpt lat="42.70116" lon="1.45876">
        <ele>1615.2</ele>
        <time>2020-08-05T13:53:04Z</time>
      </trkpt>
      <trkpt lat="42.70116" lon="1.45876">
        <ele>1615.4</ele>
        <time>2020-08-05T13:53:06Z</time>
      </trkpt>
      <trkpt lat="42.70117" lon="1.45879">
        <ele>1616</ele>
        <time>2020-08-05T13:53:13Z</time>
      </trkpt>
      <trkpt lat="42.70117" lon="1.45879">
        <ele>1616.2</ele>
        <time>2020-08-05T13:53:19Z</time>
      </trkpt>
      <trkpt lat="42.70118" lon="1.4588">
        <ele>1616.8</ele>
        <time>2020-08-05T13:53:24Z</time>
      </trkpt>
      <trkpt lat="42.70119" lon="1.4588">
        <ele>1617.2</ele>
        <time>2020-08-05T13:53:30Z</time>
      </trkpt>
      <trkpt lat="42.70119" lon="1.4588">
        <ele>1617.4</ele>
        <time>2020-08-05T13:53:31Z</time>
      </trkpt>
      <trkpt lat="42.70121" lon="1.4588">
        <ele>1617.8</ele>
        <time>2020-08-05T13:53:35Z</time>
      </trkpt>
      <trkpt lat="42.70122" lon="1.45879">
        <ele>1617.6</ele>
        <time>2020-08-05T13:53:37Z</time>
      </trkpt>
      <trkpt lat="42.70125" lon="1.45879">
        <ele>1618</ele>
        <time>2020-08-05T13:53:43Z</time>
      </trkpt>
      <trkpt lat="42.70128" lon="1.45878">
        <ele>1618</ele>
        <time>2020-08-05T13:53:49Z</time>
      </trkpt>
      <trkpt lat="42.70131" lon="1.45879">
        <ele>1617.6</ele>
        <time>2020-08-05T13:53:54Z</time>
      </trkpt>
      <trkpt lat="42.70132" lon="1.45875">
        <ele>1616.4</ele>
        <time>2020-08-05T13:54:01Z</time>
      </trkpt>
      <trkpt lat="42.70132" lon="1.45874">
        <ele>1616</ele>
        <time>2020-08-05T13:54:02Z</time>
      </trkpt>
      <trkpt lat="42.70131" lon="1.45872">
        <ele>1615</ele>
        <time>2020-08-05T13:54:06Z</time>
      </trkpt>
      <trkpt lat="42.7013" lon="1.45871">
        <ele>1614.8</ele>
        <time>2020-08-05T13:54:07Z</time>
      </trkpt>
      <trkpt lat="42.70131" lon="1.4587">
        <ele>1614</ele>
        <time>2020-08-05T13:54:13Z</time>
      </trkpt>
      <trkpt lat="42.70133" lon="1.4587">
        <ele>1613.8</ele>
        <time>2020-08-05T13:54:14Z</time>
      </trkpt>
      <trkpt lat="42.70137" lon="1.45869">
        <ele>1612.8</ele>
        <time>2020-08-05T13:54:17Z</time>
      </trkpt>
      <trkpt lat="42.70139" lon="1.45869">
        <ele>1612.4</ele>
        <time>2020-08-05T13:54:19Z</time>
      </trkpt>
      <trkpt lat="42.70139" lon="1.4587">
        <ele>1612</ele>
        <time>2020-08-05T13:54:23Z</time>
      </trkpt>
      <trkpt lat="42.70139" lon="1.4587">
        <ele>1612</ele>
        <time>2020-08-05T13:54:39Z</time>
      </trkpt>
      <trkpt lat="42.70139" lon="1.4587">
        <ele>1612</ele>
        <time>2020-08-05T13:55:02Z</time>
      </trkpt>
      <trkpt lat="42.70139" lon="1.4587">
        <ele>1611.8</ele>
        <time>2020-08-05T13:55:14Z</time>
      </trkpt>
      <trkpt lat="42.70139" lon="1.4587">
        <ele>1612</ele>
        <time>2020-08-05T13:55:22Z</time>
      </trkpt>
      <trkpt lat="42.70139" lon="1.45869">
        <ele>1612.2</ele>
        <time>2020-08-05T13:55:38Z</time>
      </trkpt>
      <trkpt lat="42.70141" lon="1.4587">
        <ele>1612.6</ele>
        <time>2020-08-05T13:55:39Z</time>
      </trkpt>
      <trkpt lat="42.70142" lon="1.4587">
        <ele>1612.8</ele>
        <time>2020-08-05T13:55:42Z</time>
      </trkpt>
      <trkpt lat="42.70144" lon="1.45872">
        <ele>1612.8</ele>
        <time>2020-08-05T13:55:47Z</time>
      </trkpt>
      <trkpt lat="42.70154" lon="1.45878">
        <ele>1613.6</ele>
        <time>2020-08-05T13:55:54Z</time>
      </trkpt>
      <trkpt lat="42.7016" lon="1.4588">
        <ele>1614</ele>
        <time>2020-08-05T13:55:58Z</time>
      </trkpt>
      <trkpt lat="42.70164" lon="1.45879">
        <ele>1614.6</ele>
        <time>2020-08-05T13:56:01Z</time>
      </trkpt>
      <trkpt lat="42.70173" lon="1.45882">
        <ele>1615</ele>
        <time>2020-08-05T13:56:07Z</time>
      </trkpt>
      <trkpt lat="42.70176" lon="1.45884">
        <ele>1615.2</ele>
        <time>2020-08-05T13:56:09Z</time>
      </trkpt>
      <trkpt lat="42.70179" lon="1.45886">
        <ele>1615.4</ele>
        <time>2020-08-05T13:56:12Z</time>
      </trkpt>
      <trkpt lat="42.70186" lon="1.45889">
        <ele>1616.2</ele>
        <time>2020-08-05T13:56:17Z</time>
      </trkpt>
      <trkpt lat="42.70187" lon="1.4589">
        <ele>1616.2</ele>
        <time>2020-08-05T13:56:18Z</time>
      </trkpt>
      <trkpt lat="42.70192" lon="1.45897">
        <ele>1617.2</ele>
        <time>2020-08-05T13:56:24Z</time>
      </trkpt>
      <trkpt lat="42.70194" lon="1.45904">
        <ele>1618</ele>
        <time>2020-08-05T13:56:29Z</time>
      </trkpt>
      <trkpt lat="42.70195" lon="1.45905">
        <ele>1618.2</ele>
        <time>2020-08-05T13:56:30Z</time>
      </trkpt>
      <trkpt lat="42.70196" lon="1.45906">
        <ele>1618.2</ele>
        <time>2020-08-05T13:56:31Z</time>
      </trkpt>
      <trkpt lat="42.70199" lon="1.4591">
        <ele>1618.4</ele>
        <time>2020-08-05T13:56:34Z</time>
      </trkpt>
      <trkpt lat="42.70199" lon="1.45911">
        <ele>1618.6</ele>
        <time>2020-08-05T13:56:35Z</time>
      </trkpt>
      <trkpt lat="42.70203" lon="1.45918">
        <ele>1619.4</ele>
        <time>2020-08-05T13:56:41Z</time>
      </trkpt>
      <trkpt lat="42.70206" lon="1.45921">
        <ele>1619.4</ele>
        <time>2020-08-05T13:56:44Z</time>
      </trkpt>
      <trkpt lat="42.70212" lon="1.45929">
        <ele>1620.2</ele>
        <time>2020-08-05T13:56:51Z</time>
      </trkpt>
      <trkpt lat="42.70215" lon="1.45933">
        <ele>1620.4</ele>
        <time>2020-08-05T13:56:55Z</time>
      </trkpt>
      <trkpt lat="42.70219" lon="1.45936">
        <ele>1620.8</ele>
        <time>2020-08-05T13:56:58Z</time>
      </trkpt>
      <trkpt lat="42.70225" lon="1.45947">
        <ele>1621.4</ele>
        <time>2020-08-05T13:57:06Z</time>
      </trkpt>
      <trkpt lat="42.70226" lon="1.45948">
        <ele>1621.6</ele>
        <time>2020-08-05T13:57:07Z</time>
      </trkpt>
      <trkpt lat="42.70232" lon="1.45955">
        <ele>1622</ele>
        <time>2020-08-05T13:57:13Z</time>
      </trkpt>
      <trkpt lat="42.70238" lon="1.45961">
        <ele>1622.6</ele>
        <time>2020-08-05T13:57:18Z</time>
      </trkpt>
      <trkpt lat="42.70238" lon="1.45962">
        <ele>1622.6</ele>
        <time>2020-08-05T13:57:19Z</time>
      </trkpt>
      <trkpt lat="42.7024" lon="1.45964">
        <ele>1623</ele>
        <time>2020-08-05T13:57:25Z</time>
      </trkpt>
      <trkpt lat="42.7024" lon="1.45962">
        <ele>1622.6</ele>
        <time>2020-08-05T13:57:31Z</time>
      </trkpt>
      <trkpt lat="42.70242" lon="1.45963">
        <ele>1621</ele>
        <time>2020-08-05T13:57:34Z</time>
      </trkpt>
      <trkpt lat="42.70245" lon="1.45964">
        <ele>1620.4</ele>
        <time>2020-08-05T13:57:36Z</time>
      </trkpt>
      <trkpt lat="42.70249" lon="1.45968">
        <ele>1619.8</ele>
        <time>2020-08-05T13:57:39Z</time>
      </trkpt>
      <trkpt lat="42.70251" lon="1.4597">
        <ele>1618.8</ele>
        <time>2020-08-05T13:57:41Z</time>
      </trkpt>
      <trkpt lat="42.70252" lon="1.45971">
        <ele>1618.6</ele>
        <time>2020-08-05T13:57:42Z</time>
      </trkpt>
      <trkpt lat="42.70257" lon="1.45976">
        <ele>1617.2</ele>
        <time>2020-08-05T13:57:46Z</time>
      </trkpt>
      <trkpt lat="42.70259" lon="1.45977">
        <ele>1616.8</ele>
        <time>2020-08-05T13:57:47Z</time>
      </trkpt>
      <trkpt lat="42.70264" lon="1.45981">
        <ele>1616</ele>
        <time>2020-08-05T13:57:50Z</time>
      </trkpt>
      <trkpt lat="42.7027" lon="1.45985">
        <ele>1615.2</ele>
        <time>2020-08-05T13:57:54Z</time>
      </trkpt>
      <trkpt lat="42.70272" lon="1.45986">
        <ele>1614.8</ele>
        <time>2020-08-05T13:57:55Z</time>
      </trkpt>
      <trkpt lat="42.70275" lon="1.45987">
        <ele>1614.4</ele>
        <time>2020-08-05T13:57:59Z</time>
      </trkpt>
      <trkpt lat="42.70285" lon="1.45992">
        <ele>1613.4</ele>
        <time>2020-08-05T13:58:09Z</time>
      </trkpt>
      <trkpt lat="42.70289" lon="1.45993">
        <ele>1612.2</ele>
        <time>2020-08-05T13:58:11Z</time>
      </trkpt>
      <trkpt lat="42.70294" lon="1.45993">
        <ele>1611</ele>
        <time>2020-08-05T13:58:13Z</time>
      </trkpt>
      <trkpt lat="42.703" lon="1.4599">
        <ele>1609.6</ele>
        <time>2020-08-05T13:58:15Z</time>
      </trkpt>
      <trkpt lat="42.70303" lon="1.45987">
        <ele>1608.4</ele>
        <time>2020-08-05T13:58:16Z</time>
      </trkpt>
      <trkpt lat="42.70309" lon="1.45981">
        <ele>1606.8</ele>
        <time>2020-08-05T13:58:18Z</time>
      </trkpt>
      <trkpt lat="42.70313" lon="1.45974">
        <ele>1605.2</ele>
        <time>2020-08-05T13:58:20Z</time>
      </trkpt>
      <trkpt lat="42.70317" lon="1.45968">
        <ele>1603.2</ele>
        <time>2020-08-05T13:58:22Z</time>
      </trkpt>
      <trkpt lat="42.70321" lon="1.45963">
        <ele>1602.2</ele>
        <time>2020-08-05T13:58:24Z</time>
      </trkpt>
      <trkpt lat="42.7032" lon="1.45964">
        <ele>1602.2</ele>
        <time>2020-08-05T13:58:25Z</time>
      </trkpt>
      <trkpt lat="42.70328" lon="1.45954">
        <ele>1601.6</ele>
        <time>2020-08-05T13:58:30Z</time>
      </trkpt>
      <trkpt lat="42.7033" lon="1.45952">
        <ele>1601</ele>
        <time>2020-08-05T13:58:31Z</time>
      </trkpt>
      <trkpt lat="42.70331" lon="1.45951">
        <ele>1600.6</ele>
        <time>2020-08-05T13:58:33Z</time>
      </trkpt>
      <trkpt lat="42.70333" lon="1.45949">
        <ele>1600.6</ele>
        <time>2020-08-05T13:58:35Z</time>
      </trkpt>
      <trkpt lat="42.70335" lon="1.45946">
        <ele>1600.2</ele>
        <time>2020-08-05T13:58:43Z</time>
      </trkpt>
      <trkpt lat="42.70335" lon="1.45945">
        <ele>1600</ele>
        <time>2020-08-05T13:58:45Z</time>
      </trkpt>
      <trkpt lat="42.70335" lon="1.45945">
        <ele>1599.8</ele>
        <time>2020-08-05T13:58:51Z</time>
      </trkpt>
      <trkpt lat="42.70336" lon="1.45942">
        <ele>1599.8</ele>
        <time>2020-08-05T13:58:52Z</time>
      </trkpt>
      <trkpt lat="42.70339" lon="1.45939">
        <ele>1599.2</ele>
        <time>2020-08-05T13:58:56Z</time>
      </trkpt>
      <trkpt lat="42.70339" lon="1.45938">
        <ele>1599</ele>
        <time>2020-08-05T13:58:58Z</time>
      </trkpt>
      <trkpt lat="42.70343" lon="1.45931">
        <ele>1598.4</ele>
        <time>2020-08-05T13:59:01Z</time>
      </trkpt>
      <trkpt lat="42.70344" lon="1.45929">
        <ele>1598.4</ele>
        <time>2020-08-05T13:59:02Z</time>
      </trkpt>
      <trkpt lat="42.70344" lon="1.45926">
        <ele>1597.8</ele>
        <time>2020-08-05T13:59:04Z</time>
      </trkpt>
      <trkpt lat="42.70346" lon="1.45923">
        <ele>1597.2</ele>
        <time>2020-08-05T13:59:06Z</time>
      </trkpt>
      <trkpt lat="42.70348" lon="1.45921">
        <ele>1596.8</ele>
        <time>2020-08-05T13:59:07Z</time>
      </trkpt>
      <trkpt lat="42.70351" lon="1.45917">
        <ele>1595.8</ele>
        <time>2020-08-05T13:59:09Z</time>
      </trkpt>
      <trkpt lat="42.70352" lon="1.45915">
        <ele>1594.4</ele>
        <time>2020-08-05T13:59:10Z</time>
      </trkpt>
      <trkpt lat="42.70357" lon="1.45911">
        <ele>1593.2</ele>
        <time>2020-08-05T13:59:12Z</time>
      </trkpt>
      <trkpt lat="42.70362" lon="1.45908">
        <ele>1591.8</ele>
        <time>2020-08-05T13:59:14Z</time>
      </trkpt>
      <trkpt lat="42.70362" lon="1.45908">
        <ele>1591</ele>
        <time>2020-08-05T13:59:16Z</time>
      </trkpt>
      <trkpt lat="42.70363" lon="1.45905">
        <ele>1591.8</ele>
        <time>2020-08-05T13:59:21Z</time>
      </trkpt>
      <trkpt lat="42.70362" lon="1.45904">
        <ele>1591.6</ele>
        <time>2020-08-05T13:59:22Z</time>
      </trkpt>
      <trkpt lat="42.70362" lon="1.45903">
        <ele>1590.8</ele>
        <time>2020-08-05T13:59:25Z</time>
      </trkpt>
      <trkpt lat="42.7036" lon="1.45901">
        <ele>1590.2</ele>
        <time>2020-08-05T13:59:29Z</time>
      </trkpt>
      <trkpt lat="42.70357" lon="1.45899">
        <ele>1589.2</ele>
        <time>2020-08-05T13:59:31Z</time>
      </trkpt>
      <trkpt lat="42.70356" lon="1.45898">
        <ele>1587.8</ele>
        <time>2020-08-05T13:59:34Z</time>
      </trkpt>
      <trkpt lat="42.70355" lon="1.45898">
        <ele>1587.6</ele>
        <time>2020-08-05T13:59:35Z</time>
      </trkpt>
      <trkpt lat="42.70355" lon="1.45898">
        <ele>1587.8</ele>
        <time>2020-08-05T13:59:49Z</time>
      </trkpt>
      <trkpt lat="42.70355" lon="1.45898">
        <ele>1587.8</ele>
        <time>2020-08-05T13:59:52Z</time>
      </trkpt>
      <trkpt lat="42.70355" lon="1.45898">
        <ele>1587.8</ele>
        <time>2020-08-05T14:00:06Z</time>
      </trkpt>
      <trkpt lat="42.70351" lon="1.45896">
        <ele>1586.6</ele>
        <time>2020-08-05T14:00:12Z</time>
      </trkpt>
      <trkpt lat="42.70352" lon="1.45895">
        <ele>1586</ele>
        <time>2020-08-05T14:00:13Z</time>
      </trkpt>
      <trkpt lat="42.70353" lon="1.45892">
        <ele>1585.2</ele>
        <time>2020-08-05T14:00:15Z</time>
      </trkpt>
      <trkpt lat="42.70354" lon="1.4589">
        <ele>1584.8</ele>
        <time>2020-08-05T14:00:16Z</time>
      </trkpt>
      <trkpt lat="42.70355" lon="1.45888">
        <ele>1584</ele>
        <time>2020-08-05T14:00:17Z</time>
      </trkpt>
      <trkpt lat="42.70356" lon="1.45887">
        <ele>1583.4</ele>
        <time>2020-08-05T14:00:18Z</time>
      </trkpt>
      <trkpt lat="42.70357" lon="1.45886">
        <ele>1582.6</ele>
        <time>2020-08-05T14:00:19Z</time>
      </trkpt>
      <trkpt lat="42.70358" lon="1.45886">
        <ele>1582</ele>
        <time>2020-08-05T14:00:20Z</time>
      </trkpt>
      <trkpt lat="42.70359" lon="1.45885">
        <ele>1581.4</ele>
        <time>2020-08-05T14:00:21Z</time>
      </trkpt>
      <trkpt lat="42.70361" lon="1.45884">
        <ele>1580.4</ele>
        <time>2020-08-05T14:00:22Z</time>
      </trkpt>
      <trkpt lat="42.70362" lon="1.45884">
        <ele>1579.8</ele>
        <time>2020-08-05T14:00:23Z</time>
      </trkpt>
      <trkpt lat="42.70363" lon="1.45883">
        <ele>1579</ele>
        <time>2020-08-05T14:00:24Z</time>
      </trkpt>
      <trkpt lat="42.70363" lon="1.4588">
        <ele>1577.4</ele>
        <time>2020-08-05T14:00:26Z</time>
      </trkpt>
      <trkpt lat="42.70363" lon="1.45878">
        <ele>1576.4</ele>
        <time>2020-08-05T14:00:27Z</time>
      </trkpt>
      <trkpt lat="42.70362" lon="1.45876">
        <ele>1575.8</ele>
        <time>2020-08-05T14:00:28Z</time>
      </trkpt>
      <trkpt lat="42.7036" lon="1.45873">
        <ele>1574.6</ele>
        <time>2020-08-05T14:00:29Z</time>
      </trkpt>
      <trkpt lat="42.70358" lon="1.45872">
        <ele>1573.6</ele>
        <time>2020-08-05T14:00:30Z</time>
      </trkpt>
      <trkpt lat="42.70354" lon="1.45868">
        <ele>1572</ele>
        <time>2020-08-05T14:00:32Z</time>
      </trkpt>
      <trkpt lat="42.7035" lon="1.45865">
        <ele>1570.2</ele>
        <time>2020-08-05T14:00:34Z</time>
      </trkpt>
      <trkpt lat="42.70346" lon="1.45863">
        <ele>1568.6</ele>
        <time>2020-08-05T14:00:36Z</time>
      </trkpt>
      <trkpt lat="42.70344" lon="1.45862">
        <ele>1567.6</ele>
        <time>2020-08-05T14:00:37Z</time>
      </trkpt>
      <trkpt lat="42.70343" lon="1.45861">
        <ele>1566.8</ele>
        <time>2020-08-05T14:00:38Z</time>
      </trkpt>
      <trkpt lat="42.70341" lon="1.4586">
        <ele>1565.6</ele>
        <time>2020-08-05T14:00:39Z</time>
      </trkpt>
      <trkpt lat="42.70339" lon="1.45859">
        <ele>1564</ele>
        <time>2020-08-05T14:00:42Z</time>
      </trkpt>
      <trkpt lat="42.70338" lon="1.45857">
        <ele>1563.2</ele>
        <time>2020-08-05T14:00:43Z</time>
      </trkpt>
      <trkpt lat="42.70338" lon="1.45857">
        <ele>1562.8</ele>
        <time>2020-08-05T14:00:44Z</time>
      </trkpt>
      <trkpt lat="42.70337" lon="1.45858">
        <ele>1562.4</ele>
        <time>2020-08-05T14:00:48Z</time>
      </trkpt>
      <trkpt lat="42.70338" lon="1.45858">
        <ele>1561.8</ele>
        <time>2020-08-05T14:00:56Z</time>
      </trkpt>
      <trkpt lat="42.70338" lon="1.45858">
        <ele>1561.6</ele>
        <time>2020-08-05T14:01:00Z</time>
      </trkpt>
      <trkpt lat="42.70339" lon="1.45857">
        <ele>1561.6</ele>
        <time>2020-08-05T14:01:02Z</time>
      </trkpt>
      <trkpt lat="42.70338" lon="1.45858">
        <ele>1561.4</ele>
        <time>2020-08-05T14:01:03Z</time>
      </trkpt>
      <trkpt lat="42.70341" lon="1.45854">
        <ele>1560.4</ele>
        <time>2020-08-05T14:01:05Z</time>
      </trkpt>
      <trkpt lat="42.70342" lon="1.45853">
        <ele>1559.8</ele>
        <time>2020-08-05T14:01:06Z</time>
      </trkpt>
      <trkpt lat="42.70343" lon="1.45852">
        <ele>1559</ele>
        <time>2020-08-05T14:01:07Z</time>
      </trkpt>
      <trkpt lat="42.70345" lon="1.45851">
        <ele>1558</ele>
        <time>2020-08-05T14:01:09Z</time>
      </trkpt>
      <trkpt lat="42.70348" lon="1.4585">
        <ele>1556.8</ele>
        <time>2020-08-05T14:01:10Z</time>
      </trkpt>
      <trkpt lat="42.70351" lon="1.45847">
        <ele>1555.8</ele>
        <time>2020-08-05T14:01:12Z</time>
      </trkpt>
      <trkpt lat="42.70351" lon="1.45847">
        <ele>1554.4</ele>
        <time>2020-08-05T14:01:14Z</time>
      </trkpt>
      <trkpt lat="42.70352" lon="1.45844">
        <ele>1553.8</ele>
        <time>2020-08-05T14:01:15Z</time>
      </trkpt>
      <trkpt lat="42.70351" lon="1.45842">
        <ele>1553.4</ele>
        <time>2020-08-05T14:01:16Z</time>
      </trkpt>
      <trkpt lat="42.7035" lon="1.4584">
        <ele>1552.8</ele>
        <time>2020-08-05T14:01:18Z</time>
      </trkpt>
      <trkpt lat="42.70349" lon="1.45839">
        <ele>1552.4</ele>
        <time>2020-08-05T14:01:19Z</time>
      </trkpt>
      <trkpt lat="42.70347" lon="1.45836">
        <ele>1551.4</ele>
        <time>2020-08-05T14:01:21Z</time>
      </trkpt>
      <trkpt lat="42.70345" lon="1.45834">
        <ele>1550.6</ele>
        <time>2020-08-05T14:01:22Z</time>
      </trkpt>
      <trkpt lat="42.70344" lon="1.45832">
        <ele>1550</ele>
        <time>2020-08-05T14:01:23Z</time>
      </trkpt>
      <trkpt lat="42.70342" lon="1.45831">
        <ele>1548.8</ele>
        <time>2020-08-05T14:01:25Z</time>
      </trkpt>
      <trkpt lat="42.70341" lon="1.4583">
        <ele>1548.2</ele>
        <time>2020-08-05T14:01:27Z</time>
      </trkpt>
      <trkpt lat="42.70341" lon="1.45829">
        <ele>1547.8</ele>
        <time>2020-08-05T14:01:30Z</time>
      </trkpt>
      <trkpt lat="42.7034" lon="1.45829">
        <ele>1547.8</ele>
        <time>2020-08-05T14:01:33Z</time>
      </trkpt>
      <trkpt lat="42.7034" lon="1.45829">
        <ele>1547</ele>
        <time>2020-08-05T14:01:40Z</time>
      </trkpt>
      <trkpt lat="42.7034" lon="1.4583">
        <ele>1546.8</ele>
        <time>2020-08-05T14:01:45Z</time>
      </trkpt>
      <trkpt lat="42.7034" lon="1.45829">
        <ele>1546</ele>
        <time>2020-08-05T14:01:47Z</time>
      </trkpt>
      <trkpt lat="42.70343" lon="1.45828">
        <ele>1545.4</ele>
        <time>2020-08-05T14:01:48Z</time>
      </trkpt>
      <trkpt lat="42.70347" lon="1.45826">
        <ele>1544</ele>
        <time>2020-08-05T14:01:50Z</time>
      </trkpt>
      <trkpt lat="42.70348" lon="1.45824">
        <ele>1543.2</ele>
        <time>2020-08-05T14:01:51Z</time>
      </trkpt>
      <trkpt lat="42.70347" lon="1.45825">
        <ele>1542.6</ele>
        <time>2020-08-05T14:01:52Z</time>
      </trkpt>
      <trkpt lat="42.7035" lon="1.45822">
        <ele>1541.6</ele>
        <time>2020-08-05T14:01:55Z</time>
      </trkpt>
      <trkpt lat="42.70351" lon="1.45822">
        <ele>1541.4</ele>
        <time>2020-08-05T14:01:57Z</time>
      </trkpt>
      <trkpt lat="42.70351" lon="1.45821">
        <ele>1540.6</ele>
        <time>2020-08-05T14:02:06Z</time>
      </trkpt>
      <trkpt lat="42.70349" lon="1.45817">
        <ele>1539.4</ele>
        <time>2020-08-05T14:02:12Z</time>
      </trkpt>
      <trkpt lat="42.70348" lon="1.45817">
        <ele>1538.8</ele>
        <time>2020-08-05T14:02:13Z</time>
      </trkpt>
      <trkpt lat="42.70347" lon="1.45817">
        <ele>1538.4</ele>
        <time>2020-08-05T14:02:14Z</time>
      </trkpt>
      <trkpt lat="42.70346" lon="1.45816">
        <ele>1537.6</ele>
        <time>2020-08-05T14:02:21Z</time>
      </trkpt>
      <trkpt lat="42.70346" lon="1.45816">
        <ele>1537.2</ele>
        <time>2020-08-05T14:02:23Z</time>
      </trkpt>
      <trkpt lat="42.70349" lon="1.45817">
        <ele>1536</ele>
        <time>2020-08-05T14:02:29Z</time>
      </trkpt>
      <trkpt lat="42.70352" lon="1.45812">
        <ele>1534.6</ele>
        <time>2020-08-05T14:02:33Z</time>
      </trkpt>
      <trkpt lat="42.70352" lon="1.45812">
        <ele>1534.4</ele>
        <time>2020-08-05T14:02:34Z</time>
      </trkpt>
      <trkpt lat="42.70352" lon="1.45808">
        <ele>1533.6</ele>
        <time>2020-08-05T14:02:37Z</time>
      </trkpt>
      <trkpt lat="42.7035" lon="1.45807">
        <ele>1533.2</ele>
        <time>2020-08-05T14:02:40Z</time>
      </trkpt>
      <trkpt lat="42.70348" lon="1.45804">
        <ele>1532.6</ele>
        <time>2020-08-05T14:02:42Z</time>
      </trkpt>
      <trkpt lat="42.70347" lon="1.45803">
        <ele>1532.2</ele>
        <time>2020-08-05T14:02:43Z</time>
      </trkpt>
      <trkpt lat="42.70346" lon="1.45802">
        <ele>1531.6</ele>
        <time>2020-08-05T14:02:44Z</time>
      </trkpt>
      <trkpt lat="42.70345" lon="1.45801">
        <ele>1530.8</ele>
        <time>2020-08-05T14:02:45Z</time>
      </trkpt>
      <trkpt lat="42.70342" lon="1.45799">
        <ele>1528.4</ele>
        <time>2020-08-05T14:02:47Z</time>
      </trkpt>
      <trkpt lat="42.70337" lon="1.45796">
        <ele>1527.4</ele>
        <time>2020-08-05T14:02:50Z</time>
      </trkpt>
      <trkpt lat="42.70332" lon="1.45793">
        <ele>1526.4</ele>
        <time>2020-08-05T14:02:53Z</time>
      </trkpt>
      <trkpt lat="42.70328" lon="1.45792">
        <ele>1525.6</ele>
        <time>2020-08-05T14:02:55Z</time>
      </trkpt>
      <trkpt lat="42.70329" lon="1.45792">
        <ele>1525.2</ele>
        <time>2020-08-05T14:02:56Z</time>
      </trkpt>
      <trkpt lat="42.70326" lon="1.45792">
        <ele>1524.8</ele>
        <time>2020-08-05T14:03:01Z</time>
      </trkpt>
      <trkpt lat="42.70328" lon="1.45792">
        <ele>1524</ele>
        <time>2020-08-05T14:03:07Z</time>
      </trkpt>
      <trkpt lat="42.70327" lon="1.45792">
        <ele>1523.8</ele>
        <time>2020-08-05T14:03:08Z</time>
      </trkpt>
      <trkpt lat="42.70329" lon="1.45791">
        <ele>1523.2</ele>
        <time>2020-08-05T14:03:14Z</time>
      </trkpt>
      <trkpt lat="42.70331" lon="1.4579">
        <ele>1523</ele>
        <time>2020-08-05T14:03:15Z</time>
      </trkpt>
      <trkpt lat="42.70332" lon="1.45787">
        <ele>1521.6</ele>
        <time>2020-08-05T14:03:18Z</time>
      </trkpt>
      <trkpt lat="42.70332" lon="1.45787">
        <ele>1521.4</ele>
        <time>2020-08-05T14:03:19Z</time>
      </trkpt>
      <trkpt lat="42.70331" lon="1.45786">
        <ele>1521.2</ele>
        <time>2020-08-05T14:03:20Z</time>
      </trkpt>
      <trkpt lat="42.70326" lon="1.4578">
        <ele>1520.2</ele>
        <time>2020-08-05T14:03:22Z</time>
      </trkpt>
      <trkpt lat="42.70322" lon="1.45776">
        <ele>1518.8</ele>
        <time>2020-08-05T14:03:24Z</time>
      </trkpt>
      <trkpt lat="42.70317" lon="1.45771">
        <ele>1517.6</ele>
        <time>2020-08-05T14:03:26Z</time>
      </trkpt>
      <trkpt lat="42.70311" lon="1.4577">
        <ele>1516.4</ele>
        <time>2020-08-05T14:03:28Z</time>
      </trkpt>
      <trkpt lat="42.70306" lon="1.45769">
        <ele>1515.2</ele>
        <time>2020-08-05T14:03:30Z</time>
      </trkpt>
      <trkpt lat="42.70299" lon="1.45766">
        <ele>1514</ele>
        <time>2020-08-05T14:03:32Z</time>
      </trkpt>
      <trkpt lat="42.70295" lon="1.45764">
        <ele>1512.8</ele>
        <time>2020-08-05T14:03:34Z</time>
      </trkpt>
      <trkpt lat="42.70297" lon="1.45765">
        <ele>1511.8</ele>
        <time>2020-08-05T14:03:35Z</time>
      </trkpt>
      <trkpt lat="42.70295" lon="1.45766">
        <ele>1511.4</ele>
        <time>2020-08-05T14:03:36Z</time>
      </trkpt>
      <trkpt lat="42.70295" lon="1.45764">
        <ele>1510.6</ele>
        <time>2020-08-05T14:03:38Z</time>
      </trkpt>
      <trkpt lat="42.70296" lon="1.45762">
        <ele>1509.8</ele>
        <time>2020-08-05T14:03:40Z</time>
      </trkpt>
      <trkpt lat="42.703" lon="1.4576">
        <ele>1509.6</ele>
        <time>2020-08-05T14:03:41Z</time>
      </trkpt>
      <trkpt lat="42.70306" lon="1.45757">
        <ele>1508.2</ele>
        <time>2020-08-05T14:03:44Z</time>
      </trkpt>
      <trkpt lat="42.70312" lon="1.45757">
        <ele>1507.2</ele>
        <time>2020-08-05T14:03:46Z</time>
      </trkpt>
      <trkpt lat="42.70318" lon="1.45755">
        <ele>1506</ele>
        <time>2020-08-05T14:03:48Z</time>
      </trkpt>
      <trkpt lat="42.70323" lon="1.45752">
        <ele>1504.6</ele>
        <time>2020-08-05T14:03:50Z</time>
      </trkpt>
      <trkpt lat="42.70328" lon="1.4575">
        <ele>1503.2</ele>
        <time>2020-08-05T14:03:52Z</time>
      </trkpt>
      <trkpt lat="42.7033" lon="1.45749">
        <ele>1502.6</ele>
        <time>2020-08-05T14:03:53Z</time>
      </trkpt>
      <trkpt lat="42.70329" lon="1.45749">
        <ele>1502.2</ele>
        <time>2020-08-05T14:03:54Z</time>
      </trkpt>
      <trkpt lat="42.70331" lon="1.45747">
        <ele>1501.8</ele>
        <time>2020-08-05T14:03:56Z</time>
      </trkpt>
      <trkpt lat="42.70332" lon="1.45746">
        <ele>1501.8</ele>
        <time>2020-08-05T14:03:58Z</time>
      </trkpt>
      <trkpt lat="42.70334" lon="1.45745">
        <ele>1502</ele>
        <time>2020-08-05T14:04:11Z</time>
      </trkpt>
      <trkpt lat="42.70334" lon="1.45745">
        <ele>1502</ele>
        <time>2020-08-05T14:04:26Z</time>
      </trkpt>
      <trkpt lat="42.70337" lon="1.45747">
        <ele>1502.4</ele>
        <time>2020-08-05T14:04:32Z</time>
      </trkpt>
      <trkpt lat="42.70343" lon="1.45749">
        <ele>1502.6</ele>
        <time>2020-08-05T14:04:34Z</time>
      </trkpt>
      <trkpt lat="42.7035" lon="1.45748">
        <ele>1503</ele>
        <time>2020-08-05T14:04:37Z</time>
      </trkpt>
      <trkpt lat="42.70352" lon="1.45748">
        <ele>1503.2</ele>
        <time>2020-08-05T14:04:38Z</time>
      </trkpt>
      <trkpt lat="42.70356" lon="1.45745">
        <ele>1504</ele>
        <time>2020-08-05T14:04:42Z</time>
      </trkpt>
      <trkpt lat="42.70364" lon="1.45741">
        <ele>1504.4</ele>
        <time>2020-08-05T14:04:47Z</time>
      </trkpt>
      <trkpt lat="42.70369" lon="1.45736">
        <ele>1504.8</ele>
        <time>2020-08-05T14:04:50Z</time>
      </trkpt>
      <trkpt lat="42.70372" lon="1.45733">
        <ele>1505</ele>
        <time>2020-08-05T14:04:57Z</time>
      </trkpt>
      <trkpt lat="42.70372" lon="1.45733">
        <ele>1505</ele>
        <time>2020-08-05T14:05:07Z</time>
      </trkpt>
      <trkpt lat="42.70372" lon="1.45733">
        <ele>1505</ele>
        <time>2020-08-05T14:05:18Z</time>
      </trkpt>
      <trkpt lat="42.70372" lon="1.45733">
        <ele>1505</ele>
        <time>2020-08-05T14:05:27Z</time>
      </trkpt>
      <trkpt lat="42.70372" lon="1.45733">
        <ele>1505</ele>
        <time>2020-08-05T14:05:40Z</time>
      </trkpt>
      <trkpt lat="42.70374" lon="1.45731">
        <ele>1505.2</ele>
        <time>2020-08-05T14:05:48Z</time>
      </trkpt>
      <trkpt lat="42.7038" lon="1.45726">
        <ele>1505.2</ele>
        <time>2020-08-05T14:05:51Z</time>
      </trkpt>
      <trkpt lat="42.70385" lon="1.4572">
        <ele>1505.4</ele>
        <time>2020-08-05T14:05:54Z</time>
      </trkpt>
      <trkpt lat="42.70391" lon="1.45714">
        <ele>1505.2</ele>
        <time>2020-08-05T14:05:58Z</time>
      </trkpt>
      <trkpt lat="42.70394" lon="1.45713">
        <ele>1505</ele>
        <time>2020-08-05T14:05:59Z</time>
      </trkpt>
      <trkpt lat="42.70408" lon="1.45712">
        <ele>1504.6</ele>
        <time>2020-08-05T14:06:04Z</time>
      </trkpt>
      <trkpt lat="42.70416" lon="1.45718">
        <ele>1503.2</ele>
        <time>2020-08-05T14:06:07Z</time>
      </trkpt>
      <trkpt lat="42.7042" lon="1.4572">
        <ele>1502.6</ele>
        <time>2020-08-05T14:06:09Z</time>
      </trkpt>
      <trkpt lat="42.70424" lon="1.45722">
        <ele>1502.2</ele>
        <time>2020-08-05T14:06:12Z</time>
      </trkpt>
      <trkpt lat="42.70425" lon="1.45721">
        <ele>1502</ele>
        <time>2020-08-05T14:06:14Z</time>
      </trkpt>
      <trkpt lat="42.70425" lon="1.45721">
        <ele>1502</ele>
        <time>2020-08-05T14:06:19Z</time>
      </trkpt>
      <trkpt lat="42.70432" lon="1.45724">
        <ele>1501.4</ele>
        <time>2020-08-05T14:06:23Z</time>
      </trkpt>
      <trkpt lat="42.70442" lon="1.4573">
        <ele>1501.6</ele>
        <time>2020-08-05T14:06:30Z</time>
      </trkpt>
      <trkpt lat="42.70457" lon="1.45735">
        <ele>1501.8</ele>
        <time>2020-08-05T14:06:37Z</time>
      </trkpt>
      <trkpt lat="42.70471" lon="1.45742">
        <ele>1501</ele>
        <time>2020-08-05T14:06:41Z</time>
      </trkpt>
      <trkpt lat="42.70483" lon="1.4575">
        <ele>1500.6</ele>
        <time>2020-08-05T14:06:45Z</time>
      </trkpt>
      <trkpt lat="42.705" lon="1.45757">
        <ele>1501</ele>
        <time>2020-08-05T14:06:52Z</time>
      </trkpt>
      <trkpt lat="42.70504" lon="1.4576">
        <ele>1501.2</ele>
        <time>2020-08-05T14:06:54Z</time>
      </trkpt>
      <trkpt lat="42.7051" lon="1.45762">
        <ele>1501.6</ele>
        <time>2020-08-05T14:06:57Z</time>
      </trkpt>
      <trkpt lat="42.7052" lon="1.45766">
        <ele>1501.8</ele>
        <time>2020-08-05T14:07:02Z</time>
      </trkpt>
      <trkpt lat="42.70531" lon="1.45772">
        <ele>1502</ele>
        <time>2020-08-05T14:07:07Z</time>
      </trkpt>
      <trkpt lat="42.70532" lon="1.45771">
        <ele>1501.8</ele>
        <time>2020-08-05T14:07:08Z</time>
      </trkpt>
      <trkpt lat="42.70539" lon="1.45772">
        <ele>1501.4</ele>
        <time>2020-08-05T14:07:11Z</time>
      </trkpt>
      <trkpt lat="42.70554" lon="1.4578">
        <ele>1500.6</ele>
        <time>2020-08-05T14:07:15Z</time>
      </trkpt>
      <trkpt lat="42.7056" lon="1.45784">
        <ele>1500</ele>
        <time>2020-08-05T14:07:17Z</time>
      </trkpt>
      <trkpt lat="42.70562" lon="1.45787">
        <ele>1500</ele>
        <time>2020-08-05T14:07:18Z</time>
      </trkpt>
      <trkpt lat="42.70564" lon="1.4579">
        <ele>1500</ele>
        <time>2020-08-05T14:07:19Z</time>
      </trkpt>
      <trkpt lat="42.70568" lon="1.45799">
        <ele>1500.8</ele>
        <time>2020-08-05T14:07:23Z</time>
      </trkpt>
      <trkpt lat="42.7057" lon="1.458">
        <ele>1500.8</ele>
        <time>2020-08-05T14:07:24Z</time>
      </trkpt>
      <trkpt lat="42.7058" lon="1.45808">
        <ele>1501.2</ele>
        <time>2020-08-05T14:07:29Z</time>
      </trkpt>
      <trkpt lat="42.70581" lon="1.45809">
        <ele>1501.4</ele>
        <time>2020-08-05T14:07:30Z</time>
      </trkpt>
      <trkpt lat="42.70591" lon="1.45816">
        <ele>1501.6</ele>
        <time>2020-08-05T14:07:36Z</time>
      </trkpt>
      <trkpt lat="42.70593" lon="1.45819">
        <ele>1501.6</ele>
        <time>2020-08-05T14:07:37Z</time>
      </trkpt>
      <trkpt lat="42.70599" lon="1.45824">
        <ele>1501.4</ele>
        <time>2020-08-05T14:07:39Z</time>
      </trkpt>
      <trkpt lat="42.70613" lon="1.45823">
        <ele>1500.8</ele>
        <time>2020-08-05T14:07:44Z</time>
      </trkpt>
      <trkpt lat="42.7062" lon="1.45819">
        <ele>1500</ele>
        <time>2020-08-05T14:07:46Z</time>
      </trkpt>
      <trkpt lat="42.70626" lon="1.45819">
        <ele>1499.6</ele>
        <time>2020-08-05T14:07:48Z</time>
      </trkpt>
      <trkpt lat="42.70636" lon="1.45824">
        <ele>1498.8</ele>
        <time>2020-08-05T14:07:52Z</time>
      </trkpt>
      <trkpt lat="42.70643" lon="1.45831">
        <ele>1497.4</ele>
        <time>2020-08-05T14:07:55Z</time>
      </trkpt>
      <trkpt lat="42.70643" lon="1.45832">
        <ele>1496.6</ele>
        <time>2020-08-05T14:07:57Z</time>
      </trkpt>
      <trkpt lat="42.70643" lon="1.45832">
        <ele>1496.4</ele>
        <time>2020-08-05T14:07:59Z</time>
      </trkpt>
      <trkpt lat="42.70643" lon="1.45832">
        <ele>1496.6</ele>
        <time>2020-08-05T14:08:08Z</time>
      </trkpt>
      <trkpt lat="42.70643" lon="1.45832">
        <ele>1496.4</ele>
        <time>2020-08-05T14:08:19Z</time>
      </trkpt>
      <trkpt lat="42.70643" lon="1.45832">
        <ele>1496.4</ele>
        <time>2020-08-05T14:08:38Z</time>
      </trkpt>
      <trkpt lat="42.70643" lon="1.45832">
        <ele>1496.2</ele>
        <time>2020-08-05T14:08:52Z</time>
      </trkpt>
      <trkpt lat="42.70643" lon="1.45832">
        <ele>1496.2</ele>
        <time>2020-08-05T14:09:07Z</time>
      </trkpt>
      <trkpt lat="42.7065" lon="1.45838">
        <ele>1495.8</ele>
        <time>2020-08-05T14:09:11Z</time>
      </trkpt>
      <trkpt lat="42.70656" lon="1.45843">
        <ele>1495.4</ele>
        <time>2020-08-05T14:09:13Z</time>
      </trkpt>
      <trkpt lat="42.70662" lon="1.45849">
        <ele>1494.8</ele>
        <time>2020-08-05T14:09:15Z</time>
      </trkpt>
      <trkpt lat="42.70665" lon="1.45851">
        <ele>1494.2</ele>
        <time>2020-08-05T14:09:16Z</time>
      </trkpt>
      <trkpt lat="42.70672" lon="1.45857">
        <ele>1494</ele>
        <time>2020-08-05T14:09:18Z</time>
      </trkpt>
      <trkpt lat="42.70674" lon="1.45862">
        <ele>1494</ele>
        <time>2020-08-05T14:09:19Z</time>
      </trkpt>
      <trkpt lat="42.7068" lon="1.45873">
        <ele>1493</ele>
        <time>2020-08-05T14:09:22Z</time>
      </trkpt>
      <trkpt lat="42.70684" lon="1.45884">
        <ele>1493.4</ele>
        <time>2020-08-05T14:09:25Z</time>
      </trkpt>
      <trkpt lat="42.7069" lon="1.45902">
        <ele>1493.2</ele>
        <time>2020-08-05T14:09:30Z</time>
      </trkpt>
      <trkpt lat="42.707" lon="1.45926">
        <ele>1492.6</ele>
        <time>2020-08-05T14:09:36Z</time>
      </trkpt>
      <trkpt lat="42.70707" lon="1.45943">
        <ele>1493</ele>
        <time>2020-08-05T14:09:41Z</time>
      </trkpt>
      <trkpt lat="42.70713" lon="1.45964">
        <ele>1493.4</ele>
        <time>2020-08-05T14:09:47Z</time>
      </trkpt>
      <trkpt lat="42.70718" lon="1.45963">
        <ele>1494.2</ele>
        <time>2020-08-05T14:09:50Z</time>
      </trkpt>
      <trkpt lat="42.70719" lon="1.45962">
        <ele>1494.2</ele>
        <time>2020-08-05T14:09:51Z</time>
      </trkpt>
      <trkpt lat="42.70729" lon="1.45964">
        <ele>1494.2</ele>
        <time>2020-08-05T14:09:55Z</time>
      </trkpt>
      <trkpt lat="42.70738" lon="1.45968">
        <ele>1493.4</ele>
        <time>2020-08-05T14:09:57Z</time>
      </trkpt>
      <trkpt lat="42.70749" lon="1.45971">
        <ele>1492.8</ele>
        <time>2020-08-05T14:10:00Z</time>
      </trkpt>
      <trkpt lat="42.70762" lon="1.4597">
        <ele>1492.4</ele>
        <time>2020-08-05T14:10:03Z</time>
      </trkpt>
      <trkpt lat="42.70773" lon="1.45975">
        <ele>1491</ele>
        <time>2020-08-05T14:10:06Z</time>
      </trkpt>
      <trkpt lat="42.70776" lon="1.45979">
        <ele>1490.8</ele>
        <time>2020-08-05T14:10:07Z</time>
      </trkpt>
      <trkpt lat="42.70779" lon="1.45982">
        <ele>1490</ele>
        <time>2020-08-05T14:10:08Z</time>
      </trkpt>
      <trkpt lat="42.70789" lon="1.45989">
        <ele>1489.8</ele>
        <time>2020-08-05T14:10:11Z</time>
      </trkpt>
      <trkpt lat="42.70795" lon="1.45995">
        <ele>1489</ele>
        <time>2020-08-05T14:10:13Z</time>
      </trkpt>
      <trkpt lat="42.70801" lon="1.46003">
        <ele>1488.2</ele>
        <time>2020-08-05T14:10:15Z</time>
      </trkpt>
      <trkpt lat="42.70804" lon="1.46008">
        <ele>1487.6</ele>
        <time>2020-08-05T14:10:16Z</time>
      </trkpt>
      <trkpt lat="42.70814" lon="1.4602">
        <ele>1486.6</ele>
        <time>2020-08-05T14:10:20Z</time>
      </trkpt>
      <trkpt lat="42.70819" lon="1.46018">
        <ele>1486.6</ele>
        <time>2020-08-05T14:10:23Z</time>
      </trkpt>
      <trkpt lat="42.70821" lon="1.46017">
        <ele>1486.6</ele>
        <time>2020-08-05T14:10:24Z</time>
      </trkpt>
      <trkpt lat="42.70822" lon="1.46014">
        <ele>1486.8</ele>
        <time>2020-08-05T14:10:25Z</time>
      </trkpt>
      <trkpt lat="42.70827" lon="1.46008">
        <ele>1486</ele>
        <time>2020-08-05T14:10:29Z</time>
      </trkpt>
      <trkpt lat="42.70828" lon="1.46008">
        <ele>1485.4</ele>
        <time>2020-08-05T14:10:31Z</time>
      </trkpt>
      <trkpt lat="42.70829" lon="1.46003">
        <ele>1485</ele>
        <time>2020-08-05T14:10:34Z</time>
      </trkpt>
      <trkpt lat="42.70831" lon="1.45999">
        <ele>1484.6</ele>
        <time>2020-08-05T14:10:36Z</time>
      </trkpt>
      <trkpt lat="42.70832" lon="1.45996">
        <ele>1484.2</ele>
        <time>2020-08-05T14:10:37Z</time>
      </trkpt>
      <trkpt lat="42.70832" lon="1.45993">
        <ele>1483.8</ele>
        <time>2020-08-05T14:10:38Z</time>
      </trkpt>
      <trkpt lat="42.70833" lon="1.45987">
        <ele>1483.2</ele>
        <time>2020-08-05T14:10:40Z</time>
      </trkpt>
      <trkpt lat="42.70834" lon="1.45976">
        <ele>1482</ele>
        <time>2020-08-05T14:10:43Z</time>
      </trkpt>
      <trkpt lat="42.70833" lon="1.45972">
        <ele>1481.4</ele>
        <time>2020-08-05T14:10:44Z</time>
      </trkpt>
      <trkpt lat="42.70835" lon="1.45967">
        <ele>1481</ele>
        <time>2020-08-05T14:10:45Z</time>
      </trkpt>
      <trkpt lat="42.70836" lon="1.45957">
        <ele>1478.8</ele>
        <time>2020-08-05T14:10:47Z</time>
      </trkpt>
      <trkpt lat="42.70836" lon="1.45952">
        <ele>1477.6</ele>
        <time>2020-08-05T14:10:48Z</time>
      </trkpt>
      <trkpt lat="42.70837" lon="1.45946">
        <ele>1476.4</ele>
        <time>2020-08-05T14:10:49Z</time>
      </trkpt>
      <trkpt lat="42.7084" lon="1.45935">
        <ele>1474.8</ele>
        <time>2020-08-05T14:10:51Z</time>
      </trkpt>
      <trkpt lat="42.70845" lon="1.45927">
        <ele>1474.2</ele>
        <time>2020-08-05T14:10:52Z</time>
      </trkpt>
      <trkpt lat="42.7085" lon="1.45919">
        <ele>1473.4</ele>
        <time>2020-08-05T14:10:53Z</time>
      </trkpt>
      <trkpt lat="42.70858" lon="1.45907">
        <ele>1472</ele>
        <time>2020-08-05T14:10:55Z</time>
      </trkpt>
      <trkpt lat="42.70863" lon="1.459">
        <ele>1470.8</ele>
        <time>2020-08-05T14:10:56Z</time>
      </trkpt>
      <trkpt lat="42.70866" lon="1.45894">
        <ele>1469.4</ele>
        <time>2020-08-05T14:10:57Z</time>
      </trkpt>
      <trkpt lat="42.70869" lon="1.45888">
        <ele>1468.4</ele>
        <time>2020-08-05T14:10:58Z</time>
      </trkpt>
      <trkpt lat="42.70873" lon="1.45882">
        <ele>1467.4</ele>
        <time>2020-08-05T14:10:59Z</time>
      </trkpt>
      <trkpt lat="42.70877" lon="1.45878">
        <ele>1466.4</ele>
        <time>2020-08-05T14:11:00Z</time>
      </trkpt>
      <trkpt lat="42.7088" lon="1.45875">
        <ele>1465.6</ele>
        <time>2020-08-05T14:11:01Z</time>
      </trkpt>
      <trkpt lat="42.70883" lon="1.45873">
        <ele>1465</ele>
        <time>2020-08-05T14:11:02Z</time>
      </trkpt>
      <trkpt lat="42.70885" lon="1.45871">
        <ele>1464.4</ele>
        <time>2020-08-05T14:11:04Z</time>
      </trkpt>
      <trkpt lat="42.70884" lon="1.45868">
        <ele>1464</ele>
        <time>2020-08-05T14:11:07Z</time>
      </trkpt>
      <trkpt lat="42.70883" lon="1.45867">
        <ele>1463.2</ele>
        <time>2020-08-05T14:11:09Z</time>
      </trkpt>
      <trkpt lat="42.70882" lon="1.45867">
        <ele>1462.8</ele>
        <time>2020-08-05T14:11:11Z</time>
      </trkpt>
      <trkpt lat="42.7088" lon="1.45865">
        <ele>1462.4</ele>
        <time>2020-08-05T14:11:14Z</time>
      </trkpt>
      <trkpt lat="42.70875" lon="1.45865">
        <ele>1461.4</ele>
        <time>2020-08-05T14:11:16Z</time>
      </trkpt>
      <trkpt lat="42.7087" lon="1.45865">
        <ele>1460.2</ele>
        <time>2020-08-05T14:11:18Z</time>
      </trkpt>
      <trkpt lat="42.70868" lon="1.45865">
        <ele>1459.8</ele>
        <time>2020-08-05T14:11:19Z</time>
      </trkpt>
      <trkpt lat="42.70865" lon="1.45864">
        <ele>1458.8</ele>
        <time>2020-08-05T14:11:21Z</time>
      </trkpt>
      <trkpt lat="42.7086" lon="1.45865">
        <ele>1458</ele>
        <time>2020-08-05T14:11:23Z</time>
      </trkpt>
      <trkpt lat="42.70857" lon="1.45866">
        <ele>1457.6</ele>
        <time>2020-08-05T14:11:24Z</time>
      </trkpt>
      <trkpt lat="42.7085" lon="1.4587">
        <ele>1456.4</ele>
        <time>2020-08-05T14:11:26Z</time>
      </trkpt>
      <trkpt lat="42.70848" lon="1.45872">
        <ele>1455.6</ele>
        <time>2020-08-05T14:11:27Z</time>
      </trkpt>
      <trkpt lat="42.70845" lon="1.45873">
        <ele>1454.8</ele>
        <time>2020-08-05T14:11:28Z</time>
      </trkpt>
      <trkpt lat="42.70842" lon="1.45874">
        <ele>1454.2</ele>
        <time>2020-08-05T14:11:29Z</time>
      </trkpt>
      <trkpt lat="42.70839" lon="1.45875">
        <ele>1453.6</ele>
        <time>2020-08-05T14:11:30Z</time>
      </trkpt>
      <trkpt lat="42.70836" lon="1.45878">
        <ele>1452.4</ele>
        <time>2020-08-05T14:11:32Z</time>
      </trkpt>
      <trkpt lat="42.70836" lon="1.45878">
        <ele>1451.8</ele>
        <time>2020-08-05T14:11:33Z</time>
      </trkpt>
      <trkpt lat="42.70835" lon="1.45878">
        <ele>1451.6</ele>
        <time>2020-08-05T14:11:42Z</time>
      </trkpt>
      <trkpt lat="42.70832" lon="1.4588">
        <ele>1451</ele>
        <time>2020-08-05T14:11:48Z</time>
      </trkpt>
      <trkpt lat="42.70829" lon="1.45882">
        <ele>1450.6</ele>
        <time>2020-08-05T14:11:49Z</time>
      </trkpt>
      <trkpt lat="42.70826" lon="1.45884">
        <ele>1450</ele>
        <time>2020-08-05T14:11:50Z</time>
      </trkpt>
      <trkpt lat="42.70822" lon="1.45889">
        <ele>1448.8</ele>
        <time>2020-08-05T14:11:52Z</time>
      </trkpt>
      <trkpt lat="42.7082" lon="1.45891">
        <ele>1448.2</ele>
        <time>2020-08-05T14:11:53Z</time>
      </trkpt>
      <trkpt lat="42.7082" lon="1.45891">
        <ele>1447.6</ele>
        <time>2020-08-05T14:11:54Z</time>
      </trkpt>
      <trkpt lat="42.70818" lon="1.45893">
        <ele>1447.2</ele>
        <time>2020-08-05T14:11:57Z</time>
      </trkpt>
      <trkpt lat="42.70818" lon="1.45893">
        <ele>1447</ele>
        <time>2020-08-05T14:12:03Z</time>
      </trkpt>
      <trkpt lat="42.70822" lon="1.45887">
        <ele>1446.6</ele>
        <time>2020-08-05T14:12:06Z</time>
      </trkpt>
      <trkpt lat="42.70823" lon="1.45884">
        <ele>1446.2</ele>
        <time>2020-08-05T14:12:07Z</time>
      </trkpt>
      <trkpt lat="42.70824" lon="1.4588">
        <ele>1445.8</ele>
        <time>2020-08-05T14:12:08Z</time>
      </trkpt>
      <trkpt lat="42.70825" lon="1.45876">
        <ele>1445.2</ele>
        <time>2020-08-05T14:12:09Z</time>
      </trkpt>
      <trkpt lat="42.70827" lon="1.4587">
        <ele>1444.6</ele>
        <time>2020-08-05T14:12:11Z</time>
      </trkpt>
      <trkpt lat="42.70828" lon="1.45865">
        <ele>1444.2</ele>
        <time>2020-08-05T14:12:12Z</time>
      </trkpt>
      <trkpt lat="42.70831" lon="1.45856">
        <ele>1442.6</ele>
        <time>2020-08-05T14:12:14Z</time>
      </trkpt>
      <trkpt lat="42.70832" lon="1.45851">
        <ele>1441.8</ele>
        <time>2020-08-05T14:12:15Z</time>
      </trkpt>
      <trkpt lat="42.70834" lon="1.45844">
        <ele>1441</ele>
        <time>2020-08-05T14:12:16Z</time>
      </trkpt>
      <trkpt lat="42.70835" lon="1.45838">
        <ele>1440.2</ele>
        <time>2020-08-05T14:12:17Z</time>
      </trkpt>
      <trkpt lat="42.70837" lon="1.45831">
        <ele>1439.4</ele>
        <time>2020-08-05T14:12:18Z</time>
      </trkpt>
      <trkpt lat="42.70839" lon="1.45824">
        <ele>1438.4</ele>
        <time>2020-08-05T14:12:19Z</time>
      </trkpt>
      <trkpt lat="42.70842" lon="1.45818">
        <ele>1437.4</ele>
        <time>2020-08-05T14:12:20Z</time>
      </trkpt>
      <trkpt lat="42.70849" lon="1.45807">
        <ele>1435.8</ele>
        <time>2020-08-05T14:12:22Z</time>
      </trkpt>
      <trkpt lat="42.70851" lon="1.45803">
        <ele>1434.6</ele>
        <time>2020-08-05T14:12:23Z</time>
      </trkpt>
      <trkpt lat="42.70856" lon="1.45798">
        <ele>1433.4</ele>
        <time>2020-08-05T14:12:26Z</time>
      </trkpt>
      <trkpt lat="42.70856" lon="1.45798">
        <ele>1433.2</ele>
        <time>2020-08-05T14:12:27Z</time>
      </trkpt>
      <trkpt lat="42.70857" lon="1.45796">
        <ele>1433</ele>
        <time>2020-08-05T14:12:28Z</time>
      </trkpt>
      <trkpt lat="42.70855" lon="1.45796">
        <ele>1432.6</ele>
        <time>2020-08-05T14:12:31Z</time>
      </trkpt>
      <trkpt lat="42.70854" lon="1.45796">
        <ele>1432.4</ele>
        <time>2020-08-05T14:12:32Z</time>
      </trkpt>
      <trkpt lat="42.70849" lon="1.45795">
        <ele>1431.2</ele>
        <time>2020-08-05T14:12:36Z</time>
      </trkpt>
      <trkpt lat="42.70844" lon="1.45796">
        <ele>1429.8</ele>
        <time>2020-08-05T14:12:40Z</time>
      </trkpt>
      <trkpt lat="42.70838" lon="1.45796">
        <ele>1429.2</ele>
        <time>2020-08-05T14:12:42Z</time>
      </trkpt>
      <trkpt lat="42.70834" lon="1.45796">
        <ele>1428.4</ele>
        <time>2020-08-05T14:12:43Z</time>
      </trkpt>
      <trkpt lat="42.7083" lon="1.45796">
        <ele>1427</ele>
        <time>2020-08-05T14:12:45Z</time>
      </trkpt>
      <trkpt lat="42.70831" lon="1.45796">
        <ele>1426.8</ele>
        <time>2020-08-05T14:12:46Z</time>
      </trkpt>
      <trkpt lat="42.70829" lon="1.45794">
        <ele>1426</ele>
        <time>2020-08-05T14:12:49Z</time>
      </trkpt>
      <trkpt lat="42.70831" lon="1.45791">
        <ele>1426</ele>
        <time>2020-08-05T14:12:51Z</time>
      </trkpt>
      <trkpt lat="42.70839" lon="1.45782">
        <ele>1425.2</ele>
        <time>2020-08-05T14:12:57Z</time>
      </trkpt>
      <trkpt lat="42.7084" lon="1.45781">
        <ele>1425</ele>
        <time>2020-08-05T14:12:58Z</time>
      </trkpt>
      <trkpt lat="42.70847" lon="1.45775">
        <ele>1423.4</ele>
        <time>2020-08-05T14:13:01Z</time>
      </trkpt>
      <trkpt lat="42.70854" lon="1.4577">
        <ele>1422</ele>
        <time>2020-08-05T14:13:03Z</time>
      </trkpt>
      <trkpt lat="42.70862" lon="1.45766">
        <ele>1420.6</ele>
        <time>2020-08-05T14:13:05Z</time>
      </trkpt>
      <trkpt lat="42.7087" lon="1.45762">
        <ele>1419.4</ele>
        <time>2020-08-05T14:13:07Z</time>
      </trkpt>
      <trkpt lat="42.70873" lon="1.45762">
        <ele>1418.6</ele>
        <time>2020-08-05T14:13:08Z</time>
      </trkpt>
      <trkpt lat="42.70877" lon="1.45761">
        <ele>1418.2</ele>
        <time>2020-08-05T14:13:09Z</time>
      </trkpt>
      <trkpt lat="42.70885" lon="1.45758">
        <ele>1416.8</ele>
        <time>2020-08-05T14:13:11Z</time>
      </trkpt>
      <trkpt lat="42.70893" lon="1.45756">
        <ele>1415.4</ele>
        <time>2020-08-05T14:13:14Z</time>
      </trkpt>
      <trkpt lat="42.70895" lon="1.45755">
        <ele>1415.2</ele>
        <time>2020-08-05T14:13:15Z</time>
      </trkpt>
      <trkpt lat="42.70899" lon="1.45752">
        <ele>1414.4</ele>
        <time>2020-08-05T14:13:18Z</time>
      </trkpt>
      <trkpt lat="42.70901" lon="1.45751">
        <ele>1413.6</ele>
        <time>2020-08-05T14:13:20Z</time>
      </trkpt>
      <trkpt lat="42.70902" lon="1.45751">
        <ele>1413.2</ele>
        <time>2020-08-05T14:13:22Z</time>
      </trkpt>
      <trkpt lat="42.70902" lon="1.45751">
        <ele>1413.2</ele>
        <time>2020-08-05T14:13:34Z</time>
      </trkpt>
      <trkpt lat="42.70906" lon="1.45751">
        <ele>1413</ele>
        <time>2020-08-05T14:13:43Z</time>
      </trkpt>
      <trkpt lat="42.70911" lon="1.4575">
        <ele>1412.2</ele>
        <time>2020-08-05T14:13:46Z</time>
      </trkpt>
      <trkpt lat="42.70915" lon="1.4575">
        <ele>1411.6</ele>
        <time>2020-08-05T14:13:48Z</time>
      </trkpt>
      <trkpt lat="42.70921" lon="1.45753">
        <ele>1411</ele>
        <time>2020-08-05T14:13:51Z</time>
      </trkpt>
      <trkpt lat="42.70926" lon="1.45754">
        <ele>1409.8</ele>
        <time>2020-08-05T14:13:53Z</time>
      </trkpt>
      <trkpt lat="42.70928" lon="1.45756">
        <ele>1408.8</ele>
        <time>2020-08-05T14:13:55Z</time>
      </trkpt>
      <trkpt lat="42.70933" lon="1.45758">
        <ele>1408</ele>
        <time>2020-08-05T14:13:58Z</time>
      </trkpt>
      <trkpt lat="42.70936" lon="1.45757">
        <ele>1407</ele>
        <time>2020-08-05T14:13:59Z</time>
      </trkpt>
      <trkpt lat="42.70941" lon="1.45757">
        <ele>1405.8</ele>
        <time>2020-08-05T14:14:01Z</time>
      </trkpt>
      <trkpt lat="42.70948" lon="1.45756">
        <ele>1404.4</ele>
        <time>2020-08-05T14:14:03Z</time>
      </trkpt>
      <trkpt lat="42.70952" lon="1.45756">
        <ele>1403.6</ele>
        <time>2020-08-05T14:14:04Z</time>
      </trkpt>
      <trkpt lat="42.70955" lon="1.45756">
        <ele>1402.8</ele>
        <time>2020-08-05T14:14:05Z</time>
      </trkpt>
      <trkpt lat="42.70962" lon="1.45756">
        <ele>1401.2</ele>
        <time>2020-08-05T14:14:07Z</time>
      </trkpt>
      <trkpt lat="42.70963" lon="1.45756">
        <ele>1400</ele>
        <time>2020-08-05T14:14:09Z</time>
      </trkpt>
      <trkpt lat="42.70965" lon="1.45756">
        <ele>1399.6</ele>
        <time>2020-08-05T14:14:15Z</time>
      </trkpt>
      <trkpt lat="42.70966" lon="1.45757">
        <ele>1399.6</ele>
        <time>2020-08-05T14:14:22Z</time>
      </trkpt>
      <trkpt lat="42.70966" lon="1.45757">
        <ele>1399.6</ele>
        <time>2020-08-05T14:14:31Z</time>
      </trkpt>
      <trkpt lat="42.70966" lon="1.45757">
        <ele>1399.4</ele>
        <time>2020-08-05T14:14:40Z</time>
      </trkpt>
      <trkpt lat="42.70971" lon="1.45755">
        <ele>1398.6</ele>
        <time>2020-08-05T14:14:48Z</time>
      </trkpt>
      <trkpt lat="42.70977" lon="1.45753">
        <ele>1397.2</ele>
        <time>2020-08-05T14:14:51Z</time>
      </trkpt>
      <trkpt lat="42.70981" lon="1.45753">
        <ele>1396</ele>
        <time>2020-08-05T14:14:55Z</time>
      </trkpt>
      <trkpt lat="42.70981" lon="1.45753">
        <ele>1395.8</ele>
        <time>2020-08-05T14:14:56Z</time>
      </trkpt>
      <trkpt lat="42.70985" lon="1.45753">
        <ele>1395.2</ele>
        <time>2020-08-05T14:15:02Z</time>
      </trkpt>
      <trkpt lat="42.70986" lon="1.45753">
        <ele>1394.8</ele>
        <time>2020-08-05T14:15:03Z</time>
      </trkpt>
      <trkpt lat="42.70993" lon="1.45753">
        <ele>1394.4</ele>
        <time>2020-08-05T14:15:07Z</time>
      </trkpt>
      <trkpt lat="42.70998" lon="1.45753">
        <ele>1393.2</ele>
        <time>2020-08-05T14:15:10Z</time>
      </trkpt>
      <trkpt lat="42.70998" lon="1.45753">
        <ele>1392.6</ele>
        <time>2020-08-05T14:15:11Z</time>
      </trkpt>
      <trkpt lat="42.70998" lon="1.45753">
        <ele>1393</ele>
        <time>2020-08-05T14:15:21Z</time>
      </trkpt>
      <trkpt lat="42.70998" lon="1.45753">
        <ele>1393</ele>
        <time>2020-08-05T14:15:37Z</time>
      </trkpt>
      <trkpt lat="42.70998" lon="1.45753">
        <ele>1392.8</ele>
        <time>2020-08-05T14:15:46Z</time>
      </trkpt>
      <trkpt lat="42.70998" lon="1.45754">
        <ele>1392.6</ele>
        <time>2020-08-05T14:16:01Z</time>
      </trkpt>
      <trkpt lat="42.70998" lon="1.45754">
        <ele>1392.6</ele>
        <time>2020-08-05T14:16:19Z</time>
      </trkpt>
      <trkpt lat="42.70998" lon="1.45754">
        <ele>1392.6</ele>
        <time>2020-08-05T14:16:38Z</time>
      </trkpt>
      <trkpt lat="42.70998" lon="1.45754">
        <ele>1392.4</ele>
        <time>2020-08-05T14:16:57Z</time>
      </trkpt>
      <trkpt lat="42.70998" lon="1.45754">
        <ele>1392.4</ele>
        <time>2020-08-05T14:17:03Z</time>
      </trkpt>
      <trkpt lat="42.70998" lon="1.45754">
        <ele>1392.4</ele>
        <time>2020-08-05T14:17:14Z</time>
      </trkpt>
      <trkpt lat="42.70998" lon="1.45754">
        <ele>1392.6</ele>
        <time>2020-08-05T14:17:32Z</time>
      </trkpt>
      <trkpt lat="42.70998" lon="1.45754">
        <ele>1392.8</ele>
        <time>2020-08-05T14:17:50Z</time>
      </trkpt>
      <trkpt lat="42.70998" lon="1.45753">
        <ele>1392.8</ele>
        <time>2020-08-05T14:18:07Z</time>
      </trkpt>
      <trkpt lat="42.70998" lon="1.45753">
        <ele>1392.6</ele>
        <time>2020-08-05T14:18:21Z</time>
      </trkpt>
      <trkpt lat="42.70998" lon="1.45754">
        <ele>1392.6</ele>
        <time>2020-08-05T14:18:38Z</time>
      </trkpt>
      <trkpt lat="42.70999" lon="1.45754">
        <ele>1392.8</ele>
        <time>2020-08-05T14:18:41Z</time>
      </trkpt>
      <trkpt lat="42.71" lon="1.45754">
        <ele>1392.8</ele>
        <time>2020-08-05T14:18:43Z</time>
      </trkpt>
      <trkpt lat="42.71007" lon="1.45757">
        <ele>1393.2</ele>
        <time>2020-08-05T14:18:48Z</time>
      </trkpt>
      <trkpt lat="42.71012" lon="1.45757">
        <ele>1394</ele>
        <time>2020-08-05T14:18:55Z</time>
      </trkpt>
      <trkpt lat="42.71014" lon="1.45758">
        <ele>1394.4</ele>
        <time>2020-08-05T14:18:59Z</time>
      </trkpt>
      <trkpt lat="42.71015" lon="1.45759">
        <ele>1394.6</ele>
        <time>2020-08-05T14:19:00Z</time>
      </trkpt>
      <trkpt lat="42.71018" lon="1.45758">
        <ele>1395.6</ele>
        <time>2020-08-05T14:19:06Z</time>
      </trkpt>
      <trkpt lat="42.71018" lon="1.45758">
        <ele>1395.6</ele>
        <time>2020-08-05T14:19:07Z</time>
      </trkpt>
      <trkpt lat="42.71019" lon="1.45758">
        <ele>1396.6</ele>
        <time>2020-08-05T14:19:13Z</time>
      </trkpt>
      <trkpt lat="42.7102" lon="1.45758">
        <ele>1397.2</ele>
        <time>2020-08-05T14:19:17Z</time>
      </trkpt>
      <trkpt lat="42.71025" lon="1.45757">
        <ele>1397.8</ele>
        <time>2020-08-05T14:19:22Z</time>
      </trkpt>
      <trkpt lat="42.71027" lon="1.45757">
        <ele>1398.2</ele>
        <time>2020-08-05T14:19:24Z</time>
      </trkpt>
      <trkpt lat="42.71033" lon="1.45758">
        <ele>1398.6</ele>
        <time>2020-08-05T14:19:29Z</time>
      </trkpt>
      <trkpt lat="42.71033" lon="1.45759">
        <ele>1398.8</ele>
        <time>2020-08-05T14:19:31Z</time>
      </trkpt>
      <trkpt lat="42.71033" lon="1.45759">
        <ele>1398.8</ele>
        <time>2020-08-05T14:19:32Z</time>
      </trkpt>
      <trkpt lat="42.71035" lon="1.45761">
        <ele>1399.2</ele>
        <time>2020-08-05T14:19:40Z</time>
      </trkpt>
      <trkpt lat="42.71039" lon="1.45765">
        <ele>1400</ele>
        <time>2020-08-05T14:19:45Z</time>
      </trkpt>
      <trkpt lat="42.71039" lon="1.45765">
        <ele>1400</ele>
        <time>2020-08-05T14:19:46Z</time>
      </trkpt>
      <trkpt lat="42.71044" lon="1.45769">
        <ele>1400.6</ele>
        <time>2020-08-05T14:19:52Z</time>
      </trkpt>
      <trkpt lat="42.71046" lon="1.45772">
        <ele>1401</ele>
        <time>2020-08-05T14:19:56Z</time>
      </trkpt>
      <trkpt lat="42.71047" lon="1.45773">
        <ele>1401.4</ele>
        <time>2020-08-05T14:20:00Z</time>
      </trkpt>
      <trkpt lat="42.71048" lon="1.45774">
        <ele>1401.8</ele>
        <time>2020-08-05T14:20:10Z</time>
      </trkpt>
      <trkpt lat="42.71049" lon="1.45775">
        <ele>1402.2</ele>
        <time>2020-08-05T14:20:11Z</time>
      </trkpt>
      <trkpt lat="42.71052" lon="1.45776">
        <ele>1403</ele>
        <time>2020-08-05T14:20:17Z</time>
      </trkpt>
      <trkpt lat="42.71052" lon="1.45776">
        <ele>1403.2</ele>
        <time>2020-08-05T14:20:20Z</time>
      </trkpt>
      <trkpt lat="42.71052" lon="1.45776">
        <ele>1403.2</ele>
        <time>2020-08-05T14:20:27Z</time>
      </trkpt>
      <trkpt lat="42.71052" lon="1.45776">
        <ele>1403.4</ele>
        <time>2020-08-05T14:20:39Z</time>
      </trkpt>
      <trkpt lat="42.71052" lon="1.45776">
        <ele>1403.2</ele>
        <time>2020-08-05T14:20:50Z</time>
      </trkpt>
      <trkpt lat="42.71052" lon="1.45776">
        <ele>1403.2</ele>
        <time>2020-08-05T14:21:00Z</time>
      </trkpt>
      <trkpt lat="42.71054" lon="1.45777">
        <ele>1403.8</ele>
        <time>2020-08-05T14:21:09Z</time>
      </trkpt>
      <trkpt lat="42.71055" lon="1.45777">
        <ele>1404.4</ele>
        <time>2020-08-05T14:21:12Z</time>
      </trkpt>
      <trkpt lat="42.71059" lon="1.45779">
        <ele>1405.2</ele>
        <time>2020-08-05T14:21:17Z</time>
      </trkpt>
      <trkpt lat="42.7106" lon="1.4578">
        <ele>1405.6</ele>
        <time>2020-08-05T14:21:19Z</time>
      </trkpt>
      <trkpt lat="42.71063" lon="1.45779">
        <ele>1406.4</ele>
        <time>2020-08-05T14:21:24Z</time>
      </trkpt>
      <trkpt lat="42.71063" lon="1.45779">
        <ele>1406.6</ele>
        <time>2020-08-05T14:21:26Z</time>
      </trkpt>
      <trkpt lat="42.71064" lon="1.45779">
        <ele>1406.6</ele>
        <time>2020-08-05T14:21:32Z</time>
      </trkpt>
      <trkpt lat="42.71064" lon="1.45779">
        <ele>1406.8</ele>
        <time>2020-08-05T14:21:46Z</time>
      </trkpt>
      <trkpt lat="42.71064" lon="1.45779">
        <ele>1406.8</ele>
        <time>2020-08-05T14:21:58Z</time>
      </trkpt>
      <trkpt lat="42.71064" lon="1.45779">
        <ele>1407</ele>
        <time>2020-08-05T14:22:16Z</time>
      </trkpt>
      <trkpt lat="42.71064" lon="1.45779">
        <ele>1406.8</ele>
        <time>2020-08-05T14:22:33Z</time>
      </trkpt>
      <trkpt lat="42.71064" lon="1.45779">
        <ele>1407</ele>
        <time>2020-08-05T14:22:42Z</time>
      </trkpt>
      <trkpt lat="42.71065" lon="1.4578">
        <ele>1407.4</ele>
        <time>2020-08-05T14:22:48Z</time>
      </trkpt>
      <trkpt lat="42.71067" lon="1.45782">
        <ele>1407.6</ele>
        <time>2020-08-05T14:22:49Z</time>
      </trkpt>
      <trkpt lat="42.7107" lon="1.45783">
        <ele>1408.6</ele>
        <time>2020-08-05T14:22:55Z</time>
      </trkpt>
      <trkpt lat="42.71074" lon="1.45784">
        <ele>1409.8</ele>
        <time>2020-08-05T14:23:00Z</time>
      </trkpt>
      <trkpt lat="42.71076" lon="1.45784">
        <ele>1410.2</ele>
        <time>2020-08-05T14:23:03Z</time>
      </trkpt>
      <trkpt lat="42.71082" lon="1.45784">
        <ele>1410.4</ele>
        <time>2020-08-05T14:23:09Z</time>
      </trkpt>
      <trkpt lat="42.71083" lon="1.45784">
        <ele>1410.4</ele>
        <time>2020-08-05T14:23:10Z</time>
      </trkpt>
      <trkpt lat="42.71089" lon="1.45787">
        <ele>1409.4</ele>
        <time>2020-08-05T14:23:14Z</time>
      </trkpt>
      <trkpt lat="42.71089" lon="1.45787">
        <ele>1409</ele>
        <time>2020-08-05T14:23:19Z</time>
      </trkpt>
      <trkpt lat="42.71093" lon="1.45789">
        <ele>1408.8</ele>
        <time>2020-08-05T14:23:24Z</time>
      </trkpt>
      <trkpt lat="42.71092" lon="1.45788">
        <ele>1408.4</ele>
        <time>2020-08-05T14:23:25Z</time>
      </trkpt>
      <trkpt lat="42.71096" lon="1.4579">
        <ele>1408.2</ele>
        <time>2020-08-05T14:23:28Z</time>
      </trkpt>
      <trkpt lat="42.71109" lon="1.45794">
        <ele>1407.4</ele>
        <time>2020-08-05T14:23:33Z</time>
      </trkpt>
      <trkpt lat="42.71123" lon="1.45795">
        <ele>1406.4</ele>
        <time>2020-08-05T14:23:38Z</time>
      </trkpt>
      <trkpt lat="42.71127" lon="1.45797">
        <ele>1406.2</ele>
        <time>2020-08-05T14:23:39Z</time>
      </trkpt>
      <trkpt lat="42.71133" lon="1.458">
        <ele>1405.6</ele>
        <time>2020-08-05T14:23:41Z</time>
      </trkpt>
      <trkpt lat="42.71134" lon="1.45802">
        <ele>1405.2</ele>
        <time>2020-08-05T14:23:42Z</time>
      </trkpt>
      <trkpt lat="42.71136" lon="1.45804">
        <ele>1405.4</ele>
        <time>2020-08-05T14:23:45Z</time>
      </trkpt>
      <trkpt lat="42.71138" lon="1.45809">
        <ele>1405.6</ele>
        <time>2020-08-05T14:23:50Z</time>
      </trkpt>
      <trkpt lat="42.71139" lon="1.4581">
        <ele>1405.6</ele>
        <time>2020-08-05T14:23:51Z</time>
      </trkpt>
      <trkpt lat="42.71141" lon="1.45821">
        <ele>1406.4</ele>
        <time>2020-08-05T14:23:59Z</time>
      </trkpt>
      <trkpt lat="42.71142" lon="1.45827">
        <ele>1406.8</ele>
        <time>2020-08-05T14:24:05Z</time>
      </trkpt>
      <trkpt lat="42.71143" lon="1.4583">
        <ele>1407.2</ele>
        <time>2020-08-05T14:24:11Z</time>
      </trkpt>
      <trkpt lat="42.71143" lon="1.45831">
        <ele>1407.2</ele>
        <time>2020-08-05T14:24:13Z</time>
      </trkpt>
      <trkpt lat="42.71143" lon="1.45832">
        <ele>1407.6</ele>
        <time>2020-08-05T14:24:19Z</time>
      </trkpt>
      <trkpt lat="42.71144" lon="1.45836">
        <ele>1408.4</ele>
        <time>2020-08-05T14:24:25Z</time>
      </trkpt>
      <trkpt lat="42.71149" lon="1.45837">
        <ele>1409.2</ele>
        <time>2020-08-05T14:24:31Z</time>
      </trkpt>
      <trkpt lat="42.71152" lon="1.45834">
        <ele>1409.6</ele>
        <time>2020-08-05T14:24:36Z</time>
      </trkpt>
      <trkpt lat="42.71153" lon="1.45833">
        <ele>1409.8</ele>
        <time>2020-08-05T14:24:38Z</time>
      </trkpt>
      <trkpt lat="42.71155" lon="1.45831">
        <ele>1410.6</ele>
        <time>2020-08-05T14:24:44Z</time>
      </trkpt>
      <trkpt lat="42.71155" lon="1.4583">
        <ele>1410.8</ele>
        <time>2020-08-05T14:24:45Z</time>
      </trkpt>
      <trkpt lat="42.71158" lon="1.45828">
        <ele>1411.6</ele>
        <time>2020-08-05T14:24:50Z</time>
      </trkpt>
      <trkpt lat="42.71159" lon="1.45828">
        <ele>1411.8</ele>
        <time>2020-08-05T14:24:52Z</time>
      </trkpt>
      <trkpt lat="42.71166" lon="1.45827">
        <ele>1412.6</ele>
        <time>2020-08-05T14:24:59Z</time>
      </trkpt>
      <trkpt lat="42.71166" lon="1.45827">
        <ele>1412.8</ele>
        <time>2020-08-05T14:25:00Z</time>
      </trkpt>
      <trkpt lat="42.7117" lon="1.45826">
        <ele>1413.2</ele>
        <time>2020-08-05T14:25:06Z</time>
      </trkpt>
      <trkpt lat="42.71173" lon="1.45826">
        <ele>1413.8</ele>
        <time>2020-08-05T14:25:16Z</time>
      </trkpt>
      <trkpt lat="42.71174" lon="1.45826">
        <ele>1413.8</ele>
        <time>2020-08-05T14:25:17Z</time>
      </trkpt>
      <trkpt lat="42.71178" lon="1.45828">
        <ele>1414.8</ele>
        <time>2020-08-05T14:25:25Z</time>
      </trkpt>
      <trkpt lat="42.71183" lon="1.4583">
        <ele>1415.6</ele>
        <time>2020-08-05T14:25:33Z</time>
      </trkpt>
      <trkpt lat="42.71186" lon="1.4583">
        <ele>1415.8</ele>
        <time>2020-08-05T14:25:35Z</time>
      </trkpt>
      <trkpt lat="42.71189" lon="1.45832">
        <ele>1416.8</ele>
        <time>2020-08-05T14:25:39Z</time>
      </trkpt>
      <trkpt lat="42.7119" lon="1.45832">
        <ele>1416.8</ele>
        <time>2020-08-05T14:25:40Z</time>
      </trkpt>
      <trkpt lat="42.71196" lon="1.45831">
        <ele>1417.8</ele>
        <time>2020-08-05T14:25:46Z</time>
      </trkpt>
      <trkpt lat="42.71197" lon="1.45831">
        <ele>1418</ele>
        <time>2020-08-05T14:25:48Z</time>
      </trkpt>
      <trkpt lat="42.71203" lon="1.45829">
        <ele>1418.6</ele>
        <time>2020-08-05T14:25:54Z</time>
      </trkpt>
      <trkpt lat="42.71204" lon="1.45829">
        <ele>1418.8</ele>
        <time>2020-08-05T14:25:56Z</time>
      </trkpt>
      <trkpt lat="42.71205" lon="1.45829">
        <ele>1419</ele>
        <time>2020-08-05T14:25:58Z</time>
      </trkpt>
      <trkpt lat="42.71206" lon="1.4583">
        <ele>1419.2</ele>
        <time>2020-08-05T14:25:59Z</time>
      </trkpt>
      <trkpt lat="42.7121" lon="1.4583">
        <ele>1419.6</ele>
        <time>2020-08-05T14:26:05Z</time>
      </trkpt>
      <trkpt lat="42.71212" lon="1.4583">
        <ele>1420</ele>
        <time>2020-08-05T14:26:12Z</time>
      </trkpt>
      <trkpt lat="42.71215" lon="1.4583">
        <ele>1420.2</ele>
        <time>2020-08-05T14:26:16Z</time>
      </trkpt>
      <trkpt lat="42.71217" lon="1.45831">
        <ele>1420.6</ele>
        <time>2020-08-05T14:26:18Z</time>
      </trkpt>
      <trkpt lat="42.71219" lon="1.45832">
        <ele>1421</ele>
        <time>2020-08-05T14:26:23Z</time>
      </trkpt>
      <trkpt lat="42.7122" lon="1.45832">
        <ele>1421.2</ele>
        <time>2020-08-05T14:26:24Z</time>
      </trkpt>
      <trkpt lat="42.71228" lon="1.45834">
        <ele>1422</ele>
        <time>2020-08-05T14:26:32Z</time>
      </trkpt>
      <trkpt lat="42.71228" lon="1.45834">
        <ele>1422.2</ele>
        <time>2020-08-05T14:26:33Z</time>
      </trkpt>
      <trkpt lat="42.7123" lon="1.45836">
        <ele>1422.2</ele>
        <time>2020-08-05T14:26:34Z</time>
      </trkpt>
      <trkpt lat="42.71233" lon="1.45837">
        <ele>1422.4</ele>
        <time>2020-08-05T14:26:37Z</time>
      </trkpt>
      <trkpt lat="42.71239" lon="1.45842">
        <ele>1423</ele>
        <time>2020-08-05T14:26:45Z</time>
      </trkpt>
      <trkpt lat="42.7124" lon="1.45842">
        <ele>1423.2</ele>
        <time>2020-08-05T14:26:46Z</time>
      </trkpt>
      <trkpt lat="42.71245" lon="1.45845">
        <ele>1424</ele>
        <time>2020-08-05T14:26:52Z</time>
      </trkpt>
      <trkpt lat="42.71246" lon="1.45845">
        <ele>1424.2</ele>
        <time>2020-08-05T14:26:53Z</time>
      </trkpt>
      <trkpt lat="42.71252" lon="1.45842">
        <ele>1424.6</ele>
        <time>2020-08-05T14:27:00Z</time>
      </trkpt>
      <trkpt lat="42.71252" lon="1.45842">
        <ele>1424.8</ele>
        <time>2020-08-05T14:27:06Z</time>
      </trkpt>
      <trkpt lat="42.71256" lon="1.4584">
        <ele>1425</ele>
        <time>2020-08-05T14:27:13Z</time>
      </trkpt>
      <trkpt lat="42.7126" lon="1.45838">
        <ele>1425.2</ele>
        <time>2020-08-05T14:27:16Z</time>
      </trkpt>
      <trkpt lat="42.71263" lon="1.45837">
        <ele>1425.4</ele>
        <time>2020-08-05T14:27:18Z</time>
      </trkpt>
      <trkpt lat="42.71266" lon="1.45836">
        <ele>1425.8</ele>
        <time>2020-08-05T14:27:21Z</time>
      </trkpt>
      <trkpt lat="42.71267" lon="1.45835">
        <ele>1426</ele>
        <time>2020-08-05T14:27:22Z</time>
      </trkpt>
      <trkpt lat="42.71274" lon="1.45831">
        <ele>1426.4</ele>
        <time>2020-08-05T14:27:27Z</time>
      </trkpt>
      <trkpt lat="42.71283" lon="1.45833">
        <ele>1427</ele>
        <time>2020-08-05T14:27:33Z</time>
      </trkpt>
      <trkpt lat="42.71287" lon="1.45835">
        <ele>1427.4</ele>
        <time>2020-08-05T14:27:36Z</time>
      </trkpt>
      <trkpt lat="42.71291" lon="1.45838">
        <ele>1427.6</ele>
        <time>2020-08-05T14:27:39Z</time>
      </trkpt>
      <trkpt lat="42.71298" lon="1.45846">
        <ele>1428.2</ele>
        <time>2020-08-05T14:27:46Z</time>
      </trkpt>
      <trkpt lat="42.71301" lon="1.4585">
        <ele>1428.6</ele>
        <time>2020-08-05T14:27:50Z</time>
      </trkpt>
      <trkpt lat="42.71304" lon="1.45853">
        <ele>1429</ele>
        <time>2020-08-05T14:27:53Z</time>
      </trkpt>
      <trkpt lat="42.71311" lon="1.45859">
        <ele>1429.4</ele>
        <time>2020-08-05T14:27:59Z</time>
      </trkpt>
      <trkpt lat="42.71313" lon="1.4586">
        <ele>1429.6</ele>
        <time>2020-08-05T14:28:00Z</time>
      </trkpt>
      <trkpt lat="42.7132" lon="1.45865">
        <ele>1430.2</ele>
        <time>2020-08-05T14:28:06Z</time>
      </trkpt>
      <trkpt lat="42.71325" lon="1.45868">
        <ele>1430.8</ele>
        <time>2020-08-05T14:28:10Z</time>
      </trkpt>
      <trkpt lat="42.71326" lon="1.45868">
        <ele>1430.8</ele>
        <time>2020-08-05T14:28:11Z</time>
      </trkpt>
      <trkpt lat="42.71331" lon="1.45872">
        <ele>1431.6</ele>
        <time>2020-08-05T14:28:15Z</time>
      </trkpt>
      <trkpt lat="42.71334" lon="1.45874">
        <ele>1431.8</ele>
        <time>2020-08-05T14:28:17Z</time>
      </trkpt>
      <trkpt lat="42.71341" lon="1.45876">
        <ele>1432.4</ele>
        <time>2020-08-05T14:28:23Z</time>
      </trkpt>
      <trkpt lat="42.71344" lon="1.45879">
        <ele>1432.6</ele>
        <time>2020-08-05T14:28:26Z</time>
      </trkpt>
      <trkpt lat="42.71347" lon="1.45882">
        <ele>1432.8</ele>
        <time>2020-08-05T14:28:29Z</time>
      </trkpt>
      <trkpt lat="42.7135" lon="1.45884">
        <ele>1432.8</ele>
        <time>2020-08-05T14:28:31Z</time>
      </trkpt>
      <trkpt lat="42.71352" lon="1.45885">
        <ele>1433.2</ele>
        <time>2020-08-05T14:28:33Z</time>
      </trkpt>
      <trkpt lat="42.71355" lon="1.45886">
        <ele>1433.6</ele>
        <time>2020-08-05T14:28:36Z</time>
      </trkpt>
      <trkpt lat="42.71356" lon="1.45888">
        <ele>1433.6</ele>
        <time>2020-08-05T14:28:37Z</time>
      </trkpt>
      <trkpt lat="42.71361" lon="1.45893">
        <ele>1434</ele>
        <time>2020-08-05T14:28:41Z</time>
      </trkpt>
      <trkpt lat="42.71367" lon="1.459">
        <ele>1434.4</ele>
        <time>2020-08-05T14:28:47Z</time>
      </trkpt>
      <trkpt lat="42.71372" lon="1.45909">
        <ele>1435</ele>
        <time>2020-08-05T14:28:53Z</time>
      </trkpt>
      <trkpt lat="42.71374" lon="1.45911">
        <ele>1435.2</ele>
        <time>2020-08-05T14:28:55Z</time>
      </trkpt>
      <trkpt lat="42.71379" lon="1.45918">
        <ele>1435.6</ele>
        <time>2020-08-05T14:29:00Z</time>
      </trkpt>
      <trkpt lat="42.71381" lon="1.45922">
        <ele>1436</ele>
        <time>2020-08-05T14:29:03Z</time>
      </trkpt>
      <trkpt lat="42.71382" lon="1.45924">
        <ele>1436.2</ele>
        <time>2020-08-05T14:29:04Z</time>
      </trkpt>
      <trkpt lat="42.71388" lon="1.45934">
        <ele>1436.6</ele>
        <time>2020-08-05T14:29:11Z</time>
      </trkpt>
      <trkpt lat="42.71391" lon="1.4594">
        <ele>1437</ele>
        <time>2020-08-05T14:29:15Z</time>
      </trkpt>
      <trkpt lat="42.71393" lon="1.45944">
        <ele>1437.6</ele>
        <time>2020-08-05T14:29:18Z</time>
      </trkpt>
      <trkpt lat="42.71396" lon="1.45947">
        <ele>1438</ele>
        <time>2020-08-05T14:29:21Z</time>
      </trkpt>
      <trkpt lat="42.71398" lon="1.45949">
        <ele>1438.2</ele>
        <time>2020-08-05T14:29:23Z</time>
      </trkpt>
      <trkpt lat="42.71399" lon="1.4595">
        <ele>1438.2</ele>
        <time>2020-08-05T14:29:24Z</time>
      </trkpt>
      <trkpt lat="42.71404" lon="1.45956">
        <ele>1439.2</ele>
        <time>2020-08-05T14:29:30Z</time>
      </trkpt>
      <trkpt lat="42.71405" lon="1.45958">
        <ele>1439.4</ele>
        <time>2020-08-05T14:29:31Z</time>
      </trkpt>
      <trkpt lat="42.71411" lon="1.45972">
        <ele>1440.2</ele>
        <time>2020-08-05T14:29:40Z</time>
      </trkpt>
      <trkpt lat="42.71418" lon="1.45978">
        <ele>1440.8</ele>
        <time>2020-08-05T14:29:45Z</time>
      </trkpt>
      <trkpt lat="42.7142" lon="1.45977">
        <ele>1441</ele>
        <time>2020-08-05T14:29:47Z</time>
      </trkpt>
      <trkpt lat="42.71423" lon="1.45977">
        <ele>1441.2</ele>
        <time>2020-08-05T14:29:49Z</time>
      </trkpt>
      <trkpt lat="42.71425" lon="1.45977">
        <ele>1440.8</ele>
        <time>2020-08-05T14:29:53Z</time>
      </trkpt>
      <trkpt lat="42.71426" lon="1.45976">
        <ele>1440.6</ele>
        <time>2020-08-05T14:30:00Z</time>
      </trkpt>
      <trkpt lat="42.71428" lon="1.45975">
        <ele>1441</ele>
        <time>2020-08-05T14:30:04Z</time>
      </trkpt>
      <trkpt lat="42.71429" lon="1.45975">
        <ele>1441.4</ele>
        <time>2020-08-05T14:30:12Z</time>
      </trkpt>
      <trkpt lat="42.71432" lon="1.45974">
        <ele>1441.8</ele>
        <time>2020-08-05T14:30:18Z</time>
      </trkpt>
      <trkpt lat="42.71436" lon="1.45972">
        <ele>1442.4</ele>
        <time>2020-08-05T14:30:25Z</time>
      </trkpt>
      <trkpt lat="42.71436" lon="1.45972">
        <ele>1442.4</ele>
        <time>2020-08-05T14:30:26Z</time>
      </trkpt>
      <trkpt lat="42.71437" lon="1.4597">
        <ele>1442.4</ele>
        <time>2020-08-05T14:30:27Z</time>
      </trkpt>
      <trkpt lat="42.71439" lon="1.45966">
        <ele>1442.6</ele>
        <time>2020-08-05T14:30:31Z</time>
      </trkpt>
      <trkpt lat="42.71443" lon="1.45961">
        <ele>1443.4</ele>
        <time>2020-08-05T14:30:38Z</time>
      </trkpt>
      <trkpt lat="42.71444" lon="1.45961">
        <ele>1442.8</ele>
        <time>2020-08-05T14:30:44Z</time>
      </trkpt>
      <trkpt lat="42.71444" lon="1.45961">
        <ele>1443</ele>
        <time>2020-08-05T14:30:57Z</time>
      </trkpt>
      <trkpt lat="42.71444" lon="1.45961">
        <ele>1443.2</ele>
        <time>2020-08-05T14:31:13Z</time>
      </trkpt>
      <trkpt lat="42.71445" lon="1.45961">
        <ele>1443.2</ele>
        <time>2020-08-05T14:31:29Z</time>
      </trkpt>
      <trkpt lat="42.71445" lon="1.45961">
        <ele>1443.4</ele>
        <time>2020-08-05T14:31:37Z</time>
      </trkpt>
      <trkpt lat="42.71445" lon="1.45961">
        <ele>1443.2</ele>
        <time>2020-08-05T14:31:41Z</time>
      </trkpt>
      <trkpt lat="42.71445" lon="1.45961">
        <ele>1443.4</ele>
        <time>2020-08-05T14:32:00Z</time>
      </trkpt>
      <trkpt lat="42.71445" lon="1.45961">
        <ele>1443.2</ele>
        <time>2020-08-05T14:32:19Z</time>
      </trkpt>
      <trkpt lat="42.71445" lon="1.45961">
        <ele>1443.2</ele>
        <time>2020-08-05T14:32:33Z</time>
      </trkpt>
      <trkpt lat="42.71444" lon="1.45961">
        <ele>1443.2</ele>
        <time>2020-08-05T14:32:54Z</time>
      </trkpt>
      <trkpt lat="42.71444" lon="1.45961">
        <ele>1443.2</ele>
        <time>2020-08-05T14:33:12Z</time>
      </trkpt>
      <trkpt lat="42.71445" lon="1.45961">
        <ele>1443</ele>
        <time>2020-08-05T14:33:34Z</time>
      </trkpt>
      <trkpt lat="42.71445" lon="1.45961">
        <ele>1443.6</ele>
        <time>2020-08-05T14:33:44Z</time>
      </trkpt>
      <trkpt lat="42.71445" lon="1.45961">
        <ele>1443.6</ele>
        <time>2020-08-05T14:33:52Z</time>
      </trkpt>
      <trkpt lat="42.71445" lon="1.45961">
        <ele>1443.4</ele>
        <time>2020-08-05T14:34:08Z</time>
      </trkpt>
      <trkpt lat="42.71446" lon="1.45961">
        <ele>1443.4</ele>
        <time>2020-08-05T14:34:18Z</time>
      </trkpt>
      <trkpt lat="42.71446" lon="1.4596">
        <ele>1443.2</ele>
        <time>2020-08-05T14:34:27Z</time>
      </trkpt>
      <trkpt lat="42.71446" lon="1.4596">
        <ele>1443.4</ele>
        <time>2020-08-05T14:34:44Z</time>
      </trkpt>
      <trkpt lat="42.71446" lon="1.4596">
        <ele>1443</ele>
        <time>2020-08-05T14:34:58Z</time>
      </trkpt>
      <trkpt lat="42.71446" lon="1.4596">
        <ele>1443</ele>
        <time>2020-08-05T14:35:21Z</time>
      </trkpt>
      <trkpt lat="42.71447" lon="1.45959">
        <ele>1443.6</ele>
        <time>2020-08-05T14:35:32Z</time>
      </trkpt>
      <trkpt lat="42.71447" lon="1.45959">
        <ele>1444</ele>
        <time>2020-08-05T14:35:37Z</time>
      </trkpt>
      <trkpt lat="42.7145" lon="1.45954">
        <ele>1444.4</ele>
        <time>2020-08-05T14:35:42Z</time>
      </trkpt>
      <trkpt lat="42.7145" lon="1.45954">
        <ele>1444.6</ele>
        <time>2020-08-05T14:35:43Z</time>
      </trkpt>
      <trkpt lat="42.71451" lon="1.45951">
        <ele>1444.8</ele>
        <time>2020-08-05T14:35:48Z</time>
      </trkpt>
      <trkpt lat="42.71451" lon="1.45952">
        <ele>1444.8</ele>
        <time>2020-08-05T14:35:55Z</time>
      </trkpt>
      <trkpt lat="42.71452" lon="1.45951">
        <ele>1445</ele>
        <time>2020-08-05T14:36:01Z</time>
      </trkpt>
      <trkpt lat="42.71451" lon="1.45951">
        <ele>1444.8</ele>
        <time>2020-08-05T14:36:09Z</time>
      </trkpt>
      <trkpt lat="42.71451" lon="1.45951">
        <ele>1444.8</ele>
        <time>2020-08-05T14:36:18Z</time>
      </trkpt>
      <trkpt lat="42.71452" lon="1.45949">
        <ele>1444.8</ele>
        <time>2020-08-05T14:36:23Z</time>
      </trkpt>
      <trkpt lat="42.71456" lon="1.45944">
        <ele>1445.2</ele>
        <time>2020-08-05T14:36:29Z</time>
      </trkpt>
      <trkpt lat="42.71457" lon="1.45942">
        <ele>1445.2</ele>
        <time>2020-08-05T14:36:30Z</time>
      </trkpt>
      <trkpt lat="42.71461" lon="1.45938">
        <ele>1445.6</ele>
        <time>2020-08-05T14:36:33Z</time>
      </trkpt>
      <trkpt lat="42.71462" lon="1.45936">
        <ele>1445.8</ele>
        <time>2020-08-05T14:36:34Z</time>
      </trkpt>
      <trkpt lat="42.71463" lon="1.45934">
        <ele>1445.8</ele>
        <time>2020-08-05T14:36:35Z</time>
      </trkpt>
      <trkpt lat="42.71471" lon="1.45928">
        <ele>1446.4</ele>
        <time>2020-08-05T14:36:41Z</time>
      </trkpt>
      <trkpt lat="42.71476" lon="1.45928">
        <ele>1446.6</ele>
        <time>2020-08-05T14:36:44Z</time>
      </trkpt>
      <trkpt lat="42.7148" lon="1.45927">
        <ele>1447.2</ele>
        <time>2020-08-05T14:36:47Z</time>
      </trkpt>
      <trkpt lat="42.71483" lon="1.45926">
        <ele>1447.8</ele>
        <time>2020-08-05T14:36:50Z</time>
      </trkpt>
      <trkpt lat="42.71487" lon="1.45927">
        <ele>1448</ele>
        <time>2020-08-05T14:36:53Z</time>
      </trkpt>
      <trkpt lat="42.71496" lon="1.4593">
        <ele>1449</ele>
        <time>2020-08-05T14:37:00Z</time>
      </trkpt>
      <trkpt lat="42.71498" lon="1.45931">
        <ele>1449</ele>
        <time>2020-08-05T14:37:01Z</time>
      </trkpt>
      <trkpt lat="42.71505" lon="1.45932">
        <ele>1449.4</ele>
        <time>2020-08-05T14:37:08Z</time>
      </trkpt>
      <trkpt lat="42.71513" lon="1.45931">
        <ele>1450.2</ele>
        <time>2020-08-05T14:37:14Z</time>
      </trkpt>
      <trkpt lat="42.71515" lon="1.45931">
        <ele>1450.2</ele>
        <time>2020-08-05T14:37:15Z</time>
      </trkpt>
      <trkpt lat="42.71516" lon="1.45932">
        <ele>1450.4</ele>
        <time>2020-08-05T14:37:16Z</time>
      </trkpt>
      <trkpt lat="42.71523" lon="1.45936">
        <ele>1451</ele>
        <time>2020-08-05T14:37:21Z</time>
      </trkpt>
      <trkpt lat="42.71525" lon="1.45937">
        <ele>1451.2</ele>
        <time>2020-08-05T14:37:23Z</time>
      </trkpt>
      <trkpt lat="42.71531" lon="1.45939">
        <ele>1451.6</ele>
        <time>2020-08-05T14:37:27Z</time>
      </trkpt>
      <trkpt lat="42.71532" lon="1.45938">
        <ele>1451.8</ele>
        <time>2020-08-05T14:37:28Z</time>
      </trkpt>
      <trkpt lat="42.71538" lon="1.45936">
        <ele>1452.4</ele>
        <time>2020-08-05T14:37:32Z</time>
      </trkpt>
      <trkpt lat="42.71539" lon="1.45936">
        <ele>1452.6</ele>
        <time>2020-08-05T14:37:33Z</time>
      </trkpt>
      <trkpt lat="42.71544" lon="1.45938">
        <ele>1453.6</ele>
        <time>2020-08-05T14:37:38Z</time>
      </trkpt>
      <trkpt lat="42.71546" lon="1.45938">
        <ele>1453.8</ele>
        <time>2020-08-05T14:37:39Z</time>
      </trkpt>
      <trkpt lat="42.71554" lon="1.45941">
        <ele>1454</ele>
        <time>2020-08-05T14:37:46Z</time>
      </trkpt>
      <trkpt lat="42.71557" lon="1.45942">
        <ele>1453.4</ele>
        <time>2020-08-05T14:37:53Z</time>
      </trkpt>
      <trkpt lat="42.71559" lon="1.45943">
        <ele>1453.8</ele>
        <time>2020-08-05T14:37:58Z</time>
      </trkpt>
      <trkpt lat="42.71559" lon="1.45943">
        <ele>1454.6</ele>
        <time>2020-08-05T14:38:04Z</time>
      </trkpt>
      <trkpt lat="42.71559" lon="1.45943">
        <ele>1454.8</ele>
        <time>2020-08-05T14:38:05Z</time>
      </trkpt>
      <trkpt lat="42.71567" lon="1.45945">
        <ele>1455.2</ele>
        <time>2020-08-05T14:38:11Z</time>
      </trkpt>
      <trkpt lat="42.71573" lon="1.45946">
        <ele>1455.4</ele>
        <time>2020-08-05T14:38:18Z</time>
      </trkpt>
      <trkpt lat="42.71575" lon="1.45945">
        <ele>1455.6</ele>
        <time>2020-08-05T14:38:21Z</time>
      </trkpt>
      <trkpt lat="42.71576" lon="1.45945">
        <ele>1455.8</ele>
        <time>2020-08-05T14:38:22Z</time>
      </trkpt>
      <trkpt lat="42.71577" lon="1.45945">
        <ele>1456</ele>
        <time>2020-08-05T14:38:24Z</time>
      </trkpt>
      <trkpt lat="42.71582" lon="1.45939">
        <ele>1456.2</ele>
        <time>2020-08-05T14:38:32Z</time>
      </trkpt>
      <trkpt lat="42.71584" lon="1.45932">
        <ele>1456.2</ele>
        <time>2020-08-05T14:38:39Z</time>
      </trkpt>
      <trkpt lat="42.71585" lon="1.45929">
        <ele>1456.8</ele>
        <time>2020-08-05T14:38:45Z</time>
      </trkpt>
      <trkpt lat="42.71587" lon="1.45924">
        <ele>1457.8</ele>
        <time>2020-08-05T14:38:50Z</time>
      </trkpt>
      <trkpt lat="42.71588" lon="1.45921">
        <ele>1458</ele>
        <time>2020-08-05T14:38:53Z</time>
      </trkpt>
      <trkpt lat="42.71591" lon="1.45918">
        <ele>1458.2</ele>
        <time>2020-08-05T14:38:57Z</time>
      </trkpt>
      <trkpt lat="42.71592" lon="1.45918">
        <ele>1458.4</ele>
        <time>2020-08-05T14:38:58Z</time>
      </trkpt>
      <trkpt lat="42.71592" lon="1.45918">
        <ele>1458.4</ele>
        <time>2020-08-05T14:39:03Z</time>
      </trkpt>
      <trkpt lat="42.71598" lon="1.45911">
        <ele>1458.8</ele>
        <time>2020-08-05T14:39:09Z</time>
      </trkpt>
      <trkpt lat="42.71599" lon="1.4591">
        <ele>1459</ele>
        <time>2020-08-05T14:39:10Z</time>
      </trkpt>
      <trkpt lat="42.71608" lon="1.459">
        <ele>1459.8</ele>
        <time>2020-08-05T14:39:18Z</time>
      </trkpt>
      <trkpt lat="42.71612" lon="1.45896">
        <ele>1460.2</ele>
        <time>2020-08-05T14:39:21Z</time>
      </trkpt>
      <trkpt lat="42.71614" lon="1.45895">
        <ele>1460.4</ele>
        <time>2020-08-05T14:39:23Z</time>
      </trkpt>
      <trkpt lat="42.71617" lon="1.45892">
        <ele>1460.6</ele>
        <time>2020-08-05T14:39:26Z</time>
      </trkpt>
      <trkpt lat="42.71619" lon="1.45889">
        <ele>1460.8</ele>
        <time>2020-08-05T14:39:28Z</time>
      </trkpt>
      <trkpt lat="42.71621" lon="1.45885">
        <ele>1460.6</ele>
        <time>2020-08-05T14:39:31Z</time>
      </trkpt>
      <trkpt lat="42.71624" lon="1.45882">
        <ele>1461.2</ele>
        <time>2020-08-05T14:39:34Z</time>
      </trkpt>
      <trkpt lat="42.71628" lon="1.45874">
        <ele>1461.6</ele>
        <time>2020-08-05T14:39:39Z</time>
      </trkpt>
      <trkpt lat="42.71629" lon="1.45873">
        <ele>1461.6</ele>
        <time>2020-08-05T14:39:43Z</time>
      </trkpt>
      <trkpt lat="42.71633" lon="1.45869">
        <ele>1461.8</ele>
        <time>2020-08-05T14:39:48Z</time>
      </trkpt>
      <trkpt lat="42.71642" lon="1.45862">
        <ele>1461.8</ele>
        <time>2020-08-05T14:39:54Z</time>
      </trkpt>
      <trkpt lat="42.71648" lon="1.45862">
        <ele>1461.4</ele>
        <time>2020-08-05T14:39:58Z</time>
      </trkpt>
      <trkpt lat="42.71649" lon="1.45861">
        <ele>1461.4</ele>
        <time>2020-08-05T14:39:59Z</time>
      </trkpt>
      <trkpt lat="42.71654" lon="1.4586">
        <ele>1460.8</ele>
        <time>2020-08-05T14:40:05Z</time>
      </trkpt>
      <trkpt lat="42.71658" lon="1.45861">
        <ele>1461.4</ele>
        <time>2020-08-05T14:40:12Z</time>
      </trkpt>
      <trkpt lat="42.71662" lon="1.45865">
        <ele>1461.4</ele>
        <time>2020-08-05T14:40:18Z</time>
      </trkpt>
      <trkpt lat="42.71666" lon="1.45869">
        <ele>1462</ele>
        <time>2020-08-05T14:40:24Z</time>
      </trkpt>
      <trkpt lat="42.71672" lon="1.45875">
        <ele>1462</ele>
        <time>2020-08-05T14:40:30Z</time>
      </trkpt>
      <trkpt lat="42.71673" lon="1.45877">
        <ele>1462.2</ele>
        <time>2020-08-05T14:40:32Z</time>
      </trkpt>
      <trkpt lat="42.71676" lon="1.45878">
        <ele>1463</ele>
        <time>2020-08-05T14:40:37Z</time>
      </trkpt>
      <trkpt lat="42.71678" lon="1.45879">
        <ele>1463</ele>
        <time>2020-08-05T14:40:39Z</time>
      </trkpt>
      <trkpt lat="42.7168" lon="1.4588">
        <ele>1463.2</ele>
        <time>2020-08-05T14:40:41Z</time>
      </trkpt>
      <trkpt lat="42.71681" lon="1.45881">
        <ele>1463.2</ele>
        <time>2020-08-05T14:40:42Z</time>
      </trkpt>
      <trkpt lat="42.71681" lon="1.45881">
        <ele>1463.2</ele>
        <time>2020-08-05T14:40:44Z</time>
      </trkpt>
      <trkpt lat="42.71685" lon="1.45884">
        <ele>1463.6</ele>
        <time>2020-08-05T14:40:48Z</time>
      </trkpt>
      <trkpt lat="42.71687" lon="1.45885">
        <ele>1464</ele>
        <time>2020-08-05T14:40:50Z</time>
      </trkpt>
      <trkpt lat="42.71687" lon="1.45886">
        <ele>1464.2</ele>
        <time>2020-08-05T14:40:51Z</time>
      </trkpt>
      <trkpt lat="42.71691" lon="1.45888">
        <ele>1464.6</ele>
        <time>2020-08-05T14:40:56Z</time>
      </trkpt>
      <trkpt lat="42.71694" lon="1.45892">
        <ele>1465</ele>
        <time>2020-08-05T14:41:01Z</time>
      </trkpt>
      <trkpt lat="42.71695" lon="1.45894">
        <ele>1465</ele>
        <time>2020-08-05T14:41:02Z</time>
      </trkpt>
      <trkpt lat="42.71696" lon="1.45895">
        <ele>1465.2</ele>
        <time>2020-08-05T14:41:04Z</time>
      </trkpt>
      <trkpt lat="42.71697" lon="1.45897">
        <ele>1465.4</ele>
        <time>2020-08-05T14:41:06Z</time>
      </trkpt>
      <trkpt lat="42.71702" lon="1.45904">
        <ele>1465.8</ele>
        <time>2020-08-05T14:41:13Z</time>
      </trkpt>
      <trkpt lat="42.71703" lon="1.45906">
        <ele>1466.4</ele>
        <time>2020-08-05T14:41:17Z</time>
      </trkpt>
      <trkpt lat="42.71706" lon="1.45907">
        <ele>1466.6</ele>
        <time>2020-08-05T14:41:21Z</time>
      </trkpt>
      <trkpt lat="42.71708" lon="1.45908">
        <ele>1466.8</ele>
        <time>2020-08-05T14:41:29Z</time>
      </trkpt>
      <trkpt lat="42.71711" lon="1.4591">
        <ele>1467.2</ele>
        <time>2020-08-05T14:41:39Z</time>
      </trkpt>
      <trkpt lat="42.71713" lon="1.45911">
        <ele>1467.4</ele>
        <time>2020-08-05T14:41:40Z</time>
      </trkpt>
      <trkpt lat="42.7172" lon="1.45916">
        <ele>1468.2</ele>
        <time>2020-08-05T14:41:46Z</time>
      </trkpt>
      <trkpt lat="42.7172" lon="1.45916">
        <ele>1468.4</ele>
        <time>2020-08-05T14:41:48Z</time>
      </trkpt>
      <trkpt lat="42.71729" lon="1.45922">
        <ele>1469</ele>
        <time>2020-08-05T14:41:53Z</time>
      </trkpt>
      <trkpt lat="42.71733" lon="1.45927">
        <ele>1469.4</ele>
        <time>2020-08-05T14:41:57Z</time>
      </trkpt>
      <trkpt lat="42.71734" lon="1.45928">
        <ele>1469.6</ele>
        <time>2020-08-05T14:41:58Z</time>
      </trkpt>
      <trkpt lat="42.71737" lon="1.45929">
        <ele>1469.8</ele>
        <time>2020-08-05T14:42:00Z</time>
      </trkpt>
      <trkpt lat="42.71742" lon="1.4593">
        <ele>1470</ele>
        <time>2020-08-05T14:42:05Z</time>
      </trkpt>
      <trkpt lat="42.71744" lon="1.4593">
        <ele>1470.2</ele>
        <time>2020-08-05T14:42:12Z</time>
      </trkpt>
      <trkpt lat="42.71746" lon="1.45932">
        <ele>1470.2</ele>
        <time>2020-08-05T14:42:13Z</time>
      </trkpt>
      <trkpt lat="42.71748" lon="1.45934">
        <ele>1470.6</ele>
        <time>2020-08-05T14:42:16Z</time>
      </trkpt>
      <trkpt lat="42.71748" lon="1.45933">
        <ele>1470.8</ele>
        <time>2020-08-05T14:42:17Z</time>
      </trkpt>
      <trkpt lat="42.71757" lon="1.45942">
        <ele>1471.6</ele>
        <time>2020-08-05T14:42:25Z</time>
      </trkpt>
      <trkpt lat="42.7176" lon="1.45946">
        <ele>1472.2</ele>
        <time>2020-08-05T14:42:28Z</time>
      </trkpt>
      <trkpt lat="42.71763" lon="1.45949">
        <ele>1472.6</ele>
        <time>2020-08-05T14:42:31Z</time>
      </trkpt>
      <trkpt lat="42.71764" lon="1.4595">
        <ele>1472.6</ele>
        <time>2020-08-05T14:42:32Z</time>
      </trkpt>
      <trkpt lat="42.71769" lon="1.45953">
        <ele>1473</ele>
        <time>2020-08-05T14:42:37Z</time>
      </trkpt>
      <trkpt lat="42.71777" lon="1.4596">
        <ele>1473.4</ele>
        <time>2020-08-05T14:42:45Z</time>
      </trkpt>
      <trkpt lat="42.71781" lon="1.45962">
        <ele>1473.4</ele>
        <time>2020-08-05T14:42:51Z</time>
      </trkpt>
      <trkpt lat="42.71781" lon="1.45962">
        <ele>1473.2</ele>
        <time>2020-08-05T14:43:09Z</time>
      </trkpt>
      <trkpt lat="42.71781" lon="1.45962">
        <ele>1473.4</ele>
        <time>2020-08-05T14:43:28Z</time>
      </trkpt>
      <trkpt lat="42.71781" lon="1.45962">
        <ele>1473.4</ele>
        <time>2020-08-05T14:43:50Z</time>
      </trkpt>
      <trkpt lat="42.71781" lon="1.45962">
        <ele>1473.4</ele>
        <time>2020-08-05T14:44:05Z</time>
      </trkpt>
      <trkpt lat="42.71783" lon="1.45964">
        <ele>1473.6</ele>
        <time>2020-08-05T14:44:11Z</time>
      </trkpt>
      <trkpt lat="42.71784" lon="1.45966">
        <ele>1473.8</ele>
        <time>2020-08-05T14:44:25Z</time>
      </trkpt>
      <trkpt lat="42.71784" lon="1.45965">
        <ele>1474.2</ele>
        <time>2020-08-05T14:44:26Z</time>
      </trkpt>
      <trkpt lat="42.71786" lon="1.45971">
        <ele>1474.6</ele>
        <time>2020-08-05T14:44:33Z</time>
      </trkpt>
      <trkpt lat="42.71788" lon="1.45973">
        <ele>1474.8</ele>
        <time>2020-08-05T14:44:35Z</time>
      </trkpt>
      <trkpt lat="42.7179" lon="1.45973">
        <ele>1474.8</ele>
        <time>2020-08-05T14:44:36Z</time>
      </trkpt>
      <trkpt lat="42.71794" lon="1.45976">
        <ele>1475.2</ele>
        <time>2020-08-05T14:44:39Z</time>
      </trkpt>
      <trkpt lat="42.71795" lon="1.45978">
        <ele>1475.4</ele>
        <time>2020-08-05T14:44:40Z</time>
      </trkpt>
      <trkpt lat="42.71798" lon="1.45981">
        <ele>1475.8</ele>
        <time>2020-08-05T14:44:43Z</time>
      </trkpt>
      <trkpt lat="42.71799" lon="1.45983">
        <ele>1476</ele>
        <time>2020-08-05T14:44:44Z</time>
      </trkpt>
      <trkpt lat="42.71802" lon="1.45989">
        <ele>1477</ele>
        <time>2020-08-05T14:44:49Z</time>
      </trkpt>
      <trkpt lat="42.71808" lon="1.45997">
        <ele>1478</ele>
        <time>2020-08-05T14:44:55Z</time>
      </trkpt>
      <trkpt lat="42.71809" lon="1.45998">
        <ele>1478.2</ele>
        <time>2020-08-05T14:44:56Z</time>
      </trkpt>
      <trkpt lat="42.71812" lon="1.46003">
        <ele>1478.8</ele>
        <time>2020-08-05T14:45:01Z</time>
      </trkpt>
      <trkpt lat="42.71812" lon="1.46002">
        <ele>1479</ele>
        <time>2020-08-05T14:45:02Z</time>
      </trkpt>
      <trkpt lat="42.71818" lon="1.46008">
        <ele>1480</ele>
        <time>2020-08-05T14:45:09Z</time>
      </trkpt>
      <trkpt lat="42.71819" lon="1.46009">
        <ele>1480.2</ele>
        <time>2020-08-05T14:45:10Z</time>
      </trkpt>
      <trkpt lat="42.71823" lon="1.46012">
        <ele>1481.2</ele>
        <time>2020-08-05T14:45:15Z</time>
      </trkpt>
      <trkpt lat="42.71824" lon="1.46013">
        <ele>1481.2</ele>
        <time>2020-08-05T14:45:16Z</time>
      </trkpt>
      <trkpt lat="42.71829" lon="1.46016">
        <ele>1482.2</ele>
        <time>2020-08-05T14:45:22Z</time>
      </trkpt>
      <trkpt lat="42.7183" lon="1.46017">
        <ele>1482.4</ele>
        <time>2020-08-05T14:45:24Z</time>
      </trkpt>
      <trkpt lat="42.71837" lon="1.46021">
        <ele>1483.4</ele>
        <time>2020-08-05T14:45:30Z</time>
      </trkpt>
      <trkpt lat="42.71842" lon="1.46025">
        <ele>1484.4</ele>
        <time>2020-08-05T14:45:36Z</time>
      </trkpt>
      <trkpt lat="42.71842" lon="1.46025">
        <ele>1484.6</ele>
        <time>2020-08-05T14:45:37Z</time>
      </trkpt>
      <trkpt lat="42.71844" lon="1.46027">
        <ele>1485.4</ele>
        <time>2020-08-05T14:45:43Z</time>
      </trkpt>
      <trkpt lat="42.71845" lon="1.46029">
        <ele>1485.6</ele>
        <time>2020-08-05T14:45:44Z</time>
      </trkpt>
      <trkpt lat="42.71852" lon="1.46034">
        <ele>1486.6</ele>
        <time>2020-08-05T14:45:50Z</time>
      </trkpt>
      <trkpt lat="42.71855" lon="1.46038">
        <ele>1487</ele>
        <time>2020-08-05T14:45:53Z</time>
      </trkpt>
      <trkpt lat="42.71857" lon="1.46041">
        <ele>1487.8</ele>
        <time>2020-08-05T14:45:57Z</time>
      </trkpt>
      <trkpt lat="42.7186" lon="1.46045">
        <ele>1488</ele>
        <time>2020-08-05T14:45:59Z</time>
      </trkpt>
      <trkpt lat="42.71863" lon="1.46049">
        <ele>1488.8</ele>
        <time>2020-08-05T14:46:03Z</time>
      </trkpt>
      <trkpt lat="42.71867" lon="1.46051">
        <ele>1489.2</ele>
        <time>2020-08-05T14:46:06Z</time>
      </trkpt>
      <trkpt lat="42.71871" lon="1.46054">
        <ele>1490</ele>
        <time>2020-08-05T14:46:11Z</time>
      </trkpt>
      <trkpt lat="42.71873" lon="1.46057">
        <ele>1490.4</ele>
        <time>2020-08-05T14:46:14Z</time>
      </trkpt>
      <trkpt lat="42.71873" lon="1.46058">
        <ele>1491</ele>
        <time>2020-08-05T14:46:17Z</time>
      </trkpt>
      <trkpt lat="42.71877" lon="1.46062">
        <ele>1491.4</ele>
        <time>2020-08-05T14:46:20Z</time>
      </trkpt>
      <trkpt lat="42.7188" lon="1.46065">
        <ele>1492</ele>
        <time>2020-08-05T14:46:25Z</time>
      </trkpt>
      <trkpt lat="42.71883" lon="1.46067">
        <ele>1492.6</ele>
        <time>2020-08-05T14:46:27Z</time>
      </trkpt>
      <trkpt lat="42.71886" lon="1.46068">
        <ele>1493</ele>
        <time>2020-08-05T14:46:30Z</time>
      </trkpt>
      <trkpt lat="42.71888" lon="1.4607">
        <ele>1493.6</ele>
        <time>2020-08-05T14:46:33Z</time>
      </trkpt>
      <trkpt lat="42.71891" lon="1.46072">
        <ele>1494</ele>
        <time>2020-08-05T14:46:36Z</time>
      </trkpt>
      <trkpt lat="42.71894" lon="1.46074">
        <ele>1494.4</ele>
        <time>2020-08-05T14:46:39Z</time>
      </trkpt>
      <trkpt lat="42.719" lon="1.46077">
        <ele>1495</ele>
        <time>2020-08-05T14:46:44Z</time>
      </trkpt>
      <trkpt lat="42.71902" lon="1.46078">
        <ele>1495.2</ele>
        <time>2020-08-05T14:46:45Z</time>
      </trkpt>
      <trkpt lat="42.71911" lon="1.46079">
        <ele>1496.2</ele>
        <time>2020-08-05T14:46:52Z</time>
      </trkpt>
      <trkpt lat="42.71912" lon="1.46078">
        <ele>1496.4</ele>
        <time>2020-08-05T14:46:58Z</time>
      </trkpt>
      <trkpt lat="42.71912" lon="1.46078">
        <ele>1496.4</ele>
        <time>2020-08-05T14:47:12Z</time>
      </trkpt>
      <trkpt lat="42.71912" lon="1.46078">
        <ele>1496.2</ele>
        <time>2020-08-05T14:47:30Z</time>
      </trkpt>
      <trkpt lat="42.71913" lon="1.46078">
        <ele>1496.4</ele>
        <time>2020-08-05T14:47:47Z</time>
      </trkpt>
      <trkpt lat="42.71913" lon="1.46078">
        <ele>1496.4</ele>
        <time>2020-08-05T14:48:01Z</time>
      </trkpt>
      <trkpt lat="42.71913" lon="1.46078">
        <ele>1496.4</ele>
        <time>2020-08-05T14:48:13Z</time>
      </trkpt>
      <trkpt lat="42.71913" lon="1.46079">
        <ele>1497</ele>
        <time>2020-08-05T14:48:22Z</time>
      </trkpt>
      <trkpt lat="42.71915" lon="1.46083">
        <ele>1497</ele>
        <time>2020-08-05T14:48:26Z</time>
      </trkpt>
      <trkpt lat="42.71915" lon="1.46084">
        <ele>1497</ele>
        <time>2020-08-05T14:48:27Z</time>
      </trkpt>
      <trkpt lat="42.71916" lon="1.46089">
        <ele>1497.2</ele>
        <time>2020-08-05T14:48:29Z</time>
      </trkpt>
      <trkpt lat="42.71917" lon="1.46094">
        <ele>1498.2</ele>
        <time>2020-08-05T14:48:34Z</time>
      </trkpt>
      <trkpt lat="42.71917" lon="1.46096">
        <ele>1498.4</ele>
        <time>2020-08-05T14:48:35Z</time>
      </trkpt>
      <trkpt lat="42.71918" lon="1.46101">
        <ele>1499.2</ele>
        <time>2020-08-05T14:48:41Z</time>
      </trkpt>
      <trkpt lat="42.71918" lon="1.46101">
        <ele>1499.2</ele>
        <time>2020-08-05T14:48:52Z</time>
      </trkpt>
      <trkpt lat="42.71918" lon="1.46101">
        <ele>1499.4</ele>
        <time>2020-08-05T14:49:01Z</time>
      </trkpt>
      <trkpt lat="42.71918" lon="1.46101">
        <ele>1499.6</ele>
        <time>2020-08-05T14:49:02Z</time>
      </trkpt>
      <trkpt lat="42.71919" lon="1.46109">
        <ele>1500.4</ele>
        <time>2020-08-05T14:49:09Z</time>
      </trkpt>
      <trkpt lat="42.7192" lon="1.46109">
        <ele>1500.8</ele>
        <time>2020-08-05T14:49:11Z</time>
      </trkpt>
      <trkpt lat="42.7192" lon="1.46112">
        <ele>1501.6</ele>
        <time>2020-08-05T14:49:19Z</time>
      </trkpt>
      <trkpt lat="42.71921" lon="1.46114">
        <ele>1502.8</ele>
        <time>2020-08-05T14:49:26Z</time>
      </trkpt>
      <trkpt lat="42.71921" lon="1.46114">
        <ele>1502.8</ele>
        <time>2020-08-05T14:49:28Z</time>
      </trkpt>
      <trkpt lat="42.71922" lon="1.46117">
        <ele>1503.8</ele>
        <time>2020-08-05T14:49:33Z</time>
      </trkpt>
      <trkpt lat="42.71924" lon="1.46119">
        <ele>1504.2</ele>
        <time>2020-08-05T14:49:36Z</time>
      </trkpt>
      <trkpt lat="42.71925" lon="1.46121">
        <ele>1504.8</ele>
        <time>2020-08-05T14:49:41Z</time>
      </trkpt>
      <trkpt lat="42.71925" lon="1.46121">
        <ele>1504.8</ele>
        <time>2020-08-05T14:49:45Z</time>
      </trkpt>
      <trkpt lat="42.71924" lon="1.46122">
        <ele>1505.2</ele>
        <time>2020-08-05T14:49:58Z</time>
      </trkpt>
      <trkpt lat="42.71924" lon="1.46124">
        <ele>1506</ele>
        <time>2020-08-05T14:50:02Z</time>
      </trkpt>
      <trkpt lat="42.71924" lon="1.46124">
        <ele>1506.4</ele>
        <time>2020-08-05T14:50:04Z</time>
      </trkpt>
      <trkpt lat="42.71924" lon="1.46124">
        <ele>1507.2</ele>
        <time>2020-08-05T14:50:08Z</time>
      </trkpt>
      <trkpt lat="42.71925" lon="1.46126">
        <ele>1507.6</ele>
        <time>2020-08-05T14:50:12Z</time>
      </trkpt>
      <trkpt lat="42.71925" lon="1.46128">
        <ele>1508.2</ele>
        <time>2020-08-05T14:50:16Z</time>
      </trkpt>
      <trkpt lat="42.71926" lon="1.46129">
        <ele>1508.6</ele>
        <time>2020-08-05T14:50:18Z</time>
      </trkpt>
      <trkpt lat="42.71925" lon="1.4613">
        <ele>1509</ele>
        <time>2020-08-05T14:50:23Z</time>
      </trkpt>
      <trkpt lat="42.71923" lon="1.46132">
        <ele>1509.2</ele>
        <time>2020-08-05T14:50:25Z</time>
      </trkpt>
      <trkpt lat="42.71922" lon="1.46132">
        <ele>1509.4</ele>
        <time>2020-08-05T14:50:30Z</time>
      </trkpt>
      <trkpt lat="42.71921" lon="1.46131">
        <ele>1509.8</ele>
        <time>2020-08-05T14:50:39Z</time>
      </trkpt>
      <trkpt lat="42.71921" lon="1.4613">
        <ele>1510.2</ele>
        <time>2020-08-05T14:50:42Z</time>
      </trkpt>
      <trkpt lat="42.71918" lon="1.46128">
        <ele>1510.8</ele>
        <time>2020-08-05T14:50:45Z</time>
      </trkpt>
      <trkpt lat="42.71913" lon="1.46127">
        <ele>1511.4</ele>
        <time>2020-08-05T14:50:49Z</time>
      </trkpt>
      <trkpt lat="42.71912" lon="1.46126">
        <ele>1511.6</ele>
        <time>2020-08-05T14:50:50Z</time>
      </trkpt>
      <trkpt lat="42.71911" lon="1.46126">
        <ele>1512.6</ele>
        <time>2020-08-05T14:50:55Z</time>
      </trkpt>
      <trkpt lat="42.71911" lon="1.46126">
        <ele>1512.8</ele>
        <time>2020-08-05T14:50:56Z</time>
      </trkpt>
      <trkpt lat="42.71906" lon="1.46124">
        <ele>1513.8</ele>
        <time>2020-08-05T14:51:01Z</time>
      </trkpt>
      <trkpt lat="42.71904" lon="1.46123">
        <ele>1514</ele>
        <time>2020-08-05T14:51:03Z</time>
      </trkpt>
      <trkpt lat="42.71896" lon="1.46121">
        <ele>1514.8</ele>
        <time>2020-08-05T14:51:09Z</time>
      </trkpt>
      <trkpt lat="42.71894" lon="1.4612">
        <ele>1515</ele>
        <time>2020-08-05T14:51:10Z</time>
      </trkpt>
      <trkpt lat="42.71888" lon="1.46119">
        <ele>1516</ele>
        <time>2020-08-05T14:51:14Z</time>
      </trkpt>
      <trkpt lat="42.71882" lon="1.46118">
        <ele>1516.8</ele>
        <time>2020-08-05T14:51:19Z</time>
      </trkpt>
      <trkpt lat="42.71879" lon="1.46118">
        <ele>1517.2</ele>
        <time>2020-08-05T14:51:21Z</time>
      </trkpt>
      <trkpt lat="42.71875" lon="1.46117">
        <ele>1518.2</ele>
        <time>2020-08-05T14:51:26Z</time>
      </trkpt>
      <trkpt lat="42.71867" lon="1.46117">
        <ele>1519.4</ele>
        <time>2020-08-05T14:51:33Z</time>
      </trkpt>
      <trkpt lat="42.71862" lon="1.46117">
        <ele>1520.2</ele>
        <time>2020-08-05T14:51:39Z</time>
      </trkpt>
      <trkpt lat="42.71858" lon="1.46117">
        <ele>1520.4</ele>
        <time>2020-08-05T14:51:42Z</time>
      </trkpt>
      <trkpt lat="42.71853" lon="1.46116">
        <ele>1521.2</ele>
        <time>2020-08-05T14:51:46Z</time>
      </trkpt>
      <trkpt lat="42.71851" lon="1.46115">
        <ele>1521.6</ele>
        <time>2020-08-05T14:51:49Z</time>
      </trkpt>
      <trkpt lat="42.71849" lon="1.46114">
        <ele>1521.6</ele>
        <time>2020-08-05T14:51:52Z</time>
      </trkpt>
      <trkpt lat="42.71849" lon="1.46114">
        <ele>1522.2</ele>
        <time>2020-08-05T14:52:00Z</time>
      </trkpt>
      <trkpt lat="42.71849" lon="1.46114">
        <ele>1522.8</ele>
        <time>2020-08-05T14:52:03Z</time>
      </trkpt>
      <trkpt lat="42.7185" lon="1.46115">
        <ele>1523.2</ele>
        <time>2020-08-05T14:52:07Z</time>
      </trkpt>
      <trkpt lat="42.71852" lon="1.46117">
        <ele>1523.8</ele>
        <time>2020-08-05T14:52:15Z</time>
      </trkpt>
      <trkpt lat="42.71852" lon="1.46119">
        <ele>1524.6</ele>
        <time>2020-08-05T14:52:22Z</time>
      </trkpt>
      <trkpt lat="42.71849" lon="1.46118">
        <ele>1524.6</ele>
        <time>2020-08-05T14:52:34Z</time>
      </trkpt>
      <trkpt lat="42.71848" lon="1.46117">
        <ele>1524.6</ele>
        <time>2020-08-05T14:52:44Z</time>
      </trkpt>
      <trkpt lat="42.71849" lon="1.46118">
        <ele>1525</ele>
        <time>2020-08-05T14:52:50Z</time>
      </trkpt>
      <trkpt lat="42.71849" lon="1.46118">
        <ele>1525.4</ele>
        <time>2020-08-05T14:52:52Z</time>
      </trkpt>
      <trkpt lat="42.71849" lon="1.46118">
        <ele>1526</ele>
        <time>2020-08-05T14:52:57Z</time>
      </trkpt>
      <trkpt lat="42.71853" lon="1.4612">
        <ele>1526.4</ele>
        <time>2020-08-05T14:53:00Z</time>
      </trkpt>
      <trkpt lat="42.71862" lon="1.46127">
        <ele>1527.2</ele>
        <time>2020-08-05T14:53:06Z</time>
      </trkpt>
      <trkpt lat="42.71862" lon="1.46127">
        <ele>1527</ele>
        <time>2020-08-05T14:53:08Z</time>
      </trkpt>
      <trkpt lat="42.71864" lon="1.46129">
        <ele>1527.2</ele>
        <time>2020-08-05T14:53:16Z</time>
      </trkpt>
      <trkpt lat="42.71869" lon="1.46132">
        <ele>1528</ele>
        <time>2020-08-05T14:53:23Z</time>
      </trkpt>
      <trkpt lat="42.7187" lon="1.46133">
        <ele>1528.2</ele>
        <time>2020-08-05T14:53:24Z</time>
      </trkpt>
      <trkpt lat="42.71878" lon="1.46141">
        <ele>1529.2</ele>
        <time>2020-08-05T14:53:30Z</time>
      </trkpt>
      <trkpt lat="42.71879" lon="1.46142">
        <ele>1529.4</ele>
        <time>2020-08-05T14:53:31Z</time>
      </trkpt>
      <trkpt lat="42.71883" lon="1.46144">
        <ele>1530.6</ele>
        <time>2020-08-05T14:53:36Z</time>
      </trkpt>
      <trkpt lat="42.71883" lon="1.46145">
        <ele>1530.8</ele>
        <time>2020-08-05T14:53:37Z</time>
      </trkpt>
      <trkpt lat="42.71888" lon="1.46148">
        <ele>1531.6</ele>
        <time>2020-08-05T14:53:41Z</time>
      </trkpt>
      <trkpt lat="42.71891" lon="1.4615">
        <ele>1532.2</ele>
        <time>2020-08-05T14:53:45Z</time>
      </trkpt>
      <trkpt lat="42.71891" lon="1.4615">
        <ele>1532.6</ele>
        <time>2020-08-05T14:53:47Z</time>
      </trkpt>
      <trkpt lat="42.71897" lon="1.46157">
        <ele>1533.6</ele>
        <time>2020-08-05T14:53:53Z</time>
      </trkpt>
      <trkpt lat="42.71903" lon="1.46163">
        <ele>1534.4</ele>
        <time>2020-08-05T14:53:59Z</time>
      </trkpt>
      <trkpt lat="42.71907" lon="1.46167">
        <ele>1535</ele>
        <time>2020-08-05T14:54:02Z</time>
      </trkpt>
      <trkpt lat="42.7191" lon="1.46172">
        <ele>1535.6</ele>
        <time>2020-08-05T14:54:06Z</time>
      </trkpt>
      <trkpt lat="42.71914" lon="1.46175">
        <ele>1536</ele>
        <time>2020-08-05T14:54:09Z</time>
      </trkpt>
      <trkpt lat="42.71917" lon="1.46178">
        <ele>1536.6</ele>
        <time>2020-08-05T14:54:13Z</time>
      </trkpt>
      <trkpt lat="42.71919" lon="1.46181">
        <ele>1537.2</ele>
        <time>2020-08-05T14:54:19Z</time>
      </trkpt>
      <trkpt lat="42.7192" lon="1.46182">
        <ele>1537.2</ele>
        <time>2020-08-05T14:54:20Z</time>
      </trkpt>
      <trkpt lat="42.71921" lon="1.46184">
        <ele>1537.6</ele>
        <time>2020-08-05T14:54:22Z</time>
      </trkpt>
      <trkpt lat="42.71923" lon="1.46186">
        <ele>1538</ele>
        <time>2020-08-05T14:54:25Z</time>
      </trkpt>
      <trkpt lat="42.71924" lon="1.46189">
        <ele>1538.2</ele>
        <time>2020-08-05T14:54:26Z</time>
      </trkpt>
      <trkpt lat="42.71927" lon="1.46196">
        <ele>1539.4</ele>
        <time>2020-08-05T14:54:31Z</time>
      </trkpt>
      <trkpt lat="42.71929" lon="1.46199">
        <ele>1540</ele>
        <time>2020-08-05T14:54:33Z</time>
      </trkpt>
      <trkpt lat="42.7193" lon="1.46202">
        <ele>1540.4</ele>
        <time>2020-08-05T14:54:37Z</time>
      </trkpt>
      <trkpt lat="42.71932" lon="1.46205">
        <ele>1541</ele>
        <time>2020-08-05T14:54:40Z</time>
      </trkpt>
      <trkpt lat="42.71936" lon="1.4621">
        <ele>1541.4</ele>
        <time>2020-08-05T14:54:46Z</time>
      </trkpt>
      <trkpt lat="42.71936" lon="1.4621">
        <ele>1541.4</ele>
        <time>2020-08-05T14:54:59Z</time>
      </trkpt>
      <trkpt lat="42.71936" lon="1.4621">
        <ele>1541.4</ele>
        <time>2020-08-05T14:55:02Z</time>
      </trkpt>
      <trkpt lat="42.71936" lon="1.4621">
        <ele>1541.4</ele>
        <time>2020-08-05T14:55:11Z</time>
      </trkpt>
      <trkpt lat="42.71936" lon="1.4621">
        <ele>1541.4</ele>
        <time>2020-08-05T14:55:24Z</time>
      </trkpt>
      <trkpt lat="42.71937" lon="1.46213">
        <ele>1541.6</ele>
        <time>2020-08-05T14:55:38Z</time>
      </trkpt>
      <trkpt lat="42.71941" lon="1.46219">
        <ele>1542.4</ele>
        <time>2020-08-05T14:55:43Z</time>
      </trkpt>
      <trkpt lat="42.71942" lon="1.46219">
        <ele>1542.6</ele>
        <time>2020-08-05T14:55:44Z</time>
      </trkpt>
      <trkpt lat="42.71946" lon="1.46224">
        <ele>1543.8</ele>
        <time>2020-08-05T14:55:49Z</time>
      </trkpt>
      <trkpt lat="42.71947" lon="1.46225">
        <ele>1543.8</ele>
        <time>2020-08-05T14:55:50Z</time>
      </trkpt>
      <trkpt lat="42.71951" lon="1.46229">
        <ele>1544.8</ele>
        <time>2020-08-05T14:55:56Z</time>
      </trkpt>
      <trkpt lat="42.71956" lon="1.46236">
        <ele>1546</ele>
        <time>2020-08-05T14:56:02Z</time>
      </trkpt>
      <trkpt lat="42.71961" lon="1.46241">
        <ele>1546.8</ele>
        <time>2020-08-05T14:56:08Z</time>
      </trkpt>
      <trkpt lat="42.71963" lon="1.46242">
        <ele>1547</ele>
        <time>2020-08-05T14:56:09Z</time>
      </trkpt>
      <trkpt lat="42.71968" lon="1.46247">
        <ele>1547.8</ele>
        <time>2020-08-05T14:56:14Z</time>
      </trkpt>
      <trkpt lat="42.71969" lon="1.46248">
        <ele>1548</ele>
        <time>2020-08-05T14:56:16Z</time>
      </trkpt>
      <trkpt lat="42.71971" lon="1.4625">
        <ele>1548.2</ele>
        <time>2020-08-05T14:56:19Z</time>
      </trkpt>
      <trkpt lat="42.71977" lon="1.46256">
        <ele>1549.2</ele>
        <time>2020-08-05T14:56:25Z</time>
      </trkpt>
      <trkpt lat="42.71979" lon="1.46258">
        <ele>1549.8</ele>
        <time>2020-08-05T14:56:27Z</time>
      </trkpt>
      <trkpt lat="42.71981" lon="1.46261">
        <ele>1550.4</ele>
        <time>2020-08-05T14:56:30Z</time>
      </trkpt>
      <trkpt lat="42.71983" lon="1.46263">
        <ele>1551.2</ele>
        <time>2020-08-05T14:56:34Z</time>
      </trkpt>
      <trkpt lat="42.71984" lon="1.46264">
        <ele>1551.6</ele>
        <time>2020-08-05T14:56:37Z</time>
      </trkpt>
      <trkpt lat="42.71987" lon="1.46264">
        <ele>1552</ele>
        <time>2020-08-05T14:56:41Z</time>
      </trkpt>
      <trkpt lat="42.71992" lon="1.46267">
        <ele>1552.6</ele>
        <time>2020-08-05T14:56:46Z</time>
      </trkpt>
      <trkpt lat="42.71994" lon="1.46268">
        <ele>1553</ele>
        <time>2020-08-05T14:56:49Z</time>
      </trkpt>
      <trkpt lat="42.71995" lon="1.4627">
        <ele>1553.8</ele>
        <time>2020-08-05T14:56:52Z</time>
      </trkpt>
      <trkpt lat="42.72" lon="1.46273">
        <ele>1554.2</ele>
        <time>2020-08-05T14:56:54Z</time>
      </trkpt>
      <trkpt lat="42.72002" lon="1.46274">
        <ele>1554.8</ele>
        <time>2020-08-05T14:56:59Z</time>
      </trkpt>
      <trkpt lat="42.72002" lon="1.46274">
        <ele>1555</ele>
        <time>2020-08-05T14:57:00Z</time>
      </trkpt>
      <trkpt lat="42.72009" lon="1.46279">
        <ele>1555.6</ele>
        <time>2020-08-05T14:57:06Z</time>
      </trkpt>
      <trkpt lat="42.72015" lon="1.46284">
        <ele>1556</ele>
        <time>2020-08-05T14:57:09Z</time>
      </trkpt>
      <trkpt lat="42.7202" lon="1.46286">
        <ele>1556.6</ele>
        <time>2020-08-05T14:57:13Z</time>
      </trkpt>
      <trkpt lat="42.72021" lon="1.46288">
        <ele>1557.2</ele>
        <time>2020-08-05T14:57:15Z</time>
      </trkpt>
      <trkpt lat="42.72024" lon="1.46291">
        <ele>1558</ele>
        <time>2020-08-05T14:57:20Z</time>
      </trkpt>
      <trkpt lat="42.72026" lon="1.46293">
        <ele>1558.4</ele>
        <time>2020-08-05T14:57:22Z</time>
      </trkpt>
      <trkpt lat="42.72029" lon="1.46298">
        <ele>1559.2</ele>
        <time>2020-08-05T14:57:26Z</time>
      </trkpt>
      <trkpt lat="42.7203" lon="1.46301">
        <ele>1559.6</ele>
        <time>2020-08-05T14:57:29Z</time>
      </trkpt>
      <trkpt lat="42.72034" lon="1.46306">
        <ele>1560</ele>
        <time>2020-08-05T14:57:33Z</time>
      </trkpt>
      <trkpt lat="42.72037" lon="1.46313">
        <ele>1560.6</ele>
        <time>2020-08-05T14:57:37Z</time>
      </trkpt>
      <trkpt lat="42.72039" lon="1.46315">
        <ele>1560.8</ele>
        <time>2020-08-05T14:57:38Z</time>
      </trkpt>
      <trkpt lat="42.72041" lon="1.46316">
        <ele>1561.4</ele>
        <time>2020-08-05T14:57:40Z</time>
      </trkpt>
      <trkpt lat="42.72044" lon="1.46317">
        <ele>1561.8</ele>
        <time>2020-08-05T14:57:42Z</time>
      </trkpt>
      <trkpt lat="42.72047" lon="1.46319">
        <ele>1562.6</ele>
        <time>2020-08-05T14:57:47Z</time>
      </trkpt>
      <trkpt lat="42.72048" lon="1.4632">
        <ele>1562.8</ele>
        <time>2020-08-05T14:57:49Z</time>
      </trkpt>
      <trkpt lat="42.72053" lon="1.46323">
        <ele>1563.6</ele>
        <time>2020-08-05T14:57:55Z</time>
      </trkpt>
      <trkpt lat="42.72054" lon="1.46323">
        <ele>1564</ele>
        <time>2020-08-05T14:57:56Z</time>
      </trkpt>
      <trkpt lat="42.72055" lon="1.46323">
        <ele>1565</ele>
        <time>2020-08-05T14:58:00Z</time>
      </trkpt>
      <trkpt lat="42.72057" lon="1.46324">
        <ele>1565.4</ele>
        <time>2020-08-05T14:58:02Z</time>
      </trkpt>
      <trkpt lat="42.72058" lon="1.46324">
        <ele>1565.8</ele>
        <time>2020-08-05T14:58:11Z</time>
      </trkpt>
      <trkpt lat="42.72058" lon="1.46324">
        <ele>1566</ele>
        <time>2020-08-05T14:58:28Z</time>
      </trkpt>
      <trkpt lat="42.72058" lon="1.46324">
        <ele>1566</ele>
        <time>2020-08-05T14:58:41Z</time>
      </trkpt>
      <trkpt lat="42.72058" lon="1.46324">
        <ele>1566.2</ele>
        <time>2020-08-05T14:58:44Z</time>
      </trkpt>
      <trkpt lat="42.72062" lon="1.46325">
        <ele>1567.2</ele>
        <time>2020-08-05T14:58:49Z</time>
      </trkpt>
      <trkpt lat="42.72064" lon="1.46325">
        <ele>1567.4</ele>
        <time>2020-08-05T14:58:50Z</time>
      </trkpt>
      <trkpt lat="42.72073" lon="1.46326">
        <ele>1568.2</ele>
        <time>2020-08-05T14:58:53Z</time>
      </trkpt>
      <trkpt lat="42.72077" lon="1.46327">
        <ele>1568.4</ele>
        <time>2020-08-05T14:58:55Z</time>
      </trkpt>
      <trkpt lat="42.72088" lon="1.46331">
        <ele>1569.6</ele>
        <time>2020-08-05T14:59:01Z</time>
      </trkpt>
      <trkpt lat="42.7209" lon="1.46331">
        <ele>1569.8</ele>
        <time>2020-08-05T14:59:02Z</time>
      </trkpt>
      <trkpt lat="42.72097" lon="1.46335">
        <ele>1570.6</ele>
        <time>2020-08-05T14:59:07Z</time>
      </trkpt>
      <trkpt lat="42.721" lon="1.46337">
        <ele>1571</ele>
        <time>2020-08-05T14:59:09Z</time>
      </trkpt>
      <trkpt lat="42.72102" lon="1.4634">
        <ele>1571.4</ele>
        <time>2020-08-05T14:59:11Z</time>
      </trkpt>
      <trkpt lat="42.72103" lon="1.46341">
        <ele>1572</ele>
        <time>2020-08-05T14:59:13Z</time>
      </trkpt>
      <trkpt lat="42.721" lon="1.46342">
        <ele>1573</ele>
        <time>2020-08-05T14:59:17Z</time>
      </trkpt>
      <trkpt lat="42.72098" lon="1.46342">
        <ele>1573.4</ele>
        <time>2020-08-05T14:59:19Z</time>
      </trkpt>
      <trkpt lat="42.72095" lon="1.46344">
        <ele>1574.2</ele>
        <time>2020-08-05T14:59:23Z</time>
      </trkpt>
      <trkpt lat="42.72094" lon="1.46346">
        <ele>1574.8</ele>
        <time>2020-08-05T14:59:28Z</time>
      </trkpt>
      <trkpt lat="42.72093" lon="1.46347">
        <ele>1575.4</ele>
        <time>2020-08-05T14:59:38Z</time>
      </trkpt>
      <trkpt lat="42.7209" lon="1.4635">
        <ele>1576</ele>
        <time>2020-08-05T14:59:44Z</time>
      </trkpt>
      <trkpt lat="42.7209" lon="1.4635">
        <ele>1576</ele>
        <time>2020-08-05T14:59:51Z</time>
      </trkpt>
      <trkpt lat="42.72089" lon="1.46351">
        <ele>1576.4</ele>
        <time>2020-08-05T14:59:57Z</time>
      </trkpt>
      <trkpt lat="42.72089" lon="1.46351">
        <ele>1576.8</ele>
        <time>2020-08-05T14:59:59Z</time>
      </trkpt>
      <trkpt lat="42.7209" lon="1.46354">
        <ele>1577.6</ele>
        <time>2020-08-05T15:00:04Z</time>
      </trkpt>
      <trkpt lat="42.72091" lon="1.46356">
        <ele>1577.8</ele>
        <time>2020-08-05T15:00:06Z</time>
      </trkpt>
      <trkpt lat="42.72093" lon="1.46358">
        <ele>1578.6</ele>
        <time>2020-08-05T15:00:13Z</time>
      </trkpt>
      <trkpt lat="42.72093" lon="1.46358">
        <ele>1578.6</ele>
        <time>2020-08-05T15:00:14Z</time>
      </trkpt>
      <trkpt lat="42.72095" lon="1.46361">
        <ele>1579.8</ele>
        <time>2020-08-05T15:00:21Z</time>
      </trkpt>
      <trkpt lat="42.72102" lon="1.46367">
        <ele>1580.8</ele>
        <time>2020-08-05T15:00:30Z</time>
      </trkpt>
      <trkpt lat="42.72103" lon="1.46368">
        <ele>1580.8</ele>
        <time>2020-08-05T15:00:31Z</time>
      </trkpt>
      <trkpt lat="42.72107" lon="1.46373">
        <ele>1581.8</ele>
        <time>2020-08-05T15:00:38Z</time>
      </trkpt>
      <trkpt lat="42.72107" lon="1.46373">
        <ele>1581.8</ele>
        <time>2020-08-05T15:00:39Z</time>
      </trkpt>
      <trkpt lat="42.72107" lon="1.46373">
        <ele>1582.2</ele>
        <time>2020-08-05T15:00:47Z</time>
      </trkpt>
      <trkpt lat="42.72109" lon="1.46376">
        <ele>1582.2</ele>
        <time>2020-08-05T15:00:58Z</time>
      </trkpt>
      <trkpt lat="42.72112" lon="1.4638">
        <ele>1583.2</ele>
        <time>2020-08-05T15:01:02Z</time>
      </trkpt>
      <trkpt lat="42.72114" lon="1.46381">
        <ele>1583.8</ele>
        <time>2020-08-05T15:01:05Z</time>
      </trkpt>
      <trkpt lat="42.72116" lon="1.46382">
        <ele>1584.4</ele>
        <time>2020-08-05T15:01:07Z</time>
      </trkpt>
      <trkpt lat="42.72121" lon="1.46386">
        <ele>1585.2</ele>
        <time>2020-08-05T15:01:12Z</time>
      </trkpt>
      <trkpt lat="42.72122" lon="1.46387">
        <ele>1585.6</ele>
        <time>2020-08-05T15:01:13Z</time>
      </trkpt>
      <trkpt lat="42.72124" lon="1.46389">
        <ele>1586.6</ele>
        <time>2020-08-05T15:01:16Z</time>
      </trkpt>
      <trkpt lat="42.72127" lon="1.46391">
        <ele>1587.2</ele>
        <time>2020-08-05T15:01:20Z</time>
      </trkpt>
      <trkpt lat="42.72129" lon="1.46392">
        <ele>1587.6</ele>
        <time>2020-08-05T15:01:24Z</time>
      </trkpt>
      <trkpt lat="42.72134" lon="1.46392">
        <ele>1588</ele>
        <time>2020-08-05T15:01:27Z</time>
      </trkpt>
      <trkpt lat="42.72141" lon="1.46394">
        <ele>1588.8</ele>
        <time>2020-08-05T15:01:33Z</time>
      </trkpt>
      <trkpt lat="42.72148" lon="1.46398">
        <ele>1589.8</ele>
        <time>2020-08-05T15:01:41Z</time>
      </trkpt>
      <trkpt lat="42.72157" lon="1.46403">
        <ele>1589.4</ele>
        <time>2020-08-05T15:01:45Z</time>
      </trkpt>
      <trkpt lat="42.72168" lon="1.46408">
        <ele>1590</ele>
        <time>2020-08-05T15:01:51Z</time>
      </trkpt>
      <trkpt lat="42.72176" lon="1.4641">
        <ele>1590.4</ele>
        <time>2020-08-05T15:01:57Z</time>
      </trkpt>
      <trkpt lat="42.7218" lon="1.46412">
        <ele>1591</ele>
        <time>2020-08-05T15:02:00Z</time>
      </trkpt>
      <trkpt lat="42.72181" lon="1.46414">
        <ele>1591.2</ele>
        <time>2020-08-05T15:02:03Z</time>
      </trkpt>
      <trkpt lat="42.72183" lon="1.46414">
        <ele>1591.6</ele>
        <time>2020-08-05T15:02:09Z</time>
      </trkpt>
      <trkpt lat="42.72183" lon="1.46414">
        <ele>1592</ele>
        <time>2020-08-05T15:02:15Z</time>
      </trkpt>
      <trkpt lat="42.72184" lon="1.46415">
        <ele>1592</ele>
        <time>2020-08-05T15:02:16Z</time>
      </trkpt>
      <trkpt lat="42.72186" lon="1.46416">
        <ele>1591.6</ele>
        <time>2020-08-05T15:02:21Z</time>
      </trkpt>
      <trkpt lat="42.72187" lon="1.46418">
        <ele>1592</ele>
        <time>2020-08-05T15:02:27Z</time>
      </trkpt>
      <trkpt lat="42.72188" lon="1.46419">
        <ele>1591.4</ele>
        <time>2020-08-05T15:02:32Z</time>
      </trkpt>
      <trkpt lat="42.72189" lon="1.4642">
        <ele>1591.4</ele>
        <time>2020-08-05T15:02:39Z</time>
      </trkpt>
      <trkpt lat="42.72191" lon="1.4642">
        <ele>1591.4</ele>
        <time>2020-08-05T15:02:45Z</time>
      </trkpt>
      <trkpt lat="42.72193" lon="1.46422">
        <ele>1590.8</ele>
        <time>2020-08-05T15:02:49Z</time>
      </trkpt>
      <trkpt lat="42.72193" lon="1.46422">
        <ele>1590.6</ele>
        <time>2020-08-05T15:02:52Z</time>
      </trkpt>
      <trkpt lat="42.72193" lon="1.46422">
        <ele>1590.6</ele>
        <time>2020-08-05T15:03:04Z</time>
      </trkpt>
      <trkpt lat="42.72194" lon="1.46422">
        <ele>1590.6</ele>
        <time>2020-08-05T15:03:14Z</time>
      </trkpt>
      <trkpt lat="42.72198" lon="1.46422">
        <ele>1590</ele>
        <time>2020-08-05T15:03:16Z</time>
      </trkpt>
      <trkpt lat="42.72201" lon="1.46421">
        <ele>1589.8</ele>
        <time>2020-08-05T15:03:17Z</time>
      </trkpt>
      <trkpt lat="42.72205" lon="1.46421">
        <ele>1589</ele>
        <time>2020-08-05T15:03:21Z</time>
      </trkpt>
      <trkpt lat="42.72206" lon="1.46421">
        <ele>1588.8</ele>
        <time>2020-08-05T15:03:24Z</time>
      </trkpt>
      <trkpt lat="42.72209" lon="1.46423">
        <ele>1589</ele>
        <time>2020-08-05T15:03:28Z</time>
      </trkpt>
      <trkpt lat="42.72216" lon="1.46421">
        <ele>1588</ele>
        <time>2020-08-05T15:03:34Z</time>
      </trkpt>
      <trkpt lat="42.72218" lon="1.46421">
        <ele>1587.6</ele>
        <time>2020-08-05T15:03:35Z</time>
      </trkpt>
      <trkpt lat="42.72227" lon="1.46419">
        <ele>1586.4</ele>
        <time>2020-08-05T15:03:38Z</time>
      </trkpt>
      <trkpt lat="42.72234" lon="1.46418">
        <ele>1585.2</ele>
        <time>2020-08-05T15:03:40Z</time>
      </trkpt>
      <trkpt lat="42.72242" lon="1.46418">
        <ele>1584.4</ele>
        <time>2020-08-05T15:03:42Z</time>
      </trkpt>
      <trkpt lat="42.72255" lon="1.46418">
        <ele>1583.6</ele>
        <time>2020-08-05T15:03:45Z</time>
      </trkpt>
      <trkpt lat="42.72264" lon="1.46418">
        <ele>1582.6</ele>
        <time>2020-08-05T15:03:47Z</time>
      </trkpt>
      <trkpt lat="42.72274" lon="1.46417">
        <ele>1581.4</ele>
        <time>2020-08-05T15:03:49Z</time>
      </trkpt>
      <trkpt lat="42.72284" lon="1.46417">
        <ele>1580.4</ele>
        <time>2020-08-05T15:03:51Z</time>
      </trkpt>
      <trkpt lat="42.72296" lon="1.46416">
        <ele>1579</ele>
        <time>2020-08-05T15:03:54Z</time>
      </trkpt>
      <trkpt lat="42.72304" lon="1.46415">
        <ele>1577.8</ele>
        <time>2020-08-05T15:03:56Z</time>
      </trkpt>
      <trkpt lat="42.72319" lon="1.46414">
        <ele>1576.8</ele>
        <time>2020-08-05T15:03:59Z</time>
      </trkpt>
      <trkpt lat="42.72328" lon="1.46415">
        <ele>1576</ele>
        <time>2020-08-05T15:04:01Z</time>
      </trkpt>
      <trkpt lat="42.72336" lon="1.46417">
        <ele>1575.2</ele>
        <time>2020-08-05T15:04:03Z</time>
      </trkpt>
      <trkpt lat="42.7234" lon="1.46419">
        <ele>1573.6</ele>
        <time>2020-08-05T15:04:04Z</time>
      </trkpt>
      <trkpt lat="42.72347" lon="1.4642">
        <ele>1572.6</ele>
        <time>2020-08-05T15:04:06Z</time>
      </trkpt>
      <trkpt lat="42.72352" lon="1.4642">
        <ele>1572.4</ele>
        <time>2020-08-05T15:04:07Z</time>
      </trkpt>
      <trkpt lat="42.72368" lon="1.4642">
        <ele>1571.2</ele>
        <time>2020-08-05T15:04:10Z</time>
      </trkpt>
      <trkpt lat="42.72377" lon="1.4642">
        <ele>1570.6</ele>
        <time>2020-08-05T15:04:12Z</time>
      </trkpt>
      <trkpt lat="42.7238" lon="1.46421">
        <ele>1569.8</ele>
        <time>2020-08-05T15:04:13Z</time>
      </trkpt>
      <trkpt lat="42.72394" lon="1.46425">
        <ele>1568.6</ele>
        <time>2020-08-05T15:04:17Z</time>
      </trkpt>
      <trkpt lat="42.72403" lon="1.4643">
        <ele>1567.2</ele>
        <time>2020-08-05T15:04:20Z</time>
      </trkpt>
      <trkpt lat="42.72408" lon="1.46432">
        <ele>1565.4</ele>
        <time>2020-08-05T15:04:22Z</time>
      </trkpt>
      <trkpt lat="42.7241" lon="1.46432">
        <ele>1564.2</ele>
        <time>2020-08-05T15:04:24Z</time>
      </trkpt>
      <trkpt lat="42.72412" lon="1.46432">
        <ele>1563.8</ele>
        <time>2020-08-05T15:04:27Z</time>
      </trkpt>
      <trkpt lat="42.72411" lon="1.46431">
        <ele>1563.6</ele>
        <time>2020-08-05T15:04:28Z</time>
      </trkpt>
      <trkpt lat="42.72411" lon="1.4643">
        <ele>1563.2</ele>
        <time>2020-08-05T15:04:30Z</time>
      </trkpt>
      <trkpt lat="42.7241" lon="1.46427">
        <ele>1562.8</ele>
        <time>2020-08-05T15:04:32Z</time>
      </trkpt>
      <trkpt lat="42.7241" lon="1.46424">
        <ele>1562.2</ele>
        <time>2020-08-05T15:04:35Z</time>
      </trkpt>
      <trkpt lat="42.7241" lon="1.46424">
        <ele>1562</ele>
        <time>2020-08-05T15:04:39Z</time>
      </trkpt>
      <trkpt lat="42.7241" lon="1.46424">
        <ele>1562.2</ele>
        <time>2020-08-05T15:04:48Z</time>
      </trkpt>
      <trkpt lat="42.72409" lon="1.46422">
        <ele>1561.8</ele>
        <time>2020-08-05T15:04:53Z</time>
      </trkpt>
      <trkpt lat="42.72408" lon="1.46419">
        <ele>1561</ele>
        <time>2020-08-05T15:04:55Z</time>
      </trkpt>
      <trkpt lat="42.72407" lon="1.46417">
        <ele>1560</ele>
        <time>2020-08-05T15:04:58Z</time>
      </trkpt>
      <trkpt lat="42.72407" lon="1.46417">
        <ele>1560</ele>
        <time>2020-08-05T15:05:01Z</time>
      </trkpt>
      <trkpt lat="42.72408" lon="1.46418">
        <ele>1559.6</ele>
        <time>2020-08-05T15:05:06Z</time>
      </trkpt>
      <trkpt lat="42.7241" lon="1.46417">
        <ele>1558.8</ele>
        <time>2020-08-05T15:05:09Z</time>
      </trkpt>
      <trkpt lat="42.72412" lon="1.4642">
        <ele>1558.2</ele>
        <time>2020-08-05T15:05:13Z</time>
      </trkpt>
      <trkpt lat="42.72413" lon="1.46421">
        <ele>1558</ele>
        <time>2020-08-05T15:05:14Z</time>
      </trkpt>
      <trkpt lat="42.72415" lon="1.46422">
        <ele>1557.6</ele>
        <time>2020-08-05T15:05:15Z</time>
      </trkpt>
      <trkpt lat="42.72417" lon="1.46427">
        <ele>1556.6</ele>
        <time>2020-08-05T15:05:17Z</time>
      </trkpt>
      <trkpt lat="42.72418" lon="1.46429">
        <ele>1556.4</ele>
        <time>2020-08-05T15:05:18Z</time>
      </trkpt>
      <trkpt lat="42.7242" lon="1.46431">
        <ele>1556.2</ele>
        <time>2020-08-05T15:05:23Z</time>
      </trkpt>
      <trkpt lat="42.72424" lon="1.4644">
        <ele>1555.6</ele>
        <time>2020-08-05T15:05:30Z</time>
      </trkpt>
      <trkpt lat="42.72428" lon="1.46447">
        <ele>1555</ele>
        <time>2020-08-05T15:05:34Z</time>
      </trkpt>
      <trkpt lat="42.72429" lon="1.46451">
        <ele>1555</ele>
        <time>2020-08-05T15:05:36Z</time>
      </trkpt>
      <trkpt lat="42.72432" lon="1.46456">
        <ele>1555.2</ele>
        <time>2020-08-05T15:05:39Z</time>
      </trkpt>
      <trkpt lat="42.72433" lon="1.46459">
        <ele>1554.8</ele>
        <time>2020-08-05T15:05:40Z</time>
      </trkpt>
      <trkpt lat="42.72435" lon="1.46463">
        <ele>1554.4</ele>
        <time>2020-08-05T15:05:42Z</time>
      </trkpt>
      <trkpt lat="42.72443" lon="1.46472">
        <ele>1553.4</ele>
        <time>2020-08-05T15:05:46Z</time>
      </trkpt>
      <trkpt lat="42.72444" lon="1.46474">
        <ele>1553</ele>
        <time>2020-08-05T15:05:47Z</time>
      </trkpt>
      <trkpt lat="42.7245" lon="1.46479">
        <ele>1552</ele>
        <time>2020-08-05T15:05:50Z</time>
      </trkpt>
      <trkpt lat="42.72451" lon="1.46481">
        <ele>1551.8</ele>
        <time>2020-08-05T15:05:51Z</time>
      </trkpt>
      <trkpt lat="42.72455" lon="1.46486">
        <ele>1551</ele>
        <time>2020-08-05T15:05:56Z</time>
      </trkpt>
      <trkpt lat="42.72455" lon="1.46486">
        <ele>1550.8</ele>
        <time>2020-08-05T15:06:00Z</time>
      </trkpt>
      <trkpt lat="42.72456" lon="1.46487">
        <ele>1551</ele>
        <time>2020-08-05T15:06:04Z</time>
      </trkpt>
      <trkpt lat="42.72463" lon="1.46493">
        <ele>1550.8</ele>
        <time>2020-08-05T15:06:09Z</time>
      </trkpt>
      <trkpt lat="42.72467" lon="1.46495">
        <ele>1550.2</ele>
        <time>2020-08-05T15:06:11Z</time>
      </trkpt>
      <trkpt lat="42.72469" lon="1.46494">
        <ele>1550</ele>
        <time>2020-08-05T15:06:12Z</time>
      </trkpt>
      <trkpt lat="42.72471" lon="1.46494">
        <ele>1549.8</ele>
        <time>2020-08-05T15:06:13Z</time>
      </trkpt>
      <trkpt lat="42.72476" lon="1.46494">
        <ele>1549.6</ele>
        <time>2020-08-05T15:06:15Z</time>
      </trkpt>
      <trkpt lat="42.72477" lon="1.46494">
        <ele>1549.6</ele>
        <time>2020-08-05T15:06:17Z</time>
      </trkpt>
      <trkpt lat="42.7248" lon="1.46496">
        <ele>1549.8</ele>
        <time>2020-08-05T15:06:18Z</time>
      </trkpt>
      <trkpt lat="42.72488" lon="1.46502">
        <ele>1550</ele>
        <time>2020-08-05T15:06:22Z</time>
      </trkpt>
      <trkpt lat="42.72496" lon="1.46503">
        <ele>1551.2</ele>
        <time>2020-08-05T15:06:28Z</time>
      </trkpt>
      <trkpt lat="42.72505" lon="1.46506">
        <ele>1552.2</ele>
        <time>2020-08-05T15:06:34Z</time>
      </trkpt>
      <trkpt lat="42.72514" lon="1.46509">
        <ele>1553.2</ele>
        <time>2020-08-05T15:06:40Z</time>
      </trkpt>
      <trkpt lat="42.72515" lon="1.4651">
        <ele>1553.4</ele>
        <time>2020-08-05T15:06:41Z</time>
      </trkpt>
      <trkpt lat="42.72516" lon="1.46512">
        <ele>1553.6</ele>
        <time>2020-08-05T15:06:42Z</time>
      </trkpt>
      <trkpt lat="42.7252" lon="1.46517">
        <ele>1554</ele>
        <time>2020-08-05T15:06:46Z</time>
      </trkpt>
      <trkpt lat="42.72525" lon="1.46522">
        <ele>1554.6</ele>
        <time>2020-08-05T15:06:50Z</time>
      </trkpt>
      <trkpt lat="42.72527" lon="1.46525">
        <ele>1554.6</ele>
        <time>2020-08-05T15:06:52Z</time>
      </trkpt>
      <trkpt lat="42.72533" lon="1.46532">
        <ele>1555.6</ele>
        <time>2020-08-05T15:06:59Z</time>
      </trkpt>
      <trkpt lat="42.72539" lon="1.46536">
        <ele>1556.6</ele>
        <time>2020-08-05T15:07:05Z</time>
      </trkpt>
      <trkpt lat="42.72539" lon="1.46536">
        <ele>1556.8</ele>
        <time>2020-08-05T15:07:06Z</time>
      </trkpt>
      <trkpt lat="42.72544" lon="1.4654">
        <ele>1557.4</ele>
        <time>2020-08-05T15:07:11Z</time>
      </trkpt>
      <trkpt lat="42.72548" lon="1.46545">
        <ele>1557.8</ele>
        <time>2020-08-05T15:07:15Z</time>
      </trkpt>
      <trkpt lat="42.72551" lon="1.46547">
        <ele>1558.2</ele>
        <time>2020-08-05T15:07:17Z</time>
      </trkpt>
      <trkpt lat="42.72557" lon="1.46555">
        <ele>1559</ele>
        <time>2020-08-05T15:07:23Z</time>
      </trkpt>
      <trkpt lat="42.72557" lon="1.46555">
        <ele>1559.2</ele>
        <time>2020-08-05T15:07:24Z</time>
      </trkpt>
      <trkpt lat="42.72563" lon="1.46561">
        <ele>1560</ele>
        <time>2020-08-05T15:07:30Z</time>
      </trkpt>
      <trkpt lat="42.72564" lon="1.46562">
        <ele>1560</ele>
        <time>2020-08-05T15:07:31Z</time>
      </trkpt>
      <trkpt lat="42.72565" lon="1.46564">
        <ele>1560.2</ele>
        <time>2020-08-05T15:07:32Z</time>
      </trkpt>
      <trkpt lat="42.72569" lon="1.46569">
        <ele>1561.2</ele>
        <time>2020-08-05T15:07:36Z</time>
      </trkpt>
      <trkpt lat="42.72575" lon="1.46579">
        <ele>1562.2</ele>
        <time>2020-08-05T15:07:42Z</time>
      </trkpt>
      <trkpt lat="42.72578" lon="1.46586">
        <ele>1562.2</ele>
        <time>2020-08-05T15:07:47Z</time>
      </trkpt>
      <trkpt lat="42.72581" lon="1.46591">
        <ele>1562.4</ele>
        <time>2020-08-05T15:07:50Z</time>
      </trkpt>
      <trkpt lat="42.72582" lon="1.46596">
        <ele>1562.4</ele>
        <time>2020-08-05T15:07:54Z</time>
      </trkpt>
      <trkpt lat="42.72583" lon="1.46598">
        <ele>1562.4</ele>
        <time>2020-08-05T15:07:55Z</time>
      </trkpt>
      <trkpt lat="42.72585" lon="1.46604">
        <ele>1563.2</ele>
        <time>2020-08-05T15:08:01Z</time>
      </trkpt>
      <trkpt lat="42.72586" lon="1.46607">
        <ele>1563.4</ele>
        <time>2020-08-05T15:08:03Z</time>
      </trkpt>
      <trkpt lat="42.72587" lon="1.46611">
        <ele>1563.8</ele>
        <time>2020-08-05T15:08:07Z</time>
      </trkpt>
      <trkpt lat="42.72589" lon="1.46615">
        <ele>1564.4</ele>
        <time>2020-08-05T15:08:13Z</time>
      </trkpt>
      <trkpt lat="42.7259" lon="1.46619">
        <ele>1565</ele>
        <time>2020-08-05T15:08:19Z</time>
      </trkpt>
      <trkpt lat="42.72591" lon="1.46622">
        <ele>1565.2</ele>
        <time>2020-08-05T15:08:28Z</time>
      </trkpt>
      <trkpt lat="42.72592" lon="1.46625">
        <ele>1565.6</ele>
        <time>2020-08-05T15:08:31Z</time>
      </trkpt>
      <trkpt lat="42.72596" lon="1.46631">
        <ele>1565.8</ele>
        <time>2020-08-05T15:08:35Z</time>
      </trkpt>
      <trkpt lat="42.72603" lon="1.46639">
        <ele>1566.6</ele>
        <time>2020-08-05T15:08:40Z</time>
      </trkpt>
      <trkpt lat="42.72607" lon="1.46642">
        <ele>1567.2</ele>
        <time>2020-08-05T15:08:43Z</time>
      </trkpt>
      <trkpt lat="42.72616" lon="1.46651">
        <ele>1567.4</ele>
        <time>2020-08-05T15:08:50Z</time>
      </trkpt>
      <trkpt lat="42.72621" lon="1.46657">
        <ele>1567.8</ele>
        <time>2020-08-05T15:08:54Z</time>
      </trkpt>
      <trkpt lat="42.72622" lon="1.46659">
        <ele>1568</ele>
        <time>2020-08-05T15:08:56Z</time>
      </trkpt>
      <trkpt lat="42.72627" lon="1.46665">
        <ele>1567.8</ele>
        <time>2020-08-05T15:09:01Z</time>
      </trkpt>
      <trkpt lat="42.72637" lon="1.46682">
        <ele>1568</ele>
        <time>2020-08-05T15:09:08Z</time>
      </trkpt>
      <trkpt lat="42.72639" lon="1.46685">
        <ele>1568</ele>
        <time>2020-08-05T15:09:12Z</time>
      </trkpt>
      <trkpt lat="42.72642" lon="1.46686">
        <ele>1568.2</ele>
        <time>2020-08-05T15:09:17Z</time>
      </trkpt>
      <trkpt lat="42.72642" lon="1.46687">
        <ele>1568.2</ele>
        <time>2020-08-05T15:09:18Z</time>
      </trkpt>
      <trkpt lat="42.72645" lon="1.4669">
        <ele>1568</ele>
        <time>2020-08-05T15:09:21Z</time>
      </trkpt>
      <trkpt lat="42.72645" lon="1.46691">
        <ele>1568</ele>
        <time>2020-08-05T15:09:22Z</time>
      </trkpt>
      <trkpt lat="42.72646" lon="1.46692">
        <ele>1568</ele>
        <time>2020-08-05T15:09:23Z</time>
      </trkpt>
      <trkpt lat="42.72647" lon="1.46693">
        <ele>1568.4</ele>
        <time>2020-08-05T15:09:27Z</time>
      </trkpt>
      <trkpt lat="42.72652" lon="1.46698">
        <ele>1568.6</ele>
        <time>2020-08-05T15:09:34Z</time>
      </trkpt>
      <trkpt lat="42.72652" lon="1.46698">
        <ele>1568.8</ele>
        <time>2020-08-05T15:09:35Z</time>
      </trkpt>
      <trkpt lat="42.72654" lon="1.46699">
        <ele>1569</ele>
        <time>2020-08-05T15:09:40Z</time>
      </trkpt>
      <trkpt lat="42.72658" lon="1.46702">
        <ele>1569.6</ele>
        <time>2020-08-05T15:09:45Z</time>
      </trkpt>
      <trkpt lat="42.72659" lon="1.46703">
        <ele>1569.8</ele>
        <time>2020-08-05T15:09:46Z</time>
      </trkpt>
      <trkpt lat="42.72664" lon="1.46709">
        <ele>1571</ele>
        <time>2020-08-05T15:09:52Z</time>
      </trkpt>
      <trkpt lat="42.72669" lon="1.46715">
        <ele>1571.6</ele>
        <time>2020-08-05T15:09:59Z</time>
      </trkpt>
      <trkpt lat="42.7267" lon="1.46716">
        <ele>1571.6</ele>
        <time>2020-08-05T15:10:06Z</time>
      </trkpt>
      <trkpt lat="42.72671" lon="1.46716">
        <ele>1572</ele>
        <time>2020-08-05T15:10:07Z</time>
      </trkpt>
      <trkpt lat="42.72675" lon="1.4672">
        <ele>1572.8</ele>
        <time>2020-08-05T15:10:12Z</time>
      </trkpt>
      <trkpt lat="42.72676" lon="1.46722">
        <ele>1573.2</ele>
        <time>2020-08-05T15:10:17Z</time>
      </trkpt>
      <trkpt lat="42.72677" lon="1.46722">
        <ele>1573.2</ele>
        <time>2020-08-05T15:10:20Z</time>
      </trkpt>
      <trkpt lat="42.72678" lon="1.46723">
        <ele>1573.4</ele>
        <time>2020-08-05T15:10:27Z</time>
      </trkpt>
      <trkpt lat="42.72684" lon="1.46731">
        <ele>1573.2</ele>
        <time>2020-08-05T15:10:32Z</time>
      </trkpt>
      <trkpt lat="42.72692" lon="1.46734">
        <ele>1573.8</ele>
        <time>2020-08-05T15:10:37Z</time>
      </trkpt>
      <trkpt lat="42.72698" lon="1.46738">
        <ele>1574.2</ele>
        <time>2020-08-05T15:10:41Z</time>
      </trkpt>
      <trkpt lat="42.72702" lon="1.46742">
        <ele>1574.4</ele>
        <time>2020-08-05T15:10:44Z</time>
      </trkpt>
      <trkpt lat="42.72715" lon="1.46752">
        <ele>1574.4</ele>
        <time>2020-08-05T15:10:50Z</time>
      </trkpt>
      <trkpt lat="42.72724" lon="1.46761">
        <ele>1575.2</ele>
        <time>2020-08-05T15:10:56Z</time>
      </trkpt>
      <trkpt lat="42.72725" lon="1.46762">
        <ele>1575.2</ele>
        <time>2020-08-05T15:10:57Z</time>
      </trkpt>
      <trkpt lat="42.72732" lon="1.4677">
        <ele>1575.6</ele>
        <time>2020-08-05T15:11:02Z</time>
      </trkpt>
      <trkpt lat="42.72738" lon="1.46777">
        <ele>1576.4</ele>
        <time>2020-08-05T15:11:07Z</time>
      </trkpt>
      <trkpt lat="42.7274" lon="1.46779">
        <ele>1576.4</ele>
        <time>2020-08-05T15:11:08Z</time>
      </trkpt>
      <trkpt lat="42.72744" lon="1.46785">
        <ele>1577.4</ele>
        <time>2020-08-05T15:11:12Z</time>
      </trkpt>
      <trkpt lat="42.72747" lon="1.46788">
        <ele>1577.4</ele>
        <time>2020-08-05T15:11:15Z</time>
      </trkpt>
      <trkpt lat="42.72752" lon="1.46789">
        <ele>1577</ele>
        <time>2020-08-05T15:11:20Z</time>
      </trkpt>
      <trkpt lat="42.72758" lon="1.46789">
        <ele>1577</ele>
        <time>2020-08-05T15:11:25Z</time>
      </trkpt>
      <trkpt lat="42.72764" lon="1.46784">
        <ele>1577.6</ele>
        <time>2020-08-05T15:11:31Z</time>
      </trkpt>
      <trkpt lat="42.72772" lon="1.46781">
        <ele>1577.8</ele>
        <time>2020-08-05T15:11:38Z</time>
      </trkpt>
      <trkpt lat="42.72774" lon="1.4678">
        <ele>1577.8</ele>
        <time>2020-08-05T15:11:39Z</time>
      </trkpt>
      <trkpt lat="42.72778" lon="1.46774">
        <ele>1578.6</ele>
        <time>2020-08-05T15:11:43Z</time>
      </trkpt>
      <trkpt lat="42.72779" lon="1.46772">
        <ele>1578.8</ele>
        <time>2020-08-05T15:11:44Z</time>
      </trkpt>
      <trkpt lat="42.72782" lon="1.46768">
        <ele>1579.6</ele>
        <time>2020-08-05T15:11:48Z</time>
      </trkpt>
      <trkpt lat="42.72784" lon="1.46763">
        <ele>1580</ele>
        <time>2020-08-05T15:11:51Z</time>
      </trkpt>
      <trkpt lat="42.72787" lon="1.46761">
        <ele>1580</ele>
        <time>2020-08-05T15:11:53Z</time>
      </trkpt>
      <trkpt lat="42.7279" lon="1.46761">
        <ele>1580</ele>
        <time>2020-08-05T15:11:55Z</time>
      </trkpt>
      <trkpt lat="42.728" lon="1.46765">
        <ele>1580</ele>
        <time>2020-08-05T15:12:00Z</time>
      </trkpt>
      <trkpt lat="42.72806" lon="1.46767">
        <ele>1580.6</ele>
        <time>2020-08-05T15:12:04Z</time>
      </trkpt>
      <trkpt lat="42.72809" lon="1.46766">
        <ele>1580.8</ele>
        <time>2020-08-05T15:12:06Z</time>
      </trkpt>
      <trkpt lat="42.7281" lon="1.46766">
        <ele>1581</ele>
        <time>2020-08-05T15:12:07Z</time>
      </trkpt>
      <trkpt lat="42.72815" lon="1.46764">
        <ele>1582</ele>
        <time>2020-08-05T15:12:11Z</time>
      </trkpt>
      <trkpt lat="42.72816" lon="1.46764">
        <ele>1582</ele>
        <time>2020-08-05T15:12:12Z</time>
      </trkpt>
      <trkpt lat="42.72825" lon="1.46766">
        <ele>1583</ele>
        <time>2020-08-05T15:12:19Z</time>
      </trkpt>
      <trkpt lat="42.72833" lon="1.46768">
        <ele>1584.2</ele>
        <time>2020-08-05T15:12:26Z</time>
      </trkpt>
      <trkpt lat="42.72839" lon="1.46771">
        <ele>1585.2</ele>
        <time>2020-08-05T15:12:32Z</time>
      </trkpt>
      <trkpt lat="42.72844" lon="1.46773">
        <ele>1585.6</ele>
        <time>2020-08-05T15:12:34Z</time>
      </trkpt>
      <trkpt lat="42.72852" lon="1.46776">
        <ele>1586.4</ele>
        <time>2020-08-05T15:12:41Z</time>
      </trkpt>
      <trkpt lat="42.72861" lon="1.46776">
        <ele>1587.2</ele>
        <time>2020-08-05T15:12:48Z</time>
      </trkpt>
      <trkpt lat="42.72865" lon="1.46778">
        <ele>1587.4</ele>
        <time>2020-08-05T15:12:51Z</time>
      </trkpt>
      <trkpt lat="42.72868" lon="1.46779">
        <ele>1587.6</ele>
        <time>2020-08-05T15:12:53Z</time>
      </trkpt>
      <trkpt lat="42.72877" lon="1.46782">
        <ele>1588.4</ele>
        <time>2020-08-05T15:13:00Z</time>
      </trkpt>
      <trkpt lat="42.7288" lon="1.46783">
        <ele>1588.4</ele>
        <time>2020-08-05T15:13:02Z</time>
      </trkpt>
      <trkpt lat="42.72887" lon="1.46787">
        <ele>1589</ele>
        <time>2020-08-05T15:13:07Z</time>
      </trkpt>
      <trkpt lat="42.72894" lon="1.46789">
        <ele>1589.4</ele>
        <time>2020-08-05T15:13:11Z</time>
      </trkpt>
      <trkpt lat="42.72896" lon="1.4679">
        <ele>1589.4</ele>
        <time>2020-08-05T15:13:13Z</time>
      </trkpt>
      <trkpt lat="42.72902" lon="1.46792">
        <ele>1589.6</ele>
        <time>2020-08-05T15:13:17Z</time>
      </trkpt>
      <trkpt lat="42.72915" lon="1.46796">
        <ele>1590.4</ele>
        <time>2020-08-05T15:13:25Z</time>
      </trkpt>
      <trkpt lat="42.72921" lon="1.46798">
        <ele>1590.6</ele>
        <time>2020-08-05T15:13:29Z</time>
      </trkpt>
      <trkpt lat="42.72925" lon="1.468">
        <ele>1590.8</ele>
        <time>2020-08-05T15:13:33Z</time>
      </trkpt>
      <trkpt lat="42.72933" lon="1.46805">
        <ele>1591.2</ele>
        <time>2020-08-05T15:13:38Z</time>
      </trkpt>
      <trkpt lat="42.72938" lon="1.46808">
        <ele>1591.8</ele>
        <time>2020-08-05T15:13:42Z</time>
      </trkpt>
      <trkpt lat="42.7294" lon="1.46809">
        <ele>1591.8</ele>
        <time>2020-08-05T15:13:43Z</time>
      </trkpt>
      <trkpt lat="42.72941" lon="1.4681">
        <ele>1592</ele>
        <time>2020-08-05T15:13:44Z</time>
      </trkpt>
      <trkpt lat="42.72949" lon="1.46815">
        <ele>1592.8</ele>
        <time>2020-08-05T15:13:49Z</time>
      </trkpt>
      <trkpt lat="42.72956" lon="1.46818">
        <ele>1593.6</ele>
        <time>2020-08-05T15:13:54Z</time>
      </trkpt>
      <trkpt lat="42.72958" lon="1.4682">
        <ele>1593.8</ele>
        <time>2020-08-05T15:13:56Z</time>
      </trkpt>
      <trkpt lat="42.72962" lon="1.46823">
        <ele>1594.6</ele>
        <time>2020-08-05T15:14:01Z</time>
      </trkpt>
      <trkpt lat="42.72965" lon="1.46825">
        <ele>1595</ele>
        <time>2020-08-05T15:14:04Z</time>
      </trkpt>
      <trkpt lat="42.72971" lon="1.46829">
        <ele>1595.2</ele>
        <time>2020-08-05T15:14:08Z</time>
      </trkpt>
      <trkpt lat="42.72982" lon="1.46836">
        <ele>1595.6</ele>
        <time>2020-08-05T15:14:16Z</time>
      </trkpt>
      <trkpt lat="42.72994" lon="1.46836">
        <ele>1595.8</ele>
        <time>2020-08-05T15:14:22Z</time>
      </trkpt>
      <trkpt lat="42.72996" lon="1.46836">
        <ele>1595.4</ele>
        <time>2020-08-05T15:14:23Z</time>
      </trkpt>
      <trkpt lat="42.73004" lon="1.4683">
        <ele>1594.8</ele>
        <time>2020-08-05T15:14:26Z</time>
      </trkpt>
      <trkpt lat="42.73019" lon="1.46828">
        <ele>1594.4</ele>
        <time>2020-08-05T15:14:31Z</time>
      </trkpt>
      <trkpt lat="42.73032" lon="1.46823">
        <ele>1594.4</ele>
        <time>2020-08-05T15:14:35Z</time>
      </trkpt>
      <trkpt lat="42.73043" lon="1.46821">
        <ele>1594.4</ele>
        <time>2020-08-05T15:14:39Z</time>
      </trkpt>
      <trkpt lat="42.73049" lon="1.46819">
        <ele>1594.4</ele>
        <time>2020-08-05T15:14:41Z</time>
      </trkpt>
      <trkpt lat="42.73066" lon="1.46815">
        <ele>1594.2</ele>
        <time>2020-08-05T15:14:47Z</time>
      </trkpt>
      <trkpt lat="42.73073" lon="1.46816">
        <ele>1593.8</ele>
        <time>2020-08-05T15:14:49Z</time>
      </trkpt>
      <trkpt lat="42.73081" lon="1.46818">
        <ele>1592.8</ele>
        <time>2020-08-05T15:14:51Z</time>
      </trkpt>
      <trkpt lat="42.73085" lon="1.46819">
        <ele>1592.2</ele>
        <time>2020-08-05T15:14:52Z</time>
      </trkpt>
      <trkpt lat="42.73089" lon="1.46821">
        <ele>1591.2</ele>
        <time>2020-08-05T15:14:53Z</time>
      </trkpt>
      <trkpt lat="42.73096" lon="1.46825">
        <ele>1590.2</ele>
        <time>2020-08-05T15:14:55Z</time>
      </trkpt>
      <trkpt lat="42.73103" lon="1.46829">
        <ele>1589.2</ele>
        <time>2020-08-05T15:14:57Z</time>
      </trkpt>
      <trkpt lat="42.73114" lon="1.46838">
        <ele>1587.8</ele>
        <time>2020-08-05T15:15:00Z</time>
      </trkpt>
      <trkpt lat="42.73123" lon="1.46844">
        <ele>1587</ele>
        <time>2020-08-05T15:15:02Z</time>
      </trkpt>
      <trkpt lat="42.73128" lon="1.46847">
        <ele>1586.8</ele>
        <time>2020-08-05T15:15:03Z</time>
      </trkpt>
      <trkpt lat="42.73143" lon="1.46853">
        <ele>1585.6</ele>
        <time>2020-08-05T15:15:06Z</time>
      </trkpt>
      <trkpt lat="42.73148" lon="1.46855">
        <ele>1585.4</ele>
        <time>2020-08-05T15:15:07Z</time>
      </trkpt>
      <trkpt lat="42.73161" lon="1.46859">
        <ele>1584.4</ele>
        <time>2020-08-05T15:15:10Z</time>
      </trkpt>
      <trkpt lat="42.73168" lon="1.46862">
        <ele>1584.4</ele>
        <time>2020-08-05T15:15:12Z</time>
      </trkpt>
      <trkpt lat="42.73171" lon="1.46864">
        <ele>1584.4</ele>
        <time>2020-08-05T15:15:15Z</time>
      </trkpt>
      <trkpt lat="42.73177" lon="1.46866">
        <ele>1584.2</ele>
        <time>2020-08-05T15:15:22Z</time>
      </trkpt>
      <trkpt lat="42.73192" lon="1.46871">
        <ele>1583.8</ele>
        <time>2020-08-05T15:15:28Z</time>
      </trkpt>
      <trkpt lat="42.73199" lon="1.46872">
        <ele>1584</ele>
        <time>2020-08-05T15:15:30Z</time>
      </trkpt>
      <trkpt lat="42.73207" lon="1.46871">
        <ele>1584.6</ele>
        <time>2020-08-05T15:15:33Z</time>
      </trkpt>
      <trkpt lat="42.73223" lon="1.46869">
        <ele>1584.8</ele>
        <time>2020-08-05T15:15:39Z</time>
      </trkpt>
      <trkpt lat="42.73238" lon="1.46864">
        <ele>1584</ele>
        <time>2020-08-05T15:15:44Z</time>
      </trkpt>
      <trkpt lat="42.73243" lon="1.46862">
        <ele>1583.4</ele>
        <time>2020-08-05T15:15:46Z</time>
      </trkpt>
      <trkpt lat="42.73246" lon="1.46861">
        <ele>1582.8</ele>
        <time>2020-08-05T15:15:49Z</time>
      </trkpt>
      <trkpt lat="42.73249" lon="1.46861">
        <ele>1583</ele>
        <time>2020-08-05T15:15:56Z</time>
      </trkpt>
      <trkpt lat="42.73249" lon="1.46861">
        <ele>1582.6</ele>
        <time>2020-08-05T15:16:04Z</time>
      </trkpt>
      <trkpt lat="42.73249" lon="1.46861">
        <ele>1582.6</ele>
        <time>2020-08-05T15:16:17Z</time>
      </trkpt>
      <trkpt lat="42.73249" lon="1.46861">
        <ele>1582.6</ele>
        <time>2020-08-05T15:16:20Z</time>
      </trkpt>
      <trkpt lat="42.73253" lon="1.46859">
        <ele>1582</ele>
        <time>2020-08-05T15:16:29Z</time>
      </trkpt>
      <trkpt lat="42.73255" lon="1.46858">
        <ele>1581.2</ele>
        <time>2020-08-05T15:16:38Z</time>
      </trkpt>
      <trkpt lat="42.73255" lon="1.46858">
        <ele>1582</ele>
        <time>2020-08-05T15:16:58Z</time>
      </trkpt>
      <trkpt lat="42.73257" lon="1.46858">
        <ele>1581.6</ele>
        <time>2020-08-05T15:17:01Z</time>
      </trkpt>
      <trkpt lat="42.73265" lon="1.46857">
        <ele>1580.8</ele>
        <time>2020-08-05T15:17:04Z</time>
      </trkpt>
      <trkpt lat="42.73272" lon="1.46855">
        <ele>1579.6</ele>
        <time>2020-08-05T15:17:06Z</time>
      </trkpt>
      <trkpt lat="42.73278" lon="1.46855">
        <ele>1578</ele>
        <time>2020-08-05T15:17:08Z</time>
      </trkpt>
      <trkpt lat="42.7328" lon="1.46856">
        <ele>1577</ele>
        <time>2020-08-05T15:17:09Z</time>
      </trkpt>
      <trkpt lat="42.73284" lon="1.46858">
        <ele>1575.2</ele>
        <time>2020-08-05T15:17:11Z</time>
      </trkpt>
      <trkpt lat="42.73288" lon="1.46857">
        <ele>1573.6</ele>
        <time>2020-08-05T15:17:13Z</time>
      </trkpt>
      <trkpt lat="42.73292" lon="1.46858">
        <ele>1572</ele>
        <time>2020-08-05T15:17:15Z</time>
      </trkpt>
      <trkpt lat="42.73293" lon="1.46858">
        <ele>1570.8</ele>
        <time>2020-08-05T15:17:17Z</time>
      </trkpt>
      <trkpt lat="42.73293" lon="1.46858">
        <ele>1570.8</ele>
        <time>2020-08-05T15:17:18Z</time>
      </trkpt>
      <trkpt lat="42.73293" lon="1.46858">
        <ele>1571</ele>
        <time>2020-08-05T15:17:25Z</time>
      </trkpt>
      <trkpt lat="42.73293" lon="1.46858">
        <ele>1570</ele>
        <time>2020-08-05T15:17:32Z</time>
      </trkpt>
      <trkpt lat="42.73293" lon="1.46858">
        <ele>1569.8</ele>
        <time>2020-08-05T15:17:33Z</time>
      </trkpt>
      <trkpt lat="42.73302" lon="1.4686">
        <ele>1568.2</ele>
        <time>2020-08-05T15:17:36Z</time>
      </trkpt>
      <trkpt lat="42.73304" lon="1.4686">
        <ele>1567</ele>
        <time>2020-08-05T15:17:38Z</time>
      </trkpt>
      <trkpt lat="42.73306" lon="1.46861">
        <ele>1566.6</ele>
        <time>2020-08-05T15:17:41Z</time>
      </trkpt>
      <trkpt lat="42.73312" lon="1.46862">
        <ele>1566.2</ele>
        <time>2020-08-05T15:17:46Z</time>
      </trkpt>
      <trkpt lat="42.73314" lon="1.46863">
        <ele>1566</ele>
        <time>2020-08-05T15:17:47Z</time>
      </trkpt>
      <trkpt lat="42.73317" lon="1.46865">
        <ele>1565.6</ele>
        <time>2020-08-05T15:17:48Z</time>
      </trkpt>
      <trkpt lat="42.73323" lon="1.46868">
        <ele>1564.8</ele>
        <time>2020-08-05T15:17:50Z</time>
      </trkpt>
      <trkpt lat="42.73326" lon="1.46867">
        <ele>1564.2</ele>
        <time>2020-08-05T15:17:51Z</time>
      </trkpt>
      <trkpt lat="42.73329" lon="1.46867">
        <ele>1563.4</ele>
        <time>2020-08-05T15:17:52Z</time>
      </trkpt>
      <trkpt lat="42.73334" lon="1.46867">
        <ele>1562</ele>
        <time>2020-08-05T15:17:54Z</time>
      </trkpt>
      <trkpt lat="42.73339" lon="1.4687">
        <ele>1560.4</ele>
        <time>2020-08-05T15:17:56Z</time>
      </trkpt>
      <trkpt lat="42.73341" lon="1.46872">
        <ele>1559.2</ele>
        <time>2020-08-05T15:17:57Z</time>
      </trkpt>
      <trkpt lat="42.73343" lon="1.46872">
        <ele>1558</ele>
        <time>2020-08-05T15:17:58Z</time>
      </trkpt>
      <trkpt lat="42.73345" lon="1.4687">
        <ele>1556.8</ele>
        <time>2020-08-05T15:17:59Z</time>
      </trkpt>
      <trkpt lat="42.73348" lon="1.4687">
        <ele>1555.6</ele>
        <time>2020-08-05T15:18:00Z</time>
      </trkpt>
      <trkpt lat="42.73351" lon="1.4687">
        <ele>1554.6</ele>
        <time>2020-08-05T15:18:01Z</time>
      </trkpt>
      <trkpt lat="42.73354" lon="1.46874">
        <ele>1553.2</ele>
        <time>2020-08-05T15:18:03Z</time>
      </trkpt>
      <trkpt lat="42.73356" lon="1.4688">
        <ele>1551.8</ele>
        <time>2020-08-05T15:18:05Z</time>
      </trkpt>
      <trkpt lat="42.73355" lon="1.46887">
        <ele>1550.8</ele>
        <time>2020-08-05T15:18:07Z</time>
      </trkpt>
      <trkpt lat="42.73352" lon="1.46892">
        <ele>1549.6</ele>
        <time>2020-08-05T15:18:09Z</time>
      </trkpt>
      <trkpt lat="42.73348" lon="1.46899">
        <ele>1547.4</ele>
        <time>2020-08-05T15:18:11Z</time>
      </trkpt>
      <trkpt lat="42.73346" lon="1.46903">
        <ele>1546.2</ele>
        <time>2020-08-05T15:18:12Z</time>
      </trkpt>
      <trkpt lat="42.73343" lon="1.46911">
        <ele>1544.8</ele>
        <time>2020-08-05T15:18:14Z</time>
      </trkpt>
      <trkpt lat="42.73341" lon="1.46916">
        <ele>1543.6</ele>
        <time>2020-08-05T15:18:15Z</time>
      </trkpt>
      <trkpt lat="42.7334" lon="1.46919">
        <ele>1542.2</ele>
        <time>2020-08-05T15:18:16Z</time>
      </trkpt>
      <trkpt lat="42.73339" lon="1.46921">
        <ele>1541</ele>
        <time>2020-08-05T15:18:17Z</time>
      </trkpt>
      <trkpt lat="42.73337" lon="1.46923">
        <ele>1539.4</ele>
        <time>2020-08-05T15:18:19Z</time>
      </trkpt>
      <trkpt lat="42.73336" lon="1.46924">
        <ele>1539</ele>
        <time>2020-08-05T15:18:20Z</time>
      </trkpt>
      <trkpt lat="42.73333" lon="1.46928">
        <ele>1537.8</ele>
        <time>2020-08-05T15:18:22Z</time>
      </trkpt>
      <trkpt lat="42.73329" lon="1.46933">
        <ele>1536</ele>
        <time>2020-08-05T15:18:24Z</time>
      </trkpt>
      <trkpt lat="42.73326" lon="1.46936">
        <ele>1535</ele>
        <time>2020-08-05T15:18:25Z</time>
      </trkpt>
      <trkpt lat="42.73324" lon="1.46939">
        <ele>1533.8</ele>
        <time>2020-08-05T15:18:26Z</time>
      </trkpt>
      <trkpt lat="42.73321" lon="1.46941">
        <ele>1532.8</ele>
        <time>2020-08-05T15:18:27Z</time>
      </trkpt>
      <trkpt lat="42.73318" lon="1.46945">
        <ele>1531.6</ele>
        <time>2020-08-05T15:18:28Z</time>
      </trkpt>
      <trkpt lat="42.73315" lon="1.46949">
        <ele>1529.2</ele>
        <time>2020-08-05T15:18:29Z</time>
      </trkpt>
      <trkpt lat="42.73313" lon="1.46954">
        <ele>1528</ele>
        <time>2020-08-05T15:18:30Z</time>
      </trkpt>
      <trkpt lat="42.73311" lon="1.46957">
        <ele>1527</ele>
        <time>2020-08-05T15:18:31Z</time>
      </trkpt>
      <trkpt lat="42.7331" lon="1.46962">
        <ele>1525.4</ele>
        <time>2020-08-05T15:18:33Z</time>
      </trkpt>
      <trkpt lat="42.73311" lon="1.46965">
        <ele>1524.4</ele>
        <time>2020-08-05T15:18:37Z</time>
      </trkpt>
      <trkpt lat="42.73312" lon="1.46965">
        <ele>1523.8</ele>
        <time>2020-08-05T15:18:38Z</time>
      </trkpt>
      <trkpt lat="42.73313" lon="1.46966">
        <ele>1522.8</ele>
        <time>2020-08-05T15:18:39Z</time>
      </trkpt>
      <trkpt lat="42.73315" lon="1.46967">
        <ele>1521.6</ele>
        <time>2020-08-05T15:18:40Z</time>
      </trkpt>
      <trkpt lat="42.73317" lon="1.46967">
        <ele>1520</ele>
        <time>2020-08-05T15:18:42Z</time>
      </trkpt>
      <trkpt lat="42.73319" lon="1.46968">
        <ele>1519.6</ele>
        <time>2020-08-05T15:18:43Z</time>
      </trkpt>
      <trkpt lat="42.7332" lon="1.46969">
        <ele>1519</ele>
        <time>2020-08-05T15:18:45Z</time>
      </trkpt>
      <trkpt lat="42.73319" lon="1.46972">
        <ele>1518.6</ele>
        <time>2020-08-05T15:18:46Z</time>
      </trkpt>
      <trkpt lat="42.73318" lon="1.46974">
        <ele>1518</ele>
        <time>2020-08-05T15:18:47Z</time>
      </trkpt>
      <trkpt lat="42.73316" lon="1.46976">
        <ele>1517.2</ele>
        <time>2020-08-05T15:18:48Z</time>
      </trkpt>
      <trkpt lat="42.73313" lon="1.46979">
        <ele>1516.2</ele>
        <time>2020-08-05T15:18:49Z</time>
      </trkpt>
      <trkpt lat="42.73311" lon="1.46983">
        <ele>1515.2</ele>
        <time>2020-08-05T15:18:50Z</time>
      </trkpt>
      <trkpt lat="42.73309" lon="1.46988">
        <ele>1514</ele>
        <time>2020-08-05T15:18:51Z</time>
      </trkpt>
      <trkpt lat="42.73306" lon="1.46993">
        <ele>1512.8</ele>
        <time>2020-08-05T15:18:52Z</time>
      </trkpt>
      <trkpt lat="42.73305" lon="1.46998">
        <ele>1510</ele>
        <time>2020-08-05T15:18:53Z</time>
      </trkpt>
      <trkpt lat="42.73302" lon="1.47004">
        <ele>1508.4</ele>
        <time>2020-08-05T15:18:54Z</time>
      </trkpt>
      <trkpt lat="42.73301" lon="1.47011">
        <ele>1506.8</ele>
        <time>2020-08-05T15:18:55Z</time>
      </trkpt>
      <trkpt lat="42.73299" lon="1.47018">
        <ele>1505.4</ele>
        <time>2020-08-05T15:18:56Z</time>
      </trkpt>
      <trkpt lat="42.73298" lon="1.47026">
        <ele>1503.8</ele>
        <time>2020-08-05T15:18:57Z</time>
      </trkpt>
      <trkpt lat="42.73297" lon="1.47033">
        <ele>1502.2</ele>
        <time>2020-08-05T15:18:58Z</time>
      </trkpt>
      <trkpt lat="42.73297" lon="1.47039">
        <ele>1500.6</ele>
        <time>2020-08-05T15:18:59Z</time>
      </trkpt>
      <trkpt lat="42.73296" lon="1.47045">
        <ele>1499</ele>
        <time>2020-08-05T15:19:00Z</time>
      </trkpt>
      <trkpt lat="42.73296" lon="1.47051">
        <ele>1497.4</ele>
        <time>2020-08-05T15:19:01Z</time>
      </trkpt>
      <trkpt lat="42.73295" lon="1.47058">
        <ele>1495.8</ele>
        <time>2020-08-05T15:19:02Z</time>
      </trkpt>
      <trkpt lat="42.73295" lon="1.47062">
        <ele>1494.6</ele>
        <time>2020-08-05T15:19:03Z</time>
      </trkpt>
      <trkpt lat="42.73294" lon="1.47065">
        <ele>1493.8</ele>
        <time>2020-08-05T15:19:04Z</time>
      </trkpt>
      <trkpt lat="42.73294" lon="1.47066">
        <ele>1493.2</ele>
        <time>2020-08-05T15:19:05Z</time>
      </trkpt>
      <trkpt lat="42.73294" lon="1.47068">
        <ele>1492.8</ele>
        <time>2020-08-05T15:19:08Z</time>
      </trkpt>
      <trkpt lat="42.73294" lon="1.47068">
        <ele>1492.2</ele>
        <time>2020-08-05T15:19:14Z</time>
      </trkpt>
      <trkpt lat="42.73294" lon="1.47068">
        <ele>1492</ele>
        <time>2020-08-05T15:19:15Z</time>
      </trkpt>
      <trkpt lat="42.73293" lon="1.4707">
        <ele>1491.8</ele>
        <time>2020-08-05T15:19:21Z</time>
      </trkpt>
      <trkpt lat="42.73292" lon="1.47075">
        <ele>1490.8</ele>
        <time>2020-08-05T15:19:23Z</time>
      </trkpt>
      <trkpt lat="42.73291" lon="1.47081">
        <ele>1489.6</ele>
        <time>2020-08-05T15:19:25Z</time>
      </trkpt>
      <trkpt lat="42.73291" lon="1.47083">
        <ele>1489</ele>
        <time>2020-08-05T15:19:26Z</time>
      </trkpt>
      <trkpt lat="42.7329" lon="1.47087">
        <ele>1488.2</ele>
        <time>2020-08-05T15:19:27Z</time>
      </trkpt>
      <trkpt lat="42.73289" lon="1.47091">
        <ele>1487.4</ele>
        <time>2020-08-05T15:19:28Z</time>
      </trkpt>
      <trkpt lat="42.73289" lon="1.47094">
        <ele>1486.4</ele>
        <time>2020-08-05T15:19:29Z</time>
      </trkpt>
      <trkpt lat="42.73287" lon="1.471">
        <ele>1484.4</ele>
        <time>2020-08-05T15:19:31Z</time>
      </trkpt>
      <trkpt lat="42.73285" lon="1.4711">
        <ele>1482.8</ele>
        <time>2020-08-05T15:19:33Z</time>
      </trkpt>
      <trkpt lat="42.73285" lon="1.47115">
        <ele>1481.8</ele>
        <time>2020-08-05T15:19:34Z</time>
      </trkpt>
      <trkpt lat="42.73285" lon="1.47121">
        <ele>1480.4</ele>
        <time>2020-08-05T15:19:35Z</time>
      </trkpt>
      <trkpt lat="42.73284" lon="1.47128">
        <ele>1478.8</ele>
        <time>2020-08-05T15:19:36Z</time>
      </trkpt>
      <trkpt lat="42.73283" lon="1.47134">
        <ele>1477</ele>
        <time>2020-08-05T15:19:37Z</time>
      </trkpt>
      <trkpt lat="42.73281" lon="1.4714">
        <ele>1475.6</ele>
        <time>2020-08-05T15:19:38Z</time>
      </trkpt>
      <trkpt lat="42.73279" lon="1.47146">
        <ele>1474</ele>
        <time>2020-08-05T15:19:39Z</time>
      </trkpt>
      <trkpt lat="42.73277" lon="1.47151">
        <ele>1472.6</ele>
        <time>2020-08-05T15:19:40Z</time>
      </trkpt>
      <trkpt lat="42.73275" lon="1.47157">
        <ele>1470</ele>
        <time>2020-08-05T15:19:42Z</time>
      </trkpt>
      <trkpt lat="42.73273" lon="1.47164">
        <ele>1468.8</ele>
        <time>2020-08-05T15:19:43Z</time>
      </trkpt>
      <trkpt lat="42.73272" lon="1.47171">
        <ele>1467.6</ele>
        <time>2020-08-05T15:19:44Z</time>
      </trkpt>
      <trkpt lat="42.73269" lon="1.47181">
        <ele>1466.4</ele>
        <time>2020-08-05T15:19:46Z</time>
      </trkpt>
      <trkpt lat="42.73267" lon="1.47187">
        <ele>1465.6</ele>
        <time>2020-08-05T15:19:47Z</time>
      </trkpt>
      <trkpt lat="42.73265" lon="1.47191">
        <ele>1464.4</ele>
        <time>2020-08-05T15:19:48Z</time>
      </trkpt>
      <trkpt lat="42.73263" lon="1.47198">
        <ele>1463.2</ele>
        <time>2020-08-05T15:19:49Z</time>
      </trkpt>
      <trkpt lat="42.73261" lon="1.47203">
        <ele>1461.8</ele>
        <time>2020-08-05T15:19:50Z</time>
      </trkpt>
      <trkpt lat="42.7326" lon="1.47207">
        <ele>1460.6</ele>
        <time>2020-08-05T15:19:51Z</time>
      </trkpt>
      <trkpt lat="42.7326" lon="1.47212">
        <ele>1459.4</ele>
        <time>2020-08-05T15:19:53Z</time>
      </trkpt>
      <trkpt lat="42.73259" lon="1.47213">
        <ele>1458.8</ele>
        <time>2020-08-05T15:19:55Z</time>
      </trkpt>
      <trkpt lat="42.73259" lon="1.47213">
        <ele>1458.6</ele>
        <time>2020-08-05T15:20:00Z</time>
      </trkpt>
      <trkpt lat="42.73259" lon="1.47213">
        <ele>1458.2</ele>
        <time>2020-08-05T15:20:02Z</time>
      </trkpt>
      <trkpt lat="42.73261" lon="1.47213">
        <ele>1457</ele>
        <time>2020-08-05T15:20:04Z</time>
      </trkpt>
      <trkpt lat="42.73262" lon="1.47213">
        <ele>1456.4</ele>
        <time>2020-08-05T15:20:05Z</time>
      </trkpt>
      <trkpt lat="42.73262" lon="1.47213">
        <ele>1454.8</ele>
        <time>2020-08-05T15:20:06Z</time>
      </trkpt>
      <trkpt lat="42.73263" lon="1.4721">
        <ele>1452.8</ele>
        <time>2020-08-05T15:20:08Z</time>
      </trkpt>
      <trkpt lat="42.73263" lon="1.4721">
        <ele>1451.8</ele>
        <time>2020-08-05T15:20:09Z</time>
      </trkpt>
      <trkpt lat="42.73264" lon="1.47208">
        <ele>1450.6</ele>
        <time>2020-08-05T15:20:10Z</time>
      </trkpt>
      <trkpt lat="42.73265" lon="1.47207">
        <ele>1449.6</ele>
        <time>2020-08-05T15:20:11Z</time>
      </trkpt>
      <trkpt lat="42.73267" lon="1.47206">
        <ele>1448.8</ele>
        <time>2020-08-05T15:20:12Z</time>
      </trkpt>
      <trkpt lat="42.73267" lon="1.47205">
        <ele>1447.2</ele>
        <time>2020-08-05T15:20:14Z</time>
      </trkpt>
      <trkpt lat="42.73269" lon="1.47204">
        <ele>1446</ele>
        <time>2020-08-05T15:20:16Z</time>
      </trkpt>
      <trkpt lat="42.73272" lon="1.472">
        <ele>1444.8</ele>
        <time>2020-08-05T15:20:18Z</time>
      </trkpt>
      <trkpt lat="42.73274" lon="1.47199">
        <ele>1444</ele>
        <time>2020-08-05T15:20:19Z</time>
      </trkpt>
      <trkpt lat="42.73275" lon="1.47197">
        <ele>1443</ele>
        <time>2020-08-05T15:20:20Z</time>
      </trkpt>
      <trkpt lat="42.73278" lon="1.47195">
        <ele>1441.8</ele>
        <time>2020-08-05T15:20:21Z</time>
      </trkpt>
      <trkpt lat="42.73281" lon="1.47192">
        <ele>1440.6</ele>
        <time>2020-08-05T15:20:22Z</time>
      </trkpt>
      <trkpt lat="42.73284" lon="1.4719">
        <ele>1439.2</ele>
        <time>2020-08-05T15:20:23Z</time>
      </trkpt>
      <trkpt lat="42.73287" lon="1.47188">
        <ele>1437.6</ele>
        <time>2020-08-05T15:20:24Z</time>
      </trkpt>
      <trkpt lat="42.73289" lon="1.47186">
        <ele>1436.2</ele>
        <time>2020-08-05T15:20:25Z</time>
      </trkpt>
      <trkpt lat="42.73292" lon="1.47183">
        <ele>1435</ele>
        <time>2020-08-05T15:20:26Z</time>
      </trkpt>
      <trkpt lat="42.73294" lon="1.47181">
        <ele>1433.8</ele>
        <time>2020-08-05T15:20:27Z</time>
      </trkpt>
      <trkpt lat="42.73296" lon="1.47179">
        <ele>1432.8</ele>
        <time>2020-08-05T15:20:28Z</time>
      </trkpt>
      <trkpt lat="42.73299" lon="1.47176">
        <ele>1432</ele>
        <time>2020-08-05T15:20:29Z</time>
      </trkpt>
      <trkpt lat="42.73302" lon="1.47172">
        <ele>1430.6</ele>
        <time>2020-08-05T15:20:30Z</time>
      </trkpt>
      <trkpt lat="42.73307" lon="1.47165">
        <ele>1429.6</ele>
        <time>2020-08-05T15:20:32Z</time>
      </trkpt>
      <trkpt lat="42.73312" lon="1.47159">
        <ele>1428.2</ele>
        <time>2020-08-05T15:20:34Z</time>
      </trkpt>
      <trkpt lat="42.7332" lon="1.47148">
        <ele>1426.6</ele>
        <time>2020-08-05T15:20:36Z</time>
      </trkpt>
      <trkpt lat="42.73332" lon="1.47137">
        <ele>1425</ele>
        <time>2020-08-05T15:20:38Z</time>
      </trkpt>
      <trkpt lat="42.7334" lon="1.47124">
        <ele>1423.6</ele>
        <time>2020-08-05T15:20:40Z</time>
      </trkpt>
      <trkpt lat="42.73351" lon="1.47114">
        <ele>1422.4</ele>
        <time>2020-08-05T15:20:42Z</time>
      </trkpt>
      <trkpt lat="42.73358" lon="1.47108">
        <ele>1420.6</ele>
        <time>2020-08-05T15:20:44Z</time>
      </trkpt>
      <trkpt lat="42.73367" lon="1.471">
        <ele>1419.2</ele>
        <time>2020-08-05T15:20:46Z</time>
      </trkpt>
      <trkpt lat="42.73378" lon="1.47093">
        <ele>1418</ele>
        <time>2020-08-05T15:20:48Z</time>
      </trkpt>
      <trkpt lat="42.73391" lon="1.47087">
        <ele>1416.4</ele>
        <time>2020-08-05T15:20:50Z</time>
      </trkpt>
      <trkpt lat="42.734" lon="1.47083">
        <ele>1415.4</ele>
        <time>2020-08-05T15:20:51Z</time>
      </trkpt>
      <trkpt lat="42.73406" lon="1.47081">
        <ele>1414.2</ele>
        <time>2020-08-05T15:20:52Z</time>
      </trkpt>
      <trkpt lat="42.73413" lon="1.47078">
        <ele>1413.2</ele>
        <time>2020-08-05T15:20:53Z</time>
      </trkpt>
      <trkpt lat="42.73419" lon="1.47075">
        <ele>1411.4</ele>
        <time>2020-08-05T15:20:54Z</time>
      </trkpt>
      <trkpt lat="42.73432" lon="1.47073">
        <ele>1409.6</ele>
        <time>2020-08-05T15:20:56Z</time>
      </trkpt>
      <trkpt lat="42.73439" lon="1.47073">
        <ele>1408.6</ele>
        <time>2020-08-05T15:20:57Z</time>
      </trkpt>
      <trkpt lat="42.73447" lon="1.47072">
        <ele>1407.8</ele>
        <time>2020-08-05T15:20:58Z</time>
      </trkpt>
      <trkpt lat="42.73458" lon="1.47073">
        <ele>1406</ele>
        <time>2020-08-05T15:21:00Z</time>
      </trkpt>
      <trkpt lat="42.73469" lon="1.47073">
        <ele>1404.8</ele>
        <time>2020-08-05T15:21:02Z</time>
      </trkpt>
      <trkpt lat="42.73473" lon="1.47074">
        <ele>1404</ele>
        <time>2020-08-05T15:21:03Z</time>
      </trkpt>
      <trkpt lat="42.73478" lon="1.47074">
        <ele>1403.2</ele>
        <time>2020-08-05T15:21:04Z</time>
      </trkpt>
      <trkpt lat="42.73487" lon="1.47074">
        <ele>1401.8</ele>
        <time>2020-08-05T15:21:06Z</time>
      </trkpt>
      <trkpt lat="42.73491" lon="1.47075">
        <ele>1401.2</ele>
        <time>2020-08-05T15:21:07Z</time>
      </trkpt>
      <trkpt lat="42.73494" lon="1.47076">
        <ele>1400.8</ele>
        <time>2020-08-05T15:21:08Z</time>
      </trkpt>
      <trkpt lat="42.73502" lon="1.47077">
        <ele>1399.4</ele>
        <time>2020-08-05T15:21:10Z</time>
      </trkpt>
      <trkpt lat="42.73509" lon="1.47075">
        <ele>1398</ele>
        <time>2020-08-05T15:21:12Z</time>
      </trkpt>
      <trkpt lat="42.73517" lon="1.47074">
        <ele>1396.6</ele>
        <time>2020-08-05T15:21:14Z</time>
      </trkpt>
      <trkpt lat="42.73523" lon="1.47071">
        <ele>1395.4</ele>
        <time>2020-08-05T15:21:16Z</time>
      </trkpt>
      <trkpt lat="42.73526" lon="1.4707">
        <ele>1394.6</ele>
        <time>2020-08-05T15:21:17Z</time>
      </trkpt>
      <trkpt lat="42.73528" lon="1.47067">
        <ele>1393.4</ele>
        <time>2020-08-05T15:21:18Z</time>
      </trkpt>
      <trkpt lat="42.73532" lon="1.47067">
        <ele>1393</ele>
        <time>2020-08-05T15:21:19Z</time>
      </trkpt>
      <trkpt lat="42.73532" lon="1.47067">
        <ele>1392.8</ele>
        <time>2020-08-05T15:21:20Z</time>
      </trkpt>
      <trkpt lat="42.73538" lon="1.47067">
        <ele>1392.4</ele>
        <time>2020-08-05T15:21:22Z</time>
      </trkpt>
      <trkpt lat="42.73539" lon="1.4707">
        <ele>1392.4</ele>
        <time>2020-08-05T15:21:24Z</time>
      </trkpt>
      <trkpt lat="42.73539" lon="1.47073">
        <ele>1392.2</ele>
        <time>2020-08-05T15:21:25Z</time>
      </trkpt>
      <trkpt lat="42.73533" lon="1.47079">
        <ele>1391.2</ele>
        <time>2020-08-05T15:21:28Z</time>
      </trkpt>
      <trkpt lat="42.7353" lon="1.47084">
        <ele>1390.6</ele>
        <time>2020-08-05T15:21:29Z</time>
      </trkpt>
      <trkpt lat="42.73528" lon="1.47086">
        <ele>1389.8</ele>
        <time>2020-08-05T15:21:30Z</time>
      </trkpt>
      <trkpt lat="42.73524" lon="1.47087">
        <ele>1389.4</ele>
        <time>2020-08-05T15:21:31Z</time>
      </trkpt>
      <trkpt lat="42.73521" lon="1.47088">
        <ele>1388.6</ele>
        <time>2020-08-05T15:21:32Z</time>
      </trkpt>
      <trkpt lat="42.73513" lon="1.47092">
        <ele>1387.2</ele>
        <time>2020-08-05T15:21:34Z</time>
      </trkpt>
      <trkpt lat="42.73508" lon="1.47097">
        <ele>1386</ele>
        <time>2020-08-05T15:21:36Z</time>
      </trkpt>
      <trkpt lat="42.73505" lon="1.47099">
        <ele>1385.4</ele>
        <time>2020-08-05T15:21:37Z</time>
      </trkpt>
      <trkpt lat="42.73502" lon="1.47102">
        <ele>1385</ele>
        <time>2020-08-05T15:21:38Z</time>
      </trkpt>
      <trkpt lat="42.73495" lon="1.47108">
        <ele>1384</ele>
        <time>2020-08-05T15:21:40Z</time>
      </trkpt>
      <trkpt lat="42.7349" lon="1.47112">
        <ele>1382.4</ele>
        <time>2020-08-05T15:21:42Z</time>
      </trkpt>
      <trkpt lat="42.73479" lon="1.47116">
        <ele>1381</ele>
        <time>2020-08-05T15:21:45Z</time>
      </trkpt>
      <trkpt lat="42.73474" lon="1.47118">
        <ele>1380.4</ele>
        <time>2020-08-05T15:21:46Z</time>
      </trkpt>
      <trkpt lat="42.73468" lon="1.47121">
        <ele>1379.6</ele>
        <time>2020-08-05T15:21:47Z</time>
      </trkpt>
      <trkpt lat="42.73462" lon="1.47124">
        <ele>1378.4</ele>
        <time>2020-08-05T15:21:48Z</time>
      </trkpt>
      <trkpt lat="42.73458" lon="1.47129">
        <ele>1377.6</ele>
        <time>2020-08-05T15:21:49Z</time>
      </trkpt>
      <trkpt lat="42.73455" lon="1.47133">
        <ele>1376.6</ele>
        <time>2020-08-05T15:21:50Z</time>
      </trkpt>
      <trkpt lat="42.73448" lon="1.47143">
        <ele>1375</ele>
        <time>2020-08-05T15:21:52Z</time>
      </trkpt>
      <trkpt lat="42.73445" lon="1.47149">
        <ele>1374</ele>
        <time>2020-08-05T15:21:53Z</time>
      </trkpt>
      <trkpt lat="42.73443" lon="1.47154">
        <ele>1373.4</ele>
        <time>2020-08-05T15:21:54Z</time>
      </trkpt>
      <trkpt lat="42.73438" lon="1.47162">
        <ele>1372</ele>
        <time>2020-08-05T15:21:56Z</time>
      </trkpt>
      <trkpt lat="42.73436" lon="1.47165">
        <ele>1371.4</ele>
        <time>2020-08-05T15:21:57Z</time>
      </trkpt>
      <trkpt lat="42.73435" lon="1.4717">
        <ele>1370.8</ele>
        <time>2020-08-05T15:21:58Z</time>
      </trkpt>
      <trkpt lat="42.7343" lon="1.47181">
        <ele>1369.4</ele>
        <time>2020-08-05T15:22:01Z</time>
      </trkpt>
      <trkpt lat="42.7343" lon="1.47186">
        <ele>1369</ele>
        <time>2020-08-05T15:22:02Z</time>
      </trkpt>
      <trkpt lat="42.73427" lon="1.47195">
        <ele>1367.8</ele>
        <time>2020-08-05T15:22:04Z</time>
      </trkpt>
      <trkpt lat="42.73425" lon="1.47199">
        <ele>1367.2</ele>
        <time>2020-08-05T15:22:05Z</time>
      </trkpt>
      <trkpt lat="42.73424" lon="1.47203">
        <ele>1366</ele>
        <time>2020-08-05T15:22:06Z</time>
      </trkpt>
      <trkpt lat="42.73421" lon="1.47218">
        <ele>1364</ele>
        <time>2020-08-05T15:22:08Z</time>
      </trkpt>
      <trkpt lat="42.73421" lon="1.47225">
        <ele>1363</ele>
        <time>2020-08-05T15:22:09Z</time>
      </trkpt>
      <trkpt lat="42.73419" lon="1.47232">
        <ele>1362.4</ele>
        <time>2020-08-05T15:22:10Z</time>
      </trkpt>
      <trkpt lat="42.73416" lon="1.47246">
        <ele>1360.8</ele>
        <time>2020-08-05T15:22:12Z</time>
      </trkpt>
      <trkpt lat="42.73411" lon="1.47261">
        <ele>1359</ele>
        <time>2020-08-05T15:22:14Z</time>
      </trkpt>
      <trkpt lat="42.73408" lon="1.47269">
        <ele>1358</ele>
        <time>2020-08-05T15:22:15Z</time>
      </trkpt>
      <trkpt lat="42.73404" lon="1.47279">
        <ele>1356.8</ele>
        <time>2020-08-05T15:22:16Z</time>
      </trkpt>
      <trkpt lat="42.73396" lon="1.47298">
        <ele>1354.8</ele>
        <time>2020-08-05T15:22:18Z</time>
      </trkpt>
      <trkpt lat="42.73392" lon="1.47306">
        <ele>1353.6</ele>
        <time>2020-08-05T15:22:19Z</time>
      </trkpt>
      <trkpt lat="42.73388" lon="1.47315">
        <ele>1352.2</ele>
        <time>2020-08-05T15:22:20Z</time>
      </trkpt>
      <trkpt lat="42.73385" lon="1.47323">
        <ele>1351</ele>
        <time>2020-08-05T15:22:21Z</time>
      </trkpt>
      <trkpt lat="42.73381" lon="1.4733">
        <ele>1350</ele>
        <time>2020-08-05T15:22:22Z</time>
      </trkpt>
      <trkpt lat="42.73377" lon="1.47338">
        <ele>1349</ele>
        <time>2020-08-05T15:22:23Z</time>
      </trkpt>
      <trkpt lat="42.73371" lon="1.47353">
        <ele>1347.2</ele>
        <time>2020-08-05T15:22:25Z</time>
      </trkpt>
      <trkpt lat="42.73365" lon="1.47369">
        <ele>1345.2</ele>
        <time>2020-08-05T15:22:27Z</time>
      </trkpt>
      <trkpt lat="42.73362" lon="1.47376">
        <ele>1344.4</ele>
        <time>2020-08-05T15:22:28Z</time>
      </trkpt>
      <trkpt lat="42.73359" lon="1.47383">
        <ele>1343.6</ele>
        <time>2020-08-05T15:22:29Z</time>
      </trkpt>
      <trkpt lat="42.73356" lon="1.4739">
        <ele>1342.2</ele>
        <time>2020-08-05T15:22:30Z</time>
      </trkpt>
      <trkpt lat="42.73349" lon="1.47402">
        <ele>1340.6</ele>
        <time>2020-08-05T15:22:32Z</time>
      </trkpt>
      <trkpt lat="42.73345" lon="1.47407">
        <ele>1339.8</ele>
        <time>2020-08-05T15:22:33Z</time>
      </trkpt>
      <trkpt lat="42.73341" lon="1.47411">
        <ele>1339.2</ele>
        <time>2020-08-05T15:22:34Z</time>
      </trkpt>
      <trkpt lat="42.73335" lon="1.47417">
        <ele>1338.2</ele>
        <time>2020-08-05T15:22:36Z</time>
      </trkpt>
      <trkpt lat="42.73332" lon="1.4742">
        <ele>1337.6</ele>
        <time>2020-08-05T15:22:37Z</time>
      </trkpt>
      <trkpt lat="42.7333" lon="1.47423">
        <ele>1336.8</ele>
        <time>2020-08-05T15:22:39Z</time>
      </trkpt>
      <trkpt lat="42.7333" lon="1.47422">
        <ele>1336.8</ele>
        <time>2020-08-05T15:22:41Z</time>
      </trkpt>
      <trkpt lat="42.7333" lon="1.47422">
        <ele>1336.6</ele>
        <time>2020-08-05T15:22:52Z</time>
      </trkpt>
      <trkpt lat="42.73335" lon="1.47407">
        <ele>1336.6</ele>
        <time>2020-08-05T15:23:03Z</time>
      </trkpt>
      <trkpt lat="42.73336" lon="1.47405">
        <ele>1336.6</ele>
        <time>2020-08-05T15:23:10Z</time>
      </trkpt>
      <trkpt lat="42.73336" lon="1.47403">
        <ele>1336.6</ele>
        <time>2020-08-05T15:23:28Z</time>
      </trkpt>
      <trkpt lat="42.73337" lon="1.47403">
        <ele>1336.6</ele>
        <time>2020-08-05T15:23:39Z</time>
      </trkpt>
      <trkpt lat="42.73337" lon="1.47406">
        <ele>1336.4</ele>
        <time>2020-08-05T15:23:55Z</time>
      </trkpt>
      <trkpt lat="42.73337" lon="1.47409">
        <ele>1336.4</ele>
        <time>2020-08-05T15:24:09Z</time>
      </trkpt>
      <trkpt lat="42.73339" lon="1.47409">
        <ele>1336.4</ele>
        <time>2020-08-05T15:24:22Z</time>
      </trkpt>
      <trkpt lat="42.73339" lon="1.47409">
        <ele>1336.4</ele>
        <time>2020-08-05T15:24:33Z</time>
      </trkpt>
      <trkpt lat="42.73339" lon="1.47409">
        <ele>1336.2</ele>
        <time>2020-08-05T15:24:38Z</time>
      </trkpt>
      <trkpt lat="42.73339" lon="1.47409">
        <ele>1336</ele>
        <time>2020-08-05T15:24:39Z</time>
      </trkpt>
      <trkpt lat="42.73344" lon="1.47407">
        <ele>1335.8</ele>
        <time>2020-08-05T15:24:47Z</time>
      </trkpt>
      <trkpt lat="42.73347" lon="1.47405">
        <ele>1335.8</ele>
        <time>2020-08-05T15:24:48Z</time>
      </trkpt>
      <trkpt lat="42.73357" lon="1.47401">
        <ele>1334.2</ele>
        <time>2020-08-05T15:24:51Z</time>
      </trkpt>
      <trkpt lat="42.73363" lon="1.47396">
        <ele>1332.8</ele>
        <time>2020-08-05T15:24:53Z</time>
      </trkpt>
      <trkpt lat="42.73366" lon="1.47393">
        <ele>1331.2</ele>
        <time>2020-08-05T15:24:54Z</time>
      </trkpt>
      <trkpt lat="42.7337" lon="1.47387">
        <ele>1329.6</ele>
        <time>2020-08-05T15:24:56Z</time>
      </trkpt>
      <trkpt lat="42.73374" lon="1.47381">
        <ele>1328.2</ele>
        <time>2020-08-05T15:24:58Z</time>
      </trkpt>
      <trkpt lat="42.73378" lon="1.47373">
        <ele>1326.4</ele>
        <time>2020-08-05T15:25:00Z</time>
      </trkpt>
      <trkpt lat="42.73379" lon="1.47368">
        <ele>1325.6</ele>
        <time>2020-08-05T15:25:01Z</time>
      </trkpt>
      <trkpt lat="42.73382" lon="1.47362">
        <ele>1324.8</ele>
        <time>2020-08-05T15:25:02Z</time>
      </trkpt>
      <trkpt lat="42.73386" lon="1.47354">
        <ele>1323.2</ele>
        <time>2020-08-05T15:25:04Z</time>
      </trkpt>
      <trkpt lat="42.73391" lon="1.47348">
        <ele>1321.6</ele>
        <time>2020-08-05T15:25:06Z</time>
      </trkpt>
      <trkpt lat="42.73398" lon="1.47341">
        <ele>1320.2</ele>
        <time>2020-08-05T15:25:08Z</time>
      </trkpt>
      <trkpt lat="42.73408" lon="1.47336">
        <ele>1318.8</ele>
        <time>2020-08-05T15:25:10Z</time>
      </trkpt>
      <trkpt lat="42.73418" lon="1.47328">
        <ele>1317.4</ele>
        <time>2020-08-05T15:25:12Z</time>
      </trkpt>
      <trkpt lat="42.73424" lon="1.47321">
        <ele>1316</ele>
        <time>2020-08-05T15:25:14Z</time>
      </trkpt>
      <trkpt lat="42.73431" lon="1.47313">
        <ele>1314.4</ele>
        <time>2020-08-05T15:25:16Z</time>
      </trkpt>
      <trkpt lat="42.73437" lon="1.47302">
        <ele>1312.2</ele>
        <time>2020-08-05T15:25:18Z</time>
      </trkpt>
      <trkpt lat="42.73441" lon="1.47296">
        <ele>1311.4</ele>
        <time>2020-08-05T15:25:19Z</time>
      </trkpt>
      <trkpt lat="42.73448" lon="1.47292">
        <ele>1310.6</ele>
        <time>2020-08-05T15:25:20Z</time>
      </trkpt>
      <trkpt lat="42.73453" lon="1.47288">
        <ele>1309.8</ele>
        <time>2020-08-05T15:25:21Z</time>
      </trkpt>
      <trkpt lat="42.73458" lon="1.47283">
        <ele>1309</ele>
        <time>2020-08-05T15:25:22Z</time>
      </trkpt>
      <trkpt lat="42.73466" lon="1.47273">
        <ele>1307.4</ele>
        <time>2020-08-05T15:25:24Z</time>
      </trkpt>
      <trkpt lat="42.73476" lon="1.47263">
        <ele>1305.8</ele>
        <time>2020-08-05T15:25:26Z</time>
      </trkpt>
      <trkpt lat="42.73483" lon="1.47255">
        <ele>1304.2</ele>
        <time>2020-08-05T15:25:28Z</time>
      </trkpt>
      <trkpt lat="42.7349" lon="1.47248">
        <ele>1303</ele>
        <time>2020-08-05T15:25:30Z</time>
      </trkpt>
      <trkpt lat="42.73495" lon="1.47248">
        <ele>1302.6</ele>
        <time>2020-08-05T15:25:31Z</time>
      </trkpt>
      <trkpt lat="42.735" lon="1.47247">
        <ele>1302</ele>
        <time>2020-08-05T15:25:32Z</time>
      </trkpt>
      <trkpt lat="42.73508" lon="1.47247">
        <ele>1300.6</ele>
        <time>2020-08-05T15:25:34Z</time>
      </trkpt>
      <trkpt lat="42.7352" lon="1.47247">
        <ele>1298.8</ele>
        <time>2020-08-05T15:25:36Z</time>
      </trkpt>
      <trkpt lat="42.73531" lon="1.47246">
        <ele>1297.2</ele>
        <time>2020-08-05T15:25:38Z</time>
      </trkpt>
      <trkpt lat="42.7354" lon="1.47243">
        <ele>1295.4</ele>
        <time>2020-08-05T15:25:40Z</time>
      </trkpt>
      <trkpt lat="42.73549" lon="1.4724">
        <ele>1293.4</ele>
        <time>2020-08-05T15:25:42Z</time>
      </trkpt>
      <trkpt lat="42.73557" lon="1.47234">
        <ele>1291.8</ele>
        <time>2020-08-05T15:25:44Z</time>
      </trkpt>
      <trkpt lat="42.73568" lon="1.47228">
        <ele>1290.8</ele>
        <time>2020-08-05T15:25:46Z</time>
      </trkpt>
      <trkpt lat="42.73577" lon="1.47224">
        <ele>1289.6</ele>
        <time>2020-08-05T15:25:48Z</time>
      </trkpt>
      <trkpt lat="42.73586" lon="1.47219">
        <ele>1288.4</ele>
        <time>2020-08-05T15:25:50Z</time>
      </trkpt>
      <trkpt lat="42.73593" lon="1.47214">
        <ele>1287.4</ele>
        <time>2020-08-05T15:25:52Z</time>
      </trkpt>
      <trkpt lat="42.73601" lon="1.4721">
        <ele>1286</ele>
        <time>2020-08-05T15:25:54Z</time>
      </trkpt>
      <trkpt lat="42.73608" lon="1.47205">
        <ele>1285</ele>
        <time>2020-08-05T15:25:56Z</time>
      </trkpt>
      <trkpt lat="42.73614" lon="1.47199">
        <ele>1283.8</ele>
        <time>2020-08-05T15:25:58Z</time>
      </trkpt>
      <trkpt lat="42.73621" lon="1.47195">
        <ele>1282.6</ele>
        <time>2020-08-05T15:26:00Z</time>
      </trkpt>
      <trkpt lat="42.73624" lon="1.47194">
        <ele>1282</ele>
        <time>2020-08-05T15:26:01Z</time>
      </trkpt>
      <trkpt lat="42.73628" lon="1.47193">
        <ele>1280.8</ele>
        <time>2020-08-05T15:26:02Z</time>
      </trkpt>
      <trkpt lat="42.73634" lon="1.4719">
        <ele>1279.2</ele>
        <time>2020-08-05T15:26:04Z</time>
      </trkpt>
      <trkpt lat="42.73647" lon="1.47185">
        <ele>1276.8</ele>
        <time>2020-08-05T15:26:06Z</time>
      </trkpt>
      <trkpt lat="42.73653" lon="1.47181">
        <ele>1275.6</ele>
        <time>2020-08-05T15:26:07Z</time>
      </trkpt>
      <trkpt lat="42.73666" lon="1.47172">
        <ele>1273.6</ele>
        <time>2020-08-05T15:26:09Z</time>
      </trkpt>
      <trkpt lat="42.73677" lon="1.47163">
        <ele>1272</ele>
        <time>2020-08-05T15:26:11Z</time>
      </trkpt>
      <trkpt lat="42.73682" lon="1.47158">
        <ele>1271.2</ele>
        <time>2020-08-05T15:26:12Z</time>
      </trkpt>
      <trkpt lat="42.73687" lon="1.47154">
        <ele>1270.2</ele>
        <time>2020-08-05T15:26:13Z</time>
      </trkpt>
      <trkpt lat="42.73693" lon="1.47149">
        <ele>1269.2</ele>
        <time>2020-08-05T15:26:14Z</time>
      </trkpt>
      <trkpt lat="42.73697" lon="1.47145">
        <ele>1268</ele>
        <time>2020-08-05T15:26:15Z</time>
      </trkpt>
      <trkpt lat="42.73706" lon="1.47136">
        <ele>1266.4</ele>
        <time>2020-08-05T15:26:17Z</time>
      </trkpt>
      <trkpt lat="42.73715" lon="1.47129">
        <ele>1265.2</ele>
        <time>2020-08-05T15:26:19Z</time>
      </trkpt>
      <trkpt lat="42.73719" lon="1.47124">
        <ele>1264.2</ele>
        <time>2020-08-05T15:26:20Z</time>
      </trkpt>
      <trkpt lat="42.73723" lon="1.47119">
        <ele>1263.4</ele>
        <time>2020-08-05T15:26:21Z</time>
      </trkpt>
      <trkpt lat="42.73727" lon="1.47114">
        <ele>1262.4</ele>
        <time>2020-08-05T15:26:22Z</time>
      </trkpt>
      <trkpt lat="42.73734" lon="1.47104">
        <ele>1260.6</ele>
        <time>2020-08-05T15:26:24Z</time>
      </trkpt>
      <trkpt lat="42.73742" lon="1.47092">
        <ele>1259.2</ele>
        <time>2020-08-05T15:26:26Z</time>
      </trkpt>
      <trkpt lat="42.73748" lon="1.47081">
        <ele>1258</ele>
        <time>2020-08-05T15:26:28Z</time>
      </trkpt>
      <trkpt lat="42.73753" lon="1.47074">
        <ele>1256</ele>
        <time>2020-08-05T15:26:30Z</time>
      </trkpt>
      <trkpt lat="42.73753" lon="1.4707">
        <ele>1255.4</ele>
        <time>2020-08-05T15:26:31Z</time>
      </trkpt>
      <trkpt lat="42.73753" lon="1.47066">
        <ele>1254.8</ele>
        <time>2020-08-05T15:26:32Z</time>
      </trkpt>
      <trkpt lat="42.73758" lon="1.47059">
        <ele>1253.8</ele>
        <time>2020-08-05T15:26:34Z</time>
      </trkpt>
      <trkpt lat="42.73761" lon="1.47051">
        <ele>1252.6</ele>
        <time>2020-08-05T15:26:36Z</time>
      </trkpt>
      <trkpt lat="42.73763" lon="1.47047">
        <ele>1252.2</ele>
        <time>2020-08-05T15:26:37Z</time>
      </trkpt>
      <trkpt lat="42.73766" lon="1.4704">
        <ele>1251.2</ele>
        <time>2020-08-05T15:26:39Z</time>
      </trkpt>
      <trkpt lat="42.73769" lon="1.47035">
        <ele>1249.8</ele>
        <time>2020-08-05T15:26:41Z</time>
      </trkpt>
      <trkpt lat="42.73782" lon="1.47029">
        <ele>1248.4</ele>
        <time>2020-08-05T15:26:44Z</time>
      </trkpt>
      <trkpt lat="42.73784" lon="1.4703">
        <ele>1247.8</ele>
        <time>2020-08-05T15:26:46Z</time>
      </trkpt>
      <trkpt lat="42.73785" lon="1.47035">
        <ele>1247.4</ele>
        <time>2020-08-05T15:26:48Z</time>
      </trkpt>
      <trkpt lat="42.73784" lon="1.47039">
        <ele>1247</ele>
        <time>2020-08-05T15:26:49Z</time>
      </trkpt>
      <trkpt lat="42.73784" lon="1.47047">
        <ele>1245.8</ele>
        <time>2020-08-05T15:26:51Z</time>
      </trkpt>
      <trkpt lat="42.73784" lon="1.47054">
        <ele>1244.4</ele>
        <time>2020-08-05T15:26:53Z</time>
      </trkpt>
      <trkpt lat="42.73784" lon="1.47058">
        <ele>1243.4</ele>
        <time>2020-08-05T15:26:54Z</time>
      </trkpt>
      <trkpt lat="42.73782" lon="1.47066">
        <ele>1242</ele>
        <time>2020-08-05T15:26:56Z</time>
      </trkpt>
      <trkpt lat="42.73781" lon="1.47074">
        <ele>1240.6</ele>
        <time>2020-08-05T15:26:58Z</time>
      </trkpt>
      <trkpt lat="42.73777" lon="1.47088">
        <ele>1239.2</ele>
        <time>2020-08-05T15:27:01Z</time>
      </trkpt>
      <trkpt lat="42.73777" lon="1.471">
        <ele>1237.6</ele>
        <time>2020-08-05T15:27:03Z</time>
      </trkpt>
      <trkpt lat="42.73775" lon="1.47111">
        <ele>1236.4</ele>
        <time>2020-08-05T15:27:05Z</time>
      </trkpt>
      <trkpt lat="42.73772" lon="1.4712">
        <ele>1235.4</ele>
        <time>2020-08-05T15:27:07Z</time>
      </trkpt>
      <trkpt lat="42.73768" lon="1.47134">
        <ele>1233.8</ele>
        <time>2020-08-05T15:27:09Z</time>
      </trkpt>
      <trkpt lat="42.73763" lon="1.4715">
        <ele>1232.2</ele>
        <time>2020-08-05T15:27:11Z</time>
      </trkpt>
      <trkpt lat="42.73759" lon="1.47166">
        <ele>1230.4</ele>
        <time>2020-08-05T15:27:13Z</time>
      </trkpt>
      <trkpt lat="42.73758" lon="1.47172">
        <ele>1229.2</ele>
        <time>2020-08-05T15:27:14Z</time>
      </trkpt>
      <trkpt lat="42.73755" lon="1.47182">
        <ele>1227.4</ele>
        <time>2020-08-05T15:27:16Z</time>
      </trkpt>
      <trkpt lat="42.73752" lon="1.47185">
        <ele>1226.6</ele>
        <time>2020-08-05T15:27:17Z</time>
      </trkpt>
      <trkpt lat="42.73749" lon="1.4719">
        <ele>1225.4</ele>
        <time>2020-08-05T15:27:18Z</time>
      </trkpt>
      <trkpt lat="42.73743" lon="1.47199">
        <ele>1223.8</ele>
        <time>2020-08-05T15:27:20Z</time>
      </trkpt>
      <trkpt lat="42.73739" lon="1.47204">
        <ele>1223</ele>
        <time>2020-08-05T15:27:21Z</time>
      </trkpt>
      <trkpt lat="42.73735" lon="1.4721">
        <ele>1222.2</ele>
        <time>2020-08-05T15:27:22Z</time>
      </trkpt>
      <trkpt lat="42.73731" lon="1.47214">
        <ele>1221.6</ele>
        <time>2020-08-05T15:27:23Z</time>
      </trkpt>
      <trkpt lat="42.73728" lon="1.47218">
        <ele>1220.8</ele>
        <time>2020-08-05T15:27:24Z</time>
      </trkpt>
      <trkpt lat="42.73723" lon="1.47221">
        <ele>1219.6</ele>
        <time>2020-08-05T15:27:26Z</time>
      </trkpt>
      <trkpt lat="42.73715" lon="1.47227">
        <ele>1218.2</ele>
        <time>2020-08-05T15:27:29Z</time>
      </trkpt>
      <trkpt lat="42.73712" lon="1.4723">
        <ele>1217.8</ele>
        <time>2020-08-05T15:27:30Z</time>
      </trkpt>
      <trkpt lat="42.73709" lon="1.47234">
        <ele>1217</ele>
        <time>2020-08-05T15:27:32Z</time>
      </trkpt>
      <trkpt lat="42.73708" lon="1.47235">
        <ele>1216.2</ele>
        <time>2020-08-05T15:27:34Z</time>
      </trkpt>
      <trkpt lat="42.73708" lon="1.47235">
        <ele>1216</ele>
        <time>2020-08-05T15:27:35Z</time>
      </trkpt>
      <trkpt lat="42.7371" lon="1.47237">
        <ele>1215.6</ele>
        <time>2020-08-05T15:27:37Z</time>
      </trkpt>
      <trkpt lat="42.73713" lon="1.47236">
        <ele>1215.2</ele>
        <time>2020-08-05T15:27:39Z</time>
      </trkpt>
      <trkpt lat="42.73716" lon="1.47236">
        <ele>1214.6</ele>
        <time>2020-08-05T15:27:41Z</time>
      </trkpt>
      <trkpt lat="42.7372" lon="1.47236">
        <ele>1213.2</ele>
        <time>2020-08-05T15:27:43Z</time>
      </trkpt>
      <trkpt lat="42.73727" lon="1.47236">
        <ele>1212.2</ele>
        <time>2020-08-05T15:27:45Z</time>
      </trkpt>
      <trkpt lat="42.7373" lon="1.47236">
        <ele>1211.8</ele>
        <time>2020-08-05T15:27:46Z</time>
      </trkpt>
      <trkpt lat="42.73736" lon="1.47234">
        <ele>1210.2</ele>
        <time>2020-08-05T15:27:48Z</time>
      </trkpt>
      <trkpt lat="42.73741" lon="1.47231">
        <ele>1208.8</ele>
        <time>2020-08-05T15:27:50Z</time>
      </trkpt>
      <trkpt lat="42.73743" lon="1.47228">
        <ele>1207.4</ele>
        <time>2020-08-05T15:27:53Z</time>
      </trkpt>
      <trkpt lat="42.73745" lon="1.47227">
        <ele>1207.2</ele>
        <time>2020-08-05T15:27:54Z</time>
      </trkpt>
      <trkpt lat="42.73745" lon="1.47227">
        <ele>1207.2</ele>
        <time>2020-08-05T15:28:02Z</time>
      </trkpt>
      <trkpt lat="42.73747" lon="1.47228">
        <ele>1206.4</ele>
        <time>2020-08-05T15:28:09Z</time>
      </trkpt>
      <trkpt lat="42.73749" lon="1.47227">
        <ele>1206.2</ele>
        <time>2020-08-05T15:28:10Z</time>
      </trkpt>
      <trkpt lat="42.73754" lon="1.47223">
        <ele>1205.2</ele>
        <time>2020-08-05T15:28:13Z</time>
      </trkpt>
      <trkpt lat="42.73758" lon="1.4722">
        <ele>1204.2</ele>
        <time>2020-08-05T15:28:15Z</time>
      </trkpt>
      <trkpt lat="42.7376" lon="1.47217">
        <ele>1203.8</ele>
        <time>2020-08-05T15:28:16Z</time>
      </trkpt>
      <trkpt lat="42.73762" lon="1.47216">
        <ele>1203.2</ele>
        <time>2020-08-05T15:28:17Z</time>
      </trkpt>
      <trkpt lat="42.73763" lon="1.47214">
        <ele>1202.6</ele>
        <time>2020-08-05T15:28:18Z</time>
      </trkpt>
      <trkpt lat="42.73767" lon="1.47207">
        <ele>1201.2</ele>
        <time>2020-08-05T15:28:20Z</time>
      </trkpt>
      <trkpt lat="42.73769" lon="1.47204">
        <ele>1200.6</ele>
        <time>2020-08-05T15:28:21Z</time>
      </trkpt>
      <trkpt lat="42.73771" lon="1.472">
        <ele>1200</ele>
        <time>2020-08-05T15:28:22Z</time>
      </trkpt>
      <trkpt lat="42.73774" lon="1.47195">
        <ele>1198.8</ele>
        <time>2020-08-05T15:28:24Z</time>
      </trkpt>
      <trkpt lat="42.73776" lon="1.4719">
        <ele>1197.6</ele>
        <time>2020-08-05T15:28:26Z</time>
      </trkpt>
      <trkpt lat="42.73778" lon="1.47188">
        <ele>1196.6</ele>
        <time>2020-08-05T15:28:29Z</time>
      </trkpt>
      <trkpt lat="42.73778" lon="1.47188">
        <ele>1196.6</ele>
        <time>2020-08-05T15:28:31Z</time>
      </trkpt>
      <trkpt lat="42.73778" lon="1.47188">
        <ele>1196.2</ele>
        <time>2020-08-05T15:28:40Z</time>
      </trkpt>
      <trkpt lat="42.73779" lon="1.47184">
        <ele>1196</ele>
        <time>2020-08-05T15:28:41Z</time>
      </trkpt>
      <trkpt lat="42.73781" lon="1.47181">
        <ele>1195.6</ele>
        <time>2020-08-05T15:28:42Z</time>
      </trkpt>
      <trkpt lat="42.73787" lon="1.47171">
        <ele>1194.4</ele>
        <time>2020-08-05T15:28:44Z</time>
      </trkpt>
      <trkpt lat="42.73789" lon="1.47166">
        <ele>1194</ele>
        <time>2020-08-05T15:28:45Z</time>
      </trkpt>
      <trkpt lat="42.73794" lon="1.47158">
        <ele>1193</ele>
        <time>2020-08-05T15:28:47Z</time>
      </trkpt>
      <trkpt lat="42.73798" lon="1.47153">
        <ele>1191.4</ele>
        <time>2020-08-05T15:28:49Z</time>
      </trkpt>
      <trkpt lat="42.73803" lon="1.47149">
        <ele>1190.4</ele>
        <time>2020-08-05T15:28:51Z</time>
      </trkpt>
      <trkpt lat="42.73817" lon="1.47141">
        <ele>1189</ele>
        <time>2020-08-05T15:28:54Z</time>
      </trkpt>
      <trkpt lat="42.7382" lon="1.47139">
        <ele>1188.6</ele>
        <time>2020-08-05T15:28:56Z</time>
      </trkpt>
      <trkpt lat="42.73822" lon="1.47141">
        <ele>1188.4</ele>
        <time>2020-08-05T15:28:58Z</time>
      </trkpt>
      <trkpt lat="42.73823" lon="1.47145">
        <ele>1188</ele>
        <time>2020-08-05T15:29:00Z</time>
      </trkpt>
      <trkpt lat="42.73823" lon="1.47148">
        <ele>1187.6</ele>
        <time>2020-08-05T15:29:01Z</time>
      </trkpt>
      <trkpt lat="42.73822" lon="1.47153">
        <ele>1186.8</ele>
        <time>2020-08-05T15:29:03Z</time>
      </trkpt>
      <trkpt lat="42.73821" lon="1.47162">
        <ele>1185.4</ele>
        <time>2020-08-05T15:29:05Z</time>
      </trkpt>
      <trkpt lat="42.7382" lon="1.47167">
        <ele>1184.8</ele>
        <time>2020-08-05T15:29:06Z</time>
      </trkpt>
      <trkpt lat="42.73818" lon="1.47172">
        <ele>1184.2</ele>
        <time>2020-08-05T15:29:07Z</time>
      </trkpt>
      <trkpt lat="42.73816" lon="1.47181">
        <ele>1182.6</ele>
        <time>2020-08-05T15:29:09Z</time>
      </trkpt>
      <trkpt lat="42.73815" lon="1.47186">
        <ele>1182</ele>
        <time>2020-08-05T15:29:10Z</time>
      </trkpt>
      <trkpt lat="42.73815" lon="1.4719">
        <ele>1181.4</ele>
        <time>2020-08-05T15:29:11Z</time>
      </trkpt>
      <trkpt lat="42.73813" lon="1.47196">
        <ele>1180.4</ele>
        <time>2020-08-05T15:29:13Z</time>
      </trkpt>
      <trkpt lat="42.73811" lon="1.47198">
        <ele>1180</ele>
        <time>2020-08-05T15:29:14Z</time>
      </trkpt>
      <trkpt lat="42.73809" lon="1.47207">
        <ele>1179.2</ele>
        <time>2020-08-05T15:29:16Z</time>
      </trkpt>
      <trkpt lat="42.73808" lon="1.47211">
        <ele>1178.8</ele>
        <time>2020-08-05T15:29:17Z</time>
      </trkpt>
      <trkpt lat="42.73806" lon="1.47222">
        <ele>1177</ele>
        <time>2020-08-05T15:29:19Z</time>
      </trkpt>
      <trkpt lat="42.73803" lon="1.47234">
        <ele>1175.8</ele>
        <time>2020-08-05T15:29:21Z</time>
      </trkpt>
      <trkpt lat="42.73801" lon="1.47239">
        <ele>1175.2</ele>
        <time>2020-08-05T15:29:22Z</time>
      </trkpt>
      <trkpt lat="42.73798" lon="1.47244">
        <ele>1174.4</ele>
        <time>2020-08-05T15:29:23Z</time>
      </trkpt>
      <trkpt lat="42.73793" lon="1.47251">
        <ele>1173.4</ele>
        <time>2020-08-05T15:29:25Z</time>
      </trkpt>
      <trkpt lat="42.7379" lon="1.47256">
        <ele>1172.6</ele>
        <time>2020-08-05T15:29:26Z</time>
      </trkpt>
      <trkpt lat="42.73787" lon="1.47263">
        <ele>1171.8</ele>
        <time>2020-08-05T15:29:27Z</time>
      </trkpt>
      <trkpt lat="42.73783" lon="1.47267">
        <ele>1171</ele>
        <time>2020-08-05T15:29:28Z</time>
      </trkpt>
      <trkpt lat="42.73781" lon="1.47271">
        <ele>1170.2</ele>
        <time>2020-08-05T15:29:29Z</time>
      </trkpt>
      <trkpt lat="42.73779" lon="1.47274">
        <ele>1169.6</ele>
        <time>2020-08-05T15:29:30Z</time>
      </trkpt>
      <trkpt lat="42.73776" lon="1.47277">
        <ele>1169</ele>
        <time>2020-08-05T15:29:31Z</time>
      </trkpt>
      <trkpt lat="42.73772" lon="1.47283">
        <ele>1167.8</ele>
        <time>2020-08-05T15:29:33Z</time>
      </trkpt>
      <trkpt lat="42.73767" lon="1.47291">
        <ele>1166.8</ele>
        <time>2020-08-05T15:29:35Z</time>
      </trkpt>
      <trkpt lat="42.73761" lon="1.47299">
        <ele>1165.6</ele>
        <time>2020-08-05T15:29:38Z</time>
      </trkpt>
      <trkpt lat="42.73762" lon="1.47298">
        <ele>1165.4</ele>
        <time>2020-08-05T15:29:39Z</time>
      </trkpt>
      <trkpt lat="42.7376" lon="1.47302">
        <ele>1164.6</ele>
        <time>2020-08-05T15:29:45Z</time>
      </trkpt>
      <trkpt lat="42.73759" lon="1.47302">
        <ele>1164.4</ele>
        <time>2020-08-05T15:29:46Z</time>
      </trkpt>
      <trkpt lat="42.73755" lon="1.4731">
        <ele>1163.6</ele>
        <time>2020-08-05T15:29:49Z</time>
      </trkpt>
      <trkpt lat="42.73754" lon="1.47314">
        <ele>1163.2</ele>
        <time>2020-08-05T15:29:51Z</time>
      </trkpt>
      <trkpt lat="42.73751" lon="1.47317">
        <ele>1162.4</ele>
        <time>2020-08-05T15:29:53Z</time>
      </trkpt>
      <trkpt lat="42.7375" lon="1.47319">
        <ele>1162</ele>
        <time>2020-08-05T15:29:54Z</time>
      </trkpt>
      <trkpt lat="42.73749" lon="1.4732">
        <ele>1161.6</ele>
        <time>2020-08-05T15:29:58Z</time>
      </trkpt>
      <trkpt lat="42.7375" lon="1.47319">
        <ele>1161.6</ele>
        <time>2020-08-05T15:30:07Z</time>
      </trkpt>
      <trkpt lat="42.7375" lon="1.47319">
        <ele>1161</ele>
        <time>2020-08-05T15:30:09Z</time>
      </trkpt>
      <trkpt lat="42.7375" lon="1.47321">
        <ele>1159.8</ele>
        <time>2020-08-05T15:30:14Z</time>
      </trkpt>
      <trkpt lat="42.7375" lon="1.47321">
        <ele>1159</ele>
        <time>2020-08-05T15:30:16Z</time>
      </trkpt>
      <trkpt lat="42.73752" lon="1.47322">
        <ele>1158.8</ele>
        <time>2020-08-05T15:30:17Z</time>
      </trkpt>
      <trkpt lat="42.73753" lon="1.47322">
        <ele>1158.8</ele>
        <time>2020-08-05T15:30:21Z</time>
      </trkpt>
      <trkpt lat="42.73757" lon="1.47318">
        <ele>1159</ele>
        <time>2020-08-05T15:30:27Z</time>
      </trkpt>
      <trkpt lat="42.73763" lon="1.47312">
        <ele>1159</ele>
        <time>2020-08-05T15:30:31Z</time>
      </trkpt>
      <trkpt lat="42.73765" lon="1.47309">
        <ele>1158.8</ele>
        <time>2020-08-05T15:30:33Z</time>
      </trkpt>
      <trkpt lat="42.73773" lon="1.47302">
        <ele>1159.6</ele>
        <time>2020-08-05T15:30:40Z</time>
      </trkpt>
      <trkpt lat="42.73779" lon="1.47296">
        <ele>1159.8</ele>
        <time>2020-08-05T15:30:45Z</time>
      </trkpt>
      <trkpt lat="42.73781" lon="1.47294">
        <ele>1159.8</ele>
        <time>2020-08-05T15:30:46Z</time>
      </trkpt>
      <trkpt lat="42.73789" lon="1.47287">
        <ele>1160.8</ele>
        <time>2020-08-05T15:30:51Z</time>
      </trkpt>
      <trkpt lat="42.73793" lon="1.47282">
        <ele>1161</ele>
        <time>2020-08-05T15:30:52Z</time>
      </trkpt>
      <trkpt lat="42.73799" lon="1.47273">
        <ele>1161.8</ele>
        <time>2020-08-05T15:30:58Z</time>
      </trkpt>
      <trkpt lat="42.73801" lon="1.47271">
        <ele>1161.8</ele>
        <time>2020-08-05T15:30:59Z</time>
      </trkpt>
      <trkpt lat="42.73805" lon="1.47261">
        <ele>1162</ele>
        <time>2020-08-05T15:31:04Z</time>
      </trkpt>
      <trkpt lat="42.73807" lon="1.47254">
        <ele>1162</ele>
        <time>2020-08-05T15:31:06Z</time>
      </trkpt>
      <trkpt lat="42.73812" lon="1.47247">
        <ele>1162</ele>
        <time>2020-08-05T15:31:09Z</time>
      </trkpt>
      <trkpt lat="42.73814" lon="1.47244">
        <ele>1162.2</ele>
        <time>2020-08-05T15:31:10Z</time>
      </trkpt>
      <trkpt lat="42.73821" lon="1.4723">
        <ele>1162.4</ele>
        <time>2020-08-05T15:31:14Z</time>
      </trkpt>
      <trkpt lat="42.73826" lon="1.47216">
        <ele>1162.2</ele>
        <time>2020-08-05T15:31:19Z</time>
      </trkpt>
      <trkpt lat="42.73841" lon="1.47198">
        <ele>1162.4</ele>
        <time>2020-08-05T15:31:25Z</time>
      </trkpt>
      <trkpt lat="42.73844" lon="1.47193">
        <ele>1163</ele>
        <time>2020-08-05T15:31:27Z</time>
      </trkpt>
      <trkpt lat="42.73849" lon="1.47185">
        <ele>1162.8</ele>
        <time>2020-08-05T15:31:31Z</time>
      </trkpt>
      <trkpt lat="42.7385" lon="1.47184">
        <ele>1163</ele>
        <time>2020-08-05T15:31:32Z</time>
      </trkpt>
      <trkpt lat="42.73856" lon="1.47182">
        <ele>1163.2</ele>
        <time>2020-08-05T15:31:36Z</time>
      </trkpt>
      <trkpt lat="42.73866" lon="1.47183">
        <ele>1164.2</ele>
        <time>2020-08-05T15:31:41Z</time>
      </trkpt>
      <trkpt lat="42.73868" lon="1.47183">
        <ele>1164.2</ele>
        <time>2020-08-05T15:31:42Z</time>
      </trkpt>
      <trkpt lat="42.73874" lon="1.47182">
        <ele>1165.2</ele>
        <time>2020-08-05T15:31:48Z</time>
      </trkpt>
      <trkpt lat="42.73874" lon="1.47182">
        <ele>1165.2</ele>
        <time>2020-08-05T15:31:49Z</time>
      </trkpt>
      <trkpt lat="42.73874" lon="1.47182">
        <ele>1165</ele>
        <time>2020-08-05T15:32:04Z</time>
      </trkpt>
      <trkpt lat="42.7388" lon="1.47182">
        <ele>1165.4</ele>
        <time>2020-08-05T15:32:12Z</time>
      </trkpt>
      <trkpt lat="42.73885" lon="1.47178">
        <ele>1166.2</ele>
        <time>2020-08-05T15:32:16Z</time>
      </trkpt>
      <trkpt lat="42.73891" lon="1.47177">
        <ele>1166.6</ele>
        <time>2020-08-05T15:32:18Z</time>
      </trkpt>
      <trkpt lat="42.73897" lon="1.47176">
        <ele>1167.2</ele>
        <time>2020-08-05T15:32:23Z</time>
      </trkpt>
      <trkpt lat="42.73903" lon="1.47178">
        <ele>1168</ele>
        <time>2020-08-05T15:32:26Z</time>
      </trkpt>
      <trkpt lat="42.73908" lon="1.47181">
        <ele>1168.4</ele>
        <time>2020-08-05T15:32:29Z</time>
      </trkpt>
      <trkpt lat="42.73912" lon="1.47182">
        <ele>1169.4</ele>
        <time>2020-08-05T15:32:32Z</time>
      </trkpt>
      <trkpt lat="42.73913" lon="1.47181">
        <ele>1169.6</ele>
        <time>2020-08-05T15:32:33Z</time>
      </trkpt>
      <trkpt lat="42.7392" lon="1.4718">
        <ele>1170.4</ele>
        <time>2020-08-05T15:32:37Z</time>
      </trkpt>
      <trkpt lat="42.73922" lon="1.4718">
        <ele>1170.6</ele>
        <time>2020-08-05T15:32:38Z</time>
      </trkpt>
      <trkpt lat="42.7393" lon="1.4718">
        <ele>1171.4</ele>
        <time>2020-08-05T15:32:43Z</time>
      </trkpt>
      <trkpt lat="42.73937" lon="1.47181">
        <ele>1171.8</ele>
        <time>2020-08-05T15:32:47Z</time>
      </trkpt>
      <trkpt lat="42.73941" lon="1.47182">
        <ele>1171.8</ele>
        <time>2020-08-05T15:32:49Z</time>
      </trkpt>
      <trkpt lat="42.73952" lon="1.4718">
        <ele>1172.2</ele>
        <time>2020-08-05T15:32:55Z</time>
      </trkpt>
      <trkpt lat="42.73954" lon="1.4718">
        <ele>1172.2</ele>
        <time>2020-08-05T15:32:56Z</time>
      </trkpt>
      <trkpt lat="42.73961" lon="1.4718">
        <ele>1172.6</ele>
        <time>2020-08-05T15:33:00Z</time>
      </trkpt>
      <trkpt lat="42.73968" lon="1.47181">
        <ele>1172.8</ele>
        <time>2020-08-05T15:33:03Z</time>
      </trkpt>
      <trkpt lat="42.73971" lon="1.47182">
        <ele>1173</ele>
        <time>2020-08-05T15:33:05Z</time>
      </trkpt>
      <trkpt lat="42.73974" lon="1.47181">
        <ele>1173.4</ele>
        <time>2020-08-05T15:33:07Z</time>
      </trkpt>
      <trkpt lat="42.73979" lon="1.47182">
        <ele>1173.8</ele>
        <time>2020-08-05T15:33:10Z</time>
      </trkpt>
      <trkpt lat="42.7398" lon="1.47182">
        <ele>1173.8</ele>
        <time>2020-08-05T15:33:11Z</time>
      </trkpt>
      <trkpt lat="42.73982" lon="1.47181">
        <ele>1174</ele>
        <time>2020-08-05T15:33:12Z</time>
      </trkpt>
      <trkpt lat="42.73987" lon="1.47182">
        <ele>1174.4</ele>
        <time>2020-08-05T15:33:16Z</time>
      </trkpt>
      <trkpt lat="42.73991" lon="1.47182">
        <ele>1175.2</ele>
        <time>2020-08-05T15:33:19Z</time>
      </trkpt>
      <trkpt lat="42.73995" lon="1.47182">
        <ele>1176</ele>
        <time>2020-08-05T15:33:22Z</time>
      </trkpt>
      <trkpt lat="42.73998" lon="1.47181">
        <ele>1176.6</ele>
        <time>2020-08-05T15:33:24Z</time>
      </trkpt>
      <trkpt lat="42.74001" lon="1.47182">
        <ele>1177.4</ele>
        <time>2020-08-05T15:33:28Z</time>
      </trkpt>
      <trkpt lat="42.74002" lon="1.47182">
        <ele>1177.6</ele>
        <time>2020-08-05T15:33:31Z</time>
      </trkpt>
      <trkpt lat="42.74005" lon="1.47181">
        <ele>1178.4</ele>
        <time>2020-08-05T15:33:34Z</time>
      </trkpt>
      <trkpt lat="42.74006" lon="1.47182">
        <ele>1178.6</ele>
        <time>2020-08-05T15:33:35Z</time>
      </trkpt>
      <trkpt lat="42.74009" lon="1.47183">
        <ele>1179.6</ele>
        <time>2020-08-05T15:33:40Z</time>
      </trkpt>
      <trkpt lat="42.7401" lon="1.47183">
        <ele>1179.8</ele>
        <time>2020-08-05T15:33:41Z</time>
      </trkpt>
      <trkpt lat="42.74011" lon="1.47183">
        <ele>1180.4</ele>
        <time>2020-08-05T15:33:48Z</time>
      </trkpt>
      <trkpt lat="42.74012" lon="1.47183">
        <ele>1181</ele>
        <time>2020-08-05T15:33:53Z</time>
      </trkpt>
      <trkpt lat="42.74014" lon="1.47183">
        <ele>1181.4</ele>
        <time>2020-08-05T15:33:55Z</time>
      </trkpt>
      <trkpt lat="42.74015" lon="1.47183">
        <ele>1182</ele>
        <time>2020-08-05T15:33:58Z</time>
      </trkpt>
      <trkpt lat="42.74018" lon="1.47182">
        <ele>1182.8</ele>
        <time>2020-08-05T15:34:03Z</time>
      </trkpt>
      <trkpt lat="42.74021" lon="1.47181">
        <ele>1183</ele>
        <time>2020-08-05T15:34:05Z</time>
      </trkpt>
      <trkpt lat="42.74022" lon="1.47179">
        <ele>1183.4</ele>
        <time>2020-08-05T15:34:08Z</time>
      </trkpt>
      <trkpt lat="42.74024" lon="1.47177">
        <ele>1183.6</ele>
        <time>2020-08-05T15:34:14Z</time>
      </trkpt>
      <trkpt lat="42.7403" lon="1.47173">
        <ele>1183.6</ele>
        <time>2020-08-05T15:34:20Z</time>
      </trkpt>
      <trkpt lat="42.74035" lon="1.47166">
        <ele>1183.4</ele>
        <time>2020-08-05T15:34:24Z</time>
      </trkpt>
      <trkpt lat="42.74038" lon="1.47157">
        <ele>1183.4</ele>
        <time>2020-08-05T15:34:28Z</time>
      </trkpt>
      <trkpt lat="42.74045" lon="1.4714">
        <ele>1183.6</ele>
        <time>2020-08-05T15:34:35Z</time>
      </trkpt>
      <trkpt lat="42.74055" lon="1.47128">
        <ele>1184</ele>
        <time>2020-08-05T15:34:41Z</time>
      </trkpt>
      <trkpt lat="42.74064" lon="1.4712">
        <ele>1183.8</ele>
        <time>2020-08-05T15:34:47Z</time>
      </trkpt>
      <trkpt lat="42.74066" lon="1.4712">
        <ele>1184.2</ele>
        <time>2020-08-05T15:34:50Z</time>
      </trkpt>
      <trkpt lat="42.74071" lon="1.4712">
        <ele>1184.4</ele>
        <time>2020-08-05T15:34:53Z</time>
      </trkpt>
      <trkpt lat="42.74078" lon="1.47119">
        <ele>1184.2</ele>
        <time>2020-08-05T15:34:56Z</time>
      </trkpt>
      <trkpt lat="42.74086" lon="1.47118">
        <ele>1184</ele>
        <time>2020-08-05T15:34:59Z</time>
      </trkpt>
      <trkpt lat="42.74098" lon="1.47115">
        <ele>1184</ele>
        <time>2020-08-05T15:35:05Z</time>
      </trkpt>
      <trkpt lat="42.74108" lon="1.4711">
        <ele>1184.4</ele>
        <time>2020-08-05T15:35:10Z</time>
      </trkpt>
      <trkpt lat="42.74127" lon="1.47097">
        <ele>1184.6</ele>
        <time>2020-08-05T15:35:17Z</time>
      </trkpt>
      <trkpt lat="42.74136" lon="1.47092">
        <ele>1184.6</ele>
        <time>2020-08-05T15:35:20Z</time>
      </trkpt>
      <trkpt lat="42.74143" lon="1.47088">
        <ele>1184.6</ele>
        <time>2020-08-05T15:35:23Z</time>
      </trkpt>
      <trkpt lat="42.74152" lon="1.47088">
        <ele>1184.6</ele>
        <time>2020-08-05T15:35:26Z</time>
      </trkpt>
      <trkpt lat="42.74155" lon="1.47087">
        <ele>1184.8</ele>
        <time>2020-08-05T15:35:27Z</time>
      </trkpt>
      <trkpt lat="42.7417" lon="1.47085">
        <ele>1185.2</ele>
        <time>2020-08-05T15:35:32Z</time>
      </trkpt>
      <trkpt lat="42.74188" lon="1.47083">
        <ele>1185.4</ele>
        <time>2020-08-05T15:35:37Z</time>
      </trkpt>
      <trkpt lat="42.742" lon="1.47079">
        <ele>1185.6</ele>
        <time>2020-08-05T15:35:42Z</time>
      </trkpt>
      <trkpt lat="42.74205" lon="1.47078">
        <ele>1186.2</ele>
        <time>2020-08-05T15:35:47Z</time>
      </trkpt>
      <trkpt lat="42.74209" lon="1.47078">
        <ele>1186.2</ele>
        <time>2020-08-05T15:35:51Z</time>
      </trkpt>
      <trkpt lat="42.74212" lon="1.47077">
        <ele>1186.4</ele>
        <time>2020-08-05T15:35:53Z</time>
      </trkpt>
      <trkpt lat="42.74222" lon="1.47075">
        <ele>1187.2</ele>
        <time>2020-08-05T15:35:58Z</time>
      </trkpt>
      <trkpt lat="42.74232" lon="1.47066">
        <ele>1187.4</ele>
        <time>2020-08-05T15:36:03Z</time>
      </trkpt>
      <trkpt lat="42.74234" lon="1.47062">
        <ele>1187.6</ele>
        <time>2020-08-05T15:36:04Z</time>
      </trkpt>
      <trkpt lat="42.74238" lon="1.4705">
        <ele>1187.8</ele>
        <time>2020-08-05T15:36:10Z</time>
      </trkpt>
      <trkpt lat="42.74237" lon="1.47046">
        <ele>1188.4</ele>
        <time>2020-08-05T15:36:15Z</time>
      </trkpt>
      <trkpt lat="42.74237" lon="1.47045">
        <ele>1188.6</ele>
        <time>2020-08-05T15:36:16Z</time>
      </trkpt>
      <trkpt lat="42.74238" lon="1.47041">
        <ele>1188.4</ele>
        <time>2020-08-05T15:36:22Z</time>
      </trkpt>
      <trkpt lat="42.74239" lon="1.47032">
        <ele>1188.4</ele>
        <time>2020-08-05T15:36:28Z</time>
      </trkpt>
      <trkpt lat="42.74239" lon="1.47032">
        <ele>1188.4</ele>
        <time>2020-08-05T15:36:33Z</time>
      </trkpt>
      <trkpt lat="42.74239" lon="1.47032">
        <ele>1188.6</ele>
        <time>2020-08-05T15:36:49Z</time>
      </trkpt>
      <trkpt lat="42.74239" lon="1.47032">
        <ele>1188.4</ele>
        <time>2020-08-05T15:37:05Z</time>
      </trkpt>
      <trkpt lat="42.74239" lon="1.47032">
        <ele>1188.2</ele>
        <time>2020-08-05T15:37:19Z</time>
      </trkpt>
      <trkpt lat="42.74239" lon="1.47032">
        <ele>1188.4</ele>
        <time>2020-08-05T15:37:35Z</time>
      </trkpt>
      <trkpt lat="42.74239" lon="1.47032">
        <ele>1188.4</ele>
        <time>2020-08-05T15:37:48Z</time>
      </trkpt>
      <trkpt lat="42.74239" lon="1.47032">
        <ele>1188.4</ele>
        <time>2020-08-05T15:37:55Z</time>
      </trkpt>
      <trkpt lat="42.74239" lon="1.47032">
        <ele>1188.4</ele>
        <time>2020-08-05T15:38:03Z</time>
      </trkpt>
      <trkpt lat="42.74239" lon="1.47032">
        <ele>1188.4</ele>
        <time>2020-08-05T15:38:19Z</time>
      </trkpt>
      <trkpt lat="42.7424" lon="1.47029">
        <ele>1188.4</ele>
        <time>2020-08-05T15:38:21Z</time>
      </trkpt>
      <trkpt lat="42.74239" lon="1.47026">
        <ele>1188.6</ele>
        <time>2020-08-05T15:38:23Z</time>
      </trkpt>
      <trkpt lat="42.74239" lon="1.47025">
        <ele>1188.6</ele>
        <time>2020-08-05T15:38:29Z</time>
      </trkpt>
      <trkpt lat="42.74239" lon="1.47025">
        <ele>1188.6</ele>
        <time>2020-08-05T15:38:45Z</time>
      </trkpt>
      <trkpt lat="42.74237" lon="1.47016">
        <ele>1188.6</ele>
        <time>2020-08-05T15:38:49Z</time>
      </trkpt>
      <trkpt lat="42.74228" lon="1.46991">
        <ele>1188.4</ele>
        <time>2020-08-05T15:38:55Z</time>
      </trkpt>
      <trkpt lat="42.74224" lon="1.46986">
        <ele>1188.4</ele>
        <time>2020-08-05T15:38:59Z</time>
      </trkpt>
      <trkpt lat="42.74223" lon="1.46984">
        <ele>1188.2</ele>
        <time>2020-08-05T15:39:00Z</time>
      </trkpt>
      <trkpt lat="42.74217" lon="1.46977">
        <ele>1188.4</ele>
        <time>2020-08-05T15:39:04Z</time>
      </trkpt>
      <trkpt lat="42.74216" lon="1.46976">
        <ele>1188.2</ele>
        <time>2020-08-05T15:39:10Z</time>
      </trkpt>
      <trkpt lat="42.74209" lon="1.46969">
        <ele>1188.4</ele>
        <time>2020-08-05T15:39:15Z</time>
      </trkpt>
      <trkpt lat="42.742" lon="1.46948">
        <ele>1188.4</ele>
        <time>2020-08-05T15:39:21Z</time>
      </trkpt>
      <trkpt lat="42.74188" lon="1.46931">
        <ele>1188.2</ele>
        <time>2020-08-05T15:39:26Z</time>
      </trkpt>
      <trkpt lat="42.74175" lon="1.46908">
        <ele>1188</ele>
        <time>2020-08-05T15:39:32Z</time>
      </trkpt>
      <trkpt lat="42.74169" lon="1.46886">
        <ele>1188</ele>
        <time>2020-08-05T15:39:37Z</time>
      </trkpt>
      <trkpt lat="42.74162" lon="1.46869">
        <ele>1188</ele>
        <time>2020-08-05T15:39:42Z</time>
      </trkpt>
      <trkpt lat="42.7415" lon="1.46841">
        <ele>1188</ele>
        <time>2020-08-05T15:39:47Z</time>
      </trkpt>
      <trkpt lat="42.74133" lon="1.46814">
        <ele>1187.8</ele>
        <time>2020-08-05T15:39:52Z</time>
      </trkpt>
      <trkpt lat="42.74113" lon="1.46794">
        <ele>1188</ele>
        <time>2020-08-05T15:39:57Z</time>
      </trkpt>
      <trkpt lat="42.74095" lon="1.46782">
        <ele>1188</ele>
        <time>2020-08-05T15:40:01Z</time>
      </trkpt>
      <trkpt lat="42.74086" lon="1.46777">
        <ele>1187.8</ele>
        <time>2020-08-05T15:40:03Z</time>
      </trkpt>
      <trkpt lat="42.74074" lon="1.46775">
        <ele>1187.6</ele>
        <time>2020-08-05T15:40:07Z</time>
      </trkpt>
      <trkpt lat="42.74055" lon="1.46787">
        <ele>1187.6</ele>
        <time>2020-08-05T15:40:13Z</time>
      </trkpt>
      <trkpt lat="42.74038" lon="1.46789">
        <ele>1187.6</ele>
        <time>2020-08-05T15:40:18Z</time>
      </trkpt>
      <trkpt lat="42.74034" lon="1.46788">
        <ele>1187.4</ele>
        <time>2020-08-05T15:40:19Z</time>
      </trkpt>
      <trkpt lat="42.74028" lon="1.46782">
        <ele>1187.4</ele>
        <time>2020-08-05T15:40:22Z</time>
      </trkpt>
      <trkpt lat="42.74027" lon="1.46781">
        <ele>1187.2</ele>
        <time>2020-08-05T15:40:26Z</time>
      </trkpt>
      <trkpt lat="42.74025" lon="1.46779">
        <ele>1187.2</ele>
        <time>2020-08-05T15:40:32Z</time>
      </trkpt>
      <trkpt lat="42.74015" lon="1.46772">
        <ele>1187.4</ele>
        <time>2020-08-05T15:40:40Z</time>
      </trkpt>
      <trkpt lat="42.74008" lon="1.46768">
        <ele>1187.2</ele>
        <time>2020-08-05T15:40:46Z</time>
      </trkpt>
      <trkpt lat="42.74006" lon="1.46764">
        <ele>1187.2</ele>
        <time>2020-08-05T15:40:54Z</time>
      </trkpt>
      <trkpt lat="42.74004" lon="1.46761">
        <ele>1187.2</ele>
        <time>2020-08-05T15:40:55Z</time>
      </trkpt>
      <trkpt lat="42.73993" lon="1.46749">
        <ele>1187.2</ele>
        <time>2020-08-05T15:41:00Z</time>
      </trkpt>
      <trkpt lat="42.7398" lon="1.46734">
        <ele>1187.4</ele>
        <time>2020-08-05T15:41:05Z</time>
      </trkpt>
      <trkpt lat="42.73977" lon="1.46731">
        <ele>1187.2</ele>
        <time>2020-08-05T15:41:06Z</time>
      </trkpt>
      <trkpt lat="42.73967" lon="1.46715">
        <ele>1187</ele>
        <time>2020-08-05T15:41:11Z</time>
      </trkpt>
      <trkpt lat="42.73954" lon="1.46695">
        <ele>1186.8</ele>
        <time>2020-08-05T15:41:17Z</time>
      </trkpt>
      <trkpt lat="42.73947" lon="1.46689">
        <ele>1186.4</ele>
        <time>2020-08-05T15:41:20Z</time>
      </trkpt>
      <trkpt lat="42.73937" lon="1.4668">
        <ele>1186.6</ele>
        <time>2020-08-05T15:41:23Z</time>
      </trkpt>
      <trkpt lat="42.73927" lon="1.46673">
        <ele>1186.6</ele>
        <time>2020-08-05T15:41:28Z</time>
      </trkpt>
      <trkpt lat="42.73925" lon="1.46668">
        <ele>1186.8</ele>
        <time>2020-08-05T15:41:32Z</time>
      </trkpt>
      <trkpt lat="42.73923" lon="1.46662">
        <ele>1186.8</ele>
        <time>2020-08-05T15:41:34Z</time>
      </trkpt>
      <trkpt lat="42.73918" lon="1.4665">
        <ele>1186.6</ele>
        <time>2020-08-05T15:41:38Z</time>
      </trkpt>
      <trkpt lat="42.73916" lon="1.46649">
        <ele>1186.6</ele>
        <time>2020-08-05T15:41:39Z</time>
      </trkpt>
      <trkpt lat="42.73907" lon="1.46642">
        <ele>1186.6</ele>
        <time>2020-08-05T15:41:43Z</time>
      </trkpt>
      <trkpt lat="42.73901" lon="1.46641">
        <ele>1186.6</ele>
        <time>2020-08-05T15:41:45Z</time>
      </trkpt>
      <trkpt lat="42.73896" lon="1.46641">
        <ele>1186.4</ele>
        <time>2020-08-05T15:41:47Z</time>
      </trkpt>
      <trkpt lat="42.73895" lon="1.46641">
        <ele>1186.4</ele>
        <time>2020-08-05T15:41:48Z</time>
      </trkpt>
      <trkpt lat="42.7389" lon="1.46638">
        <ele>1186.6</ele>
        <time>2020-08-05T15:41:54Z</time>
      </trkpt>
      <trkpt lat="42.73883" lon="1.4663">
        <ele>1186.4</ele>
        <time>2020-08-05T15:42:02Z</time>
      </trkpt>
      <trkpt lat="42.73882" lon="1.46627">
        <ele>1186.4</ele>
        <time>2020-08-05T15:42:08Z</time>
      </trkpt>
      <trkpt lat="42.7388" lon="1.46625">
        <ele>1186.2</ele>
        <time>2020-08-05T15:42:13Z</time>
      </trkpt>
      <trkpt lat="42.73877" lon="1.4662">
        <ele>1186.2</ele>
        <time>2020-08-05T15:42:18Z</time>
      </trkpt>
      <trkpt lat="42.7387" lon="1.46611">
        <ele>1186</ele>
        <time>2020-08-05T15:42:22Z</time>
      </trkpt>
      <trkpt lat="42.73868" lon="1.46605">
        <ele>1186.2</ele>
        <time>2020-08-05T15:42:24Z</time>
      </trkpt>
      <trkpt lat="42.73866" lon="1.466">
        <ele>1186.2</ele>
        <time>2020-08-05T15:42:26Z</time>
      </trkpt>
      <trkpt lat="42.73858" lon="1.46589">
        <ele>1186.2</ele>
        <time>2020-08-05T15:42:30Z</time>
      </trkpt>
      <trkpt lat="42.73838" lon="1.46569">
        <ele>1185.8</ele>
        <time>2020-08-05T15:42:36Z</time>
      </trkpt>
      <trkpt lat="42.73831" lon="1.46558">
        <ele>1186</ele>
        <time>2020-08-05T15:42:40Z</time>
      </trkpt>
      <trkpt lat="42.73828" lon="1.46538">
        <ele>1185.8</ele>
        <time>2020-08-05T15:42:45Z</time>
      </trkpt>
      <trkpt lat="42.73818" lon="1.46524">
        <ele>1186</ele>
        <time>2020-08-05T15:42:49Z</time>
      </trkpt>
      <trkpt lat="42.73805" lon="1.46511">
        <ele>1186.2</ele>
        <time>2020-08-05T15:42:54Z</time>
      </trkpt>
      <trkpt lat="42.73797" lon="1.46495">
        <ele>1186</ele>
        <time>2020-08-05T15:42:58Z</time>
      </trkpt>
      <trkpt lat="42.73795" lon="1.46491">
        <ele>1186.2</ele>
        <time>2020-08-05T15:43:02Z</time>
      </trkpt>
      <trkpt lat="42.73795" lon="1.4649">
        <ele>1186.2</ele>
        <time>2020-08-05T15:43:07Z</time>
      </trkpt>
      <trkpt lat="42.73789" lon="1.46487">
        <ele>1186.2</ele>
        <time>2020-08-05T15:43:13Z</time>
      </trkpt>
      <trkpt lat="42.73784" lon="1.46485">
        <ele>1185.8</ele>
        <time>2020-08-05T15:43:20Z</time>
      </trkpt>
      <trkpt lat="42.73771" lon="1.46484">
        <ele>1185.8</ele>
        <time>2020-08-05T15:43:25Z</time>
      </trkpt>
      <trkpt lat="42.73764" lon="1.46499">
        <ele>1186</ele>
        <time>2020-08-05T15:43:29Z</time>
      </trkpt>
      <trkpt lat="42.73753" lon="1.46515">
        <ele>1185.8</ele>
        <time>2020-08-05T15:43:34Z</time>
      </trkpt>
      <trkpt lat="42.73742" lon="1.46519">
        <ele>1185.8</ele>
        <time>2020-08-05T15:43:37Z</time>
      </trkpt>
      <trkpt lat="42.73735" lon="1.46521">
        <ele>1185.8</ele>
        <time>2020-08-05T15:43:39Z</time>
      </trkpt>
      <trkpt lat="42.73715" lon="1.46522">
        <ele>1185.8</ele>
        <time>2020-08-05T15:43:45Z</time>
      </trkpt>
      <trkpt lat="42.73698" lon="1.4651">
        <ele>1185.6</ele>
        <time>2020-08-05T15:43:52Z</time>
      </trkpt>
      <trkpt lat="42.73692" lon="1.46503">
        <ele>1185.4</ele>
        <time>2020-08-05T15:43:54Z</time>
      </trkpt>
      <trkpt lat="42.73686" lon="1.46494">
        <ele>1185.4</ele>
        <time>2020-08-05T15:43:57Z</time>
      </trkpt>
      <trkpt lat="42.73674" lon="1.46477">
        <ele>1185</ele>
        <time>2020-08-05T15:44:03Z</time>
      </trkpt>
      <trkpt lat="42.73658" lon="1.46468">
        <ele>1184.8</ele>
        <time>2020-08-05T15:44:08Z</time>
      </trkpt>
      <trkpt lat="42.73642" lon="1.46462">
        <ele>1184.8</ele>
        <time>2020-08-05T15:44:14Z</time>
      </trkpt>
      <trkpt lat="42.73624" lon="1.46446">
        <ele>1184.6</ele>
        <time>2020-08-05T15:44:20Z</time>
      </trkpt>
      <trkpt lat="42.73607" lon="1.46438">
        <ele>1184.6</ele>
        <time>2020-08-05T15:44:25Z</time>
      </trkpt>
      <trkpt lat="42.73591" lon="1.4643">
        <ele>1184.4</ele>
        <time>2020-08-05T15:44:30Z</time>
      </trkpt>
      <trkpt lat="42.73588" lon="1.46428">
        <ele>1184.4</ele>
        <time>2020-08-05T15:44:31Z</time>
      </trkpt>
      <trkpt lat="42.7357" lon="1.4642">
        <ele>1184.2</ele>
        <time>2020-08-05T15:44:37Z</time>
      </trkpt>
      <trkpt lat="42.73556" lon="1.46404">
        <ele>1184</ele>
        <time>2020-08-05T15:44:42Z</time>
      </trkpt>
      <trkpt lat="42.73546" lon="1.46395">
        <ele>1184</ele>
        <time>2020-08-05T15:44:46Z</time>
      </trkpt>
      <trkpt lat="42.73532" lon="1.46387">
        <ele>1184.2</ele>
        <time>2020-08-05T15:44:52Z</time>
      </trkpt>
      <trkpt lat="42.73518" lon="1.46394">
        <ele>1184</ele>
        <time>2020-08-05T15:44:57Z</time>
      </trkpt>
      <trkpt lat="42.73511" lon="1.46394">
        <ele>1184.2</ele>
        <time>2020-08-05T15:44:59Z</time>
      </trkpt>
      <trkpt lat="42.73506" lon="1.46392">
        <ele>1184.2</ele>
        <time>2020-08-05T15:45:01Z</time>
      </trkpt>
      <trkpt lat="42.73488" lon="1.4639">
        <ele>1184</ele>
        <time>2020-08-05T15:45:06Z</time>
      </trkpt>
      <trkpt lat="42.73478" lon="1.46385">
        <ele>1184</ele>
        <time>2020-08-05T15:45:10Z</time>
      </trkpt>
      <trkpt lat="42.73472" lon="1.4638">
        <ele>1184</ele>
        <time>2020-08-05T15:45:12Z</time>
      </trkpt>
      <trkpt lat="42.73462" lon="1.46369">
        <ele>1184</ele>
        <time>2020-08-05T15:45:16Z</time>
      </trkpt>
      <trkpt lat="42.73453" lon="1.46356">
        <ele>1184</ele>
        <time>2020-08-05T15:45:20Z</time>
      </trkpt>
      <trkpt lat="42.7345" lon="1.46352">
        <ele>1184</ele>
        <time>2020-08-05T15:45:21Z</time>
      </trkpt>
      <trkpt lat="42.73433" lon="1.46337">
        <ele>1183.4</ele>
        <time>2020-08-05T15:45:26Z</time>
      </trkpt>
      <trkpt lat="42.7343" lon="1.46335">
        <ele>1183.6</ele>
        <time>2020-08-05T15:45:27Z</time>
      </trkpt>
      <trkpt lat="42.73414" lon="1.46329">
        <ele>1183.6</ele>
        <time>2020-08-05T15:45:32Z</time>
      </trkpt>
      <trkpt lat="42.73412" lon="1.46329">
        <ele>1183.6</ele>
        <time>2020-08-05T15:45:35Z</time>
      </trkpt>
      <trkpt lat="42.73402" lon="1.46321">
        <ele>1183.6</ele>
        <time>2020-08-05T15:45:39Z</time>
      </trkpt>
      <trkpt lat="42.73396" lon="1.46317">
        <ele>1183.6</ele>
        <time>2020-08-05T15:45:41Z</time>
      </trkpt>
      <trkpt lat="42.73388" lon="1.46314">
        <ele>1183.4</ele>
        <time>2020-08-05T15:45:43Z</time>
      </trkpt>
      <trkpt lat="42.73384" lon="1.46313">
        <ele>1183.4</ele>
        <time>2020-08-05T15:45:44Z</time>
      </trkpt>
      <trkpt lat="42.73373" lon="1.46316">
        <ele>1183.4</ele>
        <time>2020-08-05T15:45:47Z</time>
      </trkpt>
      <trkpt lat="42.73363" lon="1.46312">
        <ele>1183.4</ele>
        <time>2020-08-05T15:45:50Z</time>
      </trkpt>
      <trkpt lat="42.73361" lon="1.4631">
        <ele>1183.2</ele>
        <time>2020-08-05T15:45:51Z</time>
      </trkpt>
      <trkpt lat="42.73358" lon="1.46309">
        <ele>1183.4</ele>
        <time>2020-08-05T15:45:55Z</time>
      </trkpt>
      <trkpt lat="42.73347" lon="1.4631">
        <ele>1183.2</ele>
        <time>2020-08-05T15:45:59Z</time>
      </trkpt>
      <trkpt lat="42.73337" lon="1.46309">
        <ele>1183</ele>
        <time>2020-08-05T15:46:04Z</time>
      </trkpt>
      <trkpt lat="42.73325" lon="1.463">
        <ele>1183.2</ele>
        <time>2020-08-05T15:46:09Z</time>
      </trkpt>
      <trkpt lat="42.73323" lon="1.46297">
        <ele>1183.2</ele>
        <time>2020-08-05T15:46:10Z</time>
      </trkpt>
      <trkpt lat="42.7332" lon="1.46291">
        <ele>1183</ele>
        <time>2020-08-05T15:46:13Z</time>
      </trkpt>
      <trkpt lat="42.73318" lon="1.46288">
        <ele>1183.2</ele>
        <time>2020-08-05T15:46:16Z</time>
      </trkpt>
      <trkpt lat="42.73317" lon="1.46287">
        <ele>1183</ele>
        <time>2020-08-05T15:46:17Z</time>
      </trkpt>
      <trkpt lat="42.7331" lon="1.46281">
        <ele>1182.8</ele>
        <time>2020-08-05T15:46:23Z</time>
      </trkpt>
      <trkpt lat="42.73298" lon="1.46276">
        <ele>1183.2</ele>
        <time>2020-08-05T15:46:30Z</time>
      </trkpt>
      <trkpt lat="42.73284" lon="1.46277">
        <ele>1183.2</ele>
        <time>2020-08-05T15:46:35Z</time>
      </trkpt>
      <trkpt lat="42.73267" lon="1.46285">
        <ele>1183.4</ele>
        <time>2020-08-05T15:46:41Z</time>
      </trkpt>
      <trkpt lat="42.73262" lon="1.46282">
        <ele>1183.4</ele>
        <time>2020-08-05T15:46:45Z</time>
      </trkpt>
      <trkpt lat="42.73262" lon="1.46282">
        <ele>1183.2</ele>
        <time>2020-08-05T15:46:53Z</time>
      </trkpt>
      <trkpt lat="42.73262" lon="1.46282">
        <ele>1183.2</ele>
        <time>2020-08-05T15:47:05Z</time>
      </trkpt>
      <trkpt lat="42.73262" lon="1.46282">
        <ele>1183.2</ele>
        <time>2020-08-05T15:47:16Z</time>
      </trkpt>
      <trkpt lat="42.73262" lon="1.46282">
        <ele>1183.2</ele>
        <time>2020-08-05T15:47:27Z</time>
      </trkpt>
      <trkpt lat="42.73258" lon="1.46279">
        <ele>1183.2</ele>
        <time>2020-08-05T15:47:32Z</time>
      </trkpt>
      <trkpt lat="42.73257" lon="1.46278">
        <ele>1183.2</ele>
        <time>2020-08-05T15:47:33Z</time>
      </trkpt>
      <trkpt lat="42.73253" lon="1.46273">
        <ele>1183</ele>
        <time>2020-08-05T15:47:39Z</time>
      </trkpt>
      <trkpt lat="42.73248" lon="1.46267">
        <ele>1182.8</ele>
        <time>2020-08-05T15:47:45Z</time>
      </trkpt>
      <trkpt lat="42.73235" lon="1.46262">
        <ele>1182.8</ele>
        <time>2020-08-05T15:47:49Z</time>
      </trkpt>
      <trkpt lat="42.7323" lon="1.46262">
        <ele>1182.6</ele>
        <time>2020-08-05T15:47:51Z</time>
      </trkpt>
      <trkpt lat="42.73224" lon="1.46265">
        <ele>1182.6</ele>
        <time>2020-08-05T15:47:53Z</time>
      </trkpt>
      <trkpt lat="42.73207" lon="1.4628">
        <ele>1182.6</ele>
        <time>2020-08-05T15:47:59Z</time>
      </trkpt>
      <trkpt lat="42.73196" lon="1.46292">
        <ele>1182.6</ele>
        <time>2020-08-05T15:48:04Z</time>
      </trkpt>
      <trkpt lat="42.73194" lon="1.46288">
        <ele>1182.8</ele>
        <time>2020-08-05T15:48:05Z</time>
      </trkpt>
      <trkpt lat="42.73191" lon="1.46284">
        <ele>1182.8</ele>
        <time>2020-08-05T15:48:07Z</time>
      </trkpt>
      <trkpt lat="42.73183" lon="1.46276">
        <ele>1182.4</ele>
        <time>2020-08-05T15:48:12Z</time>
      </trkpt>
      <trkpt lat="42.7318" lon="1.46273">
        <ele>1182.2</ele>
        <time>2020-08-05T15:48:14Z</time>
      </trkpt>
      <trkpt lat="42.73176" lon="1.4627">
        <ele>1182</ele>
        <time>2020-08-05T15:48:18Z</time>
      </trkpt>
      <trkpt lat="42.73166" lon="1.46259">
        <ele>1181.8</ele>
        <time>2020-08-05T15:48:23Z</time>
      </trkpt>
      <trkpt lat="42.73159" lon="1.46254">
        <ele>1181.6</ele>
        <time>2020-08-05T15:48:27Z</time>
      </trkpt>
      <trkpt lat="42.73154" lon="1.4625">
        <ele>1181.8</ele>
        <time>2020-08-05T15:48:29Z</time>
      </trkpt>
      <trkpt lat="42.73145" lon="1.4624">
        <ele>1181.4</ele>
        <time>2020-08-05T15:48:34Z</time>
      </trkpt>
      <trkpt lat="42.73133" lon="1.46225">
        <ele>1181.6</ele>
        <time>2020-08-05T15:48:40Z</time>
      </trkpt>
      <trkpt lat="42.73126" lon="1.46218">
        <ele>1181.4</ele>
        <time>2020-08-05T15:48:44Z</time>
      </trkpt>
      <trkpt lat="42.7311" lon="1.4621">
        <ele>1181.8</ele>
        <time>2020-08-05T15:48:50Z</time>
      </trkpt>
      <trkpt lat="42.73089" lon="1.46202">
        <ele>1181.6</ele>
        <time>2020-08-05T15:48:57Z</time>
      </trkpt>
      <trkpt lat="42.73073" lon="1.46194">
        <ele>1181.6</ele>
        <time>2020-08-05T15:49:02Z</time>
      </trkpt>
      <trkpt lat="42.73047" lon="1.46184">
        <ele>1181.6</ele>
        <time>2020-08-05T15:49:08Z</time>
      </trkpt>
      <trkpt lat="42.73042" lon="1.46184">
        <ele>1181.8</ele>
        <time>2020-08-05T15:49:09Z</time>
      </trkpt>
      <trkpt lat="42.73023" lon="1.46179">
        <ele>1181.8</ele>
        <time>2020-08-05T15:49:13Z</time>
      </trkpt>
      <trkpt lat="42.73004" lon="1.46173">
        <ele>1181.8</ele>
        <time>2020-08-05T15:49:18Z</time>
      </trkpt>
      <trkpt lat="42.73001" lon="1.46171">
        <ele>1181.8</ele>
        <time>2020-08-05T15:49:19Z</time>
      </trkpt>
      <trkpt lat="42.72992" lon="1.46168">
        <ele>1181.8</ele>
        <time>2020-08-05T15:49:22Z</time>
      </trkpt>
      <trkpt lat="42.72986" lon="1.46167">
        <ele>1182</ele>
        <time>2020-08-05T15:49:24Z</time>
      </trkpt>
      <trkpt lat="42.72974" lon="1.46161">
        <ele>1181.4</ele>
        <time>2020-08-05T15:49:28Z</time>
      </trkpt>
      <trkpt lat="42.72971" lon="1.4616">
        <ele>1181</ele>
        <time>2020-08-05T15:49:29Z</time>
      </trkpt>
      <trkpt lat="42.72955" lon="1.46157">
        <ele>1181.4</ele>
        <time>2020-08-05T15:49:34Z</time>
      </trkpt>
      <trkpt lat="42.72937" lon="1.46153">
        <ele>1181.4</ele>
        <time>2020-08-05T15:49:39Z</time>
      </trkpt>
      <trkpt lat="42.72916" lon="1.46144">
        <ele>1181.2</ele>
        <time>2020-08-05T15:49:45Z</time>
      </trkpt>
      <trkpt lat="42.72902" lon="1.46141">
        <ele>1181.6</ele>
        <time>2020-08-05T15:49:50Z</time>
      </trkpt>
      <trkpt lat="42.7289" lon="1.46137">
        <ele>1181.4</ele>
        <time>2020-08-05T15:49:55Z</time>
      </trkpt>
      <trkpt lat="42.72879" lon="1.46133">
        <ele>1181</ele>
        <time>2020-08-05T15:49:59Z</time>
      </trkpt>
      <trkpt lat="42.72871" lon="1.46129">
        <ele>1181.6</ele>
        <time>2020-08-05T15:50:03Z</time>
      </trkpt>
      <trkpt lat="42.72858" lon="1.46124">
        <ele>1180.4</ele>
        <time>2020-08-05T15:50:07Z</time>
      </trkpt>
      <trkpt lat="42.72854" lon="1.46122">
        <ele>1180</ele>
        <time>2020-08-05T15:50:08Z</time>
      </trkpt>
      <trkpt lat="42.72844" lon="1.46115">
        <ele>1178.4</ele>
        <time>2020-08-05T15:50:11Z</time>
      </trkpt>
      <trkpt lat="42.72841" lon="1.46113">
        <ele>1177.8</ele>
        <time>2020-08-05T15:50:12Z</time>
      </trkpt>
      <trkpt lat="42.72837" lon="1.46111">
        <ele>1177.4</ele>
        <time>2020-08-05T15:50:13Z</time>
      </trkpt>
      <trkpt lat="42.72829" lon="1.46106">
        <ele>1176.2</ele>
        <time>2020-08-05T15:50:16Z</time>
      </trkpt>
      <trkpt lat="42.72827" lon="1.46104">
        <ele>1176.2</ele>
        <time>2020-08-05T15:50:17Z</time>
      </trkpt>
      <trkpt lat="42.72816" lon="1.46095">
        <ele>1175.8</ele>
        <time>2020-08-05T15:50:22Z</time>
      </trkpt>
      <trkpt lat="42.72807" lon="1.46085">
        <ele>1175.2</ele>
        <time>2020-08-05T15:50:26Z</time>
      </trkpt>
      <trkpt lat="42.72803" lon="1.4608">
        <ele>1175.2</ele>
        <time>2020-08-05T15:50:28Z</time>
      </trkpt>
      <trkpt lat="42.72796" lon="1.4607">
        <ele>1175.2</ele>
        <time>2020-08-05T15:50:32Z</time>
      </trkpt>
      <trkpt lat="42.72785" lon="1.46066">
        <ele>1175.6</ele>
        <time>2020-08-05T15:50:36Z</time>
      </trkpt>
      <trkpt lat="42.72781" lon="1.46066">
        <ele>1176.4</ele>
        <time>2020-08-05T15:50:39Z</time>
      </trkpt>
      <trkpt lat="42.72774" lon="1.46065">
        <ele>1177.6</ele>
        <time>2020-08-05T15:50:43Z</time>
      </trkpt>
      <trkpt lat="42.72768" lon="1.46064">
        <ele>1178.6</ele>
        <time>2020-08-05T15:50:47Z</time>
      </trkpt>
      <trkpt lat="42.72766" lon="1.46065">
        <ele>1179.2</ele>
        <time>2020-08-05T15:50:49Z</time>
      </trkpt>
      <trkpt lat="42.72764" lon="1.46065">
        <ele>1179.6</ele>
        <time>2020-08-05T15:50:52Z</time>
      </trkpt>
      <trkpt lat="42.72762" lon="1.46064">
        <ele>1180</ele>
        <time>2020-08-05T15:50:55Z</time>
      </trkpt>
      <trkpt lat="42.72761" lon="1.46064">
        <ele>1180</ele>
        <time>2020-08-05T15:50:56Z</time>
      </trkpt>
      <trkpt lat="42.72752" lon="1.46061">
        <ele>1179.8</ele>
        <time>2020-08-05T15:51:02Z</time>
      </trkpt>
      <trkpt lat="42.7274" lon="1.46053">
        <ele>1179.8</ele>
        <time>2020-08-05T15:51:09Z</time>
      </trkpt>
      <trkpt lat="42.72731" lon="1.46048">
        <ele>1179.4</ele>
        <time>2020-08-05T15:51:14Z</time>
      </trkpt>
      <trkpt lat="42.72725" lon="1.4604">
        <ele>1179.6</ele>
        <time>2020-08-05T15:51:19Z</time>
      </trkpt>
      <trkpt lat="42.72717" lon="1.46035">
        <ele>1179.2</ele>
        <time>2020-08-05T15:51:24Z</time>
      </trkpt>
      <trkpt lat="42.72714" lon="1.46031">
        <ele>1179.2</ele>
        <time>2020-08-05T15:51:30Z</time>
      </trkpt>
      <trkpt lat="42.72714" lon="1.46031">
        <ele>1179.6</ele>
        <time>2020-08-05T15:51:38Z</time>
      </trkpt>
      <trkpt lat="42.72709" lon="1.46027">
        <ele>1179.6</ele>
        <time>2020-08-05T15:51:44Z</time>
      </trkpt>
      <trkpt lat="42.72706" lon="1.46021">
        <ele>1179.6</ele>
        <time>2020-08-05T15:51:50Z</time>
      </trkpt>
      <trkpt lat="42.72705" lon="1.4602">
        <ele>1179.6</ele>
        <time>2020-08-05T15:51:57Z</time>
      </trkpt>
      <trkpt lat="42.72701" lon="1.46018">
        <ele>1179.8</ele>
        <time>2020-08-05T15:52:07Z</time>
      </trkpt>
      <trkpt lat="42.72695" lon="1.46013">
        <ele>1179.6</ele>
        <time>2020-08-05T15:52:13Z</time>
      </trkpt>
      <trkpt lat="42.72687" lon="1.46008">
        <ele>1179.8</ele>
        <time>2020-08-05T15:52:20Z</time>
      </trkpt>
      <trkpt lat="42.7268" lon="1.46002">
        <ele>1180</ele>
        <time>2020-08-05T15:52:26Z</time>
      </trkpt>
      <trkpt lat="42.72673" lon="1.45995">
        <ele>1179.4</ele>
        <time>2020-08-05T15:52:31Z</time>
      </trkpt>
      <trkpt lat="42.72671" lon="1.45993">
        <ele>1179.2</ele>
        <time>2020-08-05T15:52:32Z</time>
      </trkpt>
      <trkpt lat="42.72667" lon="1.4599">
        <ele>1179.6</ele>
        <time>2020-08-05T15:52:38Z</time>
      </trkpt>
      <trkpt lat="42.7266" lon="1.45984">
        <ele>1179.4</ele>
        <time>2020-08-05T15:52:47Z</time>
      </trkpt>
      <trkpt lat="42.72655" lon="1.45981">
        <ele>1179.6</ele>
        <time>2020-08-05T15:52:53Z</time>
      </trkpt>
      <trkpt lat="42.72648" lon="1.45977">
        <ele>1179</ele>
        <time>2020-08-05T15:52:57Z</time>
      </trkpt>
      <trkpt lat="42.72646" lon="1.45975">
        <ele>1179.2</ele>
        <time>2020-08-05T15:52:59Z</time>
      </trkpt>
      <trkpt lat="42.72637" lon="1.45971">
        <ele>1179.8</ele>
        <time>2020-08-05T15:53:05Z</time>
      </trkpt>
      <trkpt lat="42.72632" lon="1.45968">
        <ele>1178.8</ele>
        <time>2020-08-05T15:53:10Z</time>
      </trkpt>
      <trkpt lat="42.72628" lon="1.45965">
        <ele>1179.4</ele>
        <time>2020-08-05T15:53:13Z</time>
      </trkpt>
      <trkpt lat="42.72625" lon="1.45963">
        <ele>1179.2</ele>
        <time>2020-08-05T15:53:16Z</time>
      </trkpt>
      <trkpt lat="42.7262" lon="1.45961">
        <ele>1179.2</ele>
        <time>2020-08-05T15:53:21Z</time>
      </trkpt>
      <trkpt lat="42.72616" lon="1.45956">
        <ele>1179.4</ele>
        <time>2020-08-05T15:53:26Z</time>
      </trkpt>
      <trkpt lat="42.72613" lon="1.45955">
        <ele>1179.2</ele>
        <time>2020-08-05T15:53:29Z</time>
      </trkpt>
      <trkpt lat="42.7261" lon="1.45954">
        <ele>1179.2</ele>
        <time>2020-08-05T15:53:31Z</time>
      </trkpt>
      <trkpt lat="42.72608" lon="1.45953">
        <ele>1179.2</ele>
        <time>2020-08-05T15:53:33Z</time>
      </trkpt>
      <trkpt lat="42.72607" lon="1.45952">
        <ele>1179</ele>
        <time>2020-08-05T15:53:35Z</time>
      </trkpt>
      <trkpt lat="42.72603" lon="1.4595">
        <ele>1179.2</ele>
        <time>2020-08-05T15:53:41Z</time>
      </trkpt>
      <trkpt lat="42.72594" lon="1.45947">
        <ele>1179</ele>
        <time>2020-08-05T15:53:47Z</time>
      </trkpt>
      <trkpt lat="42.7259" lon="1.45946">
        <ele>1179</ele>
        <time>2020-08-05T15:53:52Z</time>
      </trkpt>
      <trkpt lat="42.72585" lon="1.45945">
        <ele>1179.2</ele>
        <time>2020-08-05T15:54:00Z</time>
      </trkpt>
      <trkpt lat="42.72582" lon="1.45943">
        <ele>1179.4</ele>
        <time>2020-08-05T15:54:02Z</time>
      </trkpt>
      <trkpt lat="42.72579" lon="1.45941">
        <ele>1179.4</ele>
        <time>2020-08-05T15:54:05Z</time>
      </trkpt>
      <trkpt lat="42.72576" lon="1.45938">
        <ele>1179.4</ele>
        <time>2020-08-05T15:54:11Z</time>
      </trkpt>
      <trkpt lat="42.72565" lon="1.4593">
        <ele>1179</ele>
        <time>2020-08-05T15:54:17Z</time>
      </trkpt>
      <trkpt lat="42.72553" lon="1.45918">
        <ele>1178.8</ele>
        <time>2020-08-05T15:54:25Z</time>
      </trkpt>
      <trkpt lat="42.72552" lon="1.45917">
        <ele>1179</ele>
        <time>2020-08-05T15:54:30Z</time>
      </trkpt>
      <trkpt lat="42.72549" lon="1.45914">
        <ele>1179</ele>
        <time>2020-08-05T15:54:33Z</time>
      </trkpt>
      <trkpt lat="42.72546" lon="1.45912">
        <ele>1178.8</ele>
        <time>2020-08-05T15:54:35Z</time>
      </trkpt>
      <trkpt lat="42.72545" lon="1.4591">
        <ele>1178.6</ele>
        <time>2020-08-05T15:54:40Z</time>
      </trkpt>
      <trkpt lat="42.72545" lon="1.4591">
        <ele>1178.6</ele>
        <time>2020-08-05T15:54:42Z</time>
      </trkpt>
      <trkpt lat="42.72538" lon="1.45902">
        <ele>1178.2</ele>
        <time>2020-08-05T15:54:50Z</time>
      </trkpt>
      <trkpt lat="42.72534" lon="1.45897">
        <ele>1178.6</ele>
        <time>2020-08-05T15:54:56Z</time>
      </trkpt>
      <trkpt lat="42.72523" lon="1.45891">
        <ele>1178.8</ele>
        <time>2020-08-05T15:55:01Z</time>
      </trkpt>
      <trkpt lat="42.72517" lon="1.45887">
        <ele>1178.6</ele>
        <time>2020-08-05T15:55:04Z</time>
      </trkpt>
      <trkpt lat="42.72514" lon="1.45883">
        <ele>1178.6</ele>
        <time>2020-08-05T15:55:06Z</time>
      </trkpt>
      <trkpt lat="42.72506" lon="1.45877">
        <ele>1178.2</ele>
        <time>2020-08-05T15:55:10Z</time>
      </trkpt>
      <trkpt lat="42.72505" lon="1.45875">
        <ele>1178.4</ele>
        <time>2020-08-05T15:55:11Z</time>
      </trkpt>
      <trkpt lat="42.72497" lon="1.45869">
        <ele>1178.8</ele>
        <time>2020-08-05T15:55:17Z</time>
      </trkpt>
      <trkpt lat="42.72494" lon="1.45867">
        <ele>1178.2</ele>
        <time>2020-08-05T15:55:23Z</time>
      </trkpt>
      <trkpt lat="42.72488" lon="1.45862">
        <ele>1178.4</ele>
        <time>2020-08-05T15:55:31Z</time>
      </trkpt>
      <trkpt lat="42.72481" lon="1.45854">
        <ele>1178.4</ele>
        <time>2020-08-05T15:55:37Z</time>
      </trkpt>
      <trkpt lat="42.72479" lon="1.45851">
        <ele>1178.4</ele>
        <time>2020-08-05T15:55:38Z</time>
      </trkpt>
      <trkpt lat="42.7247" lon="1.45842">
        <ele>1178.4</ele>
        <time>2020-08-05T15:55:43Z</time>
      </trkpt>
      <trkpt lat="42.72456" lon="1.45831">
        <ele>1178.4</ele>
        <time>2020-08-05T15:55:49Z</time>
      </trkpt>
      <trkpt lat="42.72448" lon="1.45827">
        <ele>1178.4</ele>
        <time>2020-08-05T15:55:53Z</time>
      </trkpt>
      <trkpt lat="42.72444" lon="1.45824">
        <ele>1178.6</ele>
        <time>2020-08-05T15:55:55Z</time>
      </trkpt>
      <trkpt lat="42.72425" lon="1.45815">
        <ele>1178.4</ele>
        <time>2020-08-05T15:56:02Z</time>
      </trkpt>
      <trkpt lat="42.72411" lon="1.45806">
        <ele>1178.2</ele>
        <time>2020-08-05T15:56:07Z</time>
      </trkpt>
      <trkpt lat="42.72391" lon="1.45793">
        <ele>1178.2</ele>
        <time>2020-08-05T15:56:14Z</time>
      </trkpt>
      <trkpt lat="42.72371" lon="1.45786">
        <ele>1178</ele>
        <time>2020-08-05T15:56:20Z</time>
      </trkpt>
      <trkpt lat="42.72364" lon="1.45781">
        <ele>1178.2</ele>
        <time>2020-08-05T15:56:23Z</time>
      </trkpt>
      <trkpt lat="42.72357" lon="1.45774">
        <ele>1178.2</ele>
        <time>2020-08-05T15:56:26Z</time>
      </trkpt>
      <trkpt lat="42.72343" lon="1.45763">
        <ele>1177.8</ele>
        <time>2020-08-05T15:56:33Z</time>
      </trkpt>
      <trkpt lat="42.72339" lon="1.45759">
        <ele>1177.8</ele>
        <time>2020-08-05T15:56:40Z</time>
      </trkpt>
      <trkpt lat="42.72339" lon="1.45759">
        <ele>1177.8</ele>
        <time>2020-08-05T15:56:53Z</time>
      </trkpt>
      <trkpt lat="42.72337" lon="1.45758">
        <ele>1178</ele>
        <time>2020-08-05T15:57:01Z</time>
      </trkpt>
      <trkpt lat="42.7233" lon="1.45755">
        <ele>1177.4</ele>
        <time>2020-08-05T15:57:08Z</time>
      </trkpt>
      <trkpt lat="42.72329" lon="1.45753">
        <ele>1177.4</ele>
        <time>2020-08-05T15:57:09Z</time>
      </trkpt>
      <trkpt lat="42.72325" lon="1.45745">
        <ele>1176.8</ele>
        <time>2020-08-05T15:57:12Z</time>
      </trkpt>
      <trkpt lat="42.72317" lon="1.45737">
        <ele>1176.6</ele>
        <time>2020-08-05T15:57:15Z</time>
      </trkpt>
      <trkpt lat="42.72315" lon="1.45734">
        <ele>1176.6</ele>
        <time>2020-08-05T15:57:16Z</time>
      </trkpt>
      <trkpt lat="42.72312" lon="1.45732">
        <ele>1176.4</ele>
        <time>2020-08-05T15:57:17Z</time>
      </trkpt>
      <trkpt lat="42.72302" lon="1.45723">
        <ele>1176.6</ele>
        <time>2020-08-05T15:57:21Z</time>
      </trkpt>
      <trkpt lat="42.72285" lon="1.4571">
        <ele>1176.4</ele>
        <time>2020-08-05T15:57:26Z</time>
      </trkpt>
      <trkpt lat="42.72271" lon="1.457">
        <ele>1176.2</ele>
        <time>2020-08-05T15:57:31Z</time>
      </trkpt>
      <trkpt lat="42.72267" lon="1.45696">
        <ele>1176.2</ele>
        <time>2020-08-05T15:57:33Z</time>
      </trkpt>
      <trkpt lat="42.72261" lon="1.45691">
        <ele>1176.2</ele>
        <time>2020-08-05T15:57:36Z</time>
      </trkpt>
      <trkpt lat="42.72247" lon="1.45679">
        <ele>1176.4</ele>
        <time>2020-08-05T15:57:42Z</time>
      </trkpt>
      <trkpt lat="42.72226" lon="1.45666">
        <ele>1176.2</ele>
        <time>2020-08-05T15:57:49Z</time>
      </trkpt>
      <trkpt lat="42.72211" lon="1.4566">
        <ele>1177</ele>
        <time>2020-08-05T15:57:55Z</time>
      </trkpt>
      <trkpt lat="42.72196" lon="1.45648">
        <ele>1177</ele>
        <time>2020-08-05T15:58:00Z</time>
      </trkpt>
      <trkpt lat="42.72173" lon="1.45625">
        <ele>1176.8</ele>
        <time>2020-08-05T15:58:08Z</time>
      </trkpt>
      <trkpt lat="42.72147" lon="1.45608">
        <ele>1176.6</ele>
        <time>2020-08-05T15:58:15Z</time>
      </trkpt>
      <trkpt lat="42.72124" lon="1.45593">
        <ele>1176.6</ele>
        <time>2020-08-05T15:58:21Z</time>
      </trkpt>
      <trkpt lat="42.72102" lon="1.45581">
        <ele>1176.4</ele>
        <time>2020-08-05T15:58:27Z</time>
      </trkpt>
      <trkpt lat="42.72083" lon="1.45566">
        <ele>1176</ele>
        <time>2020-08-05T15:58:33Z</time>
      </trkpt>
      <trkpt lat="42.72069" lon="1.45552">
        <ele>1176</ele>
        <time>2020-08-05T15:58:38Z</time>
      </trkpt>
      <trkpt lat="42.72067" lon="1.4555">
        <ele>1175.8</ele>
        <time>2020-08-05T15:58:42Z</time>
      </trkpt>
      <trkpt lat="42.72067" lon="1.4555">
        <ele>1175.4</ele>
        <time>2020-08-05T15:58:47Z</time>
      </trkpt>
      <trkpt lat="42.72066" lon="1.45548">
        <ele>1175</ele>
        <time>2020-08-05T15:58:49Z</time>
      </trkpt>
      <trkpt lat="42.72066" lon="1.45548">
        <ele>1174.4</ele>
        <time>2020-08-05T15:58:55Z</time>
      </trkpt>
      <trkpt lat="42.72066" lon="1.45548">
        <ele>1174.2</ele>
        <time>2020-08-05T15:58:57Z</time>
      </trkpt>
      <trkpt lat="42.72067" lon="1.45548">
        <ele>1174.2</ele>
        <time>2020-08-05T15:58:59Z</time>
      </trkpt>
      <trkpt lat="42.7207" lon="1.4555">
        <ele>1172.8</ele>
        <time>2020-08-05T15:59:01Z</time>
      </trkpt>
      <trkpt lat="42.72073" lon="1.4555">
        <ele>1171.8</ele>
        <time>2020-08-05T15:59:02Z</time>
      </trkpt>
      <trkpt lat="42.72075" lon="1.4555">
        <ele>1170.6</ele>
        <time>2020-08-05T15:59:03Z</time>
      </trkpt>
      <trkpt lat="42.72076" lon="1.45548">
        <ele>1169.4</ele>
        <time>2020-08-05T15:59:04Z</time>
      </trkpt>
      <trkpt lat="42.72077" lon="1.45545">
        <ele>1168.6</ele>
        <time>2020-08-05T15:59:05Z</time>
      </trkpt>
      <trkpt lat="42.72077" lon="1.45546">
        <ele>1168.2</ele>
        <time>2020-08-05T15:59:06Z</time>
      </trkpt>
      <trkpt lat="42.72076" lon="1.45541">
        <ele>1167.4</ele>
        <time>2020-08-05T15:59:07Z</time>
      </trkpt>
      <trkpt lat="42.72074" lon="1.45539">
        <ele>1166.4</ele>
        <time>2020-08-05T15:59:08Z</time>
      </trkpt>
      <trkpt lat="42.72074" lon="1.45537">
        <ele>1164.6</ele>
        <time>2020-08-05T15:59:10Z</time>
      </trkpt>
      <trkpt lat="42.72077" lon="1.45534">
        <ele>1163.6</ele>
        <time>2020-08-05T15:59:12Z</time>
      </trkpt>
      <trkpt lat="42.7208" lon="1.45534">
        <ele>1162.2</ele>
        <time>2020-08-05T15:59:14Z</time>
      </trkpt>
      <trkpt lat="42.72083" lon="1.45531">
        <ele>1160.8</ele>
        <time>2020-08-05T15:59:16Z</time>
      </trkpt>
      <trkpt lat="42.72087" lon="1.45531">
        <ele>1159</ele>
        <time>2020-08-05T15:59:18Z</time>
      </trkpt>
      <trkpt lat="42.72092" lon="1.45532">
        <ele>1157.4</ele>
        <time>2020-08-05T15:59:20Z</time>
      </trkpt>
      <trkpt lat="42.72096" lon="1.45534">
        <ele>1156</ele>
        <time>2020-08-05T15:59:22Z</time>
      </trkpt>
      <trkpt lat="42.72098" lon="1.45535">
        <ele>1156</ele>
        <time>2020-08-05T15:59:23Z</time>
      </trkpt>
      <trkpt lat="42.721" lon="1.45535">
        <ele>1155.4</ele>
        <time>2020-08-05T15:59:24Z</time>
      </trkpt>
      <trkpt lat="42.72103" lon="1.45535">
        <ele>1155</ele>
        <time>2020-08-05T15:59:25Z</time>
      </trkpt>
      <trkpt lat="42.72113" lon="1.45535">
        <ele>1153.6</ele>
        <time>2020-08-05T15:59:28Z</time>
      </trkpt>
      <trkpt lat="42.72116" lon="1.45535">
        <ele>1153.2</ele>
        <time>2020-08-05T15:59:29Z</time>
      </trkpt>
      <trkpt lat="42.7212" lon="1.45535">
        <ele>1152.6</ele>
        <time>2020-08-05T15:59:30Z</time>
      </trkpt>
      <trkpt lat="42.72127" lon="1.45534">
        <ele>1151.2</ele>
        <time>2020-08-05T15:59:32Z</time>
      </trkpt>
      <trkpt lat="42.72133" lon="1.45532">
        <ele>1149</ele>
        <time>2020-08-05T15:59:34Z</time>
      </trkpt>
      <trkpt lat="42.72138" lon="1.4553">
        <ele>1147.4</ele>
        <time>2020-08-05T15:59:36Z</time>
      </trkpt>
      <trkpt lat="42.72141" lon="1.45529">
        <ele>1146.4</ele>
        <time>2020-08-05T15:59:37Z</time>
      </trkpt>
      <trkpt lat="42.72144" lon="1.45528">
        <ele>1145.2</ele>
        <time>2020-08-05T15:59:38Z</time>
      </trkpt>
      <trkpt lat="42.72148" lon="1.45526">
        <ele>1144.4</ele>
        <time>2020-08-05T15:59:39Z</time>
      </trkpt>
      <trkpt lat="42.72151" lon="1.45524">
        <ele>1143.2</ele>
        <time>2020-08-05T15:59:40Z</time>
      </trkpt>
      <trkpt lat="42.72154" lon="1.45523">
        <ele>1142</ele>
        <time>2020-08-05T15:59:41Z</time>
      </trkpt>
      <trkpt lat="42.72157" lon="1.45521">
        <ele>1140.6</ele>
        <time>2020-08-05T15:59:42Z</time>
      </trkpt>
      <trkpt lat="42.7216" lon="1.45519">
        <ele>1139.6</ele>
        <time>2020-08-05T15:59:43Z</time>
      </trkpt>
      <trkpt lat="42.72162" lon="1.45516">
        <ele>1138.8</ele>
        <time>2020-08-05T15:59:44Z</time>
      </trkpt>
      <trkpt lat="42.72165" lon="1.45514">
        <ele>1136.4</ele>
        <time>2020-08-05T15:59:45Z</time>
      </trkpt>
      <trkpt lat="42.72167" lon="1.45513">
        <ele>1135.2</ele>
        <time>2020-08-05T15:59:46Z</time>
      </trkpt>
      <trkpt lat="42.72173" lon="1.45513">
        <ele>1134.2</ele>
        <time>2020-08-05T15:59:48Z</time>
      </trkpt>
      <trkpt lat="42.72175" lon="1.45513">
        <ele>1134.2</ele>
        <time>2020-08-05T15:59:49Z</time>
      </trkpt>
      <trkpt lat="42.72185" lon="1.45512">
        <ele>1132.4</ele>
        <time>2020-08-05T15:59:52Z</time>
      </trkpt>
      <trkpt lat="42.72188" lon="1.4551">
        <ele>1131.6</ele>
        <time>2020-08-05T15:59:53Z</time>
      </trkpt>
      <trkpt lat="42.72191" lon="1.45509">
        <ele>1130.8</ele>
        <time>2020-08-05T15:59:54Z</time>
      </trkpt>
      <trkpt lat="42.72194" lon="1.45508">
        <ele>1130.2</ele>
        <time>2020-08-05T15:59:55Z</time>
      </trkpt>
      <trkpt lat="42.72197" lon="1.45506">
        <ele>1129.6</ele>
        <time>2020-08-05T15:59:56Z</time>
      </trkpt>
      <trkpt lat="42.72204" lon="1.455">
        <ele>1127.8</ele>
        <time>2020-08-05T15:59:58Z</time>
      </trkpt>
      <trkpt lat="42.72208" lon="1.45497">
        <ele>1126.8</ele>
        <time>2020-08-05T15:59:59Z</time>
      </trkpt>
      <trkpt lat="42.72212" lon="1.45494">
        <ele>1125.6</ele>
        <time>2020-08-05T16:00:00Z</time>
      </trkpt>
      <trkpt lat="42.72215" lon="1.45492">
        <ele>1124.4</ele>
        <time>2020-08-05T16:00:01Z</time>
      </trkpt>
      <trkpt lat="42.72218" lon="1.4549">
        <ele>1123.2</ele>
        <time>2020-08-05T16:00:02Z</time>
      </trkpt>
      <trkpt lat="42.72221" lon="1.45488">
        <ele>1122</ele>
        <time>2020-08-05T16:00:03Z</time>
      </trkpt>
      <trkpt lat="42.72223" lon="1.45486">
        <ele>1121</ele>
        <time>2020-08-05T16:00:04Z</time>
      </trkpt>
      <trkpt lat="42.72226" lon="1.45484">
        <ele>1119.8</ele>
        <time>2020-08-05T16:00:05Z</time>
      </trkpt>
      <trkpt lat="42.72231" lon="1.4548">
        <ele>1118.2</ele>
        <time>2020-08-05T16:00:07Z</time>
      </trkpt>
      <trkpt lat="42.72235" lon="1.45479">
        <ele>1117.6</ele>
        <time>2020-08-05T16:00:08Z</time>
      </trkpt>
      <trkpt lat="42.72238" lon="1.45477">
        <ele>1116.2</ele>
        <time>2020-08-05T16:00:09Z</time>
      </trkpt>
      <trkpt lat="42.72242" lon="1.45474">
        <ele>1115.2</ele>
        <time>2020-08-05T16:00:10Z</time>
      </trkpt>
      <trkpt lat="42.72245" lon="1.45472">
        <ele>1114</ele>
        <time>2020-08-05T16:00:11Z</time>
      </trkpt>
      <trkpt lat="42.72246" lon="1.45469">
        <ele>1113</ele>
        <time>2020-08-05T16:00:12Z</time>
      </trkpt>
      <trkpt lat="42.72246" lon="1.45463">
        <ele>1111.2</ele>
        <time>2020-08-05T16:00:14Z</time>
      </trkpt>
      <trkpt lat="42.72245" lon="1.4546">
        <ele>1110.4</ele>
        <time>2020-08-05T16:00:16Z</time>
      </trkpt>
      <trkpt lat="42.72245" lon="1.4546">
        <ele>1110.4</ele>
        <time>2020-08-05T16:00:21Z</time>
      </trkpt>
      <trkpt lat="42.72247" lon="1.45461">
        <ele>1110.8</ele>
        <time>2020-08-05T16:00:26Z</time>
      </trkpt>
      <trkpt lat="42.72247" lon="1.45462">
        <ele>1110.6</ele>
        <time>2020-08-05T16:00:40Z</time>
      </trkpt>
      <trkpt lat="42.72247" lon="1.45461">
        <ele>1110.8</ele>
        <time>2020-08-05T16:00:44Z</time>
      </trkpt>
      <trkpt lat="42.72246" lon="1.4546">
        <ele>1110.8</ele>
        <time>2020-08-05T16:00:46Z</time>
      </trkpt>
      <trkpt lat="42.72245" lon="1.45459">
        <ele>1110.6</ele>
        <time>2020-08-05T16:00:56Z</time>
      </trkpt>
      <trkpt lat="42.72243" lon="1.45457">
        <ele>1110.2</ele>
        <time>2020-08-05T16:00:57Z</time>
      </trkpt>
      <trkpt lat="42.72233" lon="1.45451">
        <ele>1109</ele>
        <time>2020-08-05T16:01:00Z</time>
      </trkpt>
      <trkpt lat="42.72221" lon="1.45444">
        <ele>1107.6</ele>
        <time>2020-08-05T16:01:04Z</time>
      </trkpt>
      <trkpt lat="42.72217" lon="1.45439">
        <ele>1106.4</ele>
        <time>2020-08-05T16:01:06Z</time>
      </trkpt>
      <trkpt lat="42.72213" lon="1.45434">
        <ele>1105</ele>
        <time>2020-08-05T16:01:08Z</time>
      </trkpt>
      <trkpt lat="42.72209" lon="1.45429">
        <ele>1103.4</ele>
        <time>2020-08-05T16:01:10Z</time>
      </trkpt>
      <trkpt lat="42.72205" lon="1.45425">
        <ele>1101.8</ele>
        <time>2020-08-05T16:01:13Z</time>
      </trkpt>
      <trkpt lat="42.72204" lon="1.45422">
        <ele>1101.2</ele>
        <time>2020-08-05T16:01:14Z</time>
      </trkpt>
      <trkpt lat="42.72203" lon="1.45417">
        <ele>1100.6</ele>
        <time>2020-08-05T16:01:16Z</time>
      </trkpt>
      <trkpt lat="42.722" lon="1.45414">
        <ele>1099.8</ele>
        <time>2020-08-05T16:01:18Z</time>
      </trkpt>
      <trkpt lat="42.72198" lon="1.45414">
        <ele>1099.4</ele>
        <time>2020-08-05T16:01:19Z</time>
      </trkpt>
      <trkpt lat="42.72188" lon="1.45406">
        <ele>1098.4</ele>
        <time>2020-08-05T16:01:24Z</time>
      </trkpt>
      <trkpt lat="42.72179" lon="1.45399">
        <ele>1098</ele>
        <time>2020-08-05T16:01:29Z</time>
      </trkpt>
      <trkpt lat="42.72166" lon="1.45395">
        <ele>1098.2</ele>
        <time>2020-08-05T16:01:35Z</time>
      </trkpt>
      <trkpt lat="42.72161" lon="1.45394">
        <ele>1098.8</ele>
        <time>2020-08-05T16:01:38Z</time>
      </trkpt>
      <trkpt lat="42.7216" lon="1.45394">
        <ele>1099</ele>
        <time>2020-08-05T16:01:40Z</time>
      </trkpt>
      <trkpt lat="42.72157" lon="1.45396">
        <ele>1099.2</ele>
        <time>2020-08-05T16:01:44Z</time>
      </trkpt>
      <trkpt lat="42.72157" lon="1.45396">
        <ele>1099.4</ele>
        <time>2020-08-05T16:01:45Z</time>
      </trkpt>
      <trkpt lat="42.72153" lon="1.45395">
        <ele>1099.8</ele>
        <time>2020-08-05T16:01:48Z</time>
      </trkpt>
      <trkpt lat="42.72151" lon="1.45394">
        <ele>1100</ele>
        <time>2020-08-05T16:01:53Z</time>
      </trkpt>
      <trkpt lat="42.72144" lon="1.45393">
        <ele>1100.6</ele>
        <time>2020-08-05T16:01:58Z</time>
      </trkpt>
      <trkpt lat="42.72136" lon="1.45388">
        <ele>1100.8</ele>
        <time>2020-08-05T16:02:03Z</time>
      </trkpt>
      <trkpt lat="42.72124" lon="1.45385">
        <ele>1101.4</ele>
        <time>2020-08-05T16:02:09Z</time>
      </trkpt>
      <trkpt lat="42.72122" lon="1.45385">
        <ele>1101.6</ele>
        <time>2020-08-05T16:02:10Z</time>
      </trkpt>
      <trkpt lat="42.72121" lon="1.45385">
        <ele>1101.6</ele>
        <time>2020-08-05T16:02:11Z</time>
      </trkpt>
      <trkpt lat="42.72119" lon="1.45383">
        <ele>1101.6</ele>
        <time>2020-08-05T16:02:14Z</time>
      </trkpt>
      <trkpt lat="42.72118" lon="1.45382">
        <ele>1101.6</ele>
        <time>2020-08-05T16:02:15Z</time>
      </trkpt>
      <trkpt lat="42.72115" lon="1.45377">
        <ele>1101</ele>
        <time>2020-08-05T16:02:18Z</time>
      </trkpt>
      <trkpt lat="42.7211" lon="1.45368">
        <ele>1100.4</ele>
        <time>2020-08-05T16:02:21Z</time>
      </trkpt>
      <trkpt lat="42.72107" lon="1.45363">
        <ele>1100.2</ele>
        <time>2020-08-05T16:02:23Z</time>
      </trkpt>
      <trkpt lat="42.72103" lon="1.45357">
        <ele>1100.4</ele>
        <time>2020-08-05T16:02:26Z</time>
      </trkpt>
      <trkpt lat="42.721" lon="1.45353">
        <ele>1100.4</ele>
        <time>2020-08-05T16:02:28Z</time>
      </trkpt>
      <trkpt lat="42.72093" lon="1.45343">
        <ele>1099</ele>
        <time>2020-08-05T16:02:32Z</time>
      </trkpt>
      <trkpt lat="42.72091" lon="1.4534">
        <ele>1097.4</ele>
        <time>2020-08-05T16:02:33Z</time>
      </trkpt>
      <trkpt lat="42.72089" lon="1.45334">
        <ele>1095.8</ele>
        <time>2020-08-05T16:02:35Z</time>
      </trkpt>
      <trkpt lat="42.72085" lon="1.45329">
        <ele>1094.2</ele>
        <time>2020-08-05T16:02:37Z</time>
      </trkpt>
      <trkpt lat="42.72084" lon="1.45327">
        <ele>1093.6</ele>
        <time>2020-08-05T16:02:38Z</time>
      </trkpt>
      <trkpt lat="42.72083" lon="1.45326">
        <ele>1093</ele>
        <time>2020-08-05T16:02:39Z</time>
      </trkpt>
      <trkpt lat="42.72083" lon="1.45323">
        <ele>1091.8</ele>
        <time>2020-08-05T16:02:41Z</time>
      </trkpt>
      <trkpt lat="42.72083" lon="1.45319">
        <ele>1091.2</ele>
        <time>2020-08-05T16:02:45Z</time>
      </trkpt>
      <trkpt lat="42.72082" lon="1.45318">
        <ele>1090.8</ele>
        <time>2020-08-05T16:02:46Z</time>
      </trkpt>
      <trkpt lat="42.72078" lon="1.45315">
        <ele>1089.8</ele>
        <time>2020-08-05T16:02:49Z</time>
      </trkpt>
      <trkpt lat="42.72077" lon="1.45313">
        <ele>1089.6</ele>
        <time>2020-08-05T16:02:50Z</time>
      </trkpt>
      <trkpt lat="42.72074" lon="1.4531">
        <ele>1088.6</ele>
        <time>2020-08-05T16:02:53Z</time>
      </trkpt>
      <trkpt lat="42.72072" lon="1.45308">
        <ele>1088.2</ele>
        <time>2020-08-05T16:02:56Z</time>
      </trkpt>
      <trkpt lat="42.72072" lon="1.45308">
        <ele>1087.6</ele>
        <time>2020-08-05T16:03:00Z</time>
      </trkpt>
      <trkpt lat="42.72073" lon="1.45308">
        <ele>1087.4</ele>
        <time>2020-08-05T16:03:04Z</time>
      </trkpt>
      <trkpt lat="42.72073" lon="1.45305">
        <ele>1086.8</ele>
        <time>2020-08-05T16:03:08Z</time>
      </trkpt>
      <trkpt lat="42.72072" lon="1.45305">
        <ele>1086.4</ele>
        <time>2020-08-05T16:03:09Z</time>
      </trkpt>
      <trkpt lat="42.7207" lon="1.45301">
        <ele>1085.6</ele>
        <time>2020-08-05T16:03:13Z</time>
      </trkpt>
      <trkpt lat="42.72069" lon="1.453">
        <ele>1085.2</ele>
        <time>2020-08-05T16:03:14Z</time>
      </trkpt>
      <trkpt lat="42.72068" lon="1.45298">
        <ele>1085</ele>
        <time>2020-08-05T16:03:15Z</time>
      </trkpt>
      <trkpt lat="42.72066" lon="1.45291">
        <ele>1084.4</ele>
        <time>2020-08-05T16:03:18Z</time>
      </trkpt>
      <trkpt lat="42.72064" lon="1.4529">
        <ele>1083.8</ele>
        <time>2020-08-05T16:03:19Z</time>
      </trkpt>
      <trkpt lat="42.72061" lon="1.45286">
        <ele>1082.6</ele>
        <time>2020-08-05T16:03:21Z</time>
      </trkpt>
      <trkpt lat="42.7206" lon="1.45284">
        <ele>1082.2</ele>
        <time>2020-08-05T16:03:22Z</time>
      </trkpt>
      <trkpt lat="42.72058" lon="1.45283">
        <ele>1081.6</ele>
        <time>2020-08-05T16:03:24Z</time>
      </trkpt>
      <trkpt lat="42.72056" lon="1.45283">
        <ele>1081.2</ele>
        <time>2020-08-05T16:03:25Z</time>
      </trkpt>
      <trkpt lat="42.72054" lon="1.45283">
        <ele>1080.8</ele>
        <time>2020-08-05T16:03:26Z</time>
      </trkpt>
      <trkpt lat="42.72048" lon="1.4528">
        <ele>1080.2</ele>
        <time>2020-08-05T16:03:29Z</time>
      </trkpt>
      <trkpt lat="42.72045" lon="1.45277">
        <ele>1079.6</ele>
        <time>2020-08-05T16:03:30Z</time>
      </trkpt>
      <trkpt lat="42.72042" lon="1.45275">
        <ele>1078.8</ele>
        <time>2020-08-05T16:03:31Z</time>
      </trkpt>
      <trkpt lat="42.72035" lon="1.45269">
        <ele>1077.6</ele>
        <time>2020-08-05T16:03:33Z</time>
      </trkpt>
      <trkpt lat="42.72031" lon="1.45261">
        <ele>1076.8</ele>
        <time>2020-08-05T16:03:35Z</time>
      </trkpt>
      <trkpt lat="42.72029" lon="1.45256">
        <ele>1076.2</ele>
        <time>2020-08-05T16:03:36Z</time>
      </trkpt>
      <trkpt lat="42.72025" lon="1.45245">
        <ele>1074.4</ele>
        <time>2020-08-05T16:03:38Z</time>
      </trkpt>
      <trkpt lat="42.72023" lon="1.4524">
        <ele>1073.8</ele>
        <time>2020-08-05T16:03:39Z</time>
      </trkpt>
      <trkpt lat="42.72019" lon="1.45235">
        <ele>1073.4</ele>
        <time>2020-08-05T16:03:40Z</time>
      </trkpt>
      <trkpt lat="42.72009" lon="1.45216">
        <ele>1072.2</ele>
        <time>2020-08-05T16:03:43Z</time>
      </trkpt>
      <trkpt lat="42.72004" lon="1.45203">
        <ele>1070</ele>
        <time>2020-08-05T16:03:45Z</time>
      </trkpt>
      <trkpt lat="42.71999" lon="1.45192">
        <ele>1069.2</ele>
        <time>2020-08-05T16:03:47Z</time>
      </trkpt>
      <trkpt lat="42.71997" lon="1.45189">
        <ele>1069</ele>
        <time>2020-08-05T16:03:48Z</time>
      </trkpt>
      <trkpt lat="42.71995" lon="1.45182">
        <ele>1068.8</ele>
        <time>2020-08-05T16:03:50Z</time>
      </trkpt>
      <trkpt lat="42.71993" lon="1.45171">
        <ele>1068</ele>
        <time>2020-08-05T16:03:52Z</time>
      </trkpt>
      <trkpt lat="42.71992" lon="1.45164">
        <ele>1067.8</ele>
        <time>2020-08-05T16:03:53Z</time>
      </trkpt>
      <trkpt lat="42.71991" lon="1.4516">
        <ele>1067.8</ele>
        <time>2020-08-05T16:03:54Z</time>
      </trkpt>
      <trkpt lat="42.71987" lon="1.45147">
        <ele>1068</ele>
        <time>2020-08-05T16:03:58Z</time>
      </trkpt>
      <trkpt lat="42.71982" lon="1.4513">
        <ele>1068.8</ele>
        <time>2020-08-05T16:04:03Z</time>
      </trkpt>
      <trkpt lat="42.71979" lon="1.45127">
        <ele>1069</ele>
        <time>2020-08-05T16:04:04Z</time>
      </trkpt>
      <trkpt lat="42.7197" lon="1.45122">
        <ele>1069.2</ele>
        <time>2020-08-05T16:04:07Z</time>
      </trkpt>
      <trkpt lat="42.71965" lon="1.4512">
        <ele>1069.2</ele>
        <time>2020-08-05T16:04:10Z</time>
      </trkpt>
      <trkpt lat="42.71963" lon="1.45119">
        <ele>1068.6</ele>
        <time>2020-08-05T16:04:11Z</time>
      </trkpt>
      <trkpt lat="42.71961" lon="1.45116">
        <ele>1068</ele>
        <time>2020-08-05T16:04:12Z</time>
      </trkpt>
      <trkpt lat="42.71955" lon="1.4511">
        <ele>1066.2</ele>
        <time>2020-08-05T16:04:14Z</time>
      </trkpt>
      <trkpt lat="42.71952" lon="1.45108">
        <ele>1065.6</ele>
        <time>2020-08-05T16:04:15Z</time>
      </trkpt>
      <trkpt lat="42.7195" lon="1.45107">
        <ele>1065</ele>
        <time>2020-08-05T16:04:16Z</time>
      </trkpt>
      <trkpt lat="42.71949" lon="1.45106">
        <ele>1063.8</ele>
        <time>2020-08-05T16:04:18Z</time>
      </trkpt>
      <trkpt lat="42.71948" lon="1.45103">
        <ele>1063.4</ele>
        <time>2020-08-05T16:04:19Z</time>
      </trkpt>
      <trkpt lat="42.71949" lon="1.45102">
        <ele>1063</ele>
        <time>2020-08-05T16:04:20Z</time>
      </trkpt>
      <trkpt lat="42.7195" lon="1.45101">
        <ele>1062.6</ele>
        <time>2020-08-05T16:04:21Z</time>
      </trkpt>
      <trkpt lat="42.71949" lon="1.451">
        <ele>1062</ele>
        <time>2020-08-05T16:04:24Z</time>
      </trkpt>
      <trkpt lat="42.71946" lon="1.45098">
        <ele>1061.2</ele>
        <time>2020-08-05T16:04:26Z</time>
      </trkpt>
      <trkpt lat="42.71941" lon="1.45094">
        <ele>1060</ele>
        <time>2020-08-05T16:04:28Z</time>
      </trkpt>
      <trkpt lat="42.71939" lon="1.4509">
        <ele>1059</ele>
        <time>2020-08-05T16:04:30Z</time>
      </trkpt>
      <trkpt lat="42.71933" lon="1.45089">
        <ele>1057.6</ele>
        <time>2020-08-05T16:04:32Z</time>
      </trkpt>
      <trkpt lat="42.71926" lon="1.45087">
        <ele>1055.8</ele>
        <time>2020-08-05T16:04:34Z</time>
      </trkpt>
      <trkpt lat="42.71919" lon="1.45083">
        <ele>1054</ele>
        <time>2020-08-05T16:04:36Z</time>
      </trkpt>
      <trkpt lat="42.71912" lon="1.45081">
        <ele>1053</ele>
        <time>2020-08-05T16:04:39Z</time>
      </trkpt>
      <trkpt lat="42.7191" lon="1.45081">
        <ele>1052.2</ele>
        <time>2020-08-05T16:04:40Z</time>
      </trkpt>
      <trkpt lat="42.71909" lon="1.4508">
        <ele>1051.4</ele>
        <time>2020-08-05T16:04:41Z</time>
      </trkpt>
      <trkpt lat="42.71911" lon="1.45075">
        <ele>1050.4</ele>
        <time>2020-08-05T16:04:43Z</time>
      </trkpt>
      <trkpt lat="42.71909" lon="1.45073">
        <ele>1048.8</ele>
        <time>2020-08-05T16:04:46Z</time>
      </trkpt>
      <trkpt lat="42.71904" lon="1.45074">
        <ele>1047.8</ele>
        <time>2020-08-05T16:04:48Z</time>
      </trkpt>
      <trkpt lat="42.71899" lon="1.45072">
        <ele>1046.4</ele>
        <time>2020-08-05T16:04:50Z</time>
      </trkpt>
      <trkpt lat="42.71894" lon="1.4507">
        <ele>1044.6</ele>
        <time>2020-08-05T16:04:52Z</time>
      </trkpt>
      <trkpt lat="42.71892" lon="1.45068">
        <ele>1043.8</ele>
        <time>2020-08-05T16:04:53Z</time>
      </trkpt>
      <trkpt lat="42.71891" lon="1.45068">
        <ele>1043</ele>
        <time>2020-08-05T16:04:54Z</time>
      </trkpt>
      <trkpt lat="42.71888" lon="1.45068">
        <ele>1042.2</ele>
        <time>2020-08-05T16:04:55Z</time>
      </trkpt>
      <trkpt lat="42.71886" lon="1.45067">
        <ele>1041.4</ele>
        <time>2020-08-05T16:04:56Z</time>
      </trkpt>
      <trkpt lat="42.71883" lon="1.45066">
        <ele>1039.8</ele>
        <time>2020-08-05T16:04:57Z</time>
      </trkpt>
      <trkpt lat="42.71877" lon="1.45062">
        <ele>1038</ele>
        <time>2020-08-05T16:04:59Z</time>
      </trkpt>
      <trkpt lat="42.71874" lon="1.4506">
        <ele>1036.8</ele>
        <time>2020-08-05T16:05:00Z</time>
      </trkpt>
      <trkpt lat="42.71867" lon="1.45059">
        <ele>1035.2</ele>
        <time>2020-08-05T16:05:02Z</time>
      </trkpt>
      <trkpt lat="42.71865" lon="1.4506">
        <ele>1034.6</ele>
        <time>2020-08-05T16:05:03Z</time>
      </trkpt>
      <trkpt lat="42.71863" lon="1.4506">
        <ele>1034</ele>
        <time>2020-08-05T16:05:04Z</time>
      </trkpt>
      <trkpt lat="42.71858" lon="1.45059">
        <ele>1032.6</ele>
        <time>2020-08-05T16:05:06Z</time>
      </trkpt>
      <trkpt lat="42.71856" lon="1.45058">
        <ele>1032</ele>
        <time>2020-08-05T16:05:07Z</time>
      </trkpt>
      <trkpt lat="42.71854" lon="1.45057">
        <ele>1031.2</ele>
        <time>2020-08-05T16:05:08Z</time>
      </trkpt>
      <trkpt lat="42.71852" lon="1.45057">
        <ele>1030</ele>
        <time>2020-08-05T16:05:10Z</time>
      </trkpt>
      <trkpt lat="42.71852" lon="1.45057">
        <ele>1029.4</ele>
        <time>2020-08-05T16:05:11Z</time>
      </trkpt>
      <trkpt lat="42.71852" lon="1.45057">
        <ele>1028.8</ele>
        <time>2020-08-05T16:05:17Z</time>
      </trkpt>
      <trkpt lat="42.71852" lon="1.45057">
        <ele>1028.8</ele>
        <time>2020-08-05T16:05:18Z</time>
      </trkpt>
      <trkpt lat="42.71852" lon="1.45056">
        <ele>1027.8</ele>
        <time>2020-08-05T16:05:22Z</time>
      </trkpt>
      <trkpt lat="42.71852" lon="1.45056">
        <ele>1027.6</ele>
        <time>2020-08-05T16:05:23Z</time>
      </trkpt>
      <trkpt lat="42.71852" lon="1.45056">
        <ele>1026.6</ele>
        <time>2020-08-05T16:05:28Z</time>
      </trkpt>
      <trkpt lat="42.71859" lon="1.45053">
        <ele>1025.2</ele>
        <time>2020-08-05T16:05:31Z</time>
      </trkpt>
      <trkpt lat="42.71861" lon="1.45052">
        <ele>1024.4</ele>
        <time>2020-08-05T16:05:32Z</time>
      </trkpt>
      <trkpt lat="42.71863" lon="1.4505">
        <ele>1023.8</ele>
        <time>2020-08-05T16:05:33Z</time>
      </trkpt>
      <trkpt lat="42.71864" lon="1.45047">
        <ele>1022.4</ele>
        <time>2020-08-05T16:05:35Z</time>
      </trkpt>
      <trkpt lat="42.71864" lon="1.45047">
        <ele>1022</ele>
        <time>2020-08-05T16:05:36Z</time>
      </trkpt>
      <trkpt lat="42.71869" lon="1.45044">
        <ele>1021.8</ele>
        <time>2020-08-05T16:05:40Z</time>
      </trkpt>
      <trkpt lat="42.71876" lon="1.45041">
        <ele>1021.8</ele>
        <time>2020-08-05T16:05:42Z</time>
      </trkpt>
      <trkpt lat="42.7188" lon="1.45039">
        <ele>1021.4</ele>
        <time>2020-08-05T16:05:43Z</time>
      </trkpt>
      <trkpt lat="42.71884" lon="1.45037">
        <ele>1020.8</ele>
        <time>2020-08-05T16:05:44Z</time>
      </trkpt>
      <trkpt lat="42.71889" lon="1.45036">
        <ele>1019.8</ele>
        <time>2020-08-05T16:05:45Z</time>
      </trkpt>
      <trkpt lat="42.71899" lon="1.45035">
        <ele>1019</ele>
        <time>2020-08-05T16:05:47Z</time>
      </trkpt>
      <trkpt lat="42.71905" lon="1.45036">
        <ele>1018.4</ele>
        <time>2020-08-05T16:05:48Z</time>
      </trkpt>
      <trkpt lat="42.71911" lon="1.45036">
        <ele>1017.8</ele>
        <time>2020-08-05T16:05:49Z</time>
      </trkpt>
      <trkpt lat="42.71917" lon="1.45037">
        <ele>1017.2</ele>
        <time>2020-08-05T16:05:50Z</time>
      </trkpt>
      <trkpt lat="42.71924" lon="1.45036">
        <ele>1016.4</ele>
        <time>2020-08-05T16:05:51Z</time>
      </trkpt>
      <trkpt lat="42.71932" lon="1.45034">
        <ele>1015.8</ele>
        <time>2020-08-05T16:05:52Z</time>
      </trkpt>
      <trkpt lat="42.71939" lon="1.45033">
        <ele>1015.4</ele>
        <time>2020-08-05T16:05:53Z</time>
      </trkpt>
      <trkpt lat="42.71947" lon="1.4503">
        <ele>1014.8</ele>
        <time>2020-08-05T16:05:54Z</time>
      </trkpt>
      <trkpt lat="42.71962" lon="1.45026">
        <ele>1013.6</ele>
        <time>2020-08-05T16:05:56Z</time>
      </trkpt>
      <trkpt lat="42.7197" lon="1.45027">
        <ele>1013.2</ele>
        <time>2020-08-05T16:05:57Z</time>
      </trkpt>
      <trkpt lat="42.71986" lon="1.45027">
        <ele>1011.8</ele>
        <time>2020-08-05T16:05:59Z</time>
      </trkpt>
      <trkpt lat="42.72004" lon="1.45029">
        <ele>1010.4</ele>
        <time>2020-08-05T16:06:01Z</time>
      </trkpt>
      <trkpt lat="42.72012" lon="1.4503">
        <ele>1009.8</ele>
        <time>2020-08-05T16:06:02Z</time>
      </trkpt>
      <trkpt lat="42.72029" lon="1.45037">
        <ele>1008.8</ele>
        <time>2020-08-05T16:06:04Z</time>
      </trkpt>
      <trkpt lat="42.72046" lon="1.45045">
        <ele>1007.2</ele>
        <time>2020-08-05T16:06:06Z</time>
      </trkpt>
      <trkpt lat="42.72064" lon="1.45051">
        <ele>1005.6</ele>
        <time>2020-08-05T16:06:08Z</time>
      </trkpt>
      <trkpt lat="42.72073" lon="1.45053">
        <ele>1004.4</ele>
        <time>2020-08-05T16:06:09Z</time>
      </trkpt>
      <trkpt lat="42.7209" lon="1.45061">
        <ele>1003.8</ele>
        <time>2020-08-05T16:06:11Z</time>
      </trkpt>
      <trkpt lat="42.72113" lon="1.45076">
        <ele>1003.4</ele>
        <time>2020-08-05T16:06:14Z</time>
      </trkpt>
      <trkpt lat="42.72127" lon="1.45086">
        <ele>1002.8</ele>
        <time>2020-08-05T16:06:16Z</time>
      </trkpt>
      <trkpt lat="42.72148" lon="1.45104">
        <ele>1002.2</ele>
        <time>2020-08-05T16:06:19Z</time>
      </trkpt>
      <trkpt lat="42.72168" lon="1.45125">
        <ele>1001.2</ele>
        <time>2020-08-05T16:06:22Z</time>
      </trkpt>
      <trkpt lat="42.72189" lon="1.45146">
        <ele>999.8</ele>
        <time>2020-08-05T16:06:25Z</time>
      </trkpt>
      <trkpt lat="42.72204" lon="1.45161">
        <ele>998.8</ele>
        <time>2020-08-05T16:06:27Z</time>
      </trkpt>
      <trkpt lat="42.7222" lon="1.45177">
        <ele>997.4</ele>
        <time>2020-08-05T16:06:29Z</time>
      </trkpt>
      <trkpt lat="42.72237" lon="1.45194">
        <ele>995.8</ele>
        <time>2020-08-05T16:06:31Z</time>
      </trkpt>
      <trkpt lat="42.72245" lon="1.45203">
        <ele>995.2</ele>
        <time>2020-08-05T16:06:32Z</time>
      </trkpt>
      <trkpt lat="42.72254" lon="1.45212">
        <ele>993.6</ele>
        <time>2020-08-05T16:06:33Z</time>
      </trkpt>
      <trkpt lat="42.72278" lon="1.45232">
        <ele>993.2</ele>
        <time>2020-08-05T16:06:36Z</time>
      </trkpt>
      <trkpt lat="42.72307" lon="1.45245">
        <ele>994.6</ele>
        <time>2020-08-05T16:06:40Z</time>
      </trkpt>
      <trkpt lat="42.72313" lon="1.45248">
        <ele>994.8</ele>
        <time>2020-08-05T16:06:41Z</time>
      </trkpt>
      <trkpt lat="42.72323" lon="1.45251">
        <ele>995.4</ele>
        <time>2020-08-05T16:06:43Z</time>
      </trkpt>
      <trkpt lat="42.72328" lon="1.45253">
        <ele>995.8</ele>
        <time>2020-08-05T16:06:44Z</time>
      </trkpt>
      <trkpt lat="42.72333" lon="1.45254">
        <ele>996</ele>
        <time>2020-08-05T16:06:45Z</time>
      </trkpt>
      <trkpt lat="42.72347" lon="1.45257">
        <ele>997</ele>
        <time>2020-08-05T16:06:49Z</time>
      </trkpt>
      <trkpt lat="42.7238" lon="1.45266">
        <ele>998</ele>
        <time>2020-08-05T16:06:57Z</time>
      </trkpt>
      <trkpt lat="42.72397" lon="1.45271">
        <ele>997</ele>
        <time>2020-08-05T16:07:00Z</time>
      </trkpt>
      <trkpt lat="42.72409" lon="1.45277">
        <ele>996.4</ele>
        <time>2020-08-05T16:07:02Z</time>
      </trkpt>
      <trkpt lat="42.72426" lon="1.45287">
        <ele>995.8</ele>
        <time>2020-08-05T16:07:05Z</time>
      </trkpt>
      <trkpt lat="42.7244" lon="1.45295">
        <ele>996</ele>
        <time>2020-08-05T16:07:08Z</time>
      </trkpt>
      <trkpt lat="42.72465" lon="1.45315">
        <ele>995</ele>
        <time>2020-08-05T16:07:13Z</time>
      </trkpt>
      <trkpt lat="42.72471" lon="1.45318">
        <ele>994.8</ele>
        <time>2020-08-05T16:07:14Z</time>
      </trkpt>
      <trkpt lat="42.72496" lon="1.45327">
        <ele>993.8</ele>
        <time>2020-08-05T16:07:18Z</time>
      </trkpt>
      <trkpt lat="42.72502" lon="1.45328">
        <ele>993.6</ele>
        <time>2020-08-05T16:07:19Z</time>
      </trkpt>
      <trkpt lat="42.72517" lon="1.4533">
        <ele>993</ele>
        <time>2020-08-05T16:07:21Z</time>
      </trkpt>
      <trkpt lat="42.72524" lon="1.45333">
        <ele>991.8</ele>
        <time>2020-08-05T16:07:22Z</time>
      </trkpt>
      <trkpt lat="42.72539" lon="1.45344">
        <ele>990.4</ele>
        <time>2020-08-05T16:07:24Z</time>
      </trkpt>
      <trkpt lat="42.72545" lon="1.45352">
        <ele>989.6</ele>
        <time>2020-08-05T16:07:25Z</time>
      </trkpt>
      <trkpt lat="42.72552" lon="1.4536">
        <ele>989</ele>
        <time>2020-08-05T16:07:26Z</time>
      </trkpt>
      <trkpt lat="42.72558" lon="1.4537">
        <ele>988.4</ele>
        <time>2020-08-05T16:07:27Z</time>
      </trkpt>
      <trkpt lat="42.72564" lon="1.4538">
        <ele>987.6</ele>
        <time>2020-08-05T16:07:28Z</time>
      </trkpt>
      <trkpt lat="42.7257" lon="1.4539">
        <ele>987</ele>
        <time>2020-08-05T16:07:29Z</time>
      </trkpt>
      <trkpt lat="42.72577" lon="1.454">
        <ele>986</ele>
        <time>2020-08-05T16:07:30Z</time>
      </trkpt>
      <trkpt lat="42.72591" lon="1.4542">
        <ele>984.4</ele>
        <time>2020-08-05T16:07:32Z</time>
      </trkpt>
      <trkpt lat="42.72606" lon="1.45441">
        <ele>983</ele>
        <time>2020-08-05T16:07:34Z</time>
      </trkpt>
      <trkpt lat="42.72615" lon="1.45449">
        <ele>982.2</ele>
        <time>2020-08-05T16:07:35Z</time>
      </trkpt>
      <trkpt lat="42.72625" lon="1.45454">
        <ele>981.4</ele>
        <time>2020-08-05T16:07:36Z</time>
      </trkpt>
      <trkpt lat="42.72646" lon="1.45464">
        <ele>979.6</ele>
        <time>2020-08-05T16:07:38Z</time>
      </trkpt>
      <trkpt lat="42.72656" lon="1.45471">
        <ele>978.6</ele>
        <time>2020-08-05T16:07:39Z</time>
      </trkpt>
      <trkpt lat="42.72674" lon="1.45493">
        <ele>977</ele>
        <time>2020-08-05T16:07:41Z</time>
      </trkpt>
      <trkpt lat="42.72686" lon="1.45522">
        <ele>975</ele>
        <time>2020-08-05T16:07:43Z</time>
      </trkpt>
      <trkpt lat="42.72693" lon="1.45536">
        <ele>974</ele>
        <time>2020-08-05T16:07:44Z</time>
      </trkpt>
      <trkpt lat="42.727" lon="1.45549">
        <ele>973</ele>
        <time>2020-08-05T16:07:45Z</time>
      </trkpt>
      <trkpt lat="42.7271" lon="1.4556">
        <ele>971</ele>
        <time>2020-08-05T16:07:46Z</time>
      </trkpt>
      <trkpt lat="42.7272" lon="1.4557">
        <ele>970</ele>
        <time>2020-08-05T16:07:47Z</time>
      </trkpt>
      <trkpt lat="42.7273" lon="1.45579">
        <ele>968.8</ele>
        <time>2020-08-05T16:07:48Z</time>
      </trkpt>
      <trkpt lat="42.72741" lon="1.45588">
        <ele>967.8</ele>
        <time>2020-08-05T16:07:49Z</time>
      </trkpt>
      <trkpt lat="42.72762" lon="1.45604">
        <ele>966.2</ele>
        <time>2020-08-05T16:07:51Z</time>
      </trkpt>
      <trkpt lat="42.72773" lon="1.45611">
        <ele>965.4</ele>
        <time>2020-08-05T16:07:52Z</time>
      </trkpt>
      <trkpt lat="42.72784" lon="1.45617">
        <ele>964.8</ele>
        <time>2020-08-05T16:07:53Z</time>
      </trkpt>
      <trkpt lat="42.72808" lon="1.4562">
        <ele>963.6</ele>
        <time>2020-08-05T16:07:55Z</time>
      </trkpt>
      <trkpt lat="42.72829" lon="1.45626">
        <ele>962.4</ele>
        <time>2020-08-05T16:07:57Z</time>
      </trkpt>
      <trkpt lat="42.7284" lon="1.4563">
        <ele>961.6</ele>
        <time>2020-08-05T16:07:58Z</time>
      </trkpt>
      <trkpt lat="42.72851" lon="1.45636">
        <ele>960.8</ele>
        <time>2020-08-05T16:07:59Z</time>
      </trkpt>
      <trkpt lat="42.72872" lon="1.45649">
        <ele>959</ele>
        <time>2020-08-05T16:08:01Z</time>
      </trkpt>
      <trkpt lat="42.72892" lon="1.45662">
        <ele>957.2</ele>
        <time>2020-08-05T16:08:03Z</time>
      </trkpt>
      <trkpt lat="42.72913" lon="1.45675">
        <ele>955.8</ele>
        <time>2020-08-05T16:08:05Z</time>
      </trkpt>
      <trkpt lat="42.72943" lon="1.45687">
        <ele>954.6</ele>
        <time>2020-08-05T16:08:08Z</time>
      </trkpt>
      <trkpt lat="42.72963" lon="1.45694">
        <ele>953</ele>
        <time>2020-08-05T16:08:10Z</time>
      </trkpt>
      <trkpt lat="42.72983" lon="1.457">
        <ele>951.8</ele>
        <time>2020-08-05T16:08:12Z</time>
      </trkpt>
      <trkpt lat="42.73002" lon="1.4571">
        <ele>950.4</ele>
        <time>2020-08-05T16:08:14Z</time>
      </trkpt>
      <trkpt lat="42.73011" lon="1.45717">
        <ele>949.4</ele>
        <time>2020-08-05T16:08:15Z</time>
      </trkpt>
      <trkpt lat="42.73019" lon="1.45725">
        <ele>948.2</ele>
        <time>2020-08-05T16:08:16Z</time>
      </trkpt>
      <trkpt lat="42.73027" lon="1.45734">
        <ele>947.6</ele>
        <time>2020-08-05T16:08:17Z</time>
      </trkpt>
      <trkpt lat="42.73034" lon="1.45743">
        <ele>947.2</ele>
        <time>2020-08-05T16:08:18Z</time>
      </trkpt>
      <trkpt lat="42.73061" lon="1.45772">
        <ele>946.8</ele>
        <time>2020-08-05T16:08:22Z</time>
      </trkpt>
      <trkpt lat="42.73075" lon="1.45783">
        <ele>946</ele>
        <time>2020-08-05T16:08:24Z</time>
      </trkpt>
      <trkpt lat="42.73092" lon="1.45791">
        <ele>944.8</ele>
        <time>2020-08-05T16:08:26Z</time>
      </trkpt>
      <trkpt lat="42.73111" lon="1.45793">
        <ele>943.6</ele>
        <time>2020-08-05T16:08:28Z</time>
      </trkpt>
      <trkpt lat="42.7312" lon="1.45793">
        <ele>943</ele>
        <time>2020-08-05T16:08:29Z</time>
      </trkpt>
      <trkpt lat="42.73129" lon="1.45794">
        <ele>942.8</ele>
        <time>2020-08-05T16:08:30Z</time>
      </trkpt>
      <trkpt lat="42.73149" lon="1.45796">
        <ele>943.6</ele>
        <time>2020-08-05T16:08:33Z</time>
      </trkpt>
      <trkpt lat="42.7318" lon="1.45802">
        <ele>944.2</ele>
        <time>2020-08-05T16:08:39Z</time>
      </trkpt>
      <trkpt lat="42.73205" lon="1.45808">
        <ele>943.2</ele>
        <time>2020-08-05T16:08:43Z</time>
      </trkpt>
      <trkpt lat="42.73236" lon="1.45808">
        <ele>942.6</ele>
        <time>2020-08-05T16:08:48Z</time>
      </trkpt>
      <trkpt lat="42.73243" lon="1.45807">
        <ele>942.4</ele>
        <time>2020-08-05T16:08:49Z</time>
      </trkpt>
      <trkpt lat="42.73263" lon="1.45801">
        <ele>941.4</ele>
        <time>2020-08-05T16:08:52Z</time>
      </trkpt>
      <trkpt lat="42.73278" lon="1.45798">
        <ele>940.2</ele>
        <time>2020-08-05T16:08:54Z</time>
      </trkpt>
      <trkpt lat="42.73302" lon="1.45798">
        <ele>939</ele>
        <time>2020-08-05T16:08:57Z</time>
      </trkpt>
      <trkpt lat="42.7331" lon="1.45801">
        <ele>938</ele>
        <time>2020-08-05T16:08:58Z</time>
      </trkpt>
      <trkpt lat="42.73318" lon="1.45805">
        <ele>937.6</ele>
        <time>2020-08-05T16:08:59Z</time>
      </trkpt>
      <trkpt lat="42.73332" lon="1.45819">
        <ele>936.6</ele>
        <time>2020-08-05T16:09:01Z</time>
      </trkpt>
      <trkpt lat="42.73339" lon="1.45826">
        <ele>936.4</ele>
        <time>2020-08-05T16:09:02Z</time>
      </trkpt>
      <trkpt lat="42.73345" lon="1.45835">
        <ele>935.8</ele>
        <time>2020-08-05T16:09:03Z</time>
      </trkpt>
      <trkpt lat="42.73351" lon="1.45844">
        <ele>935.2</ele>
        <time>2020-08-05T16:09:04Z</time>
      </trkpt>
      <trkpt lat="42.73365" lon="1.45862">
        <ele>934</ele>
        <time>2020-08-05T16:09:06Z</time>
      </trkpt>
      <trkpt lat="42.73385" lon="1.45885">
        <ele>933.2</ele>
        <time>2020-08-05T16:09:09Z</time>
      </trkpt>
      <trkpt lat="42.73399" lon="1.45893">
        <ele>933.2</ele>
        <time>2020-08-05T16:09:11Z</time>
      </trkpt>
      <trkpt lat="42.7342" lon="1.45895">
        <ele>933.8</ele>
        <time>2020-08-05T16:09:14Z</time>
      </trkpt>
      <trkpt lat="42.73445" lon="1.45882">
        <ele>933.8</ele>
        <time>2020-08-05T16:09:18Z</time>
      </trkpt>
      <trkpt lat="42.73457" lon="1.45868">
        <ele>932.8</ele>
        <time>2020-08-05T16:09:20Z</time>
      </trkpt>
      <trkpt lat="42.73472" lon="1.4586">
        <ele>930.6</ele>
        <time>2020-08-05T16:09:22Z</time>
      </trkpt>
      <trkpt lat="42.73481" lon="1.45862">
        <ele>929.4</ele>
        <time>2020-08-05T16:09:23Z</time>
      </trkpt>
      <trkpt lat="42.7349" lon="1.45868">
        <ele>928.4</ele>
        <time>2020-08-05T16:09:24Z</time>
      </trkpt>
      <trkpt lat="42.73498" lon="1.45877">
        <ele>927.8</ele>
        <time>2020-08-05T16:09:25Z</time>
      </trkpt>
      <trkpt lat="42.73503" lon="1.45886">
        <ele>927.6</ele>
        <time>2020-08-05T16:09:26Z</time>
      </trkpt>
      <trkpt lat="42.73509" lon="1.45897">
        <ele>927.2</ele>
        <time>2020-08-05T16:09:27Z</time>
      </trkpt>
      <trkpt lat="42.73514" lon="1.45907">
        <ele>926.8</ele>
        <time>2020-08-05T16:09:28Z</time>
      </trkpt>
      <trkpt lat="42.73534" lon="1.45944">
        <ele>926.6</ele>
        <time>2020-08-05T16:09:32Z</time>
      </trkpt>
      <trkpt lat="42.73553" lon="1.45985">
        <ele>927.6</ele>
        <time>2020-08-05T16:09:37Z</time>
      </trkpt>
      <trkpt lat="42.7356" lon="1.46001">
        <ele>927.8</ele>
        <time>2020-08-05T16:09:39Z</time>
      </trkpt>
      <trkpt lat="42.73572" lon="1.4603">
        <ele>928.6</ele>
        <time>2020-08-05T16:09:43Z</time>
      </trkpt>
      <trkpt lat="42.73575" lon="1.46038">
        <ele>928.8</ele>
        <time>2020-08-05T16:09:44Z</time>
      </trkpt>
      <trkpt lat="42.73579" lon="1.46044">
        <ele>929</ele>
        <time>2020-08-05T16:09:45Z</time>
      </trkpt>
      <trkpt lat="42.73592" lon="1.46062">
        <ele>929.2</ele>
        <time>2020-08-05T16:09:48Z</time>
      </trkpt>
      <trkpt lat="42.73603" lon="1.46071">
        <ele>929.2</ele>
        <time>2020-08-05T16:09:50Z</time>
      </trkpt>
      <trkpt lat="42.73622" lon="1.46083">
        <ele>929.2</ele>
        <time>2020-08-05T16:09:53Z</time>
      </trkpt>
      <trkpt lat="42.73636" lon="1.46088">
        <ele>929.2</ele>
        <time>2020-08-05T16:09:55Z</time>
      </trkpt>
      <trkpt lat="42.73651" lon="1.46091">
        <ele>928.8</ele>
        <time>2020-08-05T16:09:57Z</time>
      </trkpt>
      <trkpt lat="42.73659" lon="1.46091">
        <ele>928.6</ele>
        <time>2020-08-05T16:09:58Z</time>
      </trkpt>
      <trkpt lat="42.7369" lon="1.4609">
        <ele>927.6</ele>
        <time>2020-08-05T16:10:02Z</time>
      </trkpt>
      <trkpt lat="42.73706" lon="1.4609">
        <ele>927</ele>
        <time>2020-08-05T16:10:04Z</time>
      </trkpt>
      <trkpt lat="42.73722" lon="1.46093">
        <ele>926.4</ele>
        <time>2020-08-05T16:10:06Z</time>
      </trkpt>
      <trkpt lat="42.73755" lon="1.46099">
        <ele>924.8</ele>
        <time>2020-08-05T16:10:10Z</time>
      </trkpt>
      <trkpt lat="42.73796" lon="1.46095">
        <ele>923.6</ele>
        <time>2020-08-05T16:10:15Z</time>
      </trkpt>
      <trkpt lat="42.73838" lon="1.46089">
        <ele>922.6</ele>
        <time>2020-08-05T16:10:20Z</time>
      </trkpt>
      <trkpt lat="42.73854" lon="1.46087">
        <ele>922</ele>
        <time>2020-08-05T16:10:22Z</time>
      </trkpt>
      <trkpt lat="42.73871" lon="1.46086">
        <ele>921.6</ele>
        <time>2020-08-05T16:10:24Z</time>
      </trkpt>
      <trkpt lat="42.7388" lon="1.46088">
        <ele>921.4</ele>
        <time>2020-08-05T16:10:25Z</time>
      </trkpt>
      <trkpt lat="42.73888" lon="1.4609">
        <ele>920.8</ele>
        <time>2020-08-05T16:10:26Z</time>
      </trkpt>
      <trkpt lat="42.73897" lon="1.46093">
        <ele>920.2</ele>
        <time>2020-08-05T16:10:27Z</time>
      </trkpt>
      <trkpt lat="42.73916" lon="1.46101">
        <ele>918.4</ele>
        <time>2020-08-05T16:10:29Z</time>
      </trkpt>
      <trkpt lat="42.73936" lon="1.4611">
        <ele>916.6</ele>
        <time>2020-08-05T16:10:31Z</time>
      </trkpt>
      <trkpt lat="42.73957" lon="1.46121">
        <ele>914.6</ele>
        <time>2020-08-05T16:10:33Z</time>
      </trkpt>
      <trkpt lat="42.73968" lon="1.46128">
        <ele>912.2</ele>
        <time>2020-08-05T16:10:34Z</time>
      </trkpt>
      <trkpt lat="42.73979" lon="1.46135">
        <ele>911</ele>
        <time>2020-08-05T16:10:35Z</time>
      </trkpt>
      <trkpt lat="42.7399" lon="1.46142">
        <ele>910</ele>
        <time>2020-08-05T16:10:36Z</time>
      </trkpt>
      <trkpt lat="42.74001" lon="1.4615">
        <ele>909</ele>
        <time>2020-08-05T16:10:37Z</time>
      </trkpt>
      <trkpt lat="42.74012" lon="1.46157">
        <ele>908</ele>
        <time>2020-08-05T16:10:38Z</time>
      </trkpt>
      <trkpt lat="42.74023" lon="1.46165">
        <ele>906.8</ele>
        <time>2020-08-05T16:10:39Z</time>
      </trkpt>
      <trkpt lat="42.74035" lon="1.46172">
        <ele>905.2</ele>
        <time>2020-08-05T16:10:40Z</time>
      </trkpt>
      <trkpt lat="42.74046" lon="1.46179">
        <ele>903.4</ele>
        <time>2020-08-05T16:10:41Z</time>
      </trkpt>
      <trkpt lat="42.74058" lon="1.46185">
        <ele>901.4</ele>
        <time>2020-08-05T16:10:42Z</time>
      </trkpt>
      <trkpt lat="42.74071" lon="1.4619">
        <ele>900.2</ele>
        <time>2020-08-05T16:10:43Z</time>
      </trkpt>
      <trkpt lat="42.74096" lon="1.46199">
        <ele>898.2</ele>
        <time>2020-08-05T16:10:45Z</time>
      </trkpt>
      <trkpt lat="42.7411" lon="1.46201">
        <ele>897</ele>
        <time>2020-08-05T16:10:46Z</time>
      </trkpt>
      <trkpt lat="42.74123" lon="1.46202">
        <ele>895.6</ele>
        <time>2020-08-05T16:10:47Z</time>
      </trkpt>
      <trkpt lat="42.74136" lon="1.46204">
        <ele>894.4</ele>
        <time>2020-08-05T16:10:48Z</time>
      </trkpt>
      <trkpt lat="42.74149" lon="1.46209">
        <ele>892.8</ele>
        <time>2020-08-05T16:10:49Z</time>
      </trkpt>
      <trkpt lat="42.74161" lon="1.46218">
        <ele>891.4</ele>
        <time>2020-08-05T16:10:50Z</time>
      </trkpt>
      <trkpt lat="42.74173" lon="1.46226">
        <ele>889.6</ele>
        <time>2020-08-05T16:10:51Z</time>
      </trkpt>
      <trkpt lat="42.74186" lon="1.46233">
        <ele>888</ele>
        <time>2020-08-05T16:10:52Z</time>
      </trkpt>
      <trkpt lat="42.742" lon="1.46237">
        <ele>886.2</ele>
        <time>2020-08-05T16:10:53Z</time>
      </trkpt>
      <trkpt lat="42.74214" lon="1.46243">
        <ele>885</ele>
        <time>2020-08-05T16:10:54Z</time>
      </trkpt>
      <trkpt lat="42.74227" lon="1.46248">
        <ele>883.8</ele>
        <time>2020-08-05T16:10:55Z</time>
      </trkpt>
      <trkpt lat="42.74241" lon="1.46255">
        <ele>882.6</ele>
        <time>2020-08-05T16:10:56Z</time>
      </trkpt>
      <trkpt lat="42.74254" lon="1.46263">
        <ele>881</ele>
        <time>2020-08-05T16:10:57Z</time>
      </trkpt>
      <trkpt lat="42.74266" lon="1.46274">
        <ele>877.8</ele>
        <time>2020-08-05T16:10:58Z</time>
      </trkpt>
      <trkpt lat="42.74276" lon="1.46287">
        <ele>876.2</ele>
        <time>2020-08-05T16:10:59Z</time>
      </trkpt>
      <trkpt lat="42.74286" lon="1.46303">
        <ele>875</ele>
        <time>2020-08-05T16:11:00Z</time>
      </trkpt>
      <trkpt lat="42.74295" lon="1.4632">
        <ele>873.6</ele>
        <time>2020-08-05T16:11:01Z</time>
      </trkpt>
      <trkpt lat="42.74304" lon="1.46337">
        <ele>872.2</ele>
        <time>2020-08-05T16:11:02Z</time>
      </trkpt>
      <trkpt lat="42.74313" lon="1.46349">
        <ele>870.4</ele>
        <time>2020-08-05T16:11:03Z</time>
      </trkpt>
      <trkpt lat="42.7432" lon="1.46358">
        <ele>868.4</ele>
        <time>2020-08-05T16:11:04Z</time>
      </trkpt>
      <trkpt lat="42.74325" lon="1.46365">
        <ele>866.8</ele>
        <time>2020-08-05T16:11:05Z</time>
      </trkpt>
      <trkpt lat="42.74328" lon="1.46369">
        <ele>866</ele>
        <time>2020-08-05T16:11:06Z</time>
      </trkpt>
      <trkpt lat="42.74328" lon="1.46371">
        <ele>865.8</ele>
        <time>2020-08-05T16:11:07Z</time>
      </trkpt>
    </trkseg>
  </trk>
</gpx>